<?xml version='1.0' encoding='UTF-8'?><gpx version="1.1" creator="JPX - https://github.com/jenetics/jpx" xmlns="http://www.topografix.com/GPX/1/1"><trk><trkseg><trkpt lat="40.63167033098269" lon="9.221906843554251"><ele>884.0</ele><time>2026-03-27T11:18:57.001Z</time></trkpt><trkpt lat="40.631611968114065" lon="9.221844099716908"><ele>884.0000000000001</ele><time>2026-03-27T11:19:00.001Z</time></trkpt><trkpt lat="40.63163734159068" lon="9.221698073085614"><ele>884.0000000000001</ele><time>2026-03-27T11:19:03Z</time></trkpt><trkpt lat="40.63167046772812" lon="9.221537902879142"><ele>884.0</ele><time>2026-03-27T11:19:05Z</time></trkpt><trkpt lat="40.631692981942464" lon="9.221458690843821"><ele>884.0</ele><time>2026-03-27T11:19:06Z</time></trkpt><trkpt lat="40.63171379136048" lon="9.221362726621917"><ele>885.2</ele><time>2026-03-27T11:19:07Z</time></trkpt><trkpt lat="40.631727647424604" lon="9.221240605287527"><ele>886.4000000000001</ele><time>2026-03-27T11:19:08Z</time></trkpt><trkpt lat="40.63174167710518" lon="9.221141121960965"><ele>887.6</ele><time>2026-03-27T11:19:09Z</time></trkpt><trkpt lat="40.63176465508763" lon="9.22103335159782"><ele>888.8</ele><time>2026-03-27T11:19:10Z</time></trkpt><trkpt lat="40.631807595410336" lon="9.220918701188056"><ele>890.0</ele><time>2026-03-27T11:19:11Z</time></trkpt><trkpt lat="40.63185173790772" lon="9.220786060388438"><ele>888.5</ele><time>2026-03-27T11:19:12Z</time></trkpt><trkpt lat="40.63189909367596" lon="9.220629474329403"><ele>887.0</ele><time>2026-03-27T11:19:13Z</time></trkpt><trkpt lat="40.63194360937756" lon="9.220443553017114"><ele>885.5</ele><time>2026-03-27T11:19:14Z</time></trkpt><trkpt lat="40.63197743960946" lon="9.220247839601662"><ele>884.0</ele><time>2026-03-27T11:19:15Z</time></trkpt><trkpt lat="40.63198821819546" lon="9.220055616029232"><ele>884.0</ele><time>2026-03-27T11:19:16Z</time></trkpt><trkpt lat="40.631983212981915" lon="9.21985475062573"><ele>884.0</ele><time>2026-03-27T11:19:17Z</time></trkpt><trkpt lat="40.63195126712274" lon="9.219611535854458"><ele>884.0</ele><time>2026-03-27T11:19:18Z</time></trkpt><trkpt lat="40.631890609343586" lon="9.219363944835374"><ele>888.3333333333334</ele><time>2026-03-27T11:19:19Z</time></trkpt><trkpt lat="40.631809513602676" lon="9.219102572800034"><ele>892.6666666666667</ele><time>2026-03-27T11:19:20Z</time></trkpt><trkpt lat="40.63173594313456" lon="9.218860941933118"><ele>897.0</ele><time>2026-03-27T11:19:21Z</time></trkpt><trkpt lat="40.63166872333538" lon="9.218652907061895"><ele>897.0</ele><time>2026-03-27T11:19:22Z</time></trkpt><trkpt lat="40.63161081338526" lon="9.218444626144926"><ele>897.0</ele><time>2026-03-27T11:19:23Z</time></trkpt><trkpt lat="40.63156524931992" lon="9.218206990571456"><ele>897.0</ele><time>2026-03-27T11:19:24Z</time></trkpt><trkpt lat="40.63152917161564" lon="9.217951031105473"><ele>897.3333333333333</ele><time>2026-03-27T11:19:25Z</time></trkpt><trkpt lat="40.63148499635061" lon="9.217683409642055"><ele>897.6666666666666</ele><time>2026-03-27T11:19:26Z</time></trkpt><trkpt lat="40.631435610698425" lon="9.217423468309285"><ele>898.0</ele><time>2026-03-27T11:19:27Z</time></trkpt><trkpt lat="40.63140387603503" lon="9.217164143809475"><ele>899.3333333333333</ele><time>2026-03-27T11:19:28Z</time></trkpt><trkpt lat="40.63135744652347" lon="9.216935718032293"><ele>900.6666666666667</ele><time>2026-03-27T11:19:29Z</time></trkpt><trkpt lat="40.631343756520224" lon="9.21668360594718"><ele>902.0</ele><time>2026-03-27T11:19:30Z</time></trkpt><trkpt lat="40.63133361255708" lon="9.216430496593944"><ele>902.6666666666667</ele><time>2026-03-27T11:19:31Z</time></trkpt><trkpt lat="40.63132624775833" lon="9.216188309183078"><ele>903.3333333333333</ele><time>2026-03-27T11:19:32Z</time></trkpt><trkpt lat="40.631327507428786" lon="9.215980778139595"><ele>904.0</ele><time>2026-03-27T11:19:33Z</time></trkpt><trkpt lat="40.631349232164695" lon="9.215780769357892"><ele>907.0</ele><time>2026-03-27T11:19:34Z</time></trkpt><trkpt lat="40.63140050779826" lon="9.215577635144296"><ele>910.0</ele><time>2026-03-27T11:19:35Z</time></trkpt><trkpt lat="40.63147085518908" lon="9.215348505899353"><ele>913.0</ele><time>2026-03-27T11:19:36Z</time></trkpt><trkpt lat="40.63154377790364" lon="9.215102674760974"><ele>913.0</ele><time>2026-03-27T11:19:37Z</time></trkpt><trkpt lat="40.63158579164446" lon="9.214914866784351"><ele>913.0</ele><time>2026-03-27T11:19:38Z</time></trkpt><trkpt lat="40.631611154711095" lon="9.214693143760506"><ele>913.0</ele><time>2026-03-27T11:19:39Z</time></trkpt><trkpt lat="40.631630389764645" lon="9.214463455644891"><ele>912.6666666666666</ele><time>2026-03-27T11:19:40Z</time></trkpt><trkpt lat="40.63164333815452" lon="9.21423230895144"><ele>912.3333333333333</ele><time>2026-03-27T11:19:41Z</time></trkpt><trkpt lat="40.63164478714742" lon="9.214035115099477"><ele>912.0</ele><time>2026-03-27T11:19:42Z</time></trkpt><trkpt lat="40.63163286412457" lon="9.213847954566717"><ele>912.0</ele><time>2026-03-27T11:19:43Z</time></trkpt><trkpt lat="40.63159920115632" lon="9.21365865625322"><ele>912.0</ele><time>2026-03-27T11:19:44Z</time></trkpt><trkpt lat="40.63154951241253" lon="9.213499231163029"><ele>912.0</ele><time>2026-03-27T11:19:45Z</time></trkpt><trkpt lat="40.63147552506081" lon="9.213354098811815"><ele>912.0</ele><time>2026-03-27T11:19:46Z</time></trkpt><trkpt lat="40.631363787452884" lon="9.213202821484954"><ele>913.3333333333333</ele><time>2026-03-27T11:19:47Z</time></trkpt><trkpt lat="40.63123549785988" lon="9.21303856290167"><ele>914.6666666666666</ele><time>2026-03-27T11:19:48Z</time></trkpt><trkpt lat="40.63112594756056" lon="9.21289408662472"><ele>916.0</ele><time>2026-03-27T11:19:49Z</time></trkpt><trkpt lat="40.63102284144342" lon="9.212795765550643"><ele>916.0</ele><time>2026-03-27T11:19:50Z</time></trkpt><trkpt lat="40.63092880816049" lon="9.212739468998986"><ele>916.0</ele><time>2026-03-27T11:19:50.999Z</time></trkpt><trkpt lat="40.63080882162017" lon="9.212707324440043"><ele>916.0</ele><time>2026-03-27T11:19:51.999Z</time></trkpt><trkpt lat="40.630661249911356" lon="9.212670845133603"><ele>916.0</ele><time>2026-03-27T11:19:52.999Z</time></trkpt><trkpt lat="40.630495025676424" lon="9.212627561040762"><ele>916.0</ele><time>2026-03-27T11:19:53.999Z</time></trkpt><trkpt lat="40.63034739722984" lon="9.21252845435233"><ele>916.0</ele><time>2026-03-27T11:19:54.999Z</time></trkpt><trkpt lat="40.63020170126606" lon="9.212463856325602"><ele>916.0</ele><time>2026-03-27T11:19:55.999Z</time></trkpt><trkpt lat="40.630055801978756" lon="9.212399702373265"><ele>915.25</ele><time>2026-03-27T11:19:56.999Z</time></trkpt><trkpt lat="40.62993633141646" lon="9.21234894163597"><ele>914.5</ele><time>2026-03-27T11:19:57.999Z</time></trkpt><trkpt lat="40.629809147499515" lon="9.212316359620193"><ele>913.75</ele><time>2026-03-27T11:19:58.999Z</time></trkpt><trkpt lat="40.629655850736896" lon="9.21231341109068"><ele>913.0</ele><time>2026-03-27T11:19:59.999Z</time></trkpt><trkpt lat="40.62948953726437" lon="9.212319566914191"><ele>915.3333333333333</ele><time>2026-03-27T11:20:00.999Z</time></trkpt><trkpt lat="40.62932350427738" lon="9.212293168073504"><ele>917.6666666666667</ele><time>2026-03-27T11:20:01.999Z</time></trkpt><trkpt lat="40.6291611300588" lon="9.212222534021333"><ele>920.0</ele><time>2026-03-27T11:20:02.999Z</time></trkpt><trkpt lat="40.62900129942235" lon="9.212132734836082"><ele>920.0</ele><time>2026-03-27T11:20:03.999Z</time></trkpt><trkpt lat="40.62883825703774" lon="9.2120304348089"><ele>920.0</ele><time>2026-03-27T11:20:04.999Z</time></trkpt><trkpt lat="40.6286768534714" lon="9.211915490083767"><ele>920.0</ele><time>2026-03-27T11:20:05.999Z</time></trkpt><trkpt lat="40.628516105662335" lon="9.211782790390686"><ele>921.3333333333334</ele><time>2026-03-27T11:20:06.999Z</time></trkpt><trkpt lat="40.628368352043765" lon="9.211668390119392"><ele>922.6666666666667</ele><time>2026-03-27T11:20:07.999Z</time></trkpt><trkpt lat="40.62823750213474" lon="9.211567151238881"><ele>924.0</ele><time>2026-03-27T11:20:08.999Z</time></trkpt><trkpt lat="40.62813772688026" lon="9.211458402260313"><ele>924.0</ele><time>2026-03-27T11:20:09.999Z</time></trkpt><trkpt lat="40.62805346952722" lon="9.211337371035501"><ele>924.0</ele><time>2026-03-27T11:20:10.999Z</time></trkpt><trkpt lat="40.62798588238267" lon="9.211206535672929"><ele>924.0</ele><time>2026-03-27T11:20:11.999Z</time></trkpt><trkpt lat="40.627928545650434" lon="9.211056535749421"><ele>924.0</ele><time>2026-03-27T11:20:12.999Z</time></trkpt><trkpt lat="40.6278767224572" lon="9.210884911562022"><ele>924.0</ele><time>2026-03-27T11:20:13.999Z</time></trkpt><trkpt lat="40.627832701202856" lon="9.210685774616602"><ele>924.0</ele><time>2026-03-27T11:20:14.999Z</time></trkpt><trkpt lat="40.627766576930604" lon="9.21049147006408"><ele>924.0</ele><time>2026-03-27T11:20:15.999Z</time></trkpt><trkpt lat="40.6276917604195" lon="9.210305873868943"><ele>923.6666666666667</ele><time>2026-03-27T11:20:16.999Z</time></trkpt><trkpt lat="40.6275983929061" lon="9.210120889887241"><ele>923.3333333333334</ele><time>2026-03-27T11:20:17.999Z</time></trkpt><trkpt lat="40.62748417995113" lon="9.209951828156724"><ele>923.0</ele><time>2026-03-27T11:20:18.999Z</time></trkpt><trkpt lat="40.62735661987082" lon="9.209784103121525"><ele>921.6666666666667</ele><time>2026-03-27T11:20:19.999Z</time></trkpt><trkpt lat="40.62720721745988" lon="9.209609605732796"><ele>920.3333333333333</ele><time>2026-03-27T11:20:20.999Z</time></trkpt><trkpt lat="40.62705505848376" lon="9.209429618787192"><ele>919.0</ele><time>2026-03-27T11:20:21.999Z</time></trkpt><trkpt lat="40.62691939712901" lon="9.20924404640255"><ele>918.6666666666666</ele><time>2026-03-27T11:20:22.999Z</time></trkpt><trkpt lat="40.626808944374694" lon="9.209067582811455"><ele>918.3333333333333</ele><time>2026-03-27T11:20:23.999Z</time></trkpt><trkpt lat="40.626698611423684" lon="9.208911145018766"><ele>918.0</ele><time>2026-03-27T11:20:24.999Z</time></trkpt><trkpt lat="40.626580887689485" lon="9.208774682498197"><ele>915.6666666666667</ele><time>2026-03-27T11:20:25.999Z</time></trkpt><trkpt lat="40.62645252542146" lon="9.208632715004258"><ele>913.3333333333334</ele><time>2026-03-27T11:20:26.999Z</time></trkpt><trkpt lat="40.626326696530306" lon="9.208492413551253"><ele>911.0</ele><time>2026-03-27T11:20:27.999Z</time></trkpt><trkpt lat="40.62619363859458" lon="9.208349128396348"><ele>911.0</ele><time>2026-03-27T11:20:28.999Z</time></trkpt><trkpt lat="40.626043012435524" lon="9.208220248325361"><ele>911.0</ele><time>2026-03-27T11:20:29.999Z</time></trkpt><trkpt lat="40.62589963091883" lon="9.20810289011764"><ele>911.0</ele><time>2026-03-27T11:20:30.999Z</time></trkpt><trkpt lat="40.62577583934142" lon="9.208020580369054"><ele>911.0</ele><time>2026-03-27T11:20:31.999Z</time></trkpt><trkpt lat="40.62567444312722" lon="9.207968801726471"><ele>910.9999999999999</ele><time>2026-03-27T11:20:32.999Z</time></trkpt><trkpt lat="40.62558299447856" lon="9.207950932788965"><ele>910.9999999999999</ele><time>2026-03-27T11:20:33.999Z</time></trkpt><trkpt lat="40.625480712583744" lon="9.207961967421713"><ele>911.0</ele><time>2026-03-27T11:20:34.999Z</time></trkpt><trkpt lat="40.62536512038736" lon="9.207993712276467"><ele>911.0</ele><time>2026-03-27T11:20:35.999Z</time></trkpt><trkpt lat="40.62526782606354" lon="9.20803549019633"><ele>911.3333333333334</ele><time>2026-03-27T11:20:36.999Z</time></trkpt><trkpt lat="40.625208581806994" lon="9.208071437174798"><ele>911.6666666666667</ele><time>2026-03-27T11:20:37.999Z</time></trkpt><trkpt lat="40.62514223397162" lon="9.208035174384344"><ele>912.0</ele><time>2026-03-27T11:20:40.999Z</time></trkpt><trkpt lat="40.62507347482365" lon="9.208002231611216"><ele>912.3333333333333</ele><time>2026-03-27T11:20:42.999Z</time></trkpt><trkpt lat="40.6250004431292" lon="9.208038477032341"><ele>912.6666666666666</ele><time>2026-03-27T11:20:44.999Z</time></trkpt><trkpt lat="40.62489472858362" lon="9.208147138771626"><ele>913.0</ele><time>2026-03-27T11:20:46.999Z</time></trkpt><trkpt lat="40.624815355437946" lon="9.208220527001394"><ele>913.0</ele><time>2026-03-27T11:20:47.999Z</time></trkpt><trkpt lat="40.624701259727885" lon="9.20829921505808"><ele>913.0</ele><time>2026-03-27T11:20:48.999Z</time></trkpt><trkpt lat="40.62456730833892" lon="9.208396278928657"><ele>913.0</ele><time>2026-03-27T11:20:49.998Z</time></trkpt><trkpt lat="40.62442524480886" lon="9.20850681160721"><ele>913.0</ele><time>2026-03-27T11:20:50.998Z</time></trkpt><trkpt lat="40.624280370101665" lon="9.20861655970474"><ele>913.0</ele><time>2026-03-27T11:20:52Z</time></trkpt><trkpt lat="40.62413230721836" lon="9.208730574053218"><ele>913.0</ele><time>2026-03-27T11:20:53Z</time></trkpt><trkpt lat="40.6239922821879" lon="9.208838188565649"><ele>913.0</ele><time>2026-03-27T11:20:54Z</time></trkpt><trkpt lat="40.62386904181234" lon="9.208936187169842"><ele>914.25</ele><time>2026-03-27T11:20:55Z</time></trkpt><trkpt lat="40.623748428905685" lon="9.209008101666852"><ele>915.5</ele><time>2026-03-27T11:20:56Z</time></trkpt><trkpt lat="40.62360587307995" lon="9.209059967739677"><ele>916.75</ele><time>2026-03-27T11:20:57Z</time></trkpt><trkpt lat="40.62345444075722" lon="9.209111806661836"><ele>918.0</ele><time>2026-03-27T11:20:58Z</time></trkpt><trkpt lat="40.623329102893095" lon="9.209146277456627"><ele>918.75</ele><time>2026-03-27T11:20:59Z</time></trkpt><trkpt lat="40.62320714045234" lon="9.20914268860221"><ele>919.5</ele><time>2026-03-27T11:21:00Z</time></trkpt><trkpt lat="40.62308763328057" lon="9.209111311352242"><ele>920.25</ele><time>2026-03-27T11:21:01Z</time></trkpt><trkpt lat="40.62295127023562" lon="9.209056389959597"><ele>921.0</ele><time>2026-03-27T11:21:02Z</time></trkpt><trkpt lat="40.62280626781709" lon="9.208971174342997"><ele>922.0</ele><time>2026-03-27T11:21:03Z</time></trkpt><trkpt lat="40.622650215079574" lon="9.208858006727478"><ele>923.0</ele><time>2026-03-27T11:21:04Z</time></trkpt><trkpt lat="40.62250691411825" lon="9.208757421137806"><ele>924.0</ele><time>2026-03-27T11:21:05Z</time></trkpt><trkpt lat="40.62235695426719" lon="9.208690783262174"><ele>924.0</ele><time>2026-03-27T11:21:06Z</time></trkpt><trkpt lat="40.622207173212615" lon="9.208644264661173"><ele>924.0</ele><time>2026-03-27T11:21:07Z</time></trkpt><trkpt lat="40.6220682615358" lon="9.208616513717338"><ele>924.0</ele><time>2026-03-27T11:21:08Z</time></trkpt><trkpt lat="40.621939591057725" lon="9.20861242948072"><ele>924.0</ele><time>2026-03-27T11:21:09Z</time></trkpt><trkpt lat="40.62181115699906" lon="9.208628184192342"><ele>923.0</ele><time>2026-03-27T11:21:10Z</time></trkpt><trkpt lat="40.62167520616776" lon="9.208661693523565"><ele>922.0</ele><time>2026-03-27T11:21:11Z</time></trkpt><trkpt lat="40.62153498338532" lon="9.208731670068447"><ele>921.0</ele><time>2026-03-27T11:21:12Z</time></trkpt><trkpt lat="40.62139011218357" lon="9.20883940944118"><ele>921.0</ele><time>2026-03-27T11:21:13Z</time></trkpt><trkpt lat="40.621255906173616" lon="9.208954396327579"><ele>921.0</ele><time>2026-03-27T11:21:14Z</time></trkpt><trkpt lat="40.621144685276214" lon="9.209080046156775"><ele>921.0</ele><time>2026-03-27T11:21:15Z</time></trkpt><trkpt lat="40.621037738940394" lon="9.209245480486404"><ele>922.0</ele><time>2026-03-27T11:21:16Z</time></trkpt><trkpt lat="40.62094106687686" lon="9.20940812598194"><ele>923.0</ele><time>2026-03-27T11:21:17Z</time></trkpt><trkpt lat="40.62082539131346" lon="9.20954867070322"><ele>924.0</ele><time>2026-03-27T11:21:18Z</time></trkpt><trkpt lat="40.620695921772395" lon="9.209676965874845"><ele>924.0</ele><time>2026-03-27T11:21:19Z</time></trkpt><trkpt lat="40.620578953718706" lon="9.209815607689823"><ele>924.0</ele><time>2026-03-27T11:21:20Z</time></trkpt><trkpt lat="40.62047517510988" lon="9.209950116221227"><ele>924.0</ele><time>2026-03-27T11:21:21Z</time></trkpt><trkpt lat="40.62038217417591" lon="9.210044046909994"><ele>924.0</ele><time>2026-03-27T11:21:22Z</time></trkpt><trkpt lat="40.62028522066848" lon="9.210111390210965"><ele>926.0</ele><time>2026-03-27T11:21:23Z</time></trkpt><trkpt lat="40.620158140198114" lon="9.210156828727042"><ele>928.0</ele><time>2026-03-27T11:21:24Z</time></trkpt><trkpt lat="40.62002810962909" lon="9.210182988825277"><ele>930.0</ele><time>2026-03-27T11:21:25Z</time></trkpt><trkpt lat="40.61992167016365" lon="9.210188486994305"><ele>932.0</ele><time>2026-03-27T11:21:26Z</time></trkpt><trkpt lat="40.61983912912085" lon="9.210173726707888"><ele>932.0</ele><time>2026-03-27T11:21:27Z</time></trkpt><trkpt lat="40.61977682388783" lon="9.210148760861685"><ele>932.0</ele><time>2026-03-27T11:21:28Z</time></trkpt><trkpt lat="40.61968927982756" lon="9.210075494809663"><ele>932.0</ele><time>2026-03-27T11:21:30Z</time></trkpt><trkpt lat="40.6196250273205" lon="9.209955163728578"><ele>932.0</ele><time>2026-03-27T11:21:32Z</time></trkpt><trkpt lat="40.61958921954088" lon="9.209836234316205"><ele>932.0</ele><time>2026-03-27T11:21:33Z</time></trkpt><trkpt lat="40.61954996056373" lon="9.209692031276473"><ele>931.0</ele><time>2026-03-27T11:21:34Z</time></trkpt><trkpt lat="40.619509412725016" lon="9.209517814615136"><ele>930.0</ele><time>2026-03-27T11:21:35Z</time></trkpt><trkpt lat="40.619489714127724" lon="9.209374751758459"><ele>929.0</ele><time>2026-03-27T11:21:36Z</time></trkpt><trkpt lat="40.61948568361996" lon="9.209241044929799"><ele>928.0</ele><time>2026-03-27T11:21:37Z</time></trkpt><trkpt lat="40.61950048113743" lon="9.209137695351801"><ele>927.0</ele><time>2026-03-27T11:21:38Z</time></trkpt><trkpt lat="40.61953494285938" lon="9.209053958608765"><ele>928.0</ele><time>2026-03-27T11:21:39Z</time></trkpt><trkpt lat="40.61965509976404" lon="9.208931110476993"><ele>929.0</ele><time>2026-03-27T11:21:41Z</time></trkpt><trkpt lat="40.619761303979125" lon="9.208872599831661"><ele>930.0</ele><time>2026-03-27T11:21:42Z</time></trkpt><trkpt lat="40.619847270787105" lon="9.208802039996186"><ele>931.0</ele><time>2026-03-27T11:21:43Z</time></trkpt><trkpt lat="40.619909061019825" lon="9.208721601170398"><ele>931.0</ele><time>2026-03-27T11:21:44Z</time></trkpt><trkpt lat="40.61995864270641" lon="9.208620299407"><ele>931.0</ele><time>2026-03-27T11:21:45Z</time></trkpt><trkpt lat="40.620019268439385" lon="9.208462170426259"><ele>931.0</ele><time>2026-03-27T11:21:46Z</time></trkpt><trkpt lat="40.620073141844436" lon="9.20825433392051"><ele>931.0</ele><time>2026-03-27T11:21:47Z</time></trkpt><trkpt lat="40.62011687937984" lon="9.208066180027517"><ele>931.75</ele><time>2026-03-27T11:21:48Z</time></trkpt><trkpt lat="40.62014368972722" lon="9.207888826750283"><ele>932.5</ele><time>2026-03-27T11:21:49Z</time></trkpt><trkpt lat="40.62015804141279" lon="9.207697821220387"><ele>933.25</ele><time>2026-03-27T11:21:50Z</time></trkpt><trkpt lat="40.62015714048937" lon="9.207530096236388"><ele>934.0</ele><time>2026-03-27T11:21:51Z</time></trkpt><trkpt lat="40.62014704909489" lon="9.207376331035878"><ele>932.75</ele><time>2026-03-27T11:21:52Z</time></trkpt><trkpt lat="40.620127224287856" lon="9.207236272001861"><ele>931.5</ele><time>2026-03-27T11:21:53Z</time></trkpt><trkpt lat="40.620092974787184" lon="9.207099230852515"><ele>930.25</ele><time>2026-03-27T11:21:54Z</time></trkpt><trkpt lat="40.62005194469004" lon="9.20694425050446"><ele>929.0</ele><time>2026-03-27T11:21:54.999Z</time></trkpt><trkpt lat="40.61999666526243" lon="9.206770134790354"><ele>929.0</ele><time>2026-03-27T11:21:55.999Z</time></trkpt><trkpt lat="40.619934252755144" lon="9.206590059382021"><ele>929.0</ele><time>2026-03-27T11:21:56.999Z</time></trkpt><trkpt lat="40.61986855560855" lon="9.206399605857476"><ele>929.0</ele><time>2026-03-27T11:21:57.999Z</time></trkpt><trkpt lat="40.619806460111135" lon="9.206208067869904"><ele>926.3333333333334</ele><time>2026-03-27T11:21:58.999Z</time></trkpt><trkpt lat="40.619739431405854" lon="9.206016913071435"><ele>923.6666666666667</ele><time>2026-03-27T11:21:59.999Z</time></trkpt><trkpt lat="40.61967234608108" lon="9.205820325318433"><ele>921.0</ele><time>2026-03-27T11:22:00.999Z</time></trkpt><trkpt lat="40.61959692765437" lon="9.205625900000975"><ele>918.6666666666667</ele><time>2026-03-27T11:22:01.999Z</time></trkpt><trkpt lat="40.61951573532045" lon="9.205438800803993"><ele>916.3333333333334</ele><time>2026-03-27T11:22:02.999Z</time></trkpt><trkpt lat="40.61944651213244" lon="9.205261052597328"><ele>914.0</ele><time>2026-03-27T11:22:03.999Z</time></trkpt><trkpt lat="40.6193887347538" lon="9.205083396992064"><ele>918.6666666666667</ele><time>2026-03-27T11:22:04.999Z</time></trkpt><trkpt lat="40.619337033082026" lon="9.204893526713484"><ele>923.3333333333333</ele><time>2026-03-27T11:22:05.999Z</time></trkpt><trkpt lat="40.61929550579725" lon="9.20468937453197"><ele>928.0</ele><time>2026-03-27T11:22:06.999Z</time></trkpt><trkpt lat="40.61926495685597" lon="9.204474438467654"><ele>928.0</ele><time>2026-03-27T11:22:07.999Z</time></trkpt><trkpt lat="40.619250530106186" lon="9.20424519577202"><ele>928.0</ele><time>2026-03-27T11:22:08.999Z</time></trkpt><trkpt lat="40.61924240767447" lon="9.204014304546273"><ele>928.0</ele><time>2026-03-27T11:22:09.999Z</time></trkpt><trkpt lat="40.619230006516595" lon="9.20377424317781"><ele>928.0</ele><time>2026-03-27T11:22:10.999Z</time></trkpt><trkpt lat="40.61920570200639" lon="9.20350626232786"><ele>928.0</ele><time>2026-03-27T11:22:11.999Z</time></trkpt><trkpt lat="40.6191870196552" lon="9.203232326079837"><ele>928.0</ele><time>2026-03-27T11:22:12.999Z</time></trkpt><trkpt lat="40.61917077609749" lon="9.202988653750742"><ele>927.6666666666666</ele><time>2026-03-27T11:22:13.999Z</time></trkpt><trkpt lat="40.61914742035585" lon="9.202763288335303"><ele>927.3333333333333</ele><time>2026-03-27T11:22:14.999Z</time></trkpt><trkpt lat="40.61912749073867" lon="9.20255696363733"><ele>927.0</ele><time>2026-03-27T11:22:15.999Z</time></trkpt><trkpt lat="40.61911272374463" lon="9.202351416174572"><ele>926.0</ele><time>2026-03-27T11:22:16.999Z</time></trkpt><trkpt lat="40.61910218511394" lon="9.202163665113092"><ele>925.0</ele><time>2026-03-27T11:22:17.999Z</time></trkpt><trkpt lat="40.61909877695607" lon="9.201958207868964"><ele>924.0</ele><time>2026-03-27T11:22:18.999Z</time></trkpt><trkpt lat="40.61909909931924" lon="9.201747685393865"><ele>924.0</ele><time>2026-03-27T11:22:19.999Z</time></trkpt><trkpt lat="40.619092416420294" lon="9.201525422054672"><ele>924.0</ele><time>2026-03-27T11:22:20.999Z</time></trkpt><trkpt lat="40.61908921063102" lon="9.201296431006377"><ele>924.0</ele><time>2026-03-27T11:22:21.999Z</time></trkpt><trkpt lat="40.61908393548817" lon="9.201067130695893"><ele>923.6666666666667</ele><time>2026-03-27T11:22:22.999Z</time></trkpt><trkpt lat="40.619075141207006" lon="9.200858324749218"><ele>923.3333333333334</ele><time>2026-03-27T11:22:23.999Z</time></trkpt><trkpt lat="40.61906262501638" lon="9.20065701993086"><ele>923.0</ele><time>2026-03-27T11:22:24.999Z</time></trkpt><trkpt lat="40.6190458212172" lon="9.200452608814777"><ele>920.6666666666667</ele><time>2026-03-27T11:22:25.999Z</time></trkpt><trkpt lat="40.61901601175845" lon="9.200245048243314"><ele>918.3333333333333</ele><time>2026-03-27T11:22:26.999Z</time></trkpt><trkpt lat="40.61898737021058" lon="9.200036754165506"><ele>916.0</ele><time>2026-03-27T11:22:27.999Z</time></trkpt><trkpt lat="40.618954445104634" lon="9.199851689531101"><ele>915.0</ele><time>2026-03-27T11:22:28.999Z</time></trkpt><trkpt lat="40.618910443625744" lon="9.199672038268707"><ele>914.0</ele><time>2026-03-27T11:22:29.999Z</time></trkpt><trkpt lat="40.618861899714986" lon="9.199511995633419"><ele>913.0</ele><time>2026-03-27T11:22:30.999Z</time></trkpt><trkpt lat="40.618795815871806" lon="9.199368807436972"><ele>912.0</ele><time>2026-03-27T11:22:31.999Z</time></trkpt><trkpt lat="40.61871157096491" lon="9.199219369776921"><ele>916.6666666666667</ele><time>2026-03-27T11:22:32.999Z</time></trkpt><trkpt lat="40.61860707512302" lon="9.199059114892028"><ele>921.3333333333334</ele><time>2026-03-27T11:22:33.999Z</time></trkpt><trkpt lat="40.6185016704816" lon="9.198889090486364"><ele>926.0</ele><time>2026-03-27T11:22:34.999Z</time></trkpt><trkpt lat="40.61841645148577" lon="9.198702248148587"><ele>926.0</ele><time>2026-03-27T11:22:35.999Z</time></trkpt><trkpt lat="40.6183355070255" lon="9.198538505451253"><ele>926.0</ele><time>2026-03-27T11:22:36.999Z</time></trkpt><trkpt lat="40.6182274829227" lon="9.198384506763235"><ele>926.0</ele><time>2026-03-27T11:22:37.999Z</time></trkpt><trkpt lat="40.61809788325956" lon="9.198234317773506"><ele>925.5</ele><time>2026-03-27T11:22:38.999Z</time></trkpt><trkpt lat="40.61797937964353" lon="9.19809247508044"><ele>925.0</ele><time>2026-03-27T11:22:39.999Z</time></trkpt><trkpt lat="40.61788384723223" lon="9.19796397385398"><ele>924.5</ele><time>2026-03-27T11:22:40.999Z</time></trkpt><trkpt lat="40.617798893669274" lon="9.19781728852079"><ele>924.0</ele><time>2026-03-27T11:22:41.999Z</time></trkpt><trkpt lat="40.61772304481799" lon="9.197653532646129"><ele>930.3333333333333</ele><time>2026-03-27T11:22:42.999Z</time></trkpt><trkpt lat="40.61764559516629" lon="9.19746890767532"><ele>936.6666666666666</ele><time>2026-03-27T11:22:43.999Z</time></trkpt><trkpt lat="40.61756299229581" lon="9.197286796077483"><ele>943.0</ele><time>2026-03-27T11:22:44.999Z</time></trkpt><trkpt lat="40.617481190934555" lon="9.19709081281619"><ele>943.0</ele><time>2026-03-27T11:22:45.999Z</time></trkpt><trkpt lat="40.61740856279867" lon="9.196897804380617"><ele>943.0</ele><time>2026-03-27T11:22:46.999Z</time></trkpt><trkpt lat="40.6173460000357" lon="9.196729209697315"><ele>943.0</ele><time>2026-03-27T11:22:47.999Z</time></trkpt><trkpt lat="40.61729141996035" lon="9.196595149989133"><ele>943.0</ele><time>2026-03-27T11:22:48.999Z</time></trkpt><trkpt lat="40.61724255868463" lon="9.1965014454667"><ele>942.5</ele><time>2026-03-27T11:22:49.999Z</time></trkpt><trkpt lat="40.617187781019915" lon="9.196403409254321"><ele>942.0</ele><time>2026-03-27T11:22:50.999Z</time></trkpt><trkpt lat="40.61711751279672" lon="9.196284035375465"><ele>941.5</ele><time>2026-03-27T11:22:51.998Z</time></trkpt><trkpt lat="40.61703643047477" lon="9.196139368068247"><ele>941.0</ele><time>2026-03-27T11:22:52.998Z</time></trkpt><trkpt lat="40.616955184331026" lon="9.195991325842234"><ele>942.75</ele><time>2026-03-27T11:22:53.998Z</time></trkpt><trkpt lat="40.61686701782666" lon="9.195843264639313"><ele>944.5</ele><time>2026-03-27T11:22:54.998Z</time></trkpt><trkpt lat="40.61676829373224" lon="9.195706477771937"><ele>946.25</ele><time>2026-03-27T11:22:55.998Z</time></trkpt><trkpt lat="40.61665331129116" lon="9.195566509675997"><ele>948.0</ele><time>2026-03-27T11:22:57Z</time></trkpt><trkpt lat="40.61652790072239" lon="9.195433731768073"><ele>948.0</ele><time>2026-03-27T11:22:58Z</time></trkpt><trkpt lat="40.61640125865983" lon="9.195284500239216"><ele>948.0</ele><time>2026-03-27T11:22:59Z</time></trkpt><trkpt lat="40.61627271922005" lon="9.195122217568379"><ele>948.0</ele><time>2026-03-27T11:23:00Z</time></trkpt><trkpt lat="40.61615402700512" lon="9.194967485886522"><ele>951.0</ele><time>2026-03-27T11:23:01Z</time></trkpt><trkpt lat="40.61604404401926" lon="9.194831043232645"><ele>954.0</ele><time>2026-03-27T11:23:02Z</time></trkpt><trkpt lat="40.61591268307647" lon="9.194710072174418"><ele>957.0</ele><time>2026-03-27T11:23:03Z</time></trkpt><trkpt lat="40.61576465237921" lon="9.194600446853753"><ele>957.0</ele><time>2026-03-27T11:23:04Z</time></trkpt><trkpt lat="40.61563109701241" lon="9.194476524937208"><ele>957.0</ele><time>2026-03-27T11:23:05Z</time></trkpt><trkpt lat="40.61551885284083" lon="9.194365233030172"><ele>957.0</ele><time>2026-03-27T11:23:06Z</time></trkpt><trkpt lat="40.615428957007786" lon="9.19428064445073"><ele>957.0</ele><time>2026-03-27T11:23:07Z</time></trkpt><trkpt lat="40.61535213440369" lon="9.194216486007646"><ele>957.6</ele><time>2026-03-27T11:23:08Z</time></trkpt><trkpt lat="40.6152898164651" lon="9.194149281475898"><ele>958.2</ele><time>2026-03-27T11:23:10Z</time></trkpt><trkpt lat="40.61527768703575" lon="9.194025598663359"><ele>958.8</ele><time>2026-03-27T11:23:13Z</time></trkpt><trkpt lat="40.61523390871248" lon="9.193871098320614"><ele>959.4</ele><time>2026-03-27T11:23:15Z</time></trkpt><trkpt lat="40.61520463174732" lon="9.193775968258757"><ele>960.0</ele><time>2026-03-27T11:23:16Z</time></trkpt><trkpt lat="40.61517474093626" lon="9.193664273942012"><ele>960.0</ele><time>2026-03-27T11:23:17Z</time></trkpt><trkpt lat="40.61515231458815" lon="9.193551677362562"><ele>960.0</ele><time>2026-03-27T11:23:18Z</time></trkpt><trkpt lat="40.615138227016246" lon="9.193438929705016"><ele>960.0</ele><time>2026-03-27T11:23:19Z</time></trkpt><trkpt lat="40.61512764579185" lon="9.193321640053766"><ele>960.0</ele><time>2026-03-27T11:23:20Z</time></trkpt><trkpt lat="40.61510574034952" lon="9.193210901547026"><ele>960.0</ele><time>2026-03-27T11:23:21Z</time></trkpt><trkpt lat="40.615075069443684" lon="9.193104086457929"><ele>960.0</ele><time>2026-03-27T11:23:22Z</time></trkpt><trkpt lat="40.61504645786592" lon="9.19299333615222"><ele>958.2</ele><time>2026-03-27T11:23:23Z</time></trkpt><trkpt lat="40.61501759977099" lon="9.192883996871945"><ele>956.4</ele><time>2026-03-27T11:23:24Z</time></trkpt><trkpt lat="40.61497516216589" lon="9.192772408427272"><ele>954.5999999999999</ele><time>2026-03-27T11:23:25Z</time></trkpt><trkpt lat="40.614920391459634" lon="9.19266731703295"><ele>952.8</ele><time>2026-03-27T11:23:26Z</time></trkpt><trkpt lat="40.6148528094477" lon="9.1925757851468"><ele>951.0</ele><time>2026-03-27T11:23:27Z</time></trkpt><trkpt lat="40.614768797000714" lon="9.192475242299611"><ele>951.0</ele><time>2026-03-27T11:23:28Z</time></trkpt><trkpt lat="40.61468639816119" lon="9.192369543420492"><ele>950.9999999999999</ele><time>2026-03-27T11:23:29Z</time></trkpt><trkpt lat="40.61460058377892" lon="9.192280334512777"><ele>950.9999999999999</ele><time>2026-03-27T11:23:30Z</time></trkpt><trkpt lat="40.614513375082275" lon="9.192204624750886"><ele>951.0</ele><time>2026-03-27T11:23:31Z</time></trkpt><trkpt lat="40.614412479975506" lon="9.192156297057394"><ele>951.0</ele><time>2026-03-27T11:23:32Z</time></trkpt><trkpt lat="40.61430915216797" lon="9.192098549531153"><ele>949.5999999999999</ele><time>2026-03-27T11:23:33Z</time></trkpt><trkpt lat="40.61422210258151" lon="9.192029941042115"><ele>948.1999999999999</ele><time>2026-03-27T11:23:34Z</time></trkpt><trkpt lat="40.614153827817006" lon="9.191944568938071"><ele>946.8000000000001</ele><time>2026-03-27T11:23:35Z</time></trkpt><trkpt lat="40.61408295613852" lon="9.19183774653415"><ele>945.4000000000001</ele><time>2026-03-27T11:23:36Z</time></trkpt><trkpt lat="40.614007018615666" lon="9.19172793830845"><ele>944.0</ele><time>2026-03-27T11:23:37Z</time></trkpt><trkpt lat="40.61392308962561" lon="9.191604514565041"><ele>942.4000000000001</ele><time>2026-03-27T11:23:38Z</time></trkpt><trkpt lat="40.613844583683665" lon="9.191487956426569"><ele>940.8000000000001</ele><time>2026-03-27T11:23:39Z</time></trkpt><trkpt lat="40.613770771424996" lon="9.1913704518284"><ele>939.1999999999999</ele><time>2026-03-27T11:23:40Z</time></trkpt><trkpt lat="40.61369959471847" lon="9.191253467908458"><ele>937.5999999999999</ele><time>2026-03-27T11:23:41Z</time></trkpt><trkpt lat="40.61364479153466" lon="9.191151551304698"><ele>936.0</ele><time>2026-03-27T11:23:42Z</time></trkpt><trkpt lat="40.61359569232488" lon="9.191051661748872"><ele>935.8</ele><time>2026-03-27T11:23:43Z</time></trkpt><trkpt lat="40.61354690924475" lon="9.190970366611761"><ele>935.5999999999999</ele><time>2026-03-27T11:23:44Z</time></trkpt><trkpt lat="40.61349100052549" lon="9.190906755915101"><ele>935.4</ele><time>2026-03-27T11:23:45Z</time></trkpt><trkpt lat="40.61341382447057" lon="9.190855443733897"><ele>935.2</ele><time>2026-03-27T11:23:46Z</time></trkpt><trkpt lat="40.61331610063085" lon="9.190802142825298"><ele>935.0</ele><time>2026-03-27T11:23:47Z</time></trkpt><trkpt lat="40.6132033264358" lon="9.19074302294853"><ele>936.5</ele><time>2026-03-27T11:23:48Z</time></trkpt><trkpt lat="40.613086196982856" lon="9.190659429505851"><ele>938.0</ele><time>2026-03-27T11:23:49Z</time></trkpt><trkpt lat="40.61297897149557" lon="9.190573950224184"><ele>939.5</ele><time>2026-03-27T11:23:50Z</time></trkpt><trkpt lat="40.61289303782053" lon="9.190487741588967"><ele>941.0</ele><time>2026-03-27T11:23:51Z</time></trkpt><trkpt lat="40.61283981207933" lon="9.190393484806313"><ele>941.5</ele><time>2026-03-27T11:23:51.999Z</time></trkpt><trkpt lat="40.612801825519185" lon="9.190286090899765"><ele>942.0</ele><time>2026-03-27T11:23:52.999Z</time></trkpt><trkpt lat="40.612775835234245" lon="9.190147317664444"><ele>942.5</ele><time>2026-03-27T11:23:53.999Z</time></trkpt><trkpt lat="40.61273335775312" lon="9.189968396536209"><ele>943.0</ele><time>2026-03-27T11:23:54.999Z</time></trkpt><trkpt lat="40.61266502465992" lon="9.189775059568493"><ele>941.6666666666666</ele><time>2026-03-27T11:23:55.999Z</time></trkpt><trkpt lat="40.61259639775825" lon="9.189581644208676"><ele>940.3333333333333</ele><time>2026-03-27T11:23:56.999Z</time></trkpt><trkpt lat="40.61253995051954" lon="9.189388787259086"><ele>939.0</ele><time>2026-03-27T11:23:57.999Z</time></trkpt><trkpt lat="40.61247857925128" lon="9.189219391257467"><ele>939.0</ele><time>2026-03-27T11:23:58.999Z</time></trkpt><trkpt lat="40.612395323674214" lon="9.18905281404475"><ele>939.0</ele><time>2026-03-27T11:23:59.999Z</time></trkpt><trkpt lat="40.612305330073035" lon="9.188895614820014"><ele>939.0</ele><time>2026-03-27T11:24:00.999Z</time></trkpt><trkpt lat="40.61222186240535" lon="9.18875761600612"><ele>939.0</ele><time>2026-03-27T11:24:01.999Z</time></trkpt><trkpt lat="40.61214108024879" lon="9.188638307470798"><ele>938.6666666666667</ele><time>2026-03-27T11:24:02.999Z</time></trkpt><trkpt lat="40.612032421279665" lon="9.188521828945365"><ele>938.3333333333334</ele><time>2026-03-27T11:24:03.999Z</time></trkpt><trkpt lat="40.61190586200538" lon="9.188422511010044"><ele>938.0</ele><time>2026-03-27T11:24:04.999Z</time></trkpt><trkpt lat="40.61175646529811" lon="9.188315098723743"><ele>938.0</ele><time>2026-03-27T11:24:05.999Z</time></trkpt><trkpt lat="40.61160027486544" lon="9.188211538600687"><ele>938.0</ele><time>2026-03-27T11:24:06.999Z</time></trkpt><trkpt lat="40.61144838877147" lon="9.188122211951928"><ele>938.0</ele><time>2026-03-27T11:24:07.999Z</time></trkpt><trkpt lat="40.61130310159447" lon="9.188045274718501"><ele>936.75</ele><time>2026-03-27T11:24:08.999Z</time></trkpt><trkpt lat="40.61118773048948" lon="9.187960803966725"><ele>935.5</ele><time>2026-03-27T11:24:09.999Z</time></trkpt><trkpt lat="40.611096497793966" lon="9.187898863029403"><ele>934.25</ele><time>2026-03-27T11:24:10.999Z</time></trkpt><trkpt lat="40.61099823711528" lon="9.187833457893033"><ele>933.0</ele><time>2026-03-27T11:24:11.999Z</time></trkpt><trkpt lat="40.61088302134411" lon="9.18781225013959"><ele>933.0</ele><time>2026-03-27T11:24:12.999Z</time></trkpt><trkpt lat="40.610749607523196" lon="9.187799510198657"><ele>933.0</ele><time>2026-03-27T11:24:13.999Z</time></trkpt><trkpt lat="40.61058603093273" lon="9.187790821771518"><ele>933.0</ele><time>2026-03-27T11:24:14.999Z</time></trkpt><trkpt lat="40.61041746258286" lon="9.187788652079298"><ele>933.75</ele><time>2026-03-27T11:24:15.999Z</time></trkpt><trkpt lat="40.6102666279212" lon="9.187774431002563"><ele>934.5</ele><time>2026-03-27T11:24:16.999Z</time></trkpt><trkpt lat="40.610128998691536" lon="9.187737494313716"><ele>935.25</ele><time>2026-03-27T11:24:17.999Z</time></trkpt><trkpt lat="40.60998154275988" lon="9.187669615729773"><ele>936.0</ele><time>2026-03-27T11:24:18.999Z</time></trkpt><trkpt lat="40.60984999023267" lon="9.187617826171575"><ele>936.0</ele><time>2026-03-27T11:24:19.999Z</time></trkpt><trkpt lat="40.60970188598761" lon="9.187596597663246"><ele>936.0</ele><time>2026-03-27T11:24:20.999Z</time></trkpt><trkpt lat="40.60955364871009" lon="9.187597319066214"><ele>936.0</ele><time>2026-03-27T11:24:21.999Z</time></trkpt><trkpt lat="40.609438833927484" lon="9.187554604760512"><ele>936.0</ele><time>2026-03-27T11:24:22.999Z</time></trkpt><trkpt lat="40.60929298499838" lon="9.187469284751824"><ele>935.6666666666667</ele><time>2026-03-27T11:24:23.999Z</time></trkpt><trkpt lat="40.60913208677755" lon="9.187377109195108"><ele>935.3333333333334</ele><time>2026-03-27T11:24:24.999Z</time></trkpt><trkpt lat="40.608991798102764" lon="9.187313837787547"><ele>935.0</ele><time>2026-03-27T11:24:25.999Z</time></trkpt><trkpt lat="40.60884730748066" lon="9.18725373936887"><ele>935.25</ele><time>2026-03-27T11:24:26.999Z</time></trkpt><trkpt lat="40.60872897147376" lon="9.187195055209399"><ele>935.5</ele><time>2026-03-27T11:24:27.999Z</time></trkpt><trkpt lat="40.60863110796718" lon="9.187132394183726"><ele>935.75</ele><time>2026-03-27T11:24:28.999Z</time></trkpt><trkpt lat="40.60854350362148" lon="9.187049043514383"><ele>936.0</ele><time>2026-03-27T11:24:29.999Z</time></trkpt><trkpt lat="40.60845578285996" lon="9.186948876831972"><ele>936.0</ele><time>2026-03-27T11:24:30.999Z</time></trkpt><trkpt lat="40.608363865222195" lon="9.186821837669815"><ele>936.0</ele><time>2026-03-27T11:24:31.999Z</time></trkpt><trkpt lat="40.60826606463911" lon="9.186677518245553"><ele>936.0</ele><time>2026-03-27T11:24:32.999Z</time></trkpt><trkpt lat="40.60815787446128" lon="9.186519148313868"><ele>936.0</ele><time>2026-03-27T11:24:33.999Z</time></trkpt><trkpt lat="40.60804987578456" lon="9.186375850676967"><ele>936.3333333333333</ele><time>2026-03-27T11:24:34.999Z</time></trkpt><trkpt lat="40.60793092781921" lon="9.18625332265372"><ele>936.6666666666666</ele><time>2026-03-27T11:24:35.999Z</time></trkpt><trkpt lat="40.60778216466511" lon="9.186148154544247"><ele>937.0</ele><time>2026-03-27T11:24:36.999Z</time></trkpt><trkpt lat="40.60763583301606" lon="9.186047593350366"><ele>937.0</ele><time>2026-03-27T11:24:37.999Z</time></trkpt><trkpt lat="40.60752801313962" lon="9.185944864858067"><ele>937.0</ele><time>2026-03-27T11:24:38.999Z</time></trkpt><trkpt lat="40.60740458659772" lon="9.185810394043742"><ele>937.0</ele><time>2026-03-27T11:24:39.999Z</time></trkpt><trkpt lat="40.60729367248435" lon="9.18565404068096"><ele>936.75</ele><time>2026-03-27T11:24:40.999Z</time></trkpt><trkpt lat="40.607210873487766" lon="9.185497321148556"><ele>936.5</ele><time>2026-03-27T11:24:41.999Z</time></trkpt><trkpt lat="40.60714804028439" lon="9.185333758110342"><ele>936.25</ele><time>2026-03-27T11:24:42.999Z</time></trkpt><trkpt lat="40.60711052408531" lon="9.18516606578441"><ele>936.0</ele><time>2026-03-27T11:24:43.999Z</time></trkpt><trkpt lat="40.60708675422183" lon="9.184998385817892"><ele>936.0</ele><time>2026-03-27T11:24:44.999Z</time></trkpt><trkpt lat="40.607073871335075" lon="9.184809783017046"><ele>936.0</ele><time>2026-03-27T11:24:45.999Z</time></trkpt><trkpt lat="40.60707038935339" lon="9.184637079429226"><ele>936.0</ele><time>2026-03-27T11:24:46.998Z</time></trkpt><trkpt lat="40.607068096329414" lon="9.184496545182718"><ele>936.0</ele><time>2026-03-27T11:24:47.998Z</time></trkpt><trkpt lat="40.60705795026803" lon="9.184391573646078"><ele>936.0</ele><time>2026-03-27T11:24:48.998Z</time></trkpt><trkpt lat="40.60699873809627" lon="9.184298339017273"><ele>935.9999999999999</ele><time>2026-03-27T11:24:50.998Z</time></trkpt><trkpt lat="40.60693439397875" lon="9.184264685852336"><ele>935.9999999999999</ele><time>2026-03-27T11:24:51.998Z</time></trkpt><trkpt lat="40.60683851979272" lon="9.184240423764699"><ele>936.0</ele><time>2026-03-27T11:24:52.998Z</time></trkpt><trkpt lat="40.606697844044184" lon="9.184224372421264"><ele>936.0</ele><time>2026-03-27T11:24:53.998Z</time></trkpt><trkpt lat="40.60656772079127" lon="9.184236512570411"><ele>940.0</ele><time>2026-03-27T11:24:54.998Z</time></trkpt><trkpt lat="40.606449865733495" lon="9.184231304180786"><ele>944.0</ele><time>2026-03-27T11:24:55.998Z</time></trkpt><trkpt lat="40.60633343430077" lon="9.184226841174619"><ele>948.0</ele><time>2026-03-27T11:24:56.998Z</time></trkpt><trkpt lat="40.606222933057445" lon="9.184226289487684"><ele>952.0</ele><time>2026-03-27T11:24:57.998Z</time></trkpt><trkpt lat="40.60610833790621" lon="9.184250004438178"><ele>953.2</ele><time>2026-03-27T11:24:58.998Z</time></trkpt><trkpt lat="40.60599029588692" lon="9.184260253107285"><ele>954.4000000000001</ele><time>2026-03-27T11:24:59.998Z</time></trkpt><trkpt lat="40.6058778760672" lon="9.184265031296944"><ele>955.5999999999999</ele><time>2026-03-27T11:25:00.998Z</time></trkpt><trkpt lat="40.60578385992842" lon="9.184263185774528"><ele>956.8</ele><time>2026-03-27T11:25:01.998Z</time></trkpt><trkpt lat="40.60570013034605" lon="9.18427161233587"><ele>958.0</ele><time>2026-03-27T11:25:03Z</time></trkpt><trkpt lat="40.60562418875821" lon="9.184254661531273"><ele>958.0</ele><time>2026-03-27T11:25:04Z</time></trkpt><trkpt lat="40.605537098385724" lon="9.18427788982454"><ele>958.0</ele><time>2026-03-27T11:25:05Z</time></trkpt><trkpt lat="40.6054395169987" lon="9.184292006319236"><ele>958.0</ele><time>2026-03-27T11:25:06Z</time></trkpt><trkpt lat="40.60533547030629" lon="9.184305619311457"><ele>958.0</ele><time>2026-03-27T11:25:07Z</time></trkpt><trkpt lat="40.6052165733701" lon="9.18433250198196"><ele>958.0</ele><time>2026-03-27T11:25:08Z</time></trkpt><trkpt lat="40.60509794722503" lon="9.184374774309497"><ele>960.75</ele><time>2026-03-27T11:25:09Z</time></trkpt><trkpt lat="40.604980135531115" lon="9.184453079904737"><ele>963.5</ele><time>2026-03-27T11:25:10Z</time></trkpt><trkpt lat="40.604859061756684" lon="9.184546198490871"><ele>966.25</ele><time>2026-03-27T11:25:11Z</time></trkpt><trkpt lat="40.604729830345384" lon="9.184638869846225"><ele>969.0</ele><time>2026-03-27T11:25:12Z</time></trkpt><trkpt lat="40.604598283785364" lon="9.184727429074574"><ele>969.6</ele><time>2026-03-27T11:25:13Z</time></trkpt><trkpt lat="40.604468639882" lon="9.184803745945013"><ele>970.2</ele><time>2026-03-27T11:25:14Z</time></trkpt><trkpt lat="40.604354606588075" lon="9.184854444292457"><ele>970.8000000000001</ele><time>2026-03-27T11:25:15Z</time></trkpt><trkpt lat="40.60426235008294" lon="9.184876956914037"><ele>971.4000000000001</ele><time>2026-03-27T11:25:16Z</time></trkpt><trkpt lat="40.60418402803552" lon="9.18488262831292"><ele>972.0</ele><time>2026-03-27T11:25:17Z</time></trkpt><trkpt lat="40.60410028360645" lon="9.184810455463825"><ele>972.0</ele><time>2026-03-27T11:25:19Z</time></trkpt><trkpt lat="40.60396029624617" lon="9.184868516310946"><ele>972.0</ele><time>2026-03-27T11:25:22Z</time></trkpt><trkpt lat="40.60384703919174" lon="9.184894350436556"><ele>972.0</ele><time>2026-03-27T11:25:24Z</time></trkpt><trkpt lat="40.60373330503795" lon="9.184877073182438"><ele>972.0</ele><time>2026-03-27T11:25:26Z</time></trkpt><trkpt lat="40.60363791719747" lon="9.184754129247223"><ele>971.6666666666666</ele><time>2026-03-27T11:25:28Z</time></trkpt><trkpt lat="40.60359366516906" lon="9.184661590207796"><ele>971.3333333333333</ele><time>2026-03-27T11:25:29Z</time></trkpt><trkpt lat="40.60353974734444" lon="9.184552595211704"><ele>971.0</ele><time>2026-03-27T11:25:30Z</time></trkpt><trkpt lat="40.60349217529411" lon="9.184452190140963"><ele>970.6666666666666</ele><time>2026-03-27T11:25:31Z</time></trkpt><trkpt lat="40.60344852889914" lon="9.18435528392044"><ele>970.3333333333333</ele><time>2026-03-27T11:25:32Z</time></trkpt><trkpt lat="40.60340206578177" lon="9.18426199314177"><ele>970.0</ele><time>2026-03-27T11:25:33Z</time></trkpt><trkpt lat="40.60335574776062" lon="9.184173988770027"><ele>970.0</ele><time>2026-03-27T11:25:34Z</time></trkpt><trkpt lat="40.603301418036025" lon="9.184078544697215"><ele>970.0</ele><time>2026-03-27T11:25:35Z</time></trkpt><trkpt lat="40.60323749192554" lon="9.183973181453418"><ele>970.0</ele><time>2026-03-27T11:25:36Z</time></trkpt><trkpt lat="40.60316888579788" lon="9.183863416623483"><ele>970.0</ele><time>2026-03-27T11:25:37Z</time></trkpt><trkpt lat="40.60310534206691" lon="9.183764621072308"><ele>970.0</ele><time>2026-03-27T11:25:38Z</time></trkpt><trkpt lat="40.60304197880631" lon="9.18367114417133"><ele>971.2</ele><time>2026-03-27T11:25:39Z</time></trkpt><trkpt lat="40.60296988646566" lon="9.183594642338486"><ele>972.4</ele><time>2026-03-27T11:25:40Z</time></trkpt><trkpt lat="40.60287843181232" lon="9.183540976780215"><ele>973.5999999999999</ele><time>2026-03-27T11:25:41Z</time></trkpt><trkpt lat="40.60277239947651" lon="9.183512382728848"><ele>974.8</ele><time>2026-03-27T11:25:42Z</time></trkpt><trkpt lat="40.602666093892815" lon="9.183497348726236"><ele>976.0</ele><time>2026-03-27T11:25:43Z</time></trkpt><trkpt lat="40.602555712148835" lon="9.183497172561928"><ele>973.0</ele><time>2026-03-27T11:25:44Z</time></trkpt><trkpt lat="40.60244222759823" lon="9.18348914205323"><ele>970.0</ele><time>2026-03-27T11:25:45Z</time></trkpt><trkpt lat="40.602330172165814" lon="9.18346074504678"><ele>967.0</ele><time>2026-03-27T11:25:46Z</time></trkpt><trkpt lat="40.602216668745015" lon="9.183402625456331"><ele>964.0</ele><time>2026-03-27T11:25:47Z</time></trkpt><trkpt lat="40.602114757668126" lon="9.1833299075788"><ele>964.0</ele><time>2026-03-27T11:25:47.999Z</time></trkpt><trkpt lat="40.602022223434" lon="9.18325346739274"><ele>964.0000000000001</ele><time>2026-03-27T11:25:48.999Z</time></trkpt><trkpt lat="40.60194015034365" lon="9.183167442787578"><ele>964.0000000000001</ele><time>2026-03-27T11:25:49.999Z</time></trkpt><trkpt lat="40.60188105355771" lon="9.183055598242392"><ele>964.0</ele><time>2026-03-27T11:25:50.999Z</time></trkpt><trkpt lat="40.601819810612426" lon="9.182911558452888"><ele>964.0</ele><time>2026-03-27T11:25:51.999Z</time></trkpt><trkpt lat="40.601749146069395" lon="9.182755857070442"><ele>963.0</ele><time>2026-03-27T11:25:52.999Z</time></trkpt><trkpt lat="40.601674197317585" lon="9.18259760919824"><ele>962.0</ele><time>2026-03-27T11:25:53.999Z</time></trkpt><trkpt lat="40.60158583071394" lon="9.18246143107331"><ele>961.0</ele><time>2026-03-27T11:25:54.999Z</time></trkpt><trkpt lat="40.60152435374146" lon="9.182323717937392"><ele>960.0</ele><time>2026-03-27T11:25:55.999Z</time></trkpt><trkpt lat="40.60147043606718" lon="9.182197825961941"><ele>960.0</ele><time>2026-03-27T11:25:56.999Z</time></trkpt><trkpt lat="40.60142697518711" lon="9.182085371600701"><ele>960.0</ele><time>2026-03-27T11:25:57.999Z</time></trkpt><trkpt lat="40.60138936496193" lon="9.18199178838109"><ele>960.0</ele><time>2026-03-27T11:25:58.999Z</time></trkpt><trkpt lat="40.60136579011528" lon="9.18189947485073"><ele>960.0</ele><time>2026-03-27T11:25:59.999Z</time></trkpt><trkpt lat="40.601320193934555" lon="9.18183802918568"><ele>960.0</ele><time>2026-03-27T11:26:00.999Z</time></trkpt><trkpt lat="40.60125770101485" lon="9.18180948741915"><ele>960.0</ele><time>2026-03-27T11:26:01.999Z</time></trkpt><trkpt lat="40.60118230369244" lon="9.181838430003747"><ele>960.0</ele><time>2026-03-27T11:26:02.999Z</time></trkpt><trkpt lat="40.60113741710864" lon="9.18195220861195"><ele>960.0</ele><time>2026-03-27T11:26:03.999Z</time></trkpt><trkpt lat="40.60116617558672" lon="9.182093877208835"><ele>960.0</ele><time>2026-03-27T11:26:04.999Z</time></trkpt><trkpt lat="40.60116447153266" lon="9.18223539564642"><ele>960.0</ele><time>2026-03-27T11:26:05.999Z</time></trkpt><trkpt lat="40.60116861787209" lon="9.182376163685575"><ele>960.0</ele><time>2026-03-27T11:26:06.999Z</time></trkpt><trkpt lat="40.601167599518426" lon="9.182487311630997"><ele>953.8</ele><time>2026-03-27T11:26:07.999Z</time></trkpt><trkpt lat="40.60116090438447" lon="9.182572338923292"><ele>947.6</ele><time>2026-03-27T11:26:08.999Z</time></trkpt><trkpt lat="40.60110045978438" lon="9.182713367529363"><ele>941.4000000000001</ele><time>2026-03-27T11:26:10.999Z</time></trkpt><trkpt lat="40.60103782469698" lon="9.182702758794711"><ele>935.2</ele><time>2026-03-27T11:26:11.999Z</time></trkpt><trkpt lat="40.600917793113005" lon="9.182617164717147"><ele>929.0</ele><time>2026-03-27T11:26:13.999Z</time></trkpt><trkpt lat="40.60083736224192" lon="9.182543156183582"><ele>929.0</ele><time>2026-03-27T11:26:14.999Z</time></trkpt><trkpt lat="40.60075501390774" lon="9.182472819176697"><ele>929.0</ele><time>2026-03-27T11:26:15.999Z</time></trkpt><trkpt lat="40.60064976950079" lon="9.182410673452468"><ele>929.0</ele><time>2026-03-27T11:26:16.999Z</time></trkpt><trkpt lat="40.60052073250923" lon="9.182376240495735"><ele>929.0</ele><time>2026-03-27T11:26:17.999Z</time></trkpt><trkpt lat="40.600372686145214" lon="9.182349851682684"><ele>923.3333333333334</ele><time>2026-03-27T11:26:18.999Z</time></trkpt><trkpt lat="40.60020957848647" lon="9.182318965037652"><ele>917.6666666666667</ele><time>2026-03-27T11:26:19.999Z</time></trkpt><trkpt lat="40.600030172064905" lon="9.182290703888734"><ele>912.0</ele><time>2026-03-27T11:26:20.999Z</time></trkpt><trkpt lat="40.59982251361198" lon="9.182279317735665"><ele>912.0</ele><time>2026-03-27T11:26:21.999Z</time></trkpt><trkpt lat="40.59961941893233" lon="9.18227909605181"><ele>912.0</ele><time>2026-03-27T11:26:22.999Z</time></trkpt><trkpt lat="40.599446900732495" lon="9.182275876418206"><ele>912.0</ele><time>2026-03-27T11:26:23.999Z</time></trkpt><trkpt lat="40.59928777885025" lon="9.182266760606392"><ele>909.3333333333333</ele><time>2026-03-27T11:26:24.999Z</time></trkpt><trkpt lat="40.59913901280383" lon="9.182250657762744"><ele>906.6666666666666</ele><time>2026-03-27T11:26:25.999Z</time></trkpt><trkpt lat="40.59897786915212" lon="9.182216173400482"><ele>904.0</ele><time>2026-03-27T11:26:26.999Z</time></trkpt><trkpt lat="40.5988341059713" lon="9.18218079954015"><ele>904.0</ele><time>2026-03-27T11:26:27.999Z</time></trkpt><trkpt lat="40.59869812139006" lon="9.182144172730048"><ele>904.0</ele><time>2026-03-27T11:26:28.999Z</time></trkpt><trkpt lat="40.5985683452747" lon="9.182108579754734"><ele>904.0</ele><time>2026-03-27T11:26:29.999Z</time></trkpt><trkpt lat="40.598445531177504" lon="9.182066275898302"><ele>904.0</ele><time>2026-03-27T11:26:30.999Z</time></trkpt><trkpt lat="40.5983336958172" lon="9.182007797331956"><ele>903.8000000000001</ele><time>2026-03-27T11:26:31.999Z</time></trkpt><trkpt lat="40.59823549213716" lon="9.181946798161716"><ele>903.6000000000001</ele><time>2026-03-27T11:26:32.999Z</time></trkpt><trkpt lat="40.59816512531211" lon="9.181879956837358"><ele>903.4</ele><time>2026-03-27T11:26:33.999Z</time></trkpt><trkpt lat="40.598103238937874" lon="9.18182314745623"><ele>903.2</ele><time>2026-03-27T11:26:34.999Z</time></trkpt><trkpt lat="40.59809627797687" lon="9.181666864220473"><ele>903.0</ele><time>2026-03-27T11:26:36.999Z</time></trkpt><trkpt lat="40.59810887897529" lon="9.181570959813556"><ele>900.0</ele><time>2026-03-27T11:26:37.999Z</time></trkpt><trkpt lat="40.59813463907833" lon="9.181465783002862"><ele>897.0</ele><time>2026-03-27T11:26:38.999Z</time></trkpt><trkpt lat="40.598213181624054" lon="9.181380694326648"><ele>894.0</ele><time>2026-03-27T11:26:39.999Z</time></trkpt><trkpt lat="40.59831787446082" lon="9.181294108083883"><ele>891.0</ele><time>2026-03-27T11:26:40.999Z</time></trkpt><trkpt lat="40.59845631895358" lon="9.181211688447553"><ele>891.0</ele><time>2026-03-27T11:26:41.999Z</time></trkpt><trkpt lat="40.598614410880565" lon="9.181133720477563"><ele>891.0</ele><time>2026-03-27T11:26:42.998Z</time></trkpt><trkpt lat="40.59878228775063" lon="9.18106311143314"><ele>891.0</ele><time>2026-03-27T11:26:43.998Z</time></trkpt><trkpt lat="40.5989303817127" lon="9.180999864359242"><ele>891.75</ele><time>2026-03-27T11:26:44.998Z</time></trkpt><trkpt lat="40.599065809734554" lon="9.180940664904048"><ele>892.5</ele><time>2026-03-27T11:26:45.998Z</time></trkpt><trkpt lat="40.59919075991685" lon="9.180883167260799"><ele>893.25</ele><time>2026-03-27T11:26:46.998Z</time></trkpt><trkpt lat="40.59930306758619" lon="9.180817164303845"><ele>894.0</ele><time>2026-03-27T11:26:47.998Z</time></trkpt><trkpt lat="40.5994142746369" lon="9.180724642860815"><ele>896.75</ele><time>2026-03-27T11:26:48.998Z</time></trkpt><trkpt lat="40.5995072433955" lon="9.180611817261891"><ele>899.5</ele><time>2026-03-27T11:26:49.998Z</time></trkpt><trkpt lat="40.59957510036188" lon="9.180488955199051"><ele>902.25</ele><time>2026-03-27T11:26:50.998Z</time></trkpt><trkpt lat="40.59964553601441" lon="9.180348685726036"><ele>905.0</ele><time>2026-03-27T11:26:51.998Z</time></trkpt><trkpt lat="40.59964509801649" lon="9.180174541648768"><ele>905.0</ele><time>2026-03-27T11:26:52.998Z</time></trkpt><trkpt lat="40.599649486533735" lon="9.179985095360768"><ele>905.0</ele><time>2026-03-27T11:26:53.998Z</time></trkpt><trkpt lat="40.59963762969047" lon="9.179770633374057"><ele>905.0</ele><time>2026-03-27T11:26:54.998Z</time></trkpt><trkpt lat="40.5996307506096" lon="9.179560691271769"><ele>906.0</ele><time>2026-03-27T11:26:55.998Z</time></trkpt><trkpt lat="40.59959891940893" lon="9.17935889728682"><ele>907.0</ele><time>2026-03-27T11:26:56.998Z</time></trkpt><trkpt lat="40.59953695512075" lon="9.17916984331025"><ele>908.0</ele><time>2026-03-27T11:26:57.998Z</time></trkpt><trkpt lat="40.599502375453746" lon="9.178964882455407"><ele>895.3333333333334</ele><time>2026-03-27T11:26:58.998Z</time></trkpt><trkpt lat="40.599448931902046" lon="9.178757832142972"><ele>882.6666666666667</ele><time>2026-03-27T11:26:59.998Z</time></trkpt><trkpt lat="40.599384999740074" lon="9.178570531908218"><ele>870.0</ele><time>2026-03-27T11:27:00.998Z</time></trkpt><trkpt lat="40.59931816018935" lon="9.17839430732089"><ele>870.0</ele><time>2026-03-27T11:27:01.998Z</time></trkpt><trkpt lat="40.59925142077442" lon="9.178219045728506"><ele>870.0</ele><time>2026-03-27T11:27:02.998Z</time></trkpt><trkpt lat="40.599172195518385" lon="9.178068511086428"><ele>870.0</ele><time>2026-03-27T11:27:03.998Z</time></trkpt><trkpt lat="40.59906640642522" lon="9.177936831853588"><ele>870.0</ele><time>2026-03-27T11:27:04.998Z</time></trkpt><trkpt lat="40.59893765728706" lon="9.177805924983545"><ele>874.0</ele><time>2026-03-27T11:27:05.998Z</time></trkpt><trkpt lat="40.59879042385348" lon="9.177676658379614"><ele>878.0</ele><time>2026-03-27T11:27:06.998Z</time></trkpt><trkpt lat="40.598615080403825" lon="9.177568642665944"><ele>882.0</ele><time>2026-03-27T11:27:07.998Z</time></trkpt><trkpt lat="40.59844770363131" lon="9.1774293410561"><ele>878.0</ele><time>2026-03-27T11:27:09Z</time></trkpt><trkpt lat="40.59830681530591" lon="9.177250710635272"><ele>874.0</ele><time>2026-03-27T11:27:10Z</time></trkpt><trkpt lat="40.59816564116809" lon="9.177091244108166"><ele>870.0</ele><time>2026-03-27T11:27:11Z</time></trkpt><trkpt lat="40.59803114455804" lon="9.176930514188442"><ele>870.0</ele><time>2026-03-27T11:27:12Z</time></trkpt><trkpt lat="40.597903875686626" lon="9.176766051419472"><ele>870.0</ele><time>2026-03-27T11:27:13Z</time></trkpt><trkpt lat="40.59778784746587" lon="9.176603343905965"><ele>870.0</ele><time>2026-03-27T11:27:14Z</time></trkpt><trkpt lat="40.597675825291105" lon="9.176436863992365"><ele>864.3333333333333</ele><time>2026-03-27T11:27:15Z</time></trkpt><trkpt lat="40.59756057408115" lon="9.176274685961426"><ele>858.6666666666666</ele><time>2026-03-27T11:27:16Z</time></trkpt><trkpt lat="40.5974389946921" lon="9.176130387861152"><ele>853.0</ele><time>2026-03-27T11:27:17Z</time></trkpt><trkpt lat="40.59732038692421" lon="9.175996137426383"><ele>853.0</ele><time>2026-03-27T11:27:18Z</time></trkpt><trkpt lat="40.59718805564337" lon="9.175897280372862"><ele>853.0</ele><time>2026-03-27T11:27:19Z</time></trkpt><trkpt lat="40.59705410251992" lon="9.175794617578513"><ele>853.0</ele><time>2026-03-27T11:27:20Z</time></trkpt><trkpt lat="40.59690098778546" lon="9.175699721763985"><ele>850.3333333333333</ele><time>2026-03-27T11:27:21Z</time></trkpt><trkpt lat="40.59673911082483" lon="9.175607365134315"><ele>847.6666666666667</ele><time>2026-03-27T11:27:22Z</time></trkpt><trkpt lat="40.59656240494859" lon="9.175535227394263"><ele>845.0</ele><time>2026-03-27T11:27:23Z</time></trkpt><trkpt lat="40.59638720493705" lon="9.17548364350392"><ele>845.0</ele><time>2026-03-27T11:27:24Z</time></trkpt><trkpt lat="40.59619711854205" lon="9.175448155837962"><ele>845.0</ele><time>2026-03-27T11:27:25Z</time></trkpt><trkpt lat="40.596002073499854" lon="9.175412741915343"><ele>845.0</ele><time>2026-03-27T11:27:26Z</time></trkpt><trkpt lat="40.59580669507991" lon="9.175382503103586"><ele>841.0</ele><time>2026-03-27T11:27:27Z</time></trkpt><trkpt lat="40.59562626687619" lon="9.175323646035203"><ele>837.0</ele><time>2026-03-27T11:27:28Z</time></trkpt><trkpt lat="40.595458368556116" lon="9.175284275607806"><ele>833.0</ele><time>2026-03-27T11:27:29Z</time></trkpt><trkpt lat="40.59529689668916" lon="9.17524772051742"><ele>828.0</ele><time>2026-03-27T11:27:30Z</time></trkpt><trkpt lat="40.59513666030655" lon="9.175205879998996"><ele>823.0</ele><time>2026-03-27T11:27:31Z</time></trkpt><trkpt lat="40.5949827525297" lon="9.17514673085412"><ele>818.0</ele><time>2026-03-27T11:27:32Z</time></trkpt><trkpt lat="40.59482854767075" lon="9.17508584071936"><ele>818.0</ele><time>2026-03-27T11:27:33Z</time></trkpt><trkpt lat="40.594670424402764" lon="9.17505045682376"><ele>818.0</ele><time>2026-03-27T11:27:34Z</time></trkpt><trkpt lat="40.594529600172685" lon="9.175017242733878"><ele>818.0</ele><time>2026-03-27T11:27:35Z</time></trkpt><trkpt lat="40.5944047458932" lon="9.174963983998662"><ele>818.0</ele><time>2026-03-27T11:27:36Z</time></trkpt><trkpt lat="40.5942820000838" lon="9.174892252470018"><ele>816.25</ele><time>2026-03-27T11:27:37Z</time></trkpt><trkpt lat="40.59416018266229" lon="9.174817435357834"><ele>814.5</ele><time>2026-03-27T11:27:38Z</time></trkpt><trkpt lat="40.594052504448776" lon="9.174745367862176"><ele>812.75</ele><time>2026-03-27T11:27:39Z</time></trkpt><trkpt lat="40.59395028976879" lon="9.174673713391428"><ele>811.0</ele><time>2026-03-27T11:27:40Z</time></trkpt><trkpt lat="40.593851173455036" lon="9.174587422006892"><ele>811.0</ele><time>2026-03-27T11:27:41Z</time></trkpt><trkpt lat="40.59376203182219" lon="9.17448459833708"><ele>811.0</ele><time>2026-03-27T11:27:42Z</time></trkpt><trkpt lat="40.593671937852235" lon="9.174360932374826"><ele>811.0</ele><time>2026-03-27T11:27:43Z</time></trkpt><trkpt lat="40.59358000560101" lon="9.174219779150084"><ele>811.0</ele><time>2026-03-27T11:27:44Z</time></trkpt><trkpt lat="40.5934956488679" lon="9.174111819955677"><ele>805.1666666666666</ele><time>2026-03-27T11:27:45Z</time></trkpt><trkpt lat="40.59343968866943" lon="9.174007060465588"><ele>799.3333333333333</ele><time>2026-03-27T11:27:46Z</time></trkpt><trkpt lat="40.59340831640134" lon="9.173919639139896"><ele>793.5</ele><time>2026-03-27T11:27:46.999Z</time></trkpt><trkpt lat="40.593395512442555" lon="9.173832039266363"><ele>787.6666666666667</ele><time>2026-03-27T11:27:47.999Z</time></trkpt><trkpt lat="40.5934208875865" lon="9.173731580767813"><ele>781.8333333333334</ele><time>2026-03-27T11:27:48.999Z</time></trkpt><trkpt lat="40.59347149705261" lon="9.173619003683966"><ele>776.0</ele><time>2026-03-27T11:27:49.999Z</time></trkpt><trkpt lat="40.593553625598396" lon="9.17349760052887"><ele>776.0</ele><time>2026-03-27T11:27:50.999Z</time></trkpt><trkpt lat="40.59364493106524" lon="9.173416738554044"><ele>776.0</ele><time>2026-03-27T11:27:51.999Z</time></trkpt><trkpt lat="40.59376025995679" lon="9.173346140145902"><ele>776.0</ele><time>2026-03-27T11:27:52.999Z</time></trkpt><trkpt lat="40.5938803075278" lon="9.17327351236711"><ele>776.0</ele><time>2026-03-27T11:27:53.999Z</time></trkpt><trkpt lat="40.593997302475636" lon="9.17320884425283"><ele>771.75</ele><time>2026-03-27T11:27:54.999Z</time></trkpt><trkpt lat="40.594116903344045" lon="9.173145000303203"><ele>767.5</ele><time>2026-03-27T11:27:55.999Z</time></trkpt><trkpt lat="40.59423839468919" lon="9.173079379542225"><ele>763.25</ele><time>2026-03-27T11:27:56.999Z</time></trkpt><trkpt lat="40.59436097388919" lon="9.17302194093013"><ele>759.0</ele><time>2026-03-27T11:27:57.999Z</time></trkpt><trkpt lat="40.59449542758996" lon="9.172960883853477"><ele>762.25</ele><time>2026-03-27T11:27:58.999Z</time></trkpt><trkpt lat="40.594633675020305" lon="9.172895820818852"><ele>765.5</ele><time>2026-03-27T11:27:59.999Z</time></trkpt><trkpt lat="40.59476613007051" lon="9.172828598895622"><ele>768.75</ele><time>2026-03-27T11:28:00.999Z</time></trkpt><trkpt lat="40.59489468712731" lon="9.17275791212646"><ele>772.0</ele><time>2026-03-27T11:28:01.999Z</time></trkpt><trkpt lat="40.59502003112412" lon="9.17268397901026"><ele>772.0</ele><time>2026-03-27T11:28:02.999Z</time></trkpt><trkpt lat="40.59515309438098" lon="9.172602324148345"><ele>772.0</ele><time>2026-03-27T11:28:03.999Z</time></trkpt><trkpt lat="40.59528953841978" lon="9.172526361081605"><ele>772.0</ele><time>2026-03-27T11:28:04.999Z</time></trkpt><trkpt lat="40.5954323218809" lon="9.172447704894921"><ele>776.0</ele><time>2026-03-27T11:28:05.999Z</time></trkpt><trkpt lat="40.59558687271958" lon="9.172380471426806"><ele>780.0</ele><time>2026-03-27T11:28:06.999Z</time></trkpt><trkpt lat="40.595742025265544" lon="9.172324612741873"><ele>784.0</ele><time>2026-03-27T11:28:07.999Z</time></trkpt><trkpt lat="40.59589263013748" lon="9.1722696083794"><ele>777.75</ele><time>2026-03-27T11:28:08.999Z</time></trkpt><trkpt lat="40.59603215331682" lon="9.172208885684988"><ele>771.5</ele><time>2026-03-27T11:28:09.999Z</time></trkpt><trkpt lat="40.596163321162614" lon="9.172144763688635"><ele>765.25</ele><time>2026-03-27T11:28:10.999Z</time></trkpt><trkpt lat="40.59629317996547" lon="9.172079799363953"><ele>759.0</ele><time>2026-03-27T11:28:11.999Z</time></trkpt><trkpt lat="40.596426110005574" lon="9.172016083329646"><ele>759.0</ele><time>2026-03-27T11:28:12.999Z</time></trkpt><trkpt lat="40.59657371877156" lon="9.17195829068204"><ele>759.0</ele><time>2026-03-27T11:28:13.999Z</time></trkpt><trkpt lat="40.59672532429099" lon="9.171916605329095"><ele>759.0</ele><time>2026-03-27T11:28:14.999Z</time></trkpt><trkpt lat="40.596874793269116" lon="9.171874241030702"><ele>759.75</ele><time>2026-03-27T11:28:15.999Z</time></trkpt><trkpt lat="40.597025832626635" lon="9.171823814586864"><ele>760.5</ele><time>2026-03-27T11:28:16.999Z</time></trkpt><trkpt lat="40.597167221447314" lon="9.171780255219778"><ele>761.25</ele><time>2026-03-27T11:28:17.999Z</time></trkpt><trkpt lat="40.59730624161606" lon="9.171741635569838"><ele>762.0</ele><time>2026-03-27T11:28:18.999Z</time></trkpt><trkpt lat="40.59743941282197" lon="9.17170004305751"><ele>762.0</ele><time>2026-03-27T11:28:19.999Z</time></trkpt><trkpt lat="40.59756133406285" lon="9.171658293775593"><ele>762.0</ele><time>2026-03-27T11:28:20.999Z</time></trkpt><trkpt lat="40.59769982391877" lon="9.171622795829816"><ele>762.0</ele><time>2026-03-27T11:28:21.999Z</time></trkpt><trkpt lat="40.597821497317575" lon="9.171567072602063"><ele>762.0</ele><time>2026-03-27T11:28:22.999Z</time></trkpt><trkpt lat="40.597940072135" lon="9.171510009593048"><ele>761.4000000000001</ele><time>2026-03-27T11:28:23.999Z</time></trkpt><trkpt lat="40.59804323080316" lon="9.17145513423299"><ele>760.8000000000001</ele><time>2026-03-27T11:28:24.999Z</time></trkpt><trkpt lat="40.59813132497406" lon="9.171394864873141"><ele>760.2</ele><time>2026-03-27T11:28:25.999Z</time></trkpt><trkpt lat="40.598212737073034" lon="9.171327116579185"><ele>759.6</ele><time>2026-03-27T11:28:26.999Z</time></trkpt><trkpt lat="40.59825719132014" lon="9.17126114972552"><ele>759.0</ele><time>2026-03-27T11:28:27.999Z</time></trkpt><trkpt lat="40.598261342047614" lon="9.171135897557383"><ele>759.0</ele><time>2026-03-27T11:28:29.999Z</time></trkpt><trkpt lat="40.59821119491781" lon="9.17103558959598"><ele>759.0</ele><time>2026-03-27T11:28:31.999Z</time></trkpt><trkpt lat="40.59811530129604" lon="9.17102845056514"><ele>759.0</ele><time>2026-03-27T11:28:33.999Z</time></trkpt><trkpt lat="40.59804361884863" lon="9.17113208794203"><ele>759.0</ele><time>2026-03-27T11:28:34.999Z</time></trkpt><trkpt lat="40.59795380017087" lon="9.171149672944676"><ele>759.0</ele><time>2026-03-27T11:28:35.999Z</time></trkpt><trkpt lat="40.5978577955771" lon="9.171167549977012"><ele>755.6</ele><time>2026-03-27T11:28:36.999Z</time></trkpt><trkpt lat="40.59776819944927" lon="9.17116915434201"><ele>752.2</ele><time>2026-03-27T11:28:37.999Z</time></trkpt><trkpt lat="40.597667451157214" lon="9.171153099915154"><ele>748.8000000000001</ele><time>2026-03-27T11:28:38.999Z</time></trkpt><trkpt lat="40.59757410603934" lon="9.171107243908786"><ele>745.4000000000001</ele><time>2026-03-27T11:28:39.999Z</time></trkpt><trkpt lat="40.59748744525248" lon="9.171046092472503"><ele>742.0</ele><time>2026-03-27T11:28:40.999Z</time></trkpt><trkpt lat="40.59740990593225" lon="9.170968055908942"><ele>742.0</ele><time>2026-03-27T11:28:41.998Z</time></trkpt><trkpt lat="40.59734469010246" lon="9.170890947044862"><ele>742.0</ele><time>2026-03-27T11:28:42.998Z</time></trkpt><trkpt lat="40.59726527716104" lon="9.1707989585248"><ele>742.0</ele><time>2026-03-27T11:28:43.998Z</time></trkpt><trkpt lat="40.597179045614375" lon="9.17070457246181"><ele>742.0</ele><time>2026-03-27T11:28:44.998Z</time></trkpt><trkpt lat="40.59707459440013" lon="9.170625781876549"><ele>742.0</ele><time>2026-03-27T11:28:45.998Z</time></trkpt><trkpt lat="40.59697035612788" lon="9.170570416740949"><ele>737.5</ele><time>2026-03-27T11:28:46.998Z</time></trkpt><trkpt lat="40.596869512231876" lon="9.17052852391865"><ele>733.0</ele><time>2026-03-27T11:28:47.998Z</time></trkpt><trkpt lat="40.596760667623656" lon="9.170492056240356"><ele>728.5</ele><time>2026-03-27T11:28:48.998Z</time></trkpt><trkpt lat="40.596641796544986" lon="9.17047223446137"><ele>724.0</ele><time>2026-03-27T11:28:49.998Z</time></trkpt><trkpt lat="40.59651158858708" lon="9.170479257277837"><ele>724.0</ele><time>2026-03-27T11:28:50.998Z</time></trkpt><trkpt lat="40.59637632456819" lon="9.17049997494979"><ele>724.0</ele><time>2026-03-27T11:28:51.998Z</time></trkpt><trkpt lat="40.59625043829108" lon="9.170531191491152"><ele>724.0</ele><time>2026-03-27T11:28:52.998Z</time></trkpt><trkpt lat="40.59612251558398" lon="9.170520003961034"><ele>724.0</ele><time>2026-03-27T11:28:53.998Z</time></trkpt><trkpt lat="40.59599445375522" lon="9.17047325810859"><ele>719.75</ele><time>2026-03-27T11:28:54.998Z</time></trkpt><trkpt lat="40.59586581902509" lon="9.170443979097245"><ele>715.5</ele><time>2026-03-27T11:28:55.998Z</time></trkpt><trkpt lat="40.595738694033685" lon="9.170414718578705"><ele>711.25</ele><time>2026-03-27T11:28:56.998Z</time></trkpt><trkpt lat="40.59561572993802" lon="9.17038744288884"><ele>707.0</ele><time>2026-03-27T11:28:57.998Z</time></trkpt><trkpt lat="40.59549500171145" lon="9.170360663173414"><ele>707.0</ele><time>2026-03-27T11:28:58.998Z</time></trkpt><trkpt lat="40.595370688201065" lon="9.170334601706664"><ele>707.0</ele><time>2026-03-27T11:28:59.998Z</time></trkpt><trkpt lat="40.59524753164274" lon="9.170312758958982"><ele>707.0</ele><time>2026-03-27T11:29:00.998Z</time></trkpt><trkpt lat="40.59512383883828" lon="9.170298562947043"><ele>707.0</ele><time>2026-03-27T11:29:01.998Z</time></trkpt><trkpt lat="40.594987755841245" lon="9.170296328942733"><ele>703.75</ele><time>2026-03-27T11:29:02.998Z</time></trkpt><trkpt lat="40.594837734508125" lon="9.170307132434163"><ele>700.5</ele><time>2026-03-27T11:29:03.998Z</time></trkpt><trkpt lat="40.59469997008633" lon="9.170321420631712"><ele>697.25</ele><time>2026-03-27T11:29:04.998Z</time></trkpt><trkpt lat="40.59455781335586" lon="9.170342109540432"><ele>694.0</ele><time>2026-03-27T11:29:05.998Z</time></trkpt><trkpt lat="40.594418993395514" lon="9.170366067985686"><ele>692.25</ele><time>2026-03-27T11:29:06.998Z</time></trkpt><trkpt lat="40.594284867457596" lon="9.170392623644194"><ele>690.5</ele><time>2026-03-27T11:29:07.998Z</time></trkpt><trkpt lat="40.594151190361295" lon="9.170425010258597"><ele>688.75</ele><time>2026-03-27T11:29:08.998Z</time></trkpt><trkpt lat="40.59402035425221" lon="9.170444594895466"><ele>687.0</ele><time>2026-03-27T11:29:09.998Z</time></trkpt><trkpt lat="40.59389537832072" lon="9.170472604974508"><ele>687.0</ele><time>2026-03-27T11:29:10.998Z</time></trkpt><trkpt lat="40.59378060300926" lon="9.170505293869308"><ele>687.0</ele><time>2026-03-27T11:29:11.998Z</time></trkpt><trkpt lat="40.59365846475567" lon="9.170513286607981"><ele>687.0</ele><time>2026-03-27T11:29:12.998Z</time></trkpt><trkpt lat="40.593536629649236" lon="9.170532941360268"><ele>687.0</ele><time>2026-03-27T11:29:13.998Z</time></trkpt><trkpt lat="40.593419679612005" lon="9.170544738155197"><ele>683.0</ele><time>2026-03-27T11:29:15Z</time></trkpt><trkpt lat="40.593292340990054" lon="9.170548346311588"><ele>679.0</ele><time>2026-03-27T11:29:16Z</time></trkpt><trkpt lat="40.593156185466455" lon="9.170535369597982"><ele>675.0</ele><time>2026-03-27T11:29:17Z</time></trkpt><trkpt lat="40.593020723243626" lon="9.170512677574395"><ele>671.0</ele><time>2026-03-27T11:29:18Z</time></trkpt><trkpt lat="40.59289023128861" lon="9.170483454504382"><ele>667.5</ele><time>2026-03-27T11:29:19Z</time></trkpt><trkpt lat="40.59277634516677" lon="9.17045361856142"><ele>664.0</ele><time>2026-03-27T11:29:20Z</time></trkpt><trkpt lat="40.59266398041024" lon="9.1704201216396"><ele>660.5</ele><time>2026-03-27T11:29:21Z</time></trkpt><trkpt lat="40.59254881577061" lon="9.170378908137854"><ele>657.0</ele><time>2026-03-27T11:29:22Z</time></trkpt><trkpt lat="40.592441017698135" lon="9.170329007814903"><ele>657.0</ele><time>2026-03-27T11:29:23Z</time></trkpt><trkpt lat="40.592327514553205" lon="9.170264443480214"><ele>657.0</ele><time>2026-03-27T11:29:24Z</time></trkpt><trkpt lat="40.59221321459543" lon="9.170200687715369"><ele>657.0</ele><time>2026-03-27T11:29:25Z</time></trkpt><trkpt lat="40.5920943467727" lon="9.170152798713954"><ele>657.0</ele><time>2026-03-27T11:29:26Z</time></trkpt><trkpt lat="40.591967660773726" lon="9.170126275613772"><ele>655.25</ele><time>2026-03-27T11:29:27Z</time></trkpt><trkpt lat="40.591838095228056" lon="9.170131705773022"><ele>653.5</ele><time>2026-03-27T11:29:28Z</time></trkpt><trkpt lat="40.591688456322615" lon="9.170167848177357"><ele>651.75</ele><time>2026-03-27T11:29:29Z</time></trkpt><trkpt lat="40.59153239168955" lon="9.170175244267798"><ele>650.0</ele><time>2026-03-27T11:29:30Z</time></trkpt><trkpt lat="40.59135495974199" lon="9.170195138796695"><ele>650.0</ele><time>2026-03-27T11:29:31Z</time></trkpt><trkpt lat="40.59119052734615" lon="9.170204547445744"><ele>650.0</ele><time>2026-03-27T11:29:32Z</time></trkpt><trkpt lat="40.59102496287889" lon="9.17022336823834"><ele>650.0</ele><time>2026-03-27T11:29:33Z</time></trkpt><trkpt lat="40.59085860200166" lon="9.170249302280254"><ele>645.3333333333333</ele><time>2026-03-27T11:29:34Z</time></trkpt><trkpt lat="40.590682192424126" lon="9.170273169217536"><ele>640.6666666666666</ele><time>2026-03-27T11:29:35Z</time></trkpt><trkpt lat="40.59052934260014" lon="9.170316735201373"><ele>636.0</ele><time>2026-03-27T11:29:36Z</time></trkpt><trkpt lat="40.590387183701374" lon="9.170363616673482"><ele>633.6</ele><time>2026-03-27T11:29:37Z</time></trkpt><trkpt lat="40.59026890963889" lon="9.170389751105077"><ele>631.2</ele><time>2026-03-27T11:29:38Z</time></trkpt><trkpt lat="40.59017044443341" lon="9.170418131497634"><ele>628.8</ele><time>2026-03-27T11:29:39Z</time></trkpt><trkpt lat="40.590080286914514" lon="9.17040569190049"><ele>626.4</ele><time>2026-03-27T11:29:40Z</time></trkpt><trkpt lat="40.58999802275693" lon="9.170372079993996"><ele>624.0</ele><time>2026-03-27T11:29:41Z</time></trkpt><trkpt lat="40.58991887347651" lon="9.170308778222777"><ele>624.0</ele><time>2026-03-27T11:29:42Z</time></trkpt><trkpt lat="40.58985120964475" lon="9.170209821911266"><ele>624.0</ele><time>2026-03-27T11:29:43Z</time></trkpt><trkpt lat="40.589760868411915" lon="9.170082825641298"><ele>624.0</ele><time>2026-03-27T11:29:44Z</time></trkpt><trkpt lat="40.589662042596046" lon="9.169976386823356"><ele>624.0</ele><time>2026-03-27T11:29:44.999Z</time></trkpt><trkpt lat="40.589567782884586" lon="9.169886769111729"><ele>621.0</ele><time>2026-03-27T11:29:45.999Z</time></trkpt><trkpt lat="40.5894578089381" lon="9.169808201533577"><ele>618.0</ele><time>2026-03-27T11:29:46.999Z</time></trkpt><trkpt lat="40.58934442085543" lon="9.169751589262606"><ele>615.0</ele><time>2026-03-27T11:29:47.999Z</time></trkpt><trkpt lat="40.58922906470489" lon="9.169685904789478"><ele>612.0</ele><time>2026-03-27T11:29:48.999Z</time></trkpt><trkpt lat="40.589115830626014" lon="9.169632713786473"><ele>612.0</ele><time>2026-03-27T11:29:49.999Z</time></trkpt><trkpt lat="40.58900747433217" lon="9.169594915108304"><ele>612.0</ele><time>2026-03-27T11:29:50.999Z</time></trkpt><trkpt lat="40.58890680146361" lon="9.169575144134617"><ele>612.0</ele><time>2026-03-27T11:29:51.999Z</time></trkpt><trkpt lat="40.588817985218256" lon="9.16955855602842"><ele>612.0</ele><time>2026-03-27T11:29:52.999Z</time></trkpt><trkpt lat="40.588728533014525" lon="9.16953421876023"><ele>612.0</ele><time>2026-03-27T11:29:53.999Z</time></trkpt><trkpt lat="40.58864448963538" lon="9.169485068240098"><ele>609.4</ele><time>2026-03-27T11:29:54.999Z</time></trkpt><trkpt lat="40.58857126630215" lon="9.169418891948899"><ele>606.8000000000001</ele><time>2026-03-27T11:29:55.999Z</time></trkpt><trkpt lat="40.58850483635256" lon="9.169314019022343"><ele>604.2</ele><time>2026-03-27T11:29:56.999Z</time></trkpt><trkpt lat="40.588431236690454" lon="9.169207194342784"><ele>601.6</ele><time>2026-03-27T11:29:57.999Z</time></trkpt><trkpt lat="40.588358346679954" lon="9.16910313981847"><ele>599.0</ele><time>2026-03-27T11:29:58.999Z</time></trkpt><trkpt lat="40.58829517671" lon="9.169007188599476"><ele>598.4</ele><time>2026-03-27T11:29:59.999Z</time></trkpt><trkpt lat="40.58824437821693" lon="9.168891297203396"><ele>597.8</ele><time>2026-03-27T11:30:00.999Z</time></trkpt><trkpt lat="40.58816640104369" lon="9.168763665105343"><ele>597.2</ele><time>2026-03-27T11:30:01.999Z</time></trkpt><trkpt lat="40.58807236829873" lon="9.168686962067834"><ele>596.6</ele><time>2026-03-27T11:30:02.999Z</time></trkpt><trkpt lat="40.58800057389217" lon="9.168668632260795"><ele>596.0</ele><time>2026-03-27T11:30:03.999Z</time></trkpt><trkpt lat="40.58794489540908" lon="9.168626003216312"><ele>596.0</ele><time>2026-03-27T11:30:04.999Z</time></trkpt><trkpt lat="40.58787541312023" lon="9.168576657857875"><ele>596.0</ele><time>2026-03-27T11:30:06.999Z</time></trkpt><trkpt lat="40.58781859602074" lon="9.168533536260153"><ele>596.0</ele><time>2026-03-27T11:30:12.999Z</time></trkpt><trkpt lat="40.58774353480369" lon="9.168483661737765"><ele>596.0</ele><time>2026-03-27T11:30:16.999Z</time></trkpt><trkpt lat="40.58765787570366" lon="9.168426745370825"><ele>596.0</ele><time>2026-03-27T11:30:19.999Z</time></trkpt><trkpt lat="40.58760555388623" lon="9.168361023368474"><ele>596.0</ele><time>2026-03-27T11:30:21.999Z</time></trkpt><trkpt lat="40.587631696662534" lon="9.16825763761357"><ele>594.1666666666666</ele><time>2026-03-27T11:30:22.999Z</time></trkpt><trkpt lat="40.587635552105" lon="9.168107635991522"><ele>592.3333333333333</ele><time>2026-03-27T11:30:24.999Z</time></trkpt><trkpt lat="40.58764123789185" lon="9.168016643394152"><ele>590.5</ele><time>2026-03-27T11:30:25.999Z</time></trkpt><trkpt lat="40.587642556293105" lon="9.16792133652722"><ele>588.6666666666666</ele><time>2026-03-27T11:30:26.999Z</time></trkpt><trkpt lat="40.5876471383784" lon="9.167821159845591"><ele>586.8333333333334</ele><time>2026-03-27T11:30:27.999Z</time></trkpt><trkpt lat="40.58765015240719" lon="9.167713005523712"><ele>585.0</ele><time>2026-03-27T11:30:28.999Z</time></trkpt><trkpt lat="40.587656632105116" lon="9.167590019166918"><ele>585.0</ele><time>2026-03-27T11:30:29.999Z</time></trkpt><trkpt lat="40.587667043083776" lon="9.167452380808742"><ele>585.0</ele><time>2026-03-27T11:30:30.999Z</time></trkpt><trkpt lat="40.587687088868385" lon="9.167307290552058"><ele>585.0</ele><time>2026-03-27T11:30:31.999Z</time></trkpt><trkpt lat="40.58771132233746" lon="9.167153388671936"><ele>585.0</ele><time>2026-03-27T11:30:32.999Z</time></trkpt><trkpt lat="40.58774398928734" lon="9.16699126650741"><ele>584.75</ele><time>2026-03-27T11:30:33.999Z</time></trkpt><trkpt lat="40.587777426611865" lon="9.166820669047361"><ele>584.5</ele><time>2026-03-27T11:30:34.999Z</time></trkpt><trkpt lat="40.58780956257484" lon="9.1666488190683"><ele>584.25</ele><time>2026-03-27T11:30:35.999Z</time></trkpt><trkpt lat="40.5878423556902" lon="9.166478589792675"><ele>584.0</ele><time>2026-03-27T11:30:36.999Z</time></trkpt><trkpt lat="40.58786975949344" lon="9.16630299994767"><ele>584.0</ele><time>2026-03-27T11:30:37.999Z</time></trkpt><trkpt lat="40.587903636414836" lon="9.16612199224838"><ele>584.0</ele><time>2026-03-27T11:30:38.998Z</time></trkpt><trkpt lat="40.58794181288543" lon="9.16594286755878"><ele>584.0</ele><time>2026-03-27T11:30:39.998Z</time></trkpt><trkpt lat="40.5879739440943" lon="9.165760432589735"><ele>584.0</ele><time>2026-03-27T11:30:40.998Z</time></trkpt><trkpt lat="40.58800640089776" lon="9.165582639819279"><ele>584.5</ele><time>2026-03-27T11:30:41.998Z</time></trkpt><trkpt lat="40.5880407109183" lon="9.165398405806034"><ele>585.0</ele><time>2026-03-27T11:30:42.998Z</time></trkpt><trkpt lat="40.58807196668757" lon="9.165208374136249"><ele>585.5</ele><time>2026-03-27T11:30:43.998Z</time></trkpt><trkpt lat="40.58811135390809" lon="9.165022902504866"><ele>586.0</ele><time>2026-03-27T11:30:44.998Z</time></trkpt><trkpt lat="40.588148429743704" lon="9.164841912044874"><ele>587.75</ele><time>2026-03-27T11:30:45.998Z</time></trkpt><trkpt lat="40.58818038736174" lon="9.164661959719774"><ele>589.5</ele><time>2026-03-27T11:30:46.998Z</time></trkpt><trkpt lat="40.588213078453755" lon="9.16448776874285"><ele>591.25</ele><time>2026-03-27T11:30:47.998Z</time></trkpt><trkpt lat="40.58824141644127" lon="9.16431054602072"><ele>593.0</ele><time>2026-03-27T11:30:48.998Z</time></trkpt><trkpt lat="40.588253946738604" lon="9.16412869495291"><ele>593.25</ele><time>2026-03-27T11:30:49.998Z</time></trkpt><trkpt lat="40.58824357219808" lon="9.163947962053278"><ele>593.5</ele><time>2026-03-27T11:30:50.998Z</time></trkpt><trkpt lat="40.588220668565775" lon="9.163767214691148"><ele>593.75</ele><time>2026-03-27T11:30:51.998Z</time></trkpt><trkpt lat="40.58822945568553" lon="9.163580573805756"><ele>594.0</ele><time>2026-03-27T11:30:52.998Z</time></trkpt><trkpt lat="40.58826064952839" lon="9.163390245913345"><ele>594.0</ele><time>2026-03-27T11:30:53.998Z</time></trkpt><trkpt lat="40.588302404418904" lon="9.163201155172969"><ele>594.0</ele><time>2026-03-27T11:30:54.998Z</time></trkpt><trkpt lat="40.58833962974198" lon="9.16301085421286"><ele>594.0</ele><time>2026-03-27T11:30:55.998Z</time></trkpt><trkpt lat="40.58837562642356" lon="9.162817586501985"><ele>593.5</ele><time>2026-03-27T11:30:56.998Z</time></trkpt><trkpt lat="40.58840806017947" lon="9.162632746612148"><ele>593.0</ele><time>2026-03-27T11:30:57.998Z</time></trkpt><trkpt lat="40.58844318185787" lon="9.162468593719888"><ele>592.5</ele><time>2026-03-27T11:30:58.998Z</time></trkpt><trkpt lat="40.58846413708428" lon="9.162298108343396"><ele>592.0</ele><time>2026-03-27T11:30:59.998Z</time></trkpt><trkpt lat="40.588450473053676" lon="9.162106251379221"><ele>590.3333333333334</ele><time>2026-03-27T11:31:00.998Z</time></trkpt><trkpt lat="40.58840526084971" lon="9.161904470186707"><ele>588.6666666666666</ele><time>2026-03-27T11:31:01.998Z</time></trkpt><trkpt lat="40.58836082209811" lon="9.161691282229816"><ele>587.0</ele><time>2026-03-27T11:31:02.998Z</time></trkpt><trkpt lat="40.58832987862996" lon="9.16146130906982"><ele>586.3333333333333</ele><time>2026-03-27T11:31:03.998Z</time></trkpt><trkpt lat="40.588315529065746" lon="9.161220551039449"><ele>585.6666666666666</ele><time>2026-03-27T11:31:04.998Z</time></trkpt><trkpt lat="40.588302067139395" lon="9.160971807902207"><ele>585.0</ele><time>2026-03-27T11:31:05.998Z</time></trkpt><trkpt lat="40.588266126520026" lon="9.160721781623439"><ele>587.3333333333334</ele><time>2026-03-27T11:31:06.998Z</time></trkpt><trkpt lat="40.588207946573704" lon="9.160478240611354"><ele>589.6666666666667</ele><time>2026-03-27T11:31:07.998Z</time></trkpt><trkpt lat="40.58812868172942" lon="9.160248320854638"><ele>592.0</ele><time>2026-03-27T11:31:08.998Z</time></trkpt><trkpt lat="40.5880549479631" lon="9.160044068395132"><ele>592.6666666666667</ele><time>2026-03-27T11:31:09.998Z</time></trkpt><trkpt lat="40.587994099353175" lon="9.159851192524847"><ele>593.3333333333334</ele><time>2026-03-27T11:31:10.998Z</time></trkpt><trkpt lat="40.58793392387786" lon="9.15965884465793"><ele>594.0</ele><time>2026-03-27T11:31:11.998Z</time></trkpt><trkpt lat="40.587888771284575" lon="9.159462982712435"><ele>594.0</ele><time>2026-03-27T11:31:12.998Z</time></trkpt><trkpt lat="40.58788150203308" lon="9.159255861159032"><ele>594.0</ele><time>2026-03-27T11:31:13.998Z</time></trkpt><trkpt lat="40.58789966800404" lon="9.159046472964894"><ele>594.0</ele><time>2026-03-27T11:31:14.998Z</time></trkpt><trkpt lat="40.58792943100979" lon="9.158830253313251"><ele>595.0</ele><time>2026-03-27T11:31:15.998Z</time></trkpt><trkpt lat="40.58796708640356" lon="9.158607887746566"><ele>596.0</ele><time>2026-03-27T11:31:16.998Z</time></trkpt><trkpt lat="40.588000546993364" lon="9.15837378358237"><ele>597.0</ele><time>2026-03-27T11:31:17.998Z</time></trkpt><trkpt lat="40.58802780867171" lon="9.158144130741267"><ele>595.0</ele><time>2026-03-27T11:31:18.998Z</time></trkpt><trkpt lat="40.5880525466625" lon="9.157939518372656"><ele>593.0</ele><time>2026-03-27T11:31:20Z</time></trkpt><trkpt lat="40.5880794017132" lon="9.15776983235461"><ele>591.0</ele><time>2026-03-27T11:31:21Z</time></trkpt><trkpt lat="40.588112002692476" lon="9.157627599895829"><ele>589.0</ele><time>2026-03-27T11:31:22Z</time></trkpt><trkpt lat="40.58816353552411" lon="9.157502955789171"><ele>589.0</ele><time>2026-03-27T11:31:23Z</time></trkpt><trkpt lat="40.58824620757949" lon="9.15739455522846"><ele>589.0</ele><time>2026-03-27T11:31:24Z</time></trkpt><trkpt lat="40.58834817335664" lon="9.157288850650923"><ele>589.0</ele><time>2026-03-27T11:31:25Z</time></trkpt><trkpt lat="40.588459043982056" lon="9.157180630868568"><ele>589.0</ele><time>2026-03-27T11:31:26Z</time></trkpt><trkpt lat="40.58858875110784" lon="9.157082150379825"><ele>586.0</ele><time>2026-03-27T11:31:27Z</time></trkpt><trkpt lat="40.58873152771972" lon="9.156985981062219"><ele>583.0</ele><time>2026-03-27T11:31:28Z</time></trkpt><trkpt lat="40.58888367158637" lon="9.156884898518074"><ele>580.0</ele><time>2026-03-27T11:31:29Z</time></trkpt><trkpt lat="40.58903684833899" lon="9.156783770497464"><ele>580.0</ele><time>2026-03-27T11:31:30Z</time></trkpt><trkpt lat="40.589175880918795" lon="9.1566908612848"><ele>580.0</ele><time>2026-03-27T11:31:31Z</time></trkpt><trkpt lat="40.589314804974464" lon="9.156592343419677"><ele>580.0</ele><time>2026-03-27T11:31:32Z</time></trkpt><trkpt lat="40.58945459039133" lon="9.156497292359143"><ele>577.6666666666667</ele><time>2026-03-27T11:31:33Z</time></trkpt><trkpt lat="40.58958995613065" lon="9.156413551333927"><ele>575.3333333333334</ele><time>2026-03-27T11:31:34Z</time></trkpt><trkpt lat="40.58972794051976" lon="9.156331809130453"><ele>573.0</ele><time>2026-03-27T11:31:35Z</time></trkpt><trkpt lat="40.589859723126175" lon="9.156237519433848"><ele>573.0</ele><time>2026-03-27T11:31:36Z</time></trkpt><trkpt lat="40.589973612660515" lon="9.156124557495978"><ele>573.0</ele><time>2026-03-27T11:31:37Z</time></trkpt><trkpt lat="40.59006819144148" lon="9.155988586370835"><ele>573.0</ele><time>2026-03-27T11:31:38Z</time></trkpt><trkpt lat="40.59015062116835" lon="9.155814246007722"><ele>573.0</ele><time>2026-03-27T11:31:39Z</time></trkpt><trkpt lat="40.590232282667195" lon="9.15561940221173"><ele>571.0</ele><time>2026-03-27T11:31:40Z</time></trkpt><trkpt lat="40.590313029226614" lon="9.155406656156844"><ele>569.0</ele><time>2026-03-27T11:31:41Z</time></trkpt><trkpt lat="40.590390219518184" lon="9.15518324406916"><ele>567.0</ele><time>2026-03-27T11:31:42Z</time></trkpt><trkpt lat="40.59046525857818" lon="9.154948733225767"><ele>571.0</ele><time>2026-03-27T11:31:43Z</time></trkpt><trkpt lat="40.590519831223894" lon="9.154759657685256"><ele>575.0</ele><time>2026-03-27T11:31:44Z</time></trkpt><trkpt lat="40.59058326033233" lon="9.154612159353434"><ele>579.0</ele><time>2026-03-27T11:31:44.999Z</time></trkpt><trkpt lat="40.59067394815897" lon="9.154491473157966"><ele>583.0</ele><time>2026-03-27T11:31:45.999Z</time></trkpt><trkpt lat="40.590788881173864" lon="9.154406769778214"><ele>583.0</ele><time>2026-03-27T11:31:46.999Z</time></trkpt><trkpt lat="40.59091372367286" lon="9.154335257562066"><ele>583.0</ele><time>2026-03-27T11:31:47.999Z</time></trkpt><trkpt lat="40.591044367787894" lon="9.154260705622747"><ele>583.0</ele><time>2026-03-27T11:31:48.999Z</time></trkpt><trkpt lat="40.59118017517747" lon="9.154178733638979"><ele>583.0</ele><time>2026-03-27T11:31:49.999Z</time></trkpt><trkpt lat="40.591313359047206" lon="9.154080698642046"><ele>584.0</ele><time>2026-03-27T11:31:50.999Z</time></trkpt><trkpt lat="40.59144742965591" lon="9.153970813807359"><ele>585.0</ele><time>2026-03-27T11:31:51.999Z</time></trkpt><trkpt lat="40.59157058053046" lon="9.153850841657324"><ele>586.0</ele><time>2026-03-27T11:31:52.999Z</time></trkpt><trkpt lat="40.59169303693087" lon="9.153737358696555"><ele>586.0</ele><time>2026-03-27T11:31:53.999Z</time></trkpt><trkpt lat="40.591817903161655" lon="9.15363001825823"><ele>586.0</ele><time>2026-03-27T11:31:54.999Z</time></trkpt><trkpt lat="40.591946355061296" lon="9.153520930332036"><ele>586.0</ele><time>2026-03-27T11:31:55.999Z</time></trkpt><trkpt lat="40.592073831620596" lon="9.153409599411798"><ele>585.3333333333334</ele><time>2026-03-27T11:31:56.999Z</time></trkpt><trkpt lat="40.59220363730489" lon="9.15329334282773"><ele>584.6666666666666</ele><time>2026-03-27T11:31:57.999Z</time></trkpt><trkpt lat="40.59233864803907" lon="9.153172785917446"><ele>584.0</ele><time>2026-03-27T11:31:58.999Z</time></trkpt><trkpt lat="40.59248127080821" lon="9.153049353753325"><ele>584.0</ele><time>2026-03-27T11:31:59.999Z</time></trkpt><trkpt lat="40.59262940299686" lon="9.152927843781251"><ele>584.0</ele><time>2026-03-27T11:32:00.999Z</time></trkpt><trkpt lat="40.59277256420284" lon="9.15280867065187"><ele>584.0</ele><time>2026-03-27T11:32:01.999Z</time></trkpt><trkpt lat="40.59290498693939" lon="9.152684729216462"><ele>584.6666666666666</ele><time>2026-03-27T11:32:02.999Z</time></trkpt><trkpt lat="40.59303130031931" lon="9.152568755332013"><ele>585.3333333333334</ele><time>2026-03-27T11:32:03.999Z</time></trkpt><trkpt lat="40.59315622508303" lon="9.152451569812488"><ele>586.0</ele><time>2026-03-27T11:32:04.999Z</time></trkpt><trkpt lat="40.593272228783086" lon="9.152333384555066"><ele>586.0</ele><time>2026-03-27T11:32:05.999Z</time></trkpt><trkpt lat="40.59339244377444" lon="9.15220994367108"><ele>586.0</ele><time>2026-03-27T11:32:06.999Z</time></trkpt><trkpt lat="40.593508044844015" lon="9.152088033476211"><ele>586.0</ele><time>2026-03-27T11:32:07.999Z</time></trkpt><trkpt lat="40.59361634088283" lon="9.151959730482703"><ele>586.0</ele><time>2026-03-27T11:32:08.999Z</time></trkpt><trkpt lat="40.593720169664046" lon="9.151825447785695"><ele>590.0</ele><time>2026-03-27T11:32:09.999Z</time></trkpt><trkpt lat="40.593823576011026" lon="9.151696433161803"><ele>594.0</ele><time>2026-03-27T11:32:10.999Z</time></trkpt><trkpt lat="40.593932141018406" lon="9.151576435652364"><ele>598.0</ele><time>2026-03-27T11:32:11.999Z</time></trkpt><trkpt lat="40.59404956016671" lon="9.151465978795265"><ele>602.0</ele><time>2026-03-27T11:32:12.999Z</time></trkpt><trkpt lat="40.594172531443306" lon="9.151372943924333"><ele>600.25</ele><time>2026-03-27T11:32:13.999Z</time></trkpt><trkpt lat="40.594289182567714" lon="9.151282008098983"><ele>598.5</ele><time>2026-03-27T11:32:14.999Z</time></trkpt><trkpt lat="40.594392100557705" lon="9.151165769600224"><ele>596.75</ele><time>2026-03-27T11:32:15.999Z</time></trkpt><trkpt lat="40.59446667267081" lon="9.151047732579961"><ele>595.0</ele><time>2026-03-27T11:32:16.999Z</time></trkpt><trkpt lat="40.59451000491296" lon="9.150948915802946"><ele>595.0</ele><time>2026-03-27T11:32:18.999Z</time></trkpt><trkpt lat="40.59455790335633" lon="9.15084253329997"><ele>595.0</ele><time>2026-03-27T11:32:20.999Z</time></trkpt><trkpt lat="40.5946189549514" lon="9.150701878767455"><ele>595.0</ele><time>2026-03-27T11:32:22.999Z</time></trkpt><trkpt lat="40.5946587780912" lon="9.150624744494552"><ele>595.0</ele><time>2026-03-27T11:32:23.999Z</time></trkpt><trkpt lat="40.59471254480205" lon="9.150541765763847"><ele>595.0</ele><time>2026-03-27T11:32:24.999Z</time></trkpt><trkpt lat="40.594771327776435" lon="9.150457286639698"><ele>587.8</ele><time>2026-03-27T11:32:25.999Z</time></trkpt><trkpt lat="40.594831673659165" lon="9.150365701047184"><ele>580.6</ele><time>2026-03-27T11:32:26.999Z</time></trkpt><trkpt lat="40.5948939447623" lon="9.150263956945208"><ele>573.4</ele><time>2026-03-27T11:32:27.999Z</time></trkpt><trkpt lat="40.594958872994575" lon="9.150156418639364"><ele>566.2</ele><time>2026-03-27T11:32:28.999Z</time></trkpt><trkpt lat="40.59502902021748" lon="9.150052614405013"><ele>559.0</ele><time>2026-03-27T11:32:29.999Z</time></trkpt><trkpt lat="40.595106825942096" lon="9.149957315629008"><ele>554.75</ele><time>2026-03-27T11:32:30.999Z</time></trkpt><trkpt lat="40.59520025152575" lon="9.14986603591118"><ele>550.5</ele><time>2026-03-27T11:32:31.999Z</time></trkpt><trkpt lat="40.59530324526808" lon="9.149776289850774"><ele>546.25</ele><time>2026-03-27T11:32:32.999Z</time></trkpt><trkpt lat="40.595409158777734" lon="9.149691521082966"><ele>542.0</ele><time>2026-03-27T11:32:33.999Z</time></trkpt><trkpt lat="40.59551427454682" lon="9.149606156336402"><ele>542.0</ele><time>2026-03-27T11:32:34.999Z</time></trkpt><trkpt lat="40.59561903606808" lon="9.149519083924506"><ele>542.0</ele><time>2026-03-27T11:32:35.999Z</time></trkpt><trkpt lat="40.59572501498797" lon="9.149436920434857"><ele>542.0</ele><time>2026-03-27T11:32:36.999Z</time></trkpt><trkpt lat="40.59583237570427" lon="9.149358572879242"><ele>542.0</ele><time>2026-03-27T11:32:37.999Z</time></trkpt><trkpt lat="40.595940705305125" lon="9.149281577563878"><ele>542.0</ele><time>2026-03-27T11:32:38.999Z</time></trkpt><trkpt lat="40.59605178642428" lon="9.149205261520267"><ele>542.0</ele><time>2026-03-27T11:32:39.999Z</time></trkpt><trkpt lat="40.59616418153157" lon="9.14913445425256"><ele>542.0</ele><time>2026-03-27T11:32:40.999Z</time></trkpt><trkpt lat="40.59628688679661" lon="9.149082834310853"><ele>542.0</ele><time>2026-03-27T11:32:41.998Z</time></trkpt><trkpt lat="40.59641019681141" lon="9.149064658038563"><ele>543.0</ele><time>2026-03-27T11:32:42.998Z</time></trkpt><trkpt lat="40.59652670971108" lon="9.149064294909548"><ele>544.0</ele><time>2026-03-27T11:32:43.998Z</time></trkpt><trkpt lat="40.596631759652745" lon="9.149044356890176"><ele>545.0</ele><time>2026-03-27T11:32:44.998Z</time></trkpt><trkpt lat="40.596739991128715" lon="9.148993613360425"><ele>546.0</ele><time>2026-03-27T11:32:45.998Z</time></trkpt><trkpt lat="40.59683681477655" lon="9.148894873610764"><ele>543.2</ele><time>2026-03-27T11:32:46.998Z</time></trkpt><trkpt lat="40.59690864713449" lon="9.148772588853669"><ele>540.4000000000001</ele><time>2026-03-27T11:32:47.998Z</time></trkpt><trkpt lat="40.59694369736142" lon="9.148631834859874"><ele>537.6</ele><time>2026-03-27T11:32:48.998Z</time></trkpt><trkpt lat="40.59693388658041" lon="9.148493370773933"><ele>534.8000000000001</ele><time>2026-03-27T11:32:49.998Z</time></trkpt><trkpt lat="40.59688452489554" lon="9.148378237700735"><ele>532.0</ele><time>2026-03-27T11:32:50.998Z</time></trkpt><trkpt lat="40.596833304350355" lon="9.148268297051892"><ele>530.5</ele><time>2026-03-27T11:32:51.998Z</time></trkpt><trkpt lat="40.596754335854804" lon="9.148189173595313"><ele>529.0</ele><time>2026-03-27T11:32:52.998Z</time></trkpt><trkpt lat="40.59667713885289" lon="9.148117572001963"><ele>527.5</ele><time>2026-03-27T11:32:53.998Z</time></trkpt><trkpt lat="40.5966149433457" lon="9.14806178279626"><ele>526.0</ele><time>2026-03-27T11:32:54.998Z</time></trkpt><trkpt lat="40.59653790190798" lon="9.147972353299751"><ele>524.5</ele><time>2026-03-27T11:32:56.998Z</time></trkpt><trkpt lat="40.59648761993278" lon="9.147902775609772"><ele>523.0</ele><time>2026-03-27T11:32:59.998Z</time></trkpt><trkpt lat="40.596423155024006" lon="9.147828825508018"><ele>522.9999999999999</ele><time>2026-03-27T11:33:02.998Z</time></trkpt><trkpt lat="40.59638061315499" lon="9.147763749176033"><ele>523.0</ele><time>2026-03-27T11:33:05.998Z</time></trkpt><trkpt lat="40.59633348138632" lon="9.147689989235555"><ele>523.0</ele><time>2026-03-27T11:33:10.998Z</time></trkpt><trkpt lat="40.59629657498674" lon="9.147616015183301"><ele>523.0</ele><time>2026-03-27T11:33:14.998Z</time></trkpt><trkpt lat="40.59625439344157" lon="9.147538380354836"><ele>523.0</ele><time>2026-03-27T11:33:28Z</time></trkpt><trkpt lat="40.59620580325854" lon="9.147449859173094"><ele>522.9999999999999</ele><time>2026-03-27T11:33:35Z</time></trkpt><trkpt lat="40.596156290064386" lon="9.14735604540273"><ele>523.0</ele><time>2026-03-27T11:33:37Z</time></trkpt><trkpt lat="40.59610757405443" lon="9.147256878610367"><ele>521.3333333333334</ele><time>2026-03-27T11:33:39Z</time></trkpt><trkpt lat="40.596067893754835" lon="9.147177645047424"><ele>519.6666666666667</ele><time>2026-03-27T11:33:41Z</time></trkpt><trkpt lat="40.5960296055218" lon="9.147101262998815"><ele>518.0</ele><time>2026-03-27T11:33:43Z</time></trkpt><trkpt lat="40.59598226571533" lon="9.147007916179438"><ele>516.3333333333334</ele><time>2026-03-27T11:33:45Z</time></trkpt><trkpt lat="40.59593708377813" lon="9.146919502646112"><ele>514.6666666666666</ele><time>2026-03-27T11:33:46.999Z</time></trkpt><trkpt lat="40.59589819686882" lon="9.146814270119517"><ele>513.0</ele><time>2026-03-27T11:33:48.999Z</time></trkpt><trkpt lat="40.59584822462448" lon="9.146725566635338"><ele>513.0</ele><time>2026-03-27T11:33:50.999Z</time></trkpt><trkpt lat="40.59577354300096" lon="9.146653849099469"><ele>513.0</ele><time>2026-03-27T11:33:52.999Z</time></trkpt><trkpt lat="40.59570218150449" lon="9.146573575479305"><ele>513.0</ele><time>2026-03-27T11:33:54.999Z</time></trkpt><trkpt lat="40.59562416893769" lon="9.146505431939671"><ele>513.0</ele><time>2026-03-27T11:33:56.999Z</time></trkpt><trkpt lat="40.595544322852454" lon="9.146438945556254"><ele>513.0</ele><time>2026-03-27T11:33:58.999Z</time></trkpt><trkpt lat="40.5954722613215" lon="9.14636838421765"><ele>514.5</ele><time>2026-03-27T11:34:00.999Z</time></trkpt><trkpt lat="40.59541517064719" lon="9.146290882193611"><ele>516.0</ele><time>2026-03-27T11:34:02.999Z</time></trkpt><trkpt lat="40.595363931862465" lon="9.146213565087876"><ele>517.5</ele><time>2026-03-27T11:34:04.999Z</time></trkpt><trkpt lat="40.59531038842796" lon="9.146149836767627"><ele>519.0</ele><time>2026-03-27T11:34:06.999Z</time></trkpt><trkpt lat="40.59526530784485" lon="9.146070992989136"><ele>520.5</ele><time>2026-03-27T11:34:08.999Z</time></trkpt><trkpt lat="40.5952162392396" lon="9.145992591537974"><ele>522.0</ele><time>2026-03-27T11:34:10.999Z</time></trkpt><trkpt lat="40.5951711723141" lon="9.145897191691304"><ele>516.6</ele><time>2026-03-27T11:34:12.999Z</time></trkpt><trkpt lat="40.595123042948074" lon="9.145783874064383"><ele>511.20000000000005</ele><time>2026-03-27T11:34:14.999Z</time></trkpt><trkpt lat="40.595073915149015" lon="9.145654197215823"><ele>505.8</ele><time>2026-03-27T11:34:16.999Z</time></trkpt><trkpt lat="40.59503028875468" lon="9.145493816808232"><ele>500.4</ele><time>2026-03-27T11:34:18.999Z</time></trkpt><trkpt lat="40.59500806174421" lon="9.145402914784658"><ele>495.0</ele><time>2026-03-27T11:34:19.999Z</time></trkpt><trkpt lat="40.59498193904124" lon="9.145306977623989"><ele>494.8333333333333</ele><time>2026-03-27T11:34:20.999Z</time></trkpt><trkpt lat="40.594951970387896" lon="9.14520067430748"><ele>494.66666666666663</ele><time>2026-03-27T11:34:21.999Z</time></trkpt><trkpt lat="40.59492302692646" lon="9.145091234891837"><ele>494.5</ele><time>2026-03-27T11:34:22.999Z</time></trkpt><trkpt lat="40.594896539011835" lon="9.144990672253387"><ele>494.3333333333333</ele><time>2026-03-27T11:34:23.999Z</time></trkpt><trkpt lat="40.59487022895902" lon="9.144898245347107"><ele>494.16666666666663</ele><time>2026-03-27T11:34:24.999Z</time></trkpt><trkpt lat="40.59484639742425" lon="9.144808827017828"><ele>494.0</ele><time>2026-03-27T11:34:25.999Z</time></trkpt><trkpt lat="40.59479771026129" lon="9.144648398290645"><ele>493.57142857142856</ele><time>2026-03-27T11:34:27.999Z</time></trkpt><trkpt lat="40.59477069609685" lon="9.144556752458751"><ele>493.1428571428571</ele><time>2026-03-27T11:34:28.999Z</time></trkpt><trkpt lat="40.59474400515178" lon="9.144475346328319"><ele>492.71428571428567</ele><time>2026-03-27T11:34:29.999Z</time></trkpt><trkpt lat="40.59471307754878" lon="9.144386166204397"><ele>492.2857142857143</ele><time>2026-03-27T11:34:30.999Z</time></trkpt><trkpt lat="40.59468660808312" lon="9.144306120925902"><ele>491.8571428571428</ele><time>2026-03-27T11:34:31.999Z</time></trkpt><trkpt lat="40.59465908658717" lon="9.144227153579106"><ele>491.4285714285714</ele><time>2026-03-27T11:34:32.999Z</time></trkpt><trkpt lat="40.59463127526393" lon="9.14415113437132"><ele>491.0</ele><time>2026-03-27T11:34:33.999Z</time></trkpt><trkpt lat="40.59459519422952" lon="9.144067397789934"><ele>488.0</ele><time>2026-03-27T11:34:34.999Z</time></trkpt><trkpt lat="40.59456710459341" lon="9.143944332864383"><ele>485.0</ele><time>2026-03-27T11:34:35.999Z</time></trkpt><trkpt lat="40.59452017482701" lon="9.143798713038429"><ele>482.0</ele><time>2026-03-27T11:34:36.999Z</time></trkpt><trkpt lat="40.59446878948088" lon="9.143639269655784"><ele>479.0</ele><time>2026-03-27T11:34:37.999Z</time></trkpt><trkpt lat="40.59441075605683" lon="9.143466962554522"><ele>479.0</ele><time>2026-03-27T11:34:38.999Z</time></trkpt><trkpt lat="40.59434177740779" lon="9.143314157665554"><ele>479.0</ele><time>2026-03-27T11:34:39.999Z</time></trkpt><trkpt lat="40.59429829800424" lon="9.143187041548142"><ele>479.0</ele><time>2026-03-27T11:34:40.999Z</time></trkpt><trkpt lat="40.594265381840856" lon="9.143084820521043"><ele>479.0</ele><time>2026-03-27T11:34:41.999Z</time></trkpt><trkpt lat="40.594243035648226" lon="9.142985685056988"><ele>479.0</ele><time>2026-03-27T11:34:42.998Z</time></trkpt><trkpt lat="40.59424186930993" lon="9.142888361164896"><ele>478.8333333333333</ele><time>2026-03-27T11:34:43.998Z</time></trkpt><trkpt lat="40.59424650876308" lon="9.142792944281222"><ele>478.66666666666663</ele><time>2026-03-27T11:34:44.998Z</time></trkpt><trkpt lat="40.594273635910824" lon="9.142709076040438"><ele>478.5</ele><time>2026-03-27T11:34:45.998Z</time></trkpt><trkpt lat="40.594291205524904" lon="9.142624917139681"><ele>478.33333333333337</ele><time>2026-03-27T11:34:46.998Z</time></trkpt><trkpt lat="40.594324998672164" lon="9.142468582949864"><ele>478.1666666666667</ele><time>2026-03-27T11:34:48.998Z</time></trkpt><trkpt lat="40.594358132882455" lon="9.142320055516048"><ele>478.0</ele><time>2026-03-27T11:34:50.998Z</time></trkpt><trkpt lat="40.594391763581754" lon="9.142202261358662"><ele>479.0</ele><time>2026-03-27T11:34:52.998Z</time></trkpt><trkpt lat="40.594444415243636" lon="9.142060659434833"><ele>479.99999999999994</ele><time>2026-03-27T11:34:54.998Z</time></trkpt><trkpt lat="40.59447213924406" lon="9.141956930807321"><ele>480.99999999999994</ele><time>2026-03-27T11:34:55.998Z</time></trkpt><trkpt lat="40.59449950949104" lon="9.141858399758098"><ele>482.0</ele><time>2026-03-27T11:34:56.998Z</time></trkpt><trkpt lat="40.59452515095254" lon="9.141748995335"><ele>483.0</ele><time>2026-03-27T11:34:57.998Z</time></trkpt><trkpt lat="40.59454194316994" lon="9.141626162026283"><ele>480.5</ele><time>2026-03-27T11:34:58.998Z</time></trkpt><trkpt lat="40.59455016755514" lon="9.141474831168074"><ele>478.0</ele><time>2026-03-27T11:34:59.998Z</time></trkpt><trkpt lat="40.594547567666694" lon="9.141292896599278"><ele>475.5</ele><time>2026-03-27T11:35:00.998Z</time></trkpt><trkpt lat="40.59454590988095" lon="9.141107723970428"><ele>473.0</ele><time>2026-03-27T11:35:01.998Z</time></trkpt><trkpt lat="40.59454821181719" lon="9.140932729671304"><ele>473.0</ele><time>2026-03-27T11:35:02.998Z</time></trkpt><trkpt lat="40.594563927067334" lon="9.140761433076781"><ele>473.0</ele><time>2026-03-27T11:35:03.998Z</time></trkpt><trkpt lat="40.594618351853164" lon="9.140597066251857"><ele>473.0</ele><time>2026-03-27T11:35:04.998Z</time></trkpt><trkpt lat="40.59465435879394" lon="9.140410522352095"><ele>473.0</ele><time>2026-03-27T11:35:05.998Z</time></trkpt><trkpt lat="40.59469973702184" lon="9.140225194731695"><ele>475.5</ele><time>2026-03-27T11:35:06.998Z</time></trkpt><trkpt lat="40.594742369653666" lon="9.14005899094675"><ele>478.0</ele><time>2026-03-27T11:35:07.998Z</time></trkpt><trkpt lat="40.594782556922524" lon="9.139912186902814"><ele>480.5</ele><time>2026-03-27T11:35:08.998Z</time></trkpt><trkpt lat="40.594820176348804" lon="9.1397664356609"><ele>483.0</ele><time>2026-03-27T11:35:09.998Z</time></trkpt><trkpt lat="40.59485881660303" lon="9.139614935323676"><ele>485.75</ele><time>2026-03-27T11:35:10.998Z</time></trkpt><trkpt lat="40.594896341029376" lon="9.139462424737648"><ele>488.5</ele><time>2026-03-27T11:35:11.998Z</time></trkpt><trkpt lat="40.59493934950227" lon="9.13931158930554"><ele>491.25</ele><time>2026-03-27T11:35:12.998Z</time></trkpt><trkpt lat="40.59495532908542" lon="9.139140977680155"><ele>494.0</ele><time>2026-03-27T11:35:13.998Z</time></trkpt><trkpt lat="40.59496216399286" lon="9.13895132857636"><ele>497.0</ele><time>2026-03-27T11:35:14.998Z</time></trkpt><trkpt lat="40.594964447279665" lon="9.138740474079155"><ele>500.0</ele><time>2026-03-27T11:35:15.998Z</time></trkpt><trkpt lat="40.59495290940234" lon="9.138513745674006"><ele>503.0</ele><time>2026-03-27T11:35:16.998Z</time></trkpt><trkpt lat="40.594944030637585" lon="9.138272079911665"><ele>506.3333333333333</ele><time>2026-03-27T11:35:17.998Z</time></trkpt><trkpt lat="40.59494387699772" lon="9.138023486186663"><ele>509.66666666666663</ele><time>2026-03-27T11:35:18.998Z</time></trkpt><trkpt lat="40.59494922306436" lon="9.137766087682094"><ele>513.0</ele><time>2026-03-27T11:35:19.998Z</time></trkpt><trkpt lat="40.59495754877505" lon="9.137511083790917"><ele>516.6666666666666</ele><time>2026-03-27T11:35:20.998Z</time></trkpt><trkpt lat="40.594963754796744" lon="9.137278399908558"><ele>520.3333333333333</ele><time>2026-03-27T11:35:21.998Z</time></trkpt><trkpt lat="40.59496968390818" lon="9.13706042905905"><ele>524.0</ele><time>2026-03-27T11:35:22.998Z</time></trkpt><trkpt lat="40.59498526996134" lon="9.136843652828002"><ele>524.0</ele><time>2026-03-27T11:35:23.998Z</time></trkpt><trkpt lat="40.59501656988244" lon="9.136633237288438"><ele>524.0</ele><time>2026-03-27T11:35:24.998Z</time></trkpt><trkpt lat="40.595062238501264" lon="9.136427446403452"><ele>524.0</ele><time>2026-03-27T11:35:25.998Z</time></trkpt><trkpt lat="40.59511303523625" lon="9.136227389688024"><ele>528.6666666666666</ele><time>2026-03-27T11:35:26.998Z</time></trkpt><trkpt lat="40.595168334479304" lon="9.136025845663903"><ele>533.3333333333334</ele><time>2026-03-27T11:35:27.998Z</time></trkpt><trkpt lat="40.59522918397607" lon="9.135834244222844"><ele>538.0</ele><time>2026-03-27T11:35:28.998Z</time></trkpt><trkpt lat="40.59529419219588" lon="9.135658259908626"><ele>539.25</ele><time>2026-03-27T11:35:29.998Z</time></trkpt><trkpt lat="40.59533226780827" lon="9.135509994797623"><ele>540.5</ele><time>2026-03-27T11:35:31Z</time></trkpt><trkpt lat="40.595343920264376" lon="9.135340431372923"><ele>541.75</ele><time>2026-03-27T11:35:32Z</time></trkpt><trkpt lat="40.5953278279617" lon="9.135179389442225"><ele>543.0</ele><time>2026-03-27T11:35:33Z</time></trkpt><trkpt lat="40.595279195499735" lon="9.13505146779263"><ele>543.0</ele><time>2026-03-27T11:35:34Z</time></trkpt><trkpt lat="40.59520482922978" lon="9.134935965065152"><ele>543.0</ele><time>2026-03-27T11:35:35Z</time></trkpt><trkpt lat="40.595100495105974" lon="9.134853497155747"><ele>543.0</ele><time>2026-03-27T11:35:36Z</time></trkpt><trkpt lat="40.594982348158204" lon="9.13481542017615"><ele>543.0</ele><time>2026-03-27T11:35:37Z</time></trkpt><trkpt lat="40.594845745664145" lon="9.134818650342744"><ele>542.0</ele><time>2026-03-27T11:35:38Z</time></trkpt><trkpt lat="40.59469380131161" lon="9.13485463905131"><ele>541.0</ele><time>2026-03-27T11:35:39Z</time></trkpt><trkpt lat="40.59452713383675" lon="9.134867227162257"><ele>540.0</ele><time>2026-03-27T11:35:40Z</time></trkpt><trkpt lat="40.5943652524097" lon="9.134878029957106"><ele>540.0</ele><time>2026-03-27T11:35:41Z</time></trkpt><trkpt lat="40.59420524739665" lon="9.134875708726755"><ele>540.0</ele><time>2026-03-27T11:35:42Z</time></trkpt><trkpt lat="40.594054027266885" lon="9.13485726769257"><ele>540.0</ele><time>2026-03-27T11:35:43Z</time></trkpt><trkpt lat="40.59391079102673" lon="9.134802128004756"><ele>540.0</ele><time>2026-03-27T11:35:44Z</time></trkpt><trkpt lat="40.593773242853665" lon="9.134750651573851"><ele>540.0</ele><time>2026-03-27T11:35:45Z</time></trkpt><trkpt lat="40.59363581764872" lon="9.13469187360849"><ele>540.0</ele><time>2026-03-27T11:35:46Z</time></trkpt><trkpt lat="40.59348904793803" lon="9.13468014751957"><ele>540.0</ele><time>2026-03-27T11:35:47Z</time></trkpt><trkpt lat="40.59334623822064" lon="9.134685870526184"><ele>542.5</ele><time>2026-03-27T11:35:48Z</time></trkpt><trkpt lat="40.593207505346626" lon="9.134711904743194"><ele>545.0</ele><time>2026-03-27T11:35:48.999Z</time></trkpt><trkpt lat="40.59308238716654" lon="9.134775266274602"><ele>547.5</ele><time>2026-03-27T11:35:49.999Z</time></trkpt><trkpt lat="40.5929644589025" lon="9.13486798026306"><ele>550.0</ele><time>2026-03-27T11:35:50.999Z</time></trkpt><trkpt lat="40.592850493975746" lon="9.134960553922783"><ele>555.25</ele><time>2026-03-27T11:35:51.999Z</time></trkpt><trkpt lat="40.59273515885637" lon="9.135051137703883"><ele>560.5</ele><time>2026-03-27T11:35:52.999Z</time></trkpt><trkpt lat="40.592625864873746" lon="9.135157225926994"><ele>565.75</ele><time>2026-03-27T11:35:53.999Z</time></trkpt><trkpt lat="40.59250417738481" lon="9.135247368571614"><ele>571.0</ele><time>2026-03-27T11:35:54.999Z</time></trkpt><trkpt lat="40.59237601234025" lon="9.135341372254544"><ele>571.0</ele><time>2026-03-27T11:35:55.999Z</time></trkpt><trkpt lat="40.59223607947436" lon="9.135429625040265"><ele>571.0</ele><time>2026-03-27T11:35:56.999Z</time></trkpt><trkpt lat="40.592101401158054" lon="9.135434887057317"><ele>571.0</ele><time>2026-03-27T11:35:57.999Z</time></trkpt><trkpt lat="40.59195257639761" lon="9.135424100372724"><ele>571.0</ele><time>2026-03-27T11:35:58.999Z</time></trkpt><trkpt lat="40.591791751587415" lon="9.135411308197657"><ele>572.0</ele><time>2026-03-27T11:35:59.999Z</time></trkpt><trkpt lat="40.591622707522085" lon="9.135407209702672"><ele>573.0</ele><time>2026-03-27T11:36:00.999Z</time></trkpt><trkpt lat="40.59145010038191" lon="9.135404070859941"><ele>574.0</ele><time>2026-03-27T11:36:01.999Z</time></trkpt><trkpt lat="40.59127131542825" lon="9.135419299527658"><ele>577.0</ele><time>2026-03-27T11:36:02.999Z</time></trkpt><trkpt lat="40.59109183284071" lon="9.135417354849574"><ele>580.0</ele><time>2026-03-27T11:36:03.999Z</time></trkpt><trkpt lat="40.590911298002624" lon="9.135402592752259"><ele>583.0</ele><time>2026-03-27T11:36:04.999Z</time></trkpt><trkpt lat="40.590733687368946" lon="9.135428321944262"><ele>583.0</ele><time>2026-03-27T11:36:05.999Z</time></trkpt><trkpt lat="40.59056276975175" lon="9.135476862127081"><ele>583.0</ele><time>2026-03-27T11:36:06.999Z</time></trkpt><trkpt lat="40.590392903017886" lon="9.135458109069813"><ele>583.0</ele><time>2026-03-27T11:36:07.999Z</time></trkpt><trkpt lat="40.59022548740768" lon="9.13542994963235"><ele>586.0</ele><time>2026-03-27T11:36:08.999Z</time></trkpt><trkpt lat="40.590063414889755" lon="9.135388010055953"><ele>589.0</ele><time>2026-03-27T11:36:09.999Z</time></trkpt><trkpt lat="40.58989682302537" lon="9.135344105606714"><ele>592.0</ele><time>2026-03-27T11:36:10.999Z</time></trkpt><trkpt lat="40.5897193640413" lon="9.135297858735921"><ele>592.0</ele><time>2026-03-27T11:36:11.999Z</time></trkpt><trkpt lat="40.58953709849154" lon="9.135260978768388"><ele>592.0</ele><time>2026-03-27T11:36:12.999Z</time></trkpt><trkpt lat="40.58936746996394" lon="9.135225256492436"><ele>592.0</ele><time>2026-03-27T11:36:13.999Z</time></trkpt><trkpt lat="40.58920777993166" lon="9.135191367545747"><ele>600.3333333333334</ele><time>2026-03-27T11:36:14.999Z</time></trkpt><trkpt lat="40.589051303251125" lon="9.135144400982997"><ele>608.6666666666666</ele><time>2026-03-27T11:36:15.999Z</time></trkpt><trkpt lat="40.58890267676501" lon="9.13506744756863"><ele>617.0</ele><time>2026-03-27T11:36:16.999Z</time></trkpt><trkpt lat="40.58875942499514" lon="9.134972508163292"><ele>619.0</ele><time>2026-03-27T11:36:17.999Z</time></trkpt><trkpt lat="40.58861822495493" lon="9.13485981451224"><ele>621.0</ele><time>2026-03-27T11:36:18.999Z</time></trkpt><trkpt lat="40.588467473413154" lon="9.134761555805632"><ele>623.0</ele><time>2026-03-27T11:36:19.999Z</time></trkpt><trkpt lat="40.58835068565103" lon="9.13462182142646"><ele>623.0</ele><time>2026-03-27T11:36:20.999Z</time></trkpt><trkpt lat="40.58822559837908" lon="9.134484526871576"><ele>623.0</ele><time>2026-03-27T11:36:21.999Z</time></trkpt><trkpt lat="40.58811509651768" lon="9.134326308431792"><ele>623.0</ele><time>2026-03-27T11:36:22.999Z</time></trkpt><trkpt lat="40.58801561404658" lon="9.13417109697731"><ele>622.25</ele><time>2026-03-27T11:36:23.999Z</time></trkpt><trkpt lat="40.58792705335606" lon="9.134039215130027"><ele>621.5</ele><time>2026-03-27T11:36:24.999Z</time></trkpt><trkpt lat="40.58783212064454" lon="9.133920749577726"><ele>620.75</ele><time>2026-03-27T11:36:25.999Z</time></trkpt><trkpt lat="40.587706340747665" lon="9.133871720859897"><ele>620.0</ele><time>2026-03-27T11:36:26.999Z</time></trkpt><trkpt lat="40.58757142820466" lon="9.133828425949408"><ele>620.0</ele><time>2026-03-27T11:36:27.999Z</time></trkpt><trkpt lat="40.58742822367767" lon="9.133756490526908"><ele>620.0</ele><time>2026-03-27T11:36:28.999Z</time></trkpt><trkpt lat="40.5872805597755" lon="9.133702013437457"><ele>620.0</ele><time>2026-03-27T11:36:29.999Z</time></trkpt><trkpt lat="40.58712707015691" lon="9.133649656881772"><ele>621.25</ele><time>2026-03-27T11:36:30.999Z</time></trkpt><trkpt lat="40.587000305483166" lon="9.133568075932459"><ele>622.5</ele><time>2026-03-27T11:36:31.999Z</time></trkpt><trkpt lat="40.58687864960919" lon="9.133493779403455"><ele>623.75</ele><time>2026-03-27T11:36:32.999Z</time></trkpt><trkpt lat="40.58675316255276" lon="9.133443624886262"><ele>625.0</ele><time>2026-03-27T11:36:33.999Z</time></trkpt><trkpt lat="40.58663811322962" lon="9.13337945502061"><ele>625.0</ele><time>2026-03-27T11:36:34.999Z</time></trkpt><trkpt lat="40.58651512009345" lon="9.133320414052125"><ele>625.0</ele><time>2026-03-27T11:36:35.999Z</time></trkpt><trkpt lat="40.58637986734945" lon="9.133249814200909"><ele>625.0</ele><time>2026-03-27T11:36:36.999Z</time></trkpt><trkpt lat="40.58625441796124" lon="9.133155375381795"><ele>625.0</ele><time>2026-03-27T11:36:37.999Z</time></trkpt><trkpt lat="40.586139859284586" lon="9.133027208925245"><ele>627.6666666666667</ele><time>2026-03-27T11:36:38.999Z</time></trkpt><trkpt lat="40.58602975008348" lon="9.132882928419011"><ele>630.3333333333334</ele><time>2026-03-27T11:36:39.999Z</time></trkpt><trkpt lat="40.5859529160702" lon="9.132695445491668"><ele>633.0</ele><time>2026-03-27T11:36:40.999Z</time></trkpt><trkpt lat="40.58586900527884" lon="9.132507774390131"><ele>632.0</ele><time>2026-03-27T11:36:41.999Z</time></trkpt><trkpt lat="40.58578590647621" lon="9.132304843806022"><ele>631.0</ele><time>2026-03-27T11:36:42.999Z</time></trkpt><trkpt lat="40.585735022423584" lon="9.132083070158735"><ele>630.0</ele><time>2026-03-27T11:36:43.999Z</time></trkpt><trkpt lat="40.58567824327207" lon="9.131866419368514"><ele>630.0</ele><time>2026-03-27T11:36:44.999Z</time></trkpt><trkpt lat="40.58561159920087" lon="9.131655142280918"><ele>630.0</ele><time>2026-03-27T11:36:45.998Z</time></trkpt><trkpt lat="40.58552351841792" lon="9.131463072579923"><ele>630.0</ele><time>2026-03-27T11:36:46.998Z</time></trkpt><trkpt lat="40.58540472373875" lon="9.131305628984068"><ele>634.3333333333334</ele><time>2026-03-27T11:36:47.998Z</time></trkpt><trkpt lat="40.5852614009075" lon="9.131185954322133"><ele>638.6666666666667</ele><time>2026-03-27T11:36:48.998Z</time></trkpt><trkpt lat="40.58509692005196" lon="9.131102581061846"><ele>643.0</ele><time>2026-03-27T11:36:49.998Z</time></trkpt><trkpt lat="40.584932363121034" lon="9.131029191148563"><ele>643.0</ele><time>2026-03-27T11:36:50.998Z</time></trkpt><trkpt lat="40.58477023362118" lon="9.130950396930851"><ele>643.0</ele><time>2026-03-27T11:36:51.998Z</time></trkpt><trkpt lat="40.58460962049165" lon="9.130876871294898"><ele>643.0</ele><time>2026-03-27T11:36:52.998Z</time></trkpt><trkpt lat="40.584449427334455" lon="9.130813053191124"><ele>642.6666666666667</ele><time>2026-03-27T11:36:53.998Z</time></trkpt><trkpt lat="40.58428398056284" lon="9.13076474493204"><ele>642.3333333333334</ele><time>2026-03-27T11:36:54.998Z</time></trkpt><trkpt lat="40.58411741915939" lon="9.130730737652094"><ele>642.0</ele><time>2026-03-27T11:36:55.998Z</time></trkpt><trkpt lat="40.5839575244084" lon="9.130670298358234"><ele>642.0</ele><time>2026-03-27T11:36:56.998Z</time></trkpt><trkpt lat="40.58380000230305" lon="9.1306175945798"><ele>642.0</ele><time>2026-03-27T11:36:57.998Z</time></trkpt><trkpt lat="40.583658859186684" lon="9.130517903792303"><ele>642.0</ele><time>2026-03-27T11:36:58.998Z</time></trkpt><trkpt lat="40.583526249286834" lon="9.13038845202582"><ele>648.0</ele><time>2026-03-27T11:36:59.998Z</time></trkpt><trkpt lat="40.5834469133853" lon="9.13019406424002"><ele>654.0</ele><time>2026-03-27T11:37:00.998Z</time></trkpt><trkpt lat="40.58337744520846" lon="9.129984672067145"><ele>660.0</ele><time>2026-03-27T11:37:01.998Z</time></trkpt><trkpt lat="40.583299048096876" lon="9.129761499136364"><ele>660.0</ele><time>2026-03-27T11:37:02.998Z</time></trkpt><trkpt lat="40.58323501838837" lon="9.12952352562175"><ele>660.0</ele><time>2026-03-27T11:37:03.998Z</time></trkpt><trkpt lat="40.5831657929531" lon="9.129288496671098"><ele>660.0</ele><time>2026-03-27T11:37:04.998Z</time></trkpt><trkpt lat="40.58309462049545" lon="9.129053949784945"><ele>659.0</ele><time>2026-03-27T11:37:05.998Z</time></trkpt><trkpt lat="40.583027199173145" lon="9.128831627879636"><ele>658.0</ele><time>2026-03-27T11:37:06.998Z</time></trkpt><trkpt lat="40.582961304858095" lon="9.128618705739878"><ele>657.0</ele><time>2026-03-27T11:37:07.998Z</time></trkpt><trkpt lat="40.58289705070395" lon="9.128430243906816"><ele>660.5</ele><time>2026-03-27T11:37:08.998Z</time></trkpt><trkpt lat="40.582839718999104" lon="9.12828116818442"><ele>664.0</ele><time>2026-03-27T11:37:09.998Z</time></trkpt><trkpt lat="40.58278130415057" lon="9.128147163109606"><ele>667.5</ele><time>2026-03-27T11:37:10.998Z</time></trkpt><trkpt lat="40.58272283520265" lon="9.128026641661954"><ele>671.0</ele><time>2026-03-27T11:37:11.998Z</time></trkpt><trkpt lat="40.582656055334255" lon="9.12792939123892"><ele>671.0</ele><time>2026-03-27T11:37:12.998Z</time></trkpt><trkpt lat="40.58258675549248" lon="9.127844472139836"><ele>671.0</ele><time>2026-03-27T11:37:13.998Z</time></trkpt><trkpt lat="40.58252695681302" lon="9.127759093145723"><ele>671.0</ele><time>2026-03-27T11:37:14.998Z</time></trkpt><trkpt lat="40.582491074287276" lon="9.127661176332264"><ele>671.0</ele><time>2026-03-27T11:37:15.998Z</time></trkpt><trkpt lat="40.58248076707951" lon="9.127559289860647"><ele>671.0</ele><time>2026-03-27T11:37:16.998Z</time></trkpt><trkpt lat="40.58252350175351" lon="9.12745092788241"><ele>671.0</ele><time>2026-03-27T11:37:17.998Z</time></trkpt><trkpt lat="40.58253820738898" lon="9.127312077429194"><ele>673.25</ele><time>2026-03-27T11:37:18.998Z</time></trkpt><trkpt lat="40.58257142825027" lon="9.127153828382909"><ele>675.5</ele><time>2026-03-27T11:37:19.998Z</time></trkpt><trkpt lat="40.58261379472366" lon="9.126977981607716"><ele>677.75</ele><time>2026-03-27T11:37:20.998Z</time></trkpt><trkpt lat="40.58266677216922" lon="9.126808461489588"><ele>680.0</ele><time>2026-03-27T11:37:21.998Z</time></trkpt><trkpt lat="40.582704608583974" lon="9.12664485020458"><ele>682.75</ele><time>2026-03-27T11:37:22.998Z</time></trkpt><trkpt lat="40.58271259023817" lon="9.126466376708125"><ele>685.5</ele><time>2026-03-27T11:37:23.998Z</time></trkpt><trkpt lat="40.582629650774024" lon="9.126314768195227"><ele>688.25</ele><time>2026-03-27T11:37:24.998Z</time></trkpt><trkpt lat="40.58253094715258" lon="9.126174583840685"><ele>691.0</ele><time>2026-03-27T11:37:25.998Z</time></trkpt><trkpt lat="40.582424217541444" lon="9.126034109623594"><ele>691.0</ele><time>2026-03-27T11:37:26.998Z</time></trkpt><trkpt lat="40.582316132079846" lon="9.125887570760394"><ele>691.0</ele><time>2026-03-27T11:37:27.998Z</time></trkpt><trkpt lat="40.58220826465703" lon="9.125733219320278"><ele>691.0</ele><time>2026-03-27T11:37:28.998Z</time></trkpt><trkpt lat="40.58209637824195" lon="9.125572271022627"><ele>690.6666666666667</ele><time>2026-03-27T11:37:29.998Z</time></trkpt><trkpt lat="40.581983197833786" lon="9.125411839881643"><ele>690.3333333333334</ele><time>2026-03-27T11:37:30.998Z</time></trkpt><trkpt lat="40.58187662615923" lon="9.125261361446576"><ele>690.0</ele><time>2026-03-27T11:37:31.998Z</time></trkpt><trkpt lat="40.581774409713006" lon="9.125115233793844"><ele>690.0</ele><time>2026-03-27T11:37:32.999Z</time></trkpt><trkpt lat="40.58167801433423" lon="9.124965204711804"><ele>690.0</ele><time>2026-03-27T11:37:33.999Z</time></trkpt><trkpt lat="40.5816207184421" lon="9.124786810942938"><ele>690.0</ele><time>2026-03-27T11:37:34.999Z</time></trkpt><trkpt lat="40.58158960735427" lon="9.124595340094086"><ele>690.0</ele><time>2026-03-27T11:37:36.001Z</time></trkpt><trkpt lat="40.58155750326231" lon="9.12440718507964"><ele>692.5</ele><time>2026-03-27T11:37:37.001Z</time></trkpt><trkpt lat="40.58154063790764" lon="9.124219697051664"><ele>695.0</ele><time>2026-03-27T11:37:38.001Z</time></trkpt><trkpt lat="40.58152642252461" lon="9.124032266022603"><ele>697.5</ele><time>2026-03-27T11:37:39.001Z</time></trkpt><trkpt lat="40.58152772055444" lon="9.123847783073112"><ele>700.0</ele><time>2026-03-27T11:37:40.001Z</time></trkpt><trkpt lat="40.5815501533149" lon="9.123669390766649"><ele>700.75</ele><time>2026-03-27T11:37:41.001Z</time></trkpt><trkpt lat="40.58157023324941" lon="9.123488601170564"><ele>701.5</ele><time>2026-03-27T11:37:42.001Z</time></trkpt><trkpt lat="40.58158429458162" lon="9.12330481042283"><ele>702.25</ele><time>2026-03-27T11:37:43.001Z</time></trkpt><trkpt lat="40.581603288536094" lon="9.123119369209247"><ele>703.0</ele><time>2026-03-27T11:37:44Z</time></trkpt><trkpt lat="40.58161805759222" lon="9.122932074306451"><ele>705.5</ele><time>2026-03-27T11:37:45.001Z</time></trkpt><trkpt lat="40.58161673340488" lon="9.122742278201416"><ele>708.0</ele><time>2026-03-27T11:37:46.001Z</time></trkpt><trkpt lat="40.58157329033035" lon="9.122557171690753"><ele>710.5</ele><time>2026-03-27T11:37:47Z</time></trkpt><trkpt lat="40.581497988200184" lon="9.122384542111163"><ele>713.0</ele><time>2026-03-27T11:37:48Z</time></trkpt><trkpt lat="40.58142162147002" lon="9.122212014888268"><ele>718.3333333333333</ele><time>2026-03-27T11:37:49.001Z</time></trkpt><trkpt lat="40.58134272460002" lon="9.122036136474174"><ele>723.6666666666666</ele><time>2026-03-27T11:37:50Z</time></trkpt><trkpt lat="40.58127971351172" lon="9.12184741600877"><ele>729.0</ele><time>2026-03-27T11:37:51Z</time></trkpt><trkpt lat="40.58121181165672" lon="9.121656864015169"><ele>722.3333333333334</ele><time>2026-03-27T11:37:52Z</time></trkpt><trkpt lat="40.58114855415258" lon="9.121456631757711"><ele>715.6666666666667</ele><time>2026-03-27T11:37:53Z</time></trkpt><trkpt lat="40.58108305623638" lon="9.121251195865336"><ele>709.0</ele><time>2026-03-27T11:37:54Z</time></trkpt><trkpt lat="40.58101763446755" lon="9.12104733039066"><ele>709.0</ele><time>2026-03-27T11:37:55Z</time></trkpt><trkpt lat="40.580954389970614" lon="9.120847661678619"><ele>709.0</ele><time>2026-03-27T11:37:56Z</time></trkpt><trkpt lat="40.580903634291644" lon="9.120648030561563"><ele>709.0</ele><time>2026-03-27T11:37:57Z</time></trkpt><trkpt lat="40.580879132834916" lon="9.120439353831859"><ele>708.3333333333334</ele><time>2026-03-27T11:37:58Z</time></trkpt><trkpt lat="40.580884041244396" lon="9.120236588535551"><ele>707.6666666666666</ele><time>2026-03-27T11:37:59Z</time></trkpt><trkpt lat="40.580897011791805" lon="9.12003308280435"><ele>707.0</ele><time>2026-03-27T11:38:00Z</time></trkpt><trkpt lat="40.58095344286299" lon="9.119841288607178"><ele>707.0</ele><time>2026-03-27T11:38:01Z</time></trkpt><trkpt lat="40.58105792209484" lon="9.119688433813565"><ele>707.0</ele><time>2026-03-27T11:38:02Z</time></trkpt><trkpt lat="40.58114219898915" lon="9.119533179638719"><ele>707.0</ele><time>2026-03-27T11:38:03Z</time></trkpt><trkpt lat="40.58123028344106" lon="9.119400233640052"><ele>707.0</ele><time>2026-03-27T11:38:04Z</time></trkpt><trkpt lat="40.58130671043243" lon="9.119257650034408"><ele>714.3333333333333</ele><time>2026-03-27T11:38:05Z</time></trkpt><trkpt lat="40.58137294810475" lon="9.119090727645686"><ele>721.6666666666666</ele><time>2026-03-27T11:38:06Z</time></trkpt><trkpt lat="40.58142548283147" lon="9.118903693837664"><ele>729.0</ele><time>2026-03-27T11:38:07Z</time></trkpt><trkpt lat="40.58140700306951" lon="9.11869092301274"><ele>730.6666666666666</ele><time>2026-03-27T11:38:08Z</time></trkpt><trkpt lat="40.581380812516116" lon="9.118478584843752"><ele>732.3333333333333</ele><time>2026-03-27T11:38:09Z</time></trkpt><trkpt lat="40.581354835272265" lon="9.118260345887812"><ele>734.0</ele><time>2026-03-27T11:38:10Z</time></trkpt><trkpt lat="40.581347847170704" lon="9.118043793635689"><ele>735.6666666666666</ele><time>2026-03-27T11:38:11Z</time></trkpt><trkpt lat="40.5813285331134" lon="9.117838818799337"><ele>737.3333333333334</ele><time>2026-03-27T11:38:12Z</time></trkpt><trkpt lat="40.58129534963626" lon="9.11763563036776"><ele>739.0</ele><time>2026-03-27T11:38:13Z</time></trkpt><trkpt lat="40.58131759207236" lon="9.117428170468893"><ele>740.25</ele><time>2026-03-27T11:38:14Z</time></trkpt><trkpt lat="40.581325738128676" lon="9.117248493612863"><ele>741.5</ele><time>2026-03-27T11:38:15Z</time></trkpt><trkpt lat="40.581354583537326" lon="9.11707080340592"><ele>742.75</ele><time>2026-03-27T11:38:16Z</time></trkpt><trkpt lat="40.58138719293281" lon="9.116887727800789"><ele>744.0</ele><time>2026-03-27T11:38:17Z</time></trkpt><trkpt lat="40.581418684305106" lon="9.116696191415551"><ele>745.3333333333334</ele><time>2026-03-27T11:38:18Z</time></trkpt><trkpt lat="40.581448407776406" lon="9.116500123813832"><ele>746.6666666666667</ele><time>2026-03-27T11:38:19Z</time></trkpt><trkpt lat="40.58147126682485" lon="9.11629629525976"><ele>748.0</ele><time>2026-03-27T11:38:20Z</time></trkpt><trkpt lat="40.58147815531652" lon="9.116084657224432"><ele>748.0</ele><time>2026-03-27T11:38:21Z</time></trkpt><trkpt lat="40.58146054504973" lon="9.115887527686402"><ele>748.0</ele><time>2026-03-27T11:38:22Z</time></trkpt><trkpt lat="40.58143178201909" lon="9.115696458720702"><ele>748.0</ele><time>2026-03-27T11:38:23Z</time></trkpt><trkpt lat="40.58139325567026" lon="9.115501300847116"><ele>749.25</ele><time>2026-03-27T11:38:24Z</time></trkpt><trkpt lat="40.5813494797071" lon="9.115307004542814"><ele>750.5</ele><time>2026-03-27T11:38:25Z</time></trkpt><trkpt lat="40.58130870941437" lon="9.115122556872876"><ele>751.75</ele><time>2026-03-27T11:38:26Z</time></trkpt><trkpt lat="40.58127417433138" lon="9.114947309910166"><ele>753.0</ele><time>2026-03-27T11:38:27Z</time></trkpt><trkpt lat="40.58124535177863" lon="9.114786483827084"><ele>753.2</ele><time>2026-03-27T11:38:28Z</time></trkpt><trkpt lat="40.58122185166463" lon="9.114634608352635"><ele>753.4</ele><time>2026-03-27T11:38:29Z</time></trkpt><trkpt lat="40.581205333251184" lon="9.11449402625387"><ele>753.6</ele><time>2026-03-27T11:38:30Z</time></trkpt><trkpt lat="40.581198036427175" lon="9.114363047084435"><ele>753.8000000000001</ele><time>2026-03-27T11:38:31Z</time></trkpt><trkpt lat="40.581207198315305" lon="9.11423244744809"><ele>754.0</ele><time>2026-03-27T11:38:32Z</time></trkpt><trkpt lat="40.5812368231142" lon="9.114105330588718"><ele>754.5</ele><time>2026-03-27T11:38:33Z</time></trkpt><trkpt lat="40.58127635853698" lon="9.113974544764242"><ele>755.0</ele><time>2026-03-27T11:38:34Z</time></trkpt><trkpt lat="40.581319594310386" lon="9.11383115722588"><ele>755.5</ele><time>2026-03-27T11:38:35Z</time></trkpt><trkpt lat="40.58135651356265" lon="9.113672778309734"><ele>756.0</ele><time>2026-03-27T11:38:36Z</time></trkpt><trkpt lat="40.581378000301854" lon="9.113510506829243"><ele>756.0</ele><time>2026-03-27T11:38:37Z</time></trkpt><trkpt lat="40.58138410533619" lon="9.113353012153228"><ele>756.0</ele><time>2026-03-27T11:38:38Z</time></trkpt><trkpt lat="40.5813805267136" lon="9.113197123894496"><ele>756.0</ele><time>2026-03-27T11:38:39Z</time></trkpt><trkpt lat="40.581375859097264" lon="9.113043475331176"><ele>756.0</ele><time>2026-03-27T11:38:40Z</time></trkpt><trkpt lat="40.58137488352534" lon="9.112893791723637"><ele>757.25</ele><time>2026-03-27T11:38:41Z</time></trkpt><trkpt lat="40.581374633661305" lon="9.112743653117091"><ele>758.5</ele><time>2026-03-27T11:38:42Z</time></trkpt><trkpt lat="40.58137932646237" lon="9.11259509811073"><ele>759.75</ele><time>2026-03-27T11:38:43Z</time></trkpt><trkpt lat="40.581388934694495" lon="9.112448243332407"><ele>761.0</ele><time>2026-03-27T11:38:44Z</time></trkpt><trkpt lat="40.58140479347396" lon="9.112303819971851"><ele>761.75</ele><time>2026-03-27T11:38:44.999Z</time></trkpt><trkpt lat="40.58142660824616" lon="9.112158772641234"><ele>762.5</ele><time>2026-03-27T11:38:45.999Z</time></trkpt><trkpt lat="40.58144982787354" lon="9.112012548027936"><ele>763.25</ele><time>2026-03-27T11:38:46.999Z</time></trkpt><trkpt lat="40.58148621543293" lon="9.111868379141216"><ele>764.0</ele><time>2026-03-27T11:38:47.999Z</time></trkpt><trkpt lat="40.581529784748696" lon="9.111724939411488"><ele>764.0</ele><time>2026-03-27T11:38:48.999Z</time></trkpt><trkpt lat="40.58157886648149" lon="9.11157968617136"><ele>764.0</ele><time>2026-03-27T11:38:49.999Z</time></trkpt><trkpt lat="40.58163045985295" lon="9.111433583436456"><ele>764.0</ele><time>2026-03-27T11:38:50.999Z</time></trkpt><trkpt lat="40.58167887671712" lon="9.111311192228829"><ele>764.0</ele><time>2026-03-27T11:38:51.999Z</time></trkpt><trkpt lat="40.5817278186151" lon="9.111204258063925"><ele>764.0</ele><time>2026-03-27T11:38:52.999Z</time></trkpt><trkpt lat="40.58174743990324" lon="9.111097192684472"><ele>764.3333333333333</ele><time>2026-03-27T11:38:53.999Z</time></trkpt><trkpt lat="40.5817309948519" lon="9.110980712163748"><ele>764.6666666666666</ele><time>2026-03-27T11:38:54.999Z</time></trkpt><trkpt lat="40.58168016940343" lon="9.110880108745558"><ele>765.0</ele><time>2026-03-27T11:38:55.999Z</time></trkpt><trkpt lat="40.58161905787126" lon="9.110805146379832"><ele>765.3333333333334</ele><time>2026-03-27T11:38:56.999Z</time></trkpt><trkpt lat="40.58155678765871" lon="9.110728612990403"><ele>765.6666666666667</ele><time>2026-03-27T11:38:57.999Z</time></trkpt><trkpt lat="40.58151510458983" lon="9.11064170439789"><ele>766.0</ele><time>2026-03-27T11:38:58.999Z</time></trkpt><trkpt lat="40.58146890613451" lon="9.110578004391646"><ele>766.8333333333334</ele><time>2026-03-27T11:38:59.999Z</time></trkpt><trkpt lat="40.581424703489944" lon="9.110517412158636"><ele>767.6666666666667</ele><time>2026-03-27T11:39:00.999Z</time></trkpt><trkpt lat="40.58137721050793" lon="9.110452338144775"><ele>768.5</ele><time>2026-03-27T11:39:01.999Z</time></trkpt><trkpt lat="40.58126759246123" lon="9.110355161531594"><ele>769.3333333333334</ele><time>2026-03-27T11:39:03.999Z</time></trkpt><trkpt lat="40.58121724649689" lon="9.110290814078311"><ele>770.1666666666666</ele><time>2026-03-27T11:39:04.999Z</time></trkpt><trkpt lat="40.58116707282178" lon="9.110219346556905"><ele>771.0</ele><time>2026-03-27T11:39:05.999Z</time></trkpt><trkpt lat="40.581117091558255" lon="9.110146092590396"><ele>771.0</ele><time>2026-03-27T11:39:06.999Z</time></trkpt><trkpt lat="40.58107038730827" lon="9.110079650757951"><ele>771.0</ele><time>2026-03-27T11:39:07.999Z</time></trkpt><trkpt lat="40.58099651507572" lon="9.109971341361703"><ele>771.0</ele><time>2026-03-27T11:39:09.999Z</time></trkpt><trkpt lat="40.5809380562326" lon="9.10985994709811"><ele>771.0</ele><time>2026-03-27T11:39:11.999Z</time></trkpt><trkpt lat="40.58085795041031" lon="9.109771539862594"><ele>771.0</ele><time>2026-03-27T11:39:13.999Z</time></trkpt><trkpt lat="40.58077485002658" lon="9.109671364784127"><ele>772.8333333333334</ele><time>2026-03-27T11:39:15.999Z</time></trkpt><trkpt lat="40.580691322643496" lon="9.10962845420293"><ele>774.6666666666667</ele><time>2026-03-27T11:39:18.999Z</time></trkpt><trkpt lat="40.580609000230474" lon="9.109596290590366"><ele>776.5</ele><time>2026-03-27T11:39:22.999Z</time></trkpt><trkpt lat="40.580538796555395" lon="9.10958761333443"><ele>778.3333333333334</ele><time>2026-03-27T11:39:24.999Z</time></trkpt><trkpt lat="40.58044909528243" lon="9.109573231718574"><ele>780.1666666666667</ele><time>2026-03-27T11:39:26.999Z</time></trkpt><trkpt lat="40.5803457967033" lon="9.10959908644816"><ele>782.0</ele><time>2026-03-27T11:39:28.999Z</time></trkpt><trkpt lat="40.58026262027982" lon="9.1096037618868"><ele>782.0000000000001</ele><time>2026-03-27T11:39:30.999Z</time></trkpt><trkpt lat="40.580329784795154" lon="9.109587409905725"><ele>782.0</ele><time>2026-03-27T11:39:37.999Z</time></trkpt><trkpt lat="40.58040443197415" lon="9.109566398165397"><ele>782.0</ele><time>2026-03-27T11:39:39.998Z</time></trkpt><trkpt lat="40.58048024072574" lon="9.109566282330473"><ele>782.0</ele><time>2026-03-27T11:39:43Z</time></trkpt><trkpt lat="40.5805538483141" lon="9.1096489692413"><ele>782.0000000000001</ele><time>2026-03-27T11:40:50.999Z</time></trkpt><trkpt lat="40.58061441182304" lon="9.109680943649543"><ele>782.0</ele><time>2026-03-27T11:41:11.999Z</time></trkpt><trkpt lat="40.58069083002117" lon="9.109698627142278"><ele>782.4285714285713</ele><time>2026-03-27T11:41:18.999Z</time></trkpt><trkpt lat="40.58074955933307" lon="9.109731671899336"><ele>782.8571428571429</ele><time>2026-03-27T11:41:22.999Z</time></trkpt><trkpt lat="40.58079552879531" lon="9.109789227432332"><ele>783.2857142857142</ele><time>2026-03-27T11:41:28.999Z</time></trkpt><trkpt lat="40.58084958740001" lon="9.109840245248659"><ele>783.7142857142857</ele><time>2026-03-27T11:41:36.999Z</time></trkpt><trkpt lat="40.58088179388343" lon="9.10992304124313"><ele>784.1428571428571</ele><time>2026-03-27T11:41:43.998Z</time></trkpt><trkpt lat="40.580925148172206" lon="9.1099882127436"><ele>784.5714285714286</ele><time>2026-03-27T11:41:52Z</time></trkpt><trkpt lat="40.58097647845336" lon="9.110039659752704"><ele>785.0</ele><time>2026-03-27T11:42:02Z</time></trkpt><trkpt lat="40.58102594554629" lon="9.110102939389213"><ele>785.0</ele><time>2026-03-27T11:42:16Z</time></trkpt><trkpt lat="40.581089366642566" lon="9.110045176833678"><ele>785.0</ele><time>2026-03-27T11:43:01.999Z</time></trkpt><trkpt lat="40.58102937983698" lon="9.110016865801073"><ele>785.0</ele><time>2026-03-27T11:43:08.999Z</time></trkpt><trkpt lat="40.58096273281346" lon="9.109989300301992"><ele>785.0</ele><time>2026-03-27T11:43:15.999Z</time></trkpt><trkpt lat="40.58102519000792" lon="9.109915121357812"><ele>785.0</ele><time>2026-03-27T11:43:21.999Z</time></trkpt><trkpt lat="40.58104367709375" lon="9.110004115173881"><ele>785.0</ele><time>2026-03-27T11:43:40.999Z</time></trkpt><trkpt lat="40.58101372326569" lon="9.109916063328477"><ele>785.0</ele><time>2026-03-27T11:44:33Z</time></trkpt><trkpt lat="40.58095858211107" lon="9.109858925652468"><ele>785.0</ele><time>2026-03-27T11:44:42Z</time></trkpt><trkpt lat="40.58088655196932" lon="9.109837141010217"><ele>785.0</ele><time>2026-03-27T11:44:46.999Z</time></trkpt><trkpt lat="40.580805189460165" lon="9.10981803549563"><ele>785.0</ele><time>2026-03-27T11:44:51.999Z</time></trkpt><trkpt lat="40.5807386618989" lon="9.109804790610138"><ele>785.0</ele><time>2026-03-27T11:46:17Z</time></trkpt><trkpt lat="40.58067959641726" lon="9.109752094340786"><ele>785.0</ele><time>2026-03-27T11:46:26Z</time></trkpt><trkpt lat="40.580613478530466" lon="9.109705667339195"><ele>785.0</ele><time>2026-03-27T11:46:34Z</time></trkpt><trkpt lat="40.58057402168818" lon="9.109782592812708"><ele>785.0</ele><time>2026-03-27T11:46:49Z</time></trkpt><trkpt lat="40.580455343356036" lon="9.109681275097188"><ele>785.0</ele><time>2026-03-27T11:47:07.999Z</time></trkpt><trkpt lat="40.58047942405115" lon="9.109840976486009"><ele>785.0</ele><time>2026-03-27T11:47:26.066Z</time></trkpt><trkpt lat="40.580689036795434" lon="9.109750845061019"><ele>785.0</ele><time>2026-03-27T11:49:17.517Z</time></trkpt><trkpt lat="40.580788425450955" lon="9.11008346205451"><ele>785.0</ele><time>2026-03-27T11:54:33.52Z</time></trkpt><trkpt lat="40.58078385733758" lon="9.109728721364169"><ele>785.0</ele><time>2026-03-27T11:54:39.585Z</time></trkpt><trkpt lat="40.58063554198267" lon="9.109695978765592"><ele>785.0</ele><time>2026-03-27T11:54:45.918Z</time></trkpt><trkpt lat="40.580767670780645" lon="9.10973246845546"><ele>785.0</ele><time>2026-03-27T11:55:21.513Z</time></trkpt><trkpt lat="40.58077922855618" lon="9.109906774283193"><ele>785.0</ele><time>2026-03-27T11:55:27.52Z</time></trkpt><trkpt lat="40.580787893036145" lon="9.10970238171911"><ele>785.0</ele><time>2026-03-27T11:55:45.007Z</time></trkpt><trkpt lat="40.580661468845996" lon="9.10965223807947"><ele>785.0</ele><time>2026-03-27T11:55:51.52Z</time></trkpt><trkpt lat="40.58078834524024" lon="9.110083933295678"><ele>755.0</ele><time>2026-03-27T11:56:23.522Z</time></trkpt><trkpt lat="40.580837251360656" lon="9.110781827180425"><ele>785.0</ele><time>2026-03-27T11:56:41.513Z</time></trkpt><trkpt lat="40.58070010868797" lon="9.109740568011532"><ele>785.0</ele><time>2026-03-27T11:56:55.261Z</time></trkpt><trkpt lat="40.580534989666766" lon="9.109407917417691"><ele>785.0</ele><time>2026-03-27T11:57:37.987Z</time></trkpt><trkpt lat="40.58052292945217" lon="9.109603158499414"><ele>785.0000000000001</ele><time>2026-03-27T11:57:44Z</time></trkpt><trkpt lat="40.580452578799346" lon="9.109550139590327"><ele>785.0</ele><time>2026-03-27T11:58:17.999Z</time></trkpt><trkpt lat="40.580491386995" lon="9.109619612025096"><ele>785.0</ele><time>2026-03-27T11:59:57Z</time></trkpt><trkpt lat="40.58045185420858" lon="9.109543258097807"><ele>785.0</ele><time>2026-03-27T12:02:01Z</time></trkpt><trkpt lat="40.580354044616854" lon="9.10957398058114"><ele>785.0000000000001</ele><time>2026-03-27T12:02:03Z</time></trkpt><trkpt lat="40.5802920099816" lon="9.109596243136707"><ele>785.0</ele><time>2026-03-27T12:02:04Z</time></trkpt><trkpt lat="40.58017191900282" lon="9.109645299915469"><ele>784.4</ele><time>2026-03-27T12:02:06Z</time></trkpt><trkpt lat="40.58002955352913" lon="9.109686380561012"><ele>783.8</ele><time>2026-03-27T12:02:08Z</time></trkpt><trkpt lat="40.57994319802727" lon="9.109682001699207"><ele>783.2</ele><time>2026-03-27T12:02:09Z</time></trkpt><trkpt lat="40.579859914008004" lon="9.109666549188246"><ele>782.6</ele><time>2026-03-27T12:02:10Z</time></trkpt><trkpt lat="40.57977361195138" lon="9.109644026254658"><ele>782.0</ele><time>2026-03-27T12:02:11Z</time></trkpt><trkpt lat="40.579640050115195" lon="9.109594307416458"><ele>782.0</ele><time>2026-03-27T12:02:12Z</time></trkpt><trkpt lat="40.57958706089582" lon="9.10952759756393"><ele>782.0</ele><time>2026-03-27T12:02:13Z</time></trkpt><trkpt lat="40.57955096303965" lon="9.10943342487417"><ele>782.0</ele><time>2026-03-27T12:02:14Z</time></trkpt><trkpt lat="40.57951842513163" lon="9.10931714998223"><ele>782.0</ele><time>2026-03-27T12:02:15Z</time></trkpt><trkpt lat="40.579496290386714" lon="9.109173308580166"><ele>782.0</ele><time>2026-03-27T12:02:15.999Z</time></trkpt><trkpt lat="40.579460742070005" lon="9.10902713412486"><ele>779.25</ele><time>2026-03-27T12:02:16.999Z</time></trkpt><trkpt lat="40.57943279983354" lon="9.108876669948645"><ele>776.5</ele><time>2026-03-27T12:02:17.999Z</time></trkpt><trkpt lat="40.579406378690386" lon="9.108714625572189"><ele>773.75</ele><time>2026-03-27T12:02:18.999Z</time></trkpt><trkpt lat="40.57937338405944" lon="9.108550630012545"><ele>771.0</ele><time>2026-03-27T12:02:19.999Z</time></trkpt><trkpt lat="40.57933180967067" lon="9.108386832192203"><ele>775.0</ele><time>2026-03-27T12:02:20.999Z</time></trkpt><trkpt lat="40.579278290027695" lon="9.108224173425086"><ele>779.0</ele><time>2026-03-27T12:02:21.999Z</time></trkpt><trkpt lat="40.57921817410641" lon="9.108058462215718"><ele>783.0</ele><time>2026-03-27T12:02:22.999Z</time></trkpt><trkpt lat="40.5791511098214" lon="9.107890276181307"><ele>787.0</ele><time>2026-03-27T12:02:23.999Z</time></trkpt><trkpt lat="40.57907680332323" lon="9.1077214572614"><ele>787.0</ele><time>2026-03-27T12:02:24.999Z</time></trkpt><trkpt lat="40.57899493633608" lon="9.107551023822401"><ele>787.0</ele><time>2026-03-27T12:02:25.999Z</time></trkpt><trkpt lat="40.578909004961446" lon="9.107378332549475"><ele>787.0</ele><time>2026-03-27T12:02:26.999Z</time></trkpt><trkpt lat="40.5788149371758" lon="9.107210047744584"><ele>784.6666666666666</ele><time>2026-03-27T12:02:27.999Z</time></trkpt><trkpt lat="40.57870679247203" lon="9.107051982802338"><ele>782.3333333333333</ele><time>2026-03-27T12:02:28.999Z</time></trkpt><trkpt lat="40.57857921642651" lon="9.10691684084168"><ele>780.0</ele><time>2026-03-27T12:02:29.999Z</time></trkpt><trkpt lat="40.578440711058256" lon="9.106796183591891"><ele>780.0</ele><time>2026-03-27T12:02:30.999Z</time></trkpt><trkpt lat="40.578294472485034" lon="9.106665644644776"><ele>780.0</ele><time>2026-03-27T12:02:31.999Z</time></trkpt><trkpt lat="40.578158378938085" lon="9.106502209191653"><ele>780.0</ele><time>2026-03-27T12:02:32.999Z</time></trkpt><trkpt lat="40.57803648514642" lon="9.10631290113898"><ele>777.0</ele><time>2026-03-27T12:02:33.999Z</time></trkpt><trkpt lat="40.5778981156354" lon="9.106139612747514"><ele>774.0</ele><time>2026-03-27T12:02:34.999Z</time></trkpt><trkpt lat="40.57773833296521" lon="9.105993297137777"><ele>771.0</ele><time>2026-03-27T12:02:35.999Z</time></trkpt><trkpt lat="40.5775730316124" lon="9.10585099936691"><ele>778.6666666666667</ele><time>2026-03-27T12:02:36.999Z</time></trkpt><trkpt lat="40.577410443809626" lon="9.105694680516276"><ele>786.3333333333334</ele><time>2026-03-27T12:02:37.999Z</time></trkpt><trkpt lat="40.5772498769007" lon="9.105517966420384"><ele>794.0</ele><time>2026-03-27T12:02:38.999Z</time></trkpt><trkpt lat="40.577092638865516" lon="9.105321404923949"><ele>786.0</ele><time>2026-03-27T12:02:39.999Z</time></trkpt><trkpt lat="40.576952720500756" lon="9.105126922665791"><ele>778.0</ele><time>2026-03-27T12:02:40.999Z</time></trkpt><trkpt lat="40.57682901543601" lon="9.104929553731353"><ele>770.0</ele><time>2026-03-27T12:02:41.999Z</time></trkpt><trkpt lat="40.576730225059265" lon="9.104737828575653"><ele>770.0</ele><time>2026-03-27T12:02:42.999Z</time></trkpt><trkpt lat="40.576646786211896" lon="9.104538603380984"><ele>770.0</ele><time>2026-03-27T12:02:43.999Z</time></trkpt><trkpt lat="40.57659043053938" lon="9.104343522598107"><ele>770.0</ele><time>2026-03-27T12:02:44.999Z</time></trkpt><trkpt lat="40.57656547828779" lon="9.104144000007285"><ele>769.3333333333334</ele><time>2026-03-27T12:02:45.999Z</time></trkpt><trkpt lat="40.5765808451333" lon="9.103923924853841"><ele>768.6666666666667</ele><time>2026-03-27T12:02:46.999Z</time></trkpt><trkpt lat="40.57662345624419" lon="9.103695465661106"><ele>768.0</ele><time>2026-03-27T12:02:47.999Z</time></trkpt><trkpt lat="40.57667000378975" lon="9.10346536496549"><ele>769.3333333333333</ele><time>2026-03-27T12:02:48.999Z</time></trkpt><trkpt lat="40.57668396634583" lon="9.103240346532461"><ele>770.6666666666666</ele><time>2026-03-27T12:02:49.999Z</time></trkpt><trkpt lat="40.57664510975373" lon="9.103026973705381"><ele>772.0</ele><time>2026-03-27T12:02:50.999Z</time></trkpt><trkpt lat="40.57656191652697" lon="9.102812704288437"><ele>772.0</ele><time>2026-03-27T12:02:51.999Z</time></trkpt><trkpt lat="40.57646156856113" lon="9.102601324498636"><ele>772.0</ele><time>2026-03-27T12:02:52.999Z</time></trkpt><trkpt lat="40.57635945013487" lon="9.102378212968208"><ele>772.0</ele><time>2026-03-27T12:02:53.999Z</time></trkpt><trkpt lat="40.57626239606786" lon="9.102157623759908"><ele>770.5</ele><time>2026-03-27T12:02:54.999Z</time></trkpt><trkpt lat="40.576174781186445" lon="9.101956389076594"><ele>769.0</ele><time>2026-03-27T12:02:55.999Z</time></trkpt><trkpt lat="40.57610287590245" lon="9.101783354362668"><ele>767.5</ele><time>2026-03-27T12:02:56.999Z</time></trkpt><trkpt lat="40.576048492659325" lon="9.101638332019146"><ele>766.0</ele><time>2026-03-27T12:02:57.999Z</time></trkpt><trkpt lat="40.576017251592326" lon="9.101541917187555"><ele>766.0</ele><time>2026-03-27T12:02:58.999Z</time></trkpt><trkpt lat="40.575997523317575" lon="9.101456712150028"><ele>766.0</ele><time>2026-03-27T12:03:00.999Z</time></trkpt><trkpt lat="40.57597016793663" lon="9.101374549287671"><ele>766.0</ele><time>2026-03-27T12:03:03.999Z</time></trkpt><trkpt lat="40.57593786197999" lon="9.101250918183014"><ele>766.0</ele><time>2026-03-27T12:04:47Z</time></trkpt><trkpt lat="40.57586874011991" lon="9.101147080208465"><ele>766.0</ele><time>2026-03-27T12:04:49Z</time></trkpt><trkpt lat="40.57582798397692" lon="9.10106696752345"><ele>766.0</ele><time>2026-03-27T12:04:50Z</time></trkpt><trkpt lat="40.57574698234185" lon="9.100908755684422"><ele>766.0</ele><time>2026-03-27T12:04:52Z</time></trkpt><trkpt lat="40.57569888844596" lon="9.100809497463034"><ele>766.0</ele><time>2026-03-27T12:04:53Z</time></trkpt><trkpt lat="40.57565371968113" lon="9.100693206702125"><ele>766.0</ele><time>2026-03-27T12:04:54Z</time></trkpt><trkpt lat="40.57559785397882" lon="9.100553410399524"><ele>766.0</ele><time>2026-03-27T12:04:55Z</time></trkpt><trkpt lat="40.5755267971289" lon="9.100380631721297"><ele>766.25</ele><time>2026-03-27T12:04:56Z</time></trkpt><trkpt lat="40.57545933910036" lon="9.100211130444539"><ele>766.5</ele><time>2026-03-27T12:04:57Z</time></trkpt><trkpt lat="40.57543753328522" lon="9.100046927767215"><ele>766.75</ele><time>2026-03-27T12:04:58Z</time></trkpt><trkpt lat="40.57543422887755" lon="9.099867611040871"><ele>767.0</ele><time>2026-03-27T12:04:59Z</time></trkpt><trkpt lat="40.5754693897151" lon="9.099693104162974"><ele>766.0</ele><time>2026-03-27T12:05:00Z</time></trkpt><trkpt lat="40.57554767512501" lon="9.099552363206834"><ele>765.0</ele><time>2026-03-27T12:05:01Z</time></trkpt><trkpt lat="40.575649075209" lon="9.099392488710594"><ele>764.0</ele><time>2026-03-27T12:05:02Z</time></trkpt><trkpt lat="40.57571726035164" lon="9.099200540774799"><ele>761.6666666666666</ele><time>2026-03-27T12:05:03Z</time></trkpt><trkpt lat="40.575785258759545" lon="9.099016058058377"><ele>759.3333333333334</ele><time>2026-03-27T12:05:04Z</time></trkpt><trkpt lat="40.57578512433881" lon="9.098792551026909"><ele>757.0</ele><time>2026-03-27T12:05:05Z</time></trkpt><trkpt lat="40.57577669867399" lon="9.0985687774466"><ele>757.0</ele><time>2026-03-27T12:05:06Z</time></trkpt><trkpt lat="40.57577255330821" lon="9.098339362405314"><ele>757.0</ele><time>2026-03-27T12:05:07Z</time></trkpt><trkpt lat="40.57577288751392" lon="9.09811215416196"><ele>757.0</ele><time>2026-03-27T12:05:07.999Z</time></trkpt><trkpt lat="40.57576097030913" lon="9.097892913465062"><ele>758.6666666666667</ele><time>2026-03-27T12:05:08.999Z</time></trkpt><trkpt lat="40.57569679254142" lon="9.097673671128467"><ele>760.3333333333334</ele><time>2026-03-27T12:05:09.999Z</time></trkpt><trkpt lat="40.57558576126867" lon="9.097475330268804"><ele>762.0</ele><time>2026-03-27T12:05:10.999Z</time></trkpt><trkpt lat="40.575438319983554" lon="9.09730792263107"><ele>760.0</ele><time>2026-03-27T12:05:11.999Z</time></trkpt><trkpt lat="40.575263988957566" lon="9.09716700464533"><ele>758.0</ele><time>2026-03-27T12:05:12.999Z</time></trkpt><trkpt lat="40.575092139470435" lon="9.097049133073025"><ele>756.0</ele><time>2026-03-27T12:05:13.999Z</time></trkpt><trkpt lat="40.57496310633137" lon="9.096930197108415"><ele>756.0</ele><time>2026-03-27T12:05:14.999Z</time></trkpt><trkpt lat="40.57486850974162" lon="9.096810706119951"><ele>756.0</ele><time>2026-03-27T12:05:15.999Z</time></trkpt><trkpt lat="40.574840135410724" lon="9.096620471627997"><ele>756.0</ele><time>2026-03-27T12:05:16.999Z</time></trkpt><trkpt lat="40.57483124140239" lon="9.096415826535754"><ele>756.0</ele><time>2026-03-27T12:05:17.999Z</time></trkpt><trkpt lat="40.574828535975286" lon="9.096191764386148"><ele>757.6666666666666</ele><time>2026-03-27T12:05:18.999Z</time></trkpt><trkpt lat="40.57482570208368" lon="9.09595764625627"><ele>759.3333333333333</ele><time>2026-03-27T12:05:19.999Z</time></trkpt><trkpt lat="40.57481082815764" lon="9.09571378385343"><ele>761.0</ele><time>2026-03-27T12:05:20.999Z</time></trkpt><trkpt lat="40.574816371565035" lon="9.095463907752453"><ele>761.6666666666666</ele><time>2026-03-27T12:05:21.999Z</time></trkpt><trkpt lat="40.57480906583617" lon="9.095221377217866"><ele>762.3333333333334</ele><time>2026-03-27T12:05:22.999Z</time></trkpt><trkpt lat="40.574777222573914" lon="9.094983920344507"><ele>763.0</ele><time>2026-03-27T12:05:23.999Z</time></trkpt><trkpt lat="40.574712899596285" lon="9.094747862926315"><ele>764.6666666666667</ele><time>2026-03-27T12:05:24.999Z</time></trkpt><trkpt lat="40.57462226325314" lon="9.094524472641016"><ele>766.3333333333334</ele><time>2026-03-27T12:05:25.999Z</time></trkpt><trkpt lat="40.574525457254275" lon="9.094320966367286"><ele>768.0</ele><time>2026-03-27T12:05:26.999Z</time></trkpt><trkpt lat="40.57442722601341" lon="9.094122646639457"><ele>760.6666666666666</ele><time>2026-03-27T12:05:27.999Z</time></trkpt><trkpt lat="40.574342528541955" lon="9.093935958174866"><ele>753.3333333333333</ele><time>2026-03-27T12:05:28.999Z</time></trkpt><trkpt lat="40.57428319395067" lon="9.093759844233018"><ele>746.0</ele><time>2026-03-27T12:05:29.999Z</time></trkpt><trkpt lat="40.574298457828625" lon="9.093575318478726"><ele>746.0</ele><time>2026-03-27T12:05:30.999Z</time></trkpt><trkpt lat="40.57434017146385" lon="9.093388971132182"><ele>746.0</ele><time>2026-03-27T12:05:31.999Z</time></trkpt><trkpt lat="40.57441437698658" lon="9.093216829628947"><ele>746.0</ele><time>2026-03-27T12:05:32.999Z</time></trkpt><trkpt lat="40.5744744312119" lon="9.09303793270543"><ele>746.0</ele><time>2026-03-27T12:05:33.999Z</time></trkpt><trkpt lat="40.57453279154438" lon="9.092893397175029"><ele>746.5</ele><time>2026-03-27T12:05:34.999Z</time></trkpt><trkpt lat="40.57454071239216" lon="9.092734897462568"><ele>747.0</ele><time>2026-03-27T12:05:35.999Z</time></trkpt><trkpt lat="40.57449514357542" lon="9.092574136179751"><ele>747.5</ele><time>2026-03-27T12:05:36.999Z</time></trkpt><trkpt lat="40.57441874861412" lon="9.092419793409071"><ele>748.0</ele><time>2026-03-27T12:05:37.999Z</time></trkpt><trkpt lat="40.57433866904272" lon="9.092254577640803"><ele>748.0</ele><time>2026-03-27T12:05:38.999Z</time></trkpt><trkpt lat="40.57428513357938" lon="9.092067666305786"><ele>748.0</ele><time>2026-03-27T12:05:39.999Z</time></trkpt><trkpt lat="40.574252207830575" lon="9.091851773309543"><ele>748.0</ele><time>2026-03-27T12:05:40.999Z</time></trkpt><trkpt lat="40.5742148941508" lon="9.091633211541907"><ele>751.6666666666667</ele><time>2026-03-27T12:05:41.999Z</time></trkpt><trkpt lat="40.57414880724821" lon="9.091416523796152"><ele>755.3333333333334</ele><time>2026-03-27T12:05:42.999Z</time></trkpt><trkpt lat="40.57404539196715" lon="9.091216362490309"><ele>759.0</ele><time>2026-03-27T12:05:43.999Z</time></trkpt><trkpt lat="40.57390743909286" lon="9.091035830774645"><ele>759.0</ele><time>2026-03-27T12:05:44.999Z</time></trkpt><trkpt lat="40.57374751878235" lon="9.09089129487956"><ele>759.0</ele><time>2026-03-27T12:05:45.999Z</time></trkpt><trkpt lat="40.57357797083047" lon="9.090782868154003"><ele>759.0</ele><time>2026-03-27T12:05:46.999Z</time></trkpt><trkpt lat="40.57342186222241" lon="9.09068699824145"><ele>756.6666666666666</ele><time>2026-03-27T12:05:47.999Z</time></trkpt><trkpt lat="40.57328597235904" lon="9.090565812966672"><ele>754.3333333333333</ele><time>2026-03-27T12:05:48.999Z</time></trkpt><trkpt lat="40.573154344868136" lon="9.090447751426598"><ele>752.0</ele><time>2026-03-27T12:05:49.999Z</time></trkpt><trkpt lat="40.57304293977108" lon="9.090294379922389"><ele>752.0</ele><time>2026-03-27T12:05:50.999Z</time></trkpt><trkpt lat="40.57295379896923" lon="9.090115235231329"><ele>752.0</ele><time>2026-03-27T12:05:51.999Z</time></trkpt><trkpt lat="40.57289193015544" lon="9.089932509910735"><ele>752.0</ele><time>2026-03-27T12:05:52.999Z</time></trkpt><trkpt lat="40.57282053809324" lon="9.089774450530394"><ele>751.5</ele><time>2026-03-27T12:05:53.999Z</time></trkpt><trkpt lat="40.57273123220223" lon="9.089638979130003"><ele>751.0</ele><time>2026-03-27T12:05:54.999Z</time></trkpt><trkpt lat="40.572601573367606" lon="9.089550087860403"><ele>750.5</ele><time>2026-03-27T12:05:55.999Z</time></trkpt><trkpt lat="40.57245074523985" lon="9.089528167372777"><ele>750.0</ele><time>2026-03-27T12:05:56.999Z</time></trkpt><trkpt lat="40.572299220727565" lon="9.089584592676351"><ele>750.0</ele><time>2026-03-27T12:05:57.999Z</time></trkpt><trkpt lat="40.572162021438366" lon="9.089696952205223"><ele>750.0</ele><time>2026-03-27T12:05:58.999Z</time></trkpt><trkpt lat="40.57203259046861" lon="9.089821683809133"><ele>750.0</ele><time>2026-03-27T12:05:59.998Z</time></trkpt><trkpt lat="40.571899583394796" lon="9.089932699650262"><ele>744.0</ele><time>2026-03-27T12:06:00.998Z</time></trkpt><trkpt lat="40.57176329127817" lon="9.090001445906097"><ele>738.0</ele><time>2026-03-27T12:06:01.998Z</time></trkpt><trkpt lat="40.57159304454398" lon="9.089996171611926"><ele>732.0</ele><time>2026-03-27T12:06:02.998Z</time></trkpt><trkpt lat="40.57142586906079" lon="9.089958192976143"><ele>732.0</ele><time>2026-03-27T12:06:03.998Z</time></trkpt><trkpt lat="40.571263398046035" lon="9.089913920929948"><ele>732.0</ele><time>2026-03-27T12:06:04.998Z</time></trkpt><trkpt lat="40.57109773094519" lon="9.089884645245306"><ele>732.0</ele><time>2026-03-27T12:06:06.001Z</time></trkpt><trkpt lat="40.57093650551374" lon="9.089823823070518"><ele>732.0</ele><time>2026-03-27T12:06:07.001Z</time></trkpt><trkpt lat="40.57078908702227" lon="9.089729265157114"><ele>732.0</ele><time>2026-03-27T12:06:08.001Z</time></trkpt><trkpt lat="40.570667307285966" lon="9.089585343332198"><ele>732.0</ele><time>2026-03-27T12:06:09.001Z</time></trkpt><trkpt lat="40.57058124047492" lon="9.089401787015953"><ele>732.0</ele><time>2026-03-27T12:06:10.001Z</time></trkpt><trkpt lat="40.5705041617403" lon="9.089224535216207"><ele>732.0</ele><time>2026-03-27T12:06:11.001Z</time></trkpt><trkpt lat="40.57047010829577" lon="9.089046386507778"><ele>732.0</ele><time>2026-03-27T12:06:12.001Z</time></trkpt><trkpt lat="40.57049081089757" lon="9.088901134956796"><ele>732.0</ele><time>2026-03-27T12:06:13.001Z</time></trkpt><trkpt lat="40.57054317765173" lon="9.08876805750796"><ele>732.0</ele><time>2026-03-27T12:06:14Z</time></trkpt><trkpt lat="40.570603423084144" lon="9.088602058512715"><ele>732.0</ele><time>2026-03-27T12:06:15.001Z</time></trkpt><trkpt lat="40.57062805367764" lon="9.088442513119256"><ele>732.0</ele><time>2026-03-27T12:06:16.001Z</time></trkpt><trkpt lat="40.570594796577204" lon="9.088283302404772"><ele>732.0</ele><time>2026-03-27T12:06:17Z</time></trkpt><trkpt lat="40.57050312421512" lon="9.088153255439767"><ele>733.25</ele><time>2026-03-27T12:06:18Z</time></trkpt><trkpt lat="40.57038516058119" lon="9.088045852039007"><ele>734.5</ele><time>2026-03-27T12:06:19.001Z</time></trkpt><trkpt lat="40.57025973281112" lon="9.087947982461587"><ele>735.75</ele><time>2026-03-27T12:06:20Z</time></trkpt><trkpt lat="40.570139508129046" lon="9.087821831558571"><ele>737.0</ele><time>2026-03-27T12:06:21Z</time></trkpt><trkpt lat="40.57001401630902" lon="9.08769732661173"><ele>735.6666666666666</ele><time>2026-03-27T12:06:22Z</time></trkpt><trkpt lat="40.56988868765432" lon="9.087567176373126"><ele>734.3333333333334</ele><time>2026-03-27T12:06:23Z</time></trkpt><trkpt lat="40.56977293125748" lon="9.087435432613404"><ele>733.0</ele><time>2026-03-27T12:06:24Z</time></trkpt><trkpt lat="40.56966580140678" lon="9.087302743744488"><ele>733.0</ele><time>2026-03-27T12:06:25Z</time></trkpt><trkpt lat="40.56956859022296" lon="9.08716343726121"><ele>733.0</ele><time>2026-03-27T12:06:26Z</time></trkpt><trkpt lat="40.56947898431786" lon="9.087019969430067"><ele>733.0</ele><time>2026-03-27T12:06:27Z</time></trkpt><trkpt lat="40.56938619135147" lon="9.08688467074471"><ele>733.0</ele><time>2026-03-27T12:06:28Z</time></trkpt><trkpt lat="40.569287078544406" lon="9.086760540320324"><ele>731.25</ele><time>2026-03-27T12:06:29Z</time></trkpt><trkpt lat="40.56917172203493" lon="9.086652099817776"><ele>729.5</ele><time>2026-03-27T12:06:30Z</time></trkpt><trkpt lat="40.569038030716314" lon="9.08656474353151"><ele>727.75</ele><time>2026-03-27T12:06:31Z</time></trkpt><trkpt lat="40.56889554313029" lon="9.086498681872033"><ele>726.0</ele><time>2026-03-27T12:06:32Z</time></trkpt><trkpt lat="40.568749212724235" lon="9.086436230602352"><ele>721.0</ele><time>2026-03-27T12:06:33Z</time></trkpt><trkpt lat="40.568611170011145" lon="9.086364068020853"><ele>716.0</ele><time>2026-03-27T12:06:34Z</time></trkpt><trkpt lat="40.568524574481124" lon="9.086223532553802"><ele>711.0</ele><time>2026-03-27T12:06:35Z</time></trkpt><trkpt lat="40.568488979194285" lon="9.086057560975018"><ele>706.0</ele><time>2026-03-27T12:06:36Z</time></trkpt><trkpt lat="40.56844915109133" lon="9.085868216000472"><ele>707.0</ele><time>2026-03-27T12:06:37Z</time></trkpt><trkpt lat="40.568406238549436" lon="9.08566448951049"><ele>708.0</ele><time>2026-03-27T12:06:38Z</time></trkpt><trkpt lat="40.568362959229766" lon="9.085457046740334"><ele>709.0</ele><time>2026-03-27T12:06:39Z</time></trkpt><trkpt lat="40.56831599473955" lon="9.08523194020227"><ele>709.0</ele><time>2026-03-27T12:06:40Z</time></trkpt><trkpt lat="40.568252228298725" lon="9.085005651656134"><ele>709.0</ele><time>2026-03-27T12:06:41Z</time></trkpt><trkpt lat="40.56821204224352" lon="9.084777624449776"><ele>709.0</ele><time>2026-03-27T12:06:42Z</time></trkpt><trkpt lat="40.568173328379174" lon="9.084576288980372"><ele>709.75</ele><time>2026-03-27T12:06:43Z</time></trkpt><trkpt lat="40.56813205917525" lon="9.084409391733722"><ele>710.5</ele><time>2026-03-27T12:06:44Z</time></trkpt><trkpt lat="40.56806988345869" lon="9.084278679787404"><ele>711.25</ele><time>2026-03-27T12:06:45Z</time></trkpt><trkpt lat="40.5679573532838" lon="9.084182252678815"><ele>712.0</ele><time>2026-03-27T12:06:46Z</time></trkpt><trkpt lat="40.56782686119586" lon="9.084162502221327"><ele>711.5</ele><time>2026-03-27T12:06:47Z</time></trkpt><trkpt lat="40.56767979089012" lon="9.084188095591006"><ele>711.0</ele><time>2026-03-27T12:06:48Z</time></trkpt><trkpt lat="40.56753535296875" lon="9.08417412705908"><ele>710.5</ele><time>2026-03-27T12:06:49Z</time></trkpt><trkpt lat="40.56739589452861" lon="9.084085918965645"><ele>710.0</ele><time>2026-03-27T12:06:50Z</time></trkpt><trkpt lat="40.567229442647665" lon="9.0840246952526"><ele>710.0</ele><time>2026-03-27T12:06:51Z</time></trkpt><trkpt lat="40.56705278887354" lon="9.083960565650578"><ele>710.0</ele><time>2026-03-27T12:06:52Z</time></trkpt><trkpt lat="40.56687390176232" lon="9.083982381326942"><ele>710.0</ele><time>2026-03-27T12:06:53Z</time></trkpt><trkpt lat="40.56672098849857" lon="9.084038825560702"><ele>708.5</ele><time>2026-03-27T12:06:54Z</time></trkpt><trkpt lat="40.566588607898204" lon="9.084080221592565"><ele>707.0</ele><time>2026-03-27T12:06:55Z</time></trkpt><trkpt lat="40.566465416908514" lon="9.084035818567578"><ele>705.5</ele><time>2026-03-27T12:06:56Z</time></trkpt><trkpt lat="40.56637897702506" lon="9.08390554011486"><ele>704.0</ele><time>2026-03-27T12:06:57Z</time></trkpt><trkpt lat="40.56629439659181" lon="9.083773789456098"><ele>704.0</ele><time>2026-03-27T12:06:58Z</time></trkpt><trkpt lat="40.566211343193736" lon="9.083620800808573"><ele>704.0</ele><time>2026-03-27T12:06:59Z</time></trkpt><trkpt lat="40.56611953695384" lon="9.083453378225206"><ele>704.0</ele><time>2026-03-27T12:07:00Z</time></trkpt><trkpt lat="40.56601637578986" lon="9.083291984872103"><ele>703.0</ele><time>2026-03-27T12:07:01Z</time></trkpt><trkpt lat="40.565934941533634" lon="9.083129258294658"><ele>702.0</ele><time>2026-03-27T12:07:02Z</time></trkpt><trkpt lat="40.565830462541065" lon="9.08299819117955"><ele>701.0</ele><time>2026-03-27T12:07:03Z</time></trkpt><trkpt lat="40.56570326772654" lon="9.082918485929602"><ele>700.0</ele><time>2026-03-27T12:07:04Z</time></trkpt><trkpt lat="40.56555953058131" lon="9.082904598258931"><ele>700.0</ele><time>2026-03-27T12:07:05Z</time></trkpt><trkpt lat="40.565422765900436" lon="9.082903251080806"><ele>700.0</ele><time>2026-03-27T12:07:06Z</time></trkpt><trkpt lat="40.5652918154778" lon="9.083037535415682"><ele>700.0</ele><time>2026-03-27T12:07:07Z</time></trkpt><trkpt lat="40.56519510846983" lon="9.08320559976263"><ele>698.0</ele><time>2026-03-27T12:07:08Z</time></trkpt><trkpt lat="40.56509230333339" lon="9.083369314418707"><ele>696.0</ele><time>2026-03-27T12:07:09Z</time></trkpt><trkpt lat="40.564976304294504" lon="9.08353334775355"><ele>694.0</ele><time>2026-03-27T12:07:09.999Z</time></trkpt><trkpt lat="40.564850014310174" lon="9.083694106744039"><ele>694.0</ele><time>2026-03-27T12:07:10.999Z</time></trkpt><trkpt lat="40.564718363862475" lon="9.083865483005566"><ele>694.0</ele><time>2026-03-27T12:07:11.999Z</time></trkpt><trkpt lat="40.56458522643742" lon="9.08404454126246"><ele>694.0</ele><time>2026-03-27T12:07:12.999Z</time></trkpt><trkpt lat="40.56445751501341" lon="9.08418907239248"><ele>693.6666666666667</ele><time>2026-03-27T12:07:13.999Z</time></trkpt><trkpt lat="40.56434273081675" lon="9.084345208240205"><ele>693.3333333333334</ele><time>2026-03-27T12:07:14.999Z</time></trkpt><trkpt lat="40.56423091460295" lon="9.084469531194623"><ele>693.0</ele><time>2026-03-27T12:07:15.999Z</time></trkpt><trkpt lat="40.56410409186379" lon="9.084562353620036"><ele>693.0</ele><time>2026-03-27T12:07:16.999Z</time></trkpt><trkpt lat="40.56394862929479" lon="9.084614196217856"><ele>693.0</ele><time>2026-03-27T12:07:17.999Z</time></trkpt><trkpt lat="40.56378140541781" lon="9.08465182114685"><ele>693.0</ele><time>2026-03-27T12:07:18.999Z</time></trkpt><trkpt lat="40.56360720962963" lon="9.084672372441391"><ele>691.3333333333334</ele><time>2026-03-27T12:07:19.999Z</time></trkpt><trkpt lat="40.56344352742978" lon="9.084692674296234"><ele>689.6666666666667</ele><time>2026-03-27T12:07:20.999Z</time></trkpt><trkpt lat="40.56328901573373" lon="9.08470700171203"><ele>688.0</ele><time>2026-03-27T12:07:21.999Z</time></trkpt><trkpt lat="40.56313841426864" lon="9.084695603626077"><ele>688.0</ele><time>2026-03-27T12:07:22.999Z</time></trkpt><trkpt lat="40.56300361942852" lon="9.08462809404931"><ele>688.0</ele><time>2026-03-27T12:07:23.999Z</time></trkpt><trkpt lat="40.56287669289337" lon="9.084515299541021"><ele>688.0</ele><time>2026-03-27T12:07:24.999Z</time></trkpt><trkpt lat="40.56273736703667" lon="9.084397480471676"><ele>686.6666666666667</ele><time>2026-03-27T12:07:25.999Z</time></trkpt><trkpt lat="40.562598167909286" lon="9.0842732675742"><ele>685.3333333333334</ele><time>2026-03-27T12:07:26.999Z</time></trkpt><trkpt lat="40.56247098543575" lon="9.084154865497409"><ele>684.0</ele><time>2026-03-27T12:07:27.999Z</time></trkpt><trkpt lat="40.562362999446194" lon="9.084031067982073"><ele>684.0</ele><time>2026-03-27T12:07:28.999Z</time></trkpt><trkpt lat="40.5622663852267" lon="9.0838890089448"><ele>684.0</ele><time>2026-03-27T12:07:29.999Z</time></trkpt><trkpt lat="40.56219066559979" lon="9.083726077268688"><ele>684.0</ele><time>2026-03-27T12:07:30.999Z</time></trkpt><trkpt lat="40.56214002870267" lon="9.083534211112081"><ele>684.0</ele><time>2026-03-27T12:07:31.999Z</time></trkpt><trkpt lat="40.56207879022275" lon="9.083357656242143"><ele>684.3333333333334</ele><time>2026-03-27T12:07:32.999Z</time></trkpt><trkpt lat="40.562060656718764" lon="9.083153864030388"><ele>684.6666666666667</ele><time>2026-03-27T12:07:33.999Z</time></trkpt><trkpt lat="40.5620723809004" lon="9.082948467666094"><ele>685.0</ele><time>2026-03-27T12:07:34.999Z</time></trkpt><trkpt lat="40.562089488127356" lon="9.082743291587718"><ele>685.0</ele><time>2026-03-27T12:07:35.999Z</time></trkpt><trkpt lat="40.56210180614272" lon="9.082548550464416"><ele>685.0</ele><time>2026-03-27T12:07:36.999Z</time></trkpt><trkpt lat="40.56209679147255" lon="9.082352846282559"><ele>685.0</ele><time>2026-03-27T12:07:37.999Z</time></trkpt><trkpt lat="40.56207703081849" lon="9.082150577013703"><ele>684.6666666666667</ele><time>2026-03-27T12:07:38.999Z</time></trkpt><trkpt lat="40.56205129703511" lon="9.081947747675631"><ele>684.3333333333334</ele><time>2026-03-27T12:07:39.999Z</time></trkpt><trkpt lat="40.56202396507012" lon="9.081741434294777"><ele>684.0</ele><time>2026-03-27T12:07:40.999Z</time></trkpt><trkpt lat="40.56199713317365" lon="9.08153120322148"><ele>681.6666666666666</ele><time>2026-03-27T12:07:41.999Z</time></trkpt><trkpt lat="40.56196802227278" lon="9.081319306547773"><ele>679.3333333333333</ele><time>2026-03-27T12:07:42.999Z</time></trkpt><trkpt lat="40.56193536675361" lon="9.081105098515014"><ele>677.0</ele><time>2026-03-27T12:07:43.999Z</time></trkpt><trkpt lat="40.56190450029176" lon="9.08090673611603"><ele>677.0</ele><time>2026-03-27T12:07:44.999Z</time></trkpt><trkpt lat="40.56188264093584" lon="9.080705380466194"><ele>677.0</ele><time>2026-03-27T12:07:45.999Z</time></trkpt><trkpt lat="40.56188360915558" lon="9.08050040833058"><ele>677.0</ele><time>2026-03-27T12:07:46.999Z</time></trkpt><trkpt lat="40.561908212770156" lon="9.080292836699137"><ele>677.0</ele><time>2026-03-27T12:07:47.999Z</time></trkpt><trkpt lat="40.56195961930866" lon="9.080087789952874"><ele>677.0</ele><time>2026-03-27T12:07:48.999Z</time></trkpt><trkpt lat="40.56202364488487" lon="9.079881460956756"><ele>677.0</ele><time>2026-03-27T12:07:49.999Z</time></trkpt><trkpt lat="40.5620813686477" lon="9.079669418012564"><ele>676.0</ele><time>2026-03-27T12:07:50.999Z</time></trkpt><trkpt lat="40.56213604447596" lon="9.079453933709187"><ele>675.0</ele><time>2026-03-27T12:07:51.999Z</time></trkpt><trkpt lat="40.56219686273811" lon="9.079234088187143"><ele>674.0</ele><time>2026-03-27T12:07:52.999Z</time></trkpt><trkpt lat="40.56225495520273" lon="9.0790106774288"><ele>672.3333333333333</ele><time>2026-03-27T12:07:53.999Z</time></trkpt><trkpt lat="40.562307820183015" lon="9.078783399062637"><ele>670.6666666666666</ele><time>2026-03-27T12:07:54.999Z</time></trkpt><trkpt lat="40.562355841681914" lon="9.078553186301365"><ele>669.0</ele><time>2026-03-27T12:07:55.999Z</time></trkpt><trkpt lat="40.562399983513345" lon="9.078320005012506"><ele>668.3333333333334</ele><time>2026-03-27T12:07:56.999Z</time></trkpt><trkpt lat="40.56243878127494" lon="9.07808356110645"><ele>667.6666666666667</ele><time>2026-03-27T12:07:57.999Z</time></trkpt><trkpt lat="40.56247466193774" lon="9.077848865801139"><ele>667.0</ele><time>2026-03-27T12:07:58.999Z</time></trkpt><trkpt lat="40.56251360311178" lon="9.077618346483982"><ele>666.3333333333334</ele><time>2026-03-27T12:07:59.999Z</time></trkpt><trkpt lat="40.562553829540114" lon="9.077391168280304"><ele>665.6666666666666</ele><time>2026-03-27T12:08:00.998Z</time></trkpt><trkpt lat="40.56259148246931" lon="9.077166825762419"><ele>665.0</ele><time>2026-03-27T12:08:01.998Z</time></trkpt><trkpt lat="40.56262172723004" lon="9.07693500753572"><ele>665.0</ele><time>2026-03-27T12:08:02.998Z</time></trkpt><trkpt lat="40.562631181702756" lon="9.076696425748912"><ele>665.0</ele><time>2026-03-27T12:08:03.998Z</time></trkpt><trkpt lat="40.56261254694373" lon="9.076459423587007"><ele>665.0</ele><time>2026-03-27T12:08:04.998Z</time></trkpt><trkpt lat="40.562566614457126" lon="9.076228370720758"><ele>664.6666666666666</ele><time>2026-03-27T12:08:05.998Z</time></trkpt><trkpt lat="40.562493905574094" lon="9.076012241476553"><ele>664.3333333333334</ele><time>2026-03-27T12:08:06.998Z</time></trkpt><trkpt lat="40.56240181937026" lon="9.075804553193846"><ele>664.0</ele><time>2026-03-27T12:08:07.998Z</time></trkpt><trkpt lat="40.562300655105744" lon="9.075598130006615"><ele>664.0</ele><time>2026-03-27T12:08:08.998Z</time></trkpt><trkpt lat="40.56220326828253" lon="9.075391960538713"><ele>664.0</ele><time>2026-03-27T12:08:09.998Z</time></trkpt><trkpt lat="40.56210710652277" lon="9.075187229273446"><ele>664.0</ele><time>2026-03-27T12:08:11Z</time></trkpt><trkpt lat="40.56201070522135" lon="9.074983023281526"><ele>660.0</ele><time>2026-03-27T12:08:12Z</time></trkpt><trkpt lat="40.56191513376702" lon="9.074778741422913"><ele>656.0</ele><time>2026-03-27T12:08:13Z</time></trkpt><trkpt lat="40.56181687597805" lon="9.074570763785378"><ele>652.0</ele><time>2026-03-27T12:08:14Z</time></trkpt><trkpt lat="40.56172106230322" lon="9.07435972710876"><ele>652.0</ele><time>2026-03-27T12:08:15Z</time></trkpt><trkpt lat="40.561633394712686" lon="9.07414674732654"><ele>652.0</ele><time>2026-03-27T12:08:16Z</time></trkpt><trkpt lat="40.56155880938086" lon="9.073928588700854"><ele>652.0</ele><time>2026-03-27T12:08:17Z</time></trkpt><trkpt lat="40.5614928377639" lon="9.073708354385365"><ele>651.3333333333334</ele><time>2026-03-27T12:08:18Z</time></trkpt><trkpt lat="40.56142753592536" lon="9.073483827491385"><ele>650.6666666666666</ele><time>2026-03-27T12:08:19Z</time></trkpt><trkpt lat="40.561358175223866" lon="9.073257766863284"><ele>650.0</ele><time>2026-03-27T12:08:20Z</time></trkpt><trkpt lat="40.56129220223325" lon="9.073033311118856"><ele>651.3333333333333</ele><time>2026-03-27T12:08:21Z</time></trkpt><trkpt lat="40.5612244233434" lon="9.072811366189288"><ele>652.6666666666666</ele><time>2026-03-27T12:08:22Z</time></trkpt><trkpt lat="40.56114875433396" lon="9.072592578058272"><ele>654.0</ele><time>2026-03-27T12:08:23Z</time></trkpt><trkpt lat="40.56104944215328" lon="9.072387139489564"><ele>651.3333333333334</ele><time>2026-03-27T12:08:24Z</time></trkpt><trkpt lat="40.560929569211204" lon="9.072204744419457"><ele>648.6666666666667</ele><time>2026-03-27T12:08:25Z</time></trkpt><trkpt lat="40.56078983538013" lon="9.072048101730537"><ele>646.0</ele><time>2026-03-27T12:08:26Z</time></trkpt><trkpt lat="40.56064210613307" lon="9.071902127040627"><ele>646.0</ele><time>2026-03-27T12:08:27Z</time></trkpt><trkpt lat="40.560496107583326" lon="9.071759217371579"><ele>646.0</ele><time>2026-03-27T12:08:28Z</time></trkpt><trkpt lat="40.560358465272216" lon="9.071618443800237"><ele>646.0</ele><time>2026-03-27T12:08:29Z</time></trkpt><trkpt lat="40.56022563538024" lon="9.071482097928703"><ele>645.3333333333334</ele><time>2026-03-27T12:08:30Z</time></trkpt><trkpt lat="40.56008578670411" lon="9.07134192500093"><ele>644.6666666666666</ele><time>2026-03-27T12:08:31Z</time></trkpt><trkpt lat="40.559944396683605" lon="9.071203048799495"><ele>644.0</ele><time>2026-03-27T12:08:32Z</time></trkpt><trkpt lat="40.559799006815005" lon="9.071063857651358"><ele>644.0</ele><time>2026-03-27T12:08:33Z</time></trkpt><trkpt lat="40.559656694756065" lon="9.070918492579084"><ele>644.0</ele><time>2026-03-27T12:08:34Z</time></trkpt><trkpt lat="40.559521306874544" lon="9.070753748026782"><ele>644.0</ele><time>2026-03-27T12:08:35Z</time></trkpt><trkpt lat="40.55940066087004" lon="9.070573341201943"><ele>640.0</ele><time>2026-03-27T12:08:36Z</time></trkpt><trkpt lat="40.5593031038823" lon="9.070384408071513"><ele>636.0</ele><time>2026-03-27T12:08:37Z</time></trkpt><trkpt lat="40.55922154405306" lon="9.070186373750465"><ele>632.0</ele><time>2026-03-27T12:08:38Z</time></trkpt><trkpt lat="40.55915599859085" lon="9.06997582956541"><ele>632.6666666666666</ele><time>2026-03-27T12:08:39Z</time></trkpt><trkpt lat="40.559104584200384" lon="9.069757673988525"><ele>633.3333333333334</ele><time>2026-03-27T12:08:40Z</time></trkpt><trkpt lat="40.559062351565835" lon="9.069538900088329"><ele>634.0</ele><time>2026-03-27T12:08:41Z</time></trkpt><trkpt lat="40.55902074501568" lon="9.069334071801228"><ele>634.0</ele><time>2026-03-27T12:08:42Z</time></trkpt><trkpt lat="40.558974847250695" lon="9.069143272254367"><ele>634.0</ele><time>2026-03-27T12:08:43Z</time></trkpt><trkpt lat="40.55893377890545" lon="9.068962049935527"><ele>634.0</ele><time>2026-03-27T12:08:44Z</time></trkpt><trkpt lat="40.55890054133792" lon="9.068784576040542"><ele>634.0</ele><time>2026-03-27T12:08:45Z</time></trkpt><trkpt lat="40.5588678950513" lon="9.068593909456423"><ele>632.6666666666667</ele><time>2026-03-27T12:08:46Z</time></trkpt><trkpt lat="40.55883647282872" lon="9.068389883259668"><ele>631.3333333333334</ele><time>2026-03-27T12:08:47Z</time></trkpt><trkpt lat="40.55880815687221" lon="9.068192206295008"><ele>630.0</ele><time>2026-03-27T12:08:48Z</time></trkpt><trkpt lat="40.55877872419403" lon="9.068007201835844"><ele>627.5</ele><time>2026-03-27T12:08:49Z</time></trkpt><trkpt lat="40.55875180324229" lon="9.067830065146604"><ele>625.0</ele><time>2026-03-27T12:08:50Z</time></trkpt><trkpt lat="40.558729702360345" lon="9.067660803549883"><ele>622.5</ele><time>2026-03-27T12:08:51Z</time></trkpt><trkpt lat="40.558717773275355" lon="9.067507098999853"><ele>620.0</ele><time>2026-03-27T12:08:52Z</time></trkpt><trkpt lat="40.558722515160255" lon="9.067381479600947"><ele>619.6666666666666</ele><time>2026-03-27T12:08:53Z</time></trkpt><trkpt lat="40.55874171213093" lon="9.067288344120403"><ele>619.3333333333333</ele><time>2026-03-27T12:08:54Z</time></trkpt><trkpt lat="40.55874648697628" lon="9.067143491141936"><ele>619.0</ele><time>2026-03-27T12:08:56Z</time></trkpt><trkpt lat="40.55868647702899" lon="9.067049987760562"><ele>618.6666666666666</ele><time>2026-03-27T12:08:58Z</time></trkpt><trkpt lat="40.55863686387822" lon="9.066986293131249"><ele>618.3333333333334</ele><time>2026-03-27T12:09:00Z</time></trkpt><trkpt lat="40.55856875462021" lon="9.06692956187598"><ele>618.0</ele><time>2026-03-27T12:09:03Z</time></trkpt><trkpt lat="40.558492571379375" lon="9.066927849573895"><ele>618.0</ele><time>2026-03-27T12:09:06Z</time></trkpt><trkpt lat="40.558419580064935" lon="9.066927606375154"><ele>618.0</ele><time>2026-03-27T12:09:09.999Z</time></trkpt><trkpt lat="40.55834859023994" lon="9.066909006156052"><ele>618.0</ele><time>2026-03-27T12:09:12.999Z</time></trkpt><trkpt lat="40.55826293563509" lon="9.066926423279385"><ele>618.0</ele><time>2026-03-27T12:09:15.999Z</time></trkpt><trkpt lat="40.55816513456642" lon="9.06693342902574"><ele>618.0</ele><time>2026-03-27T12:09:17.999Z</time></trkpt><trkpt lat="40.55808855128909" lon="9.066931944065272"><ele>618.0</ele><time>2026-03-27T12:09:18.999Z</time></trkpt><trkpt lat="40.55801104174034" lon="9.06693633296264"><ele>618.0</ele><time>2026-03-27T12:09:19.999Z</time></trkpt><trkpt lat="40.55792519054484" lon="9.066924930900527"><ele>618.0</ele><time>2026-03-27T12:09:20.999Z</time></trkpt><trkpt lat="40.55784381486111" lon="9.066904856703976"><ele>618.0</ele><time>2026-03-27T12:09:21.999Z</time></trkpt><trkpt lat="40.55777377523805" lon="9.066882330965996"><ele>618.0</ele><time>2026-03-27T12:09:22.999Z</time></trkpt><trkpt lat="40.557715374376734" lon="9.066847477647846"><ele>618.0</ele><time>2026-03-27T12:09:23.999Z</time></trkpt><trkpt lat="40.55765204389596" lon="9.0667875919186"><ele>618.0</ele><time>2026-03-27T12:09:24.999Z</time></trkpt><trkpt lat="40.55758811976529" lon="9.066692403539337"><ele>618.8</ele><time>2026-03-27T12:09:25.999Z</time></trkpt><trkpt lat="40.557501736386584" lon="9.0666003187337"><ele>619.5999999999999</ele><time>2026-03-27T12:09:26.999Z</time></trkpt><trkpt lat="40.55741507437591" lon="9.066504007464179"><ele>620.4000000000001</ele><time>2026-03-27T12:09:27.999Z</time></trkpt><trkpt lat="40.557332722168944" lon="9.066429493984014"><ele>621.2</ele><time>2026-03-27T12:09:28.999Z</time></trkpt><trkpt lat="40.557252271038266" lon="9.066357447179556"><ele>622.0</ele><time>2026-03-27T12:09:29.999Z</time></trkpt><trkpt lat="40.557171661142064" lon="9.066290765409011"><ele>622.0</ele><time>2026-03-27T12:09:30.999Z</time></trkpt><trkpt lat="40.55709700000232" lon="9.066241466087142"><ele>622.0</ele><time>2026-03-27T12:09:31.999Z</time></trkpt><trkpt lat="40.557019258415465" lon="9.066195740540426"><ele>622.0</ele><time>2026-03-27T12:09:32.999Z</time></trkpt><trkpt lat="40.556913164806915" lon="9.066169543262303"><ele>622.0</ele><time>2026-03-27T12:09:33.999Z</time></trkpt><trkpt lat="40.556806960769656" lon="9.066130456410422"><ele>622.0</ele><time>2026-03-27T12:09:34.999Z</time></trkpt><trkpt lat="40.556702836746844" lon="9.066086539564502"><ele>623.0</ele><time>2026-03-27T12:09:35.999Z</time></trkpt><trkpt lat="40.55660552988284" lon="9.066037040746705"><ele>624.0</ele><time>2026-03-27T12:09:36.999Z</time></trkpt><trkpt lat="40.55651555372001" lon="9.065987436653685"><ele>625.0</ele><time>2026-03-27T12:09:37.999Z</time></trkpt><trkpt lat="40.55642573966132" lon="9.065925039500263"><ele>626.0</ele><time>2026-03-27T12:09:38.999Z</time></trkpt><trkpt lat="40.556334509561324" lon="9.065841858498766"><ele>627.0</ele><time>2026-03-27T12:09:39.999Z</time></trkpt><trkpt lat="40.556237197692916" lon="9.065736809556538"><ele>622.0</ele><time>2026-03-27T12:09:40.999Z</time></trkpt><trkpt lat="40.55613812092354" lon="9.065635762190187"><ele>617.0</ele><time>2026-03-27T12:09:41.999Z</time></trkpt><trkpt lat="40.556046450694694" lon="9.065523618691826"><ele>612.0</ele><time>2026-03-27T12:09:42.999Z</time></trkpt><trkpt lat="40.55595306673058" lon="9.065392925250695"><ele>607.0</ele><time>2026-03-27T12:09:43.999Z</time></trkpt><trkpt lat="40.555859211512995" lon="9.065247274527163"><ele>607.0</ele><time>2026-03-27T12:09:44.999Z</time></trkpt><trkpt lat="40.55576232309981" lon="9.06509165854477"><ele>607.0</ele><time>2026-03-27T12:09:45.999Z</time></trkpt><trkpt lat="40.55567882864855" lon="9.0649450234734"><ele>607.0</ele><time>2026-03-27T12:09:46.999Z</time></trkpt><trkpt lat="40.555603555221154" lon="9.06481070569669"><ele>607.0</ele><time>2026-03-27T12:09:47.999Z</time></trkpt><trkpt lat="40.555525707066195" lon="9.064695551192052"><ele>607.8000000000001</ele><time>2026-03-27T12:09:48.999Z</time></trkpt><trkpt lat="40.55545252454986" lon="9.064600961914456"><ele>608.6</ele><time>2026-03-27T12:09:49.999Z</time></trkpt><trkpt lat="40.555384593274084" lon="9.064515001867914"><ele>609.4000000000001</ele><time>2026-03-27T12:09:50.999Z</time></trkpt><trkpt lat="40.555319428499956" lon="9.064432221847852"><ele>610.2</ele><time>2026-03-27T12:09:51.999Z</time></trkpt><trkpt lat="40.555247185215485" lon="9.064345247413893"><ele>611.0</ele><time>2026-03-27T12:09:52.999Z</time></trkpt><trkpt lat="40.55515435889216" lon="9.064245135588543"><ele>609.5</ele><time>2026-03-27T12:09:53.999Z</time></trkpt><trkpt lat="40.555049821153126" lon="9.064150425719138"><ele>608.0</ele><time>2026-03-27T12:09:54.999Z</time></trkpt><trkpt lat="40.554933680663254" lon="9.06405619597011"><ele>606.5</ele><time>2026-03-27T12:09:55.999Z</time></trkpt><trkpt lat="40.55483272103002" lon="9.063981218717403"><ele>605.0</ele><time>2026-03-27T12:09:56.999Z</time></trkpt><trkpt lat="40.55474848382317" lon="9.063911203615156"><ele>605.0</ele><time>2026-03-27T12:09:57.999Z</time></trkpt><trkpt lat="40.55467906000228" lon="9.063822074014189"><ele>605.0</ele><time>2026-03-27T12:09:58.999Z</time></trkpt><trkpt lat="40.55461988889181" lon="9.063725286761647"><ele>605.0</ele><time>2026-03-27T12:09:59.998Z</time></trkpt><trkpt lat="40.55455088053442" lon="9.063601175817242"><ele>605.0</ele><time>2026-03-27T12:10:00.998Z</time></trkpt><trkpt lat="40.55447043192366" lon="9.063489041486509"><ele>605.0</ele><time>2026-03-27T12:10:01.998Z</time></trkpt><trkpt lat="40.554398419926635" lon="9.063403843183893"><ele>602.8</ele><time>2026-03-27T12:10:02.998Z</time></trkpt><trkpt lat="40.554341944228916" lon="9.063326045553302"><ele>600.6</ele><time>2026-03-27T12:10:03.998Z</time></trkpt><trkpt lat="40.55430108475134" lon="9.063221713022909"><ele>598.4</ele><time>2026-03-27T12:10:04.998Z</time></trkpt><trkpt lat="40.55425415505995" lon="9.063110132173751"><ele>596.2</ele><time>2026-03-27T12:10:05.998Z</time></trkpt><trkpt lat="40.554236628930724" lon="9.062970482253473"><ele>594.0</ele><time>2026-03-27T12:10:06.998Z</time></trkpt><trkpt lat="40.554198337150225" lon="9.06282769115202"><ele>594.0</ele><time>2026-03-27T12:10:07.998Z</time></trkpt><trkpt lat="40.55416345467681" lon="9.062666041567013"><ele>594.0</ele><time>2026-03-27T12:10:08.998Z</time></trkpt><trkpt lat="40.554116738118395" lon="9.062491414164825"><ele>594.0</ele><time>2026-03-27T12:10:09.998Z</time></trkpt><trkpt lat="40.554080547758474" lon="9.062319552114616"><ele>594.0</ele><time>2026-03-27T12:10:10.998Z</time></trkpt><trkpt lat="40.55403785760932" lon="9.062172863803628"><ele>592.5</ele><time>2026-03-27T12:10:11.998Z</time></trkpt><trkpt lat="40.55398184241316" lon="9.062029930889157"><ele>591.0</ele><time>2026-03-27T12:10:12.998Z</time></trkpt><trkpt lat="40.55395215663415" lon="9.061885576204306"><ele>589.5</ele><time>2026-03-27T12:10:13.998Z</time></trkpt><trkpt lat="40.553902319311135" lon="9.061745976269727"><ele>588.0</ele><time>2026-03-27T12:10:14.998Z</time></trkpt><trkpt lat="40.55383169275565" lon="9.061610082095724"><ele>588.0</ele><time>2026-03-27T12:10:15.998Z</time></trkpt><trkpt lat="40.55377342304461" lon="9.061466456585347"><ele>588.0</ele><time>2026-03-27T12:10:17Z</time></trkpt><trkpt lat="40.553734303924415" lon="9.061334349023209"><ele>588.0</ele><time>2026-03-27T12:10:18Z</time></trkpt><trkpt lat="40.55367373982544" lon="9.061209001089997"><ele>588.0</ele><time>2026-03-27T12:10:19Z</time></trkpt><trkpt lat="40.55361686439632" lon="9.061072791766291"><ele>588.0</ele><time>2026-03-27T12:10:20Z</time></trkpt><trkpt lat="40.553552499368216" lon="9.060940937673037"><ele>588.0</ele><time>2026-03-27T12:10:21Z</time></trkpt><trkpt lat="40.55350487127909" lon="9.060816836178686"><ele>588.0</ele><time>2026-03-27T12:10:22Z</time></trkpt><trkpt lat="40.55343918196501" lon="9.060683181979279"><ele>588.0</ele><time>2026-03-27T12:10:23Z</time></trkpt><trkpt lat="40.55336748512623" lon="9.060533852949744"><ele>585.8</ele><time>2026-03-27T12:10:24Z</time></trkpt><trkpt lat="40.553292314319584" lon="9.060420792173266"><ele>583.5999999999999</ele><time>2026-03-27T12:10:25Z</time></trkpt><trkpt lat="40.55323927039316" lon="9.060316495593165"><ele>581.4000000000001</ele><time>2026-03-27T12:10:26Z</time></trkpt><trkpt lat="40.55318854479888" lon="9.060233434860878"><ele>579.2</ele><time>2026-03-27T12:10:27Z</time></trkpt><trkpt lat="40.553130273060056" lon="9.06015203871224"><ele>577.0</ele><time>2026-03-27T12:10:28Z</time></trkpt><trkpt lat="40.553036000282944" lon="9.06009511569051"><ele>577.0</ele><time>2026-03-27T12:10:29Z</time></trkpt><trkpt lat="40.55291740809408" lon="9.060031686872216"><ele>577.0</ele><time>2026-03-27T12:10:30Z</time></trkpt><trkpt lat="40.55281735329088" lon="9.059967260160601"><ele>577.0</ele><time>2026-03-27T12:10:31Z</time></trkpt><trkpt lat="40.55272721109036" lon="9.05992058139637"><ele>577.0</ele><time>2026-03-27T12:10:32Z</time></trkpt><trkpt lat="40.55263977601207" lon="9.05986579339881"><ele>577.0</ele><time>2026-03-27T12:10:33Z</time></trkpt><trkpt lat="40.55257550645125" lon="9.05981102896359"><ele>576.2</ele><time>2026-03-27T12:10:34Z</time></trkpt><trkpt lat="40.552526270734454" lon="9.059732175774256"><ele>575.4000000000001</ele><time>2026-03-27T12:10:35Z</time></trkpt><trkpt lat="40.55248965475965" lon="9.059599911704275"><ele>574.5999999999999</ele><time>2026-03-27T12:10:36Z</time></trkpt><trkpt lat="40.552460442550625" lon="9.059466566608169"><ele>573.8</ele><time>2026-03-27T12:10:37Z</time></trkpt><trkpt lat="40.552439062353585" lon="9.05936474362555"><ele>573.0</ele><time>2026-03-27T12:10:38Z</time></trkpt><trkpt lat="40.552404034412916" lon="9.059247476149325"><ele>573.0</ele><time>2026-03-27T12:10:39Z</time></trkpt><trkpt lat="40.5523554190183" lon="9.059164957580458"><ele>573.0</ele><time>2026-03-27T12:10:40Z</time></trkpt><trkpt lat="40.55230027286368" lon="9.059092583941288"><ele>573.0</ele><time>2026-03-27T12:10:41Z</time></trkpt><trkpt lat="40.55224892545649" lon="9.05898877356123"><ele>573.0</ele><time>2026-03-27T12:10:42Z</time></trkpt><trkpt lat="40.55219925367547" lon="9.058860829832298"><ele>573.0</ele><time>2026-03-27T12:10:43Z</time></trkpt><trkpt lat="40.552123064699344" lon="9.058712453511447"><ele>572.8333333333334</ele><time>2026-03-27T12:10:44Z</time></trkpt><trkpt lat="40.55206341139142" lon="9.058596280015978"><ele>572.6666666666666</ele><time>2026-03-27T12:10:45Z</time></trkpt><trkpt lat="40.5519955036301" lon="9.0585035184029"><ele>572.5</ele><time>2026-03-27T12:10:46Z</time></trkpt><trkpt lat="40.551943503567834" lon="9.058413891787465"><ele>572.3333333333333</ele><time>2026-03-27T12:10:47Z</time></trkpt><trkpt lat="40.55188925462259" lon="9.058361492043081"><ele>572.1666666666666</ele><time>2026-03-27T12:10:48Z</time></trkpt><trkpt lat="40.551802730944615" lon="9.058325414542443"><ele>572.0</ele><time>2026-03-27T12:10:49Z</time></trkpt><trkpt lat="40.551723957455145" lon="9.058273171805682"><ele>572.8000000000001</ele><time>2026-03-27T12:10:50Z</time></trkpt><trkpt lat="40.55164213464398" lon="9.05817995304152"><ele>573.6</ele><time>2026-03-27T12:10:52Z</time></trkpt><trkpt lat="40.551592019452386" lon="9.058058463219652"><ele>574.4000000000001</ele><time>2026-03-27T12:10:54Z</time></trkpt><trkpt lat="40.55159198121011" lon="9.057966877363688"><ele>575.2</ele><time>2026-03-27T12:10:55Z</time></trkpt><trkpt lat="40.5515925044963" lon="9.057845635430581"><ele>576.0</ele><time>2026-03-27T12:10:57Z</time></trkpt><trkpt lat="40.5516176992411" lon="9.057692585960256"><ele>576.0</ele><time>2026-03-27T12:10:59Z</time></trkpt><trkpt lat="40.551610386605745" lon="9.05756820962088"><ele>576.0</ele><time>2026-03-27T12:11:00Z</time></trkpt><trkpt lat="40.55159632456667" lon="9.05744006700153"><ele>576.0</ele><time>2026-03-27T12:11:01Z</time></trkpt><trkpt lat="40.55156864964564" lon="9.057343840405812"><ele>576.0</ele><time>2026-03-27T12:11:02Z</time></trkpt><trkpt lat="40.55151799925847" lon="9.05725300871208"><ele>576.0</ele><time>2026-03-27T12:11:03Z</time></trkpt><trkpt lat="40.55146962776642" lon="9.057188387195804"><ele>576.0</ele><time>2026-03-27T12:11:04Z</time></trkpt><trkpt lat="40.55140377312069" lon="9.057123223411011"><ele>576.6</ele><time>2026-03-27T12:11:05Z</time></trkpt><trkpt lat="40.55131742065704" lon="9.057069202365408"><ele>577.2</ele><time>2026-03-27T12:11:06Z</time></trkpt><trkpt lat="40.55120786262404" lon="9.05703224849944"><ele>577.8</ele><time>2026-03-27T12:11:07Z</time></trkpt><trkpt lat="40.5510945276426" lon="9.057004092877005"><ele>578.4</ele><time>2026-03-27T12:11:08Z</time></trkpt><trkpt lat="40.55099284308594" lon="9.057000508062773"><ele>579.0</ele><time>2026-03-27T12:11:09Z</time></trkpt><trkpt lat="40.55089840919183" lon="9.057014787978247"><ele>579.0</ele><time>2026-03-27T12:11:09.999Z</time></trkpt><trkpt lat="40.55081619715506" lon="9.056995131412934"><ele>579.0</ele><time>2026-03-27T12:11:10.999Z</time></trkpt><trkpt lat="40.55072055082396" lon="9.05695944619633"><ele>579.0</ele><time>2026-03-27T12:11:11.999Z</time></trkpt><trkpt lat="40.550618749598016" lon="9.056909746844667"><ele>579.0</ele><time>2026-03-27T12:11:12.999Z</time></trkpt><trkpt lat="40.550520042893446" lon="9.056868458680082"><ele>579.0</ele><time>2026-03-27T12:11:13.999Z</time></trkpt><trkpt lat="40.55043156051035" lon="9.05683441350992"><ele>580.2</ele><time>2026-03-27T12:11:14.999Z</time></trkpt><trkpt lat="40.5503283491346" lon="9.0568015602774"><ele>581.4</ele><time>2026-03-27T12:11:15.999Z</time></trkpt><trkpt lat="40.55021157661398" lon="9.056790736870365"><ele>582.6</ele><time>2026-03-27T12:11:16.999Z</time></trkpt><trkpt lat="40.55009766170022" lon="9.056792867090481"><ele>583.8</ele><time>2026-03-27T12:11:17.999Z</time></trkpt><trkpt lat="40.54999852011908" lon="9.056818302669948"><ele>585.0</ele><time>2026-03-27T12:11:18.999Z</time></trkpt><trkpt lat="40.549904215433706" lon="9.056840442414634"><ele>585.0</ele><time>2026-03-27T12:11:19.999Z</time></trkpt><trkpt lat="40.54981682736754" lon="9.056809918265913"><ele>585.0</ele><time>2026-03-27T12:11:21.999Z</time></trkpt><trkpt lat="40.54980106522112" lon="9.0567272731395"><ele>585.0</ele><time>2026-03-27T12:11:22.999Z</time></trkpt><trkpt lat="40.54981298848804" lon="9.05662205200125"><ele>585.0</ele><time>2026-03-27T12:11:23.999Z</time></trkpt><trkpt lat="40.549877830203656" lon="9.056488292946502"><ele>585.0</ele><time>2026-03-27T12:11:24.999Z</time></trkpt><trkpt lat="40.54994451166097" lon="9.056362454192115"><ele>583.6666666666666</ele><time>2026-03-27T12:11:25.999Z</time></trkpt><trkpt lat="40.5499717725352" lon="9.056220152313044"><ele>582.3333333333334</ele><time>2026-03-27T12:11:26.999Z</time></trkpt><trkpt lat="40.549989178583125" lon="9.05613878583382"><ele>581.0</ele><time>2026-03-27T12:11:27.999Z</time></trkpt><trkpt lat="40.55000420338781" lon="9.056053617211447"><ele>579.6666666666667</ele><time>2026-03-27T12:11:28.999Z</time></trkpt><trkpt lat="40.54998444996399" lon="9.055935735302517"><ele>578.3333333333334</ele><time>2026-03-27T12:11:29.999Z</time></trkpt><trkpt lat="40.54996155476861" lon="9.055788602910786"><ele>577.0</ele><time>2026-03-27T12:11:30.999Z</time></trkpt><trkpt lat="40.54989210859539" lon="9.055650355478639"><ele>575.8000000000001</ele><time>2026-03-27T12:11:32.999Z</time></trkpt><trkpt lat="40.54982657813908" lon="9.055584572106138"><ele>574.6</ele><time>2026-03-27T12:11:33.999Z</time></trkpt><trkpt lat="40.54979148183135" lon="9.05549269838766"><ele>573.4000000000001</ele><time>2026-03-27T12:11:34.999Z</time></trkpt><trkpt lat="40.54980247838249" lon="9.055302704001926"><ele>572.2</ele><time>2026-03-27T12:11:36.999Z</time></trkpt><trkpt lat="40.549830641047635" lon="9.055177765776625"><ele>571.0</ele><time>2026-03-27T12:11:37.999Z</time></trkpt><trkpt lat="40.54982045300582" lon="9.055078004571351"><ele>571.0</ele><time>2026-03-27T12:11:38.999Z</time></trkpt><trkpt lat="40.54979797326995" lon="9.05495612747932"><ele>571.0</ele><time>2026-03-27T12:11:39.999Z</time></trkpt><trkpt lat="40.54975489034354" lon="9.05481122484142"><ele>571.0</ele><time>2026-03-27T12:11:40.999Z</time></trkpt><trkpt lat="40.54969345228504" lon="9.054672394623058"><ele>571.0</ele><time>2026-03-27T12:11:41.999Z</time></trkpt><trkpt lat="40.5496384858657" lon="9.05456353447635"><ele>571.0</ele><time>2026-03-27T12:11:42.999Z</time></trkpt><trkpt lat="40.54958074776229" lon="9.054466416455375"><ele>571.6</ele><time>2026-03-27T12:11:43.999Z</time></trkpt><trkpt lat="40.549506860663264" lon="9.054366850405135"><ele>572.2</ele><time>2026-03-27T12:11:44.999Z</time></trkpt><trkpt lat="40.54943189799981" lon="9.054281994874447"><ele>572.8</ele><time>2026-03-27T12:11:45.999Z</time></trkpt><trkpt lat="40.54933798756529" lon="9.054201743658005"><ele>573.4</ele><time>2026-03-27T12:11:46.999Z</time></trkpt><trkpt lat="40.54924034530653" lon="9.05411770443344"><ele>574.0</ele><time>2026-03-27T12:11:47.999Z</time></trkpt><trkpt lat="40.54914703109563" lon="9.054021675725386"><ele>574.0</ele><time>2026-03-27T12:11:48.999Z</time></trkpt><trkpt lat="40.549050791562095" lon="9.053945818643331"><ele>574.0</ele><time>2026-03-27T12:11:49.999Z</time></trkpt><trkpt lat="40.548954201195016" lon="9.053900438441449"><ele>574.0</ele><time>2026-03-27T12:11:50.999Z</time></trkpt><trkpt lat="40.548886785340166" lon="9.053884125635964"><ele>574.0</ele><time>2026-03-27T12:11:51.999Z</time></trkpt><trkpt lat="40.54881873847489" lon="9.053873352288479"><ele>574.0</ele><time>2026-03-27T12:11:53.999Z</time></trkpt><trkpt lat="40.54872493490621" lon="9.053803122322542"><ele>574.8</ele><time>2026-03-27T12:11:55.999Z</time></trkpt><trkpt lat="40.54861003927843" lon="9.053770316779792"><ele>575.5999999999999</ele><time>2026-03-27T12:11:57.999Z</time></trkpt><trkpt lat="40.548518403737354" lon="9.05380787802758"><ele>576.4</ele><time>2026-03-27T12:11:58.999Z</time></trkpt><trkpt lat="40.54841906932276" lon="9.053810409975895"><ele>577.1999999999999</ele><time>2026-03-27T12:11:59.998Z</time></trkpt><trkpt lat="40.54831916231108" lon="9.05380047080952"><ele>578.0</ele><time>2026-03-27T12:12:00.998Z</time></trkpt><trkpt lat="40.54821902642411" lon="9.053771498576028"><ele>578.0</ele><time>2026-03-27T12:12:01.998Z</time></trkpt><trkpt lat="40.54813362666631" lon="9.053736573568456"><ele>578.0</ele><time>2026-03-27T12:12:02.998Z</time></trkpt><trkpt lat="40.548067622335964" lon="9.05370329126884"><ele>578.0</ele><time>2026-03-27T12:12:03.998Z</time></trkpt><trkpt lat="40.54800862229042" lon="9.053656607684342"><ele>578.0</ele><time>2026-03-27T12:12:04.998Z</time></trkpt><trkpt lat="40.5479477693251" lon="9.053577272621446"><ele>578.0</ele><time>2026-03-27T12:12:05.998Z</time></trkpt><trkpt lat="40.54788081246658" lon="9.053484681216517"><ele>578.0</ele><time>2026-03-27T12:12:06.998Z</time></trkpt><trkpt lat="40.54781507214239" lon="9.053385588982872"><ele>577.5</ele><time>2026-03-27T12:12:07.998Z</time></trkpt><trkpt lat="40.54777537662568" lon="9.053286620752345"><ele>577.0</ele><time>2026-03-27T12:12:08.998Z</time></trkpt><trkpt lat="40.54772882007469" lon="9.053181231511997"><ele>576.5</ele><time>2026-03-27T12:12:09.998Z</time></trkpt><trkpt lat="40.5476864264162" lon="9.053092946234099"><ele>576.0</ele><time>2026-03-27T12:12:10.998Z</time></trkpt><trkpt lat="40.54765003574217" lon="9.053023822581455"><ele>575.5</ele><time>2026-03-27T12:12:11.998Z</time></trkpt><trkpt lat="40.54758476411266" lon="9.052929239364524"><ele>575.0</ele><time>2026-03-27T12:12:13.998Z</time></trkpt><trkpt lat="40.54751028511491" lon="9.052793681991039"><ele>575.0</ele><time>2026-03-27T12:12:15.998Z</time></trkpt><trkpt lat="40.54746826046627" lon="9.052705647615724"><ele>575.0</ele><time>2026-03-27T12:12:16.998Z</time></trkpt><trkpt lat="40.547442085446114" lon="9.05254401285779"><ele>575.0</ele><time>2026-03-27T12:12:18.998Z</time></trkpt><trkpt lat="40.54742827340836" lon="9.05245067130083"><ele>575.0</ele><time>2026-03-27T12:12:19.998Z</time></trkpt><trkpt lat="40.547362484355766" lon="9.052334439383399"><ele>575.0</ele><time>2026-03-27T12:12:21.998Z</time></trkpt><trkpt lat="40.54729521440271" lon="9.052228664407076"><ele>575.0</ele><time>2026-03-27T12:12:24Z</time></trkpt><trkpt lat="40.54724283427245" lon="9.052169441769305"><ele>575.0</ele><time>2026-03-27T12:12:25Z</time></trkpt><trkpt lat="40.547194319924444" lon="9.052080747019062"><ele>575.0</ele><time>2026-03-27T12:12:26Z</time></trkpt><trkpt lat="40.54712409603604" lon="9.051990640435532"><ele>575.0</ele><time>2026-03-27T12:12:27Z</time></trkpt><trkpt lat="40.5470420146875" lon="9.051912428747551"><ele>575.0</ele><time>2026-03-27T12:12:28Z</time></trkpt><trkpt lat="40.54697522860029" lon="9.051845401060746"><ele>575.0</ele><time>2026-03-27T12:12:29Z</time></trkpt><trkpt lat="40.54689798839315" lon="9.051737201834769"><ele>575.5</ele><time>2026-03-27T12:12:31Z</time></trkpt><trkpt lat="40.54686713264593" lon="9.051643722243291"><ele>576.0</ele><time>2026-03-27T12:12:32Z</time></trkpt><trkpt lat="40.546822879801084" lon="9.051527842474291"><ele>576.5</ele><time>2026-03-27T12:12:33Z</time></trkpt><trkpt lat="40.54677571098125" lon="9.051420978009684"><ele>577.0</ele><time>2026-03-27T12:12:34Z</time></trkpt><trkpt lat="40.546728366613884" lon="9.051334378413348"><ele>577.5</ele><time>2026-03-27T12:12:35Z</time></trkpt><trkpt lat="40.546663201101595" lon="9.051254380087961"><ele>578.0</ele><time>2026-03-27T12:12:36Z</time></trkpt><trkpt lat="40.546584734512074" lon="9.051193083116953"><ele>578.1666666666666</ele><time>2026-03-27T12:12:37Z</time></trkpt><trkpt lat="40.54650700995793" lon="9.051149937712305"><ele>578.3333333333333</ele><time>2026-03-27T12:12:38Z</time></trkpt><trkpt lat="40.546430306148544" lon="9.051123913542812"><ele>578.5</ele><time>2026-03-27T12:12:39Z</time></trkpt><trkpt lat="40.54636493951903" lon="9.051098569367106"><ele>578.6666666666666</ele><time>2026-03-27T12:12:40Z</time></trkpt><trkpt lat="40.54627320780489" lon="9.05105708808429"><ele>578.8333333333334</ele><time>2026-03-27T12:12:42Z</time></trkpt><trkpt lat="40.54620279061493" lon="9.050997033086306"><ele>579.0</ele><time>2026-03-27T12:12:44Z</time></trkpt><trkpt lat="40.54611794439538" lon="9.050987241958895"><ele>579.0</ele><time>2026-03-27T12:12:46Z</time></trkpt><trkpt lat="40.54598232226072" lon="9.051025250511415"><ele>579.0</ele><time>2026-03-27T12:12:48Z</time></trkpt><trkpt lat="40.54587633301627" lon="9.051025116235598"><ele>579.0</ele><time>2026-03-27T12:12:49Z</time></trkpt><trkpt lat="40.54578853882993" lon="9.051031439960052"><ele>579.0</ele><time>2026-03-27T12:12:50Z</time></trkpt><trkpt lat="40.54569283755476" lon="9.05100080860338"><ele>579.0</ele><time>2026-03-27T12:12:52Z</time></trkpt><trkpt lat="40.54565664617855" lon="9.050906595931782"><ele>580.2</ele><time>2026-03-27T12:12:53Z</time></trkpt><trkpt lat="40.54564148062939" lon="9.0507614290144"><ele>581.4</ele><time>2026-03-27T12:12:54Z</time></trkpt><trkpt lat="40.54561990951257" lon="9.050592250497413"><ele>582.6</ele><time>2026-03-27T12:12:55Z</time></trkpt><trkpt lat="40.54559531135916" lon="9.05045649018079"><ele>583.8</ele><time>2026-03-27T12:12:56Z</time></trkpt><trkpt lat="40.54558624142364" lon="9.050353770608004"><ele>585.0</ele><time>2026-03-27T12:12:58Z</time></trkpt><trkpt lat="40.545578690578125" lon="9.050253703976729"><ele>585.0</ele><time>2026-03-27T12:13:01Z</time></trkpt><trkpt lat="40.5455359971388" lon="9.05015617248669"><ele>585.0</ele><time>2026-03-27T12:13:03Z</time></trkpt><trkpt lat="40.545504960505994" lon="9.050002631797424"><ele>585.0</ele><time>2026-03-27T12:13:05Z</time></trkpt><trkpt lat="40.545487349227294" lon="9.049903315131882"><ele>585.0</ele><time>2026-03-27T12:13:06Z</time></trkpt><trkpt lat="40.54547953102803" lon="9.049786912372324"><ele>585.0</ele><time>2026-03-27T12:13:07Z</time></trkpt><trkpt lat="40.545451707752896" lon="9.049651155477966"><ele>585.5</ele><time>2026-03-27T12:13:08Z</time></trkpt><trkpt lat="40.545408678684495" lon="9.049507019917035"><ele>586.0</ele><time>2026-03-27T12:13:08.999Z</time></trkpt><trkpt lat="40.54538141558318" lon="9.049334239036181"><ele>586.5</ele><time>2026-03-27T12:13:09.999Z</time></trkpt><trkpt lat="40.54534998691734" lon="9.049176164411186"><ele>587.0</ele><time>2026-03-27T12:13:10.999Z</time></trkpt><trkpt lat="40.54530799718054" lon="9.049061590694775"><ele>588.8000000000001</ele><time>2026-03-27T12:13:11.999Z</time></trkpt><trkpt lat="40.54529102395642" lon="9.048973608178807"><ele>590.6</ele><time>2026-03-27T12:13:12.999Z</time></trkpt><trkpt lat="40.5451816363782" lon="9.048866654177411"><ele>592.4000000000001</ele><time>2026-03-27T12:13:14.999Z</time></trkpt><trkpt lat="40.54507969283104" lon="9.04881276116624"><ele>594.2</ele><time>2026-03-27T12:13:15.999Z</time></trkpt><trkpt lat="40.544970826905434" lon="9.048747921499096"><ele>596.0</ele><time>2026-03-27T12:13:16.999Z</time></trkpt><trkpt lat="40.544879710684384" lon="9.048666899155204"><ele>596.0</ele><time>2026-03-27T12:13:17.999Z</time></trkpt><trkpt lat="40.544803214965945" lon="9.0485834830022"><ele>596.0</ele><time>2026-03-27T12:13:18.999Z</time></trkpt><trkpt lat="40.54472457804163" lon="9.048511121410565"><ele>596.0</ele><time>2026-03-27T12:13:19.999Z</time></trkpt><trkpt lat="40.54464846424251" lon="9.048470162370961"><ele>596.0</ele><time>2026-03-27T12:13:20.999Z</time></trkpt><trkpt lat="40.54457002402112" lon="9.048449512320847"><ele>596.0</ele><time>2026-03-27T12:13:21.999Z</time></trkpt><trkpt lat="40.5444788407434" lon="9.04845692963469"><ele>596.0</ele><time>2026-03-27T12:13:22.999Z</time></trkpt><trkpt lat="40.54440185059159" lon="9.048461829625568"><ele>595.0</ele><time>2026-03-27T12:13:23.999Z</time></trkpt><trkpt lat="40.544306080283924" lon="9.048419653597605"><ele>594.0</ele><time>2026-03-27T12:13:24.999Z</time></trkpt><trkpt lat="40.54418126180123" lon="9.04829291837958"><ele>593.0</ele><time>2026-03-27T12:13:25.999Z</time></trkpt><trkpt lat="40.5440595623396" lon="9.048196533343772"><ele>592.0</ele><time>2026-03-27T12:13:26.999Z</time></trkpt><trkpt lat="40.54396742747532" lon="9.048127320604456"><ele>593.2</ele><time>2026-03-27T12:13:27.999Z</time></trkpt><trkpt lat="40.54388626604087" lon="9.048059679590272"><ele>594.4000000000001</ele><time>2026-03-27T12:13:28.999Z</time></trkpt><trkpt lat="40.54379249662086" lon="9.047996103121031"><ele>595.5999999999999</ele><time>2026-03-27T12:13:29.999Z</time></trkpt><trkpt lat="40.54366934609119" lon="9.047960572601804"><ele>596.8</ele><time>2026-03-27T12:13:30.999Z</time></trkpt><trkpt lat="40.5435666382717" lon="9.047905259387392"><ele>598.0</ele><time>2026-03-27T12:13:31.999Z</time></trkpt><trkpt lat="40.54346945056052" lon="9.047844801045123"><ele>598.0</ele><time>2026-03-27T12:13:32.999Z</time></trkpt><trkpt lat="40.543391185721525" lon="9.047799761757684"><ele>598.0</ele><time>2026-03-27T12:13:33.999Z</time></trkpt><trkpt lat="40.54331399412693" lon="9.047768699310822"><ele>598.0</ele><time>2026-03-27T12:13:34.999Z</time></trkpt><trkpt lat="40.54322088032153" lon="9.047752788534055"><ele>598.0</ele><time>2026-03-27T12:13:35.999Z</time></trkpt><trkpt lat="40.54311470214852" lon="9.047739632752322"><ele>598.0</ele><time>2026-03-27T12:13:36.999Z</time></trkpt><trkpt lat="40.542990013048104" lon="9.047727943385077"><ele>597.75</ele><time>2026-03-27T12:13:37.999Z</time></trkpt><trkpt lat="40.542853275665415" lon="9.04773057523578"><ele>597.5</ele><time>2026-03-27T12:13:38.999Z</time></trkpt><trkpt lat="40.54271615814415" lon="9.047757464906885"><ele>597.25</ele><time>2026-03-27T12:13:39.999Z</time></trkpt><trkpt lat="40.54258840463762" lon="9.04777659616984"><ele>597.0</ele><time>2026-03-27T12:13:40.999Z</time></trkpt><trkpt lat="40.54248376927317" lon="9.047786312481211"><ele>597.0</ele><time>2026-03-27T12:13:41.999Z</time></trkpt><trkpt lat="40.54238592883068" lon="9.047817800718125"><ele>597.0</ele><time>2026-03-27T12:13:42.999Z</time></trkpt><trkpt lat="40.54228272630479" lon="9.047861580361616"><ele>597.0</ele><time>2026-03-27T12:13:43.999Z</time></trkpt><trkpt lat="40.542180345533055" lon="9.047900901145017"><ele>597.0</ele><time>2026-03-27T12:13:44.999Z</time></trkpt><trkpt lat="40.54206042311954" lon="9.047906356771259"><ele>597.0</ele><time>2026-03-27T12:13:45.999Z</time></trkpt><trkpt lat="40.54191638918778" lon="9.0478903569308"><ele>598.75</ele><time>2026-03-27T12:13:46.999Z</time></trkpt><trkpt lat="40.541784253962945" lon="9.047864295572905"><ele>600.5</ele><time>2026-03-27T12:13:47.999Z</time></trkpt><trkpt lat="40.54165931401942" lon="9.047820286900226"><ele>602.25</ele><time>2026-03-27T12:13:48.999Z</time></trkpt><trkpt lat="40.54154122166775" lon="9.047775815826682"><ele>604.0</ele><time>2026-03-27T12:13:49.999Z</time></trkpt><trkpt lat="40.54141882881188" lon="9.04776465329018"><ele>604.0</ele><time>2026-03-27T12:13:50.999Z</time></trkpt><trkpt lat="40.54129687452043" lon="9.047763191731786"><ele>604.0</ele><time>2026-03-27T12:13:51.999Z</time></trkpt><trkpt lat="40.5411879673448" lon="9.047720477998675"><ele>604.0</ele><time>2026-03-27T12:13:52.999Z</time></trkpt><trkpt lat="40.541087310968976" lon="9.047646110317386"><ele>604.0</ele><time>2026-03-27T12:13:53.999Z</time></trkpt><trkpt lat="40.54098323368852" lon="9.04755891154106"><ele>604.1666666666667</ele><time>2026-03-27T12:13:54.999Z</time></trkpt><trkpt lat="40.54090534557938" lon="9.047463899601896"><ele>604.3333333333334</ele><time>2026-03-27T12:13:55.999Z</time></trkpt><trkpt lat="40.54084013564657" lon="9.047350670693785"><ele>604.5</ele><time>2026-03-27T12:13:56.999Z</time></trkpt><trkpt lat="40.54079192373116" lon="9.047271553140023"><ele>604.6666666666666</ele><time>2026-03-27T12:13:57.999Z</time></trkpt><trkpt lat="40.54073408786611" lon="9.047227204694604"><ele>604.8333333333333</ele><time>2026-03-27T12:13:58.998Z</time></trkpt><trkpt lat="40.540674471026726" lon="9.047180147084148"><ele>605.0</ele><time>2026-03-27T12:13:59.998Z</time></trkpt><trkpt lat="40.540598375211154" lon="9.047123517039147"><ele>605.0</ele><time>2026-03-27T12:14:00.998Z</time></trkpt><trkpt lat="40.54051428925823" lon="9.047049378054094"><ele>605.0</ele><time>2026-03-27T12:14:01.998Z</time></trkpt><trkpt lat="40.54045943344254" lon="9.046935630568024"><ele>605.0</ele><time>2026-03-27T12:14:02.998Z</time></trkpt><trkpt lat="40.54039431798957" lon="9.04676987717578"><ele>605.0</ele><time>2026-03-27T12:14:03.998Z</time></trkpt><trkpt lat="40.540318395704574" lon="9.046618821257004"><ele>606.0</ele><time>2026-03-27T12:14:04.998Z</time></trkpt><trkpt lat="40.540224166337055" lon="9.046493382973223"><ele>607.0</ele><time>2026-03-27T12:14:05.998Z</time></trkpt><trkpt lat="40.54011010818415" lon="9.046388081010145"><ele>608.0</ele><time>2026-03-27T12:14:06.998Z</time></trkpt><trkpt lat="40.54000163441668" lon="9.046281417231771"><ele>609.0</ele><time>2026-03-27T12:14:07.998Z</time></trkpt><trkpt lat="40.53991437896811" lon="9.046195442188788"><ele>609.0</ele><time>2026-03-27T12:14:08.998Z</time></trkpt><trkpt lat="40.53985407088558" lon="9.046137788044524"><ele>609.0</ele><time>2026-03-27T12:14:09.998Z</time></trkpt><trkpt lat="40.53977337164048" lon="9.046062758130434"><ele>609.0</ele><time>2026-03-27T12:14:11.998Z</time></trkpt><trkpt lat="40.53970816179455" lon="9.046010868892374"><ele>609.0</ele><time>2026-03-27T12:14:13.998Z</time></trkpt><trkpt lat="40.5396103675365" lon="9.045996231717039"><ele>609.0</ele><time>2026-03-27T12:14:15.998Z</time></trkpt><trkpt lat="40.53954314270003" lon="9.045991861622129"><ele>609.0</ele><time>2026-03-27T12:14:16.998Z</time></trkpt><trkpt lat="40.53946843161263" lon="9.045998675555067"><ele>607.4</ele><time>2026-03-27T12:14:17.998Z</time></trkpt><trkpt lat="40.539385002006604" lon="9.046008912913873"><ele>605.8</ele><time>2026-03-27T12:14:18.998Z</time></trkpt><trkpt lat="40.53929323733521" lon="9.046018342485043"><ele>604.2</ele><time>2026-03-27T12:14:19.998Z</time></trkpt><trkpt lat="40.53919113174589" lon="9.046012353018998"><ele>602.6</ele><time>2026-03-27T12:14:20.998Z</time></trkpt><trkpt lat="40.539081349750305" lon="9.046005740134525"><ele>601.0</ele><time>2026-03-27T12:14:21.998Z</time></trkpt><trkpt lat="40.538970134777244" lon="9.045984087524646"><ele>601.0</ele><time>2026-03-27T12:14:22.998Z</time></trkpt><trkpt lat="40.53886040806775" lon="9.045940817592323"><ele>601.0</ele><time>2026-03-27T12:14:23.998Z</time></trkpt><trkpt lat="40.538748829537795" lon="9.045869744784692"><ele>601.0</ele><time>2026-03-27T12:14:24.998Z</time></trkpt><trkpt lat="40.53863266604462" lon="9.045790757131225"><ele>601.0</ele><time>2026-03-27T12:14:25.998Z</time></trkpt><trkpt lat="40.538506347238496" lon="9.045717930590914"><ele>601.5</ele><time>2026-03-27T12:14:26.998Z</time></trkpt><trkpt lat="40.53838043406486" lon="9.045646547348305"><ele>602.0</ele><time>2026-03-27T12:14:27.998Z</time></trkpt><trkpt lat="40.538256489102494" lon="9.045566570839908"><ele>602.5</ele><time>2026-03-27T12:14:29Z</time></trkpt><trkpt lat="40.538133605791266" lon="9.045477689958473"><ele>603.0</ele><time>2026-03-27T12:14:30Z</time></trkpt><trkpt lat="40.538008637665705" lon="9.045384687281908"><ele>603.0</ele><time>2026-03-27T12:14:31Z</time></trkpt><trkpt lat="40.53789592006194" lon="9.045310172462784"><ele>603.0</ele><time>2026-03-27T12:14:32Z</time></trkpt><trkpt lat="40.53778887875039" lon="9.045257517564588"><ele>603.0</ele><time>2026-03-27T12:14:33Z</time></trkpt><trkpt lat="40.53769035317955" lon="9.045222789310301"><ele>603.0</ele><time>2026-03-27T12:14:34Z</time></trkpt><trkpt lat="40.53759852478358" lon="9.045210428919447"><ele>603.0</ele><time>2026-03-27T12:14:35Z</time></trkpt><trkpt lat="40.53749980406197" lon="9.045233018631748"><ele>604.25</ele><time>2026-03-27T12:14:36Z</time></trkpt><trkpt lat="40.537390773428" lon="9.0452867226399"><ele>605.5</ele><time>2026-03-27T12:14:37Z</time></trkpt><trkpt lat="40.5372730659284" lon="9.045327679617369"><ele>606.75</ele><time>2026-03-27T12:14:38Z</time></trkpt><trkpt lat="40.537141837399126" lon="9.045344891709297"><ele>608.0</ele><time>2026-03-27T12:14:39Z</time></trkpt><trkpt lat="40.537010952716145" lon="9.045380284278187"><ele>608.5</ele><time>2026-03-27T12:14:40Z</time></trkpt><trkpt lat="40.536886915139085" lon="9.045439205215136"><ele>609.0</ele><time>2026-03-27T12:14:41Z</time></trkpt><trkpt lat="40.53677599316334" lon="9.045478196758053"><ele>609.5</ele><time>2026-03-27T12:14:42Z</time></trkpt><trkpt lat="40.53666464583162" lon="9.045494309709772"><ele>610.0</ele><time>2026-03-27T12:14:43Z</time></trkpt><trkpt lat="40.536544788887326" lon="9.045477547269266"><ele>610.0</ele><time>2026-03-27T12:14:44Z</time></trkpt><trkpt lat="40.53643047643739" lon="9.045419194660964"><ele>610.0</ele><time>2026-03-27T12:14:45Z</time></trkpt><trkpt lat="40.53630593405395" lon="9.045327025687296"><ele>610.0</ele><time>2026-03-27T12:14:46Z</time></trkpt><trkpt lat="40.53618710296718" lon="9.045212290682079"><ele>610.0</ele><time>2026-03-27T12:14:47Z</time></trkpt><trkpt lat="40.53606985475573" lon="9.045098815867822"><ele>611.0</ele><time>2026-03-27T12:14:48Z</time></trkpt><trkpt lat="40.53595103908333" lon="9.044974891251414"><ele>612.0</ele><time>2026-03-27T12:14:49Z</time></trkpt><trkpt lat="40.53583801130921" lon="9.04483834502064"><ele>613.0</ele><time>2026-03-27T12:14:50Z</time></trkpt><trkpt lat="40.53572614566135" lon="9.04468847464563"><ele>613.0</ele><time>2026-03-27T12:14:51Z</time></trkpt><trkpt lat="40.53562267266739" lon="9.04454392199511"><ele>613.0</ele><time>2026-03-27T12:14:52Z</time></trkpt><trkpt lat="40.53553097881783" lon="9.044423121119236"><ele>613.0</ele><time>2026-03-27T12:14:53Z</time></trkpt><trkpt lat="40.535442058661324" lon="9.044318227205467"><ele>613.0</ele><time>2026-03-27T12:14:54Z</time></trkpt><trkpt lat="40.53533924819321" lon="9.044230263352192"><ele>613.75</ele><time>2026-03-27T12:14:55Z</time></trkpt><trkpt lat="40.53521327388711" lon="9.04415333992542"><ele>614.5</ele><time>2026-03-27T12:14:56Z</time></trkpt><trkpt lat="40.53507358088906" lon="9.044108465571332"><ele>615.25</ele><time>2026-03-27T12:14:57Z</time></trkpt><trkpt lat="40.53492866932722" lon="9.044075722314448"><ele>616.0</ele><time>2026-03-27T12:14:58Z</time></trkpt><trkpt lat="40.534781835222006" lon="9.04404507601737"><ele>616.0</ele><time>2026-03-27T12:14:59Z</time></trkpt><trkpt lat="40.53465049985828" lon="9.043988128854375"><ele>616.0</ele><time>2026-03-27T12:15:00Z</time></trkpt><trkpt lat="40.534541466615366" lon="9.043913071678345"><ele>616.0</ele><time>2026-03-27T12:15:01Z</time></trkpt><trkpt lat="40.53445973831451" lon="9.043832276817959"><ele>616.0</ele><time>2026-03-27T12:15:02Z</time></trkpt><trkpt lat="40.534379833374196" lon="9.0437163015924"><ele>617.0</ele><time>2026-03-27T12:15:03Z</time></trkpt><trkpt lat="40.53429736763019" lon="9.043595394829019"><ele>618.0</ele><time>2026-03-27T12:15:04Z</time></trkpt><trkpt lat="40.53419981882194" lon="9.043474040320179"><ele>619.0</ele><time>2026-03-27T12:15:05Z</time></trkpt><trkpt lat="40.53409419104404" lon="9.043359748747468"><ele>620.0</ele><time>2026-03-27T12:15:06Z</time></trkpt><trkpt lat="40.53397970228388" lon="9.043247854214254"><ele>620.0</ele><time>2026-03-27T12:15:07Z</time></trkpt><trkpt lat="40.5338617473049" lon="9.043142935664203"><ele>620.0</ele><time>2026-03-27T12:15:08Z</time></trkpt><trkpt lat="40.53374349220282" lon="9.043033025719783"><ele>620.0</ele><time>2026-03-27T12:15:09Z</time></trkpt><trkpt lat="40.533625700855545" lon="9.04291679639415"><ele>620.0</ele><time>2026-03-27T12:15:10Z</time></trkpt><trkpt lat="40.533507886591316" lon="9.042797520478825"><ele>620.5</ele><time>2026-03-27T12:15:11Z</time></trkpt><trkpt lat="40.53339080216178" lon="9.042680258747627"><ele>621.0</ele><time>2026-03-27T12:15:12Z</time></trkpt><trkpt lat="40.53326930971762" lon="9.042561960473243"><ele>621.5</ele><time>2026-03-27T12:15:13Z</time></trkpt><trkpt lat="40.53314998179618" lon="9.042440335986944"><ele>622.0</ele><time>2026-03-27T12:15:13.999Z</time></trkpt><trkpt lat="40.53302566519351" lon="9.042314153995562"><ele>623.0</ele><time>2026-03-27T12:15:14.999Z</time></trkpt><trkpt lat="40.5328868280724" lon="9.042196285948329"><ele>624.0</ele><time>2026-03-27T12:15:15.999Z</time></trkpt><trkpt lat="40.532745616458094" lon="9.042087883289012"><ele>625.0</ele><time>2026-03-27T12:15:16.999Z</time></trkpt><trkpt lat="40.53261309650516" lon="9.04199377300527"><ele>625.0</ele><time>2026-03-27T12:15:17.999Z</time></trkpt><trkpt lat="40.53248396006422" lon="9.041910496240464"><ele>625.0</ele><time>2026-03-27T12:15:18.999Z</time></trkpt><trkpt lat="40.5323611346784" lon="9.041828018943008"><ele>625.0</ele><time>2026-03-27T12:15:19.999Z</time></trkpt><trkpt lat="40.53225890639485" lon="9.041748029968746"><ele>625.0</ele><time>2026-03-27T12:15:20.999Z</time></trkpt><trkpt lat="40.53217824201027" lon="9.041670488696834"><ele>625.0</ele><time>2026-03-27T12:15:21.999Z</time></trkpt><trkpt lat="40.53210102027476" lon="9.041594885987319"><ele>625.0</ele><time>2026-03-27T12:15:22.999Z</time></trkpt><trkpt lat="40.53203144525981" lon="9.04152897291479"><ele>625.0</ele><time>2026-03-27T12:15:23.999Z</time></trkpt><trkpt lat="40.53197554104647" lon="9.04147338271536"><ele>625.0</ele><time>2026-03-27T12:15:24.999Z</time></trkpt><trkpt lat="40.53190839396697" lon="9.04146353737399"><ele>625.0</ele><time>2026-03-27T12:15:27.999Z</time></trkpt><trkpt lat="40.531836548769206" lon="9.04152191228285"><ele>625.0</ele><time>2026-03-27T12:15:30.999Z</time></trkpt><trkpt lat="40.53174889582873" lon="9.041446182851065"><ele>625.2</ele><time>2026-03-27T12:15:32.999Z</time></trkpt><trkpt lat="40.53163025478763" lon="9.041408557996634"><ele>625.4</ele><time>2026-03-27T12:15:34.999Z</time></trkpt><trkpt lat="40.531514287504734" lon="9.041385446257935"><ele>625.6</ele><time>2026-03-27T12:15:36.999Z</time></trkpt><trkpt lat="40.53144026773917" lon="9.041391742744668"><ele>625.8</ele><time>2026-03-27T12:15:37.999Z</time></trkpt><trkpt lat="40.531362710141835" lon="9.041388032644326"><ele>626.0</ele><time>2026-03-27T12:15:38.999Z</time></trkpt><trkpt lat="40.5312860279045" lon="9.041369410680216"><ele>625.4</ele><time>2026-03-27T12:15:39.999Z</time></trkpt><trkpt lat="40.53119619447175" lon="9.041350117215286"><ele>624.8</ele><time>2026-03-27T12:15:40.999Z</time></trkpt><trkpt lat="40.53109629147267" lon="9.041326850232007"><ele>624.1999999999999</ele><time>2026-03-27T12:15:41.999Z</time></trkpt><trkpt lat="40.53099460555345" lon="9.04128354391155"><ele>623.6</ele><time>2026-03-27T12:15:42.999Z</time></trkpt><trkpt lat="40.53088122103632" lon="9.041219742287355"><ele>623.0</ele><time>2026-03-27T12:15:43.999Z</time></trkpt><trkpt lat="40.53075633852086" lon="9.04115075966046"><ele>623.0</ele><time>2026-03-27T12:15:44.999Z</time></trkpt><trkpt lat="40.53062779941289" lon="9.041076921893579"><ele>623.0</ele><time>2026-03-27T12:15:45.999Z</time></trkpt><trkpt lat="40.53049741168689" lon="9.040993388508943"><ele>623.0</ele><time>2026-03-27T12:15:46.999Z</time></trkpt><trkpt lat="40.530375473283115" lon="9.040916576707149"><ele>623.0</ele><time>2026-03-27T12:15:47.999Z</time></trkpt><trkpt lat="40.53025253635175" lon="9.040819544439051"><ele>622.25</ele><time>2026-03-27T12:15:48.999Z</time></trkpt><trkpt lat="40.53012647438472" lon="9.040721598192563"><ele>621.5</ele><time>2026-03-27T12:15:49.999Z</time></trkpt><trkpt lat="40.530013945671335" lon="9.040637664095083"><ele>620.75</ele><time>2026-03-27T12:15:50.999Z</time></trkpt><trkpt lat="40.529895096063754" lon="9.040561464428267"><ele>620.0</ele><time>2026-03-27T12:15:51.999Z</time></trkpt><trkpt lat="40.52975930025404" lon="9.040486080179042"><ele>620.0</ele><time>2026-03-27T12:15:52.999Z</time></trkpt><trkpt lat="40.529638861667806" lon="9.040427742921478"><ele>620.0</ele><time>2026-03-27T12:15:53.999Z</time></trkpt><trkpt lat="40.529538683590964" lon="9.04037754562532"><ele>620.0</ele><time>2026-03-27T12:15:54.999Z</time></trkpt><trkpt lat="40.52945652753439" lon="9.040350727183387"><ele>620.0</ele><time>2026-03-27T12:15:55.999Z</time></trkpt><trkpt lat="40.529386929642" lon="9.040358648107537"><ele>620.0</ele><time>2026-03-27T12:15:56.999Z</time></trkpt><trkpt lat="40.529282210526794" lon="9.040355225143124"><ele>619.2</ele><time>2026-03-27T12:15:58.999Z</time></trkpt><trkpt lat="40.529246187988186" lon="9.04022822382752"><ele>618.4</ele><time>2026-03-27T12:16:00.999Z</time></trkpt><trkpt lat="40.52927225863578" lon="9.040108157978873"><ele>617.6</ele><time>2026-03-27T12:16:01.999Z</time></trkpt><trkpt lat="40.52928566209343" lon="9.039977228957374"><ele>616.8</ele><time>2026-03-27T12:16:02.999Z</time></trkpt><trkpt lat="40.52929141334661" lon="9.039867305877564"><ele>616.0</ele><time>2026-03-27T12:16:03.999Z</time></trkpt><trkpt lat="40.529292568432666" lon="9.039775657161762"><ele>616.0</ele><time>2026-03-27T12:16:04.998Z</time></trkpt><trkpt lat="40.52923313204977" lon="9.039678474956984"><ele>616.0</ele><time>2026-03-27T12:16:06.998Z</time></trkpt><trkpt lat="40.52915074451096" lon="9.039740323329013"><ele>616.0</ele><time>2026-03-27T12:16:08.998Z</time></trkpt><trkpt lat="40.52912698498042" lon="9.039860071168777"><ele>616.0</ele><time>2026-03-27T12:16:09.998Z</time></trkpt><trkpt lat="40.52912710422397" lon="9.039994426219499"><ele>616.0</ele><time>2026-03-27T12:16:10.998Z</time></trkpt><trkpt lat="40.529120450077215" lon="9.040091108224447"><ele>616.0</ele><time>2026-03-27T12:16:11.998Z</time></trkpt><trkpt lat="40.52903419527268" lon="9.040187130442533"><ele>616.0</ele><time>2026-03-27T12:16:13.998Z</time></trkpt><trkpt lat="40.528965178873996" lon="9.040179043865692"><ele>616.0</ele><time>2026-03-27T12:16:14.998Z</time></trkpt><trkpt lat="40.52889350174984" lon="9.04002307082256"><ele>616.0</ele><time>2026-03-27T12:16:16.998Z</time></trkpt><trkpt lat="40.52887674365791" lon="9.03992494007856"><ele>616.0</ele><time>2026-03-27T12:16:17.998Z</time></trkpt><trkpt lat="40.52882771344076" lon="9.039844559269849"><ele>615.5</ele><time>2026-03-27T12:16:18.998Z</time></trkpt><trkpt lat="40.52875208061361" lon="9.039755935992748"><ele>615.0</ele><time>2026-03-27T12:16:19.998Z</time></trkpt><trkpt lat="40.528655128922836" lon="9.039651662421207"><ele>614.5</ele><time>2026-03-27T12:16:20.998Z</time></trkpt><trkpt lat="40.5285403695843" lon="9.039556487596998"><ele>614.0</ele><time>2026-03-27T12:16:21.998Z</time></trkpt><trkpt lat="40.5284016084895" lon="9.039463289378334"><ele>612.5</ele><time>2026-03-27T12:16:22.998Z</time></trkpt><trkpt lat="40.52827657407191" lon="9.039390484453179"><ele>611.0</ele><time>2026-03-27T12:16:23.998Z</time></trkpt><trkpt lat="40.52814286129247" lon="9.039345969938863"><ele>609.5</ele><time>2026-03-27T12:16:24.998Z</time></trkpt><trkpt lat="40.52802176217433" lon="9.039304512237434"><ele>608.0</ele><time>2026-03-27T12:16:25.998Z</time></trkpt><trkpt lat="40.52790024927963" lon="9.039250326320348"><ele>609.5</ele><time>2026-03-27T12:16:26.998Z</time></trkpt><trkpt lat="40.52778259398249" lon="9.039190501893215"><ele>611.0</ele><time>2026-03-27T12:16:27.998Z</time></trkpt><trkpt lat="40.52768053014634" lon="9.039137030158017"><ele>612.5</ele><time>2026-03-27T12:16:28.998Z</time></trkpt><trkpt lat="40.52756879586503" lon="9.039079052021075"><ele>614.0</ele><time>2026-03-27T12:16:29.998Z</time></trkpt><trkpt lat="40.52745387095788" lon="9.038992683494968"><ele>611.0</ele><time>2026-03-27T12:16:30.998Z</time></trkpt><trkpt lat="40.52734741686401" lon="9.038888164702984"><ele>608.0</ele><time>2026-03-27T12:16:31.998Z</time></trkpt><trkpt lat="40.527249611505965" lon="9.03877809899929"><ele>605.0</ele><time>2026-03-27T12:16:32.998Z</time></trkpt><trkpt lat="40.52716878504916" lon="9.038672531168649"><ele>602.0</ele><time>2026-03-27T12:16:33.998Z</time></trkpt><trkpt lat="40.527107981981665" lon="9.038547391707464"><ele>602.0</ele><time>2026-03-27T12:16:35Z</time></trkpt><trkpt lat="40.527076893189864" lon="9.038391323664534"><ele>602.0</ele><time>2026-03-27T12:16:36Z</time></trkpt><trkpt lat="40.52704666265129" lon="9.038251991063479"><ele>602.0</ele><time>2026-03-27T12:16:37Z</time></trkpt><trkpt lat="40.52698959060267" lon="9.03810956098977"><ele>602.0</ele><time>2026-03-27T12:16:38Z</time></trkpt><trkpt lat="40.526904831745505" lon="9.037952792345973"><ele>601.3333333333333</ele><time>2026-03-27T12:16:39Z</time></trkpt><trkpt lat="40.52679942593115" lon="9.03779374715253"><ele>600.6666666666666</ele><time>2026-03-27T12:16:40Z</time></trkpt><trkpt lat="40.526682205332435" lon="9.037645936090598"><ele>600.0</ele><time>2026-03-27T12:16:41Z</time></trkpt><trkpt lat="40.52654964941141" lon="9.03751519106383"><ele>599.0</ele><time>2026-03-27T12:16:42Z</time></trkpt><trkpt lat="40.52640454077182" lon="9.037394708179537"><ele>598.0</ele><time>2026-03-27T12:16:43Z</time></trkpt><trkpt lat="40.52626704413572" lon="9.037284057699713"><ele>597.0</ele><time>2026-03-27T12:16:44Z</time></trkpt><trkpt lat="40.52615483928966" lon="9.037185366632453"><ele>598.8000000000001</ele><time>2026-03-27T12:16:45Z</time></trkpt><trkpt lat="40.526076819639535" lon="9.037095633337046"><ele>600.6</ele><time>2026-03-27T12:16:46Z</time></trkpt><trkpt lat="40.52602111951736" lon="9.037026968551064"><ele>602.4000000000001</ele><time>2026-03-27T12:16:47Z</time></trkpt><trkpt lat="40.52597977086794" lon="9.03691546015428"><ele>604.2</ele><time>2026-03-27T12:16:48Z</time></trkpt><trkpt lat="40.52593423840555" lon="9.036799151762875"><ele>606.0</ele><time>2026-03-27T12:16:49Z</time></trkpt><trkpt lat="40.525852717147906" lon="9.036731961185424"><ele>606.0</ele><time>2026-03-27T12:16:50Z</time></trkpt><trkpt lat="40.52578254180912" lon="9.036700660980948"><ele>606.0</ele><time>2026-03-27T12:16:51Z</time></trkpt><trkpt lat="40.52573793247874" lon="9.036620930574705"><ele>606.0</ele><time>2026-03-27T12:16:52Z</time></trkpt><trkpt lat="40.5257466884685" lon="9.036504627351196"><ele>606.0</ele><time>2026-03-27T12:16:53Z</time></trkpt><trkpt lat="40.52578898711704" lon="9.03635788830731"><ele>606.0</ele><time>2026-03-27T12:16:54Z</time></trkpt><trkpt lat="40.525830624430725" lon="9.036189987462611"><ele>604.0</ele><time>2026-03-27T12:16:55Z</time></trkpt><trkpt lat="40.52584150182569" lon="9.036021818182636"><ele>602.0</ele><time>2026-03-27T12:16:56Z</time></trkpt><trkpt lat="40.525811120411504" lon="9.035791659873691"><ele>600.0</ele><time>2026-03-27T12:16:57Z</time></trkpt><trkpt lat="40.52581424618257" lon="9.035554883654278"><ele>599.5</ele><time>2026-03-27T12:16:58Z</time></trkpt><trkpt lat="40.52581508395604" lon="9.035366448506139"><ele>599.0</ele><time>2026-03-27T12:16:59Z</time></trkpt><trkpt lat="40.52579468042378" lon="9.035210918758574"><ele>598.5</ele><time>2026-03-27T12:17:00Z</time></trkpt><trkpt lat="40.52573586492718" lon="9.035021611011024"><ele>598.0</ele><time>2026-03-27T12:17:01Z</time></trkpt><trkpt lat="40.52565770791158" lon="9.034826128410906"><ele>596.6666666666667</ele><time>2026-03-27T12:17:02Z</time></trkpt><trkpt lat="40.52556601481779" lon="9.034617137644402"><ele>595.3333333333334</ele><time>2026-03-27T12:17:03Z</time></trkpt><trkpt lat="40.52547946748123" lon="9.034451122477172"><ele>594.0</ele><time>2026-03-27T12:17:04Z</time></trkpt><trkpt lat="40.525398692108325" lon="9.03430689982604"><ele>594.2</ele><time>2026-03-27T12:17:05Z</time></trkpt><trkpt lat="40.52532525077438" lon="9.034170358676997"><ele>594.4</ele><time>2026-03-27T12:17:06Z</time></trkpt><trkpt lat="40.525252841871286" lon="9.034054575224337"><ele>594.6</ele><time>2026-03-27T12:17:07Z</time></trkpt><trkpt lat="40.52518046926623" lon="9.033949632671288"><ele>594.8</ele><time>2026-03-27T12:17:08Z</time></trkpt><trkpt lat="40.52511147532919" lon="9.033863218256107"><ele>595.0</ele><time>2026-03-27T12:17:09Z</time></trkpt><trkpt lat="40.52504233969672" lon="9.033779678348338"><ele>595.0</ele><time>2026-03-27T12:17:10Z</time></trkpt><trkpt lat="40.52496376407833" lon="9.03371331892826"><ele>595.0</ele><time>2026-03-27T12:17:11Z</time></trkpt><trkpt lat="40.52489155141083" lon="9.033662077634306"><ele>595.0</ele><time>2026-03-27T12:17:12Z</time></trkpt><trkpt lat="40.52482790811728" lon="9.033600444201047"><ele>595.0</ele><time>2026-03-27T12:17:13Z</time></trkpt><trkpt lat="40.524761761347705" lon="9.033538465217283"><ele>595.0</ele><time>2026-03-27T12:17:14Z</time></trkpt><trkpt lat="40.52468928053623" lon="9.033501624328654"><ele>595.0</ele><time>2026-03-27T12:17:15Z</time></trkpt><trkpt lat="40.52462018019409" lon="9.03349712035749"><ele>597.4</ele><time>2026-03-27T12:17:15.999Z</time></trkpt><trkpt lat="40.524550403497926" lon="9.033490495578363"><ele>599.8</ele><time>2026-03-27T12:17:16.999Z</time></trkpt><trkpt lat="40.52443649115332" lon="9.033465481194156"><ele>602.2</ele><time>2026-03-27T12:17:18.999Z</time></trkpt><trkpt lat="40.52432423989689" lon="9.033515572065314"><ele>604.6</ele><time>2026-03-27T12:17:20.999Z</time></trkpt><trkpt lat="40.524284737610536" lon="9.033580696422149"><ele>607.0</ele><time>2026-03-27T12:17:21.999Z</time></trkpt><trkpt lat="40.52422498015001" lon="9.033701655597547"><ele>607.0</ele><time>2026-03-27T12:17:23.999Z</time></trkpt><trkpt lat="40.524142053906544" lon="9.033778328572229"><ele>607.0</ele><time>2026-03-27T12:17:24.999Z</time></trkpt><trkpt lat="40.52405779724404" lon="9.033847771486247"><ele>607.0</ele><time>2026-03-27T12:17:25.999Z</time></trkpt><trkpt lat="40.5239720367119" lon="9.033912624440331"><ele>607.0</ele><time>2026-03-27T12:17:26.999Z</time></trkpt><trkpt lat="40.523875964474456" lon="9.033993680836234"><ele>607.0</ele><time>2026-03-27T12:17:27.999Z</time></trkpt><trkpt lat="40.523782849543466" lon="9.03404891263815"><ele>609.0</ele><time>2026-03-27T12:17:28.999Z</time></trkpt><trkpt lat="40.523690385322325" lon="9.034099640834542"><ele>611.0</ele><time>2026-03-27T12:17:29.999Z</time></trkpt><trkpt lat="40.52360286309131" lon="9.034122671952497"><ele>613.0</ele><time>2026-03-27T12:17:30.999Z</time></trkpt><trkpt lat="40.523521837610545" lon="9.034151559101835"><ele>615.0</ele><time>2026-03-27T12:17:31.999Z</time></trkpt><trkpt lat="40.52343927208436" lon="9.034204621782154"><ele>617.0</ele><time>2026-03-27T12:17:32.999Z</time></trkpt><trkpt lat="40.52335411327861" lon="9.03428989225676"><ele>620.2</ele><time>2026-03-27T12:17:33.999Z</time></trkpt><trkpt lat="40.523280370776206" lon="9.034380880216847"><ele>623.4000000000001</ele><time>2026-03-27T12:17:34.999Z</time></trkpt><trkpt lat="40.523201069810575" lon="9.034462671629326"><ele>626.5999999999999</ele><time>2026-03-27T12:17:35.999Z</time></trkpt><trkpt lat="40.523103379051776" lon="9.034513457699184"><ele>629.8</ele><time>2026-03-27T12:17:36.999Z</time></trkpt><trkpt lat="40.52303913548737" lon="9.034540175655556"><ele>633.0</ele><time>2026-03-27T12:17:37.999Z</time></trkpt><trkpt lat="40.52296575282125" lon="9.034593306842115"><ele>633.0</ele><time>2026-03-27T12:17:39.999Z</time></trkpt><trkpt lat="40.522917565600224" lon="9.034508364319713"><ele>633.0</ele><time>2026-03-27T12:17:42.999Z</time></trkpt><trkpt lat="40.522971873631" lon="9.034336598622644"><ele>633.0</ele><time>2026-03-27T12:17:44.999Z</time></trkpt><trkpt lat="40.5230102393918" lon="9.034211429312329"><ele>633.0</ele><time>2026-03-27T12:17:45.999Z</time></trkpt><trkpt lat="40.523069815604195" lon="9.03408689174386"><ele>633.0</ele><time>2026-03-27T12:17:46.999Z</time></trkpt><trkpt lat="40.523117017914636" lon="9.033969440475547"><ele>630.3333333333334</ele><time>2026-03-27T12:17:47.999Z</time></trkpt><trkpt lat="40.52315516375648" lon="9.033884981904253"><ele>627.6666666666666</ele><time>2026-03-27T12:17:48.999Z</time></trkpt><trkpt lat="40.5231817681499" lon="9.033806182601287"><ele>625.0</ele><time>2026-03-27T12:17:49.999Z</time></trkpt><trkpt lat="40.52314705390114" lon="9.03368663282707"><ele>622.3333333333333</ele><time>2026-03-27T12:17:51.999Z</time></trkpt><trkpt lat="40.523088426682264" lon="9.03364900718965"><ele>619.6666666666666</ele><time>2026-03-27T12:17:52.999Z</time></trkpt><trkpt lat="40.52301185851091" lon="9.033623991642521"><ele>617.0</ele><time>2026-03-27T12:17:53.999Z</time></trkpt><trkpt lat="40.5229220929245" lon="9.033598381846362"><ele>619.8000000000001</ele><time>2026-03-27T12:17:54.999Z</time></trkpt><trkpt lat="40.52283367866627" lon="9.033569340878385"><ele>622.6</ele><time>2026-03-27T12:17:55.999Z</time></trkpt><trkpt lat="40.52275406846339" lon="9.033557541104841"><ele>625.4000000000001</ele><time>2026-03-27T12:17:56.999Z</time></trkpt><trkpt lat="40.52265225887348" lon="9.03356083767385"><ele>628.2</ele><time>2026-03-27T12:17:57.999Z</time></trkpt><trkpt lat="40.52254073786656" lon="9.033576027824315"><ele>631.0</ele><time>2026-03-27T12:17:58.999Z</time></trkpt><trkpt lat="40.522426820511505" lon="9.03357842203349"><ele>631.0</ele><time>2026-03-27T12:17:59.999Z</time></trkpt><trkpt lat="40.52230645754135" lon="9.033576571913596"><ele>631.0</ele><time>2026-03-27T12:18:00.999Z</time></trkpt><trkpt lat="40.52219712362725" lon="9.033559434284344"><ele>631.0</ele><time>2026-03-27T12:18:01.999Z</time></trkpt><trkpt lat="40.522077713581986" lon="9.033524885351754"><ele>631.0</ele><time>2026-03-27T12:18:02.999Z</time></trkpt><trkpt lat="40.52195109934875" lon="9.03349354730498"><ele>631.1666666666667</ele><time>2026-03-27T12:18:03.999Z</time></trkpt><trkpt lat="40.52183677087959" lon="9.033462062376415"><ele>631.3333333333334</ele><time>2026-03-27T12:18:04.999Z</time></trkpt><trkpt lat="40.52173863948001" lon="9.033423209574316"><ele>631.5</ele><time>2026-03-27T12:18:05.999Z</time></trkpt><trkpt lat="40.521663489155216" lon="9.033382095666907"><ele>631.6666666666666</ele><time>2026-03-27T12:18:06.998Z</time></trkpt><trkpt lat="40.5216035590826" lon="9.033337832555139"><ele>631.8333333333333</ele><time>2026-03-27T12:18:07.998Z</time></trkpt><trkpt lat="40.521555355804686" lon="9.033268762138402"><ele>632.0</ele><time>2026-03-27T12:18:08.998Z</time></trkpt><trkpt lat="40.521527207699954" lon="9.0331781372968"><ele>632.0</ele><time>2026-03-27T12:18:09.998Z</time></trkpt><trkpt lat="40.52152795748967" lon="9.033065985415853"><ele>632.0</ele><time>2026-03-27T12:18:10.998Z</time></trkpt><trkpt lat="40.521520841064955" lon="9.032970723020435"><ele>632.0</ele><time>2026-03-27T12:18:11.998Z</time></trkpt><trkpt lat="40.521482488043894" lon="9.03288961248895"><ele>632.0</ele><time>2026-03-27T12:18:12.998Z</time></trkpt><trkpt lat="40.521422302448094" lon="9.032842971519262"><ele>632.0</ele><time>2026-03-27T12:18:13.998Z</time></trkpt><trkpt lat="40.52135078106749" lon="9.032835684453792"><ele>632.0</ele><time>2026-03-27T12:18:14.998Z</time></trkpt><trkpt lat="40.52126924067222" lon="9.032850384308988"><ele>631.2</ele><time>2026-03-27T12:18:15.998Z</time></trkpt><trkpt lat="40.52119640202909" lon="9.032899378329223"><ele>630.4000000000001</ele><time>2026-03-27T12:18:16.998Z</time></trkpt><trkpt lat="40.52112587452718" lon="9.032978787181008"><ele>629.5999999999999</ele><time>2026-03-27T12:18:17.998Z</time></trkpt><trkpt lat="40.52104067660412" lon="9.033051521220969"><ele>628.8</ele><time>2026-03-27T12:18:18.998Z</time></trkpt><trkpt lat="40.5209451164857" lon="9.033121032873753"><ele>628.0</ele><time>2026-03-27T12:18:19.998Z</time></trkpt><trkpt lat="40.52083027766073" lon="9.033185959930634"><ele>628.0</ele><time>2026-03-27T12:18:20.998Z</time></trkpt><trkpt lat="40.52071698093121" lon="9.033260135545461"><ele>628.0</ele><time>2026-03-27T12:18:21.998Z</time></trkpt><trkpt lat="40.52061938452911" lon="9.033329646383697"><ele>628.0</ele><time>2026-03-27T12:18:22.998Z</time></trkpt><trkpt lat="40.520551981418706" lon="9.033396418039521"><ele>628.0</ele><time>2026-03-27T12:18:23.998Z</time></trkpt><trkpt lat="40.520491101236594" lon="9.033480104362352"><ele>628.0</ele><time>2026-03-27T12:18:24.998Z</time></trkpt><trkpt lat="40.52042636206198" lon="9.033563300410432"><ele>633.4</ele><time>2026-03-27T12:18:25.998Z</time></trkpt><trkpt lat="40.52034463241973" lon="9.033616659850674"><ele>638.8</ele><time>2026-03-27T12:18:26.998Z</time></trkpt><trkpt lat="40.520229431598736" lon="9.033644534064535"><ele>644.2</ele><time>2026-03-27T12:18:27.998Z</time></trkpt><trkpt lat="40.520111728865956" lon="9.033653213057375"><ele>649.6</ele><time>2026-03-27T12:18:28.998Z</time></trkpt><trkpt lat="40.52001597532635" lon="9.033667549534318"><ele>655.0</ele><time>2026-03-27T12:18:29.998Z</time></trkpt><trkpt lat="40.51993965830312" lon="9.033662982472105"><ele>655.0</ele><time>2026-03-27T12:18:30.998Z</time></trkpt><trkpt lat="40.51986870270813" lon="9.033612365521348"><ele>655.0</ele><time>2026-03-27T12:18:32.998Z</time></trkpt><trkpt lat="40.519805040510725" lon="9.03349454543048"><ele>655.0</ele><time>2026-03-27T12:18:34.998Z</time></trkpt><trkpt lat="40.51978699670085" lon="9.033390648188941"><ele>655.0</ele><time>2026-03-27T12:18:35.998Z</time></trkpt><trkpt lat="40.519772949974325" lon="9.033233866052322"><ele>655.0</ele><time>2026-03-27T12:18:36.998Z</time></trkpt><trkpt lat="40.519760879535895" lon="9.033068637477973"><ele>652.0</ele><time>2026-03-27T12:18:37.998Z</time></trkpt><trkpt lat="40.51975218544714" lon="9.03289117482938"><ele>649.0</ele><time>2026-03-27T12:18:38.998Z</time></trkpt><trkpt lat="40.519750176444724" lon="9.0327426017225"><ele>646.0</ele><time>2026-03-27T12:18:39.998Z</time></trkpt><trkpt lat="40.51974452766142" lon="9.032628188147545"><ele>643.0</ele><time>2026-03-27T12:18:41Z</time></trkpt><trkpt lat="40.51970423315726" lon="9.032508534645538"><ele>640.0</ele><time>2026-03-27T12:18:43Z</time></trkpt><trkpt lat="40.51964595649615" lon="9.032472475249703"><ele>640.8</ele><time>2026-03-27T12:18:44Z</time></trkpt><trkpt lat="40.51956578255622" lon="9.032456319675953"><ele>641.6</ele><time>2026-03-27T12:18:45Z</time></trkpt><trkpt lat="40.51946361313225" lon="9.032471467170426"><ele>642.4000000000001</ele><time>2026-03-27T12:18:46Z</time></trkpt><trkpt lat="40.519358682989164" lon="9.032463567257839"><ele>643.2</ele><time>2026-03-27T12:18:47Z</time></trkpt><trkpt lat="40.519235211405665" lon="9.032438335140888"><ele>644.0</ele><time>2026-03-27T12:18:48Z</time></trkpt><trkpt lat="40.51912177930881" lon="9.032424797854013"><ele>644.0</ele><time>2026-03-27T12:18:49Z</time></trkpt><trkpt lat="40.51903709136374" lon="9.032404655816205"><ele>644.0</ele><time>2026-03-27T12:18:50Z</time></trkpt><trkpt lat="40.51894938730279" lon="9.032305966672624"><ele>644.0</ele><time>2026-03-27T12:18:52Z</time></trkpt><trkpt lat="40.51891820339976" lon="9.032199025556718"><ele>644.0</ele><time>2026-03-27T12:18:53Z</time></trkpt><trkpt lat="40.51887832583613" lon="9.032125407991847"><ele>644.0</ele><time>2026-03-27T12:18:55Z</time></trkpt><trkpt lat="40.518800661176634" lon="9.03209092069271"><ele>644.0</ele><time>2026-03-27T12:18:59Z</time></trkpt><trkpt lat="40.518673402383165" lon="9.032107034049046"><ele>648.0</ele><time>2026-03-27T12:19:01Z</time></trkpt><trkpt lat="40.51859872900504" lon="9.032115377305496"><ele>652.0</ele><time>2026-03-27T12:19:02Z</time></trkpt><trkpt lat="40.51850369448887" lon="9.032131219964846"><ele>656.0</ele><time>2026-03-27T12:19:03Z</time></trkpt><trkpt lat="40.51841401572444" lon="9.032161387150452"><ele>660.0</ele><time>2026-03-27T12:19:04Z</time></trkpt><trkpt lat="40.51833766528617" lon="9.032182344950622"><ele>664.0</ele><time>2026-03-27T12:19:05Z</time></trkpt><trkpt lat="40.51823801156764" lon="9.032187009773086"><ele>668.0</ele><time>2026-03-27T12:19:07Z</time></trkpt><trkpt lat="40.51819836179117" lon="9.032045019228493"><ele>668.0</ele><time>2026-03-27T12:19:09Z</time></trkpt><trkpt lat="40.51823297962825" lon="9.0319635399132"><ele>668.0</ele><time>2026-03-27T12:19:10Z</time></trkpt><trkpt lat="40.51828068790331" lon="9.031848134918643"><ele>668.0</ele><time>2026-03-27T12:19:11Z</time></trkpt><trkpt lat="40.51831331121554" lon="9.031726491649692"><ele>668.0</ele><time>2026-03-27T12:19:12Z</time></trkpt><trkpt lat="40.51833606700435" lon="9.031628774138962"><ele>668.0</ele><time>2026-03-27T12:19:13Z</time></trkpt><trkpt lat="40.518302959733404" lon="9.03148157473727"><ele>667.8</ele><time>2026-03-27T12:19:15Z</time></trkpt><trkpt lat="40.51824630822145" lon="9.03141122618512"><ele>667.5999999999999</ele><time>2026-03-27T12:19:16Z</time></trkpt><trkpt lat="40.51811512541574" lon="9.031360368738184"><ele>667.4000000000001</ele><time>2026-03-27T12:19:17.999Z</time></trkpt><trkpt lat="40.51801778895159" lon="9.031356723991287"><ele>667.2</ele><time>2026-03-27T12:19:18.999Z</time></trkpt><trkpt lat="40.51794634903004" lon="9.031347081305615"><ele>667.0</ele><time>2026-03-27T12:19:19.999Z</time></trkpt><trkpt lat="40.51789734310611" lon="9.031272784779418"><ele>667.0</ele><time>2026-03-27T12:19:21.999Z</time></trkpt><trkpt lat="40.51791817956099" lon="9.031117220498574"><ele>667.0</ele><time>2026-03-27T12:19:23.999Z</time></trkpt><trkpt lat="40.517967671670775" lon="9.031030902997271"><ele>667.0</ele><time>2026-03-27T12:19:24.999Z</time></trkpt><trkpt lat="40.51801663764913" lon="9.030901241683255"><ele>667.0</ele><time>2026-03-27T12:19:25.999Z</time></trkpt><trkpt lat="40.518059364446835" lon="9.030769284358326"><ele>667.0</ele><time>2026-03-27T12:19:26.999Z</time></trkpt><trkpt lat="40.5180899512451" lon="9.030680084606301"><ele>666.8333333333334</ele><time>2026-03-27T12:19:27.999Z</time></trkpt><trkpt lat="40.51807466294306" lon="9.030542267807395"><ele>666.6666666666667</ele><time>2026-03-27T12:19:29.999Z</time></trkpt><trkpt lat="40.51802572654067" lon="9.030474146233052"><ele>666.5</ele><time>2026-03-27T12:19:30.999Z</time></trkpt><trkpt lat="40.51795324766333" lon="9.03040821973984"><ele>666.3333333333334</ele><time>2026-03-27T12:19:31.999Z</time></trkpt><trkpt lat="40.5178861440846" lon="9.030338030331968"><ele>666.1666666666666</ele><time>2026-03-27T12:19:32.999Z</time></trkpt><trkpt lat="40.51784526417749" lon="9.03026208020822"><ele>666.0</ele><time>2026-03-27T12:19:33.999Z</time></trkpt><trkpt lat="40.517844878359874" lon="9.030101318792147"><ele>667.8</ele><time>2026-03-27T12:19:35.999Z</time></trkpt><trkpt lat="40.51788069288953" lon="9.030001157523138"><ele>669.5999999999999</ele><time>2026-03-27T12:19:36.999Z</time></trkpt><trkpt lat="40.5179405556552" lon="9.029888717553876"><ele>671.4</ele><time>2026-03-27T12:19:37.999Z</time></trkpt><trkpt lat="40.51798415126682" lon="9.029801081092206"><ele>673.2</ele><time>2026-03-27T12:19:38.999Z</time></trkpt><trkpt lat="40.518011819224974" lon="9.029668961585356"><ele>675.0</ele><time>2026-03-27T12:19:40.999Z</time></trkpt><trkpt lat="40.517947135564725" lon="9.02956723364896"><ele>670.0</ele><time>2026-03-27T12:19:42.999Z</time></trkpt><trkpt lat="40.51785276071206" lon="9.029549308985601"><ele>665.0</ele><time>2026-03-27T12:19:43.999Z</time></trkpt><trkpt lat="40.51773586419673" lon="9.029537917293137"><ele>660.0</ele><time>2026-03-27T12:19:44.999Z</time></trkpt><trkpt lat="40.5176009576642" lon="9.029518833783914"><ele>655.0</ele><time>2026-03-27T12:19:45.999Z</time></trkpt><trkpt lat="40.51747746882068" lon="9.029506927650965"><ele>655.0</ele><time>2026-03-27T12:19:46.999Z</time></trkpt><trkpt lat="40.51736627086897" lon="9.029488460679666"><ele>655.0</ele><time>2026-03-27T12:19:47.999Z</time></trkpt><trkpt lat="40.517264773091995" lon="9.029465319342188"><ele>655.0</ele><time>2026-03-27T12:19:48.999Z</time></trkpt><trkpt lat="40.51719619033019" lon="9.029439030333915"><ele>655.0</ele><time>2026-03-27T12:19:49.999Z</time></trkpt><trkpt lat="40.5171571263447" lon="9.029339706691928"><ele>655.0</ele><time>2026-03-27T12:19:51.999Z</time></trkpt><trkpt lat="40.51716327489786" lon="9.029233263641396"><ele>656.6</ele><time>2026-03-27T12:19:52.999Z</time></trkpt><trkpt lat="40.51715271659959" lon="9.029134721985233"><ele>658.2</ele><time>2026-03-27T12:19:53.999Z</time></trkpt><trkpt lat="40.51711647872955" lon="9.0290241189882"><ele>659.8</ele><time>2026-03-27T12:19:54.999Z</time></trkpt><trkpt lat="40.517065589604364" lon="9.028901198976811"><ele>661.4</ele><time>2026-03-27T12:19:55.999Z</time></trkpt><trkpt lat="40.51700104691463" lon="9.028785803056211"><ele>663.0</ele><time>2026-03-27T12:19:56.999Z</time></trkpt><trkpt lat="40.51694314239025" lon="9.02868414685034"><ele>663.0</ele><time>2026-03-27T12:19:57.999Z</time></trkpt><trkpt lat="40.51688171320734" lon="9.028605415797326"><ele>663.0</ele><time>2026-03-27T12:19:58.999Z</time></trkpt><trkpt lat="40.51681558915599" lon="9.028558227481438"><ele>663.0</ele><time>2026-03-27T12:19:59.999Z</time></trkpt><trkpt lat="40.51673562270253" lon="9.028529105339018"><ele>663.0</ele><time>2026-03-27T12:20:00.999Z</time></trkpt><trkpt lat="40.516674666276245" lon="9.028502061444675"><ele>663.0</ele><time>2026-03-27T12:20:01.999Z</time></trkpt><trkpt lat="40.51660195842139" lon="9.028391373333358"><ele>663.0</ele><time>2026-03-27T12:20:03.999Z</time></trkpt><trkpt lat="40.51660542238102" lon="9.028299654807045"><ele>659.0</ele><time>2026-03-27T12:20:04.999Z</time></trkpt><trkpt lat="40.5166346951741" lon="9.028190165350443"><ele>655.0</ele><time>2026-03-27T12:20:05.999Z</time></trkpt><trkpt lat="40.51659921914949" lon="9.02803034998211"><ele>651.0</ele><time>2026-03-27T12:20:07.998Z</time></trkpt><trkpt lat="40.5165372874211" lon="9.02794998944536"><ele>647.0</ele><time>2026-03-27T12:20:08.998Z</time></trkpt><trkpt lat="40.51645972962459" lon="9.027871404971885"><ele>643.0</ele><time>2026-03-27T12:20:09.998Z</time></trkpt><trkpt lat="40.51638896994381" lon="9.027822892551216"><ele>643.0</ele><time>2026-03-27T12:20:10.998Z</time></trkpt><trkpt lat="40.51630784083483" lon="9.02780476046563"><ele>643.0</ele><time>2026-03-27T12:20:11.998Z</time></trkpt><trkpt lat="40.51619967225507" lon="9.027806664914909"><ele>643.0</ele><time>2026-03-27T12:20:12.998Z</time></trkpt><trkpt lat="40.51607557231499" lon="9.027813488495873"><ele>643.0</ele><time>2026-03-27T12:20:13.998Z</time></trkpt><trkpt lat="40.515963167040326" lon="9.027784950028591"><ele>643.0</ele><time>2026-03-27T12:20:14.998Z</time></trkpt><trkpt lat="40.51588676934359" lon="9.027755395056307"><ele>645.8</ele><time>2026-03-27T12:20:15.998Z</time></trkpt><trkpt lat="40.515774311834235" lon="9.027770891612597"><ele>648.5999999999999</ele><time>2026-03-27T12:20:17.998Z</time></trkpt><trkpt lat="40.51572607035775" lon="9.02783811000892"><ele>651.4000000000001</ele><time>2026-03-27T12:20:18.998Z</time></trkpt><trkpt lat="40.515686878997066" lon="9.027930229842736"><ele>654.2</ele><time>2026-03-27T12:20:19.998Z</time></trkpt><trkpt lat="40.515660835692316" lon="9.0280430022063"><ele>657.0</ele><time>2026-03-27T12:20:20.998Z</time></trkpt><trkpt lat="40.51564937567068" lon="9.028171762619063"><ele>660.25</ele><time>2026-03-27T12:20:21.998Z</time></trkpt><trkpt lat="40.515642980605975" lon="9.028326359917148"><ele>663.5</ele><time>2026-03-27T12:20:22.998Z</time></trkpt><trkpt lat="40.515639226947734" lon="9.0284955720742"><ele>666.75</ele><time>2026-03-27T12:20:23.998Z</time></trkpt><trkpt lat="40.515644768726865" lon="9.028645972865817"><ele>670.0</ele><time>2026-03-27T12:20:24.998Z</time></trkpt><trkpt lat="40.51564986163016" lon="9.028772384098268"><ele>670.0</ele><time>2026-03-27T12:20:25.998Z</time></trkpt><trkpt lat="40.51565710393912" lon="9.028889828101233"><ele>670.0</ele><time>2026-03-27T12:20:26.998Z</time></trkpt><trkpt lat="40.515661015851606" lon="9.028991434814223"><ele>670.0</ele><time>2026-03-27T12:20:27.998Z</time></trkpt><trkpt lat="40.515655375699644" lon="9.029080401966139"><ele>670.0</ele><time>2026-03-27T12:20:28.998Z</time></trkpt><trkpt lat="40.515624567812466" lon="9.029170449326159"><ele>670.0</ele><time>2026-03-27T12:20:29.998Z</time></trkpt><trkpt lat="40.515578281226134" lon="9.029266599601684"><ele>670.0</ele><time>2026-03-27T12:20:30.998Z</time></trkpt><trkpt lat="40.51554230758398" lon="9.029379149218414"><ele>671.1666666666667</ele><time>2026-03-27T12:20:31.998Z</time></trkpt><trkpt lat="40.515517323650194" lon="9.029488245271871"><ele>672.3333333333334</ele><time>2026-03-27T12:20:32.998Z</time></trkpt><trkpt lat="40.515506639672054" lon="9.029584305201404"><ele>673.5</ele><time>2026-03-27T12:20:33.998Z</time></trkpt><trkpt lat="40.51550930551452" lon="9.029686597735003"><ele>674.6666666666666</ele><time>2026-03-27T12:20:34.998Z</time></trkpt><trkpt lat="40.515508627661966" lon="9.029782308933084"><ele>675.8333333333333</ele><time>2026-03-27T12:20:35.998Z</time></trkpt><trkpt lat="40.51541558084951" lon="9.029913506791507"><ele>677.0</ele><time>2026-03-27T12:20:37.998Z</time></trkpt><trkpt lat="40.51532137508694" lon="9.029948836941339"><ele>675.0</ele><time>2026-03-27T12:20:38.998Z</time></trkpt><trkpt lat="40.51521731093843" lon="9.029975824353375"><ele>673.0</ele><time>2026-03-27T12:20:39.998Z</time></trkpt><trkpt lat="40.51513865163679" lon="9.030003885594864"><ele>671.0</ele><time>2026-03-27T12:20:40.998Z</time></trkpt><trkpt lat="40.51508309570889" lon="9.030047836285817"><ele>669.0</ele><time>2026-03-27T12:20:41.998Z</time></trkpt><trkpt lat="40.5150340838369" lon="9.030128006803377"><ele>667.0</ele><time>2026-03-27T12:20:42.998Z</time></trkpt><trkpt lat="40.515002756166076" lon="9.030234276968702"><ele>665.0</ele><time>2026-03-27T12:20:43.998Z</time></trkpt><trkpt lat="40.51497748089252" lon="9.030377881705208"><ele>665.0</ele><time>2026-03-27T12:20:44.998Z</time></trkpt><trkpt lat="40.514968440572716" lon="9.030524341179271"><ele>665.0</ele><time>2026-03-27T12:20:46Z</time></trkpt><trkpt lat="40.51497148057476" lon="9.030682170811122"><ele>665.0</ele><time>2026-03-27T12:20:47Z</time></trkpt><trkpt lat="40.5149647722028" lon="9.030818370807165"><ele>665.0</ele><time>2026-03-27T12:20:48Z</time></trkpt><trkpt lat="40.5149605999103" lon="9.030933392453509"><ele>665.0</ele><time>2026-03-27T12:20:49Z</time></trkpt><trkpt lat="40.51497716039068" lon="9.031034509711112"><ele>667.4</ele><time>2026-03-27T12:20:50Z</time></trkpt><trkpt lat="40.51501898793627" lon="9.031158481252039"><ele>669.8</ele><time>2026-03-27T12:20:51Z</time></trkpt><trkpt lat="40.51506164700623" lon="9.031290677304554"><ele>672.2</ele><time>2026-03-27T12:20:52Z</time></trkpt><trkpt lat="40.515077341402446" lon="9.031391327044346"><ele>674.6</ele><time>2026-03-27T12:20:53Z</time></trkpt><trkpt lat="40.51504720293153" lon="9.031530684740819"><ele>677.0</ele><time>2026-03-27T12:20:55Z</time></trkpt><trkpt lat="40.51490247797957" lon="9.031538217432377"><ele>677.0</ele><time>2026-03-27T12:20:57Z</time></trkpt><trkpt lat="40.51480085923981" lon="9.031495079587067"><ele>677.0</ele><time>2026-03-27T12:20:58Z</time></trkpt><trkpt lat="40.514701533106965" lon="9.031484011200469"><ele>677.0</ele><time>2026-03-27T12:20:59Z</time></trkpt><trkpt lat="40.514625466334174" lon="9.031498748874702"><ele>677.0</ele><time>2026-03-27T12:21:00Z</time></trkpt><trkpt lat="40.51456435137939" lon="9.031536578738178"><ele>677.0</ele><time>2026-03-27T12:21:01Z</time></trkpt><trkpt lat="40.51451173431305" lon="9.031582693847797"><ele>677.0</ele><time>2026-03-27T12:21:02Z</time></trkpt><trkpt lat="40.51445969705285" lon="9.031662769092687"><ele>675.6</ele><time>2026-03-27T12:21:03Z</time></trkpt><trkpt lat="40.51443401648875" lon="9.03175149481963"><ele>674.2</ele><time>2026-03-27T12:21:04Z</time></trkpt><trkpt lat="40.51442283691676" lon="9.031854503023528"><ele>672.8</ele><time>2026-03-27T12:21:05Z</time></trkpt><trkpt lat="40.51441896129477" lon="9.031993612139189"><ele>671.4</ele><time>2026-03-27T12:21:06Z</time></trkpt><trkpt lat="40.514421567566586" lon="9.03216338324618"><ele>670.0</ele><time>2026-03-27T12:21:07Z</time></trkpt><trkpt lat="40.514422103083476" lon="9.032334997671555"><ele>672.6</ele><time>2026-03-27T12:21:08Z</time></trkpt><trkpt lat="40.51441993420356" lon="9.03249192444803"><ele>675.2</ele><time>2026-03-27T12:21:09Z</time></trkpt><trkpt lat="40.51442402955877" lon="9.032618527384862"><ele>677.8</ele><time>2026-03-27T12:21:10Z</time></trkpt><trkpt lat="40.51442247336491" lon="9.032711902486266"><ele>680.4</ele><time>2026-03-27T12:21:11Z</time></trkpt><trkpt lat="40.514401752034615" lon="9.03279063770863"><ele>683.0</ele><time>2026-03-27T12:21:12Z</time></trkpt><trkpt lat="40.514288973215244" lon="9.03285725127186"><ele>683.0</ele><time>2026-03-27T12:21:14Z</time></trkpt><trkpt lat="40.514216677990234" lon="9.032835742395166"><ele>683.0</ele><time>2026-03-27T12:21:15Z</time></trkpt><trkpt lat="40.51416777274605" lon="9.032772758481853"><ele>683.0</ele><time>2026-03-27T12:21:16Z</time></trkpt><trkpt lat="40.51412817287393" lon="9.032675271108495"><ele>683.0</ele><time>2026-03-27T12:21:17Z</time></trkpt><trkpt lat="40.5140731714511" lon="9.032566352688201"><ele>683.0</ele><time>2026-03-27T12:21:18Z</time></trkpt><trkpt lat="40.513997663354765" lon="9.032442864140501"><ele>683.0</ele><time>2026-03-27T12:21:18.999Z</time></trkpt><trkpt lat="40.513920481914944" lon="9.032364687674256"><ele>681.1666666666666</ele><time>2026-03-27T12:21:19.999Z</time></trkpt><trkpt lat="40.51385063790354" lon="9.032318520447966"><ele>679.3333333333333</ele><time>2026-03-27T12:21:20.999Z</time></trkpt><trkpt lat="40.51378162852282" lon="9.032316246973416"><ele>677.5</ele><time>2026-03-27T12:21:21.999Z</time></trkpt><trkpt lat="40.51370480286077" lon="9.032347257461577"><ele>675.6666666666666</ele><time>2026-03-27T12:21:22.999Z</time></trkpt><trkpt lat="40.51362091269609" lon="9.032415008937194"><ele>673.8333333333334</ele><time>2026-03-27T12:21:23.999Z</time></trkpt><trkpt lat="40.513545726556416" lon="9.032455382208258"><ele>672.0</ele><time>2026-03-27T12:21:24.999Z</time></trkpt><trkpt lat="40.51348325020741" lon="9.032436892861133"><ele>672.0</ele><time>2026-03-27T12:21:25.999Z</time></trkpt><trkpt lat="40.51340638129387" lon="9.032285636776873"><ele>672.0</ele><time>2026-03-27T12:21:27.999Z</time></trkpt><trkpt lat="40.513347080248884" lon="9.032185750288038"><ele>672.0</ele><time>2026-03-27T12:21:28.999Z</time></trkpt><trkpt lat="40.51327523952043" lon="9.032127769437324"><ele>672.0</ele><time>2026-03-27T12:21:29.999Z</time></trkpt><trkpt lat="40.51320316841957" lon="9.032080312608473"><ele>672.0</ele><time>2026-03-27T12:21:30.999Z</time></trkpt><trkpt lat="40.51312722882293" lon="9.032047205131779"><ele>672.0</ele><time>2026-03-27T12:21:31.999Z</time></trkpt><trkpt lat="40.513044036005816" lon="9.032045840314845"><ele>672.0</ele><time>2026-03-27T12:21:32.999Z</time></trkpt><trkpt lat="40.51292243673316" lon="9.032059465634992"><ele>672.0</ele><time>2026-03-27T12:21:33.999Z</time></trkpt><trkpt lat="40.512824080764936" lon="9.032070551080045"><ele>672.0</ele><time>2026-03-27T12:21:34.999Z</time></trkpt><trkpt lat="40.51273183624705" lon="9.03208951250502"><ele>672.0</ele><time>2026-03-27T12:21:35.999Z</time></trkpt><trkpt lat="40.512640522205594" lon="9.032124250207152"><ele>671.1666666666666</ele><time>2026-03-27T12:21:36.999Z</time></trkpt><trkpt lat="40.512560699864174" lon="9.03217247697361"><ele>670.3333333333334</ele><time>2026-03-27T12:21:37.999Z</time></trkpt><trkpt lat="40.51251138146189" lon="9.032227397609214"><ele>669.5</ele><time>2026-03-27T12:21:38.999Z</time></trkpt><trkpt lat="40.51247842241752" lon="9.032303946739164"><ele>668.6666666666667</ele><time>2026-03-27T12:21:39.999Z</time></trkpt><trkpt lat="40.512473194597305" lon="9.032403896962506"><ele>667.8333333333334</ele><time>2026-03-27T12:21:40.999Z</time></trkpt><trkpt lat="40.51249733227816" lon="9.032532785872451"><ele>667.0</ele><time>2026-03-27T12:21:41.999Z</time></trkpt><trkpt lat="40.512545491481234" lon="9.032702346394172"><ele>669.0</ele><time>2026-03-27T12:21:42.999Z</time></trkpt><trkpt lat="40.51259101063742" lon="9.032855642630576"><ele>671.0</ele><time>2026-03-27T12:21:43.999Z</time></trkpt><trkpt lat="40.512621911769905" lon="9.032971380463996"><ele>673.0</ele><time>2026-03-27T12:21:44.999Z</time></trkpt><trkpt lat="40.51263535074616" lon="9.033068385112955"><ele>675.0</ele><time>2026-03-27T12:21:45.999Z</time></trkpt><trkpt lat="40.51257198850888" lon="9.033208920252871"><ele>677.0</ele><time>2026-03-27T12:21:47.999Z</time></trkpt><trkpt lat="40.51249160763266" lon="9.033253980289562"><ele>677.0</ele><time>2026-03-27T12:21:48.999Z</time></trkpt><trkpt lat="40.512380674776466" lon="9.033296243884513"><ele>677.0</ele><time>2026-03-27T12:21:49.999Z</time></trkpt><trkpt lat="40.5122954727952" lon="9.033343103372244"><ele>677.0</ele><time>2026-03-27T12:21:50.999Z</time></trkpt><trkpt lat="40.512237537146106" lon="9.03341731260586"><ele>677.0</ele><time>2026-03-27T12:21:51.999Z</time></trkpt><trkpt lat="40.51217194140167" lon="9.033593899612196"><ele>677.0</ele><time>2026-03-27T12:21:53.999Z</time></trkpt><trkpt lat="40.51211784699069" lon="9.033736231557834"><ele>677.4000000000001</ele><time>2026-03-27T12:21:54.999Z</time></trkpt><trkpt lat="40.51205286963719" lon="9.033886638613417"><ele>677.8000000000001</ele><time>2026-03-27T12:21:55.999Z</time></trkpt><trkpt lat="40.511989169960486" lon="9.034017729324773"><ele>678.2</ele><time>2026-03-27T12:21:56.999Z</time></trkpt><trkpt lat="40.51194610068201" lon="9.034126129452302"><ele>678.6</ele><time>2026-03-27T12:21:57.999Z</time></trkpt><trkpt lat="40.511918200919666" lon="9.034248442959477"><ele>679.0</ele><time>2026-03-27T12:21:58.999Z</time></trkpt><trkpt lat="40.51191928610237" lon="9.034384418320505"><ele>679.0</ele><time>2026-03-27T12:21:59.999Z</time></trkpt><trkpt lat="40.51190593980134" lon="9.034473310236288"><ele>679.0</ele><time>2026-03-27T12:22:00.999Z</time></trkpt><trkpt lat="40.51179254561251" lon="9.0345599933779"><ele>679.0</ele><time>2026-03-27T12:22:02.999Z</time></trkpt><trkpt lat="40.51168274066938" lon="9.034585521905258"><ele>679.0</ele><time>2026-03-27T12:22:03.999Z</time></trkpt><trkpt lat="40.511580275599265" lon="9.034654424749341"><ele>679.0</ele><time>2026-03-27T12:22:04.999Z</time></trkpt><trkpt lat="40.51148913020543" lon="9.03477202558113"><ele>679.0</ele><time>2026-03-27T12:22:05.999Z</time></trkpt><trkpt lat="40.511416389336006" lon="9.034878884942104"><ele>679.0</ele><time>2026-03-27T12:22:06.999Z</time></trkpt><trkpt lat="40.511348558644926" lon="9.034988595301051"><ele>679.0</ele><time>2026-03-27T12:22:07.999Z</time></trkpt><trkpt lat="40.511317172632964" lon="9.035089943929883"><ele>679.0</ele><time>2026-03-27T12:22:08.999Z</time></trkpt><trkpt lat="40.51123516850122" lon="9.035167792925716"><ele>679.0</ele><time>2026-03-27T12:22:10.998Z</time></trkpt><trkpt lat="40.511131929912914" lon="9.035104093554356"><ele>681.0</ele><time>2026-03-27T12:22:12.998Z</time></trkpt><trkpt lat="40.511108154880986" lon="9.03500547244139"><ele>683.0</ele><time>2026-03-27T12:22:13.998Z</time></trkpt><trkpt lat="40.511076904934285" lon="9.034869425827917"><ele>685.0</ele><time>2026-03-27T12:22:14.998Z</time></trkpt><trkpt lat="40.51102052528837" lon="9.034721418248504"><ele>687.0</ele><time>2026-03-27T12:22:15.998Z</time></trkpt><trkpt lat="40.510975347186715" lon="9.034574952610974"><ele>689.0</ele><time>2026-03-27T12:22:16.998Z</time></trkpt><trkpt lat="40.51095525593096" lon="9.034428388785031"><ele>689.0</ele><time>2026-03-27T12:22:17.998Z</time></trkpt><trkpt lat="40.51095585728639" lon="9.034270449613063"><ele>689.0</ele><time>2026-03-27T12:22:18.998Z</time></trkpt><trkpt lat="40.51097086121015" lon="9.034088729601402"><ele>689.0</ele><time>2026-03-27T12:22:19.998Z</time></trkpt><trkpt lat="40.51099846339137" lon="9.033917292461375"><ele>689.0</ele><time>2026-03-27T12:22:20.998Z</time></trkpt><trkpt lat="40.51102473096835" lon="9.033781262715767"><ele>687.3333333333333</ele><time>2026-03-27T12:22:21.998Z</time></trkpt><trkpt lat="40.511030505479994" lon="9.033665928457777"><ele>685.6666666666666</ele><time>2026-03-27T12:22:22.998Z</time></trkpt><trkpt lat="40.51101253917367" lon="9.03357454385795"><ele>684.0</ele><time>2026-03-27T12:22:23.998Z</time></trkpt><trkpt lat="40.510971484987" lon="9.033505725931608"><ele>682.3333333333334</ele><time>2026-03-27T12:22:24.998Z</time></trkpt><trkpt lat="40.5109081654771" lon="9.033471112066579"><ele>680.6666666666667</ele><time>2026-03-27T12:22:25.998Z</time></trkpt><trkpt lat="40.51082235430563" lon="9.033474372924031"><ele>679.0</ele><time>2026-03-27T12:22:26.998Z</time></trkpt><trkpt lat="40.51072590001838" lon="9.033508647667624"><ele>679.0</ele><time>2026-03-27T12:22:27.998Z</time></trkpt><trkpt lat="40.51063864463565" lon="9.03358647130325"><ele>679.0</ele><time>2026-03-27T12:22:28.998Z</time></trkpt><trkpt lat="40.51057645463363" lon="9.033678149779174"><ele>679.0</ele><time>2026-03-27T12:22:29.998Z</time></trkpt><trkpt lat="40.51053564952003" lon="9.033795114109129"><ele>679.0</ele><time>2026-03-27T12:22:30.998Z</time></trkpt><trkpt lat="40.51048856071362" lon="9.033875474770333"><ele>679.0</ele><time>2026-03-27T12:22:31.998Z</time></trkpt><trkpt lat="40.51041064887755" lon="9.033925329047984"><ele>680.0</ele><time>2026-03-27T12:22:32.998Z</time></trkpt><trkpt lat="40.510308976073325" lon="9.033962771342615"><ele>681.0</ele><time>2026-03-27T12:22:33.998Z</time></trkpt><trkpt lat="40.51020588050837" lon="9.034013625801489"><ele>682.0</ele><time>2026-03-27T12:22:34.998Z</time></trkpt><trkpt lat="40.51011353697608" lon="9.034075478457865"><ele>683.0</ele><time>2026-03-27T12:22:35.998Z</time></trkpt><trkpt lat="40.51004769616729" lon="9.03415655659353"><ele>684.0</ele><time>2026-03-27T12:22:36.998Z</time></trkpt><trkpt lat="40.51000846719867" lon="9.034246091890255"><ele>684.0</ele><time>2026-03-27T12:22:37.998Z</time></trkpt><trkpt lat="40.50997202583055" lon="9.034390659459712"><ele>684.0</ele><time>2026-03-27T12:22:38.998Z</time></trkpt><trkpt lat="40.509949586737626" lon="9.034524781879774"><ele>684.0</ele><time>2026-03-27T12:22:39.998Z</time></trkpt><trkpt lat="40.50994955845445" lon="9.034621206326552"><ele>684.0</ele><time>2026-03-27T12:22:40.998Z</time></trkpt><trkpt lat="40.509977655389726" lon="9.034735978791266"><ele>684.0</ele><time>2026-03-27T12:22:41.998Z</time></trkpt><trkpt lat="40.510024646688755" lon="9.034880730714054"><ele>686.0</ele><time>2026-03-27T12:22:42.998Z</time></trkpt><trkpt lat="40.51005587820941" lon="9.035033852585526"><ele>688.0</ele><time>2026-03-27T12:22:43.998Z</time></trkpt><trkpt lat="40.51004639216972" lon="9.035187895538197"><ele>690.0</ele><time>2026-03-27T12:22:44.998Z</time></trkpt><trkpt lat="40.5100241035831" lon="9.035372686269099"><ele>692.0</ele><time>2026-03-27T12:22:45.998Z</time></trkpt><trkpt lat="40.51002186119169" lon="9.035539712151055"><ele>692.0</ele><time>2026-03-27T12:22:46.998Z</time></trkpt><trkpt lat="40.510013690863595" lon="9.035655927236247"><ele>692.0</ele><time>2026-03-27T12:22:47.998Z</time></trkpt><trkpt lat="40.509995843245704" lon="9.035737014624019"><ele>692.0</ele><time>2026-03-27T12:22:48.998Z</time></trkpt><trkpt lat="40.50990463979664" lon="9.035792343132787"><ele>692.0</ele><time>2026-03-27T12:22:50.998Z</time></trkpt><trkpt lat="40.50984560829623" lon="9.035753008117332"><ele>692.0</ele><time>2026-03-27T12:22:52Z</time></trkpt><trkpt lat="40.50979275670776" lon="9.035681790303721"><ele>692.0</ele><time>2026-03-27T12:22:53Z</time></trkpt><trkpt lat="40.509750551570896" lon="9.035564831902033"><ele>692.0</ele><time>2026-03-27T12:22:54Z</time></trkpt><trkpt lat="40.509698182055544" lon="9.0354488949954"><ele>692.0</ele><time>2026-03-27T12:22:55Z</time></trkpt><trkpt lat="40.50963113004158" lon="9.03535191510382"><ele>692.0</ele><time>2026-03-27T12:22:56Z</time></trkpt><trkpt lat="40.50955734166885" lon="9.035288257238314"><ele>692.0</ele><time>2026-03-27T12:22:57Z</time></trkpt><trkpt lat="40.50944743979109" lon="9.035238242791705"><ele>692.0</ele><time>2026-03-27T12:22:58Z</time></trkpt><trkpt lat="40.509312516044396" lon="9.035175601641456"><ele>691.2</ele><time>2026-03-27T12:22:59Z</time></trkpt><trkpt lat="40.50918331338434" lon="9.035097118776992"><ele>690.4000000000001</ele><time>2026-03-27T12:23:00Z</time></trkpt><trkpt lat="40.50906392939795" lon="9.035041922913196"><ele>689.5999999999999</ele><time>2026-03-27T12:23:01Z</time></trkpt><trkpt lat="40.508973704898054" lon="9.03501548787338"><ele>688.8</ele><time>2026-03-27T12:23:02Z</time></trkpt><trkpt lat="40.508907669973944" lon="9.034971876550948"><ele>688.0</ele><time>2026-03-27T12:23:03Z</time></trkpt><trkpt lat="40.50886115570476" lon="9.034798828184424"><ele>686.5</ele><time>2026-03-27T12:23:05Z</time></trkpt><trkpt lat="40.50887051136847" lon="9.034677125548034"><ele>685.0</ele><time>2026-03-27T12:23:06Z</time></trkpt><trkpt lat="40.50891151464883" lon="9.034553681993218"><ele>683.5</ele><time>2026-03-27T12:23:07Z</time></trkpt><trkpt lat="40.508947054499025" lon="9.034463024122502"><ele>682.0</ele><time>2026-03-27T12:23:08Z</time></trkpt><trkpt lat="40.50892920348702" lon="9.034347649251842"><ele>680.5</ele><time>2026-03-27T12:23:10Z</time></trkpt><trkpt lat="40.50886458435183" lon="9.034299580257814"><ele>679.0</ele><time>2026-03-27T12:23:11Z</time></trkpt><trkpt lat="40.50878098246257" lon="9.034299562764296"><ele>679.8000000000001</ele><time>2026-03-27T12:23:12Z</time></trkpt><trkpt lat="40.50872429874377" lon="9.034336772249896"><ele>680.6</ele><time>2026-03-27T12:23:13Z</time></trkpt><trkpt lat="40.508640670191916" lon="9.03441577971798"><ele>681.4</ele><time>2026-03-27T12:23:14Z</time></trkpt><trkpt lat="40.50853465066797" lon="9.034499990915425"><ele>682.2</ele><time>2026-03-27T12:23:15Z</time></trkpt><trkpt lat="40.5084137774898" lon="9.034583536930956"><ele>683.0</ele><time>2026-03-27T12:23:16Z</time></trkpt><trkpt lat="40.50829751366592" lon="9.034676042432197"><ele>683.0</ele><time>2026-03-27T12:23:17Z</time></trkpt><trkpt lat="40.508175007422665" lon="9.03476023564922"><ele>683.0</ele><time>2026-03-27T12:23:18Z</time></trkpt><trkpt lat="40.5080467829514" lon="9.034807688632991"><ele>683.0</ele><time>2026-03-27T12:23:19Z</time></trkpt><trkpt lat="40.507931481017565" lon="9.034836237031085"><ele>683.0</ele><time>2026-03-27T12:23:20Z</time></trkpt><trkpt lat="40.50781572048936" lon="9.034891515944782"><ele>684.0</ele><time>2026-03-27T12:23:20.999Z</time></trkpt><trkpt lat="40.507703014253934" lon="9.03494724971923"><ele>685.0</ele><time>2026-03-27T12:23:21.999Z</time></trkpt><trkpt lat="40.50761167130109" lon="9.035004371345494"><ele>686.0</ele><time>2026-03-27T12:23:22.999Z</time></trkpt><trkpt lat="40.50753439038241" lon="9.03503871871914"><ele>687.0</ele><time>2026-03-27T12:23:23.999Z</time></trkpt><trkpt lat="40.507462225435994" lon="9.035042275384567"><ele>688.0</ele><time>2026-03-27T12:23:24.999Z</time></trkpt><trkpt lat="40.507390890263785" lon="9.035008871386882"><ele>686.0</ele><time>2026-03-27T12:23:25.999Z</time></trkpt><trkpt lat="40.50731587359793" lon="9.03493351734797"><ele>684.0</ele><time>2026-03-27T12:23:26.999Z</time></trkpt><trkpt lat="40.50723616359206" lon="9.034885247772664"><ele>682.0</ele><time>2026-03-27T12:23:27.999Z</time></trkpt><trkpt lat="40.50715562517993" lon="9.03487757198786"><ele>680.0</ele><time>2026-03-27T12:23:28.999Z</time></trkpt><trkpt lat="40.50708406370557" lon="9.034895781383236"><ele>678.0</ele><time>2026-03-27T12:23:29.999Z</time></trkpt><trkpt lat="40.50701301467352" lon="9.034915256444624"><ele>676.0</ele><time>2026-03-27T12:23:30.999Z</time></trkpt><trkpt lat="40.50693491214181" lon="9.03490775732009"><ele>675.5999999999999</ele><time>2026-03-27T12:23:32.999Z</time></trkpt><trkpt lat="40.50686970287599" lon="9.034898843069561"><ele>675.2</ele><time>2026-03-27T12:25:00Z</time></trkpt><trkpt lat="40.506799054303634" lon="9.034979831891784"><ele>674.8</ele><time>2026-03-27T12:25:03Z</time></trkpt><trkpt lat="40.5067575301954" lon="9.035110775976058"><ele>674.4000000000001</ele><time>2026-03-27T12:25:05Z</time></trkpt><trkpt lat="40.50675078622528" lon="9.035228568380216"><ele>674.0</ele><time>2026-03-27T12:25:06Z</time></trkpt><trkpt lat="40.5067527155272" lon="9.035352114438059"><ele>674.0</ele><time>2026-03-27T12:25:07Z</time></trkpt><trkpt lat="40.50675631400257" lon="9.03547700412804"><ele>674.0</ele><time>2026-03-27T12:25:08Z</time></trkpt><trkpt lat="40.50675903486362" lon="9.035607986339578"><ele>674.0</ele><time>2026-03-27T12:25:09Z</time></trkpt><trkpt lat="40.506748876891805" lon="9.03574216677927"><ele>674.0</ele><time>2026-03-27T12:25:10Z</time></trkpt><trkpt lat="40.506728858308705" lon="9.035892123685196"><ele>674.0</ele><time>2026-03-27T12:25:11Z</time></trkpt><trkpt lat="40.506715279125544" lon="9.036027880822774"><ele>675.0</ele><time>2026-03-27T12:25:12Z</time></trkpt><trkpt lat="40.50671051081132" lon="9.036168327431142"><ele>676.0</ele><time>2026-03-27T12:25:13Z</time></trkpt><trkpt lat="40.50672156696156" lon="9.03632200591175"><ele>677.0</ele><time>2026-03-27T12:25:14Z</time></trkpt><trkpt lat="40.50672493204744" lon="9.036495656870141"><ele>678.0</ele><time>2026-03-27T12:25:15Z</time></trkpt><trkpt lat="40.506756558946215" lon="9.036674634856423"><ele>678.0</ele><time>2026-03-27T12:25:16Z</time></trkpt><trkpt lat="40.50681202920067" lon="9.036842871767993"><ele>678.0</ele><time>2026-03-27T12:25:17Z</time></trkpt><trkpt lat="40.50684287994757" lon="9.03701933865568"><ele>678.0</ele><time>2026-03-27T12:25:18Z</time></trkpt><trkpt lat="40.50686715391041" lon="9.037190764073658"><ele>678.0</ele><time>2026-03-27T12:25:19Z</time></trkpt><trkpt lat="40.506862334187986" lon="9.037339811708359"><ele>678.0</ele><time>2026-03-27T12:25:20Z</time></trkpt><trkpt lat="40.50686766437192" lon="9.03746741458529"><ele>678.0</ele><time>2026-03-27T12:25:21Z</time></trkpt><trkpt lat="40.50687073013651" lon="9.03756660102404"><ele>678.0</ele><time>2026-03-27T12:25:21.999Z</time></trkpt><trkpt lat="40.506842093140186" lon="9.037713906670877"><ele>678.0</ele><time>2026-03-27T12:25:23.999Z</time></trkpt><trkpt lat="40.50671360670812" lon="9.037643925678204"><ele>678.0</ele><time>2026-03-27T12:25:25.999Z</time></trkpt><trkpt lat="40.506627556168056" lon="9.037542713502628"><ele>678.0</ele><time>2026-03-27T12:25:26.999Z</time></trkpt><trkpt lat="40.506537881962" lon="9.037488680442562"><ele>678.0</ele><time>2026-03-27T12:25:27.999Z</time></trkpt><trkpt lat="40.50642863758396" lon="9.037458843785478"><ele>678.0</ele><time>2026-03-27T12:25:28.999Z</time></trkpt><trkpt lat="40.50630137596802" lon="9.037490520692563"><ele>678.0</ele><time>2026-03-27T12:25:29.999Z</time></trkpt><trkpt lat="40.506158659386756" lon="9.03755122380503"><ele>676.0</ele><time>2026-03-27T12:25:30.999Z</time></trkpt><trkpt lat="40.50601283508691" lon="9.037629496804584"><ele>674.0</ele><time>2026-03-27T12:25:31.999Z</time></trkpt><trkpt lat="40.505890516888805" lon="9.037711650652101"><ele>672.0</ele><time>2026-03-27T12:25:32.999Z</time></trkpt><trkpt lat="40.50577914946672" lon="9.03780100986781"><ele>670.0</ele><time>2026-03-27T12:25:33.999Z</time></trkpt><trkpt lat="40.50568904754534" lon="9.03788970920673"><ele>670.0</ele><time>2026-03-27T12:25:34.999Z</time></trkpt><trkpt lat="40.505623185773345" lon="9.037998813622481"><ele>670.0</ele><time>2026-03-27T12:25:35.999Z</time></trkpt><trkpt lat="40.50558742598866" lon="9.03812733443731"><ele>670.0</ele><time>2026-03-27T12:25:36.999Z</time></trkpt><trkpt lat="40.50558257654129" lon="9.038260293631252"><ele>670.0</ele><time>2026-03-27T12:25:37.999Z</time></trkpt><trkpt lat="40.50563788906158" lon="9.038395621759578"><ele>670.0</ele><time>2026-03-27T12:25:38.999Z</time></trkpt><trkpt lat="40.50568016983721" lon="9.038547924262016"><ele>672.6</ele><time>2026-03-27T12:25:39.999Z</time></trkpt><trkpt lat="40.50574454228308" lon="9.038698527652922"><ele>675.2</ele><time>2026-03-27T12:25:40.999Z</time></trkpt><trkpt lat="40.505786571446706" lon="9.038812190378243"><ele>677.8</ele><time>2026-03-27T12:25:41.999Z</time></trkpt><trkpt lat="40.50579100916474" lon="9.038919242105816"><ele>680.4</ele><time>2026-03-27T12:25:42.999Z</time></trkpt><trkpt lat="40.505758885806664" lon="9.039021325068758"><ele>683.0</ele><time>2026-03-27T12:25:43.999Z</time></trkpt><trkpt lat="40.50569701247876" lon="9.039128869721987"><ele>682.0</ele><time>2026-03-27T12:25:44.999Z</time></trkpt><trkpt lat="40.50559426704693" lon="9.039252968447213"><ele>681.0</ele><time>2026-03-27T12:25:45.999Z</time></trkpt><trkpt lat="40.50548747475714" lon="9.039373218226002"><ele>680.0</ele><time>2026-03-27T12:25:46.999Z</time></trkpt><trkpt lat="40.50540174051661" lon="9.039508589544578"><ele>679.0</ele><time>2026-03-27T12:25:47.999Z</time></trkpt><trkpt lat="40.50534753040053" lon="9.03965126644325"><ele>679.0</ele><time>2026-03-27T12:25:48.999Z</time></trkpt><trkpt lat="40.505296084055736" lon="9.039807309424686"><ele>679.0</ele><time>2026-03-27T12:25:49.999Z</time></trkpt><trkpt lat="40.505246723508115" lon="9.0399674569876"><ele>679.0</ele><time>2026-03-27T12:25:50.999Z</time></trkpt><trkpt lat="40.50520403950433" lon="9.040112230504972"><ele>679.0</ele><time>2026-03-27T12:25:51.999Z</time></trkpt><trkpt lat="40.50513898388987" lon="9.040254233414599"><ele>684.0</ele><time>2026-03-27T12:25:52.999Z</time></trkpt><trkpt lat="40.50501752053766" lon="9.04037890720531"><ele>689.0</ele><time>2026-03-27T12:25:53.999Z</time></trkpt><trkpt lat="40.504876070694046" lon="9.04050383325964"><ele>694.0</ele><time>2026-03-27T12:25:54.999Z</time></trkpt><trkpt lat="40.50474506907515" lon="9.0406297533577"><ele>694.0</ele><time>2026-03-27T12:25:55.999Z</time></trkpt><trkpt lat="40.50461595544805" lon="9.040767436720255"><ele>694.0</ele><time>2026-03-27T12:25:56.999Z</time></trkpt><trkpt lat="40.504526366668394" lon="9.04093626262377"><ele>694.0</ele><time>2026-03-27T12:25:57.999Z</time></trkpt><trkpt lat="40.5044499733556" lon="9.041082550724148"><ele>698.0</ele><time>2026-03-27T12:25:58.999Z</time></trkpt><trkpt lat="40.5043731221628" lon="9.041183465425947"><ele>702.0</ele><time>2026-03-27T12:25:59.999Z</time></trkpt><trkpt lat="40.50433338570674" lon="9.041277207825834"><ele>706.0</ele><time>2026-03-27T12:26:00.999Z</time></trkpt><trkpt lat="40.5043328776729" lon="9.04142949929068"><ele>710.0</ele><time>2026-03-27T12:26:02.999Z</time></trkpt><trkpt lat="40.504384442926" lon="9.041500153393605"><ele>714.0</ele><time>2026-03-27T12:26:03.999Z</time></trkpt><trkpt lat="40.50446109128645" lon="9.041417124500073"><ele>714.0</ele><time>2026-03-27T12:26:04.999Z</time></trkpt><trkpt lat="40.50450904224691" lon="9.04132152072976"><ele>714.0</ele><time>2026-03-27T12:26:05.999Z</time></trkpt><trkpt lat="40.50462834244774" lon="9.04120761762957"><ele>714.0</ele><time>2026-03-27T12:26:06.999Z</time></trkpt><trkpt lat="40.50477345907475" lon="9.041107425799629"><ele>714.0</ele><time>2026-03-27T12:26:07.999Z</time></trkpt><trkpt lat="40.504940189520966" lon="9.041046671371001"><ele>714.0</ele><time>2026-03-27T12:26:08.999Z</time></trkpt><trkpt lat="40.50510862993375" lon="9.040964274911765"><ele>714.0</ele><time>2026-03-27T12:26:09.999Z</time></trkpt><trkpt lat="40.50525650834395" lon="9.040855673935118"><ele>714.0</ele><time>2026-03-27T12:26:10.999Z</time></trkpt><trkpt lat="40.50538516202531" lon="9.040771835628036"><ele>712.5</ele><time>2026-03-27T12:26:11.999Z</time></trkpt><trkpt lat="40.50548619615339" lon="9.04075176099695"><ele>711.0</ele><time>2026-03-27T12:26:12.999Z</time></trkpt><trkpt lat="40.50561040071797" lon="9.04077193590926"><ele>709.5</ele><time>2026-03-27T12:26:13.999Z</time></trkpt><trkpt lat="40.50573828186597" lon="9.04082451308058"><ele>708.0</ele><time>2026-03-27T12:26:14.998Z</time></trkpt><trkpt lat="40.50585115576004" lon="9.040864075044412"><ele>708.0</ele><time>2026-03-27T12:26:15.998Z</time></trkpt><trkpt lat="40.50594775278582" lon="9.040800214639505"><ele>708.0</ele><time>2026-03-27T12:26:16.998Z</time></trkpt><trkpt lat="40.506091811788" lon="9.040725550500497"><ele>708.0</ele><time>2026-03-27T12:26:17.998Z</time></trkpt><trkpt lat="40.50623001017199" lon="9.040651376358634"><ele>708.0</ele><time>2026-03-27T12:26:18.998Z</time></trkpt><trkpt lat="40.5063698153552" lon="9.040545173055465"><ele>711.75</ele><time>2026-03-27T12:26:19.998Z</time></trkpt><trkpt lat="40.50651435574748" lon="9.040465433402625"><ele>715.5</ele><time>2026-03-27T12:26:20.998Z</time></trkpt><trkpt lat="40.50661389642639" lon="9.040401407474594"><ele>719.25</ele><time>2026-03-27T12:26:21.998Z</time></trkpt><trkpt lat="40.50668427867978" lon="9.040350945625867"><ele>723.0</ele><time>2026-03-27T12:26:22.998Z</time></trkpt><trkpt lat="40.506809083423235" lon="9.040437126835604"><ele>723.0</ele><time>2026-03-27T12:26:24.998Z</time></trkpt><trkpt lat="40.50687961277457" lon="9.040553852523537"><ele>723.0</ele><time>2026-03-27T12:26:25.998Z</time></trkpt><trkpt lat="40.50697415999576" lon="9.040674624800369"><ele>723.0</ele><time>2026-03-27T12:26:26.998Z</time></trkpt><trkpt lat="40.5070936940093" lon="9.040813885625349"><ele>723.0</ele><time>2026-03-27T12:26:27.998Z</time></trkpt><trkpt lat="40.507218431664576" lon="9.040918149041673"><ele>726.5</ele><time>2026-03-27T12:26:28.998Z</time></trkpt><trkpt lat="40.50732488822091" lon="9.040997805673515"><ele>730.0</ele><time>2026-03-27T12:26:29.998Z</time></trkpt><trkpt lat="40.50743839133796" lon="9.041067417003074"><ele>733.5</ele><time>2026-03-27T12:26:30.998Z</time></trkpt><trkpt lat="40.507572032494735" lon="9.041125175185728"><ele>737.0</ele><time>2026-03-27T12:26:31.998Z</time></trkpt><trkpt lat="40.50772256806846" lon="9.041153714239355"><ele>737.0</ele><time>2026-03-27T12:26:32.998Z</time></trkpt><trkpt lat="40.50789911528861" lon="9.041159624398427"><ele>737.0</ele><time>2026-03-27T12:26:33.998Z</time></trkpt><trkpt lat="40.5081031584761" lon="9.04113020170709"><ele>737.0</ele><time>2026-03-27T12:26:34.998Z</time></trkpt><trkpt lat="40.508275938424745" lon="9.041095216063841"><ele>736.0</ele><time>2026-03-27T12:26:35.998Z</time></trkpt><trkpt lat="40.50844103103057" lon="9.041112899721142"><ele>735.0</ele><time>2026-03-27T12:26:36.998Z</time></trkpt><trkpt lat="40.50860535499305" lon="9.041164857733918"><ele>734.0</ele><time>2026-03-27T12:26:37.998Z</time></trkpt><trkpt lat="40.50872784639265" lon="9.041193093754192"><ele>736.25</ele><time>2026-03-27T12:26:38.998Z</time></trkpt><trkpt lat="40.508855417192486" lon="9.041237363726278"><ele>738.5</ele><time>2026-03-27T12:26:39.998Z</time></trkpt><trkpt lat="40.50898460646582" lon="9.04123748173568"><ele>740.75</ele><time>2026-03-27T12:26:40.998Z</time></trkpt><trkpt lat="40.509132906449516" lon="9.04118027517752"><ele>743.0</ele><time>2026-03-27T12:26:41.998Z</time></trkpt><trkpt lat="40.509273259590344" lon="9.041084449250427"><ele>743.0</ele><time>2026-03-27T12:26:42.998Z</time></trkpt><trkpt lat="40.509427297671074" lon="9.040996272820905"><ele>743.0</ele><time>2026-03-27T12:26:43.998Z</time></trkpt><trkpt lat="40.509537899374486" lon="9.040922821164713"><ele>743.0</ele><time>2026-03-27T12:26:44.998Z</time></trkpt><trkpt lat="40.50964719893556" lon="9.040894247853942"><ele>743.0</ele><time>2026-03-27T12:26:45.998Z</time></trkpt><trkpt lat="40.50973063466116" lon="9.04086254284732"><ele>744.1666666666666</ele><time>2026-03-27T12:26:46.998Z</time></trkpt><trkpt lat="40.50970354416049" lon="9.040975608761029"><ele>745.3333333333333</ele><time>2026-03-27T12:26:50.998Z</time></trkpt><trkpt lat="40.50969923937998" lon="9.041066683789852"><ele>746.5</ele><time>2026-03-27T12:26:53.998Z</time></trkpt><trkpt lat="40.509692692833475" lon="9.041150279531857"><ele>747.6666666666666</ele><time>2026-03-27T12:26:56.998Z</time></trkpt><trkpt lat="40.509698543493094" lon="9.041267723902168"><ele>748.8333333333334</ele><time>2026-03-27T12:26:57.998Z</time></trkpt><trkpt lat="40.509710338815516" lon="9.041365248018465"><ele>750.0</ele><time>2026-03-27T12:26:58.998Z</time></trkpt><trkpt lat="40.5097268100986" lon="9.041460883014336"><ele>750.0</ele><time>2026-03-27T12:26:59.998Z</time></trkpt><trkpt lat="40.509757308750004" lon="9.041570083522341"><ele>750.0</ele><time>2026-03-27T12:27:00.998Z</time></trkpt><trkpt lat="40.5097837433393" lon="9.041651415201823"><ele>750.0</ele><time>2026-03-27T12:27:01.998Z</time></trkpt><trkpt lat="40.509826381877886" lon="9.041786798208522"><ele>750.0</ele><time>2026-03-27T12:27:04Z</time></trkpt><trkpt lat="40.510077914992" lon="9.04173821552796"><ele>751.0</ele><time>2026-03-27T12:27:07Z</time></trkpt><trkpt lat="40.51015780375165" lon="9.04170555004659"><ele>752.0</ele><time>2026-03-27T12:27:08Z</time></trkpt><trkpt lat="40.510249876172644" lon="9.04169097380102"><ele>753.0</ele><time>2026-03-27T12:27:09Z</time></trkpt><trkpt lat="40.51035459066217" lon="9.041689361760818"><ele>754.0</ele><time>2026-03-27T12:27:10Z</time></trkpt><trkpt lat="40.510479514592404" lon="9.041703525951377"><ele>755.0</ele><time>2026-03-27T12:27:11Z</time></trkpt><trkpt lat="40.51059922985341" lon="9.041747369358866"><ele>756.5</ele><time>2026-03-27T12:27:12Z</time></trkpt><trkpt lat="40.510707344214644" lon="9.041807024285674"><ele>758.0</ele><time>2026-03-27T12:27:13Z</time></trkpt><trkpt lat="40.51080774756574" lon="9.041855999986263"><ele>759.5</ele><time>2026-03-27T12:27:14Z</time></trkpt><trkpt lat="40.510929892084995" lon="9.041885619043128"><ele>761.0</ele><time>2026-03-27T12:27:15Z</time></trkpt><trkpt lat="40.511064174930866" lon="9.04186460039682"><ele>761.0</ele><time>2026-03-27T12:27:16Z</time></trkpt><trkpt lat="40.51121528941267" lon="9.041798215991763"><ele>761.0</ele><time>2026-03-27T12:27:17Z</time></trkpt><trkpt lat="40.5113464170722" lon="9.041721887654719"><ele>761.0</ele><time>2026-03-27T12:27:18Z</time></trkpt><trkpt lat="40.51147185145593" lon="9.04168031359337"><ele>761.0</ele><time>2026-03-27T12:27:19Z</time></trkpt><trkpt lat="40.511591346730306" lon="9.041658827699132"><ele>760.25</ele><time>2026-03-27T12:27:20Z</time></trkpt><trkpt lat="40.511713791885875" lon="9.041617102940288"><ele>759.5</ele><time>2026-03-27T12:27:21Z</time></trkpt><trkpt lat="40.51181006322036" lon="9.041533945800374"><ele>758.75</ele><time>2026-03-27T12:27:22Z</time></trkpt><trkpt lat="40.51190526007286" lon="9.041421893469304"><ele>758.0</ele><time>2026-03-27T12:27:23Z</time></trkpt><trkpt lat="40.512000706146" lon="9.04133894288646"><ele>758.5999999999999</ele><time>2026-03-27T12:27:23.999Z</time></trkpt><trkpt lat="40.512112463356885" lon="9.04127810331054"><ele>759.1999999999999</ele><time>2026-03-27T12:27:24.999Z</time></trkpt><trkpt lat="40.512215897839916" lon="9.041249524253214"><ele>759.8</ele><time>2026-03-27T12:27:25.999Z</time></trkpt><trkpt lat="40.51231324260353" lon="9.041249010196562"><ele>760.4</ele><time>2026-03-27T12:27:26.999Z</time></trkpt><trkpt lat="40.51239586509354" lon="9.04128793745878"><ele>761.0</ele><time>2026-03-27T12:27:27.999Z</time></trkpt><trkpt lat="40.51246596178347" lon="9.041361224454059"><ele>761.0</ele><time>2026-03-27T12:27:28.999Z</time></trkpt><trkpt lat="40.5125390239555" lon="9.041481461822645"><ele>761.0</ele><time>2026-03-27T12:27:29.999Z</time></trkpt><trkpt lat="40.51261844845731" lon="9.041596361916648"><ele>761.0</ele><time>2026-03-27T12:27:30.999Z</time></trkpt><trkpt lat="40.512725907073644" lon="9.041675189664623"><ele>761.0</ele><time>2026-03-27T12:27:31.999Z</time></trkpt><trkpt lat="40.51285557174922" lon="9.041745739531814"><ele>763.25</ele><time>2026-03-27T12:27:32.999Z</time></trkpt><trkpt lat="40.512963444851984" lon="9.041818431706144"><ele>765.5</ele><time>2026-03-27T12:27:33.999Z</time></trkpt><trkpt lat="40.51306454550803" lon="9.041883393462044"><ele>767.75</ele><time>2026-03-27T12:27:34.999Z</time></trkpt><trkpt lat="40.51317684193031" lon="9.041901885981913"><ele>770.0</ele><time>2026-03-27T12:27:35.999Z</time></trkpt><trkpt lat="40.513301190297135" lon="9.041853120258475"><ele>770.0</ele><time>2026-03-27T12:27:36.999Z</time></trkpt><trkpt lat="40.51344907186816" lon="9.041774541511119"><ele>770.0</ele><time>2026-03-27T12:27:37.999Z</time></trkpt><trkpt lat="40.51360933253598" lon="9.041670164768211"><ele>770.0</ele><time>2026-03-27T12:27:38.999Z</time></trkpt><trkpt lat="40.513766102697836" lon="9.041570255808015"><ele>769.6666666666667</ele><time>2026-03-27T12:27:39.999Z</time></trkpt><trkpt lat="40.51392096483977" lon="9.041461321158717"><ele>769.3333333333333</ele><time>2026-03-27T12:27:40.999Z</time></trkpt><trkpt lat="40.514075656011826" lon="9.041363947024417"><ele>769.0</ele><time>2026-03-27T12:27:41.999Z</time></trkpt><trkpt lat="40.51422529724578" lon="9.041273254049534"><ele>769.0</ele><time>2026-03-27T12:27:42.999Z</time></trkpt><trkpt lat="40.514373359593904" lon="9.04118716722996"><ele>769.0</ele><time>2026-03-27T12:27:43.999Z</time></trkpt><trkpt lat="40.514531014740896" lon="9.041091739085727"><ele>769.0</ele><time>2026-03-27T12:27:44.999Z</time></trkpt><trkpt lat="40.51468573204717" lon="9.041013327140465"><ele>767.5</ele><time>2026-03-27T12:27:45.999Z</time></trkpt><trkpt lat="40.51483284688843" lon="9.040958793701611"><ele>766.0</ele><time>2026-03-27T12:27:46.999Z</time></trkpt><trkpt lat="40.51497758230467" lon="9.040943498431586"><ele>764.5</ele><time>2026-03-27T12:27:47.999Z</time></trkpt><trkpt lat="40.5151199950277" lon="9.040958243540846"><ele>763.0</ele><time>2026-03-27T12:27:48.999Z</time></trkpt><trkpt lat="40.5152563663348" lon="9.040986161235308"><ele>763.0</ele><time>2026-03-27T12:27:49.999Z</time></trkpt><trkpt lat="40.51537794053812" lon="9.040997530615147"><ele>763.0</ele><time>2026-03-27T12:27:50.999Z</time></trkpt><trkpt lat="40.51547187515518" lon="9.040984637031949"><ele>763.0</ele><time>2026-03-27T12:27:51.999Z</time></trkpt><trkpt lat="40.515552666247366" lon="9.040928918841997"><ele>763.0</ele><time>2026-03-27T12:27:52.999Z</time></trkpt><trkpt lat="40.515620171225564" lon="9.040833032950315"><ele>763.0</ele><time>2026-03-27T12:27:53.999Z</time></trkpt><trkpt lat="40.51569776234805" lon="9.04068694525199"><ele>761.25</ele><time>2026-03-27T12:27:54.999Z</time></trkpt><trkpt lat="40.51578428827596" lon="9.040532144389582"><ele>759.5</ele><time>2026-03-27T12:27:55.999Z</time></trkpt><trkpt lat="40.51587770734971" lon="9.04037166520142"><ele>757.75</ele><time>2026-03-27T12:27:56.999Z</time></trkpt><trkpt lat="40.51596989504283" lon="9.040233463592042"><ele>756.0</ele><time>2026-03-27T12:27:57.999Z</time></trkpt><trkpt lat="40.51604510949314" lon="9.040122781072654"><ele>756.0</ele><time>2026-03-27T12:27:58.999Z</time></trkpt><trkpt lat="40.51611586202343" lon="9.04004646708438"><ele>756.0</ele><time>2026-03-27T12:27:59.999Z</time></trkpt><trkpt lat="40.51618696557522" lon="9.040021202243532"><ele>756.0</ele><time>2026-03-27T12:28:00.999Z</time></trkpt><trkpt lat="40.51625444429054" lon="9.040049291264788"><ele>756.0</ele><time>2026-03-27T12:28:01.999Z</time></trkpt><trkpt lat="40.51632839831698" lon="9.040121299285977"><ele>756.0</ele><time>2026-03-27T12:28:02.999Z</time></trkpt><trkpt lat="40.51639745019403" lon="9.040251067874722"><ele>756.0</ele><time>2026-03-27T12:28:03.999Z</time></trkpt><trkpt lat="40.516461835951844" lon="9.04042968876755"><ele>752.3333333333334</ele><time>2026-03-27T12:28:04.999Z</time></trkpt><trkpt lat="40.51651762527512" lon="9.040625437619159"><ele>748.6666666666667</ele><time>2026-03-27T12:28:05.999Z</time></trkpt><trkpt lat="40.516566247018076" lon="9.04081106457368"><ele>745.0</ele><time>2026-03-27T12:28:06.999Z</time></trkpt><trkpt lat="40.51663437159221" lon="9.040991957928554"><ele>744.6</ele><time>2026-03-27T12:28:07.999Z</time></trkpt><trkpt lat="40.51671049105485" lon="9.041158226921107"><ele>744.2</ele><time>2026-03-27T12:28:08.999Z</time></trkpt><trkpt lat="40.51677225001403" lon="9.041289464866496"><ele>743.8</ele><time>2026-03-27T12:28:09.999Z</time></trkpt><trkpt lat="40.516814871521724" lon="9.0413964082385"><ele>743.4</ele><time>2026-03-27T12:28:10.999Z</time></trkpt><trkpt lat="40.51683858630375" lon="9.0414973986246"><ele>743.0</ele><time>2026-03-27T12:28:11.999Z</time></trkpt><trkpt lat="40.51687962364926" lon="9.041575102195367"><ele>742.0</ele><time>2026-03-27T12:28:12.999Z</time></trkpt><trkpt lat="40.516949891457166" lon="9.041635481054847"><ele>741.0</ele><time>2026-03-27T12:28:13.999Z</time></trkpt><trkpt lat="40.51704448016485" lon="9.041666411493036"><ele>740.0</ele><time>2026-03-27T12:28:14.999Z</time></trkpt><trkpt lat="40.51716225912825" lon="9.04164762193775"><ele>739.0</ele><time>2026-03-27T12:28:15.998Z</time></trkpt><trkpt lat="40.51728754120493" lon="9.04158847250191"><ele>738.0</ele><time>2026-03-27T12:28:16.998Z</time></trkpt><trkpt lat="40.51739814218211" lon="9.041569097995218"><ele>736.25</ele><time>2026-03-27T12:28:17.998Z</time></trkpt><trkpt lat="40.51750129992511" lon="9.04159778554715"><ele>734.5</ele><time>2026-03-27T12:28:18.998Z</time></trkpt><trkpt lat="40.517621808866956" lon="9.0416497645162"><ele>732.75</ele><time>2026-03-27T12:28:19.998Z</time></trkpt><trkpt lat="40.517758467327916" lon="9.041731379315419"><ele>731.0</ele><time>2026-03-27T12:28:20.998Z</time></trkpt><trkpt lat="40.517874081688824" lon="9.041803433957561"><ele>730.5</ele><time>2026-03-27T12:28:21.998Z</time></trkpt><trkpt lat="40.51798477033586" lon="9.041874319342737"><ele>730.0</ele><time>2026-03-27T12:28:22.998Z</time></trkpt><trkpt lat="40.51810219746593" lon="9.041929935174227"><ele>729.5</ele><time>2026-03-27T12:28:23.998Z</time></trkpt><trkpt lat="40.5182125173049" lon="9.041946690193198"><ele>729.0</ele><time>2026-03-27T12:28:24.998Z</time></trkpt><trkpt lat="40.51830828706148" lon="9.041921160364362"><ele>729.0</ele><time>2026-03-27T12:28:25.998Z</time></trkpt><trkpt lat="40.518390520458034" lon="9.041890519718903"><ele>729.0</ele><time>2026-03-27T12:28:26.998Z</time></trkpt><trkpt lat="40.51846218228586" lon="9.041873751879033"><ele>729.0</ele><time>2026-03-27T12:28:27.998Z</time></trkpt><trkpt lat="40.518532213588536" lon="9.04187316538442"><ele>729.0</ele><time>2026-03-27T12:28:28.998Z</time></trkpt><trkpt lat="40.518604350911865" lon="9.04189433538436"><ele>729.0</ele><time>2026-03-27T12:28:29.998Z</time></trkpt><trkpt lat="40.51868882361264" lon="9.041944116491997"><ele>729.0</ele><time>2026-03-27T12:28:30.998Z</time></trkpt><trkpt lat="40.518759663762005" lon="9.042013235433977"><ele>729.4000000000001</ele><time>2026-03-27T12:28:31.998Z</time></trkpt><trkpt lat="40.51880875205896" lon="9.042145832671805"><ele>729.8</ele><time>2026-03-27T12:28:32.998Z</time></trkpt><trkpt lat="40.51885747950218" lon="9.042258323363779"><ele>730.2</ele><time>2026-03-27T12:28:33.998Z</time></trkpt><trkpt lat="40.518928656600714" lon="9.04234992365277"><ele>730.5999999999999</ele><time>2026-03-27T12:28:34.998Z</time></trkpt><trkpt lat="40.51902961671491" lon="9.042447172820077"><ele>731.0</ele><time>2026-03-27T12:28:35.998Z</time></trkpt><trkpt lat="40.51917351680343" lon="9.042533396053475"><ele>731.0</ele><time>2026-03-27T12:28:36.998Z</time></trkpt><trkpt lat="40.519333233893974" lon="9.042610313090014"><ele>731.0</ele><time>2026-03-27T12:28:37.998Z</time></trkpt><trkpt lat="40.519437381790986" lon="9.042690605201091"><ele>731.0</ele><time>2026-03-27T12:28:38.998Z</time></trkpt><trkpt lat="40.51951847683311" lon="9.042743263871088"><ele>731.0</ele><time>2026-03-27T12:28:39.998Z</time></trkpt><trkpt lat="40.51960607157357" lon="9.042753421462242"><ele>729.5</ele><time>2026-03-27T12:28:40.998Z</time></trkpt><trkpt lat="40.519699872979636" lon="9.042708653322428"><ele>728.0</ele><time>2026-03-27T12:28:41.998Z</time></trkpt><trkpt lat="40.51982858723058" lon="9.042603524959919"><ele>726.5</ele><time>2026-03-27T12:28:42.998Z</time></trkpt><trkpt lat="40.519955813779575" lon="9.042497161766175"><ele>725.0</ele><time>2026-03-27T12:28:43.998Z</time></trkpt><trkpt lat="40.52008847554714" lon="9.042414685298185"><ele>724.25</ele><time>2026-03-27T12:28:44.998Z</time></trkpt><trkpt lat="40.5202378364847" lon="9.042354435266637"><ele>723.5</ele><time>2026-03-27T12:28:45.998Z</time></trkpt><trkpt lat="40.52037171887488" lon="9.04230857746408"><ele>722.75</ele><time>2026-03-27T12:28:46.998Z</time></trkpt><trkpt lat="40.5205033810829" lon="9.042273230688414"><ele>722.0</ele><time>2026-03-27T12:28:47.998Z</time></trkpt><trkpt lat="40.52064725727563" lon="9.042259811117503"><ele>720.6666666666666</ele><time>2026-03-27T12:28:48.998Z</time></trkpt><trkpt lat="40.520801657026425" lon="9.042263465694147"><ele>719.3333333333334</ele><time>2026-03-27T12:28:49.998Z</time></trkpt><trkpt lat="40.52095905566173" lon="9.042294846401909"><ele>718.0</ele><time>2026-03-27T12:28:50.998Z</time></trkpt><trkpt lat="40.52111477739084" lon="9.042335123858015"><ele>717.0</ele><time>2026-03-27T12:28:51.998Z</time></trkpt><trkpt lat="40.521276130821896" lon="9.042373378050637"><ele>716.0</ele><time>2026-03-27T12:28:52.998Z</time></trkpt><trkpt lat="40.52142821531767" lon="9.04239383294202"><ele>715.0</ele><time>2026-03-27T12:28:53.998Z</time></trkpt><trkpt lat="40.52157390943983" lon="9.042404047565519"><ele>715.0</ele><time>2026-03-27T12:28:54.998Z</time></trkpt><trkpt lat="40.52171886062543" lon="9.042428292326411"><ele>715.0</ele><time>2026-03-27T12:28:55.998Z</time></trkpt><trkpt lat="40.52187208005769" lon="9.042461252265772"><ele>715.0</ele><time>2026-03-27T12:28:56.998Z</time></trkpt><trkpt lat="40.522030096455374" lon="9.042521922325964"><ele>713.3333333333334</ele><time>2026-03-27T12:28:57.998Z</time></trkpt><trkpt lat="40.522178472329934" lon="9.042604554875464"><ele>711.6666666666666</ele><time>2026-03-27T12:28:58.998Z</time></trkpt><trkpt lat="40.52231671253291" lon="9.042705891640686"><ele>710.0</ele><time>2026-03-27T12:28:59.998Z</time></trkpt><trkpt lat="40.52243888565576" lon="9.042798673777693"><ele>710.0</ele><time>2026-03-27T12:29:00.998Z</time></trkpt><trkpt lat="40.52254896758631" lon="9.042896385997162"><ele>710.0</ele><time>2026-03-27T12:29:01.998Z</time></trkpt><trkpt lat="40.522646952866616" lon="9.043009496970674"><ele>710.0</ele><time>2026-03-27T12:29:02.998Z</time></trkpt><trkpt lat="40.52273236758287" lon="9.04314817951535"><ele>710.0</ele><time>2026-03-27T12:29:03.998Z</time></trkpt><trkpt lat="40.52279792820478" lon="9.04332670508816"><ele>710.0</ele><time>2026-03-27T12:29:04.998Z</time></trkpt><trkpt lat="40.52284532173183" lon="9.043481176247631"><ele>710.0</ele><time>2026-03-27T12:29:05.998Z</time></trkpt><trkpt lat="40.52289509526892" lon="9.043618797822289"><ele>710.0</ele><time>2026-03-27T12:29:06.997Z</time></trkpt><trkpt lat="40.52292073128991" lon="9.043776620362403"><ele>710.0</ele><time>2026-03-27T12:29:08Z</time></trkpt><trkpt lat="40.52291453856296" lon="9.04394692965529"><ele>710.0</ele><time>2026-03-27T12:29:09Z</time></trkpt><trkpt lat="40.522882639324855" lon="9.044072085408603"><ele>710.0</ele><time>2026-03-27T12:29:10Z</time></trkpt><trkpt lat="40.52284053172095" lon="9.044169739205136"><ele>710.0</ele><time>2026-03-27T12:29:11Z</time></trkpt><trkpt lat="40.52283693075023" lon="9.044266851139675"><ele>710.0</ele><time>2026-03-27T12:29:12Z</time></trkpt><trkpt lat="40.522860500140226" lon="9.044349109651277"><ele>710.0</ele><time>2026-03-27T12:29:13Z</time></trkpt><trkpt lat="40.52290579591504" lon="9.044413947019635"><ele>710.0</ele><time>2026-03-27T12:29:14Z</time></trkpt><trkpt lat="40.52301155273484" lon="9.044478350770717"><ele>709.2</ele><time>2026-03-27T12:29:16Z</time></trkpt><trkpt lat="40.52311690220044" lon="9.044518047963058"><ele>708.4</ele><time>2026-03-27T12:29:18Z</time></trkpt><trkpt lat="40.523200173938385" lon="9.04460892600415"><ele>707.5999999999999</ele><time>2026-03-27T12:29:20Z</time></trkpt><trkpt lat="40.52319627787181" lon="9.044773355577487"><ele>706.8</ele><time>2026-03-27T12:29:22Z</time></trkpt><trkpt lat="40.52315037804473" lon="9.044862616563325"><ele>706.0</ele><time>2026-03-27T12:29:23Z</time></trkpt><trkpt lat="40.52310186595189" lon="9.044939792844279"><ele>704.5999999999999</ele><time>2026-03-27T12:29:24Z</time></trkpt><trkpt lat="40.52304317079743" lon="9.045027902509435"><ele>703.2</ele><time>2026-03-27T12:29:24.999Z</time></trkpt><trkpt lat="40.52296915266077" lon="9.045111283850702"><ele>701.8</ele><time>2026-03-27T12:29:25.999Z</time></trkpt><trkpt lat="40.52288994585548" lon="9.045193991771148"><ele>700.4000000000001</ele><time>2026-03-27T12:29:26.999Z</time></trkpt><trkpt lat="40.52281572268174" lon="9.045286900840997"><ele>699.0</ele><time>2026-03-27T12:29:27.999Z</time></trkpt><trkpt lat="40.52275588740331" lon="9.045385375151348"><ele>697.3333333333334</ele><time>2026-03-27T12:29:28.999Z</time></trkpt><trkpt lat="40.52271729826222" lon="9.045491170251472"><ele>695.6666666666666</ele><time>2026-03-27T12:29:29.999Z</time></trkpt><trkpt lat="40.52268636678217" lon="9.045605050818082"><ele>694.0</ele><time>2026-03-27T12:29:30.999Z</time></trkpt><trkpt lat="40.522664977655474" lon="9.04571440394326"><ele>692.3333333333333</ele><time>2026-03-27T12:29:31.999Z</time></trkpt><trkpt lat="40.522667002621" lon="9.045819340077282"><ele>690.6666666666666</ele><time>2026-03-27T12:29:32.999Z</time></trkpt><trkpt lat="40.52270102433379" lon="9.045917028466862"><ele>689.0</ele><time>2026-03-27T12:29:33.999Z</time></trkpt><trkpt lat="40.52276638380353" lon="9.045992105225958"><ele>689.8000000000001</ele><time>2026-03-27T12:29:34.999Z</time></trkpt><trkpt lat="40.52286446627328" lon="9.046061560418314"><ele>690.6</ele><time>2026-03-27T12:29:35.999Z</time></trkpt><trkpt lat="40.52295252198456" lon="9.046139077641424"><ele>691.4</ele><time>2026-03-27T12:29:36.999Z</time></trkpt><trkpt lat="40.52301489418873" lon="9.046239748633715"><ele>692.2</ele><time>2026-03-27T12:29:37.999Z</time></trkpt><trkpt lat="40.52308408372706" lon="9.046325853704408"><ele>693.0</ele><time>2026-03-27T12:29:38.999Z</time></trkpt><trkpt lat="40.52317046836295" lon="9.046378923711362"><ele>693.0</ele><time>2026-03-27T12:29:39.999Z</time></trkpt><trkpt lat="40.52326755672994" lon="9.046386791395841"><ele>693.0</ele><time>2026-03-27T12:29:40.999Z</time></trkpt><trkpt lat="40.52336398865107" lon="9.0463627503106"><ele>693.0</ele><time>2026-03-27T12:29:41.999Z</time></trkpt><trkpt lat="40.52345512346013" lon="9.046320099572851"><ele>693.0</ele><time>2026-03-27T12:29:42.999Z</time></trkpt><trkpt lat="40.52351383828262" lon="9.046256382874889"><ele>693.0</ele><time>2026-03-27T12:29:43.999Z</time></trkpt><trkpt lat="40.52354556150924" lon="9.04616545839964"><ele>693.0</ele><time>2026-03-27T12:29:44.999Z</time></trkpt><trkpt lat="40.52353965057712" lon="9.046053278444434"><ele>693.0</ele><time>2026-03-27T12:29:45.999Z</time></trkpt><trkpt lat="40.523517694085925" lon="9.045947772005226"><ele>693.0</ele><time>2026-03-27T12:29:46.999Z</time></trkpt><trkpt lat="40.52353918432331" lon="9.04586303001934"><ele>693.0</ele><time>2026-03-27T12:29:47.999Z</time></trkpt><trkpt lat="40.52359952034235" lon="9.045814770582332"><ele>693.0</ele><time>2026-03-27T12:29:48.999Z</time></trkpt><trkpt lat="40.52368698998953" lon="9.045797053757335"><ele>693.0</ele><time>2026-03-27T12:29:49.999Z</time></trkpt><trkpt lat="40.52379293124618" lon="9.04583278197269"><ele>693.0</ele><time>2026-03-27T12:29:51.999Z</time></trkpt><trkpt lat="40.52387045580706" lon="9.045874098173632"><ele>691.5</ele><time>2026-03-27T12:29:53.999Z</time></trkpt><trkpt lat="40.523947799600435" lon="9.04590266084411"><ele>690.0</ele><time>2026-03-27T12:29:55.999Z</time></trkpt><trkpt lat="40.524014368894825" lon="9.045921790988936"><ele>688.5</ele><time>2026-03-27T12:29:57.999Z</time></trkpt><trkpt lat="40.524090448455084" lon="9.0458866081979"><ele>687.0</ele><time>2026-03-27T12:30:01.999Z</time></trkpt><trkpt lat="40.52413589452678" lon="9.04582204796437"><ele>685.5</ele><time>2026-03-27T12:30:03.999Z</time></trkpt><trkpt lat="40.52417795823509" lon="9.04570614688924"><ele>684.0</ele><time>2026-03-27T12:30:05.999Z</time></trkpt><trkpt lat="40.52420797619972" lon="9.04563172504159"><ele>684.0</ele><time>2026-03-27T12:30:06.999Z</time></trkpt><trkpt lat="40.524246345172266" lon="9.045556035108769"><ele>684.0</ele><time>2026-03-27T12:30:07.999Z</time></trkpt><trkpt lat="40.52431063024618" lon="9.04549133668407"><ele>684.0</ele><time>2026-03-27T12:30:08.999Z</time></trkpt><trkpt lat="40.52439615392926" lon="9.04543922514416"><ele>684.0</ele><time>2026-03-27T12:30:09.999Z</time></trkpt><trkpt lat="40.524500398061015" lon="9.045413101032189"><ele>684.0</ele><time>2026-03-27T12:30:10.999Z</time></trkpt><trkpt lat="40.52458531530865" lon="9.045399092910076"><ele>684.0</ele><time>2026-03-27T12:30:11.999Z</time></trkpt><trkpt lat="40.524651082108704" lon="9.045384158679433"><ele>681.8333333333334</ele><time>2026-03-27T12:30:12.999Z</time></trkpt><trkpt lat="40.52473956221182" lon="9.045349005347372"><ele>679.6666666666666</ele><time>2026-03-27T12:30:14.998Z</time></trkpt><trkpt lat="40.5248036324562" lon="9.045331815165538"><ele>677.5</ele><time>2026-03-27T12:30:16.998Z</time></trkpt><trkpt lat="40.52486082037242" lon="9.045290575696187"><ele>675.3333333333333</ele><time>2026-03-27T12:30:17.998Z</time></trkpt><trkpt lat="40.52494863459778" lon="9.045244451673192"><ele>673.1666666666666</ele><time>2026-03-27T12:30:18.998Z</time></trkpt><trkpt lat="40.52505768197289" lon="9.045238774568972"><ele>671.0</ele><time>2026-03-27T12:30:19.998Z</time></trkpt><trkpt lat="40.52516889233755" lon="9.04523799493847"><ele>671.0</ele><time>2026-03-27T12:30:20.998Z</time></trkpt><trkpt lat="40.5252781193618" lon="9.045243175273852"><ele>671.0</ele><time>2026-03-27T12:30:21.998Z</time></trkpt><trkpt lat="40.525400921181316" lon="9.045241785896058"><ele>671.0</ele><time>2026-03-27T12:30:22.998Z</time></trkpt><trkpt lat="40.52553255143706" lon="9.045208833471266"><ele>671.0</ele><time>2026-03-27T12:30:23.998Z</time></trkpt><trkpt lat="40.52564649266898" lon="9.045176012596151"><ele>668.75</ele><time>2026-03-27T12:30:24.998Z</time></trkpt><trkpt lat="40.52576474378931" lon="9.045139990323651"><ele>666.5</ele><time>2026-03-27T12:30:25.998Z</time></trkpt><trkpt lat="40.52588376678498" lon="9.045119879856221"><ele>664.25</ele><time>2026-03-27T12:30:26.998Z</time></trkpt><trkpt lat="40.525994438354445" lon="9.04511392658251"><ele>662.0</ele><time>2026-03-27T12:30:27.998Z</time></trkpt><trkpt lat="40.52610832812551" lon="9.045112610909683"><ele>660.0</ele><time>2026-03-27T12:30:28.998Z</time></trkpt><trkpt lat="40.52623726291915" lon="9.045165012130244"><ele>658.0</ele><time>2026-03-27T12:30:29.998Z</time></trkpt><trkpt lat="40.52638782180855" lon="9.045241203949466"><ele>656.0</ele><time>2026-03-27T12:30:30.998Z</time></trkpt><trkpt lat="40.526515778304784" lon="9.045312248258226"><ele>654.0</ele><time>2026-03-27T12:30:31.998Z</time></trkpt><trkpt lat="40.526655427205654" lon="9.045367822036445"><ele>654.0</ele><time>2026-03-27T12:30:32.998Z</time></trkpt><trkpt lat="40.52680404010514" lon="9.045414643803225"><ele>654.0</ele><time>2026-03-27T12:30:33.998Z</time></trkpt><trkpt lat="40.52693018913679" lon="9.04544520949861"><ele>654.0</ele><time>2026-03-27T12:30:34.998Z</time></trkpt><trkpt lat="40.527038842280184" lon="9.045452445896506"><ele>654.0</ele><time>2026-03-27T12:30:35.998Z</time></trkpt><trkpt lat="40.52715602090671" lon="9.045436932136804"><ele>654.0</ele><time>2026-03-27T12:30:36.998Z</time></trkpt><trkpt lat="40.527255043975586" lon="9.045416864196604"><ele>654.0</ele><time>2026-03-27T12:30:37.998Z</time></trkpt><trkpt lat="40.527362269808854" lon="9.045381116217822"><ele>654.0</ele><time>2026-03-27T12:30:38.998Z</time></trkpt><trkpt lat="40.52746878655051" lon="9.045339361301352"><ele>654.0</ele><time>2026-03-27T12:30:39.998Z</time></trkpt><trkpt lat="40.52758190603856" lon="9.045259457620801"><ele>654.0</ele><time>2026-03-27T12:30:40.998Z</time></trkpt><trkpt lat="40.527707799606134" lon="9.045165799294889"><ele>654.0</ele><time>2026-03-27T12:30:41.998Z</time></trkpt><trkpt lat="40.52785663891131" lon="9.045077974124395"><ele>654.0</ele><time>2026-03-27T12:30:42.998Z</time></trkpt><trkpt lat="40.527989724344415" lon="9.044999146709548"><ele>654.0</ele><time>2026-03-27T12:30:43.998Z</time></trkpt><trkpt lat="40.528115308041286" lon="9.044910945573186"><ele>654.0</ele><time>2026-03-27T12:30:44.998Z</time></trkpt><trkpt lat="40.52824527694273" lon="9.044798479703678"><ele>654.0</ele><time>2026-03-27T12:30:45.998Z</time></trkpt><trkpt lat="40.52837130930034" lon="9.044728851987342"><ele>654.0</ele><time>2026-03-27T12:30:46.998Z</time></trkpt><trkpt lat="40.52847360933851" lon="9.044675531563769"><ele>654.0</ele><time>2026-03-27T12:30:47.998Z</time></trkpt><trkpt lat="40.52855815237156" lon="9.044623419670433"><ele>654.0</ele><time>2026-03-27T12:30:48.998Z</time></trkpt><trkpt lat="40.52862012022491" lon="9.044573633894847"><ele>654.0</ele><time>2026-03-27T12:30:49.998Z</time></trkpt><trkpt lat="40.528708141179855" lon="9.044498145064857"><ele>654.0</ele><time>2026-03-27T12:30:51.998Z</time></trkpt><trkpt lat="40.52877801572576" lon="9.044475629709673"><ele>654.0</ele><time>2026-03-27T12:30:53.998Z</time></trkpt><trkpt lat="40.528852844816775" lon="9.044471494766729"><ele>654.0</ele><time>2026-03-27T12:30:56.998Z</time></trkpt><trkpt lat="40.52889053735338" lon="9.044557406454881"><ele>654.0</ele><time>2026-03-27T12:30:58.998Z</time></trkpt><trkpt lat="40.52882658074098" lon="9.044645074967372"><ele>654.0</ele><time>2026-03-27T12:31:01.998Z</time></trkpt><trkpt lat="40.5287783677851" lon="9.044725607916511"><ele>654.0</ele><time>2026-03-27T12:31:03.998Z</time></trkpt><trkpt lat="40.52869338492358" lon="9.044856456192193"><ele>654.0</ele><time>2026-03-27T12:31:05.997Z</time></trkpt><trkpt lat="40.52864601853825" lon="9.044939179512767"><ele>654.0</ele><time>2026-03-27T12:31:06.997Z</time></trkpt><trkpt lat="40.528596564762154" lon="9.045022265962052"><ele>656.2</ele><time>2026-03-27T12:31:07.997Z</time></trkpt><trkpt lat="40.528549445097426" lon="9.045106894210543"><ele>658.4000000000001</ele><time>2026-03-27T12:31:08.997Z</time></trkpt><trkpt lat="40.52850402261587" lon="9.045201295586374"><ele>660.6</ele><time>2026-03-27T12:31:09.997Z</time></trkpt><trkpt lat="40.528447736965624" lon="9.04529819326775"><ele>662.8</ele><time>2026-03-27T12:31:10.997Z</time></trkpt><trkpt lat="40.528380483349444" lon="9.045396055865622"><ele>665.0</ele><time>2026-03-27T12:31:11.997Z</time></trkpt><trkpt lat="40.52829780923953" lon="9.045513758749445"><ele>665.0</ele><time>2026-03-27T12:31:12.997Z</time></trkpt><trkpt lat="40.528235197679095" lon="9.045595743564379"><ele>665.0</ele><time>2026-03-27T12:31:13.999Z</time></trkpt><trkpt lat="40.52817121669751" lon="9.04566800482114"><ele>665.0</ele><time>2026-03-27T12:31:14.999Z</time></trkpt><trkpt lat="40.528098547863706" lon="9.045745155929394"><ele>665.0</ele><time>2026-03-27T12:31:15.999Z</time></trkpt><trkpt lat="40.528017694027625" lon="9.045833875686844"><ele>665.0</ele><time>2026-03-27T12:31:16.999Z</time></trkpt><trkpt lat="40.52792246585367" lon="9.045904570849077"><ele>667.0</ele><time>2026-03-27T12:31:17.999Z</time></trkpt><trkpt lat="40.52782330861882" lon="9.045975782780909"><ele>669.0</ele><time>2026-03-27T12:31:18.999Z</time></trkpt><trkpt lat="40.52772939194884" lon="9.046068392349612"><ele>671.0</ele><time>2026-03-27T12:31:19.999Z</time></trkpt><trkpt lat="40.52764465121267" lon="9.046174407794584"><ele>673.0</ele><time>2026-03-27T12:31:20.999Z</time></trkpt><trkpt lat="40.527563659925185" lon="9.04628785082756"><ele>673.0</ele><time>2026-03-27T12:31:21.999Z</time></trkpt><trkpt lat="40.527488519727505" lon="9.046406893851744"><ele>673.0</ele><time>2026-03-27T12:31:22.999Z</time></trkpt><trkpt lat="40.52743350376486" lon="9.046516638971319"><ele>673.0</ele><time>2026-03-27T12:31:23.999Z</time></trkpt><trkpt lat="40.52737161555759" lon="9.0466170205824"><ele>673.0</ele><time>2026-03-27T12:31:24.999Z</time></trkpt><trkpt lat="40.52729600132925" lon="9.04670420017797"><ele>673.0</ele><time>2026-03-27T12:31:25.999Z</time></trkpt><trkpt lat="40.52720808316313" lon="9.046781101258686"><ele>675.8</ele><time>2026-03-27T12:31:26.999Z</time></trkpt><trkpt lat="40.527120019526215" lon="9.046843751106318"><ele>678.5999999999999</ele><time>2026-03-27T12:31:27.999Z</time></trkpt><trkpt lat="40.527047170134566" lon="9.046891543047131"><ele>681.4000000000001</ele><time>2026-03-27T12:31:28.999Z</time></trkpt><trkpt lat="40.526989803889265" lon="9.0469612625677"><ele>684.2</ele><time>2026-03-27T12:31:29.999Z</time></trkpt><trkpt lat="40.52694557786085" lon="9.047063715763555"><ele>687.0</ele><time>2026-03-27T12:31:30.999Z</time></trkpt><trkpt lat="40.5268886001964" lon="9.047184124898587"><ele>687.75</ele><time>2026-03-27T12:31:31.999Z</time></trkpt><trkpt lat="40.526822591241" lon="9.047297944597553"><ele>688.5</ele><time>2026-03-27T12:31:32.999Z</time></trkpt><trkpt lat="40.52674531226458" lon="9.047429562015317"><ele>689.25</ele><time>2026-03-27T12:31:34Z</time></trkpt><trkpt lat="40.52667072171101" lon="9.047582396122184"><ele>690.0</ele><time>2026-03-27T12:31:35Z</time></trkpt><trkpt lat="40.526617898933694" lon="9.047708828094686"><ele>694.75</ele><time>2026-03-27T12:31:36Z</time></trkpt><trkpt lat="40.526571973623746" lon="9.047833901293227"><ele>699.5</ele><time>2026-03-27T12:31:37Z</time></trkpt><trkpt lat="40.52657710624356" lon="9.048003557940172"><ele>704.25</ele><time>2026-03-27T12:31:38Z</time></trkpt><trkpt lat="40.52659930808771" lon="9.048209503033435"><ele>709.0</ele><time>2026-03-27T12:31:39Z</time></trkpt><trkpt lat="40.52661422735551" lon="9.048374578242218"><ele>710.3333333333334</ele><time>2026-03-27T12:31:40Z</time></trkpt><trkpt lat="40.52660784106984" lon="9.048502361186175"><ele>711.6666666666667</ele><time>2026-03-27T12:31:41Z</time></trkpt><trkpt lat="40.52658494769463" lon="9.048601372497101"><ele>713.0</ele><time>2026-03-27T12:31:42Z</time></trkpt><trkpt lat="40.5265426171546" lon="9.048680695869054"><ele>714.3333333333334</ele><time>2026-03-27T12:31:43Z</time></trkpt><trkpt lat="40.52649084123831" lon="9.048731209305814"><ele>715.6666666666666</ele><time>2026-03-27T12:31:44Z</time></trkpt><trkpt lat="40.526429328752904" lon="9.048803833860006"><ele>717.0</ele><time>2026-03-27T12:31:45Z</time></trkpt><trkpt lat="40.526372420533015" lon="9.048856918405724"><ele>717.0</ele><time>2026-03-27T12:31:46Z</time></trkpt><trkpt lat="40.52632991967012" lon="9.04899143385191"><ele>717.0</ele><time>2026-03-27T12:31:48Z</time></trkpt><trkpt lat="40.52632890335316" lon="9.049082349317812"><ele>717.0</ele><time>2026-03-27T12:31:49Z</time></trkpt><trkpt lat="40.52629082441891" lon="9.049171579505796"><ele>717.0</ele><time>2026-03-27T12:31:50Z</time></trkpt><trkpt lat="40.52622190161691" lon="9.049278302854564"><ele>717.0</ele><time>2026-03-27T12:31:51Z</time></trkpt><trkpt lat="40.526118225867144" lon="9.049385907968041"><ele>719.8</ele><time>2026-03-27T12:31:52Z</time></trkpt><trkpt lat="40.5260618009491" lon="9.049477903349185"><ele>722.6</ele><time>2026-03-27T12:31:53Z</time></trkpt><trkpt lat="40.525992886378646" lon="9.0495322161848"><ele>725.4</ele><time>2026-03-27T12:31:54Z</time></trkpt><trkpt lat="40.525899337786115" lon="9.049561337857769"><ele>728.1999999999999</ele><time>2026-03-27T12:31:55Z</time></trkpt><trkpt lat="40.52580225494786" lon="9.049588190782325"><ele>731.0</ele><time>2026-03-27T12:31:56Z</time></trkpt><trkpt lat="40.52572901189744" lon="9.049655075750453"><ele>731.0</ele><time>2026-03-27T12:31:57Z</time></trkpt><trkpt lat="40.52564464886763" lon="9.049739749790962"><ele>731.0</ele><time>2026-03-27T12:31:58Z</time></trkpt><trkpt lat="40.52555547156594" lon="9.049807760803251"><ele>731.0</ele><time>2026-03-27T12:31:59Z</time></trkpt><trkpt lat="40.52545251101159" lon="9.049849983110272"><ele>731.0</ele><time>2026-03-27T12:32:00Z</time></trkpt><trkpt lat="40.52535769491545" lon="9.049899838049239"><ele>731.0</ele><time>2026-03-27T12:32:01Z</time></trkpt><trkpt lat="40.52527102278825" lon="9.049967210672522"><ele>733.0</ele><time>2026-03-27T12:32:02Z</time></trkpt><trkpt lat="40.52519414666784" lon="9.050070888977798"><ele>735.0</ele><time>2026-03-27T12:32:03Z</time></trkpt><trkpt lat="40.52515242243074" lon="9.050182250929346"><ele>737.0</ele><time>2026-03-27T12:32:04Z</time></trkpt><trkpt lat="40.52512834331656" lon="9.050316524621767"><ele>739.0</ele><time>2026-03-27T12:32:05Z</time></trkpt><trkpt lat="40.5250990113158" lon="9.050476811973246"><ele>741.0</ele><time>2026-03-27T12:32:06Z</time></trkpt><trkpt lat="40.52505806385251" lon="9.050651494646816"><ele>742.8</ele><time>2026-03-27T12:32:07Z</time></trkpt><trkpt lat="40.5250294870764" lon="9.05082136754333"><ele>744.5999999999999</ele><time>2026-03-27T12:32:08Z</time></trkpt><trkpt lat="40.52500530759898" lon="9.050946325299368"><ele>746.4</ele><time>2026-03-27T12:32:09Z</time></trkpt><trkpt lat="40.52496208128289" lon="9.05105374436219"><ele>748.2</ele><time>2026-03-27T12:32:10Z</time></trkpt><trkpt lat="40.524900268088246" lon="9.051168904116029"><ele>750.0</ele><time>2026-03-27T12:32:11Z</time></trkpt><trkpt lat="40.52486006072303" lon="9.051313966847598"><ele>750.0</ele><time>2026-03-27T12:32:12Z</time></trkpt><trkpt lat="40.524840699898895" lon="9.051435594971215"><ele>750.0</ele><time>2026-03-27T12:32:13Z</time></trkpt><trkpt lat="40.52481694281832" lon="9.051536116270707"><ele>750.0</ele><time>2026-03-27T12:32:14Z</time></trkpt><trkpt lat="40.52476040430124" lon="9.051634335836045"><ele>750.0</ele><time>2026-03-27T12:32:15Z</time></trkpt><trkpt lat="40.524692428590264" lon="9.051722211100062"><ele>750.0</ele><time>2026-03-27T12:32:16Z</time></trkpt><trkpt lat="40.52459906898311" lon="9.05183256851414"><ele>752.5</ele><time>2026-03-27T12:32:17Z</time></trkpt><trkpt lat="40.52447433670686" lon="9.051971572983831"><ele>755.0</ele><time>2026-03-27T12:32:17.999Z</time></trkpt><trkpt lat="40.524382567916064" lon="9.052114741465674"><ele>757.5</ele><time>2026-03-27T12:32:18.999Z</time></trkpt><trkpt lat="40.5243126199553" lon="9.052255019944447"><ele>760.0</ele><time>2026-03-27T12:32:19.999Z</time></trkpt><trkpt lat="40.52426766205897" lon="9.052390378988452"><ele>758.4</ele><time>2026-03-27T12:32:20.999Z</time></trkpt><trkpt lat="40.52422347940265" lon="9.052504080221931"><ele>756.8</ele><time>2026-03-27T12:32:21.999Z</time></trkpt><trkpt lat="40.524174367614215" lon="9.052597198978994"><ele>755.2</ele><time>2026-03-27T12:32:22.999Z</time></trkpt><trkpt lat="40.52413864295183" lon="9.052691948757113"><ele>753.6</ele><time>2026-03-27T12:32:24.999Z</time></trkpt><trkpt lat="40.524094298799156" lon="9.052787366087221"><ele>752.0</ele><time>2026-03-27T12:32:28.999Z</time></trkpt><trkpt lat="40.524010085641805" lon="9.052890623398344"><ele>752.0</ele><time>2026-03-27T12:32:30.999Z</time></trkpt><trkpt lat="40.52390906737711" lon="9.052982051093835"><ele>752.0</ele><time>2026-03-27T12:32:32.999Z</time></trkpt><trkpt lat="40.523862615577514" lon="9.053053188045546"><ele>752.0</ele><time>2026-03-27T12:32:33.999Z</time></trkpt><trkpt lat="40.524015811006194" lon="9.053194511366653"><ele>752.0</ele><time>2026-03-27T12:32:34.999Z</time></trkpt><trkpt lat="40.52399309069977" lon="9.053288171045454"><ele>750.8</ele><time>2026-03-27T12:32:35.999Z</time></trkpt><trkpt lat="40.52396405669566" lon="9.053397425653815"><ele>749.6</ele><time>2026-03-27T12:32:36.999Z</time></trkpt><trkpt lat="40.52392563573732" lon="9.053518695860403"><ele>748.4</ele><time>2026-03-27T12:32:37.999Z</time></trkpt><trkpt lat="40.52387836145028" lon="9.05363429718916"><ele>747.1999999999999</ele><time>2026-03-27T12:32:38.999Z</time></trkpt><trkpt lat="40.52383763125099" lon="9.053721190844591"><ele>746.0</ele><time>2026-03-27T12:32:39.999Z</time></trkpt><trkpt lat="40.52376066273013" lon="9.053863337420546"><ele>747.0</ele><time>2026-03-27T12:32:41.999Z</time></trkpt><trkpt lat="40.52366482525499" lon="9.053981219884067"><ele>748.0</ele><time>2026-03-27T12:32:42.999Z</time></trkpt><trkpt lat="40.52357424196958" lon="9.05403465757033"><ele>749.0</ele><time>2026-03-27T12:32:43.999Z</time></trkpt><trkpt lat="40.523509233942" lon="9.054079827967731"><ele>750.0</ele><time>2026-03-27T12:32:44.999Z</time></trkpt><trkpt lat="40.52344154944276" lon="9.054134575730908"><ele>751.0</ele><time>2026-03-27T12:32:45.999Z</time></trkpt><trkpt lat="40.523391592599104" lon="9.05418965737793"><ele>752.0</ele><time>2026-03-27T12:32:46.999Z</time></trkpt><trkpt lat="40.523336515871925" lon="9.054261712638501"><ele>755.0</ele><time>2026-03-27T12:32:47.999Z</time></trkpt><trkpt lat="40.52328975254142" lon="9.054322891734916"><ele>758.0</ele><time>2026-03-27T12:32:48.999Z</time></trkpt><trkpt lat="40.5232332921795" lon="9.054573475463565"><ele>761.0</ele><time>2026-03-27T12:32:51.999Z</time></trkpt><trkpt lat="40.52308022873029" lon="9.05472866187271"><ele>762.25</ele><time>2026-03-27T12:32:52.999Z</time></trkpt><trkpt lat="40.52289512529552" lon="9.054782804833017"><ele>763.5</ele><time>2026-03-27T12:32:53.999Z</time></trkpt><trkpt lat="40.5227865420849" lon="9.054799666656509"><ele>764.75</ele><time>2026-03-27T12:32:54.999Z</time></trkpt><trkpt lat="40.52269302505517" lon="9.054808985135029"><ele>766.0</ele><time>2026-03-27T12:32:55.999Z</time></trkpt><trkpt lat="40.52258076299642" lon="9.05479049783565"><ele>766.0</ele><time>2026-03-27T12:32:56.999Z</time></trkpt><trkpt lat="40.52251627625603" lon="9.054787782791578"><ele>766.0</ele><time>2026-03-27T12:32:57.999Z</time></trkpt><trkpt lat="40.52240897958567" lon="9.054821294799687"><ele>766.0</ele><time>2026-03-27T12:32:59.999Z</time></trkpt><trkpt lat="40.5223438908207" lon="9.054878507035623"><ele>766.0</ele><time>2026-03-27T12:33:00.999Z</time></trkpt><trkpt lat="40.52229473022163" lon="9.054946291917597"><ele>766.0</ele><time>2026-03-27T12:33:01.999Z</time></trkpt><trkpt lat="40.522237067857915" lon="9.055044490343349"><ele>766.0</ele><time>2026-03-27T12:33:02.999Z</time></trkpt><trkpt lat="40.522179685552516" lon="9.055160432843936"><ele>766.1999999999999</ele><time>2026-03-27T12:33:03.999Z</time></trkpt><trkpt lat="40.52213700379638" lon="9.055249884472406"><ele>766.4</ele><time>2026-03-27T12:33:04.999Z</time></trkpt><trkpt lat="40.52208393665256" lon="9.055377350270598"><ele>766.6</ele><time>2026-03-27T12:33:06.999Z</time></trkpt><trkpt lat="40.52201682402978" lon="9.055491983945766"><ele>766.8</ele><time>2026-03-27T12:33:08.999Z</time></trkpt><trkpt lat="40.52196441295364" lon="9.055614769943357"><ele>767.0</ele><time>2026-03-27T12:33:10.999Z</time></trkpt><trkpt lat="40.521903998960816" lon="9.055713232670058"><ele>770.75</ele><time>2026-03-27T12:33:11.998Z</time></trkpt><trkpt lat="40.52185622211998" lon="9.055788471777646"><ele>774.5</ele><time>2026-03-27T12:33:12.998Z</time></trkpt><trkpt lat="40.52178874689526" lon="9.055894731956846"><ele>778.25</ele><time>2026-03-27T12:33:13.998Z</time></trkpt><trkpt lat="40.52159469077128" lon="9.05607127323041"><ele>782.0</ele><time>2026-03-27T12:33:14.998Z</time></trkpt><trkpt lat="40.52150887201263" lon="9.056132168672292"><ele>782.0</ele><time>2026-03-27T12:33:15.998Z</time></trkpt><trkpt lat="40.52141630873455" lon="9.056184966017575"><ele>782.0</ele><time>2026-03-27T12:33:16.998Z</time></trkpt><trkpt lat="40.52106392103023" lon="9.055970140818312"><ele>783.0</ele><time>2026-03-27T12:33:17.998Z</time></trkpt><trkpt lat="40.52098892811693" lon="9.055931605035148"><ele>784.0</ele><time>2026-03-27T12:33:18.998Z</time></trkpt><trkpt lat="40.52089710710116" lon="9.055929018738789"><ele>785.0</ele><time>2026-03-27T12:33:20Z</time></trkpt><trkpt lat="40.520832338278396" lon="9.055879427382555"><ele>786.0</ele><time>2026-03-27T12:33:21Z</time></trkpt><trkpt lat="40.520725221311835" lon="9.05577337655469"><ele>787.0</ele><time>2026-03-27T12:33:23Z</time></trkpt><trkpt lat="40.5206556722989" lon="9.055766223406915"><ele>787.6666666666666</ele><time>2026-03-27T12:33:24Z</time></trkpt><trkpt lat="40.52058860817124" lon="9.055759756514862"><ele>788.3333333333333</ele><time>2026-03-27T12:33:25Z</time></trkpt><trkpt lat="40.52051701256852" lon="9.055753127545726"><ele>789.0</ele><time>2026-03-27T12:33:26Z</time></trkpt><trkpt lat="40.52041143915912" lon="9.05575326371179"><ele>789.6666666666667</ele><time>2026-03-27T12:33:28Z</time></trkpt><trkpt lat="40.52032115367659" lon="9.055760944597527"><ele>790.3333333333334</ele><time>2026-03-27T12:33:30Z</time></trkpt><trkpt lat="40.52021609350003" lon="9.055785887060999"><ele>791.0</ele><time>2026-03-27T12:33:33Z</time></trkpt><trkpt lat="40.52014197438943" lon="9.055814103190798"><ele>791.0</ele><time>2026-03-27T12:33:34Z</time></trkpt><trkpt lat="40.5200577039448" lon="9.055815591959446"><ele>791.0</ele><time>2026-03-27T12:33:36Z</time></trkpt><trkpt lat="40.519997636656264" lon="9.055548652776327"><ele>791.0</ele><time>2026-03-27T12:34:16Z</time></trkpt><trkpt lat="40.51996101426832" lon="9.05538892043866"><ele>791.0</ele><time>2026-03-27T12:34:18Z</time></trkpt><trkpt lat="40.51987937257952" lon="9.055305122454131"><ele>790.3333333333334</ele><time>2026-03-27T12:34:19Z</time></trkpt><trkpt lat="40.5197990036657" lon="9.055231189060484"><ele>789.6666666666667</ele><time>2026-03-27T12:34:19.999Z</time></trkpt><trkpt lat="40.519736751786624" lon="9.055197024751115"><ele>789.0</ele><time>2026-03-27T12:34:20.999Z</time></trkpt><trkpt lat="40.51963495110039" lon="9.055237460216992"><ele>788.3333333333333</ele><time>2026-03-27T12:34:22.999Z</time></trkpt><trkpt lat="40.51954469769264" lon="9.055304304790598"><ele>787.6666666666666</ele><time>2026-03-27T12:34:23.999Z</time></trkpt><trkpt lat="40.51947714847955" lon="9.055325667569285"><ele>787.0</ele><time>2026-03-27T12:34:24.999Z</time></trkpt><trkpt lat="40.51932617572897" lon="9.055247918031075"><ele>787.0</ele><time>2026-03-27T12:34:26.999Z</time></trkpt><trkpt lat="40.51924800783035" lon="9.055109793114946"><ele>787.0</ele><time>2026-03-27T12:34:27.999Z</time></trkpt><trkpt lat="40.51921278684359" lon="9.055023114191604"><ele>787.0</ele><time>2026-03-27T12:34:28.999Z</time></trkpt><trkpt lat="40.51912180034822" lon="9.054966458438022"><ele>787.0</ele><time>2026-03-27T12:34:30.999Z</time></trkpt><trkpt lat="40.519030565083625" lon="9.054979790161468"><ele>787.0</ele><time>2026-03-27T12:34:31.999Z</time></trkpt><trkpt lat="40.51897150125354" lon="9.055025167255897"><ele>783.25</ele><time>2026-03-27T12:34:32.999Z</time></trkpt><trkpt lat="40.51889231857278" lon="9.054951492185838"><ele>779.5</ele><time>2026-03-27T12:34:34.999Z</time></trkpt><trkpt lat="40.518872683983176" lon="9.0548435944174"><ele>775.75</ele><time>2026-03-27T12:34:35.999Z</time></trkpt><trkpt lat="40.51886298133143" lon="9.054675285736568"><ele>772.0</ele><time>2026-03-27T12:34:36.999Z</time></trkpt><trkpt lat="40.518826396809814" lon="9.054490128052837"><ele>772.0</ele><time>2026-03-27T12:34:37.999Z</time></trkpt><trkpt lat="40.51878697562454" lon="9.05432245491115"><ele>772.0</ele><time>2026-03-27T12:34:38.999Z</time></trkpt><trkpt lat="40.51875266000067" lon="9.054213462656135"><ele>772.0</ele><time>2026-03-27T12:34:39.999Z</time></trkpt><trkpt lat="40.51873657157215" lon="9.054074539045597"><ele>772.0</ele><time>2026-03-27T12:34:40.999Z</time></trkpt><trkpt lat="40.51868164570431" lon="9.053956989620678"><ele>772.0</ele><time>2026-03-27T12:34:41.999Z</time></trkpt><trkpt lat="40.518632126687066" lon="9.053856991968818"><ele>771.2</ele><time>2026-03-27T12:34:42.999Z</time></trkpt><trkpt lat="40.518535673492686" lon="9.05383990838031"><ele>770.4000000000001</ele><time>2026-03-27T12:34:44.999Z</time></trkpt><trkpt lat="40.518561976040694" lon="9.053758862025335"><ele>769.5999999999999</ele><time>2026-03-27T12:34:49.999Z</time></trkpt><trkpt lat="40.51867516441969" lon="9.05371819550828"><ele>768.8</ele><time>2026-03-27T12:34:51.999Z</time></trkpt><trkpt lat="40.51879151414335" lon="9.05370169796444"><ele>768.0</ele><time>2026-03-27T12:34:53.999Z</time></trkpt><trkpt lat="40.51885566155494" lon="9.053734515702038"><ele>767.1666666666666</ele><time>2026-03-27T12:34:54.999Z</time></trkpt><trkpt lat="40.518921447420695" lon="9.05379814059342"><ele>766.3333333333334</ele><time>2026-03-27T12:34:55.999Z</time></trkpt><trkpt lat="40.51898010181247" lon="9.05386288658669"><ele>765.5</ele><time>2026-03-27T12:34:56.999Z</time></trkpt><trkpt lat="40.5190339148559" lon="9.053921012361295"><ele>764.6666666666667</ele><time>2026-03-27T12:34:57.999Z</time></trkpt><trkpt lat="40.51909767963522" lon="9.053973640160002"><ele>763.8333333333334</ele><time>2026-03-27T12:34:58.999Z</time></trkpt><trkpt lat="40.519152504120655" lon="9.054044337960454"><ele>763.0</ele><time>2026-03-27T12:34:59.999Z</time></trkpt><trkpt lat="40.51921607959181" lon="9.054116160890338"><ele>763.0</ele><time>2026-03-27T12:35:00.999Z</time></trkpt><trkpt lat="40.519269322117374" lon="9.054187880249872"><ele>763.0</ele><time>2026-03-27T12:35:01.999Z</time></trkpt><trkpt lat="40.51932965587078" lon="9.05424651489817"><ele>763.0</ele><time>2026-03-27T12:35:02.999Z</time></trkpt><trkpt lat="40.5193993270114" lon="9.054301714925485"><ele>763.0</ele><time>2026-03-27T12:35:04.999Z</time></trkpt><trkpt lat="40.51947037074254" lon="9.05426645938037"><ele>763.0</ele><time>2026-03-27T12:35:06.999Z</time></trkpt><trkpt lat="40.51954559243977" lon="9.054167895383413"><ele>763.0</ele><time>2026-03-27T12:35:08.999Z</time></trkpt><trkpt lat="40.51956347318906" lon="9.054043158588723"><ele>763.0</ele><time>2026-03-27T12:35:10.999Z</time></trkpt><trkpt lat="40.51957408318736" lon="9.05393061423286"><ele>763.0</ele><time>2026-03-27T12:35:12.998Z</time></trkpt><trkpt lat="40.519547889203" lon="9.053835660814366"><ele>763.0</ele><time>2026-03-27T12:35:14.998Z</time></trkpt><trkpt lat="40.519564652587604" lon="9.05367109193603"><ele>763.0</ele><time>2026-03-27T12:35:16.998Z</time></trkpt><trkpt lat="40.51958298171996" lon="9.053590530550041"><ele>763.0</ele><time>2026-03-27T12:35:17.998Z</time></trkpt><trkpt lat="40.51965830367656" lon="9.053448063253716"><ele>760.1666666666667</ele><time>2026-03-27T12:35:19.998Z</time></trkpt><trkpt lat="40.51969690587976" lon="9.053379413243977"><ele>757.3333333333334</ele><time>2026-03-27T12:35:20.998Z</time></trkpt><trkpt lat="40.519753138083125" lon="9.053327606847612"><ele>754.5</ele><time>2026-03-27T12:35:21.998Z</time></trkpt><trkpt lat="40.51981428249534" lon="9.053276128279336"><ele>751.6666666666666</ele><time>2026-03-27T12:35:22.998Z</time></trkpt><trkpt lat="40.519917844690006" lon="9.053203236871193"><ele>748.8333333333333</ele><time>2026-03-27T12:35:24.998Z</time></trkpt><trkpt lat="40.519981660006444" lon="9.05318367751209"><ele>746.0</ele><time>2026-03-27T12:35:26Z</time></trkpt><trkpt lat="40.52005917150068" lon="9.053157379088196"><ele>744.8</ele><time>2026-03-27T12:35:27Z</time></trkpt><trkpt lat="40.52012666116814" lon="9.053130879082529"><ele>743.5999999999999</ele><time>2026-03-27T12:35:28Z</time></trkpt><trkpt lat="40.520225828284275" lon="9.053061863661517"><ele>742.4</ele><time>2026-03-27T12:35:30Z</time></trkpt><trkpt lat="40.52031118953251" lon="9.05298585343635"><ele>741.2</ele><time>2026-03-27T12:35:32Z</time></trkpt><trkpt lat="40.52038720743848" lon="9.052887246505222"><ele>740.0</ele><time>2026-03-27T12:35:34Z</time></trkpt><trkpt lat="40.52045617869887" lon="9.052755590454145"><ele>736.8333333333333</ele><time>2026-03-27T12:35:36Z</time></trkpt><trkpt lat="40.520491959272874" lon="9.052683566971089"><ele>733.6666666666666</ele><time>2026-03-27T12:35:37Z</time></trkpt><trkpt lat="40.52050495979353" lon="9.052542588005338"><ele>730.5</ele><time>2026-03-27T12:35:39Z</time></trkpt><trkpt lat="40.52052798165804" lon="9.052439963369629"><ele>727.3333333333334</ele><time>2026-03-27T12:35:40Z</time></trkpt><trkpt lat="40.52055449701399" lon="9.052336817383571"><ele>724.1666666666667</ele><time>2026-03-27T12:35:41Z</time></trkpt><trkpt lat="40.52059503926047" lon="9.052247288731579"><ele>721.0</ele><time>2026-03-27T12:35:42Z</time></trkpt><trkpt lat="40.52063027769849" lon="9.052157938183159"><ele>718.6666666666667</ele><time>2026-03-27T12:35:43Z</time></trkpt><trkpt lat="40.52068417344174" lon="9.05203636993026"><ele>716.3333333333334</ele><time>2026-03-27T12:35:45Z</time></trkpt><trkpt lat="40.52072445924109" lon="9.05196425533028"><ele>714.0</ele><time>2026-03-27T12:35:48Z</time></trkpt><trkpt lat="40.520704999959456" lon="9.0518446498945"><ele>711.6666666666666</ele><time>2026-03-27T12:35:52Z</time></trkpt><trkpt lat="40.520659890043106" lon="9.051769415782244"><ele>709.3333333333333</ele><time>2026-03-27T12:35:54Z</time></trkpt><trkpt lat="40.52059922257591" lon="9.051690239696764"><ele>707.0</ele><time>2026-03-27T12:35:57Z</time></trkpt><trkpt lat="40.52049247480416" lon="9.051615120644431"><ele>707.8333333333333</ele><time>2026-03-27T12:35:59Z</time></trkpt><trkpt lat="40.520415002763244" lon="9.051585197756571"><ele>708.6666666666666</ele><time>2026-03-27T12:36:00Z</time></trkpt><trkpt lat="40.52033174655145" lon="9.051571206874574"><ele>709.5</ele><time>2026-03-27T12:36:01Z</time></trkpt><trkpt lat="40.520248343067124" lon="9.051558341882005"><ele>710.3333333333334</ele><time>2026-03-27T12:36:02Z</time></trkpt><trkpt lat="40.52018180079957" lon="9.05153096288012"><ele>711.1666666666667</ele><time>2026-03-27T12:36:03Z</time></trkpt><trkpt lat="40.520124272634256" lon="9.051414945445833"><ele>712.0</ele><time>2026-03-27T12:36:05Z</time></trkpt><trkpt lat="40.52012773489855" lon="9.051318694774988"><ele>712.0</ele><time>2026-03-27T12:36:06Z</time></trkpt><trkpt lat="40.520160154994855" lon="9.051190108219277"><ele>712.0</ele><time>2026-03-27T12:36:07Z</time></trkpt><trkpt lat="40.52018363539709" lon="9.05110040460612"><ele>712.0</ele><time>2026-03-27T12:36:09Z</time></trkpt><trkpt lat="40.52012222065717" lon="9.051075551192577"><ele>712.0</ele><time>2026-03-27T12:36:11Z</time></trkpt><trkpt lat="40.51999723812219" lon="9.051121317514047"><ele>712.0</ele><time>2026-03-27T12:36:13Z</time></trkpt><trkpt lat="40.51989544901278" lon="9.051131406741334"><ele>712.0</ele><time>2026-03-27T12:36:14Z</time></trkpt><trkpt lat="40.51977586461679" lon="9.051113433972889"><ele>712.0</ele><time>2026-03-27T12:36:15Z</time></trkpt><trkpt lat="40.519664003439644" lon="9.05109136356246"><ele>712.0</ele><time>2026-03-27T12:36:16Z</time></trkpt><trkpt lat="40.5195717497603" lon="9.051081277731612"><ele>712.0</ele><time>2026-03-27T12:36:17Z</time></trkpt><trkpt lat="40.51947611748568" lon="9.051093781714991"><ele>712.0</ele><time>2026-03-27T12:36:18Z</time></trkpt><trkpt lat="40.519371252410835" lon="9.051127559693365"><ele>713.5</ele><time>2026-03-27T12:36:19Z</time></trkpt><trkpt lat="40.51926603395294" lon="9.051154021857752"><ele>715.0</ele><time>2026-03-27T12:36:20Z</time></trkpt><trkpt lat="40.519160562955854" lon="9.051135856487525"><ele>716.5</ele><time>2026-03-27T12:36:21Z</time></trkpt><trkpt lat="40.51905064955573" lon="9.051093729358898"><ele>718.0</ele><time>2026-03-27T12:36:22Z</time></trkpt><trkpt lat="40.518917786699475" lon="9.051079694709959"><ele>718.0</ele><time>2026-03-27T12:36:22.999Z</time></trkpt><trkpt lat="40.51879867965781" lon="9.05107141693971"><ele>718.0</ele><time>2026-03-27T12:36:23.999Z</time></trkpt><trkpt lat="40.5186860598685" lon="9.051051470958765"><ele>718.0</ele><time>2026-03-27T12:36:24.999Z</time></trkpt><trkpt lat="40.518570413255716" lon="9.0510138040384"><ele>718.0</ele><time>2026-03-27T12:36:25.999Z</time></trkpt><trkpt lat="40.51846085705325" lon="9.050979857069741"><ele>720.4</ele><time>2026-03-27T12:36:26.999Z</time></trkpt><trkpt lat="40.51836713619443" lon="9.05095808100483"><ele>722.8</ele><time>2026-03-27T12:36:27.999Z</time></trkpt><trkpt lat="40.518264653841584" lon="9.050943115516818"><ele>725.2</ele><time>2026-03-27T12:36:28.999Z</time></trkpt><trkpt lat="40.51817379690232" lon="9.050907226348672"><ele>727.6</ele><time>2026-03-27T12:36:29.999Z</time></trkpt><trkpt lat="40.51807368308591" lon="9.05084073642121"><ele>730.0</ele><time>2026-03-27T12:36:30.999Z</time></trkpt><trkpt lat="40.51797520226316" lon="9.050763057011823"><ele>735.75</ele><time>2026-03-27T12:36:31.999Z</time></trkpt><trkpt lat="40.517874037579" lon="9.050680797983851"><ele>741.5</ele><time>2026-03-27T12:36:32.999Z</time></trkpt><trkpt lat="40.51777142824958" lon="9.050622189051518"><ele>747.25</ele><time>2026-03-27T12:36:33.999Z</time></trkpt><trkpt lat="40.51765841371188" lon="9.050577096582083"><ele>753.0</ele><time>2026-03-27T12:36:34.999Z</time></trkpt><trkpt lat="40.51755687119438" lon="9.05054620645401"><ele>753.0</ele><time>2026-03-27T12:36:35.999Z</time></trkpt><trkpt lat="40.51745908107861" lon="9.050539742004608"><ele>753.0</ele><time>2026-03-27T12:36:36.999Z</time></trkpt><trkpt lat="40.51734807775588" lon="9.050525945922097"><ele>753.0</ele><time>2026-03-27T12:36:37.999Z</time></trkpt><trkpt lat="40.517241047048216" lon="9.050511520103111"><ele>753.0</ele><time>2026-03-27T12:36:38.999Z</time></trkpt><trkpt lat="40.51713460121896" lon="9.050499513381002"><ele>753.0</ele><time>2026-03-27T12:36:39.999Z</time></trkpt><trkpt lat="40.51702536143643" lon="9.050476621170048"><ele>755.8</ele><time>2026-03-27T12:36:40.999Z</time></trkpt><trkpt lat="40.51692715341814" lon="9.05045365614269"><ele>758.5999999999999</ele><time>2026-03-27T12:36:41.999Z</time></trkpt><trkpt lat="40.516828076997804" lon="9.050428715213346"><ele>761.4000000000001</ele><time>2026-03-27T12:36:42.999Z</time></trkpt><trkpt lat="40.5167276222379" lon="9.050404476602619"><ele>764.2</ele><time>2026-03-27T12:36:43.999Z</time></trkpt><trkpt lat="40.516636935382444" lon="9.050416027943186"><ele>767.0</ele><time>2026-03-27T12:36:44.999Z</time></trkpt><trkpt lat="40.51653318295434" lon="9.050438486176025"><ele>767.0</ele><time>2026-03-27T12:36:45.999Z</time></trkpt><trkpt lat="40.516429524870105" lon="9.050453962946161"><ele>767.0</ele><time>2026-03-27T12:36:46.999Z</time></trkpt><trkpt lat="40.516344984431704" lon="9.050446877525484"><ele>767.0</ele><time>2026-03-27T12:36:47.999Z</time></trkpt><trkpt lat="40.516245284532665" lon="9.050427437105915"><ele>767.0</ele><time>2026-03-27T12:36:48.999Z</time></trkpt><trkpt lat="40.51614722894263" lon="9.050396317238322"><ele>767.0</ele><time>2026-03-27T12:36:49.999Z</time></trkpt><trkpt lat="40.51604852129534" lon="9.050346374228889"><ele>768.8</ele><time>2026-03-27T12:36:50.999Z</time></trkpt><trkpt lat="40.515971270405714" lon="9.050310320411468"><ele>770.6</ele><time>2026-03-27T12:36:51.999Z</time></trkpt><trkpt lat="40.515897804690844" lon="9.050241123166694"><ele>772.4</ele><time>2026-03-27T12:36:52.999Z</time></trkpt><trkpt lat="40.51581046390995" lon="9.050162130720542"><ele>774.1999999999999</ele><time>2026-03-27T12:36:53.999Z</time></trkpt><trkpt lat="40.51572259705988" lon="9.050073092830996"><ele>776.0</ele><time>2026-03-27T12:36:54.999Z</time></trkpt><trkpt lat="40.51562104897542" lon="9.049994089832722"><ele>779.1999999999999</ele><time>2026-03-27T12:36:55.999Z</time></trkpt><trkpt lat="40.515538479922064" lon="9.049928934730122"><ele>782.4</ele><time>2026-03-27T12:36:56.999Z</time></trkpt><trkpt lat="40.51547406696362" lon="9.049875018286457"><ele>785.6</ele><time>2026-03-27T12:36:57.999Z</time></trkpt><trkpt lat="40.515421553084224" lon="9.049793712957268"><ele>788.8</ele><time>2026-03-27T12:36:58.999Z</time></trkpt><trkpt lat="40.51536277405389" lon="9.049689763555078"><ele>792.0</ele><time>2026-03-27T12:36:59.999Z</time></trkpt><trkpt lat="40.515298552114075" lon="9.049593129922556"><ele>792.2</ele><time>2026-03-27T12:37:00.999Z</time></trkpt><trkpt lat="40.515246921484426" lon="9.049497176049682"><ele>792.4000000000001</ele><time>2026-03-27T12:37:01.999Z</time></trkpt><trkpt lat="40.51519124633411" lon="9.049395826848254"><ele>792.5999999999999</ele><time>2026-03-27T12:37:02.999Z</time></trkpt><trkpt lat="40.51512997647643" lon="9.049321510894929"><ele>792.8</ele><time>2026-03-27T12:37:03.999Z</time></trkpt><trkpt lat="40.51503919356825" lon="9.049268144847362"><ele>793.0</ele><time>2026-03-27T12:37:05.999Z</time></trkpt><trkpt lat="40.51494077061238" lon="9.049294659280234"><ele>792.9999999999999</ele><time>2026-03-27T12:37:07.999Z</time></trkpt><trkpt lat="40.514840563967475" lon="9.04930440029482"><ele>793.0</ele><time>2026-03-27T12:37:09.999Z</time></trkpt><trkpt lat="40.514768770766494" lon="9.049344402793098"><ele>793.0</ele><time>2026-03-27T12:37:10.999Z</time></trkpt><trkpt lat="40.51471368000022" lon="9.049390612941812"><ele>793.0</ele><time>2026-03-27T12:37:11.999Z</time></trkpt><trkpt lat="40.514662681673165" lon="9.049449707279583"><ele>792.9999999999999</ele><time>2026-03-27T12:37:12.999Z</time></trkpt><trkpt lat="40.51458015772859" lon="9.04957832004707"><ele>793.0</ele><time>2026-03-27T12:37:14.998Z</time></trkpt><trkpt lat="40.514535725069905" lon="9.049648757016879"><ele>793.5999999999999</ele><time>2026-03-27T12:37:17.998Z</time></trkpt><trkpt lat="40.514507943575666" lon="9.049568753342342"><ele>794.1999999999999</ele><time>2026-03-27T12:37:24.998Z</time></trkpt><trkpt lat="40.51451484538941" lon="9.049434585517163"><ele>794.8</ele><time>2026-03-27T12:37:26.998Z</time></trkpt><trkpt lat="40.514520774783186" lon="9.049201713481386"><ele>795.4</ele><time>2026-03-27T12:37:28.998Z</time></trkpt><trkpt lat="40.51450044543378" lon="9.049108395456146"><ele>796.0</ele><time>2026-03-27T12:37:29.998Z</time></trkpt><trkpt lat="40.51447842040058" lon="9.049006038138824"><ele>795.9999999999999</ele><time>2026-03-27T12:37:30.998Z</time></trkpt><trkpt lat="40.514463255224626" lon="9.048902477175478"><ele>796.0</ele><time>2026-03-27T12:37:33Z</time></trkpt><trkpt lat="40.51439088032526" lon="9.048888491671756"><ele>796.0</ele><time>2026-03-27T12:37:36Z</time></trkpt><trkpt lat="40.514364500842355" lon="9.048967389927062"><ele>796.0</ele><time>2026-03-27T12:37:38Z</time></trkpt><trkpt lat="40.51436155617398" lon="9.049109069471822"><ele>795.9999999999999</ele><time>2026-03-27T12:37:40Z</time></trkpt><trkpt lat="40.514336345933174" lon="9.049185311779432"><ele>796.0</ele><time>2026-03-27T12:37:41Z</time></trkpt><trkpt lat="40.514289924255294" lon="9.049266308914403"><ele>797.6666666666666</ele><time>2026-03-27T12:37:42Z</time></trkpt><trkpt lat="40.51423422080362" lon="9.049368127247725"><ele>799.3333333333333</ele><time>2026-03-27T12:37:43Z</time></trkpt><trkpt lat="40.51417854168028" lon="9.049472725955114"><ele>801.0</ele><time>2026-03-27T12:37:44Z</time></trkpt><trkpt lat="40.514131033946384" lon="9.04953505214126"><ele>802.6666666666667</ele><time>2026-03-27T12:37:45Z</time></trkpt><trkpt lat="40.51406602130178" lon="9.049583700137422"><ele>804.3333333333334</ele><time>2026-03-27T12:37:46Z</time></trkpt><trkpt lat="40.513980776233524" lon="9.049625124333195"><ele>806.0</ele><time>2026-03-27T12:37:47Z</time></trkpt><trkpt lat="40.513878041414095" lon="9.049660321272198"><ele>806.0</ele><time>2026-03-27T12:37:48Z</time></trkpt><trkpt lat="40.51376255788502" lon="9.049693549100205"><ele>806.0</ele><time>2026-03-27T12:37:49Z</time></trkpt><trkpt lat="40.51366551068584" lon="9.049723105166834"><ele>806.0</ele><time>2026-03-27T12:37:50Z</time></trkpt><trkpt lat="40.51358947514792" lon="9.049753703408324"><ele>806.0</ele><time>2026-03-27T12:37:51Z</time></trkpt><trkpt lat="40.513520372722375" lon="9.049794508908507"><ele>806.0</ele><time>2026-03-27T12:37:52Z</time></trkpt><trkpt lat="40.51345511456967" lon="9.049854514319478"><ele>808.5999999999999</ele><time>2026-03-27T12:37:53Z</time></trkpt><trkpt lat="40.513387196508305" lon="9.049942838696774"><ele>811.2</ele><time>2026-03-27T12:37:54Z</time></trkpt><trkpt lat="40.513323840416334" lon="9.050011114307624"><ele>813.8</ele><time>2026-03-27T12:37:55Z</time></trkpt><trkpt lat="40.513273749812114" lon="9.050066958559293"><ele>816.4000000000001</ele><time>2026-03-27T12:37:56Z</time></trkpt><trkpt lat="40.513236613269186" lon="9.050195657686556"><ele>819.0</ele><time>2026-03-27T12:37:58Z</time></trkpt><trkpt lat="40.51330944179468" lon="9.050293243245426"><ele>820.6</ele><time>2026-03-27T12:38:00Z</time></trkpt><trkpt lat="40.5133763012956" lon="9.05032158375794"><ele>822.2</ele><time>2026-03-27T12:38:01Z</time></trkpt><trkpt lat="40.513460205738824" lon="9.050391836559006"><ele>823.8000000000001</ele><time>2026-03-27T12:38:02Z</time></trkpt><trkpt lat="40.51355542659964" lon="9.050496785500158"><ele>825.4000000000001</ele><time>2026-03-27T12:38:03Z</time></trkpt><trkpt lat="40.51362548273936" lon="9.05061469150029"><ele>827.0</ele><time>2026-03-27T12:38:04Z</time></trkpt><trkpt lat="40.51368565638866" lon="9.050744863857254"><ele>826.2</ele><time>2026-03-27T12:38:05Z</time></trkpt><trkpt lat="40.51373572019273" lon="9.050868456504073"><ele>825.4000000000001</ele><time>2026-03-27T12:38:06Z</time></trkpt><trkpt lat="40.513764613934576" lon="9.050996237144643"><ele>824.5999999999999</ele><time>2026-03-27T12:38:07Z</time></trkpt><trkpt lat="40.513781023157954" lon="9.051094468579327"><ele>823.8</ele><time>2026-03-27T12:38:08Z</time></trkpt><trkpt lat="40.51378357410645" lon="9.051192072260449"><ele>823.0</ele><time>2026-03-27T12:38:09Z</time></trkpt><trkpt lat="40.51376191308031" lon="9.05133050895688"><ele>826.0</ele><time>2026-03-27T12:38:10Z</time></trkpt><trkpt lat="40.51372725972883" lon="9.051452739215913"><ele>829.0</ele><time>2026-03-27T12:38:11Z</time></trkpt><trkpt lat="40.513727601351356" lon="9.051613104865238"><ele>832.0</ele><time>2026-03-27T12:38:13Z</time></trkpt><trkpt lat="40.51377973336371" lon="9.051738610975567"><ele>835.0</ele><time>2026-03-27T12:38:15Z</time></trkpt><trkpt lat="40.51384019725757" lon="9.05178244983833"><ele>838.0</ele><time>2026-03-27T12:38:16Z</time></trkpt><trkpt lat="40.51390648686131" lon="9.051815174453628"><ele>838.0</ele><time>2026-03-27T12:38:17Z</time></trkpt><trkpt lat="40.51399049841843" lon="9.051814182763852"><ele>838.0</ele><time>2026-03-27T12:38:18Z</time></trkpt><trkpt lat="40.51410861206635" lon="9.051785260080198"><ele>838.0</ele><time>2026-03-27T12:38:19Z</time></trkpt><trkpt lat="40.514217421781495" lon="9.051748323411962"><ele>838.0</ele><time>2026-03-27T12:38:20Z</time></trkpt><trkpt lat="40.51429736945488" lon="9.051725350548649"><ele>838.0</ele><time>2026-03-27T12:38:21Z</time></trkpt><trkpt lat="40.51436270345198" lon="9.051734116805553"><ele>837.9999999999999</ele><time>2026-03-27T12:38:22Z</time></trkpt><trkpt lat="40.514425276886904" lon="9.051851904072295"><ele>838.0</ele><time>2026-03-27T12:38:23.999Z</time></trkpt><trkpt lat="40.514417274405844" lon="9.051943696341537"><ele>838.0</ele><time>2026-03-27T12:38:24.999Z</time></trkpt><trkpt lat="40.51436863947973" lon="9.052030705930676"><ele>838.0</ele><time>2026-03-27T12:38:25.999Z</time></trkpt><trkpt lat="40.51430462184785" lon="9.052087179780697"><ele>837.9999999999999</ele><time>2026-03-27T12:38:26.999Z</time></trkpt><trkpt lat="40.51419825098679" lon="9.052103503049404"><ele>838.0</ele><time>2026-03-27T12:38:28.999Z</time></trkpt><trkpt lat="40.51412020814891" lon="9.052059466492603"><ele>838.0</ele><time>2026-03-27T12:38:29.999Z</time></trkpt><trkpt lat="40.51403633389501" lon="9.052050355494343"><ele>838.0</ele><time>2026-03-27T12:38:30.999Z</time></trkpt><trkpt lat="40.513925160411844" lon="9.052067980352513"><ele>838.0</ele><time>2026-03-27T12:38:31.999Z</time></trkpt><trkpt lat="40.51380048889076" lon="9.052080532817245"><ele>838.0</ele><time>2026-03-27T12:38:32.999Z</time></trkpt><trkpt lat="40.51369204601088" lon="9.052066180936338"><ele>838.0</ele><time>2026-03-27T12:38:33.999Z</time></trkpt><trkpt lat="40.51357876415708" lon="9.052031532827199"><ele>839.0</ele><time>2026-03-27T12:38:34.999Z</time></trkpt><trkpt lat="40.51348578079492" lon="9.052002032072133"><ele>840.0</ele><time>2026-03-27T12:38:35.999Z</time></trkpt><trkpt lat="40.51339876177486" lon="9.051930334085268"><ele>841.0</ele><time>2026-03-27T12:38:37.999Z</time></trkpt><trkpt lat="40.51340059086346" lon="9.051738473700498"><ele>842.0</ele><time>2026-03-27T12:38:39.999Z</time></trkpt><trkpt lat="40.513407262595145" lon="9.051596095230275"><ele>842.0</ele><time>2026-03-27T12:38:40.999Z</time></trkpt><trkpt lat="40.513384301130024" lon="9.051472342380784"><ele>842.0</ele><time>2026-03-27T12:38:41.999Z</time></trkpt><trkpt lat="40.51335138603423" lon="9.051376697920167"><ele>842.0</ele><time>2026-03-27T12:38:42.999Z</time></trkpt><trkpt lat="40.513294894855605" lon="9.051304291868982"><ele>842.0</ele><time>2026-03-27T12:38:43.999Z</time></trkpt><trkpt lat="40.513200779608034" lon="9.051236723309467"><ele>842.0</ele><time>2026-03-27T12:38:44.999Z</time></trkpt><trkpt lat="40.51309120421772" lon="9.051170727310362"><ele>842.0</ele><time>2026-03-27T12:38:45.999Z</time></trkpt><trkpt lat="40.512983643236176" lon="9.051133466249835"><ele>842.0</ele><time>2026-03-27T12:38:46.999Z</time></trkpt><trkpt lat="40.512868727248915" lon="9.051115269988424"><ele>842.0</ele><time>2026-03-27T12:38:47.999Z</time></trkpt><trkpt lat="40.51272926532743" lon="9.051107468152711"><ele>842.0</ele><time>2026-03-27T12:38:48.999Z</time></trkpt><trkpt lat="40.51258744899259" lon="9.05107886295811"><ele>844.6</ele><time>2026-03-27T12:38:49.999Z</time></trkpt><trkpt lat="40.51247105821606" lon="9.051055371488944"><ele>847.2</ele><time>2026-03-27T12:38:50.999Z</time></trkpt><trkpt lat="40.512376630050504" lon="9.051057963401192"><ele>849.8</ele><time>2026-03-27T12:38:51.999Z</time></trkpt><trkpt lat="40.512273361878115" lon="9.051008944521874"><ele>852.4</ele><time>2026-03-27T12:38:53.999Z</time></trkpt><trkpt lat="40.51224705054715" lon="9.050917753018929"><ele>855.0</ele><time>2026-03-27T12:38:54.999Z</time></trkpt><trkpt lat="40.51226340633499" lon="9.050788106708069"><ele>855.0</ele><time>2026-03-27T12:38:55.999Z</time></trkpt><trkpt lat="40.51227917568706" lon="9.050651608591235"><ele>855.0</ele><time>2026-03-27T12:38:56.999Z</time></trkpt><trkpt lat="40.51226929084609" lon="9.050518807230118"><ele>855.0</ele><time>2026-03-27T12:38:57.999Z</time></trkpt><trkpt lat="40.51225463829381" lon="9.050406038242267"><ele>855.0</ele><time>2026-03-27T12:38:58.999Z</time></trkpt><trkpt lat="40.512226104231246" lon="9.050329801247024"><ele>855.0</ele><time>2026-03-27T12:38:59.999Z</time></trkpt><trkpt lat="40.512109116876005" lon="9.050261255946536"><ele>858.75</ele><time>2026-03-27T12:39:01.999Z</time></trkpt><trkpt lat="40.5120176081463" lon="9.050263876830451"><ele>862.5</ele><time>2026-03-27T12:39:02.999Z</time></trkpt><trkpt lat="40.511908698214555" lon="9.050299429383264"><ele>866.25</ele><time>2026-03-27T12:39:03.999Z</time></trkpt><trkpt lat="40.51180144902673" lon="9.050377454841366"><ele>870.0</ele><time>2026-03-27T12:39:04.999Z</time></trkpt><trkpt lat="40.51168965567051" lon="9.050477472253307"><ele>870.0</ele><time>2026-03-27T12:39:05.999Z</time></trkpt><trkpt lat="40.51158684694801" lon="9.05055796755951"><ele>870.0</ele><time>2026-03-27T12:39:06.999Z</time></trkpt><trkpt lat="40.5115009560168" lon="9.050612595272717"><ele>870.0</ele><time>2026-03-27T12:39:07.999Z</time></trkpt><trkpt lat="40.51142489860911" lon="9.050642617831315"><ele>870.0</ele><time>2026-03-27T12:39:08.999Z</time></trkpt><trkpt lat="40.51134385376613" lon="9.050645266915772"><ele>870.0</ele><time>2026-03-27T12:39:09.999Z</time></trkpt><trkpt lat="40.51123348901493" lon="9.050635465487652"><ele>869.3333333333334</ele><time>2026-03-27T12:39:10.999Z</time></trkpt><trkpt lat="40.51112958423568" lon="9.050642508615692"><ele>868.6666666666667</ele><time>2026-03-27T12:39:11.999Z</time></trkpt><trkpt lat="40.51103207559641" lon="9.050662233580912"><ele>868.0</ele><time>2026-03-27T12:39:13.999Z</time></trkpt><trkpt lat="40.511023870450856" lon="9.05074810452384"><ele>867.3333333333334</ele><time>2026-03-27T12:39:18.998Z</time></trkpt><trkpt lat="40.511125802574846" lon="9.050804165458967"><ele>866.6666666666667</ele><time>2026-03-27T12:39:20.998Z</time></trkpt><trkpt lat="40.51118865202379" lon="9.050840042955539"><ele>866.0</ele><time>2026-03-27T12:39:21.998Z</time></trkpt><trkpt lat="40.51124616715381" lon="9.050902160148"><ele>869.1666666666667</ele><time>2026-03-27T12:39:22.998Z</time></trkpt><trkpt lat="40.5113135000529" lon="9.050981323761816"><ele>872.3333333333334</ele><time>2026-03-27T12:39:23.998Z</time></trkpt><trkpt lat="40.51138698433358" lon="9.051054767687715"><ele>875.5</ele><time>2026-03-27T12:39:24.998Z</time></trkpt><trkpt lat="40.51146378168168" lon="9.051120999975813"><ele>878.6666666666667</ele><time>2026-03-27T12:39:25.998Z</time></trkpt><trkpt lat="40.511517255183456" lon="9.05119334248395"><ele>881.8333333333334</ele><time>2026-03-27T12:39:26.998Z</time></trkpt><trkpt lat="40.51155396644493" lon="9.051291164508953"><ele>885.0</ele><time>2026-03-27T12:39:27.998Z</time></trkpt><trkpt lat="40.511580932592885" lon="9.051405694497404"><ele>885.0</ele><time>2026-03-27T12:39:28.998Z</time></trkpt><trkpt lat="40.511604479284436" lon="9.051531905579889"><ele>885.0</ele><time>2026-03-27T12:39:29.998Z</time></trkpt><trkpt lat="40.511625814167495" lon="9.051662420708862"><ele>885.0</ele><time>2026-03-27T12:39:30.998Z</time></trkpt><trkpt lat="40.51165566966964" lon="9.05179741251239"><ele>885.0</ele><time>2026-03-27T12:39:31.998Z</time></trkpt><trkpt lat="40.51171410251587" lon="9.051940016748944"><ele>885.0</ele><time>2026-03-27T12:39:32.998Z</time></trkpt><trkpt lat="40.51176514649975" lon="9.052066543888143"><ele>887.8</ele><time>2026-03-27T12:39:33.998Z</time></trkpt><trkpt lat="40.51178846756932" lon="9.052183084666062"><ele>890.6</ele><time>2026-03-27T12:39:34.998Z</time></trkpt><trkpt lat="40.51178595205313" lon="9.052297343912114"><ele>893.4000000000001</ele><time>2026-03-27T12:39:35.998Z</time></trkpt><trkpt lat="40.51177403699382" lon="9.052385788819924"><ele>896.2</ele><time>2026-03-27T12:39:37Z</time></trkpt><trkpt lat="40.51169359448742" lon="9.052429440295526"><ele>899.0</ele><time>2026-03-27T12:39:39Z</time></trkpt><trkpt lat="40.51157142887829" lon="9.052319605154723"><ele>899.0</ele><time>2026-03-27T12:39:41Z</time></trkpt><trkpt lat="40.51147969197113" lon="9.052217547725176"><ele>899.0000000000001</ele><time>2026-03-27T12:39:42Z</time></trkpt><trkpt lat="40.51138528855892" lon="9.052130689227438"><ele>899.0000000000001</ele><time>2026-03-27T12:39:43Z</time></trkpt><trkpt lat="40.51129809222812" lon="9.052079284304778"><ele>899.0</ele><time>2026-03-27T12:39:44Z</time></trkpt><trkpt lat="40.511224598791046" lon="9.052073138640653"><ele>899.0</ele><time>2026-03-27T12:39:45Z</time></trkpt><trkpt lat="40.51115805405658" lon="9.052102876764382"><ele>899.2</ele><time>2026-03-27T12:39:46Z</time></trkpt><trkpt lat="40.51110297018989" lon="9.05218521802841"><ele>899.4000000000001</ele><time>2026-03-27T12:39:47Z</time></trkpt><trkpt lat="40.51106212210792" lon="9.052317898104462"><ele>899.6</ele><time>2026-03-27T12:39:48Z</time></trkpt><trkpt lat="40.5110359953794" lon="9.052486751399368"><ele>899.8</ele><time>2026-03-27T12:39:49Z</time></trkpt><trkpt lat="40.511007983057254" lon="9.052624164496967"><ele>900.0</ele><time>2026-03-27T12:39:50Z</time></trkpt><trkpt lat="40.51098368490724" lon="9.05273152223243"><ele>902.8</ele><time>2026-03-27T12:39:51Z</time></trkpt><trkpt lat="40.510952362732105" lon="9.052831630495312"><ele>905.6</ele><time>2026-03-27T12:39:52Z</time></trkpt><trkpt lat="40.51088503008236" lon="9.052925666454536"><ele>908.4000000000001</ele><time>2026-03-27T12:39:53Z</time></trkpt><trkpt lat="40.51080111173099" lon="9.053030859715065"><ele>911.2</ele><time>2026-03-27T12:39:54Z</time></trkpt><trkpt lat="40.51072949128444" lon="9.053112696252766"><ele>914.0</ele><time>2026-03-27T12:39:55Z</time></trkpt><trkpt lat="40.51065800963011" lon="9.05317514393005"><ele>914.0</ele><time>2026-03-27T12:39:56Z</time></trkpt><trkpt lat="40.51056418685414" lon="9.053220780068308"><ele>914.0000000000001</ele><time>2026-03-27T12:39:57Z</time></trkpt><trkpt lat="40.51046058021694" lon="9.053285480220277"><ele>914.0000000000001</ele><time>2026-03-27T12:39:58Z</time></trkpt><trkpt lat="40.51038250283618" lon="9.053378054180074"><ele>914.0</ele><time>2026-03-27T12:39:59Z</time></trkpt><trkpt lat="40.51030764484406" lon="9.053485758583204"><ele>914.0</ele><time>2026-03-27T12:40:00Z</time></trkpt><trkpt lat="40.51023400460221" lon="9.053610420220426"><ele>916.25</ele><time>2026-03-27T12:40:01Z</time></trkpt><trkpt lat="40.51015505123521" lon="9.053723273337253"><ele>918.5</ele><time>2026-03-27T12:40:02Z</time></trkpt><trkpt lat="40.510063611652484" lon="9.053854275865575"><ele>920.75</ele><time>2026-03-27T12:40:03Z</time></trkpt><trkpt lat="40.50998286667094" lon="9.053999870004231"><ele>923.0</ele><time>2026-03-27T12:40:04Z</time></trkpt><trkpt lat="40.509901253686415" lon="9.054176682184394"><ele>924.4</ele><time>2026-03-27T12:40:05Z</time></trkpt><trkpt lat="40.50983567350732" lon="9.054329514102522"><ele>925.8</ele><time>2026-03-27T12:40:06Z</time></trkpt><trkpt lat="40.50979513773625" lon="9.054453163986235"><ele>927.2</ele><time>2026-03-27T12:40:07Z</time></trkpt><trkpt lat="40.50976998930877" lon="9.054562036306441"><ele>928.6</ele><time>2026-03-27T12:40:08Z</time></trkpt><trkpt lat="40.50973480119616" lon="9.054659724922356"><ele>930.0</ele><time>2026-03-27T12:40:10Z</time></trkpt><trkpt lat="40.50963844327926" lon="9.054650991255794"><ele>930.4</ele><time>2026-03-27T12:40:14Z</time></trkpt><trkpt lat="40.50954186062184" lon="9.054704001090117"><ele>930.8</ele><time>2026-03-27T12:40:16Z</time></trkpt><trkpt lat="40.50946791586393" lon="9.054760152820519"><ele>931.2</ele><time>2026-03-27T12:40:17Z</time></trkpt><trkpt lat="40.50939990711284" lon="9.054835524096253"><ele>931.6</ele><time>2026-03-27T12:40:18Z</time></trkpt><trkpt lat="40.50933434509358" lon="9.05494708248442"><ele>932.0</ele><time>2026-03-27T12:40:19Z</time></trkpt><trkpt lat="40.509257285311804" lon="9.055037056259508"><ele>932.0</ele><time>2026-03-27T12:40:20Z</time></trkpt><trkpt lat="40.50918052986847" lon="9.055110366388806"><ele>932.0</ele><time>2026-03-27T12:40:21Z</time></trkpt><trkpt lat="40.509111926885815" lon="9.055192639539042"><ele>932.0</ele><time>2026-03-27T12:40:22Z</time></trkpt><trkpt lat="40.509056245457366" lon="9.055305736115956"><ele>932.0</ele><time>2026-03-27T12:40:23Z</time></trkpt><trkpt lat="40.509023897256576" lon="9.055450170551214"><ele>932.0</ele><time>2026-03-27T12:40:24Z</time></trkpt><trkpt lat="40.509006030890525" lon="9.055594612290458"><ele>932.0</ele><time>2026-03-27T12:40:25Z</time></trkpt><trkpt lat="40.50897153707156" lon="9.05572675509787"><ele>932.0</ele><time>2026-03-27T12:40:25.999Z</time></trkpt><trkpt lat="40.508922072628046" lon="9.055841499429379"><ele>932.0</ele><time>2026-03-27T12:40:26.999Z</time></trkpt><trkpt lat="40.508851327169396" lon="9.055945206730602"><ele>932.0</ele><time>2026-03-27T12:40:27.999Z</time></trkpt><trkpt lat="40.50876118790005" lon="9.056075885695284"><ele>932.0</ele><time>2026-03-27T12:40:28.999Z</time></trkpt><trkpt lat="40.508711653612" lon="9.056199714479373"><ele>933.4000000000001</ele><time>2026-03-27T12:40:29.999Z</time></trkpt><trkpt lat="40.50866735500487" lon="9.056315330950579"><ele>934.8000000000001</ele><time>2026-03-27T12:40:30.999Z</time></trkpt><trkpt lat="40.50860177134627" lon="9.056420113528073"><ele>936.2</ele><time>2026-03-27T12:40:31.999Z</time></trkpt><trkpt lat="40.50852287811129" lon="9.056519568115423"><ele>937.6</ele><time>2026-03-27T12:40:32.999Z</time></trkpt><trkpt lat="40.50844332043753" lon="9.056644989201798"><ele>939.0</ele><time>2026-03-27T12:40:33.999Z</time></trkpt><trkpt lat="40.508380175193096" lon="9.056767257671773"><ele>939.0</ele><time>2026-03-27T12:40:34.999Z</time></trkpt><trkpt lat="40.50832152565501" lon="9.056903853106858"><ele>939.0</ele><time>2026-03-27T12:40:35.999Z</time></trkpt><trkpt lat="40.50827270958978" lon="9.057066947483616"><ele>939.0</ele><time>2026-03-27T12:40:36.999Z</time></trkpt><trkpt lat="40.50821682723816" lon="9.05721447269724"><ele>939.0</ele><time>2026-03-27T12:40:37.999Z</time></trkpt><trkpt lat="40.50816305437429" lon="9.057333486528501"><ele>939.0</ele><time>2026-03-27T12:40:38.999Z</time></trkpt><trkpt lat="40.508148059624624" lon="9.0574304349688"><ele>939.0</ele><time>2026-03-27T12:40:39.999Z</time></trkpt><trkpt lat="40.5081601878959" lon="9.057525057874985"><ele>939.0</ele><time>2026-03-27T12:40:40.999Z</time></trkpt><trkpt lat="40.50817395418269" lon="9.057624928075802"><ele>939.0</ele><time>2026-03-27T12:40:41.999Z</time></trkpt><trkpt lat="40.508162361435396" lon="9.057713066660849"><ele>939.0</ele><time>2026-03-27T12:40:42.999Z</time></trkpt><trkpt lat="40.50812505911029" lon="9.057799774699802"><ele>939.0</ele><time>2026-03-27T12:40:43.999Z</time></trkpt><trkpt lat="40.50804404455776" lon="9.057856365882367"><ele>941.6</ele><time>2026-03-27T12:40:44.999Z</time></trkpt><trkpt lat="40.50796098093925" lon="9.057884287195769"><ele>944.2</ele><time>2026-03-27T12:40:45.999Z</time></trkpt><trkpt lat="40.50787724419617" lon="9.057949321216375"><ele>946.8000000000001</ele><time>2026-03-27T12:40:46.999Z</time></trkpt><trkpt lat="40.50780321656438" lon="9.058052832525915"><ele>949.4000000000001</ele><time>2026-03-27T12:40:47.999Z</time></trkpt><trkpt lat="40.50772609979324" lon="9.058146431971728"><ele>952.0</ele><time>2026-03-27T12:40:48.999Z</time></trkpt><trkpt lat="40.50766006707811" lon="9.0582536977491"><ele>949.75</ele><time>2026-03-27T12:40:49.999Z</time></trkpt><trkpt lat="40.50760895737821" lon="9.05839553080863"><ele>947.5</ele><time>2026-03-27T12:40:50.999Z</time></trkpt><trkpt lat="40.50755395646618" lon="9.058564343326308"><ele>945.25</ele><time>2026-03-27T12:40:51.999Z</time></trkpt><trkpt lat="40.50748585537515" lon="9.058747543345834"><ele>943.0</ele><time>2026-03-27T12:40:52.999Z</time></trkpt><trkpt lat="40.50742589505195" lon="9.058917684976462"><ele>942.9999999999999</ele><time>2026-03-27T12:40:53.999Z</time></trkpt><trkpt lat="40.507376215098105" lon="9.059057090124607"><ele>943.0</ele><time>2026-03-27T12:40:54.999Z</time></trkpt><trkpt lat="40.50733784406999" lon="9.059172179478798"><ele>943.0</ele><time>2026-03-27T12:40:55.999Z</time></trkpt><trkpt lat="40.50731527223187" lon="9.05926661804875"><ele>943.0</ele><time>2026-03-27T12:40:56.999Z</time></trkpt><trkpt lat="40.507333932562624" lon="9.059354038396323"><ele>942.9999999999999</ele><time>2026-03-27T12:40:57.999Z</time></trkpt><trkpt lat="40.50737042526799" lon="9.059439277739454"><ele>943.0</ele><time>2026-03-27T12:40:58.999Z</time></trkpt><trkpt lat="40.5074341095876" lon="9.059552034555908"><ele>945.8</ele><time>2026-03-27T12:40:59.999Z</time></trkpt><trkpt lat="40.50750115213865" lon="9.05965447927115"><ele>948.5999999999999</ele><time>2026-03-27T12:41:00.999Z</time></trkpt><trkpt lat="40.50757765034259" lon="9.059726290966704"><ele>951.4000000000001</ele><time>2026-03-27T12:41:01.999Z</time></trkpt><trkpt lat="40.507651482492335" lon="9.059798376194781"><ele>954.2</ele><time>2026-03-27T12:41:02.999Z</time></trkpt><trkpt lat="40.50768469509027" lon="9.059921221436069"><ele>957.0</ele><time>2026-03-27T12:41:04.999Z</time></trkpt><trkpt lat="40.50763702607035" lon="9.059981232943743"><ele>958.8</ele><time>2026-03-27T12:41:06.999Z</time></trkpt><trkpt lat="40.50751663610993" lon="9.060014237067332"><ele>960.6</ele><time>2026-03-27T12:41:08.999Z</time></trkpt><trkpt lat="40.50744138257508" lon="9.06003203175111"><ele>962.3999999999999</ele><time>2026-03-27T12:41:09.999Z</time></trkpt><trkpt lat="40.507357659619" lon="9.060038122140345"><ele>964.1999999999999</ele><time>2026-03-27T12:41:10.999Z</time></trkpt><trkpt lat="40.50725810839803" lon="9.060021443067022"><ele>966.0</ele><time>2026-03-27T12:41:11.999Z</time></trkpt><trkpt lat="40.50714687580794" lon="9.06001031559786"><ele>964.75</ele><time>2026-03-27T12:41:12.999Z</time></trkpt><trkpt lat="40.507016139674896" lon="9.0599999516576"><ele>963.5</ele><time>2026-03-27T12:41:13.999Z</time></trkpt><trkpt lat="40.50688051358393" lon="9.059991511037172"><ele>962.25</ele><time>2026-03-27T12:41:14.999Z</time></trkpt><trkpt lat="40.506717394568405" lon="9.059983509210893"><ele>961.0</ele><time>2026-03-27T12:41:15.999Z</time></trkpt><trkpt lat="40.50658368615543" lon="9.059975861097497"><ele>961.0</ele><time>2026-03-27T12:41:16.999Z</time></trkpt><trkpt lat="40.5064628117427" lon="9.059970385085427"><ele>961.0</ele><time>2026-03-27T12:41:17.998Z</time></trkpt><trkpt lat="40.506347246949595" lon="9.059984987582947"><ele>961.0</ele><time>2026-03-27T12:41:18.998Z</time></trkpt><trkpt lat="40.506222629127286" lon="9.060012872401643"><ele>961.0</ele><time>2026-03-27T12:41:19.998Z</time></trkpt><trkpt lat="40.506134429175084" lon="9.06003748314712"><ele>960.0</ele><time>2026-03-27T12:41:20.998Z</time></trkpt><trkpt lat="40.50606722551796" lon="9.060060563362995"><ele>958.9999999999999</ele><time>2026-03-27T12:41:21.998Z</time></trkpt><trkpt lat="40.50600510750764" lon="9.06013039281278"><ele>957.9999999999999</ele><time>2026-03-27T12:41:23.998Z</time></trkpt><trkpt lat="40.506000176454044" lon="9.060286929587217"><ele>957.0</ele><time>2026-03-27T12:41:25.998Z</time></trkpt><trkpt lat="40.506005424382025" lon="9.060405825797346"><ele>956.0</ele><time>2026-03-27T12:41:26.998Z</time></trkpt><trkpt lat="40.50598855733281" lon="9.060526166641111"><ele>956.0</ele><time>2026-03-27T12:41:27.998Z</time></trkpt><trkpt lat="40.505951694995495" lon="9.060639771242972"><ele>955.9999999999999</ele><time>2026-03-27T12:41:28.998Z</time></trkpt><trkpt lat="40.50589012441239" lon="9.060758790890034"><ele>955.9999999999999</ele><time>2026-03-27T12:41:29.998Z</time></trkpt><trkpt lat="40.5058017879196" lon="9.060876952688698"><ele>956.0</ele><time>2026-03-27T12:41:30.998Z</time></trkpt><trkpt lat="40.50572833648622" lon="9.060984643430002"><ele>956.0</ele><time>2026-03-27T12:41:31.998Z</time></trkpt><trkpt lat="40.50566386039643" lon="9.061108264818841"><ele>957.0</ele><time>2026-03-27T12:41:32.998Z</time></trkpt><trkpt lat="40.50560801260327" lon="9.061234664501688"><ele>957.9999999999999</ele><time>2026-03-27T12:41:33.998Z</time></trkpt><trkpt lat="40.505568565774006" lon="9.061350450654764"><ele>958.9999999999999</ele><time>2026-03-27T12:41:34.998Z</time></trkpt><trkpt lat="40.50553994471025" lon="9.061487727006135"><ele>960.0</ele><time>2026-03-27T12:41:35.998Z</time></trkpt><trkpt lat="40.50553316639318" lon="9.06163757919672"><ele>961.0</ele><time>2026-03-27T12:41:36.998Z</time></trkpt><trkpt lat="40.50553762773373" lon="9.06179291890384"><ele>962.4</ele><time>2026-03-27T12:41:37.998Z</time></trkpt><trkpt lat="40.50555958483556" lon="9.061956648037636"><ele>963.8</ele><time>2026-03-27T12:41:38.998Z</time></trkpt><trkpt lat="40.505566344357945" lon="9.06209181973169"><ele>965.1999999999999</ele><time>2026-03-27T12:41:39.998Z</time></trkpt><trkpt lat="40.50557814936564" lon="9.062221508881754"><ele>966.5999999999999</ele><time>2026-03-27T12:41:40.998Z</time></trkpt><trkpt lat="40.505610592549864" lon="9.062355614923623"><ele>968.0</ele><time>2026-03-27T12:41:41.998Z</time></trkpt><trkpt lat="40.505658730054854" lon="9.062504271443867"><ele>969.0</ele><time>2026-03-27T12:41:43Z</time></trkpt><trkpt lat="40.50570675867873" lon="9.062654093563392"><ele>970.0</ele><time>2026-03-27T12:41:44Z</time></trkpt><trkpt lat="40.50575740972675" lon="9.062790303391138"><ele>971.0</ele><time>2026-03-27T12:41:45Z</time></trkpt><trkpt lat="40.50581666311564" lon="9.062899892056446"><ele>972.0</ele><time>2026-03-27T12:41:46Z</time></trkpt><trkpt lat="40.50583859720276" lon="9.063005922015476"><ele>973.0</ele><time>2026-03-27T12:41:47Z</time></trkpt><trkpt lat="40.50583592575949" lon="9.0631001978736"><ele>973.0</ele><time>2026-03-27T12:41:48Z</time></trkpt><trkpt lat="40.50580140304632" lon="9.063191958899"><ele>973.0</ele><time>2026-03-27T12:41:49Z</time></trkpt><trkpt lat="40.50575200627171" lon="9.063281123095274"><ele>973.0</ele><time>2026-03-27T12:41:50Z</time></trkpt><trkpt lat="40.505667341801185" lon="9.063390579798796"><ele>973.0</ele><time>2026-03-27T12:41:51Z</time></trkpt><trkpt lat="40.505560301596546" lon="9.063500042016944"><ele>973.0</ele><time>2026-03-27T12:41:52Z</time></trkpt><trkpt lat="40.50546670123151" lon="9.063577739913137"><ele>972.8333333333333</ele><time>2026-03-27T12:41:53Z</time></trkpt><trkpt lat="40.505386596478125" lon="9.063638912902272"><ele>972.6666666666666</ele><time>2026-03-27T12:41:54Z</time></trkpt><trkpt lat="40.50530462733252" lon="9.063685680423154"><ele>972.5</ele><time>2026-03-27T12:41:55Z</time></trkpt><trkpt lat="40.50524334305571" lon="9.063734563935427"><ele>972.3333333333333</ele><time>2026-03-27T12:41:56Z</time></trkpt><trkpt lat="40.50521348396702" lon="9.063818940633285"><ele>972.1666666666666</ele><time>2026-03-27T12:41:57Z</time></trkpt><trkpt lat="40.50520236967316" lon="9.063940875610989"><ele>972.0</ele><time>2026-03-27T12:41:58Z</time></trkpt><trkpt lat="40.505195221693995" lon="9.06407267862324"><ele>972.2</ele><time>2026-03-27T12:41:59Z</time></trkpt><trkpt lat="40.505164119875815" lon="9.064169963677648"><ele>972.4000000000001</ele><time>2026-03-27T12:42:00Z</time></trkpt><trkpt lat="40.50509453636294" lon="9.064261564508275"><ele>972.5999999999999</ele><time>2026-03-27T12:42:01Z</time></trkpt><trkpt lat="40.505031696831864" lon="9.06436528289924"><ele>972.8</ele><time>2026-03-27T12:42:02Z</time></trkpt><trkpt lat="40.504970822511" lon="9.06445738904651"><ele>973.0</ele><time>2026-03-27T12:42:03Z</time></trkpt><trkpt lat="40.50491083121992" lon="9.064545256104946"><ele>972.9999999999999</ele><time>2026-03-27T12:42:04Z</time></trkpt><trkpt lat="40.504852170962295" lon="9.064658253289037"><ele>973.0</ele><time>2026-03-27T12:42:05Z</time></trkpt><trkpt lat="40.50482001045727" lon="9.064769632709014"><ele>973.0</ele><time>2026-03-27T12:42:06Z</time></trkpt><trkpt lat="40.504791388126655" lon="9.064872772471622"><ele>973.0</ele><time>2026-03-27T12:42:07Z</time></trkpt><trkpt lat="40.50476191794269" lon="9.064968130535453"><ele>972.9999999999999</ele><time>2026-03-27T12:42:09Z</time></trkpt><trkpt lat="40.504789585606304" lon="9.06504707485711"><ele>973.0</ele><time>2026-03-27T12:42:12Z</time></trkpt><trkpt lat="40.504854617573066" lon="9.06509969435779"><ele>973.1666666666666</ele><time>2026-03-27T12:42:16Z</time></trkpt><trkpt lat="40.504914964967284" lon="9.065198955604039"><ele>973.3333333333333</ele><time>2026-03-27T12:42:19Z</time></trkpt><trkpt lat="40.50495138029901" lon="9.06528559843442"><ele>973.5</ele><time>2026-03-27T12:42:21Z</time></trkpt><trkpt lat="40.50498758806133" lon="9.06537827902311"><ele>973.6666666666667</ele><time>2026-03-27T12:42:23Z</time></trkpt><trkpt lat="40.50499188127004" lon="9.065524445759413"><ele>973.8333333333334</ele><time>2026-03-27T12:42:25Z</time></trkpt><trkpt lat="40.50498770623574" lon="9.065625458060973"><ele>974.0</ele><time>2026-03-27T12:42:26Z</time></trkpt><trkpt lat="40.50499730706947" lon="9.065723127422613"><ele>973.8000000000001</ele><time>2026-03-27T12:42:27Z</time></trkpt><trkpt lat="40.50501281153984" lon="9.065810431402731"><ele>973.6000000000001</ele><time>2026-03-27T12:42:27.999Z</time></trkpt><trkpt lat="40.505026495072066" lon="9.065931591333756"><ele>973.4</ele><time>2026-03-27T12:42:28.999Z</time></trkpt><trkpt lat="40.50503643998225" lon="9.066071373541762"><ele>973.2</ele><time>2026-03-27T12:42:29.999Z</time></trkpt><trkpt lat="40.505041947193845" lon="9.066215462831762"><ele>973.0</ele><time>2026-03-27T12:42:30.999Z</time></trkpt><trkpt lat="40.50505806937566" lon="9.066351406631835"><ele>973.0</ele><time>2026-03-27T12:42:31.999Z</time></trkpt><trkpt lat="40.50509488559007" lon="9.066498437529251"><ele>973.0</ele><time>2026-03-27T12:42:32.999Z</time></trkpt><trkpt lat="40.505129474410424" lon="9.066650415051656"><ele>973.0</ele><time>2026-03-27T12:42:33.999Z</time></trkpt><trkpt lat="40.5051478029904" lon="9.066787393710214"><ele>973.0</ele><time>2026-03-27T12:42:34.999Z</time></trkpt><trkpt lat="40.50516216813303" lon="9.066921390084524"><ele>973.0</ele><time>2026-03-27T12:42:35.999Z</time></trkpt><trkpt lat="40.5051828536079" lon="9.067055242943903"><ele>973.2</ele><time>2026-03-27T12:42:36.999Z</time></trkpt><trkpt lat="40.50520775517884" lon="9.06718312266263"><ele>973.4</ele><time>2026-03-27T12:42:37.999Z</time></trkpt><trkpt lat="40.50523598133717" lon="9.067313274170816"><ele>973.6000000000001</ele><time>2026-03-27T12:42:38.999Z</time></trkpt><trkpt lat="40.50526743828604" lon="9.067451282827617"><ele>973.8000000000001</ele><time>2026-03-27T12:42:39.999Z</time></trkpt><trkpt lat="40.50531644544335" lon="9.06759698555422"><ele>974.0</ele><time>2026-03-27T12:42:40.999Z</time></trkpt><trkpt lat="40.50536929563105" lon="9.067721565480433"><ele>973.6666666666667</ele><time>2026-03-27T12:42:41.999Z</time></trkpt><trkpt lat="40.50540963341474" lon="9.067799262091553"><ele>973.3333333333334</ele><time>2026-03-27T12:42:42.999Z</time></trkpt><trkpt lat="40.50547197336893" lon="9.067894630579898"><ele>973.0</ele><time>2026-03-27T12:42:44.999Z</time></trkpt><trkpt lat="40.50550057209052" lon="9.06797915621069"><ele>972.6666666666667</ele><time>2026-03-27T12:42:45.999Z</time></trkpt><trkpt lat="40.505548285339785" lon="9.068091676997172"><ele>972.3333333333334</ele><time>2026-03-27T12:42:46.999Z</time></trkpt><trkpt lat="40.50558651953611" lon="9.068215570379781"><ele>972.0</ele><time>2026-03-27T12:42:47.999Z</time></trkpt><trkpt lat="40.505617044609146" lon="9.06834886193642"><ele>974.25</ele><time>2026-03-27T12:42:48.999Z</time></trkpt><trkpt lat="40.50564866297996" lon="9.068482137269132"><ele>976.5</ele><time>2026-03-27T12:42:49.999Z</time></trkpt><trkpt lat="40.50569132236906" lon="9.068620834619589"><ele>978.75</ele><time>2026-03-27T12:42:50.999Z</time></trkpt><trkpt lat="40.50573709233169" lon="9.06876532934845"><ele>981.0</ele><time>2026-03-27T12:42:51.999Z</time></trkpt><trkpt lat="40.50577738851338" lon="9.068916277054619"><ele>981.0</ele><time>2026-03-27T12:42:52.999Z</time></trkpt><trkpt lat="40.50581178627339" lon="9.069073486705319"><ele>980.9999999999999</ele><time>2026-03-27T12:42:53.999Z</time></trkpt><trkpt lat="40.505834738204406" lon="9.069221719586078"><ele>980.9999999999999</ele><time>2026-03-27T12:42:54.999Z</time></trkpt><trkpt lat="40.50585433239823" lon="9.069332340451036"><ele>981.0</ele><time>2026-03-27T12:42:55.999Z</time></trkpt><trkpt lat="40.5058795492923" lon="9.069408473572466"><ele>981.0</ele><time>2026-03-27T12:42:56.999Z</time></trkpt><trkpt lat="40.50591469851725" lon="9.069505128126135"><ele>980.5999999999999</ele><time>2026-03-27T12:42:57.999Z</time></trkpt><trkpt lat="40.505930123521246" lon="9.069609385991479"><ele>980.1999999999999</ele><time>2026-03-27T12:42:58.999Z</time></trkpt><trkpt lat="40.50593946710577" lon="9.069735111644965"><ele>979.8000000000001</ele><time>2026-03-27T12:42:59.999Z</time></trkpt><trkpt lat="40.50597182768662" lon="9.069876191554105"><ele>979.4000000000001</ele><time>2026-03-27T12:43:00.999Z</time></trkpt><trkpt lat="40.50601295803019" lon="9.070017288769494"><ele>979.0</ele><time>2026-03-27T12:43:01.999Z</time></trkpt><trkpt lat="40.506051056115545" lon="9.070139291084889"><ele>978.8333333333333</ele><time>2026-03-27T12:43:02.999Z</time></trkpt><trkpt lat="40.50608351020299" lon="9.070251943313039"><ele>978.6666666666666</ele><time>2026-03-27T12:43:03.999Z</time></trkpt><trkpt lat="40.506114786103886" lon="9.070355585933088"><ele>978.5</ele><time>2026-03-27T12:43:04.999Z</time></trkpt><trkpt lat="40.50613737921679" lon="9.070452951628171"><ele>978.3333333333333</ele><time>2026-03-27T12:43:05.999Z</time></trkpt><trkpt lat="40.50615807869234" lon="9.07054536192177"><ele>978.1666666666666</ele><time>2026-03-27T12:43:06.999Z</time></trkpt><trkpt lat="40.50617983242072" lon="9.07063612176408"><ele>978.0</ele><time>2026-03-27T12:43:07.999Z</time></trkpt><trkpt lat="40.5061972719051" lon="9.070716962536434"><ele>977.25</ele><time>2026-03-27T12:43:08.999Z</time></trkpt><trkpt lat="40.50622982364613" lon="9.0708633576462"><ele>976.5</ele><time>2026-03-27T12:43:10.999Z</time></trkpt><trkpt lat="40.50626880107906" lon="9.071012669107771"><ele>975.75</ele><time>2026-03-27T12:43:12.999Z</time></trkpt><trkpt lat="40.50631616442489" lon="9.071193354638703"><ele>975.0</ele><time>2026-03-27T12:43:14.999Z</time></trkpt><trkpt lat="40.50636846764947" lon="9.07132043256785"><ele>975.5</ele><time>2026-03-27T12:43:15.999Z</time></trkpt><trkpt lat="40.50643370138472" lon="9.071496040451892"><ele>976.0</ele><time>2026-03-27T12:43:16.999Z</time></trkpt><trkpt lat="40.506497209844" lon="9.071676524087668"><ele>976.5</ele><time>2026-03-27T12:43:17.999Z</time></trkpt><trkpt lat="40.50655726116577" lon="9.071838774636864"><ele>977.0</ele><time>2026-03-27T12:43:18.999Z</time></trkpt><trkpt lat="40.506603617676554" lon="9.071994409070744"><ele>977.0</ele><time>2026-03-27T12:43:19.999Z</time></trkpt><trkpt lat="40.50665581381556" lon="9.072140373250884"><ele>977.0</ele><time>2026-03-27T12:43:20.998Z</time></trkpt><trkpt lat="40.50672385884681" lon="9.07229351647251"><ele>977.0</ele><time>2026-03-27T12:43:21.998Z</time></trkpt><trkpt lat="40.50679312622742" lon="9.072436187983246"><ele>977.0</ele><time>2026-03-27T12:43:22.998Z</time></trkpt><trkpt lat="40.506869023923876" lon="9.072558358948756"><ele>976.5</ele><time>2026-03-27T12:43:23.998Z</time></trkpt><trkpt lat="40.50696549420628" lon="9.072648117049699"><ele>976.0</ele><time>2026-03-27T12:43:24.998Z</time></trkpt><trkpt lat="40.507087257033724" lon="9.072718217616167"><ele>975.5</ele><time>2026-03-27T12:43:25.998Z</time></trkpt><trkpt lat="40.50723960924024" lon="9.072782272514539"><ele>975.0</ele><time>2026-03-27T12:43:26.998Z</time></trkpt><trkpt lat="40.50737726271102" lon="9.072847127257019"><ele>975.0</ele><time>2026-03-27T12:43:27.998Z</time></trkpt><trkpt lat="40.50750125154628" lon="9.07290902135867"><ele>975.0</ele><time>2026-03-27T12:43:28.998Z</time></trkpt><trkpt lat="40.50762796812616" lon="9.072975291403555"><ele>975.0</ele><time>2026-03-27T12:43:29.998Z</time></trkpt><trkpt lat="40.507761893990086" lon="9.073051382770624"><ele>975.0</ele><time>2026-03-27T12:43:30.998Z</time></trkpt><trkpt lat="40.507884109281356" lon="9.073121310135267"><ele>975.25</ele><time>2026-03-27T12:43:31.998Z</time></trkpt><trkpt lat="40.50800160274479" lon="9.07317171316315"><ele>975.5</ele><time>2026-03-27T12:43:32.998Z</time></trkpt><trkpt lat="40.508128818756845" lon="9.073205574134123"><ele>975.75</ele><time>2026-03-27T12:43:33.998Z</time></trkpt><trkpt lat="40.50826624154901" lon="9.07323197723933"><ele>976.0</ele><time>2026-03-27T12:43:34.998Z</time></trkpt><trkpt lat="40.508398336536395" lon="9.073263699222428"><ele>975.5</ele><time>2026-03-27T12:43:35.998Z</time></trkpt><trkpt lat="40.50852487703479" lon="9.073304230552504"><ele>975.0</ele><time>2026-03-27T12:43:36.998Z</time></trkpt><trkpt lat="40.50865207956894" lon="9.073338190211993"><ele>974.5</ele><time>2026-03-27T12:43:37.998Z</time></trkpt><trkpt lat="40.50879209343662" lon="9.07334994770316"><ele>974.0</ele><time>2026-03-27T12:43:38.998Z</time></trkpt><trkpt lat="40.508919153110725" lon="9.07334070248949"><ele>973.75</ele><time>2026-03-27T12:43:39.998Z</time></trkpt><trkpt lat="40.5090341563707" lon="9.073353542784396"><ele>973.5</ele><time>2026-03-27T12:43:40.998Z</time></trkpt><trkpt lat="40.50913852189856" lon="9.07334830016225"><ele>973.25</ele><time>2026-03-27T12:43:41.998Z</time></trkpt><trkpt lat="40.50923401122012" lon="9.073311299520999"><ele>973.0</ele><time>2026-03-27T12:43:42.998Z</time></trkpt><trkpt lat="40.50936523357557" lon="9.073203999208088"><ele>973.0</ele><time>2026-03-27T12:43:43.998Z</time></trkpt><trkpt lat="40.50950321369917" lon="9.0730767729441"><ele>973.0</ele><time>2026-03-27T12:43:44.998Z</time></trkpt><trkpt lat="40.50963109740643" lon="9.072977248075025"><ele>973.0</ele><time>2026-03-27T12:43:45.998Z</time></trkpt><trkpt lat="40.509759928530556" lon="9.072889874304103"><ele>971.0</ele><time>2026-03-27T12:43:46.998Z</time></trkpt><trkpt lat="40.50989814224146" lon="9.072801151571415"><ele>969.0</ele><time>2026-03-27T12:43:47.998Z</time></trkpt><trkpt lat="40.51002038824563" lon="9.072711422271466"><ele>967.0</ele><time>2026-03-27T12:43:49Z</time></trkpt><trkpt lat="40.510136742250914" lon="9.072629463425782"><ele>965.0</ele><time>2026-03-27T12:43:50Z</time></trkpt><trkpt lat="40.51025196245418" lon="9.072561530808251"><ele>965.0000000000001</ele><time>2026-03-27T12:43:51Z</time></trkpt><trkpt lat="40.51033421303666" lon="9.072504224828998"><ele>965.0</ele><time>2026-03-27T12:43:52Z</time></trkpt><trkpt lat="40.51040082538023" lon="9.072463452329634"><ele>965.0</ele><time>2026-03-27T12:43:53Z</time></trkpt><trkpt lat="40.510474106278856" lon="9.072416120195868"><ele>965.0</ele><time>2026-03-27T12:43:55Z</time></trkpt><trkpt lat="40.51047661539954" lon="9.07232297071775"><ele>965.0000000000001</ele><time>2026-03-27T12:43:57Z</time></trkpt><trkpt lat="40.51045939673581" lon="9.072187758907925"><ele>965.0</ele><time>2026-03-27T12:43:59Z</time></trkpt><trkpt lat="40.51046599819448" lon="9.072103320430118"><ele>964.4</ele><time>2026-03-27T12:44:00Z</time></trkpt><trkpt lat="40.5104738571083" lon="9.07200454376027"><ele>963.8</ele><time>2026-03-27T12:44:01Z</time></trkpt><trkpt lat="40.51046989290993" lon="9.071893530378766"><ele>963.2</ele><time>2026-03-27T12:44:02Z</time></trkpt><trkpt lat="40.51044983806726" lon="9.071761599896362"><ele>962.6</ele><time>2026-03-27T12:44:03Z</time></trkpt><trkpt lat="40.510435763447546" lon="9.0716180005356"><ele>962.0</ele><time>2026-03-27T12:44:04Z</time></trkpt><trkpt lat="40.51042184670057" lon="9.071460653670453"><ele>964.25</ele><time>2026-03-27T12:44:05Z</time></trkpt><trkpt lat="40.510395102269605" lon="9.071304658982925"><ele>966.5</ele><time>2026-03-27T12:44:06Z</time></trkpt><trkpt lat="40.51036524162969" lon="9.071162202593758"><ele>968.75</ele><time>2026-03-27T12:44:07Z</time></trkpt><trkpt lat="40.510349628841404" lon="9.071019017765654"><ele>971.0</ele><time>2026-03-27T12:44:08Z</time></trkpt><trkpt lat="40.51035844206205" lon="9.070850694270229"><ele>970.25</ele><time>2026-03-27T12:44:09Z</time></trkpt><trkpt lat="40.510374599876855" lon="9.070669430546353"><ele>969.5</ele><time>2026-03-27T12:44:10Z</time></trkpt><trkpt lat="40.51037121475855" lon="9.070499099592148"><ele>968.75</ele><time>2026-03-27T12:44:11Z</time></trkpt><trkpt lat="40.51036390882123" lon="9.070329101582319"><ele>968.0</ele><time>2026-03-27T12:44:12Z</time></trkpt><trkpt lat="40.51034507979579" lon="9.070174776007024"><ele>968.0</ele><time>2026-03-27T12:44:13Z</time></trkpt><trkpt lat="40.51032962436537" lon="9.070032076239226"><ele>968.0</ele><time>2026-03-27T12:44:14Z</time></trkpt><trkpt lat="40.510288751373416" lon="9.069911565144471"><ele>968.0</ele><time>2026-03-27T12:44:15Z</time></trkpt><trkpt lat="40.51023191122835" lon="9.069786898205294"><ele>968.0</ele><time>2026-03-27T12:44:16Z</time></trkpt><trkpt lat="40.510169545924256" lon="9.069673016110398"><ele>968.0</ele><time>2026-03-27T12:44:17Z</time></trkpt><trkpt lat="40.51012224265035" lon="9.069573468808048"><ele>968.0</ele><time>2026-03-27T12:44:18Z</time></trkpt><trkpt lat="40.510099430567635" lon="9.069468735235638"><ele>968.0</ele><time>2026-03-27T12:44:19Z</time></trkpt><trkpt lat="40.5101038576699" lon="9.0693657053688"><ele>968.0</ele><time>2026-03-27T12:44:20Z</time></trkpt><trkpt lat="40.51012543905474" lon="9.069239699074972"><ele>968.0</ele><time>2026-03-27T12:44:21Z</time></trkpt><trkpt lat="40.510181265558714" lon="9.069112237130152"><ele>968.0</ele><time>2026-03-27T12:44:22Z</time></trkpt><trkpt lat="40.51024979796561" lon="9.068996721105997"><ele>968.0</ele><time>2026-03-27T12:44:23Z</time></trkpt><trkpt lat="40.510320608660216" lon="9.068920485947915"><ele>968.0</ele><time>2026-03-27T12:44:24Z</time></trkpt><trkpt lat="40.51036529593639" lon="9.068845497465952"><ele>968.0</ele><time>2026-03-27T12:44:25Z</time></trkpt><trkpt lat="40.51039769257182" lon="9.06874144851736"><ele>968.0</ele><time>2026-03-27T12:44:26Z</time></trkpt><trkpt lat="40.51044410316512" lon="9.068606397484654"><ele>968.0</ele><time>2026-03-27T12:44:27Z</time></trkpt><trkpt lat="40.510500162083844" lon="9.0684508909519"><ele>965.5</ele><time>2026-03-27T12:44:28Z</time></trkpt><trkpt lat="40.51056355895182" lon="9.068305798162077"><ele>963.0</ele><time>2026-03-27T12:44:29Z</time></trkpt><trkpt lat="40.51061572293796" lon="9.068183115555723"><ele>960.5</ele><time>2026-03-27T12:44:29.999Z</time></trkpt><trkpt lat="40.51064809632169" lon="9.068055671796584"><ele>958.0</ele><time>2026-03-27T12:44:30.999Z</time></trkpt><trkpt lat="40.510653795918905" lon="9.067900612516992"><ele>958.0</ele><time>2026-03-27T12:44:31.999Z</time></trkpt><trkpt lat="40.510659364791394" lon="9.067717316566982"><ele>958.0</ele><time>2026-03-27T12:44:32.999Z</time></trkpt><trkpt lat="40.5106772675089" lon="9.067557323000784"><ele>958.0</ele><time>2026-03-27T12:44:33.999Z</time></trkpt><trkpt lat="40.51067591054589" lon="9.067398037580627"><ele>958.0</ele><time>2026-03-27T12:44:34.999Z</time></trkpt><trkpt lat="40.51065921794157" lon="9.067231741794584"><ele>958.0</ele><time>2026-03-27T12:44:35.999Z</time></trkpt><trkpt lat="40.510640532022784" lon="9.06708754603548"><ele>958.0</ele><time>2026-03-27T12:44:36.999Z</time></trkpt><trkpt lat="40.51060787612128" lon="9.066948331650066"><ele>958.0</ele><time>2026-03-27T12:44:37.999Z</time></trkpt><trkpt lat="40.51055802876526" lon="9.06681366537871"><ele>958.0</ele><time>2026-03-27T12:44:38.999Z</time></trkpt><trkpt lat="40.51050567637635" lon="9.066695171150824"><ele>958.0</ele><time>2026-03-27T12:44:39.999Z</time></trkpt><trkpt lat="40.510455768382315" lon="9.066607128475422"><ele>958.0</ele><time>2026-03-27T12:44:40.999Z</time></trkpt><trkpt lat="40.51042442502495" lon="9.066511413604267"><ele>958.0</ele><time>2026-03-27T12:44:41.999Z</time></trkpt><trkpt lat="40.5104036007193" lon="9.066383064779503"><ele>958.0</ele><time>2026-03-27T12:44:42.999Z</time></trkpt><trkpt lat="40.51036746262219" lon="9.066240907266401"><ele>958.0</ele><time>2026-03-27T12:44:43.999Z</time></trkpt><trkpt lat="40.510334196914414" lon="9.06611907275306"><ele>958.0</ele><time>2026-03-27T12:44:44.999Z</time></trkpt><trkpt lat="40.51030293734841" lon="9.066016091547402"><ele>958.8333333333333</ele><time>2026-03-27T12:44:45.999Z</time></trkpt><trkpt lat="40.510285402207906" lon="9.065924597400528"><ele>959.6666666666666</ele><time>2026-03-27T12:44:46.999Z</time></trkpt><trkpt lat="40.51026379407816" lon="9.065822957197666"><ele>960.5</ele><time>2026-03-27T12:44:47.999Z</time></trkpt><trkpt lat="40.5102421048922" lon="9.065726563246818"><ele>961.3333333333333</ele><time>2026-03-27T12:44:48.999Z</time></trkpt><trkpt lat="40.51021104525687" lon="9.065572737947932"><ele>962.1666666666666</ele><time>2026-03-27T12:44:50.999Z</time></trkpt><trkpt lat="40.51017439567274" lon="9.065468805127608"><ele>963.0</ele><time>2026-03-27T12:44:52.999Z</time></trkpt><trkpt lat="40.51015862449021" lon="9.065383213683848"><ele>963.8</ele><time>2026-03-27T12:44:54.999Z</time></trkpt><trkpt lat="40.51015034597917" lon="9.065289202144678"><ele>964.5999999999999</ele><time>2026-03-27T12:44:57.999Z</time></trkpt><trkpt lat="40.5100918953682" lon="9.065240586388624"><ele>965.4000000000001</ele><time>2026-03-27T12:45:00.999Z</time></trkpt><trkpt lat="40.509965043521575" lon="9.065241382708432"><ele>966.2</ele><time>2026-03-27T12:45:02.999Z</time></trkpt><trkpt lat="40.509867510858705" lon="9.06518357947417"><ele>967.0</ele><time>2026-03-27T12:45:04.999Z</time></trkpt><trkpt lat="40.509784934244" lon="9.065097063149297"><ele>966.9999999999999</ele><time>2026-03-27T12:45:06.999Z</time></trkpt><trkpt lat="40.509716867566205" lon="9.065057843246489"><ele>967.0</ele><time>2026-03-27T12:45:08.999Z</time></trkpt><trkpt lat="40.50967302369306" lon="9.064990216050756"><ele>967.0</ele><time>2026-03-27T12:50:02.998Z</time></trkpt><trkpt lat="40.50961966171377" lon="9.064934395608509"><ele>967.0</ele><time>2026-03-27T12:50:04.998Z</time></trkpt><trkpt lat="40.50952880052298" lon="9.06489443931556"><ele>966.9999999999999</ele><time>2026-03-27T12:50:07Z</time></trkpt><trkpt lat="40.509419230682376" lon="9.064873934675758"><ele>967.0</ele><time>2026-03-27T12:50:09Z</time></trkpt><trkpt lat="40.50930039437774" lon="9.06487443412093"><ele>969.4000000000001</ele><time>2026-03-27T12:50:11Z</time></trkpt><trkpt lat="40.50921931050193" lon="9.064870581760045"><ele>971.8000000000001</ele><time>2026-03-27T12:50:12Z</time></trkpt><trkpt lat="40.509131803104324" lon="9.064864180770526"><ele>974.2</ele><time>2026-03-27T12:50:13Z</time></trkpt><trkpt lat="40.50903883210479" lon="9.0648590966222"><ele>976.6</ele><time>2026-03-27T12:50:14Z</time></trkpt><trkpt lat="40.50893753436287" lon="9.064740670808039"><ele>979.0</ele><time>2026-03-27T12:50:15Z</time></trkpt><trkpt lat="40.508844871979996" lon="9.06475552947954"><ele>979.0</ele><time>2026-03-27T12:50:16Z</time></trkpt><trkpt lat="40.508750328478314" lon="9.064771228068306"><ele>979.0000000000001</ele><time>2026-03-27T12:50:17Z</time></trkpt><trkpt lat="40.50866215239645" lon="9.064788712319633"><ele>979.0000000000001</ele><time>2026-03-27T12:50:18Z</time></trkpt><trkpt lat="40.50857205211237" lon="9.064810704865556"><ele>979.0</ele><time>2026-03-27T12:50:19Z</time></trkpt><trkpt lat="40.50847868177929" lon="9.064844035814117"><ele>979.0</ele><time>2026-03-27T12:50:20Z</time></trkpt><trkpt lat="40.5083794261569" lon="9.06491081338819"><ele>979.4000000000001</ele><time>2026-03-27T12:50:21Z</time></trkpt><trkpt lat="40.508296950649736" lon="9.065019897790384"><ele>979.8000000000001</ele><time>2026-03-27T12:50:22Z</time></trkpt><trkpt lat="40.508219927766845" lon="9.065111274290945"><ele>980.1999999999999</ele><time>2026-03-27T12:50:23Z</time></trkpt><trkpt lat="40.508135027125995" lon="9.065181561342076"><ele>980.5999999999999</ele><time>2026-03-27T12:50:24Z</time></trkpt><trkpt lat="40.50804399124289" lon="9.065242323612196"><ele>981.0</ele><time>2026-03-27T12:50:25Z</time></trkpt><trkpt lat="40.50794353513702" lon="9.065291482765566"><ele>981.5</ele><time>2026-03-27T12:50:26Z</time></trkpt><trkpt lat="40.50784150163633" lon="9.065334477657949"><ele>982.0</ele><time>2026-03-27T12:50:27Z</time></trkpt><trkpt lat="40.507729243379075" lon="9.06537549976687"><ele>982.5</ele><time>2026-03-27T12:50:28Z</time></trkpt><trkpt lat="40.50761291139192" lon="9.065411596779585"><ele>983.0</ele><time>2026-03-27T12:50:29Z</time></trkpt><trkpt lat="40.50749219220838" lon="9.06544125653073"><ele>983.0</ele><time>2026-03-27T12:50:30Z</time></trkpt><trkpt lat="40.507374381673586" lon="9.065454172845872"><ele>983.0</ele><time>2026-03-27T12:50:31Z</time></trkpt><trkpt lat="40.50724861506814" lon="9.065458923223785"><ele>983.0</ele><time>2026-03-27T12:50:32Z</time></trkpt><trkpt lat="40.50711219191642" lon="9.065462651831815"><ele>983.0</ele><time>2026-03-27T12:50:33Z</time></trkpt><trkpt lat="40.50699387489148" lon="9.065465599220744"><ele>982.0</ele><time>2026-03-27T12:50:34Z</time></trkpt><trkpt lat="40.50690092512054" lon="9.065466641036831"><ele>981.0</ele><time>2026-03-27T12:50:35Z</time></trkpt><trkpt lat="40.50681894674648" lon="9.065465606361801"><ele>980.0</ele><time>2026-03-27T12:50:36Z</time></trkpt><trkpt lat="40.50673303963861" lon="9.065463146246065"><ele>979.0</ele><time>2026-03-27T12:50:37.999Z</time></trkpt><trkpt lat="40.506722756505766" lon="9.065120894448384"><ele>979.0</ele><time>2026-03-27T12:50:42.999Z</time></trkpt><trkpt lat="40.50673337759774" lon="9.065028796119389"><ele>979.0000000000001</ele><time>2026-03-27T12:50:43.999Z</time></trkpt><trkpt lat="40.50675511237349" lon="9.06490308763499"><ele>979.0000000000001</ele><time>2026-03-27T12:50:44.999Z</time></trkpt><trkpt lat="40.506785088960186" lon="9.064770314409294"><ele>979.0</ele><time>2026-03-27T12:50:45.999Z</time></trkpt><trkpt lat="40.50682726794351" lon="9.06463722059521"><ele>979.0</ele><time>2026-03-27T12:50:46.999Z</time></trkpt><trkpt lat="40.50687492927961" lon="9.064504059843053"><ele>979.0</ele><time>2026-03-27T12:50:47.999Z</time></trkpt><trkpt lat="40.50692393221092" lon="9.064374528191909"><ele>979.0</ele><time>2026-03-27T12:50:48.999Z</time></trkpt><trkpt lat="40.506980535699554" lon="9.064243070718273"><ele>979.0</ele><time>2026-03-27T12:50:49.999Z</time></trkpt><trkpt lat="40.50703746252157" lon="9.064109331627357"><ele>979.0</ele><time>2026-03-27T12:50:50.999Z</time></trkpt><trkpt lat="40.50709989449432" lon="9.063977747763756"><ele>980.0</ele><time>2026-03-27T12:50:51.999Z</time></trkpt><trkpt lat="40.50717028197855" lon="9.063851664398825"><ele>981.0</ele><time>2026-03-27T12:50:52.999Z</time></trkpt><trkpt lat="40.50725938648212" lon="9.063722024179295"><ele>982.0</ele><time>2026-03-27T12:50:53.999Z</time></trkpt><trkpt lat="40.507329331352636" lon="9.063574940762193"><ele>983.0</ele><time>2026-03-27T12:50:54.999Z</time></trkpt><trkpt lat="40.507396054405625" lon="9.063421610562948"><ele>983.25</ele><time>2026-03-27T12:50:55.999Z</time></trkpt><trkpt lat="40.507469829624576" lon="9.063278937453317"><ele>983.5</ele><time>2026-03-27T12:50:56.999Z</time></trkpt><trkpt lat="40.507552166136605" lon="9.063155673390984"><ele>983.75</ele><time>2026-03-27T12:50:57.999Z</time></trkpt><trkpt lat="40.50763980259594" lon="9.0630352201078"><ele>984.0</ele><time>2026-03-27T12:50:58.999Z</time></trkpt><trkpt lat="40.50771793423701" lon="9.062907999599634"><ele>984.0</ele><time>2026-03-27T12:50:59.999Z</time></trkpt><trkpt lat="40.507794074971464" lon="9.062787470437677"><ele>984.0</ele><time>2026-03-27T12:51:00.999Z</time></trkpt><trkpt lat="40.50788387852845" lon="9.062668380300991"><ele>984.0</ele><time>2026-03-27T12:51:01.999Z</time></trkpt><trkpt lat="40.50798598146617" lon="9.062559345873888"><ele>984.0</ele><time>2026-03-27T12:51:02.999Z</time></trkpt><trkpt lat="40.50809695674765" lon="9.062453065574164"><ele>985.75</ele><time>2026-03-27T12:51:03.999Z</time></trkpt><trkpt lat="40.50820211181291" lon="9.06234653331168"><ele>987.5</ele><time>2026-03-27T12:51:04.999Z</time></trkpt><trkpt lat="40.50829415477267" lon="9.062233272223986"><ele>989.25</ele><time>2026-03-27T12:51:05.999Z</time></trkpt><trkpt lat="40.508364924235885" lon="9.062093712182612"><ele>991.0</ele><time>2026-03-27T12:51:06.999Z</time></trkpt><trkpt lat="40.50842389766684" lon="9.06195126151526"><ele>991.0</ele><time>2026-03-27T12:51:07.999Z</time></trkpt><trkpt lat="40.50848424895352" lon="9.061860137688742"><ele>990.9999999999999</ele><time>2026-03-27T12:51:08.999Z</time></trkpt><trkpt lat="40.5085574102943" lon="9.061793958970302"><ele>990.9999999999999</ele><time>2026-03-27T12:51:09.999Z</time></trkpt><trkpt lat="40.50867111289198" lon="9.061735254098297"><ele>991.0</ele><time>2026-03-27T12:51:10.999Z</time></trkpt><trkpt lat="40.508750778160376" lon="9.061679843675487"><ele>991.0</ele><time>2026-03-27T12:51:11.999Z</time></trkpt><trkpt lat="40.508833299743976" lon="9.061609096769047"><ele>990.5</ele><time>2026-03-27T12:51:12.999Z</time></trkpt><trkpt lat="40.50891494226212" lon="9.061502380325964"><ele>990.0</ele><time>2026-03-27T12:51:13.999Z</time></trkpt><trkpt lat="40.5089955413786" lon="9.06136831899978"><ele>989.5</ele><time>2026-03-27T12:51:14.999Z</time></trkpt><trkpt lat="40.50907012285833" lon="9.061223971077704"><ele>989.0</ele><time>2026-03-27T12:51:15.999Z</time></trkpt><trkpt lat="40.50914038992166" lon="9.061089007744046"><ele>989.0</ele><time>2026-03-27T12:51:16.999Z</time></trkpt><trkpt lat="40.50920478071692" lon="9.06095348721855"><ele>989.0000000000001</ele><time>2026-03-27T12:51:17.999Z</time></trkpt><trkpt lat="40.50926497379529" lon="9.060822490372013"><ele>989.0000000000001</ele><time>2026-03-27T12:51:18.999Z</time></trkpt><trkpt lat="40.509335730597016" lon="9.060717912891532"><ele>989.0</ele><time>2026-03-27T12:51:19.999Z</time></trkpt><trkpt lat="40.509400051380915" lon="9.060622964983603"><ele>989.0</ele><time>2026-03-27T12:51:20.999Z</time></trkpt><trkpt lat="40.50946919727678" lon="9.060507350512971"><ele>989.0</ele><time>2026-03-27T12:51:21.999Z</time></trkpt><trkpt lat="40.509514278829364" lon="9.0603520665087"><ele>989.0</ele><time>2026-03-27T12:51:22.999Z</time></trkpt><trkpt lat="40.50955823093741" lon="9.060184486856434"><ele>989.0</ele><time>2026-03-27T12:51:23.999Z</time></trkpt><trkpt lat="40.50961606738931" lon="9.060047910057257"><ele>989.0</ele><time>2026-03-27T12:51:24.999Z</time></trkpt><trkpt lat="40.50968061265871" lon="9.05991015702817"><ele>988.4000000000001</ele><time>2026-03-27T12:51:25.999Z</time></trkpt><trkpt lat="40.50974210863082" lon="9.059782877682359"><ele>987.8000000000001</ele><time>2026-03-27T12:51:26.999Z</time></trkpt><trkpt lat="40.509803208077585" lon="9.059676813231684"><ele>987.1999999999999</ele><time>2026-03-27T12:51:27.998Z</time></trkpt><trkpt lat="40.50987695721979" lon="9.059591518951947"><ele>986.5999999999999</ele><time>2026-03-27T12:51:28.998Z</time></trkpt><trkpt lat="40.50996411389292" lon="9.059514719716736"><ele>986.0</ele><time>2026-03-27T12:51:29.998Z</time></trkpt><trkpt lat="40.510046304670006" lon="9.059450505410831"><ele>986.0</ele><time>2026-03-27T12:51:30.998Z</time></trkpt><trkpt lat="40.51011611936364" lon="9.059392819417539"><ele>985.9999999999999</ele><time>2026-03-27T12:51:31.998Z</time></trkpt><trkpt lat="40.510183561473646" lon="9.059308739184054"><ele>985.9999999999999</ele><time>2026-03-27T12:51:32.998Z</time></trkpt><trkpt lat="40.51024119963174" lon="9.05920129313345"><ele>986.0</ele><time>2026-03-27T12:51:33.998Z</time></trkpt><trkpt lat="40.51030494061211" lon="9.059085921418808"><ele>986.0</ele><time>2026-03-27T12:51:34.998Z</time></trkpt><trkpt lat="40.51038017062347" lon="9.058998465237892"><ele>982.5999999999999</ele><time>2026-03-27T12:51:35.998Z</time></trkpt><trkpt lat="40.510466430581786" lon="9.0589314518483"><ele>979.1999999999999</ele><time>2026-03-27T12:51:36.998Z</time></trkpt><trkpt lat="40.51055024841118" lon="9.058868093050188"><ele>975.8000000000001</ele><time>2026-03-27T12:51:37.998Z</time></trkpt><trkpt lat="40.51063377076698" lon="9.05881575943608"><ele>972.4000000000001</ele><time>2026-03-27T12:51:38.998Z</time></trkpt><trkpt lat="40.510718079282476" lon="9.05878395938786"><ele>969.0</ele><time>2026-03-27T12:51:39.998Z</time></trkpt><trkpt lat="40.51079948748659" lon="9.058772673330713"><ele>969.0</ele><time>2026-03-27T12:51:40.998Z</time></trkpt><trkpt lat="40.51088170957587" lon="9.058773723886173"><ele>969.0</ele><time>2026-03-27T12:51:41.998Z</time></trkpt><trkpt lat="40.51096544232014" lon="9.058774557346439"><ele>969.0</ele><time>2026-03-27T12:51:42.998Z</time></trkpt><trkpt lat="40.511047954464736" lon="9.058761004766879"><ele>969.0</ele><time>2026-03-27T12:51:43.998Z</time></trkpt><trkpt lat="40.511134803541964" lon="9.058764215111315"><ele>969.0</ele><time>2026-03-27T12:51:44.998Z</time></trkpt><trkpt lat="40.511226314024796" lon="9.05876928436113"><ele>969.0</ele><time>2026-03-27T12:51:45.998Z</time></trkpt><trkpt lat="40.511320113081666" lon="9.058786131146476"><ele>966.3333333333334</ele><time>2026-03-27T12:51:46.998Z</time></trkpt><trkpt lat="40.51140456143632" lon="9.058791741969072"><ele>963.6666666666667</ele><time>2026-03-27T12:51:47.998Z</time></trkpt><trkpt lat="40.511481644813514" lon="9.058784005761288"><ele>961.0</ele><time>2026-03-27T12:51:48.998Z</time></trkpt><trkpt lat="40.51155862340934" lon="9.058778837527315"><ele>958.3333333333334</ele><time>2026-03-27T12:51:49.998Z</time></trkpt><trkpt lat="40.51163467650785" lon="9.058776166717308"><ele>955.6666666666667</ele><time>2026-03-27T12:51:50.998Z</time></trkpt><trkpt lat="40.51171085510363" lon="9.0587709830263"><ele>953.0</ele><time>2026-03-27T12:51:51.998Z</time></trkpt><trkpt lat="40.5117766210906" lon="9.058776178226088"><ele>953.0000000000001</ele><time>2026-03-27T12:51:52.998Z</time></trkpt><trkpt lat="40.51185508539617" lon="9.058790994287605"><ele>953.0</ele><time>2026-03-27T12:51:53.998Z</time></trkpt><trkpt lat="40.51193680468453" lon="9.058791384133155"><ele>953.0</ele><time>2026-03-27T12:51:54.998Z</time></trkpt><trkpt lat="40.512017242463166" lon="9.058772948728226"><ele>953.0</ele><time>2026-03-27T12:51:55.998Z</time></trkpt><trkpt lat="40.51209241517972" lon="9.058753025110303"><ele>953.0000000000001</ele><time>2026-03-27T12:51:56.998Z</time></trkpt><trkpt lat="40.5121645409622" lon="9.058719654563841"><ele>953.0</ele><time>2026-03-27T12:51:57.998Z</time></trkpt><trkpt lat="40.51223070020694" lon="9.058689628709708"><ele>950.2857142857143</ele><time>2026-03-27T12:51:58.998Z</time></trkpt><trkpt lat="40.512306695313164" lon="9.058671222273235"><ele>947.5714285714284</ele><time>2026-03-27T12:51:59.998Z</time></trkpt><trkpt lat="40.512382123923906" lon="9.05866745930928"><ele>944.8571428571428</ele><time>2026-03-27T12:52:00.998Z</time></trkpt><trkpt lat="40.51245914325944" lon="9.05867579420614"><ele>942.1428571428571</ele><time>2026-03-27T12:52:01.998Z</time></trkpt><trkpt lat="40.512521561338346" lon="9.058659897824642"><ele>939.4285714285713</ele><time>2026-03-27T12:52:02.998Z</time></trkpt><trkpt lat="40.51258266510842" lon="9.058628427504555"><ele>936.7142857142856</ele><time>2026-03-27T12:52:03.998Z</time></trkpt><trkpt lat="40.51264045964789" lon="9.05856744192387"><ele>933.9999999999999</ele><time>2026-03-27T12:52:04.998Z</time></trkpt><trkpt lat="40.51275305108541" lon="9.058491624621881"><ele>933.9999999999999</ele><time>2026-03-27T12:52:06.998Z</time></trkpt><trkpt lat="40.5127955092339" lon="9.058419356590774"><ele>934.0</ele><time>2026-03-27T12:52:07.998Z</time></trkpt><trkpt lat="40.51283854935066" lon="9.058352950089779"><ele>934.0</ele><time>2026-03-27T12:52:08.998Z</time></trkpt><trkpt lat="40.51287454722179" lon="9.05827733209066"><ele>934.0</ele><time>2026-03-27T12:52:09.998Z</time></trkpt><trkpt lat="40.51291136862006" lon="9.058116701808466"><ele>933.9999999999999</ele><time>2026-03-27T12:52:11.998Z</time></trkpt><trkpt lat="40.51293838309797" lon="9.05803626521322"><ele>934.0</ele><time>2026-03-27T12:52:13Z</time></trkpt><trkpt lat="40.51296180952022" lon="9.057957832561032"><ele>930.3333333333333</ele><time>2026-03-27T12:52:14Z</time></trkpt><trkpt lat="40.51300398827142" lon="9.057832541110102"><ele>926.6666666666666</ele><time>2026-03-27T12:52:16Z</time></trkpt><trkpt lat="40.51305966371207" lon="9.057707657233824"><ele>923.0</ele><time>2026-03-27T12:52:18Z</time></trkpt><trkpt lat="40.513072408459315" lon="9.057623793584392"><ele>919.3333333333333</ele><time>2026-03-27T12:52:19Z</time></trkpt><trkpt lat="40.513097117868284" lon="9.057543612122918"><ele>915.6666666666666</ele><time>2026-03-27T12:52:20Z</time></trkpt><trkpt lat="40.51313095843677" lon="9.05743938175927"><ele>912.0</ele><time>2026-03-27T12:52:21Z</time></trkpt><trkpt lat="40.51317554114514" lon="9.05733647687819"><ele>910.4285714285713</ele><time>2026-03-27T12:52:22Z</time></trkpt><trkpt lat="40.51320435999517" lon="9.057258518874496"><ele>908.8571428571428</ele><time>2026-03-27T12:52:23Z</time></trkpt><trkpt lat="40.513248207330186" lon="9.057175676220295"><ele>907.2857142857142</ele><time>2026-03-27T12:52:24Z</time></trkpt><trkpt lat="40.51327653903197" lon="9.057096779248285"><ele>905.7142857142858</ele><time>2026-03-27T12:52:25Z</time></trkpt><trkpt lat="40.51331047936187" lon="9.057004025251475"><ele>904.1428571428572</ele><time>2026-03-27T12:52:26Z</time></trkpt><trkpt lat="40.51333913594369" lon="9.056911739586402"><ele>902.5714285714287</ele><time>2026-03-27T12:52:27Z</time></trkpt><trkpt lat="40.51337578767636" lon="9.056836477293697"><ele>901.0</ele><time>2026-03-27T12:52:28Z</time></trkpt><trkpt lat="40.51346041780328" lon="9.056757210303779"><ele>900.9999999999999</ele><time>2026-03-27T12:52:30Z</time></trkpt><trkpt lat="40.51358448558711" lon="9.056767422168589"><ele>901.0</ele><time>2026-03-27T12:52:32Z</time></trkpt><trkpt lat="40.51364541256892" lon="9.056798000211371"><ele>901.0</ele><time>2026-03-27T12:52:33Z</time></trkpt><trkpt lat="40.513714405876286" lon="9.056790611878995"><ele>901.0</ele><time>2026-03-27T12:52:34Z</time></trkpt><trkpt lat="40.51378571116692" lon="9.056781517078575"><ele>900.9999999999999</ele><time>2026-03-27T12:52:35Z</time></trkpt><trkpt lat="40.513860872819215" lon="9.056754443032059"><ele>901.0</ele><time>2026-03-27T12:52:36Z</time></trkpt><trkpt lat="40.51398650505647" lon="9.056709196954996"><ele>900.4999999999999</ele><time>2026-03-27T12:52:38Z</time></trkpt><trkpt lat="40.51405559486819" lon="9.056662778909851"><ele>900.0</ele><time>2026-03-27T12:52:39Z</time></trkpt><trkpt lat="40.51411562236466" lon="9.056598854703049"><ele>899.5</ele><time>2026-03-27T12:52:39.999Z</time></trkpt><trkpt lat="40.51415624573185" lon="9.056522338302626"><ele>899.0</ele><time>2026-03-27T12:52:40.999Z</time></trkpt><trkpt lat="40.51417248903607" lon="9.056421904529248"><ele>898.4999999999999</ele><time>2026-03-27T12:52:41.999Z</time></trkpt><trkpt lat="40.51419131559173" lon="9.056286369596389"><ele>898.0</ele><time>2026-03-27T12:52:42.999Z</time></trkpt><trkpt lat="40.51421886047891" lon="9.056183238085902"><ele>896.8333333333333</ele><time>2026-03-27T12:52:43.999Z</time></trkpt><trkpt lat="40.514251349098544" lon="9.05606227176664"><ele>895.6666666666666</ele><time>2026-03-27T12:52:45.999Z</time></trkpt><trkpt lat="40.51433555455345" lon="9.055984014057632"><ele>894.5</ele><time>2026-03-27T12:52:47.999Z</time></trkpt><trkpt lat="40.51441832560301" lon="9.05594789679232"><ele>893.3333333333333</ele><time>2026-03-27T12:52:48.999Z</time></trkpt><trkpt lat="40.514487100624244" lon="9.055915760179678"><ele>892.1666666666666</ele><time>2026-03-27T12:52:49.999Z</time></trkpt><trkpt lat="40.51456378025497" lon="9.055894116854626"><ele>891.0</ele><time>2026-03-27T12:52:50.999Z</time></trkpt><trkpt lat="40.51463839519385" lon="9.05587518962255"><ele>888.5</ele><time>2026-03-27T12:52:51.999Z</time></trkpt><trkpt lat="40.51474094836505" lon="9.055873099633994"><ele>886.0</ele><time>2026-03-27T12:52:53.999Z</time></trkpt><trkpt lat="40.51480148175515" lon="9.055896888256378"><ele>883.5</ele><time>2026-03-27T12:52:54.999Z</time></trkpt><trkpt lat="40.514859603538326" lon="9.055948250800355"><ele>881.0</ele><time>2026-03-27T12:52:55.999Z</time></trkpt><trkpt lat="40.51489252484949" lon="9.056020060217651"><ele>878.5</ele><time>2026-03-27T12:52:56.999Z</time></trkpt><trkpt lat="40.51493432687803" lon="9.056183296243013"><ele>876.0</ele><time>2026-03-27T12:52:58.999Z</time></trkpt><trkpt lat="40.51495031532186" lon="9.05627403583325"><ele>876.0</ele><time>2026-03-27T12:52:59.999Z</time></trkpt><trkpt lat="40.51496118406004" lon="9.056358567161542"><ele>876.0</ele><time>2026-03-27T12:53:00.999Z</time></trkpt><trkpt lat="40.51495901336392" lon="9.05644270404243"><ele>876.0</ele><time>2026-03-27T12:53:01.999Z</time></trkpt><trkpt lat="40.514965431015995" lon="9.056560585447574"><ele>876.0</ele><time>2026-03-27T12:53:03.999Z</time></trkpt><trkpt lat="40.515061486744955" lon="9.056633705349663"><ele>876.0</ele><time>2026-03-27T12:53:05.999Z</time></trkpt><trkpt lat="40.515148082950006" lon="9.056630836873975"><ele>876.0</ele><time>2026-03-27T12:53:06.999Z</time></trkpt><trkpt lat="40.51522298427935" lon="9.056640502911222"><ele>876.0</ele><time>2026-03-27T12:53:07.999Z</time></trkpt><trkpt lat="40.515295218981485" lon="9.056628809426686"><ele>876.0</ele><time>2026-03-27T12:53:08.999Z</time></trkpt><trkpt lat="40.51537061063513" lon="9.056598940246339"><ele>876.0</ele><time>2026-03-27T12:53:09.999Z</time></trkpt><trkpt lat="40.51545139415268" lon="9.05655810891991"><ele>876.0</ele><time>2026-03-27T12:53:10.999Z</time></trkpt><trkpt lat="40.51553034493506" lon="9.05651498228141"><ele>876.0</ele><time>2026-03-27T12:53:11.999Z</time></trkpt><trkpt lat="40.51560858504573" lon="9.056490749404949"><ele>876.0</ele><time>2026-03-27T12:53:12.999Z</time></trkpt><trkpt lat="40.51568064397387" lon="9.056472338691874"><ele>871.7142857142858</ele><time>2026-03-27T12:53:13.999Z</time></trkpt><trkpt lat="40.515755345705294" lon="9.05645229809308"><ele>867.4285714285713</ele><time>2026-03-27T12:53:14.999Z</time></trkpt><trkpt lat="40.515830148833686" lon="9.056432372717031"><ele>863.1428571428571</ele><time>2026-03-27T12:53:15.999Z</time></trkpt><trkpt lat="40.51590012496539" lon="9.056424529916843"><ele>858.8571428571429</ele><time>2026-03-27T12:53:16.999Z</time></trkpt><trkpt lat="40.51597069055759" lon="9.05643464633831"><ele>854.5714285714287</ele><time>2026-03-27T12:53:17.999Z</time></trkpt><trkpt lat="40.51604451070916" lon="9.056460768212162"><ele>850.2857142857142</ele><time>2026-03-27T12:53:18.999Z</time></trkpt><trkpt lat="40.5161180598384" lon="9.056472444957812"><ele>846.0</ele><time>2026-03-27T12:53:19.999Z</time></trkpt><trkpt lat="40.51624410213481" lon="9.056492916321323"><ele>843.3333333333334</ele><time>2026-03-27T12:53:21.999Z</time></trkpt><trkpt lat="40.51632676544822" lon="9.056481280051043"><ele>840.6666666666667</ele><time>2026-03-27T12:53:22.999Z</time></trkpt><trkpt lat="40.51641150712319" lon="9.056478873045965"><ele>838.0</ele><time>2026-03-27T12:53:23.999Z</time></trkpt><trkpt lat="40.516485970249335" lon="9.056487386389964"><ele>835.3333333333334</ele><time>2026-03-27T12:53:24.999Z</time></trkpt><trkpt lat="40.516561593964276" lon="9.056470796286263"><ele>832.6666666666667</ele><time>2026-03-27T12:53:25.999Z</time></trkpt><trkpt lat="40.51663788815889" lon="9.056419542401148"><ele>830.0</ele><time>2026-03-27T12:53:26.999Z</time></trkpt><trkpt lat="40.51670165713152" lon="9.056354918560372"><ele>830.0</ele><time>2026-03-27T12:53:27.999Z</time></trkpt><trkpt lat="40.51674248855343" lon="9.05628478855544"><ele>830.0</ele><time>2026-03-27T12:53:28.999Z</time></trkpt><trkpt lat="40.516812725899165" lon="9.05615299981676"><ele>830.0</ele><time>2026-03-27T12:53:30.998Z</time></trkpt><trkpt lat="40.516885378778305" lon="9.056018656786874"><ele>830.0</ele><time>2026-03-27T12:53:32.998Z</time></trkpt><trkpt lat="40.516937194348095" lon="9.055956743501621"><ele>830.0</ele><time>2026-03-27T12:53:33.998Z</time></trkpt><trkpt lat="40.517013271141494" lon="9.055905989075324"><ele>828.5000000000001</ele><time>2026-03-27T12:53:34.998Z</time></trkpt><trkpt lat="40.51708476582453" lon="9.055848022910233"><ele>827.0</ele><time>2026-03-27T12:53:35.998Z</time></trkpt><trkpt lat="40.517160665044926" lon="9.055798509430172"><ele>825.5</ele><time>2026-03-27T12:53:36.998Z</time></trkpt><trkpt lat="40.51723447593264" lon="9.055772434560614"><ele>824.0</ele><time>2026-03-27T12:53:37.998Z</time></trkpt><trkpt lat="40.5173102422952" lon="9.055756720789272"><ele>822.5000000000001</ele><time>2026-03-27T12:53:38.998Z</time></trkpt><trkpt lat="40.517394147797106" lon="9.055752866816128"><ele>821.0</ele><time>2026-03-27T12:53:39.998Z</time></trkpt><trkpt lat="40.51748720568376" lon="9.05572982136857"><ele>818.0</ele><time>2026-03-27T12:53:40.998Z</time></trkpt><trkpt lat="40.51759451240984" lon="9.055672505812305"><ele>815.0</ele><time>2026-03-27T12:53:41.998Z</time></trkpt><trkpt lat="40.517687567258484" lon="9.055630325318422"><ele>812.0</ele><time>2026-03-27T12:53:42.998Z</time></trkpt><trkpt lat="40.517776837846604" lon="9.055610642402755"><ele>809.0</ele><time>2026-03-27T12:53:43.998Z</time></trkpt><trkpt lat="40.51786554910748" lon="9.055565672162736"><ele>806.0</ele><time>2026-03-27T12:53:44.998Z</time></trkpt><trkpt lat="40.517938022572814" lon="9.055538542733649"><ele>806.0000000000001</ele><time>2026-03-27T12:53:45.998Z</time></trkpt><trkpt lat="40.51800805677855" lon="9.055532972077986"><ele>806.0</ele><time>2026-03-27T12:53:46.998Z</time></trkpt><trkpt lat="40.518094175653154" lon="9.055543968165294"><ele>806.0</ele><time>2026-03-27T12:53:47.998Z</time></trkpt><trkpt lat="40.51819618005578" lon="9.055553567248166"><ele>806.0</ele><time>2026-03-27T12:53:48.998Z</time></trkpt><trkpt lat="40.51827265368921" lon="9.055587399211905"><ele>806.0000000000001</ele><time>2026-03-27T12:53:49.998Z</time></trkpt><trkpt lat="40.5183670805455" lon="9.05564868000638"><ele>806.0</ele><time>2026-03-27T12:53:50.998Z</time></trkpt><trkpt lat="40.5184930927311" lon="9.055709884438825"><ele>806.0</ele><time>2026-03-27T12:53:51.998Z</time></trkpt><trkpt lat="40.51858681591996" lon="9.055743881000481"><ele>806.0</ele><time>2026-03-27T12:53:52.998Z</time></trkpt><trkpt lat="40.51867919779777" lon="9.055780697481678"><ele>806.0</ele><time>2026-03-27T12:53:53.998Z</time></trkpt><trkpt lat="40.518783222085894" lon="9.0557776439811"><ele>806.0</ele><time>2026-03-27T12:53:54.998Z</time></trkpt><trkpt lat="40.518889789921765" lon="9.055794391247787"><ele>806.0</ele><time>2026-03-27T12:53:55.998Z</time></trkpt><trkpt lat="40.518991498056025" lon="9.055819549612078"><ele>805.1666666666667</ele><time>2026-03-27T12:53:56.998Z</time></trkpt><trkpt lat="40.51907708102875" lon="9.05586549590454"><ele>804.3333333333334</ele><time>2026-03-27T12:53:57.998Z</time></trkpt><trkpt lat="40.51916115497905" lon="9.055899151754126"><ele>803.5</ele><time>2026-03-27T12:53:58.998Z</time></trkpt><trkpt lat="40.5192299862019" lon="9.05593405794805"><ele>802.6666666666667</ele><time>2026-03-27T12:53:59.998Z</time></trkpt><trkpt lat="40.5193013851583" lon="9.055983528363257"><ele>801.8333333333334</ele><time>2026-03-27T12:54:00.998Z</time></trkpt><trkpt lat="40.519380743609545" lon="9.056068841512383"><ele>801.0</ele><time>2026-03-27T12:54:01.998Z</time></trkpt><trkpt lat="40.519449718952146" lon="9.05613823744293"><ele>801.0</ele><time>2026-03-27T12:54:02.998Z</time></trkpt><trkpt lat="40.519520666178096" lon="9.056191115929439"><ele>801.0</ele><time>2026-03-27T12:54:03.998Z</time></trkpt><trkpt lat="40.51958984455459" lon="9.056234474745567"><ele>801.0</ele><time>2026-03-27T12:54:04.998Z</time></trkpt><trkpt lat="40.51965919965975" lon="9.056261919373167"><ele>801.0</ele><time>2026-03-27T12:54:05.998Z</time></trkpt><trkpt lat="40.519781278354245" lon="9.056208411309793"><ele>801.0</ele><time>2026-03-27T12:54:07.998Z</time></trkpt><trkpt lat="40.51983654304873" lon="9.05612777358997"><ele>801.0</ele><time>2026-03-27T12:54:08.998Z</time></trkpt><trkpt lat="40.51989238811555" lon="9.056059456708761"><ele>799.0</ele><time>2026-03-27T12:54:09.998Z</time></trkpt><trkpt lat="40.519992609079345" lon="9.056032689821338"><ele>797.0</ele><time>2026-03-27T12:54:10.998Z</time></trkpt><trkpt lat="40.52004073668696" lon="9.05596223485349"><ele>795.0</ele><time>2026-03-27T12:54:11.998Z</time></trkpt><trkpt lat="40.5201291781618" lon="9.055842186270764"><ele>793.0</ele><time>2026-03-27T12:54:13.998Z</time></trkpt><trkpt lat="40.52019896111952" lon="9.055813598913485"><ele>791.0</ele><time>2026-03-27T12:54:14.998Z</time></trkpt><trkpt lat="40.52028078997782" lon="9.055829636580821"><ele>791.0000000000001</ele><time>2026-03-27T12:54:16.998Z</time></trkpt><trkpt lat="40.520362100571056" lon="9.055813784479156"><ele>791.0</ele><time>2026-03-27T12:54:19Z</time></trkpt><trkpt lat="40.52043396211128" lon="9.055798577374008"><ele>791.0</ele><time>2026-03-27T12:54:21Z</time></trkpt><trkpt lat="40.52053746443407" lon="9.055784370188944"><ele>791.0</ele><time>2026-03-27T12:54:23Z</time></trkpt><trkpt lat="40.520631905769925" lon="9.055802047083844"><ele>791.0000000000001</ele><time>2026-03-27T12:54:24Z</time></trkpt><trkpt lat="40.52071253789675" lon="9.055859920873171"><ele>791.0</ele><time>2026-03-27T12:54:25Z</time></trkpt><trkpt lat="40.520803789657336" lon="9.055933414310301"><ele>790.1999999999999</ele><time>2026-03-27T12:54:26Z</time></trkpt><trkpt lat="40.52086986943672" lon="9.056019664246067"><ele>789.4</ele><time>2026-03-27T12:54:27Z</time></trkpt><trkpt lat="40.52091233786756" lon="9.056147604844979"><ele>788.6</ele><time>2026-03-27T12:54:28Z</time></trkpt><trkpt lat="40.52099061716588" lon="9.056238279548758"><ele>787.8</ele><time>2026-03-27T12:54:29Z</time></trkpt><trkpt lat="40.521065144528976" lon="9.056331198061198"><ele>787.0</ele><time>2026-03-27T12:54:30Z</time></trkpt><trkpt lat="40.52115308430839" lon="9.056413831527747"><ele>786.0</ele><time>2026-03-27T12:54:31Z</time></trkpt><trkpt lat="40.52123654929646" lon="9.056454677988906"><ele>785.0</ele><time>2026-03-27T12:54:32Z</time></trkpt><trkpt lat="40.521320237751084" lon="9.056481202201047"><ele>784.0</ele><time>2026-03-27T12:54:33Z</time></trkpt><trkpt lat="40.52138929472258" lon="9.056424815783956"><ele>783.0</ele><time>2026-03-27T12:54:34Z</time></trkpt><trkpt lat="40.52143968250271" lon="9.05629848727949"><ele>782.0</ele><time>2026-03-27T12:54:35Z</time></trkpt><trkpt lat="40.52150383961797" lon="9.056212164169851"><ele>782.0</ele><time>2026-03-27T12:54:36Z</time></trkpt><trkpt lat="40.52161077343898" lon="9.056132200964695"><ele>782.0</ele><time>2026-03-27T12:54:37Z</time></trkpt><trkpt lat="40.52170968246972" lon="9.056066930570916"><ele>782.0</ele><time>2026-03-27T12:54:38Z</time></trkpt><trkpt lat="40.5217963174243" lon="9.055977497761495"><ele>782.0</ele><time>2026-03-27T12:54:39Z</time></trkpt><trkpt lat="40.52190218414766" lon="9.055852524189248"><ele>780.25</ele><time>2026-03-27T12:54:40Z</time></trkpt><trkpt lat="40.5219643480541" lon="9.055708379247955"><ele>778.5</ele><time>2026-03-27T12:54:40.999Z</time></trkpt><trkpt lat="40.52207366912237" lon="9.055591931181807"><ele>776.75</ele><time>2026-03-27T12:54:41.999Z</time></trkpt><trkpt lat="40.52214193175259" lon="9.055420419101601"><ele>775.0</ele><time>2026-03-27T12:54:42.999Z</time></trkpt><trkpt lat="40.52221606339797" lon="9.055264329718433"><ele>773.4</ele><time>2026-03-27T12:54:43.999Z</time></trkpt><trkpt lat="40.52227877630055" lon="9.055112871918924"><ele>771.8</ele><time>2026-03-27T12:54:44.999Z</time></trkpt><trkpt lat="40.52233526033253" lon="9.055001888874203"><ele>770.2</ele><time>2026-03-27T12:54:45.999Z</time></trkpt><trkpt lat="40.52240264134774" lon="9.054903593178683"><ele>768.6</ele><time>2026-03-27T12:54:46.999Z</time></trkpt><trkpt lat="40.52248009221682" lon="9.054839899020614"><ele>767.0</ele><time>2026-03-27T12:54:47.999Z</time></trkpt><trkpt lat="40.52258075838801" lon="9.054856029020568"><ele>766.75</ele><time>2026-03-27T12:54:48.999Z</time></trkpt><trkpt lat="40.52270836794923" lon="9.05485842013373"><ele>766.5</ele><time>2026-03-27T12:54:49.999Z</time></trkpt><trkpt lat="40.522844435679744" lon="9.054858961625584"><ele>766.25</ele><time>2026-03-27T12:54:50.999Z</time></trkpt><trkpt lat="40.52298479132928" lon="9.054856509148975"><ele>766.0</ele><time>2026-03-27T12:54:51.999Z</time></trkpt><trkpt lat="40.52310547546572" lon="9.054801088380014"><ele>764.75</ele><time>2026-03-27T12:54:52.999Z</time></trkpt><trkpt lat="40.52319566874564" lon="9.054747472596144"><ele>763.5</ele><time>2026-03-27T12:54:53.999Z</time></trkpt><trkpt lat="40.52325893310693" lon="9.054645857294073"><ele>762.25</ele><time>2026-03-27T12:54:54.999Z</time></trkpt><trkpt lat="40.523336203576434" lon="9.054501600870283"><ele>761.0</ele><time>2026-03-27T12:54:55.999Z</time></trkpt><trkpt lat="40.523389882211205" lon="9.054358061963407"><ele>761.0</ele><time>2026-03-27T12:54:56.999Z</time></trkpt><trkpt lat="40.52342698472618" lon="9.054233008714277"><ele>761.0</ele><time>2026-03-27T12:54:57.999Z</time></trkpt><trkpt lat="40.52350551528501" lon="9.054145643765635"><ele>761.0</ele><time>2026-03-27T12:54:58.999Z</time></trkpt><trkpt lat="40.523620716749015" lon="9.05410201509916"><ele>761.0</ele><time>2026-03-27T12:54:59.999Z</time></trkpt><trkpt lat="40.52371704802882" lon="9.054050118715356"><ele>761.0</ele><time>2026-03-27T12:55:00.999Z</time></trkpt><trkpt lat="40.523807988936206" lon="9.053962529882856"><ele>757.25</ele><time>2026-03-27T12:55:01.999Z</time></trkpt><trkpt lat="40.52388335560162" lon="9.053787394806992"><ele>753.5</ele><time>2026-03-27T12:55:02.999Z</time></trkpt><trkpt lat="40.52395354083225" lon="9.053626675638474"><ele>749.75</ele><time>2026-03-27T12:55:03.999Z</time></trkpt><trkpt lat="40.52400567700703" lon="9.053471876235067"><ele>746.0</ele><time>2026-03-27T12:55:04.999Z</time></trkpt><trkpt lat="40.524051257889795" lon="9.053307595825837"><ele>747.5</ele><time>2026-03-27T12:55:05.999Z</time></trkpt><trkpt lat="40.52407988023536" lon="9.053137738316247"><ele>749.0</ele><time>2026-03-27T12:55:06.999Z</time></trkpt><trkpt lat="40.5240972837603" lon="9.052970958357616"><ele>750.5</ele><time>2026-03-27T12:55:07.999Z</time></trkpt><trkpt lat="40.52410774874776" lon="9.052825304948943"><ele>752.0</ele><time>2026-03-27T12:55:08.999Z</time></trkpt><trkpt lat="40.52413962651811" lon="9.052714832943312"><ele>752.0</ele><time>2026-03-27T12:55:09.999Z</time></trkpt><trkpt lat="40.52415941843494" lon="9.052614938611413"><ele>752.0</ele><time>2026-03-27T12:55:10.999Z</time></trkpt><trkpt lat="40.52419309754641" lon="9.052504554244123"><ele>752.0</ele><time>2026-03-27T12:55:12.999Z</time></trkpt><trkpt lat="40.524199807447566" lon="9.052396986655761"><ele>752.0</ele><time>2026-03-27T12:55:15.999Z</time></trkpt><trkpt lat="40.524182616000466" lon="9.052272800466977"><ele>752.0</ele><time>2026-03-27T12:55:17.999Z</time></trkpt><trkpt lat="40.52418261599566" lon="9.052166299173424"><ele>752.0</ele><time>2026-03-27T12:55:18.999Z</time></trkpt><trkpt lat="40.52443830012619" lon="9.052038431015754"><ele>751.5</ele><time>2026-03-27T12:55:19.999Z</time></trkpt><trkpt lat="40.52453787319663" lon="9.051905993283313"><ele>751.0</ele><time>2026-03-27T12:55:20.999Z</time></trkpt><trkpt lat="40.5246417157985" lon="9.051790355707606"><ele>750.5</ele><time>2026-03-27T12:55:21.999Z</time></trkpt><trkpt lat="40.524731661633965" lon="9.051694511842511"><ele>750.0</ele><time>2026-03-27T12:55:22.999Z</time></trkpt><trkpt lat="40.52477609085579" lon="9.051596648300572"><ele>750.0</ele><time>2026-03-27T12:55:23.999Z</time></trkpt><trkpt lat="40.524821650673424" lon="9.051506067092904"><ele>750.0</ele><time>2026-03-27T12:55:24.999Z</time></trkpt><trkpt lat="40.52486733433781" lon="9.05141029986488"><ele>750.0</ele><time>2026-03-27T12:55:25.999Z</time></trkpt><trkpt lat="40.52489396023631" lon="9.05130942312246"><ele>750.0</ele><time>2026-03-27T12:55:26.999Z</time></trkpt><trkpt lat="40.52491750390778" lon="9.051191942579155"><ele>750.0</ele><time>2026-03-27T12:55:27.999Z</time></trkpt><trkpt lat="40.52494160844685" lon="9.051071776127667"><ele>750.0</ele><time>2026-03-27T12:55:28.999Z</time></trkpt><trkpt lat="40.52498215924527" lon="9.050969332024238"><ele>750.0</ele><time>2026-03-27T12:55:29.999Z</time></trkpt><trkpt lat="40.52503293500196" lon="9.050881373687364"><ele>750.0</ele><time>2026-03-27T12:55:30.999Z</time></trkpt><trkpt lat="40.5250761072238" lon="9.050777643881498"><ele>750.0</ele><time>2026-03-27T12:55:31.999Z</time></trkpt><trkpt lat="40.52510148313442" lon="9.050646729058025"><ele>750.0</ele><time>2026-03-27T12:55:32.998Z</time></trkpt><trkpt lat="40.52510710357622" lon="9.050500245192687"><ele>750.0</ele><time>2026-03-27T12:55:33.998Z</time></trkpt><trkpt lat="40.52512904262684" lon="9.050369632523624"><ele>748.2</ele><time>2026-03-27T12:55:34.998Z</time></trkpt><trkpt lat="40.52517334297371" lon="9.050242395097865"><ele>746.4</ele><time>2026-03-27T12:55:35.998Z</time></trkpt><trkpt lat="40.525212953499626" lon="9.050122399607034"><ele>744.5999999999999</ele><time>2026-03-27T12:55:36.998Z</time></trkpt><trkpt lat="40.5252547642024" lon="9.050017581712083"><ele>742.8</ele><time>2026-03-27T12:55:37.998Z</time></trkpt><trkpt lat="40.52531828875311" lon="9.04994275377012"><ele>741.0</ele><time>2026-03-27T12:55:38.998Z</time></trkpt><trkpt lat="40.52540739027536" lon="9.049876956473375"><ele>739.0</ele><time>2026-03-27T12:55:39.998Z</time></trkpt><trkpt lat="40.525510694852926" lon="9.049812220491791"><ele>737.0</ele><time>2026-03-27T12:55:40.998Z</time></trkpt><trkpt lat="40.52561795131671" lon="9.049757445734029"><ele>735.0</ele><time>2026-03-27T12:55:41.998Z</time></trkpt><trkpt lat="40.525714877273224" lon="9.049698655043853"><ele>733.0</ele><time>2026-03-27T12:55:42.998Z</time></trkpt><trkpt lat="40.52579576209391" lon="9.049639969151492"><ele>731.0</ele><time>2026-03-27T12:55:43.998Z</time></trkpt><trkpt lat="40.52587438928002" lon="9.04957307553975"><ele>731.0</ele><time>2026-03-27T12:55:44.998Z</time></trkpt><trkpt lat="40.525945005347246" lon="9.049505089418428"><ele>731.0</ele><time>2026-03-27T12:55:45.998Z</time></trkpt><trkpt lat="40.5260223616949" lon="9.049461079478801"><ele>731.0</ele><time>2026-03-27T12:55:46.998Z</time></trkpt><trkpt lat="40.5260985322086" lon="9.049437789557738"><ele>731.0</ele><time>2026-03-27T12:55:47.998Z</time></trkpt><trkpt lat="40.526164319034926" lon="9.049421505804931"><ele>731.0</ele><time>2026-03-27T12:55:50.998Z</time></trkpt><trkpt lat="40.52625149093337" lon="9.049412181867705"><ele>731.0</ele><time>2026-03-27T12:55:54.998Z</time></trkpt><trkpt lat="40.52633193220537" lon="9.049420596980365"><ele>730.8333333333333</ele><time>2026-03-27T12:55:56.998Z</time></trkpt><trkpt lat="40.52645545296742" lon="9.049428608569173"><ele>730.6666666666666</ele><time>2026-03-27T12:55:58.998Z</time></trkpt><trkpt lat="40.52655886532235" lon="9.049432849691268"><ele>730.5</ele><time>2026-03-27T12:55:59.998Z</time></trkpt><trkpt lat="40.526633531666896" lon="9.049427496501742"><ele>730.3333333333334</ele><time>2026-03-27T12:56:00.998Z</time></trkpt><trkpt lat="40.52670717424783" lon="9.04944544482313"><ele>730.1666666666667</ele><time>2026-03-27T12:56:01.998Z</time></trkpt><trkpt lat="40.52677927824889" lon="9.049449077631335"><ele>730.0</ele><time>2026-03-27T12:56:02.998Z</time></trkpt><trkpt lat="40.52684718427518" lon="9.049451828598434"><ele>730.0</ele><time>2026-03-27T12:56:03.998Z</time></trkpt><trkpt lat="40.52691826385931" lon="9.049445132570073"><ele>730.0</ele><time>2026-03-27T12:56:04.998Z</time></trkpt><trkpt lat="40.52698344488316" lon="9.049435317161004"><ele>730.0</ele><time>2026-03-27T12:56:05.998Z</time></trkpt><trkpt lat="40.52704778439402" lon="9.049435341674378"><ele>730.0</ele><time>2026-03-27T12:56:06.998Z</time></trkpt><trkpt lat="40.52716044821285" lon="9.049362620527207"><ele>730.0</ele><time>2026-03-27T12:56:08.998Z</time></trkpt><trkpt lat="40.52722414843075" lon="9.049314993603941"><ele>730.0</ele><time>2026-03-27T12:56:09.998Z</time></trkpt><trkpt lat="40.52734803735604" lon="9.049276498964579"><ele>727.4</ele><time>2026-03-27T12:56:11.998Z</time></trkpt><trkpt lat="40.527431669717124" lon="9.049291238428799"><ele>724.8</ele><time>2026-03-27T12:56:12.998Z</time></trkpt><trkpt lat="40.52752290162376" lon="9.049306083893457"><ele>722.2</ele><time>2026-03-27T12:56:13.998Z</time></trkpt><trkpt lat="40.52763236110838" lon="9.049335405943246"><ele>719.6</ele><time>2026-03-27T12:56:14.998Z</time></trkpt><trkpt lat="40.52773094848547" lon="9.04935055639696"><ele>717.0</ele><time>2026-03-27T12:56:15.998Z</time></trkpt><trkpt lat="40.52782549753755" lon="9.049357004383397"><ele>716.0</ele><time>2026-03-27T12:56:16.998Z</time></trkpt><trkpt lat="40.527938349613684" lon="9.049344253865652"><ele>715.0</ele><time>2026-03-27T12:56:17.998Z</time></trkpt><trkpt lat="40.52804146685844" lon="9.04932538893918"><ele>714.0</ele><time>2026-03-27T12:56:18.998Z</time></trkpt><trkpt lat="40.528128558951394" lon="9.04929308034664"><ele>713.0</ele><time>2026-03-27T12:56:19.998Z</time></trkpt><trkpt lat="40.52820554182734" lon="9.049256877012729"><ele>712.0</ele><time>2026-03-27T12:56:20.998Z</time></trkpt><trkpt lat="40.52827425123352" lon="9.04923605116523"><ele>711.9999999999999</ele><time>2026-03-27T12:56:21.998Z</time></trkpt><trkpt lat="40.52834440378293" lon="9.04923710261687"><ele>712.0</ele><time>2026-03-27T12:56:23Z</time></trkpt><trkpt lat="40.52844499275622" lon="9.049275503622995"><ele>712.0</ele><time>2026-03-27T12:56:25Z</time></trkpt><trkpt lat="40.5284914091442" lon="9.049354316795526"><ele>712.0</ele><time>2026-03-27T12:56:27Z</time></trkpt><trkpt lat="40.528552859392434" lon="9.049372713721787"><ele>712.0</ele><time>2026-03-27T12:56:30Z</time></trkpt><trkpt lat="40.528612049964806" lon="9.04933063842112"><ele>711.9999999999999</ele><time>2026-03-27T12:56:32Z</time></trkpt><trkpt lat="40.52864010691311" lon="9.049250011200792"><ele>712.0</ele><time>2026-03-27T12:56:33Z</time></trkpt><trkpt lat="40.528669113799765" lon="9.04916369994543"><ele>709.8333333333334</ele><time>2026-03-27T12:56:34Z</time></trkpt><trkpt lat="40.528735166259494" lon="9.049040458526584"><ele>707.6666666666667</ele><time>2026-03-27T12:56:36Z</time></trkpt><trkpt lat="40.528789818000554" lon="9.048954134026106"><ele>705.5</ele><time>2026-03-27T12:56:38Z</time></trkpt><trkpt lat="40.52884154214072" lon="9.048885861620185"><ele>703.3333333333334</ele><time>2026-03-27T12:56:41.999Z</time></trkpt><trkpt lat="40.5289415731235" lon="9.048845891671498"><ele>701.1666666666666</ele><time>2026-03-27T12:56:44.999Z</time></trkpt><trkpt lat="40.52899367803298" lon="9.048784390886437"><ele>699.0</ele><time>2026-03-27T12:56:46.999Z</time></trkpt><trkpt lat="40.52903284993967" lon="9.048702555527194"><ele>699.0</ele><time>2026-03-27T12:56:48.999Z</time></trkpt><trkpt lat="40.529045776478334" lon="9.048553651860777"><ele>699.0</ele><time>2026-03-27T12:56:50.999Z</time></trkpt><trkpt lat="40.52902881324502" lon="9.048450095477412"><ele>699.0</ele><time>2026-03-27T12:56:51.999Z</time></trkpt><trkpt lat="40.52900922663382" lon="9.048357482466455"><ele>699.0</ele><time>2026-03-27T12:56:52.999Z</time></trkpt><trkpt lat="40.52901141526735" lon="9.048203778228826"><ele>699.0</ele><time>2026-03-27T12:56:54.999Z</time></trkpt><trkpt lat="40.52905801219706" lon="9.048049325687122"><ele>697.1666666666666</ele><time>2026-03-27T12:56:56.999Z</time></trkpt><trkpt lat="40.52913613708348" lon="9.047934408895191"><ele>695.3333333333334</ele><time>2026-03-27T12:56:58.999Z</time></trkpt><trkpt lat="40.529184950576074" lon="9.04787345893894"><ele>693.5</ele><time>2026-03-27T12:56:59.999Z</time></trkpt><trkpt lat="40.52921693309724" lon="9.047778916271097"><ele>691.6666666666667</ele><time>2026-03-27T12:57:00.999Z</time></trkpt><trkpt lat="40.529223000591166" lon="9.04767367512071"><ele>689.8333333333334</ele><time>2026-03-27T12:57:01.999Z</time></trkpt><trkpt lat="40.529210528620574" lon="9.047565663383516"><ele>688.0</ele><time>2026-03-27T12:57:02.999Z</time></trkpt><trkpt lat="40.529187581296284" lon="9.047458190290012"><ele>685.5999999999999</ele><time>2026-03-27T12:57:03.999Z</time></trkpt><trkpt lat="40.52916562297383" lon="9.047337484763965"><ele>683.1999999999999</ele><time>2026-03-27T12:57:04.999Z</time></trkpt><trkpt lat="40.529180451772106" lon="9.047225479941563"><ele>680.8</ele><time>2026-03-27T12:57:05.999Z</time></trkpt><trkpt lat="40.52920801529837" lon="9.047113033442798"><ele>678.4</ele><time>2026-03-27T12:57:06.999Z</time></trkpt><trkpt lat="40.52925579698271" lon="9.046980885971712"><ele>676.0</ele><time>2026-03-27T12:57:07.999Z</time></trkpt><trkpt lat="40.52929532910427" lon="9.04686761330421"><ele>676.0</ele><time>2026-03-27T12:57:08.999Z</time></trkpt><trkpt lat="40.52934041630696" lon="9.046786019946307"><ele>676.0</ele><time>2026-03-27T12:57:09.999Z</time></trkpt><trkpt lat="40.52939160649421" lon="9.04672280487255"><ele>676.0</ele><time>2026-03-27T12:57:10.999Z</time></trkpt><trkpt lat="40.52946746254454" lon="9.046646999285986"><ele>676.0</ele><time>2026-03-27T12:57:11.999Z</time></trkpt><trkpt lat="40.52954105664418" lon="9.04655961467795"><ele>676.0</ele><time>2026-03-27T12:57:12.999Z</time></trkpt><trkpt lat="40.529592223927985" lon="9.046485745069635"><ele>676.0</ele><time>2026-03-27T12:57:13.999Z</time></trkpt><trkpt lat="40.52971160438809" lon="9.046426870137822"><ele>673.5999999999999</ele><time>2026-03-27T12:57:15.999Z</time></trkpt><trkpt lat="40.529796947341545" lon="9.046411011882315"><ele>671.2</ele><time>2026-03-27T12:57:16.999Z</time></trkpt><trkpt lat="40.529903071682035" lon="9.046368108527627"><ele>668.8</ele><time>2026-03-27T12:57:17.999Z</time></trkpt><trkpt lat="40.530003005841536" lon="9.046311418964544"><ele>666.4000000000001</ele><time>2026-03-27T12:57:18.999Z</time></trkpt><trkpt lat="40.53009898561491" lon="9.0462571736164"><ele>664.0</ele><time>2026-03-27T12:57:19.999Z</time></trkpt><trkpt lat="40.530193192711046" lon="9.046211503337911"><ele>664.0</ele><time>2026-03-27T12:57:20.999Z</time></trkpt><trkpt lat="40.530285603533514" lon="9.046176731104643"><ele>664.0</ele><time>2026-03-27T12:57:21.999Z</time></trkpt><trkpt lat="40.53037932933118" lon="9.046137289219883"><ele>664.0</ele><time>2026-03-27T12:57:22.999Z</time></trkpt><trkpt lat="40.53046600861246" lon="9.046082168660885"><ele>664.0</ele><time>2026-03-27T12:57:23.999Z</time></trkpt><trkpt lat="40.53054749769619" lon="9.046018342424938"><ele>664.0</ele><time>2026-03-27T12:57:24.999Z</time></trkpt><trkpt lat="40.530620228920554" lon="9.04596169173031"><ele>663.1666666666667</ele><time>2026-03-27T12:57:25.999Z</time></trkpt><trkpt lat="40.530724591594215" lon="9.045932607220724"><ele>662.3333333333334</ele><time>2026-03-27T12:57:27.999Z</time></trkpt><trkpt lat="40.53078781940836" lon="9.045939666298752"><ele>661.5</ele><time>2026-03-27T12:57:28.999Z</time></trkpt><trkpt lat="40.53085662997285" lon="9.04590053753911"><ele>660.6666666666666</ele><time>2026-03-27T12:57:29.999Z</time></trkpt><trkpt lat="40.53092540190579" lon="9.045811555225864"><ele>659.8333333333333</ele><time>2026-03-27T12:57:30.998Z</time></trkpt><trkpt lat="40.53099322791176" lon="9.045714345688586"><ele>659.0</ele><time>2026-03-27T12:57:31.998Z</time></trkpt><trkpt lat="40.53105743390723" lon="9.045631565254876"><ele>657.6</ele><time>2026-03-27T12:57:32.998Z</time></trkpt><trkpt lat="40.53111861816462" lon="9.045553425442877"><ele>656.2</ele><time>2026-03-27T12:57:33.998Z</time></trkpt><trkpt lat="40.53116962862374" lon="9.045492012831852"><ele>654.8000000000001</ele><time>2026-03-27T12:57:34.998Z</time></trkpt><trkpt lat="40.531224921629956" lon="9.045405696622746"><ele>653.4000000000001</ele><time>2026-03-27T12:57:36.998Z</time></trkpt><trkpt lat="40.53130938314932" lon="9.04540160414953"><ele>652.0</ele><time>2026-03-27T12:57:39.998Z</time></trkpt><trkpt lat="40.53139592531232" lon="9.045536765706677"><ele>651.2</ele><time>2026-03-27T12:57:41.998Z</time></trkpt><trkpt lat="40.53143357091275" lon="9.04561985277433"><ele>650.4000000000001</ele><time>2026-03-27T12:57:42.998Z</time></trkpt><trkpt lat="40.53142369979594" lon="9.045733909510915"><ele>649.5999999999999</ele><time>2026-03-27T12:57:44.998Z</time></trkpt><trkpt lat="40.531319213720224" lon="9.045885341947645"><ele>648.8</ele><time>2026-03-27T12:57:46.998Z</time></trkpt><trkpt lat="40.53123441372775" lon="9.045967475925089"><ele>648.0</ele><time>2026-03-27T12:57:47.998Z</time></trkpt><trkpt lat="40.5311319642085" lon="9.046052636048866"><ele>649.8333333333334</ele><time>2026-03-27T12:57:48.998Z</time></trkpt><trkpt lat="40.53106038396251" lon="9.04613572547805"><ele>651.6666666666666</ele><time>2026-03-27T12:57:49.998Z</time></trkpt><trkpt lat="40.53101240278778" lon="9.046219705615195"><ele>653.5</ele><time>2026-03-27T12:57:50.998Z</time></trkpt><trkpt lat="40.531005439996136" lon="9.046369062519593"><ele>655.3333333333333</ele><time>2026-03-27T12:57:52.998Z</time></trkpt><trkpt lat="40.53105658102868" lon="9.046448203732043"><ele>657.1666666666666</ele><time>2026-03-27T12:57:53.998Z</time></trkpt><trkpt lat="40.531127982805636" lon="9.046488803496398"><ele>659.0</ele><time>2026-03-27T12:57:54.998Z</time></trkpt><trkpt lat="40.53121631757818" lon="9.046471307412443"><ele>657.4000000000001</ele><time>2026-03-27T12:57:55.998Z</time></trkpt><trkpt lat="40.53133252402965" lon="9.046445836755051"><ele>655.8</ele><time>2026-03-27T12:57:56.998Z</time></trkpt><trkpt lat="40.531436534243234" lon="9.046455553481382"><ele>654.2</ele><time>2026-03-27T12:57:57.998Z</time></trkpt><trkpt lat="40.531519791265666" lon="9.046462178069827"><ele>652.5999999999999</ele><time>2026-03-27T12:57:58.998Z</time></trkpt><trkpt lat="40.5315872235345" lon="9.046490322461002"><ele>651.0</ele><time>2026-03-27T12:57:59.998Z</time></trkpt><trkpt lat="40.53170212934103" lon="9.046655566878222"><ele>651.0</ele><time>2026-03-27T12:58:01.998Z</time></trkpt><trkpt lat="40.53177779336049" lon="9.046729197234635"><ele>651.0</ele><time>2026-03-27T12:58:02.998Z</time></trkpt><trkpt lat="40.5318531723113" lon="9.046731926522865"><ele>651.0</ele><time>2026-03-27T12:58:03.998Z</time></trkpt><trkpt lat="40.53193005470828" lon="9.04670664071438"><ele>651.0</ele><time>2026-03-27T12:58:04.998Z</time></trkpt><trkpt lat="40.531995079369345" lon="9.04665463333731"><ele>651.0</ele><time>2026-03-27T12:58:05.998Z</time></trkpt><trkpt lat="40.5320944683632" lon="9.046653477410203"><ele>651.0</ele><time>2026-03-27T12:58:07.998Z</time></trkpt><trkpt lat="40.53217944129483" lon="9.04678016410529"><ele>648.5999999999999</ele><time>2026-03-27T12:58:09.998Z</time></trkpt><trkpt lat="40.53220765287368" lon="9.046913795706846"><ele>646.1999999999999</ele><time>2026-03-27T12:58:10.998Z</time></trkpt><trkpt lat="40.53222977272249" lon="9.047056644721579"><ele>643.8</ele><time>2026-03-27T12:58:11.998Z</time></trkpt><trkpt lat="40.532215320370675" lon="9.047183150643912"><ele>641.4</ele><time>2026-03-27T12:58:12.998Z</time></trkpt><trkpt lat="40.532178674566474" lon="9.047311664254536"><ele>639.0</ele><time>2026-03-27T12:58:13.998Z</time></trkpt><trkpt lat="40.53210968343942" lon="9.04743810670174"><ele>644.0</ele><time>2026-03-27T12:58:14.998Z</time></trkpt><trkpt lat="40.532033283453885" lon="9.047573820474526"><ele>649.0</ele><time>2026-03-27T12:58:15.998Z</time></trkpt><trkpt lat="40.53196433517862" lon="9.047711373400418"><ele>654.0</ele><time>2026-03-27T12:58:16.998Z</time></trkpt><trkpt lat="40.53191377774594" lon="9.047858714551651"><ele>659.0</ele><time>2026-03-27T12:58:17.998Z</time></trkpt><trkpt lat="40.53187125993979" lon="9.048017097984282"><ele>659.0</ele><time>2026-03-27T12:58:18.998Z</time></trkpt><trkpt lat="40.53183993733043" lon="9.048171910546683"><ele>659.0</ele><time>2026-03-27T12:58:19.998Z</time></trkpt><trkpt lat="40.53182327473473" lon="9.048325598230866"><ele>659.0</ele><time>2026-03-27T12:58:20.999Z</time></trkpt><trkpt lat="40.53182632404017" lon="9.04845367445162"><ele>659.0</ele><time>2026-03-27T12:58:21.999Z</time></trkpt><trkpt lat="40.53182662494119" lon="9.048554198264362"><ele>659.0</ele><time>2026-03-27T12:58:22.998Z</time></trkpt><trkpt lat="40.531787517344846" lon="9.048668805100098"><ele>657.0</ele><time>2026-03-27T12:58:24.998Z</time></trkpt><trkpt lat="40.531648939847834" lon="9.048704839245763"><ele>655.0</ele><time>2026-03-27T12:58:26.998Z</time></trkpt><trkpt lat="40.531545004795" lon="9.0487339333764"><ele>653.0</ele><time>2026-03-27T12:58:27.998Z</time></trkpt><trkpt lat="40.531458952083895" lon="9.048783762603952"><ele>651.0</ele><time>2026-03-27T12:58:29Z</time></trkpt><trkpt lat="40.53140004822164" lon="9.048840220673092"><ele>649.0</ele><time>2026-03-27T12:58:30Z</time></trkpt><trkpt lat="40.531356072809075" lon="9.048972240066542"><ele>649.0</ele><time>2026-03-27T12:58:32Z</time></trkpt><trkpt lat="40.531429085348826" lon="9.04907486054368"><ele>649.0</ele><time>2026-03-27T12:58:34Z</time></trkpt><trkpt lat="40.531492036032134" lon="9.049070182617804"><ele>649.0</ele><time>2026-03-27T12:58:35Z</time></trkpt><trkpt lat="40.53156686159954" lon="9.049034900252948"><ele>649.0</ele><time>2026-03-27T12:58:36Z</time></trkpt><trkpt lat="40.53167780762904" lon="9.049070574639599"><ele>649.0</ele><time>2026-03-27T12:58:38Z</time></trkpt><trkpt lat="40.53173257002276" lon="9.049137319525155"><ele>649.0</ele><time>2026-03-27T12:58:39Z</time></trkpt><trkpt lat="40.53179234017443" lon="9.049231755145804"><ele>649.0</ele><time>2026-03-27T12:58:40Z</time></trkpt><trkpt lat="40.53183338484203" lon="9.049333568065586"><ele>649.0</ele><time>2026-03-27T12:58:41Z</time></trkpt><trkpt lat="40.53187776825159" lon="9.049430204560363"><ele>649.0</ele><time>2026-03-27T12:58:42Z</time></trkpt><trkpt lat="40.53192964953881" lon="9.049483386151252"><ele>649.0</ele><time>2026-03-27T12:58:43Z</time></trkpt><trkpt lat="40.53205588582969" lon="9.04945462418891"><ele>649.0</ele><time>2026-03-27T12:58:45Z</time></trkpt><trkpt lat="40.532130043614096" lon="9.049403853181099"><ele>649.0</ele><time>2026-03-27T12:58:46Z</time></trkpt><trkpt lat="40.53222758515868" lon="9.049358089548122"><ele>649.0</ele><time>2026-03-27T12:58:47Z</time></trkpt><trkpt lat="40.53233520867026" lon="9.049309799065657"><ele>649.0</ele><time>2026-03-27T12:58:48Z</time></trkpt><trkpt lat="40.532414770976715" lon="9.049346617977086"><ele>649.0</ele><time>2026-03-27T12:58:49Z</time></trkpt><trkpt lat="40.53250857010551" lon="9.049304119666324"><ele>649.0</ele><time>2026-03-27T12:58:50Z</time></trkpt><trkpt lat="40.532571951821936" lon="9.049243385471879"><ele>649.0</ele><time>2026-03-27T12:58:51Z</time></trkpt><trkpt lat="40.532639371550026" lon="9.049158620794017"><ele>649.0</ele><time>2026-03-27T12:58:52Z</time></trkpt><trkpt lat="40.532624816761725" lon="9.049019115093849"><ele>649.0</ele><time>2026-03-27T12:58:53Z</time></trkpt><trkpt lat="40.53259696356812" lon="9.048897086029143"><ele>649.0</ele><time>2026-03-27T12:58:54Z</time></trkpt><trkpt lat="40.53261481994532" lon="9.048816399012361"><ele>649.0</ele><time>2026-03-27T12:58:55Z</time></trkpt><trkpt lat="40.53271726013404" lon="9.048685732622149"><ele>648.75</ele><time>2026-03-27T12:58:57Z</time></trkpt><trkpt lat="40.53281889286652" lon="9.048621519379802"><ele>648.5</ele><time>2026-03-27T12:58:58Z</time></trkpt><trkpt lat="40.53294080029852" lon="9.04855088392067"><ele>648.25</ele><time>2026-03-27T12:58:59Z</time></trkpt><trkpt lat="40.53304723582541" lon="9.048458351099391"><ele>648.0</ele><time>2026-03-27T12:59:00Z</time></trkpt><trkpt lat="40.533131804379146" lon="9.048413668796213"><ele>648.0</ele><time>2026-03-27T12:59:01Z</time></trkpt><trkpt lat="40.53320417877399" lon="9.04840226427043"><ele>648.0</ele><time>2026-03-27T12:59:02Z</time></trkpt><trkpt lat="40.533269265910484" lon="9.048426489953211"><ele>648.0</ele><time>2026-03-27T12:59:03Z</time></trkpt><trkpt lat="40.53335725958244" lon="9.048497378677528"><ele>648.0</ele><time>2026-03-27T12:59:04Z</time></trkpt><trkpt lat="40.53344117096468" lon="9.048582791751944"><ele>648.0</ele><time>2026-03-27T12:59:05Z</time></trkpt><trkpt lat="40.533539025975905" lon="9.048683017024581"><ele>648.0</ele><time>2026-03-27T12:59:06Z</time></trkpt><trkpt lat="40.53364528523858" lon="9.048731551343694"><ele>648.0</ele><time>2026-03-27T12:59:07Z</time></trkpt><trkpt lat="40.533712567833184" lon="9.048778711215316"><ele>648.0</ele><time>2026-03-27T12:59:08Z</time></trkpt><trkpt lat="40.53376977391601" lon="9.048857910358864"><ele>648.0</ele><time>2026-03-27T12:59:09Z</time></trkpt><trkpt lat="40.533834935977254" lon="9.048920936467564"><ele>648.0</ele><time>2026-03-27T12:59:10Z</time></trkpt><trkpt lat="40.53390218473876" lon="9.048976468998598"><ele>648.0</ele><time>2026-03-27T12:59:11Z</time></trkpt><trkpt lat="40.53396721116104" lon="9.048844403759835"><ele>646.8333333333334</ele><time>2026-03-27T12:59:12Z</time></trkpt><trkpt lat="40.534061380896254" lon="9.048827955936423"><ele>645.6666666666666</ele><time>2026-03-27T12:59:13Z</time></trkpt><trkpt lat="40.534156113925235" lon="9.048820743872025"><ele>644.5</ele><time>2026-03-27T12:59:14Z</time></trkpt><trkpt lat="40.53423627048756" lon="9.048848642204478"><ele>643.3333333333333</ele><time>2026-03-27T12:59:15Z</time></trkpt><trkpt lat="40.53431281517655" lon="9.04887669473359"><ele>642.1666666666666</ele><time>2026-03-27T12:59:16Z</time></trkpt><trkpt lat="40.534319112809804" lon="9.048964863854382"><ele>641.0</ele><time>2026-03-27T12:59:18Z</time></trkpt><trkpt lat="40.53424269901144" lon="9.049060869666095"><ele>642.8</ele><time>2026-03-27T12:59:21Z</time></trkpt><trkpt lat="40.53416237600759" lon="9.049154735587853"><ele>644.5999999999999</ele><time>2026-03-27T12:59:23Z</time></trkpt><trkpt lat="40.534117757543626" lon="9.049233345477337"><ele>646.4</ele><time>2026-03-27T12:59:24Z</time></trkpt><trkpt lat="40.53412147453779" lon="9.049371829796332"><ele>648.2</ele><time>2026-03-27T12:59:25Z</time></trkpt><trkpt lat="40.53418464793165" lon="9.049462917427498"><ele>650.0</ele><time>2026-03-27T12:59:26Z</time></trkpt><trkpt lat="40.5342422483458" lon="9.049528732152444"><ele>650.0</ele><time>2026-03-27T12:59:27Z</time></trkpt><trkpt lat="40.534339654049084" lon="9.049542621024232"><ele>650.0</ele><time>2026-03-27T12:59:28Z</time></trkpt><trkpt lat="40.534453856449346" lon="9.049579083918893"><ele>650.0</ele><time>2026-03-27T12:59:29Z</time></trkpt><trkpt lat="40.534609185243" lon="9.049629707706877"><ele>650.0</ele><time>2026-03-27T12:59:30Z</time></trkpt><trkpt lat="40.53473551930815" lon="9.049710996497122"><ele>647.8</ele><time>2026-03-27T12:59:31Z</time></trkpt><trkpt lat="40.534829683366205" lon="9.04977538752644"><ele>645.6</ele><time>2026-03-27T12:59:32Z</time></trkpt><trkpt lat="40.53490914991951" lon="9.049858323076217"><ele>643.4</ele><time>2026-03-27T12:59:33Z</time></trkpt><trkpt lat="40.53496700417178" lon="9.0499486619322"><ele>641.2</ele><time>2026-03-27T12:59:33.999Z</time></trkpt><trkpt lat="40.53501298277827" lon="9.050035349360623"><ele>639.0</ele><time>2026-03-27T12:59:34.999Z</time></trkpt><trkpt lat="40.53503136973824" lon="9.050134031148657"><ele>639.0</ele><time>2026-03-27T12:59:35.999Z</time></trkpt><trkpt lat="40.53502024133883" lon="9.050243588551812"><ele>639.0</ele><time>2026-03-27T12:59:36.999Z</time></trkpt><trkpt lat="40.53498340388416" lon="9.050339905363574"><ele>639.0</ele><time>2026-03-27T12:59:37.999Z</time></trkpt><trkpt lat="40.534913251124486" lon="9.050437304611643"><ele>639.0</ele><time>2026-03-27T12:59:38.999Z</time></trkpt><trkpt lat="40.534823493612194" lon="9.050534682537515"><ele>639.0</ele><time>2026-03-27T12:59:39.999Z</time></trkpt><trkpt lat="40.53478241699282" lon="9.050621311619892"><ele>639.0</ele><time>2026-03-27T12:59:40.999Z</time></trkpt><trkpt lat="40.53476968276704" lon="9.05070843423496"><ele>639.0</ele><time>2026-03-27T12:59:41.999Z</time></trkpt><trkpt lat="40.534871334388704" lon="9.050799709240403"><ele>639.0</ele><time>2026-03-27T12:59:43.999Z</time></trkpt><trkpt lat="40.534953467079866" lon="9.050782055954144"><ele>639.0</ele><time>2026-03-27T12:59:44.999Z</time></trkpt><trkpt lat="40.535077468075244" lon="9.050783454076015"><ele>639.0</ele><time>2026-03-27T12:59:46.999Z</time></trkpt><trkpt lat="40.53519087928315" lon="9.050814092333532"><ele>640.75</ele><time>2026-03-27T12:59:47.999Z</time></trkpt><trkpt lat="40.53528058750498" lon="9.05084579674996"><ele>642.5</ele><time>2026-03-27T12:59:48.999Z</time></trkpt><trkpt lat="40.53548309178688" lon="9.050900377125577"><ele>644.25</ele><time>2026-03-27T12:59:49.999Z</time></trkpt><trkpt lat="40.535627024119094" lon="9.050950373457416"><ele>646.0</ele><time>2026-03-27T12:59:50.999Z</time></trkpt><trkpt lat="40.53575960670867" lon="9.051003682279397"><ele>643.0</ele><time>2026-03-27T12:59:51.999Z</time></trkpt><trkpt lat="40.5358727400895" lon="9.051087634780483"><ele>640.0</ele><time>2026-03-27T12:59:52.999Z</time></trkpt><trkpt lat="40.53595094390894" lon="9.051175669508305"><ele>637.0</ele><time>2026-03-27T12:59:53.999Z</time></trkpt><trkpt lat="40.535987043275775" lon="9.05127209344601"><ele>634.0</ele><time>2026-03-27T12:59:54.999Z</time></trkpt><trkpt lat="40.53604836065468" lon="9.051374495864488"><ele>631.0</ele><time>2026-03-27T12:59:55.999Z</time></trkpt><trkpt lat="40.53605901757355" lon="9.051459517378467"><ele>631.0</ele><time>2026-03-27T12:59:56.999Z</time></trkpt><trkpt lat="40.53603102979648" lon="9.051584367878597"><ele>631.0</ele><time>2026-03-27T12:59:58.999Z</time></trkpt><trkpt lat="40.5360507989333" lon="9.051690190581885"><ele>631.0</ele><time>2026-03-27T12:59:59.999Z</time></trkpt><trkpt lat="40.536102005443674" lon="9.051782362789515"><ele>631.0</ele><time>2026-03-27T13:00:00.999Z</time></trkpt><trkpt lat="40.53618236757532" lon="9.051824141510632"><ele>631.0</ele><time>2026-03-27T13:00:01.999Z</time></trkpt><trkpt lat="40.53626351784002" lon="9.051870498716314"><ele>631.0</ele><time>2026-03-27T13:00:02.999Z</time></trkpt><trkpt lat="40.53632596291884" lon="9.051931184560067"><ele>631.2</ele><time>2026-03-27T13:00:03.999Z</time></trkpt><trkpt lat="40.536371584060575" lon="9.052014389038016"><ele>631.4000000000001</ele><time>2026-03-27T13:00:04.999Z</time></trkpt><trkpt lat="40.53640699888692" lon="9.052127629738349"><ele>631.6</ele><time>2026-03-27T13:00:05.999Z</time></trkpt><trkpt lat="40.53643315901007" lon="9.052264982665486"><ele>631.8000000000001</ele><time>2026-03-27T13:00:06.999Z</time></trkpt><trkpt lat="40.53647176631083" lon="9.052483722088747"><ele>632.0</ele><time>2026-03-27T13:00:07.999Z</time></trkpt><trkpt lat="40.53650305387057" lon="9.052643931686994"><ele>632.0</ele><time>2026-03-27T13:00:08.999Z</time></trkpt><trkpt lat="40.53655213118458" lon="9.052776579425474"><ele>632.0</ele><time>2026-03-27T13:00:09.999Z</time></trkpt><trkpt lat="40.53663877366478" lon="9.052933743031272"><ele>632.0</ele><time>2026-03-27T13:00:10.999Z</time></trkpt><trkpt lat="40.53671149163642" lon="9.053062419790518"><ele>632.0</ele><time>2026-03-27T13:00:11.999Z</time></trkpt><trkpt lat="40.53677357917595" lon="9.053137171504506"><ele>632.0</ele><time>2026-03-27T13:00:12.999Z</time></trkpt><trkpt lat="40.53681000127839" lon="9.053224146067501"><ele>632.0</ele><time>2026-03-27T13:00:13.999Z</time></trkpt><trkpt lat="40.53683479916121" lon="9.053313621612874"><ele>632.0</ele><time>2026-03-27T13:00:14.999Z</time></trkpt><trkpt lat="40.53683575098231" lon="9.053438481024967"><ele>632.0</ele><time>2026-03-27T13:00:15.999Z</time></trkpt><trkpt lat="40.53687000379367" lon="9.05353682585678"><ele>632.0</ele><time>2026-03-27T13:00:16.999Z</time></trkpt><trkpt lat="40.53694482381853" lon="9.053584688094853"><ele>632.0</ele><time>2026-03-27T13:00:17.999Z</time></trkpt><trkpt lat="40.53704452686809" lon="9.053607515560655"><ele>628.25</ele><time>2026-03-27T13:00:18.999Z</time></trkpt><trkpt lat="40.53715346567678" lon="9.053617253083639"><ele>624.5</ele><time>2026-03-27T13:00:19.999Z</time></trkpt><trkpt lat="40.53724149451363" lon="9.053724540270615"><ele>620.75</ele><time>2026-03-27T13:00:21.999Z</time></trkpt><trkpt lat="40.53725101949637" lon="9.053894447451304"><ele>617.0</ele><time>2026-03-27T13:00:23.999Z</time></trkpt><trkpt lat="40.53724104757899" lon="9.054040182660433"><ele>617.75</ele><time>2026-03-27T13:00:24.999Z</time></trkpt><trkpt lat="40.537243645569234" lon="9.054221424814742"><ele>618.5</ele><time>2026-03-27T13:00:25.999Z</time></trkpt><trkpt lat="40.537246854776996" lon="9.054351607899502"><ele>619.25</ele><time>2026-03-27T13:00:26.998Z</time></trkpt><trkpt lat="40.53718374321266" lon="9.054459174948729"><ele>620.0</ele><time>2026-03-27T13:00:28.998Z</time></trkpt><trkpt lat="40.53709138785996" lon="9.054594580002599"><ele>624.25</ele><time>2026-03-27T13:00:30.998Z</time></trkpt><trkpt lat="40.53699704738372" lon="9.054700974762643"><ele>628.5</ele><time>2026-03-27T13:00:31.998Z</time></trkpt><trkpt lat="40.5369325401864" lon="9.054801417606484"><ele>632.75</ele><time>2026-03-27T13:00:32.998Z</time></trkpt><trkpt lat="40.53685398335584" lon="9.054922335080635"><ele>637.0</ele><time>2026-03-27T13:00:34Z</time></trkpt><trkpt lat="40.53675372236161" lon="9.055049626139496"><ele>637.0</ele><time>2026-03-27T13:00:35Z</time></trkpt><trkpt lat="40.53665785460434" lon="9.055147648678936"><ele>637.0</ele><time>2026-03-27T13:00:36Z</time></trkpt><trkpt lat="40.53656500410493" lon="9.05523030771741"><ele>637.0</ele><time>2026-03-27T13:00:37Z</time></trkpt><trkpt lat="40.53650468189739" lon="9.05533768905878"><ele>637.0</ele><time>2026-03-27T13:00:38Z</time></trkpt><trkpt lat="40.53643770875212" lon="9.055462550457886"><ele>637.0</ele><time>2026-03-27T13:00:39Z</time></trkpt><trkpt lat="40.53638728144367" lon="9.055610346247768"><ele>637.0</ele><time>2026-03-27T13:00:40Z</time></trkpt><trkpt lat="40.53634847685457" lon="9.055734795920598"><ele>637.0</ele><time>2026-03-27T13:00:41Z</time></trkpt><trkpt lat="40.53630999651727" lon="9.055839385878985"><ele>637.0</ele><time>2026-03-27T13:00:42Z</time></trkpt><trkpt lat="40.53629430081059" lon="9.055929846055728"><ele>637.0</ele><time>2026-03-27T13:00:43Z</time></trkpt><trkpt lat="40.53630340415504" lon="9.056021764359864"><ele>636.75</ele><time>2026-03-27T13:00:44Z</time></trkpt><trkpt lat="40.53634840481573" lon="9.056152187742091"><ele>636.5</ele><time>2026-03-27T13:00:46Z</time></trkpt><trkpt lat="40.53640343430518" lon="9.056342084765275"><ele>636.25</ele><time>2026-03-27T13:00:48Z</time></trkpt><trkpt lat="40.536429041401476" lon="9.056496559452393"><ele>636.0</ele><time>2026-03-27T13:00:49Z</time></trkpt><trkpt lat="40.536441057431034" lon="9.056655515784591"><ele>636.0</ele><time>2026-03-27T13:00:50Z</time></trkpt><trkpt lat="40.536462628855254" lon="9.056792183831101"><ele>636.0</ele><time>2026-03-27T13:00:51Z</time></trkpt><trkpt lat="40.53648303154524" lon="9.056911109753976"><ele>636.0</ele><time>2026-03-27T13:00:52Z</time></trkpt><trkpt lat="40.5365140472525" lon="9.056999914280857"><ele>636.0</ele><time>2026-03-27T13:00:53Z</time></trkpt><trkpt lat="40.53655021195168" lon="9.057076302614252"><ele>636.0</ele><time>2026-03-27T13:00:54Z</time></trkpt><trkpt lat="40.53661715743989" lon="9.057149793315324"><ele>636.0</ele><time>2026-03-27T13:00:56Z</time></trkpt><trkpt lat="40.53671073522798" lon="9.057234400507163"><ele>636.0</ele><time>2026-03-27T13:00:58Z</time></trkpt><trkpt lat="40.536773186979445" lon="9.057262232066279"><ele>636.0</ele><time>2026-03-27T13:01:00Z</time></trkpt><trkpt lat="40.536746716365236" lon="9.057375141197474"><ele>636.0</ele><time>2026-03-27T13:01:02Z</time></trkpt><trkpt lat="40.53672139711604" lon="9.057458012421328"><ele>636.0</ele><time>2026-03-27T13:01:03Z</time></trkpt><trkpt lat="40.53670103928674" lon="9.057554103100903"><ele>636.0</ele><time>2026-03-27T13:01:04Z</time></trkpt><trkpt lat="40.53667403219976" lon="9.057675253865963"><ele>636.0</ele><time>2026-03-27T13:01:05Z</time></trkpt><trkpt lat="40.53665032610332" lon="9.057792103290684"><ele>636.2</ele><time>2026-03-27T13:01:06Z</time></trkpt><trkpt lat="40.53661869146499" lon="9.057902175354844"><ele>636.4000000000001</ele><time>2026-03-27T13:01:07Z</time></trkpt><trkpt lat="40.53658390937427" lon="9.057987921921514"><ele>636.6</ele><time>2026-03-27T13:01:08Z</time></trkpt><trkpt lat="40.53655703651352" lon="9.058067132479344"><ele>636.8000000000001</ele><time>2026-03-27T13:01:09Z</time></trkpt><trkpt lat="40.53655680377727" lon="9.058188079508044"><ele>637.0</ele><time>2026-03-27T13:01:10Z</time></trkpt><trkpt lat="40.536550404341604" lon="9.058359341660653"><ele>638.25</ele><time>2026-03-27T13:01:11Z</time></trkpt><trkpt lat="40.5365484262271" lon="9.058537354440913"><ele>639.5</ele><time>2026-03-27T13:01:12Z</time></trkpt><trkpt lat="40.53654717850798" lon="9.058712385760566"><ele>640.75</ele><time>2026-03-27T13:01:13Z</time></trkpt><trkpt lat="40.53653992493655" lon="9.05886327967296"><ele>642.0</ele><time>2026-03-27T13:01:14Z</time></trkpt><trkpt lat="40.53653065711036" lon="9.058993064751386"><ele>642.8</ele><time>2026-03-27T13:01:15Z</time></trkpt><trkpt lat="40.53652459399708" lon="9.059118059540484"><ele>643.6</ele><time>2026-03-27T13:01:16Z</time></trkpt><trkpt lat="40.536508601259406" lon="9.059262183654887"><ele>644.4</ele><time>2026-03-27T13:01:18Z</time></trkpt><trkpt lat="40.536433534877915" lon="9.059339995875959"><ele>645.1999999999999</ele><time>2026-03-27T13:01:20Z</time></trkpt><trkpt lat="40.536362952590345" lon="9.059372489661698"><ele>646.0</ele><time>2026-03-27T13:01:21Z</time></trkpt><trkpt lat="40.536281893255335" lon="9.059419094797097"><ele>647.1666666666667</ele><time>2026-03-27T13:01:22Z</time></trkpt><trkpt lat="40.536210481405945" lon="9.059455945569926"><ele>648.3333333333334</ele><time>2026-03-27T13:01:23Z</time></trkpt><trkpt lat="40.53615455646837" lon="9.059498129281883"><ele>649.5</ele><time>2026-03-27T13:01:24Z</time></trkpt><trkpt lat="40.53608946845482" lon="9.059577380281667"><ele>650.6666666666666</ele><time>2026-03-27T13:01:25Z</time></trkpt><trkpt lat="40.536029778036024" lon="9.059649086403324"><ele>651.8333333333333</ele><time>2026-03-27T13:01:26Z</time></trkpt><trkpt lat="40.535993723544735" lon="9.059719180414369"><ele>653.0</ele><time>2026-03-27T13:01:27Z</time></trkpt><trkpt lat="40.5359696157913" lon="9.059826942697043"><ele>652.5999999999999</ele><time>2026-03-27T13:01:28Z</time></trkpt><trkpt lat="40.535943208151174" lon="9.059968395293078"><ele>652.1999999999999</ele><time>2026-03-27T13:01:29Z</time></trkpt><trkpt lat="40.53590995168896" lon="9.060100063360922"><ele>651.8</ele><time>2026-03-27T13:01:30Z</time></trkpt><trkpt lat="40.53587062086882" lon="9.060208875435269"><ele>651.4</ele><time>2026-03-27T13:01:31Z</time></trkpt><trkpt lat="40.535835478283566" lon="9.060304178075583"><ele>651.0</ele><time>2026-03-27T13:01:31.999Z</time></trkpt><trkpt lat="40.535766731407406" lon="9.060391108576605"><ele>651.0</ele><time>2026-03-27T13:01:32.999Z</time></trkpt><trkpt lat="40.53568889643707" lon="9.060488896158061"><ele>651.0</ele><time>2026-03-27T13:01:33.999Z</time></trkpt><trkpt lat="40.535617207059026" lon="9.060581769441796"><ele>651.0</ele><time>2026-03-27T13:01:34.999Z</time></trkpt><trkpt lat="40.53556340714431" lon="9.060648011520138"><ele>651.0</ele><time>2026-03-27T13:01:35.999Z</time></trkpt><trkpt lat="40.53548513612316" lon="9.06070177440415"><ele>651.0</ele><time>2026-03-27T13:01:36.999Z</time></trkpt><trkpt lat="40.53538203406016" lon="9.060780926562026"><ele>652.0</ele><time>2026-03-27T13:01:37.999Z</time></trkpt><trkpt lat="40.53528251399752" lon="9.060877349387484"><ele>653.0</ele><time>2026-03-27T13:01:38.999Z</time></trkpt><trkpt lat="40.53519058723219" lon="9.060972413104802"><ele>654.0</ele><time>2026-03-27T13:01:39.999Z</time></trkpt><trkpt lat="40.535098078238214" lon="9.061051089514127"><ele>655.0</ele><time>2026-03-27T13:01:40.999Z</time></trkpt><trkpt lat="40.53501137859645" lon="9.061179236600095"><ele>655.0</ele><time>2026-03-27T13:01:41.999Z</time></trkpt><trkpt lat="40.534934107833685" lon="9.061332163699934"><ele>655.0</ele><time>2026-03-27T13:01:42.999Z</time></trkpt><trkpt lat="40.53486093986538" lon="9.061463607116421"><ele>655.0</ele><time>2026-03-27T13:01:43.999Z</time></trkpt><trkpt lat="40.53481286342879" lon="9.061583019415703"><ele>655.0</ele><time>2026-03-27T13:01:44.999Z</time></trkpt><trkpt lat="40.53477354956431" lon="9.06168520219767"><ele>655.5</ele><time>2026-03-27T13:01:45.999Z</time></trkpt><trkpt lat="40.53473028270771" lon="9.061764423209818"><ele>656.0</ele><time>2026-03-27T13:01:46.999Z</time></trkpt><trkpt lat="40.53467789302497" lon="9.061841390801929"><ele>656.5</ele><time>2026-03-27T13:01:48.999Z</time></trkpt><trkpt lat="40.534621734239515" lon="9.061884505341913"><ele>657.0</ele><time>2026-03-27T13:01:51.999Z</time></trkpt><trkpt lat="40.53455434838228" lon="9.061971296641845"><ele>657.5</ele><time>2026-03-27T13:01:54.999Z</time></trkpt><trkpt lat="40.53445639093147" lon="9.062028253192612"><ele>658.0</ele><time>2026-03-27T13:01:56.999Z</time></trkpt><trkpt lat="40.534343072707046" lon="9.062089211730877"><ele>659.1666666666667</ele><time>2026-03-27T13:01:58.999Z</time></trkpt><trkpt lat="40.53427850310587" lon="9.062100492265584"><ele>660.3333333333334</ele><time>2026-03-27T13:01:59.999Z</time></trkpt><trkpt lat="40.534209998184004" lon="9.062093027564556"><ele>661.5</ele><time>2026-03-27T13:02:00.999Z</time></trkpt><trkpt lat="40.53413880147676" lon="9.062054484589865"><ele>662.6666666666666</ele><time>2026-03-27T13:02:01.999Z</time></trkpt><trkpt lat="40.534063451728976" lon="9.062012689001808"><ele>663.8333333333333</ele><time>2026-03-27T13:02:02.999Z</time></trkpt><trkpt lat="40.53397734609148" lon="9.061965896556233"><ele>665.0</ele><time>2026-03-27T13:02:03.999Z</time></trkpt><trkpt lat="40.53388262526151" lon="9.06190934573366"><ele>665.0</ele><time>2026-03-27T13:02:04.999Z</time></trkpt><trkpt lat="40.53379229368282" lon="9.061836040665305"><ele>665.0</ele><time>2026-03-27T13:02:05.999Z</time></trkpt><trkpt lat="40.53369939230501" lon="9.061759130431417"><ele>665.0</ele><time>2026-03-27T13:02:06.999Z</time></trkpt><trkpt lat="40.53361466746616" lon="9.06170250869644"><ele>665.0</ele><time>2026-03-27T13:02:07.999Z</time></trkpt><trkpt lat="40.53352761093862" lon="9.061670648333996"><ele>665.0</ele><time>2026-03-27T13:02:08.999Z</time></trkpt><trkpt lat="40.53345502862216" lon="9.06165961990418"><ele>665.8</ele><time>2026-03-27T13:02:09.999Z</time></trkpt><trkpt lat="40.53338046827944" lon="9.06168071960578"><ele>666.6</ele><time>2026-03-27T13:02:10.999Z</time></trkpt><trkpt lat="40.53328644101485" lon="9.061749654947125"><ele>667.4000000000001</ele><time>2026-03-27T13:02:11.999Z</time></trkpt><trkpt lat="40.533201552253" lon="9.06185470032715"><ele>668.2</ele><time>2026-03-27T13:02:12.999Z</time></trkpt><trkpt lat="40.533138146813094" lon="9.061967054860814"><ele>669.0</ele><time>2026-03-27T13:02:13.999Z</time></trkpt><trkpt lat="40.53313814414602" lon="9.06216342971049"><ele>669.0</ele><time>2026-03-27T13:02:15.999Z</time></trkpt><trkpt lat="40.533160483835076" lon="9.062285653321874"><ele>669.0</ele><time>2026-03-27T13:02:16.999Z</time></trkpt><trkpt lat="40.53317742783749" lon="9.062404191600695"><ele>669.0</ele><time>2026-03-27T13:02:17.999Z</time></trkpt><trkpt lat="40.53318654836745" lon="9.062508516497916"><ele>669.0</ele><time>2026-03-27T13:02:18.999Z</time></trkpt><trkpt lat="40.53314845608108" lon="9.062655828669438"><ele>669.0</ele><time>2026-03-27T13:02:19.999Z</time></trkpt><trkpt lat="40.53312780727647" lon="9.062798704124704"><ele>670.4000000000001</ele><time>2026-03-27T13:02:20.999Z</time></trkpt><trkpt lat="40.53309444104513" lon="9.062909211213045"><ele>671.8</ele><time>2026-03-27T13:02:21.999Z</time></trkpt><trkpt lat="40.53304428493611" lon="9.063018224761162"><ele>673.2</ele><time>2026-03-27T13:02:22.999Z</time></trkpt><trkpt lat="40.532972835112965" lon="9.06311324763284"><ele>674.5999999999999</ele><time>2026-03-27T13:02:23.999Z</time></trkpt><trkpt lat="40.53289495397492" lon="9.063161641730067"><ele>676.0</ele><time>2026-03-27T13:02:24.998Z</time></trkpt><trkpt lat="40.53280581193431" lon="9.063200437746275"><ele>679.5</ele><time>2026-03-27T13:02:25.998Z</time></trkpt><trkpt lat="40.532688927243264" lon="9.063218375475934"><ele>683.0</ele><time>2026-03-27T13:02:26.998Z</time></trkpt><trkpt lat="40.532568305560744" lon="9.06324030611731"><ele>686.5</ele><time>2026-03-27T13:02:27.998Z</time></trkpt><trkpt lat="40.532452650894555" lon="9.06327227639203"><ele>690.0</ele><time>2026-03-27T13:02:28.998Z</time></trkpt><trkpt lat="40.53234418380858" lon="9.06331044285302"><ele>691.0</ele><time>2026-03-27T13:02:29.998Z</time></trkpt><trkpt lat="40.53224148823802" lon="9.063363332960424"><ele>692.0</ele><time>2026-03-27T13:02:30.998Z</time></trkpt><trkpt lat="40.53213703950924" lon="9.063433391099899"><ele>693.0</ele><time>2026-03-27T13:02:31.998Z</time></trkpt><trkpt lat="40.53205958375092" lon="9.063491246577266"><ele>694.0</ele><time>2026-03-27T13:02:32.998Z</time></trkpt><trkpt lat="40.531991429177026" lon="9.063571790040644"><ele>695.0</ele><time>2026-03-27T13:02:33.998Z</time></trkpt><trkpt lat="40.531933226970466" lon="9.063702237953487"><ele>698.0</ele><time>2026-03-27T13:02:34.998Z</time></trkpt><trkpt lat="40.531867507682925" lon="9.063850662630095"><ele>701.0</ele><time>2026-03-27T13:02:35.998Z</time></trkpt><trkpt lat="40.53179801937833" lon="9.063985054941304"><ele>704.0</ele><time>2026-03-27T13:02:36.998Z</time></trkpt><trkpt lat="40.531740348738055" lon="9.064094284593361"><ele>707.0</ele><time>2026-03-27T13:02:37.998Z</time></trkpt><trkpt lat="40.53169280843395" lon="9.064172779626519"><ele>710.0</ele><time>2026-03-27T13:02:39Z</time></trkpt><trkpt lat="40.53163754104163" lon="9.064269217875994"><ele>710.0</ele><time>2026-03-27T13:02:40Z</time></trkpt><trkpt lat="40.53158312969125" lon="9.064387971409708"><ele>710.0</ele><time>2026-03-27T13:02:41Z</time></trkpt><trkpt lat="40.53150551228943" lon="9.06453299167883"><ele>710.0</ele><time>2026-03-27T13:02:42Z</time></trkpt><trkpt lat="40.53143420767625" lon="9.06462317498245"><ele>710.0</ele><time>2026-03-27T13:02:43Z</time></trkpt><trkpt lat="40.531362931431595" lon="9.064689847790662"><ele>710.0</ele><time>2026-03-27T13:02:44Z</time></trkpt><trkpt lat="40.531284378971456" lon="9.064761765457455"><ele>710.0</ele><time>2026-03-27T13:02:45Z</time></trkpt><trkpt lat="40.53122511125871" lon="9.064842788746226"><ele>710.0</ele><time>2026-03-27T13:02:46Z</time></trkpt><trkpt lat="40.53117906123302" lon="9.064937767252855"><ele>710.0</ele><time>2026-03-27T13:02:47Z</time></trkpt><trkpt lat="40.53113530837474" lon="9.065030658224696"><ele>710.0</ele><time>2026-03-27T13:02:48Z</time></trkpt><trkpt lat="40.531096064085624" lon="9.06511105709005"><ele>710.0</ele><time>2026-03-27T13:02:49Z</time></trkpt><trkpt lat="40.53105086663605" lon="9.065202104255324"><ele>710.0</ele><time>2026-03-27T13:02:50Z</time></trkpt><trkpt lat="40.53098905561075" lon="9.065317397560237"><ele>713.2</ele><time>2026-03-27T13:02:51Z</time></trkpt><trkpt lat="40.5309151274473" lon="9.065432250022356"><ele>716.4</ele><time>2026-03-27T13:02:52Z</time></trkpt><trkpt lat="40.53084038755921" lon="9.065532722221208"><ele>719.5999999999999</ele><time>2026-03-27T13:02:53Z</time></trkpt><trkpt lat="40.53076187138039" lon="9.065593545925635"><ele>722.8</ele><time>2026-03-27T13:02:54Z</time></trkpt><trkpt lat="40.53066927878404" lon="9.065638819513236"><ele>726.0</ele><time>2026-03-27T13:02:55Z</time></trkpt><trkpt lat="40.530582623012336" lon="9.06567590700923"><ele>726.0</ele><time>2026-03-27T13:02:56Z</time></trkpt><trkpt lat="40.530515477551106" lon="9.065739625136512"><ele>726.0</ele><time>2026-03-27T13:02:57Z</time></trkpt><trkpt lat="40.53046361607449" lon="9.065811465712308"><ele>726.0</ele><time>2026-03-27T13:02:58Z</time></trkpt><trkpt lat="40.53036454465325" lon="9.065930433712387"><ele>726.0</ele><time>2026-03-27T13:03:00Z</time></trkpt><trkpt lat="40.530289621990676" lon="9.066000099596476"><ele>726.0</ele><time>2026-03-27T13:03:01Z</time></trkpt><trkpt lat="40.5302237056683" lon="9.066071849889385"><ele>726.0</ele><time>2026-03-27T13:03:02Z</time></trkpt><trkpt lat="40.530229690562244" lon="9.065961445865936"><ele>726.0</ele><time>2026-03-27T13:03:27Z</time></trkpt><trkpt lat="40.530267901945116" lon="9.065876694126315"><ele>726.0</ele><time>2026-03-27T13:03:28Z</time></trkpt><trkpt lat="40.53031326307377" lon="9.065776959277999"><ele>726.0</ele><time>2026-03-27T13:03:29Z</time></trkpt><trkpt lat="40.53036412916285" lon="9.065689303641197"><ele>726.0</ele><time>2026-03-27T13:03:30Z</time></trkpt><trkpt lat="40.53041483084463" lon="9.065607928240329"><ele>726.0</ele><time>2026-03-27T13:03:31Z</time></trkpt><trkpt lat="40.53046255886597" lon="9.065531230060651"><ele>726.0</ele><time>2026-03-27T13:03:32Z</time></trkpt><trkpt lat="40.5305216230666" lon="9.06537793310091"><ele>726.0</ele><time>2026-03-27T13:03:34Z</time></trkpt><trkpt lat="40.53054952314797" lon="9.06527508318396"><ele>726.0</ele><time>2026-03-27T13:03:35Z</time></trkpt><trkpt lat="40.53057599703983" lon="9.065149220605072"><ele>726.0</ele><time>2026-03-27T13:03:35.999Z</time></trkpt><trkpt lat="40.53061381149438" lon="9.065024229055362"><ele>726.0</ele><time>2026-03-27T13:03:36.999Z</time></trkpt><trkpt lat="40.53065225127301" lon="9.06492919165568"><ele>725.8333333333334</ele><time>2026-03-27T13:03:37.999Z</time></trkpt><trkpt lat="40.530678796927994" lon="9.06484903259825"><ele>725.6666666666666</ele><time>2026-03-27T13:03:38.999Z</time></trkpt><trkpt lat="40.53068713033917" lon="9.064764414276366"><ele>725.5</ele><time>2026-03-27T13:03:39.999Z</time></trkpt><trkpt lat="40.530676449508455" lon="9.064680268534817"><ele>725.3333333333333</ele><time>2026-03-27T13:03:40.999Z</time></trkpt><trkpt lat="40.53065032825834" lon="9.064584903123578"><ele>725.1666666666666</ele><time>2026-03-27T13:03:41.999Z</time></trkpt><trkpt lat="40.53060430366431" lon="9.064485985899466"><ele>725.0</ele><time>2026-03-27T13:03:42.999Z</time></trkpt><trkpt lat="40.53054010806036" lon="9.064390699460512"><ele>725.0</ele><time>2026-03-27T13:03:43.999Z</time></trkpt><trkpt lat="40.53048031437642" lon="9.064316552637123"><ele>725.0</ele><time>2026-03-27T13:03:44.999Z</time></trkpt><trkpt lat="40.53042319016005" lon="9.064261742421033"><ele>725.0</ele><time>2026-03-27T13:03:45.999Z</time></trkpt><trkpt lat="40.53035283816753" lon="9.06419323596487"><ele>725.0</ele><time>2026-03-27T13:03:47.999Z</time></trkpt><trkpt lat="40.53034243840374" lon="9.064096383252243"><ele>725.0</ele><time>2026-03-27T13:03:49.999Z</time></trkpt><trkpt lat="40.53038155555274" lon="9.06401613417998"><ele>725.0</ele><time>2026-03-27T13:03:50.999Z</time></trkpt><trkpt lat="40.53045612726141" lon="9.063945131200928"><ele>726.6</ele><time>2026-03-27T13:03:51.999Z</time></trkpt><trkpt lat="40.53053187657041" lon="9.063873344047087"><ele>728.2</ele><time>2026-03-27T13:03:52.999Z</time></trkpt><trkpt lat="40.53058859092341" lon="9.063800644774565"><ele>729.8</ele><time>2026-03-27T13:03:53.999Z</time></trkpt><trkpt lat="40.530615189990726" lon="9.063653815221961"><ele>731.4</ele><time>2026-03-27T13:03:55.999Z</time></trkpt><trkpt lat="40.53062707923809" lon="9.063536824787704"><ele>733.0</ele><time>2026-03-27T13:03:56.999Z</time></trkpt><trkpt lat="40.53063038376633" lon="9.063411245713981"><ele>733.0</ele><time>2026-03-27T13:03:57.999Z</time></trkpt><trkpt lat="40.5306236469314" lon="9.063301364365252"><ele>733.0</ele><time>2026-03-27T13:03:58.999Z</time></trkpt><trkpt lat="40.53060566951933" lon="9.06320161194017"><ele>733.0</ele><time>2026-03-27T13:03:59.999Z</time></trkpt><trkpt lat="40.53056499533592" lon="9.063127790316205"><ele>733.0</ele><time>2026-03-27T13:04:00.999Z</time></trkpt><trkpt lat="40.53050133800782" lon="9.063067004536263"><ele>733.0</ele><time>2026-03-27T13:04:01.999Z</time></trkpt><trkpt lat="40.53042018290767" lon="9.062984007056757"><ele>733.0</ele><time>2026-03-27T13:04:02.999Z</time></trkpt><trkpt lat="40.530330888438726" lon="9.062887876374317"><ele>735.4</ele><time>2026-03-27T13:04:03.999Z</time></trkpt><trkpt lat="40.530218627595005" lon="9.062814095817167"><ele>737.8</ele><time>2026-03-27T13:04:04.999Z</time></trkpt><trkpt lat="40.53014405159776" lon="9.06275111884783"><ele>740.2</ele><time>2026-03-27T13:04:05.999Z</time></trkpt><trkpt lat="40.53009625191914" lon="9.062677671446506"><ele>742.6</ele><time>2026-03-27T13:04:06.999Z</time></trkpt><trkpt lat="40.53002641620266" lon="9.06256124621626"><ele>745.0</ele><time>2026-03-27T13:04:07.999Z</time></trkpt><trkpt lat="40.52995827863965" lon="9.062439334000043"><ele>745.0</ele><time>2026-03-27T13:04:08.999Z</time></trkpt><trkpt lat="40.52988905952299" lon="9.062306792706392"><ele>745.0</ele><time>2026-03-27T13:04:09.999Z</time></trkpt><trkpt lat="40.529824484554396" lon="9.06219144077906"><ele>745.0</ele><time>2026-03-27T13:04:10.999Z</time></trkpt><trkpt lat="40.52976368751282" lon="9.062082049373437"><ele>745.0</ele><time>2026-03-27T13:04:11.999Z</time></trkpt><trkpt lat="40.52970461690928" lon="9.06199417107453"><ele>745.0</ele><time>2026-03-27T13:04:12.999Z</time></trkpt><trkpt lat="40.52965066888233" lon="9.06193861230475"><ele>745.0</ele><time>2026-03-27T13:04:13.999Z</time></trkpt><trkpt lat="40.529646130445904" lon="9.061815894230868"><ele>745.0</ele><time>2026-03-27T13:04:15.999Z</time></trkpt><trkpt lat="40.529728818056725" lon="9.061781603937487"><ele>745.0</ele><time>2026-03-27T13:04:16.999Z</time></trkpt><trkpt lat="40.52980827397884" lon="9.06174287773058"><ele>745.0</ele><time>2026-03-27T13:04:17.999Z</time></trkpt><trkpt lat="40.52989118101329" lon="9.061740901775861"><ele>745.0</ele><time>2026-03-27T13:04:18.999Z</time></trkpt><trkpt lat="40.529965067937376" lon="9.061704186595422"><ele>745.0</ele><time>2026-03-27T13:04:19.999Z</time></trkpt><trkpt lat="40.53003630701083" lon="9.061567943527404"><ele>748.0</ele><time>2026-03-27T13:04:21.999Z</time></trkpt><trkpt lat="40.530028007288536" lon="9.061450299778922"><ele>751.0</ele><time>2026-03-27T13:04:22.999Z</time></trkpt><trkpt lat="40.53002779595236" lon="9.061336962706617"><ele>754.0</ele><time>2026-03-27T13:04:23.999Z</time></trkpt><trkpt lat="40.53003447657785" lon="9.061223235940407"><ele>757.0</ele><time>2026-03-27T13:04:24.999Z</time></trkpt><trkpt lat="40.53009471052912" lon="9.061146610296248"><ele>760.0</ele><time>2026-03-27T13:04:26.999Z</time></trkpt><trkpt lat="40.53016748812717" lon="9.061119156251245"><ele>763.0</ele><time>2026-03-27T13:04:27.999Z</time></trkpt><trkpt lat="40.530268924989834" lon="9.061109978151528"><ele>763.0</ele><time>2026-03-27T13:04:28.998Z</time></trkpt><trkpt lat="40.53036435369163" lon="9.061097547416207"><ele>763.0</ele><time>2026-03-27T13:04:29.998Z</time></trkpt><trkpt lat="40.53046925173277" lon="9.060978645201796"><ele>763.0</ele><time>2026-03-27T13:04:31.998Z</time></trkpt><trkpt lat="40.53052291193292" lon="9.060855938344195"><ele>763.0</ele><time>2026-03-27T13:04:32.998Z</time></trkpt><trkpt lat="40.53059038148291" lon="9.060715855204204"><ele>759.8333333333334</ele><time>2026-03-27T13:04:33.998Z</time></trkpt><trkpt lat="40.53063587258716" lon="9.060600056548532"><ele>756.6666666666667</ele><time>2026-03-27T13:04:34.998Z</time></trkpt><trkpt lat="40.530670822939854" lon="9.06051287526814"><ele>753.5</ele><time>2026-03-27T13:04:35.998Z</time></trkpt><trkpt lat="40.53069242181682" lon="9.060432246408778"><ele>750.3333333333334</ele><time>2026-03-27T13:04:36.998Z</time></trkpt><trkpt lat="40.53065788945185" lon="9.060289969958525"><ele>747.1666666666666</ele><time>2026-03-27T13:04:38.998Z</time></trkpt><trkpt lat="40.530617628247434" lon="9.06022403433033"><ele>744.0</ele><time>2026-03-27T13:04:39.998Z</time></trkpt><trkpt lat="40.530555512000944" lon="9.060157682279748"><ele>744.0</ele><time>2026-03-27T13:04:40.998Z</time></trkpt><trkpt lat="40.530487548916355" lon="9.060086903470285"><ele>744.0</ele><time>2026-03-27T13:04:41.998Z</time></trkpt><trkpt lat="40.53043571620929" lon="9.060027556027697"><ele>744.0</ele><time>2026-03-27T13:04:42.998Z</time></trkpt><trkpt lat="40.530448620412336" lon="9.059909474855962"><ele>744.0</ele><time>2026-03-27T13:04:45Z</time></trkpt><trkpt lat="40.530505407414914" lon="9.059836071751551"><ele>744.0</ele><time>2026-03-27T13:04:46Z</time></trkpt><trkpt lat="40.53058500471247" lon="9.059754620953939"><ele>744.0</ele><time>2026-03-27T13:04:47Z</time></trkpt><trkpt lat="40.53065450050026" lon="9.059677480876294"><ele>746.6666666666666</ele><time>2026-03-27T13:04:48Z</time></trkpt><trkpt lat="40.530732619781816" lon="9.059653994220493"><ele>749.3333333333334</ele><time>2026-03-27T13:04:49Z</time></trkpt><trkpt lat="40.5308250225358" lon="9.059648541091597"><ele>752.0</ele><time>2026-03-27T13:04:50Z</time></trkpt><trkpt lat="40.530894787219296" lon="9.059642053417809"><ele>754.6666666666667</ele><time>2026-03-27T13:04:51Z</time></trkpt><trkpt lat="40.53095247194212" lon="9.059535604624935"><ele>757.3333333333334</ele><time>2026-03-27T13:04:53Z</time></trkpt><trkpt lat="40.53097127698097" lon="9.059441565268774"><ele>760.0</ele><time>2026-03-27T13:04:54Z</time></trkpt><trkpt lat="40.53105781103575" lon="9.059357559697883"><ele>760.0</ele><time>2026-03-27T13:04:55Z</time></trkpt><trkpt lat="40.531149409427634" lon="9.059308983656328"><ele>760.0</ele><time>2026-03-27T13:04:56Z</time></trkpt><trkpt lat="40.531212644798636" lon="9.059213113934364"><ele>760.0</ele><time>2026-03-27T13:04:58Z</time></trkpt><trkpt lat="40.5312269364349" lon="9.059107253818318"><ele>760.0</ele><time>2026-03-27T13:04:59Z</time></trkpt><trkpt lat="40.53123146704558" lon="9.058998997379044"><ele>760.0</ele><time>2026-03-27T13:05:00Z</time></trkpt><trkpt lat="40.53128074211201" lon="9.058895604076328"><ele>760.5</ele><time>2026-03-27T13:05:02Z</time></trkpt><trkpt lat="40.53134721303823" lon="9.058900787341555"><ele>761.0</ele><time>2026-03-27T13:05:03Z</time></trkpt><trkpt lat="40.531416920350296" lon="9.058951372267245"><ele>761.5</ele><time>2026-03-27T13:05:04Z</time></trkpt><trkpt lat="40.5315172794039" lon="9.059000845530345"><ele>762.0</ele><time>2026-03-27T13:05:05Z</time></trkpt><trkpt lat="40.53160026116747" lon="9.058941340105537"><ele>762.5</ele><time>2026-03-27T13:05:07Z</time></trkpt><trkpt lat="40.53161645397922" lon="9.058809920215012"><ele>763.0</ele><time>2026-03-27T13:05:09Z</time></trkpt><trkpt lat="40.531670118235425" lon="9.05875158438779"><ele>763.0</ele><time>2026-03-27T13:05:10Z</time></trkpt><trkpt lat="40.53181932998091" lon="9.0587468179122"><ele>763.0</ele><time>2026-03-27T13:05:12Z</time></trkpt><trkpt lat="40.5319168029747" lon="9.058758863569523"><ele>763.0</ele><time>2026-03-27T13:05:13Z</time></trkpt><trkpt lat="40.53196718928823" lon="9.058825914638156"><ele>763.0</ele><time>2026-03-27T13:05:14Z</time></trkpt><trkpt lat="40.53206362246265" lon="9.05881302753085"><ele>763.0</ele><time>2026-03-27T13:05:16Z</time></trkpt><trkpt lat="40.53212718794272" lon="9.058713537519528"><ele>763.0</ele><time>2026-03-27T13:05:17Z</time></trkpt><trkpt lat="40.532192666481805" lon="9.058629547426376"><ele>763.0</ele><time>2026-03-27T13:05:18Z</time></trkpt><trkpt lat="40.532228359315965" lon="9.058519467365123"><ele>763.0</ele><time>2026-03-27T13:05:19Z</time></trkpt><trkpt lat="40.532239315603086" lon="9.0584205774741"><ele>763.0</ele><time>2026-03-27T13:05:20Z</time></trkpt><trkpt lat="40.53226849044081" lon="9.058343450720704"><ele>763.0</ele><time>2026-03-27T13:05:21Z</time></trkpt><trkpt lat="40.532372103282796" lon="9.058277089618722"><ele>763.0</ele><time>2026-03-27T13:05:23Z</time></trkpt><trkpt lat="40.53243692206852" lon="9.058292621237321"><ele>763.0</ele><time>2026-03-27T13:05:24Z</time></trkpt><trkpt lat="40.532514270274085" lon="9.058330557755104"><ele>763.0</ele><time>2026-03-27T13:05:25Z</time></trkpt><trkpt lat="40.53260912598818" lon="9.058337170889995"><ele>763.0</ele><time>2026-03-27T13:05:26Z</time></trkpt><trkpt lat="40.532685262810354" lon="9.058263398514287"><ele>763.0</ele><time>2026-03-27T13:05:27Z</time></trkpt><trkpt lat="40.53277565228338" lon="9.058271080274803"><ele>763.0</ele><time>2026-03-27T13:05:28Z</time></trkpt><trkpt lat="40.53285018979914" lon="9.058246348530131"><ele>763.0</ele><time>2026-03-27T13:05:29Z</time></trkpt><trkpt lat="40.532898510088" lon="9.058167921932537"><ele>759.8333333333334</ele><time>2026-03-27T13:05:30Z</time></trkpt><trkpt lat="40.532942366176755" lon="9.058099580818354"><ele>756.6666666666667</ele><time>2026-03-27T13:05:31Z</time></trkpt><trkpt lat="40.53301098533299" lon="9.05806548167562"><ele>753.5</ele><time>2026-03-27T13:05:32Z</time></trkpt><trkpt lat="40.53299833180639" lon="9.05796022500158"><ele>750.3333333333334</ele><time>2026-03-27T13:05:33Z</time></trkpt><trkpt lat="40.53300797386314" lon="9.057830593279881"><ele>747.1666666666666</ele><time>2026-03-27T13:05:34Z</time></trkpt><trkpt lat="40.53297846751152" lon="9.057755641010328"><ele>744.0</ele><time>2026-03-27T13:05:35Z</time></trkpt><trkpt lat="40.53290747897063" lon="9.057642409394925"><ele>745.4000000000001</ele><time>2026-03-27T13:05:36Z</time></trkpt><trkpt lat="40.532832573099554" lon="9.057511379769524"><ele>746.8</ele><time>2026-03-27T13:05:36.999Z</time></trkpt><trkpt lat="40.53278889051839" lon="9.057417948193265"><ele>748.2</ele><time>2026-03-27T13:05:37.999Z</time></trkpt><trkpt lat="40.53278929831595" lon="9.057299103609616"><ele>749.5999999999999</ele><time>2026-03-27T13:05:39.999Z</time></trkpt><trkpt lat="40.53284608088259" lon="9.057247191066805"><ele>751.0</ele><time>2026-03-27T13:05:40.999Z</time></trkpt><trkpt lat="40.53294825283247" lon="9.057193390829998"><ele>751.0</ele><time>2026-03-27T13:05:41.999Z</time></trkpt><trkpt lat="40.5330603051137" lon="9.057103216186919"><ele>751.0</ele><time>2026-03-27T13:05:42.999Z</time></trkpt><trkpt lat="40.533124672574516" lon="9.057024449063567"><ele>751.0</ele><time>2026-03-27T13:05:43.999Z</time></trkpt><trkpt lat="40.5331790839841" lon="9.056953967850927"><ele>751.0</ele><time>2026-03-27T13:05:44.999Z</time></trkpt><trkpt lat="40.5331996744308" lon="9.056858926221825"><ele>751.0</ele><time>2026-03-27T13:05:45.999Z</time></trkpt><trkpt lat="40.53319563601779" lon="9.056745580177179"><ele>751.0</ele><time>2026-03-27T13:05:46.999Z</time></trkpt><trkpt lat="40.53316511857999" lon="9.056662355966562"><ele>751.0</ele><time>2026-03-27T13:05:47.999Z</time></trkpt><trkpt lat="40.53307845082535" lon="9.05668271844405"><ele>751.0</ele><time>2026-03-27T13:05:53.999Z</time></trkpt><trkpt lat="40.53304338402904" lon="9.056771674605859"><ele>751.0</ele><time>2026-03-27T13:05:55.999Z</time></trkpt><trkpt lat="40.53292746297656" lon="9.056863804248193"><ele>751.0</ele><time>2026-03-27T13:05:57.999Z</time></trkpt><trkpt lat="40.532851402989024" lon="9.056928773370636"><ele>752.1666666666667</ele><time>2026-03-27T13:05:58.999Z</time></trkpt><trkpt lat="40.532787422370056" lon="9.056989678667417"><ele>753.3333333333334</ele><time>2026-03-27T13:05:59.999Z</time></trkpt><trkpt lat="40.53273151044625" lon="9.057043954012906"><ele>754.5</ele><time>2026-03-27T13:06:00.999Z</time></trkpt><trkpt lat="40.53267095237823" lon="9.057080546910761"><ele>755.6666666666666</ele><time>2026-03-27T13:06:01.999Z</time></trkpt><trkpt lat="40.53258595883297" lon="9.057086902847283"><ele>756.8333333333333</ele><time>2026-03-27T13:06:02.999Z</time></trkpt><trkpt lat="40.53250894487268" lon="9.05709637371408"><ele>758.0</ele><time>2026-03-27T13:06:03.999Z</time></trkpt><trkpt lat="40.53243036890839" lon="9.05714618010238"><ele>758.0</ele><time>2026-03-27T13:06:04.999Z</time></trkpt><trkpt lat="40.53236030695144" lon="9.057205365206812"><ele>758.0</ele><time>2026-03-27T13:06:05.999Z</time></trkpt><trkpt lat="40.53229698667046" lon="9.057242896574767"><ele>758.0</ele><time>2026-03-27T13:06:06.999Z</time></trkpt><trkpt lat="40.53222461280758" lon="9.057246237308288"><ele>758.0</ele><time>2026-03-27T13:06:07.999Z</time></trkpt><trkpt lat="40.53213018192994" lon="9.05724393958908"><ele>758.0</ele><time>2026-03-27T13:06:08.999Z</time></trkpt><trkpt lat="40.532030706567646" lon="9.05724389992834"><ele>758.0</ele><time>2026-03-27T13:06:09.999Z</time></trkpt><trkpt lat="40.53192470198017" lon="9.057259556715657"><ele>759.5999999999999</ele><time>2026-03-27T13:06:10.999Z</time></trkpt><trkpt lat="40.53185462051695" lon="9.05724545829929"><ele>761.1999999999999</ele><time>2026-03-27T13:06:11.999Z</time></trkpt><trkpt lat="40.531738724913524" lon="9.057278612201603"><ele>762.8</ele><time>2026-03-27T13:06:13.999Z</time></trkpt><trkpt lat="40.531653786231836" lon="9.057333629286594"><ele>764.4</ele><time>2026-03-27T13:06:14.999Z</time></trkpt><trkpt lat="40.5315592731656" lon="9.057394412135416"><ele>766.0</ele><time>2026-03-27T13:06:15.999Z</time></trkpt><trkpt lat="40.53147585195871" lon="9.05742476762025"><ele>766.0</ele><time>2026-03-27T13:06:16.999Z</time></trkpt><trkpt lat="40.53138540998008" lon="9.057416358801133"><ele>766.0</ele><time>2026-03-27T13:06:17.999Z</time></trkpt><trkpt lat="40.53128008079685" lon="9.057409979993949"><ele>766.0</ele><time>2026-03-27T13:06:18.999Z</time></trkpt><trkpt lat="40.53116737537879" lon="9.057425591148071"><ele>766.0</ele><time>2026-03-27T13:06:19.999Z</time></trkpt><trkpt lat="40.531071216376134" lon="9.05745516937627"><ele>766.0</ele><time>2026-03-27T13:06:20.999Z</time></trkpt><trkpt lat="40.530992257173885" lon="9.057532412438613"><ele>768.4</ele><time>2026-03-27T13:06:22.999Z</time></trkpt><trkpt lat="40.530947757219366" lon="9.057591899299002"><ele>770.8</ele><time>2026-03-27T13:06:23.999Z</time></trkpt><trkpt lat="40.5308945736684" lon="9.057680244801096"><ele>773.1999999999999</ele><time>2026-03-27T13:06:24.999Z</time></trkpt><trkpt lat="40.530817654386404" lon="9.057764970935267"><ele>775.5999999999999</ele><time>2026-03-27T13:06:25.999Z</time></trkpt><trkpt lat="40.530697924080506" lon="9.05785075585804"><ele>778.0</ele><time>2026-03-27T13:06:26.999Z</time></trkpt><trkpt lat="40.530593055473446" lon="9.05794995149373"><ele>778.0</ele><time>2026-03-27T13:06:27.999Z</time></trkpt><trkpt lat="40.53051389269367" lon="9.058026388158417"><ele>778.0</ele><time>2026-03-27T13:06:28.999Z</time></trkpt><trkpt lat="40.53044099955289" lon="9.058080300860226"><ele>778.0</ele><time>2026-03-27T13:06:29.998Z</time></trkpt><trkpt lat="40.530353571844294" lon="9.058114222107081"><ele>778.0</ele><time>2026-03-27T13:06:30.998Z</time></trkpt><trkpt lat="40.530244857252264" lon="9.05817858894333"><ele>778.0</ele><time>2026-03-27T13:06:31.998Z</time></trkpt><trkpt lat="40.53016055114005" lon="9.05827945670402"><ele>780.5</ele><time>2026-03-27T13:06:32.998Z</time></trkpt><trkpt lat="40.530083310869685" lon="9.058397122719912"><ele>783.0</ele><time>2026-03-27T13:06:33.998Z</time></trkpt><trkpt lat="40.53000121701351" lon="9.058506276191416"><ele>785.5</ele><time>2026-03-27T13:06:34.998Z</time></trkpt><trkpt lat="40.529924377013515" lon="9.058622650859238"><ele>788.0</ele><time>2026-03-27T13:06:35.998Z</time></trkpt><trkpt lat="40.529849809440556" lon="9.05872899402282"><ele>788.0</ele><time>2026-03-27T13:06:36.998Z</time></trkpt><trkpt lat="40.52976049166748" lon="9.05882059443008"><ele>788.0</ele><time>2026-03-27T13:06:37.998Z</time></trkpt><trkpt lat="40.529663539159195" lon="9.05891978788613"><ele>788.0</ele><time>2026-03-27T13:06:38.998Z</time></trkpt><trkpt lat="40.52956972494223" lon="9.059009305916522"><ele>788.0</ele><time>2026-03-27T13:06:39.998Z</time></trkpt><trkpt lat="40.52946685310734" lon="9.059083952750049"><ele>789.0</ele><time>2026-03-27T13:06:40.998Z</time></trkpt><trkpt lat="40.52937947338992" lon="9.05918752850129"><ele>790.0</ele><time>2026-03-27T13:06:41.998Z</time></trkpt><trkpt lat="40.52931409321424" lon="9.059298403065323"><ele>791.0</ele><time>2026-03-27T13:06:42.998Z</time></trkpt><trkpt lat="40.529277749898434" lon="9.059399204515088"><ele>792.0</ele><time>2026-03-27T13:06:43.998Z</time></trkpt><trkpt lat="40.52925821292937" lon="9.0594986747287"><ele>793.0</ele><time>2026-03-27T13:06:44.998Z</time></trkpt><trkpt lat="40.529260517186366" lon="9.059615938783537"><ele>793.0</ele><time>2026-03-27T13:06:45.998Z</time></trkpt><trkpt lat="40.52928007289432" lon="9.059757925731017"><ele>793.0</ele><time>2026-03-27T13:06:46.998Z</time></trkpt><trkpt lat="40.52929209559685" lon="9.059880444482875"><ele>793.0</ele><time>2026-03-27T13:06:47.998Z</time></trkpt><trkpt lat="40.52927792196214" lon="9.059978171408435"><ele>793.0</ele><time>2026-03-27T13:06:48.998Z</time></trkpt><trkpt lat="40.52924328012471" lon="9.060081955859308"><ele>793.0</ele><time>2026-03-27T13:06:50Z</time></trkpt><trkpt lat="40.529190864361276" lon="9.06021771862443"><ele>792.5</ele><time>2026-03-27T13:06:51Z</time></trkpt><trkpt lat="40.52914302199647" lon="9.060356247965114"><ele>792.0</ele><time>2026-03-27T13:06:52Z</time></trkpt><trkpt lat="40.52909305135842" lon="9.06046446834065"><ele>791.5</ele><time>2026-03-27T13:06:53Z</time></trkpt><trkpt lat="40.529024629027006" lon="9.060589551974411"><ele>791.0</ele><time>2026-03-27T13:06:54Z</time></trkpt><trkpt lat="40.528950692751145" lon="9.060727716983704"><ele>788.75</ele><time>2026-03-27T13:06:55Z</time></trkpt><trkpt lat="40.5288811010647" lon="9.060857490507228"><ele>786.5</ele><time>2026-03-27T13:06:56Z</time></trkpt><trkpt lat="40.528821122025654" lon="9.060975153986254"><ele>784.25</ele><time>2026-03-27T13:06:57Z</time></trkpt><trkpt lat="40.52874617485787" lon="9.061083557128011"><ele>782.0</ele><time>2026-03-27T13:06:58Z</time></trkpt><trkpt lat="40.52867308741186" lon="9.061193345948153"><ele>780.8</ele><time>2026-03-27T13:06:59Z</time></trkpt><trkpt lat="40.52861603722834" lon="9.061325953235684"><ele>779.6</ele><time>2026-03-27T13:07:00Z</time></trkpt><trkpt lat="40.528572929570984" lon="9.061463009672465"><ele>778.4</ele><time>2026-03-27T13:07:01Z</time></trkpt><trkpt lat="40.52854299816402" lon="9.06155738086557"><ele>777.1999999999999</ele><time>2026-03-27T13:07:02Z</time></trkpt><trkpt lat="40.52855320818152" lon="9.061646121270021"><ele>776.0</ele><time>2026-03-27T13:07:38Z</time></trkpt><trkpt lat="40.528591254036876" lon="9.061777709265716"><ele>775.0</ele><time>2026-03-27T13:07:39.999Z</time></trkpt><trkpt lat="40.528633971025656" lon="9.06189401227313"><ele>774.0</ele><time>2026-03-27T13:07:40.999Z</time></trkpt><trkpt lat="40.52868482697511" lon="9.06201881234139"><ele>773.0</ele><time>2026-03-27T13:07:41.999Z</time></trkpt><trkpt lat="40.52874951482103" lon="9.062123478062636"><ele>772.0</ele><time>2026-03-27T13:07:42.999Z</time></trkpt><trkpt lat="40.528807959770056" lon="9.062204416181103"><ele>771.0</ele><time>2026-03-27T13:07:43.999Z</time></trkpt><trkpt lat="40.528844928578806" lon="9.062309916055286"><ele>772.75</ele><time>2026-03-27T13:07:44.999Z</time></trkpt><trkpt lat="40.52887209019297" lon="9.062451864361458"><ele>774.5</ele><time>2026-03-27T13:07:45.999Z</time></trkpt><trkpt lat="40.52890409909813" lon="9.062595955277752"><ele>776.25</ele><time>2026-03-27T13:07:46.999Z</time></trkpt><trkpt lat="40.52896608669788" lon="9.062736047769052"><ele>778.0</ele><time>2026-03-27T13:07:47.999Z</time></trkpt><trkpt lat="40.529046098606145" lon="9.06286961475909"><ele>778.0</ele><time>2026-03-27T13:07:48.999Z</time></trkpt><trkpt lat="40.529113654444934" lon="9.06298952107691"><ele>778.0</ele><time>2026-03-27T13:07:49.999Z</time></trkpt><trkpt lat="40.5291519491928" lon="9.063107051328885"><ele>778.0</ele><time>2026-03-27T13:07:50.999Z</time></trkpt><trkpt lat="40.529180418865835" lon="9.063251765753684"><ele>778.0</ele><time>2026-03-27T13:07:51.999Z</time></trkpt><trkpt lat="40.5292006727053" lon="9.06336972005183"><ele>778.0</ele><time>2026-03-27T13:07:52.999Z</time></trkpt><trkpt lat="40.52921574035862" lon="9.063461458395478"><ele>780.8</ele><time>2026-03-27T13:07:53.999Z</time></trkpt><trkpt lat="40.529182290491555" lon="9.063611137626694"><ele>783.5999999999999</ele><time>2026-03-27T13:07:55.999Z</time></trkpt><trkpt lat="40.52914700391982" lon="9.063682401560577"><ele>786.4000000000001</ele><time>2026-03-27T13:07:56.999Z</time></trkpt><trkpt lat="40.52903329791131" lon="9.063774261690755"><ele>789.2</ele><time>2026-03-27T13:07:57.999Z</time></trkpt><trkpt lat="40.52897650774482" lon="9.063846941579401"><ele>792.0</ele><time>2026-03-27T13:07:58.999Z</time></trkpt><trkpt lat="40.52896928041843" lon="9.063935691264048"><ele>792.0</ele><time>2026-03-27T13:07:59.999Z</time></trkpt><trkpt lat="40.52897869601013" lon="9.064044147053389"><ele>792.0</ele><time>2026-03-27T13:08:00.999Z</time></trkpt><trkpt lat="40.529017315807664" lon="9.064160599155683"><ele>792.0</ele><time>2026-03-27T13:08:01.999Z</time></trkpt><trkpt lat="40.529048792881134" lon="9.064295264066066"><ele>792.0</ele><time>2026-03-27T13:08:02.999Z</time></trkpt><trkpt lat="40.529057609805825" lon="9.064424721590827"><ele>792.0</ele><time>2026-03-27T13:08:03.999Z</time></trkpt><trkpt lat="40.52902760348544" lon="9.06457345930059"><ele>791.0</ele><time>2026-03-27T13:08:04.999Z</time></trkpt><trkpt lat="40.52899777092134" lon="9.064706004838676"><ele>790.0</ele><time>2026-03-27T13:08:05.999Z</time></trkpt><trkpt lat="40.52895947210462" lon="9.064832650663513"><ele>789.0</ele><time>2026-03-27T13:08:06.999Z</time></trkpt><trkpt lat="40.5289247501732" lon="9.064928539026646"><ele>788.0</ele><time>2026-03-27T13:08:07.999Z</time></trkpt><trkpt lat="40.528908384301445" lon="9.065085833284682"><ele>787.0</ele><time>2026-03-27T13:08:09.999Z</time></trkpt><trkpt lat="40.52893240094172" lon="9.065230508705616"><ele>785.6</ele><time>2026-03-27T13:08:10.999Z</time></trkpt><trkpt lat="40.52897303273764" lon="9.065390096381934"><ele>784.2</ele><time>2026-03-27T13:08:11.999Z</time></trkpt><trkpt lat="40.5289889552182" lon="9.065509848084451"><ele>782.8</ele><time>2026-03-27T13:08:12.999Z</time></trkpt><trkpt lat="40.5289976206525" lon="9.065614329462903"><ele>781.4</ele><time>2026-03-27T13:08:13.999Z</time></trkpt><trkpt lat="40.5289793122821" lon="9.065765635449747"><ele>780.0</ele><time>2026-03-27T13:08:15.999Z</time></trkpt><trkpt lat="40.52892085606282" lon="9.065826590160901"><ele>778.6666666666666</ele><time>2026-03-27T13:08:16.999Z</time></trkpt><trkpt lat="40.52884854109235" lon="9.065890955694307"><ele>777.3333333333333</ele><time>2026-03-27T13:08:17.999Z</time></trkpt><trkpt lat="40.52878387915147" lon="9.06594150616686"><ele>776.0</ele><time>2026-03-27T13:08:18.999Z</time></trkpt><trkpt lat="40.5287165579074" lon="9.06596105193767"><ele>774.6666666666666</ele><time>2026-03-27T13:08:19.999Z</time></trkpt><trkpt lat="40.52863473802612" lon="9.065937842332817"><ele>773.3333333333333</ele><time>2026-03-27T13:08:20.999Z</time></trkpt><trkpt lat="40.528543425821404" lon="9.065923861486631"><ele>772.0</ele><time>2026-03-27T13:08:21.999Z</time></trkpt><trkpt lat="40.52847304778996" lon="9.065957602858987"><ele>777.0</ele><time>2026-03-27T13:08:22.999Z</time></trkpt><trkpt lat="40.52841206354193" lon="9.066018520207397"><ele>782.0</ele><time>2026-03-27T13:08:23.999Z</time></trkpt><trkpt lat="40.52837322577919" lon="9.066092286562796"><ele>787.0</ele><time>2026-03-27T13:08:24.999Z</time></trkpt><trkpt lat="40.52841879039152" lon="9.06623716268435"><ele>792.0</ele><time>2026-03-27T13:08:26.999Z</time></trkpt><trkpt lat="40.528503268714005" lon="9.066334470114"><ele>797.0</ele><time>2026-03-27T13:08:27.999Z</time></trkpt><trkpt lat="40.52859485585214" lon="9.06643806618414"><ele>797.0</ele><time>2026-03-27T13:08:28.999Z</time></trkpt><trkpt lat="40.52866947655789" lon="9.066543379982878"><ele>797.0</ele><time>2026-03-27T13:08:29.999Z</time></trkpt><trkpt lat="40.528733572320654" lon="9.066667430412862"><ele>797.0</ele><time>2026-03-27T13:08:30.998Z</time></trkpt><trkpt lat="40.52876337154954" lon="9.066757592885041"><ele>797.0</ele><time>2026-03-27T13:08:31.998Z</time></trkpt><trkpt lat="40.52879019879937" lon="9.066847968646055"><ele>797.0</ele><time>2026-03-27T13:08:32.998Z</time></trkpt><trkpt lat="40.52879466565664" lon="9.066953901489045"><ele>792.3333333333334</ele><time>2026-03-27T13:08:33.998Z</time></trkpt><trkpt lat="40.52879224956845" lon="9.067086182064198"><ele>787.6666666666667</ele><time>2026-03-27T13:08:34.998Z</time></trkpt><trkpt lat="40.52881474931555" lon="9.06718822526521"><ele>783.0</ele><time>2026-03-27T13:08:35.998Z</time></trkpt><trkpt lat="40.5288369287055" lon="9.067275643184274"><ele>778.3333333333333</ele><time>2026-03-27T13:08:36.998Z</time></trkpt><trkpt lat="40.52888361910514" lon="9.067370186819684"><ele>773.6666666666666</ele><time>2026-03-27T13:08:38.998Z</time></trkpt><trkpt lat="40.52894896641114" lon="9.067324188386257"><ele>769.0</ele><time>2026-03-27T13:08:39.998Z</time></trkpt><trkpt lat="40.529019997719956" lon="9.067297847420233"><ele>769.0</ele><time>2026-03-27T13:08:40.998Z</time></trkpt><trkpt lat="40.5291467089818" lon="9.06719695346339"><ele>769.0</ele><time>2026-03-27T13:08:41.998Z</time></trkpt><trkpt lat="40.52923013846378" lon="9.067123543235649"><ele>769.0</ele><time>2026-03-27T13:08:42.998Z</time></trkpt><trkpt lat="40.529338573509065" lon="9.067060975967301"><ele>769.0</ele><time>2026-03-27T13:08:43.998Z</time></trkpt><trkpt lat="40.52943014527185" lon="9.067047278264415"><ele>769.0</ele><time>2026-03-27T13:08:44.998Z</time></trkpt><trkpt lat="40.529544484709916" lon="9.06708379715324"><ele>769.0</ele><time>2026-03-27T13:08:45.998Z</time></trkpt><trkpt lat="40.529652470987095" lon="9.067088198940338"><ele>769.0</ele><time>2026-03-27T13:08:46.998Z</time></trkpt><trkpt lat="40.529752306339525" lon="9.067040359157941"><ele>769.0</ele><time>2026-03-27T13:08:47.998Z</time></trkpt><trkpt lat="40.52985164987935" lon="9.067021443366233"><ele>769.0</ele><time>2026-03-27T13:08:48.998Z</time></trkpt><trkpt lat="40.52993470381415" lon="9.067023734367542"><ele>766.5</ele><time>2026-03-27T13:08:49.998Z</time></trkpt><trkpt lat="40.529995928917344" lon="9.06706212616414"><ele>764.0</ele><time>2026-03-27T13:08:50.998Z</time></trkpt><trkpt lat="40.53010954985709" lon="9.067082371113612"><ele>761.5</ele><time>2026-03-27T13:08:51.998Z</time></trkpt><trkpt lat="40.53024518360576" lon="9.067065383289327"><ele>759.0</ele><time>2026-03-27T13:08:52.998Z</time></trkpt><trkpt lat="40.53040236495433" lon="9.067048539938568"><ele>758.0</ele><time>2026-03-27T13:08:53.998Z</time></trkpt><trkpt lat="40.530528204206824" lon="9.06703116869573"><ele>757.0</ele><time>2026-03-27T13:08:54.998Z</time></trkpt><trkpt lat="40.5306059680204" lon="9.067012067853607"><ele>756.0</ele><time>2026-03-27T13:08:56Z</time></trkpt><trkpt lat="40.53068342106895" lon="9.06699084107007"><ele>755.0</ele><time>2026-03-27T13:08:57Z</time></trkpt><trkpt lat="40.530741000160944" lon="9.066951502656375"><ele>754.0</ele><time>2026-03-27T13:08:59Z</time></trkpt><trkpt lat="40.53083853082165" lon="9.066944942934791"><ele>753.0</ele><time>2026-03-27T13:09:01Z</time></trkpt><trkpt lat="40.530932042957" lon="9.066888131433016"><ele>753.0</ele><time>2026-03-27T13:09:03Z</time></trkpt><trkpt lat="40.53100974659633" lon="9.066840010677076"><ele>753.0</ele><time>2026-03-27T13:09:04Z</time></trkpt><trkpt lat="40.53109320051288" lon="9.066774438754484"><ele>753.0</ele><time>2026-03-27T13:09:05Z</time></trkpt><trkpt lat="40.531168598571156" lon="9.066700322664833"><ele>753.0</ele><time>2026-03-27T13:09:07Z</time></trkpt><trkpt lat="40.531203203344774" lon="9.066771116748473"><ele>753.0</ele><time>2026-03-27T13:09:10Z</time></trkpt><trkpt lat="40.531126665684745" lon="9.066910823267127"><ele>753.0</ele><time>2026-03-27T13:09:13Z</time></trkpt><trkpt lat="40.531058605947365" lon="9.066999138046842"><ele>753.0</ele><time>2026-03-27T13:09:14Z</time></trkpt><trkpt lat="40.53101936310381" lon="9.067124788723715"><ele>753.0</ele><time>2026-03-27T13:09:15Z</time></trkpt><trkpt lat="40.530986444932" lon="9.067260052916152"><ele>753.0</ele><time>2026-03-27T13:09:16Z</time></trkpt><trkpt lat="40.53094911496242" lon="9.067369577213727"><ele>753.0</ele><time>2026-03-27T13:09:17Z</time></trkpt><trkpt lat="40.53091748886607" lon="9.067471562522563"><ele>754.2</ele><time>2026-03-27T13:09:18Z</time></trkpt><trkpt lat="40.53089265546118" lon="9.067599765105578"><ele>755.4</ele><time>2026-03-27T13:09:20Z</time></trkpt><trkpt lat="40.53088205696439" lon="9.067732400387897"><ele>756.6</ele><time>2026-03-27T13:09:21Z</time></trkpt><trkpt lat="40.53088725017567" lon="9.067875189174641"><ele>757.8000000000001</ele><time>2026-03-27T13:09:22Z</time></trkpt><trkpt lat="40.53091404337522" lon="9.068033204515505"><ele>759.0</ele><time>2026-03-27T13:09:23Z</time></trkpt><trkpt lat="40.53098230287858" lon="9.068107427501793"><ele>759.0</ele><time>2026-03-27T13:09:24Z</time></trkpt><trkpt lat="40.53105265826263" lon="9.068232792672719"><ele>759.0</ele><time>2026-03-27T13:09:25Z</time></trkpt><trkpt lat="40.53112704324999" lon="9.068333089828634"><ele>759.0</ele><time>2026-03-27T13:09:26Z</time></trkpt><trkpt lat="40.53119217590834" lon="9.06841689555863"><ele>759.0</ele><time>2026-03-27T13:09:27Z</time></trkpt><trkpt lat="40.53124367817594" lon="9.068493734038052"><ele>759.0</ele><time>2026-03-27T13:09:28Z</time></trkpt><trkpt lat="40.53127698424747" lon="9.068581340270939"><ele>758.6</ele><time>2026-03-27T13:09:29Z</time></trkpt><trkpt lat="40.53129612706131" lon="9.068739335176268"><ele>758.2</ele><time>2026-03-27T13:09:31Z</time></trkpt><trkpt lat="40.53126872241033" lon="9.068850229461901"><ele>757.8000000000001</ele><time>2026-03-27T13:09:32Z</time></trkpt><trkpt lat="40.53119568444157" lon="9.068962141125871"><ele>757.4000000000001</ele><time>2026-03-27T13:09:33Z</time></trkpt><trkpt lat="40.53113610529315" lon="9.069071035090134"><ele>757.0</ele><time>2026-03-27T13:09:34Z</time></trkpt><trkpt lat="40.531107053390784" lon="9.06918649952054"><ele>755.6</ele><time>2026-03-27T13:09:35Z</time></trkpt><trkpt lat="40.53109200205151" lon="9.069322294099562"><ele>754.2</ele><time>2026-03-27T13:09:36Z</time></trkpt><trkpt lat="40.53109881677976" lon="9.069447733532892"><ele>752.8</ele><time>2026-03-27T13:09:37Z</time></trkpt><trkpt lat="40.53111892403968" lon="9.069557033823322"><ele>751.4</ele><time>2026-03-27T13:09:38Z</time></trkpt><trkpt lat="40.531104162978515" lon="9.06971312243728"><ele>750.0</ele><time>2026-03-27T13:09:39.999Z</time></trkpt><trkpt lat="40.531078462598735" lon="9.069818758680137"><ele>750.0</ele><time>2026-03-27T13:09:40.999Z</time></trkpt><trkpt lat="40.53103877515952" lon="9.069924474549564"><ele>750.0</ele><time>2026-03-27T13:09:41.999Z</time></trkpt><trkpt lat="40.531011422663774" lon="9.070007287083858"><ele>750.0</ele><time>2026-03-27T13:09:42.999Z</time></trkpt><trkpt lat="40.531038192765166" lon="9.07012280507846"><ele>750.0</ele><time>2026-03-27T13:09:44.999Z</time></trkpt><trkpt lat="40.53115505160523" lon="9.070213094520186"><ele>750.0</ele><time>2026-03-27T13:09:46.999Z</time></trkpt><trkpt lat="40.53123859790123" lon="9.070245857658866"><ele>745.2</ele><time>2026-03-27T13:09:47.999Z</time></trkpt><trkpt lat="40.53130626116437" lon="9.070296593662873"><ele>740.4</ele><time>2026-03-27T13:09:48.999Z</time></trkpt><trkpt lat="40.531320436464775" lon="9.070438448266769"><ele>735.5999999999999</ele><time>2026-03-27T13:09:50.999Z</time></trkpt><trkpt lat="40.53131530492283" lon="9.070551283864136"><ele>730.8</ele><time>2026-03-27T13:09:51.999Z</time></trkpt><trkpt lat="40.53130481084751" lon="9.070682721183939"><ele>726.0</ele><time>2026-03-27T13:09:52.999Z</time></trkpt><trkpt lat="40.53128859909853" lon="9.070812617651434"><ele>726.0</ele><time>2026-03-27T13:09:53.999Z</time></trkpt><trkpt lat="40.531302334651805" lon="9.070932281518752"><ele>726.0</ele><time>2026-03-27T13:09:54.999Z</time></trkpt><trkpt lat="40.53132670482448" lon="9.071070275642432"><ele>726.0</ele><time>2026-03-27T13:09:55.999Z</time></trkpt><trkpt lat="40.53133072725564" lon="9.071226430118987"><ele>726.0</ele><time>2026-03-27T13:09:56.999Z</time></trkpt><trkpt lat="40.53134183651886" lon="9.071319542863096"><ele>726.0</ele><time>2026-03-27T13:09:57.999Z</time></trkpt><trkpt lat="40.53138297902943" lon="9.071422331282374"><ele>726.0</ele><time>2026-03-27T13:09:58.999Z</time></trkpt><trkpt lat="40.531413118758" lon="9.071509257768712"><ele>726.0</ele><time>2026-03-27T13:09:59.999Z</time></trkpt><trkpt lat="40.53145600825133" lon="9.071591379942452"><ele>726.0</ele><time>2026-03-27T13:10:00.999Z</time></trkpt><trkpt lat="40.53152080737215" lon="9.071654454526541"><ele>726.0</ele><time>2026-03-27T13:10:01.999Z</time></trkpt><trkpt lat="40.531603702840364" lon="9.07173203466303"><ele>726.0</ele><time>2026-03-27T13:10:02.999Z</time></trkpt><trkpt lat="40.53169253996068" lon="9.071773642439846"><ele>726.0</ele><time>2026-03-27T13:10:03.999Z</time></trkpt><trkpt lat="40.531787677500006" lon="9.071798818369047"><ele>727.8</ele><time>2026-03-27T13:10:04.999Z</time></trkpt><trkpt lat="40.531894435383414" lon="9.071796749503047"><ele>729.5999999999999</ele><time>2026-03-27T13:10:05.999Z</time></trkpt><trkpt lat="40.53200908551616" lon="9.071778823885053"><ele>731.4</ele><time>2026-03-27T13:10:06.999Z</time></trkpt><trkpt lat="40.53212149793413" lon="9.071763735062754"><ele>733.2</ele><time>2026-03-27T13:10:07.999Z</time></trkpt><trkpt lat="40.532208414070446" lon="9.071729847446665"><ele>735.0</ele><time>2026-03-27T13:10:08.999Z</time></trkpt><trkpt lat="40.53228674296265" lon="9.07178400988398"><ele>735.25</ele><time>2026-03-27T13:10:10.999Z</time></trkpt><trkpt lat="40.53234839032861" lon="9.071919320350498"><ele>735.5</ele><time>2026-03-27T13:10:12.999Z</time></trkpt><trkpt lat="40.5324134209359" lon="9.072011254111239"><ele>735.75</ele><time>2026-03-27T13:10:13.999Z</time></trkpt><trkpt lat="40.532506929092165" lon="9.0721284121493"><ele>736.0</ele><time>2026-03-27T13:10:14.999Z</time></trkpt><trkpt lat="40.53260186292957" lon="9.072194193433107"><ele>736.0</ele><time>2026-03-27T13:10:15.999Z</time></trkpt><trkpt lat="40.53267976310251" lon="9.072247353649258"><ele>736.0</ele><time>2026-03-27T13:10:16.999Z</time></trkpt><trkpt lat="40.532779686004794" lon="9.072281152683495"><ele>736.0</ele><time>2026-03-27T13:10:17.999Z</time></trkpt><trkpt lat="40.53284453765134" lon="9.07232671629734"><ele>736.0</ele><time>2026-03-27T13:10:18.999Z</time></trkpt><trkpt lat="40.532924690482695" lon="9.072422666688682"><ele>736.0</ele><time>2026-03-27T13:10:20.999Z</time></trkpt><trkpt lat="40.53296527512356" lon="9.072495981388473"><ele>736.0</ele><time>2026-03-27T13:10:22.999Z</time></trkpt><trkpt lat="40.5329695031646" lon="9.072602716240391"><ele>738.6666666666667</ele><time>2026-03-27T13:10:24.999Z</time></trkpt><trkpt lat="40.53290960479546" lon="9.072726298205309"><ele>741.3333333333334</ele><time>2026-03-27T13:10:27.999Z</time></trkpt><trkpt lat="40.53284532500809" lon="9.07282114150379"><ele>744.0</ele><time>2026-03-27T13:10:28.999Z</time></trkpt><trkpt lat="40.53278580390541" lon="9.072867161053253"><ele>746.6666666666666</ele><time>2026-03-27T13:10:29.999Z</time></trkpt><trkpt lat="40.53271989298172" lon="9.072855614867855"><ele>749.3333333333333</ele><time>2026-03-27T13:10:30.999Z</time></trkpt><trkpt lat="40.53262764975801" lon="9.07282403678377"><ele>752.0</ele><time>2026-03-27T13:10:31.998Z</time></trkpt><trkpt lat="40.532523174551294" lon="9.072787405290322"><ele>752.0</ele><time>2026-03-27T13:10:32.998Z</time></trkpt><trkpt lat="40.53243162559426" lon="9.0727846754362"><ele>752.0</ele><time>2026-03-27T13:10:33.998Z</time></trkpt><trkpt lat="40.5323571965959" lon="9.0728043373638"><ele>752.0</ele><time>2026-03-27T13:10:34.998Z</time></trkpt><trkpt lat="40.53228511951321" lon="9.07283001200175"><ele>752.0</ele><time>2026-03-27T13:10:35.998Z</time></trkpt><trkpt lat="40.53220442663814" lon="9.072857777191956"><ele>752.0</ele><time>2026-03-27T13:10:36.998Z</time></trkpt><trkpt lat="40.53211657564998" lon="9.07288505870941"><ele>752.0</ele><time>2026-03-27T13:10:37.998Z</time></trkpt><trkpt lat="40.5320238680133" lon="9.07289570621372"><ele>754.0</ele><time>2026-03-27T13:10:38.998Z</time></trkpt><trkpt lat="40.53192174894845" lon="9.072899129350102"><ele>756.0</ele><time>2026-03-27T13:10:39.998Z</time></trkpt><trkpt lat="40.531814041423026" lon="9.072890973227148"><ele>758.0</ele><time>2026-03-27T13:10:40.998Z</time></trkpt><trkpt lat="40.53171660250246" lon="9.072878903817815"><ele>760.0</ele><time>2026-03-27T13:10:41.998Z</time></trkpt><trkpt lat="40.53164756826746" lon="9.07282925172571"><ele>762.0</ele><time>2026-03-27T13:10:42.998Z</time></trkpt><trkpt lat="40.53158469212676" lon="9.072784029356662"><ele>762.0</ele><time>2026-03-27T13:10:43.998Z</time></trkpt><trkpt lat="40.5314700374598" lon="9.072773299381055"><ele>762.0</ele><time>2026-03-27T13:10:45.998Z</time></trkpt><trkpt lat="40.53133018426436" lon="9.072788198227482"><ele>762.0</ele><time>2026-03-27T13:10:47.998Z</time></trkpt><trkpt lat="40.53125111539472" lon="9.072754759737862"><ele>762.0</ele><time>2026-03-27T13:10:48.998Z</time></trkpt><trkpt lat="40.531182996593316" lon="9.072715045812558"><ele>762.0</ele><time>2026-03-27T13:10:49.998Z</time></trkpt><trkpt lat="40.531060966235586" lon="9.07258316607968"><ele>762.5</ele><time>2026-03-27T13:10:51.998Z</time></trkpt><trkpt lat="40.530965051521925" lon="9.07246637862639"><ele>763.0</ele><time>2026-03-27T13:10:52.998Z</time></trkpt><trkpt lat="40.530860682935646" lon="9.072361867056406"><ele>763.5</ele><time>2026-03-27T13:10:53.998Z</time></trkpt><trkpt lat="40.53076586864435" lon="9.07223960759753"><ele>764.0</ele><time>2026-03-27T13:10:54.998Z</time></trkpt><trkpt lat="40.53070478820788" lon="9.07214061807753"><ele>764.0</ele><time>2026-03-27T13:10:55.998Z</time></trkpt><trkpt lat="40.53064480955077" lon="9.07200837738991"><ele>764.0</ele><time>2026-03-27T13:10:56.998Z</time></trkpt><trkpt lat="40.53058531266072" lon="9.071902211705964"><ele>764.0</ele><time>2026-03-27T13:10:57.998Z</time></trkpt><trkpt lat="40.53051322938541" lon="9.071766673740175"><ele>764.0</ele><time>2026-03-27T13:10:58.998Z</time></trkpt><trkpt lat="40.53042808897072" lon="9.071626960944412"><ele>768.8000000000001</ele><time>2026-03-27T13:10:59.998Z</time></trkpt><trkpt lat="40.530332431607924" lon="9.071518553052647"><ele>773.6</ele><time>2026-03-27T13:11:00.998Z</time></trkpt><trkpt lat="40.53026431158231" lon="9.071419199075144"><ele>778.4</ele><time>2026-03-27T13:11:02Z</time></trkpt><trkpt lat="40.53020003666262" lon="9.071349484851934"><ele>783.2</ele><time>2026-03-27T13:11:03Z</time></trkpt><trkpt lat="40.53012617243184" lon="9.071343042838658"><ele>788.0</ele><time>2026-03-27T13:11:05Z</time></trkpt><trkpt lat="40.53009144141098" lon="9.071447389427876"><ele>788.0000000000001</ele><time>2026-03-27T13:11:49.999Z</time></trkpt><trkpt lat="40.53001689384562" lon="9.071508169647547"><ele>788.0</ele><time>2026-03-27T13:11:51.999Z</time></trkpt><trkpt lat="40.52992369284422" lon="9.071516494563642"><ele>788.0</ele><time>2026-03-27T13:11:53.999Z</time></trkpt><trkpt lat="40.5298610142341" lon="9.071493353646611"><ele>788.0</ele><time>2026-03-27T13:11:54.999Z</time></trkpt><trkpt lat="40.52976780530768" lon="9.07146217754065"><ele>788.0000000000001</ele><time>2026-03-27T13:11:55.999Z</time></trkpt><trkpt lat="40.52969136246039" lon="9.07145688977471"><ele>788.0</ele><time>2026-03-27T13:11:56.999Z</time></trkpt><trkpt lat="40.52962437803857" lon="9.071487630165556"><ele>791.25</ele><time>2026-03-27T13:11:57.999Z</time></trkpt><trkpt lat="40.529548525616676" lon="9.071561287434998"><ele>794.5</ele><time>2026-03-27T13:11:58.999Z</time></trkpt><trkpt lat="40.52943757179291" lon="9.07170309631404"><ele>797.75</ele><time>2026-03-27T13:11:59.999Z</time></trkpt><trkpt lat="40.52931487051332" lon="9.07184673754934"><ele>801.0</ele><time>2026-03-27T13:12:00.999Z</time></trkpt><trkpt lat="40.529197046240284" lon="9.071971473402963"><ele>801.0</ele><time>2026-03-27T13:12:01.999Z</time></trkpt><trkpt lat="40.52913892052798" lon="9.072108114667797"><ele>801.0</ele><time>2026-03-27T13:12:02.999Z</time></trkpt><trkpt lat="40.529109235496655" lon="9.072284319917934"><ele>801.0</ele><time>2026-03-27T13:12:03.999Z</time></trkpt><trkpt lat="40.52908053725786" lon="9.072439361345593"><ele>801.0</ele><time>2026-03-27T13:12:04.999Z</time></trkpt><trkpt lat="40.529072336380764" lon="9.07259635883084"><ele>797.5999999999999</ele><time>2026-03-27T13:12:05.999Z</time></trkpt><trkpt lat="40.52906295813467" lon="9.072736840250503"><ele>794.2</ele><time>2026-03-27T13:12:06.999Z</time></trkpt><trkpt lat="40.52905693997527" lon="9.072824642500528"><ele>790.8</ele><time>2026-03-27T13:12:07.999Z</time></trkpt><trkpt lat="40.528937305667434" lon="9.072874203692097"><ele>787.4000000000001</ele><time>2026-03-27T13:12:10.999Z</time></trkpt><trkpt lat="40.52882684979209" lon="9.072903142795278"><ele>784.0</ele><time>2026-03-27T13:12:11.999Z</time></trkpt><trkpt lat="40.52875194959898" lon="9.072991086454978"><ele>783.0</ele><time>2026-03-27T13:12:12.999Z</time></trkpt><trkpt lat="40.52870216579314" lon="9.07309714685911"><ele>782.0</ele><time>2026-03-27T13:12:13.999Z</time></trkpt><trkpt lat="40.528690627004174" lon="9.073201979605162"><ele>781.0</ele><time>2026-03-27T13:12:14.999Z</time></trkpt><trkpt lat="40.528698470919984" lon="9.073355263582311"><ele>780.0</ele><time>2026-03-27T13:12:15.999Z</time></trkpt><trkpt lat="40.52872501840127" lon="9.07354816232761"><ele>779.0</ele><time>2026-03-27T13:12:16.999Z</time></trkpt><trkpt lat="40.52877224550491" lon="9.073757461075688"><ele>779.0</ele><time>2026-03-27T13:12:17.999Z</time></trkpt><trkpt lat="40.528805361558014" lon="9.07394861061256"><ele>779.0</ele><time>2026-03-27T13:12:18.999Z</time></trkpt><trkpt lat="40.52884386674466" lon="9.074138811456626"><ele>779.0</ele><time>2026-03-27T13:12:19.999Z</time></trkpt><trkpt lat="40.52889986421415" lon="9.074335310198816"><ele>781.3333333333334</ele><time>2026-03-27T13:12:20.999Z</time></trkpt><trkpt lat="40.52894665024506" lon="9.0745555748957"><ele>783.6666666666667</ele><time>2026-03-27T13:12:21.999Z</time></trkpt><trkpt lat="40.52899491263078" lon="9.074737018781832"><ele>786.0</ele><time>2026-03-27T13:12:22.999Z</time></trkpt><trkpt lat="40.52904158638466" lon="9.074898684593956"><ele>787.75</ele><time>2026-03-27T13:12:23.999Z</time></trkpt><trkpt lat="40.5291065440109" lon="9.07504455125203"><ele>789.5</ele><time>2026-03-27T13:12:24.999Z</time></trkpt><trkpt lat="40.52914716908103" lon="9.075174809067702"><ele>791.25</ele><time>2026-03-27T13:12:25.999Z</time></trkpt><trkpt lat="40.52918534201569" lon="9.075327612703136"><ele>793.0</ele><time>2026-03-27T13:12:26.999Z</time></trkpt><trkpt lat="40.529208867239014" lon="9.075485329343866"><ele>793.0</ele><time>2026-03-27T13:12:27.999Z</time></trkpt><trkpt lat="40.529234834077215" lon="9.075633505200825"><ele>793.0</ele><time>2026-03-27T13:12:28.999Z</time></trkpt><trkpt lat="40.52922289933881" lon="9.075773329116037"><ele>793.0</ele><time>2026-03-27T13:12:29.999Z</time></trkpt><trkpt lat="40.529183742519116" lon="9.075907421644038"><ele>793.0</ele><time>2026-03-27T13:12:30.999Z</time></trkpt><trkpt lat="40.52914329509737" lon="9.076025104726487"><ele>793.0</ele><time>2026-03-27T13:12:31.999Z</time></trkpt><trkpt lat="40.52907699431802" lon="9.07612392138604"><ele>793.2857142857143</ele><time>2026-03-27T13:12:33.999Z</time></trkpt><trkpt lat="40.52905289135492" lon="9.076209741707773"><ele>793.5714285714286</ele><time>2026-03-27T13:12:37.998Z</time></trkpt><trkpt lat="40.529116953245186" lon="9.076184511927366"><ele>793.8571428571429</ele><time>2026-03-27T13:13:25Z</time></trkpt><trkpt lat="40.52916701510477" lon="9.0761310420114"><ele>794.1428571428571</ele><time>2026-03-27T13:13:27Z</time></trkpt><trkpt lat="40.5292189107583" lon="9.076073179510189"><ele>794.4285714285714</ele><time>2026-03-27T13:13:29Z</time></trkpt><trkpt lat="40.52930402755233" lon="9.076060354237894"><ele>794.7142857142858</ele><time>2026-03-27T13:13:33Z</time></trkpt><trkpt lat="40.52923291555915" lon="9.076052732475494"><ele>795.0</ele><time>2026-03-27T13:14:05.999Z</time></trkpt><trkpt lat="40.529284047503275" lon="9.07610687080392"><ele>795.0</ele><time>2026-03-27T13:17:08.998Z</time></trkpt><trkpt lat="40.5292983768565" lon="9.076208805412989"><ele>795.0</ele><time>2026-03-27T13:17:37Z</time></trkpt><trkpt lat="40.52927766717815" lon="9.076314524234263"><ele>795.0</ele><time>2026-03-27T13:17:39Z</time></trkpt><trkpt lat="40.52926884488915" lon="9.07644189049346"><ele>795.0</ele><time>2026-03-27T13:17:41Z</time></trkpt><trkpt lat="40.52924585623337" lon="9.076593092086844"><ele>795.0</ele><time>2026-03-27T13:17:43Z</time></trkpt><trkpt lat="40.529230294764076" lon="9.076751048633925"><ele>795.3333333333334</ele><time>2026-03-27T13:17:45Z</time></trkpt><trkpt lat="40.52921877559063" lon="9.07691444880579"><ele>795.6666666666667</ele><time>2026-03-27T13:17:46.999Z</time></trkpt><trkpt lat="40.52921445693039" lon="9.076998932811629"><ele>796.0</ele><time>2026-03-27T13:17:47.999Z</time></trkpt><trkpt lat="40.529210639195064" lon="9.077084392551116"><ele>796.3333333333334</ele><time>2026-03-27T13:17:48.999Z</time></trkpt><trkpt lat="40.52921769402692" lon="9.077176487009547"><ele>796.6666666666667</ele><time>2026-03-27T13:17:49.999Z</time></trkpt><trkpt lat="40.529235383036735" lon="9.077264100307554"><ele>797.0</ele><time>2026-03-27T13:17:50.999Z</time></trkpt><trkpt lat="40.5292628643717" lon="9.07735328014998"><ele>798.4000000000001</ele><time>2026-03-27T13:17:51.999Z</time></trkpt><trkpt lat="40.52929771262384" lon="9.077453661436039"><ele>799.8000000000001</ele><time>2026-03-27T13:17:52.999Z</time></trkpt><trkpt lat="40.52933503657653" lon="9.07757054025593"><ele>801.2</ele><time>2026-03-27T13:17:53.999Z</time></trkpt><trkpt lat="40.52937770759857" lon="9.077695754733622"><ele>802.6</ele><time>2026-03-27T13:17:54.999Z</time></trkpt><trkpt lat="40.529416474310096" lon="9.077824829468867"><ele>804.0</ele><time>2026-03-27T13:17:55.999Z</time></trkpt><trkpt lat="40.529444554556775" lon="9.077961811909777"><ele>804.0</ele><time>2026-03-27T13:17:56.999Z</time></trkpt><trkpt lat="40.529476047091165" lon="9.078087758579048"><ele>804.0</ele><time>2026-03-27T13:17:57.999Z</time></trkpt><trkpt lat="40.529495194999384" lon="9.078228203652655"><ele>804.0</ele><time>2026-03-27T13:17:58.999Z</time></trkpt><trkpt lat="40.52950966594753" lon="9.07835918952873"><ele>804.0</ele><time>2026-03-27T13:17:59.999Z</time></trkpt><trkpt lat="40.52953285313594" lon="9.078474546283132"><ele>804.0</ele><time>2026-03-27T13:18:00.999Z</time></trkpt><trkpt lat="40.5295631708507" lon="9.078597045672991"><ele>807.2</ele><time>2026-03-27T13:18:01.999Z</time></trkpt><trkpt lat="40.5296117162379" lon="9.078713201730892"><ele>810.4000000000001</ele><time>2026-03-27T13:18:02.999Z</time></trkpt><trkpt lat="40.529670719335115" lon="9.078814135787072"><ele>813.6</ele><time>2026-03-27T13:18:03.999Z</time></trkpt><trkpt lat="40.529717592476" lon="9.078934185552699"><ele>816.8</ele><time>2026-03-27T13:18:05.999Z</time></trkpt><trkpt lat="40.52969163043419" lon="9.07911625045402"><ele>820.0</ele><time>2026-03-27T13:18:07.999Z</time></trkpt><trkpt lat="40.52967588955902" lon="9.079230484913964"><ele>820.0</ele><time>2026-03-27T13:18:08.999Z</time></trkpt><trkpt lat="40.52967677832974" lon="9.079323976048112"><ele>820.0</ele><time>2026-03-27T13:18:09.999Z</time></trkpt><trkpt lat="40.52969460571072" lon="9.079426010199475"><ele>820.0</ele><time>2026-03-27T13:18:10.999Z</time></trkpt><trkpt lat="40.52970889910044" lon="9.079545583424261"><ele>820.0</ele><time>2026-03-27T13:18:11.999Z</time></trkpt><trkpt lat="40.529713167715634" lon="9.079684522672835"><ele>820.0</ele><time>2026-03-27T13:18:12.999Z</time></trkpt><trkpt lat="40.52970150734319" lon="9.079845485421574"><ele>820.0</ele><time>2026-03-27T13:18:13.999Z</time></trkpt><trkpt lat="40.52968972798721" lon="9.080015899234116"><ele>820.0</ele><time>2026-03-27T13:18:14.999Z</time></trkpt><trkpt lat="40.52967488149706" lon="9.080173957882801"><ele>820.0</ele><time>2026-03-27T13:18:15.999Z</time></trkpt><trkpt lat="40.529659954245524" lon="9.080306337132768"><ele>820.0</ele><time>2026-03-27T13:18:16.999Z</time></trkpt><trkpt lat="40.52964176180059" lon="9.080407565863439"><ele>820.0</ele><time>2026-03-27T13:18:17.999Z</time></trkpt><trkpt lat="40.5296155955934" lon="9.080519529755021"><ele>820.0</ele><time>2026-03-27T13:18:19.999Z</time></trkpt><trkpt lat="40.52963882788321" lon="9.08062343517856"><ele>820.0</ele><time>2026-03-27T13:18:22.999Z</time></trkpt><trkpt lat="40.52971110864695" lon="9.080714102277641"><ele>820.0</ele><time>2026-03-27T13:18:26.999Z</time></trkpt><trkpt lat="40.52976774618469" lon="9.080806824510447"><ele>820.0</ele><time>2026-03-27T13:18:27.999Z</time></trkpt><trkpt lat="40.52984310984061" lon="9.08090023574187"><ele>820.0</ele><time>2026-03-27T13:18:28.999Z</time></trkpt><trkpt lat="40.52994077089231" lon="9.080971903848198"><ele>819.0</ele><time>2026-03-27T13:18:29.999Z</time></trkpt><trkpt lat="40.530053074569615" lon="9.081038727711741"><ele>818.0</ele><time>2026-03-27T13:18:30.999Z</time></trkpt><trkpt lat="40.53019177273964" lon="9.081100746719976"><ele>817.0</ele><time>2026-03-27T13:18:31.999Z</time></trkpt><trkpt lat="40.53030248733275" lon="9.081148278269097"><ele>816.0</ele><time>2026-03-27T13:18:32.999Z</time></trkpt><trkpt lat="40.53038850200761" lon="9.081210100082512"><ele>821.0</ele><time>2026-03-27T13:18:33.999Z</time></trkpt><trkpt lat="40.53047565003843" lon="9.081305899842619"><ele>826.0</ele><time>2026-03-27T13:18:34.999Z</time></trkpt><trkpt lat="40.53056415744849" lon="9.081412559124955"><ele>831.0</ele><time>2026-03-27T13:18:35.999Z</time></trkpt><trkpt lat="40.53063440330474" lon="9.08153412151016"><ele>836.0</ele><time>2026-03-27T13:18:36.999Z</time></trkpt><trkpt lat="40.53067648783339" lon="9.081658292975288"><ele>836.0</ele><time>2026-03-27T13:18:37.999Z</time></trkpt><trkpt lat="40.53070705856257" lon="9.08176481249202"><ele>836.0</ele><time>2026-03-27T13:18:38.999Z</time></trkpt><trkpt lat="40.53071551081118" lon="9.081888815639637"><ele>836.0</ele><time>2026-03-27T13:18:39.998Z</time></trkpt><trkpt lat="40.530712395372134" lon="9.082019911719216"><ele>836.0</ele><time>2026-03-27T13:18:40.998Z</time></trkpt><trkpt lat="40.53069623393678" lon="9.082151534750473"><ele>836.0</ele><time>2026-03-27T13:18:41.998Z</time></trkpt><trkpt lat="40.53066332055482" lon="9.082286678319413"><ele>834.75</ele><time>2026-03-27T13:18:42.998Z</time></trkpt><trkpt lat="40.53060824895547" lon="9.082442166078893"><ele>833.5</ele><time>2026-03-27T13:18:43.998Z</time></trkpt><trkpt lat="40.530537788351054" lon="9.082611922349544"><ele>832.25</ele><time>2026-03-27T13:18:44.998Z</time></trkpt><trkpt lat="40.530479819118874" lon="9.082782718086438"><ele>831.0</ele><time>2026-03-27T13:18:45.998Z</time></trkpt><trkpt lat="40.53043758741361" lon="9.082941495641107"><ele>831.0</ele><time>2026-03-27T13:18:46.998Z</time></trkpt><trkpt lat="40.53040051113977" lon="9.083093084426297"><ele>831.0</ele><time>2026-03-27T13:18:47.998Z</time></trkpt><trkpt lat="40.53035488396541" lon="9.08325454342314"><ele>831.0</ele><time>2026-03-27T13:18:48.998Z</time></trkpt><trkpt lat="40.53031799251301" lon="9.083393726593174"><ele>831.0</ele><time>2026-03-27T13:18:49.998Z</time></trkpt><trkpt lat="40.53028470014831" lon="9.083530995386017"><ele>831.5999999999999</ele><time>2026-03-27T13:18:50.998Z</time></trkpt><trkpt lat="40.530267888566726" lon="9.083662552499497"><ele>832.2</ele><time>2026-03-27T13:18:51.998Z</time></trkpt><trkpt lat="40.53025829333703" lon="9.083774073705872"><ele>832.8</ele><time>2026-03-27T13:18:52.998Z</time></trkpt><trkpt lat="40.53026783869902" lon="9.083889449153979"><ele>833.4000000000001</ele><time>2026-03-27T13:18:53.998Z</time></trkpt><trkpt lat="40.530282278185496" lon="9.084036398033474"><ele>834.0</ele><time>2026-03-27T13:18:54.998Z</time></trkpt><trkpt lat="40.53028840977425" lon="9.084209385158578"><ele>834.0</ele><time>2026-03-27T13:18:55.998Z</time></trkpt><trkpt lat="40.53028848237942" lon="9.084382640045574"><ele>834.0</ele><time>2026-03-27T13:18:56.998Z</time></trkpt><trkpt lat="40.53028906194043" lon="9.08455162014207"><ele>834.0</ele><time>2026-03-27T13:18:57.998Z</time></trkpt><trkpt lat="40.530301239053344" lon="9.084713841766675"><ele>834.0</ele><time>2026-03-27T13:18:58.998Z</time></trkpt><trkpt lat="40.53032149961233" lon="9.084869887118566"><ele>835.25</ele><time>2026-03-27T13:18:59.998Z</time></trkpt><trkpt lat="40.5303587225189" lon="9.085024199433219"><ele>836.5</ele><time>2026-03-27T13:19:00.998Z</time></trkpt><trkpt lat="40.53040030754146" lon="9.085155840749717"><ele>837.75</ele><time>2026-03-27T13:19:01.998Z</time></trkpt><trkpt lat="40.53046378038446" lon="9.08528572378334"><ele>839.0</ele><time>2026-03-27T13:19:02.998Z</time></trkpt><trkpt lat="40.5305451374466" lon="9.085422465186596"><ele>839.5</ele><time>2026-03-27T13:19:03.998Z</time></trkpt><trkpt lat="40.530619504448104" lon="9.085560689580312"><ele>840.0</ele><time>2026-03-27T13:19:04.998Z</time></trkpt><trkpt lat="40.5306796141634" lon="9.085684760890086"><ele>840.5</ele><time>2026-03-27T13:19:05.998Z</time></trkpt><trkpt lat="40.53074275792342" lon="9.085803789244338"><ele>841.0</ele><time>2026-03-27T13:19:06.998Z</time></trkpt><trkpt lat="40.530814709785595" lon="9.085916368949087"><ele>841.0</ele><time>2026-03-27T13:19:07.998Z</time></trkpt><trkpt lat="40.53087190622297" lon="9.086039458295105"><ele>841.0</ele><time>2026-03-27T13:19:08.998Z</time></trkpt><trkpt lat="40.53091508952238" lon="9.08617366573268"><ele>841.0</ele><time>2026-03-27T13:19:09.998Z</time></trkpt><trkpt lat="40.53095611263241" lon="9.086315577947408"><ele>841.0</ele><time>2026-03-27T13:19:10.998Z</time></trkpt><trkpt lat="40.53100469693836" lon="9.08645294523574"><ele>841.0</ele><time>2026-03-27T13:19:11.998Z</time></trkpt><trkpt lat="40.53103329947158" lon="9.086586258045966"><ele>841.0</ele><time>2026-03-27T13:19:12.998Z</time></trkpt><trkpt lat="40.53105007058311" lon="9.086732302429276"><ele>841.0</ele><time>2026-03-27T13:19:13.998Z</time></trkpt><trkpt lat="40.53106371763836" lon="9.086879422992647"><ele>841.0</ele><time>2026-03-27T13:19:14.998Z</time></trkpt><trkpt lat="40.53108405186674" lon="9.087003853286637"><ele>841.0</ele><time>2026-03-27T13:19:15.998Z</time></trkpt><trkpt lat="40.53113050866268" lon="9.087132833269187"><ele>841.1999999999999</ele><time>2026-03-27T13:19:16.998Z</time></trkpt><trkpt lat="40.53118162721609" lon="9.087262378992436"><ele>841.4</ele><time>2026-03-27T13:19:17.998Z</time></trkpt><trkpt lat="40.531226737402065" lon="9.087353172420704"><ele>841.6</ele><time>2026-03-27T13:19:18.998Z</time></trkpt><trkpt lat="40.531290958779906" lon="9.08743283100852"><ele>841.8</ele><time>2026-03-27T13:19:19.998Z</time></trkpt><trkpt lat="40.531372847903576" lon="9.087525817733063"><ele>842.0</ele><time>2026-03-27T13:19:20.998Z</time></trkpt><trkpt lat="40.531451930816644" lon="9.087634649106855"><ele>845.0</ele><time>2026-03-27T13:19:21.998Z</time></trkpt><trkpt lat="40.53151122330295" lon="9.087761130374709"><ele>848.0</ele><time>2026-03-27T13:19:22.998Z</time></trkpt><trkpt lat="40.53156239460897" lon="9.087900098009335"><ele>851.0</ele><time>2026-03-27T13:19:23.998Z</time></trkpt><trkpt lat="40.53161626729404" lon="9.088058396941413"><ele>854.0</ele><time>2026-03-27T13:19:25Z</time></trkpt><trkpt lat="40.53168713900872" lon="9.088228513711313"><ele>854.25</ele><time>2026-03-27T13:19:26Z</time></trkpt><trkpt lat="40.53176265782961" lon="9.088396343873407"><ele>854.5</ele><time>2026-03-27T13:19:27Z</time></trkpt><trkpt lat="40.53183128258107" lon="9.08855169689202"><ele>854.75</ele><time>2026-03-27T13:19:28Z</time></trkpt><trkpt lat="40.531885881232824" lon="9.08869410975113"><ele>855.0</ele><time>2026-03-27T13:19:29Z</time></trkpt><trkpt lat="40.531931583122116" lon="9.088818367200687"><ele>855.0</ele><time>2026-03-27T13:19:30Z</time></trkpt><trkpt lat="40.53197624246474" lon="9.08892909611937"><ele>855.0</ele><time>2026-03-27T13:19:31Z</time></trkpt><trkpt lat="40.53201493276241" lon="9.089019860243367"><ele>855.0</ele><time>2026-03-27T13:19:32Z</time></trkpt><trkpt lat="40.532057960288704" lon="9.089086180759134"><ele>855.0</ele><time>2026-03-27T13:19:33Z</time></trkpt><trkpt lat="40.53210979738243" lon="9.089188693867507"><ele>855.0</ele><time>2026-03-27T13:19:35Z</time></trkpt><trkpt lat="40.53215209484596" lon="9.089254092681026"><ele>855.0</ele><time>2026-03-27T13:19:37Z</time></trkpt><trkpt lat="40.53218895784672" lon="9.089325311912136"><ele>858.2</ele><time>2026-03-27T13:19:39Z</time></trkpt><trkpt lat="40.5322345205499" lon="9.089384913694078"><ele>861.4</ele><time>2026-03-27T13:19:41Z</time></trkpt><trkpt lat="40.53230516585015" lon="9.089517935798343"><ele>864.5999999999999</ele><time>2026-03-27T13:19:43Z</time></trkpt><trkpt lat="40.53233609353411" lon="9.08961474205447"><ele>867.8</ele><time>2026-03-27T13:19:44Z</time></trkpt><trkpt lat="40.53237272528214" lon="9.089731901098524"><ele>871.0</ele><time>2026-03-27T13:19:45Z</time></trkpt><trkpt lat="40.53240867424024" lon="9.089845908916516"><ele>869.6666666666666</ele><time>2026-03-27T13:19:45.999Z</time></trkpt><trkpt lat="40.53244016815382" lon="9.089943206656931"><ele>868.3333333333333</ele><time>2026-03-27T13:19:46.999Z</time></trkpt><trkpt lat="40.532466394179465" lon="9.09003534406263"><ele>867.0</ele><time>2026-03-27T13:19:47.999Z</time></trkpt><trkpt lat="40.53247615078004" lon="9.090120417479934"><ele>865.6666666666667</ele><time>2026-03-27T13:19:48.999Z</time></trkpt><trkpt lat="40.53247113907345" lon="9.090223747348958"><ele>864.3333333333334</ele><time>2026-03-27T13:19:49.999Z</time></trkpt><trkpt lat="40.53245387977233" lon="9.090343440961425"><ele>863.0</ele><time>2026-03-27T13:19:50.999Z</time></trkpt><trkpt lat="40.532425192839014" lon="9.090464621885701"><ele>863.0</ele><time>2026-03-27T13:19:51.999Z</time></trkpt><trkpt lat="40.532383951266006" lon="9.090591518648859"><ele>863.0</ele><time>2026-03-27T13:19:52.999Z</time></trkpt><trkpt lat="40.53233472891914" lon="9.090706509027628"><ele>863.0</ele><time>2026-03-27T13:19:53.999Z</time></trkpt><trkpt lat="40.532289404751566" lon="9.09079917251562"><ele>863.0</ele><time>2026-03-27T13:19:54.999Z</time></trkpt><trkpt lat="40.532259142516864" lon="9.090900299806748"><ele>863.0</ele><time>2026-03-27T13:19:55.999Z</time></trkpt><trkpt lat="40.53223080133837" lon="9.0910078556699"><ele>862.5000000000001</ele><time>2026-03-27T13:19:56.999Z</time></trkpt><trkpt lat="40.53221681931421" lon="9.091119985941136"><ele>862.0</ele><time>2026-03-27T13:19:57.999Z</time></trkpt><trkpt lat="40.53220936987654" lon="9.091229816057892"><ele>861.5</ele><time>2026-03-27T13:19:58.999Z</time></trkpt><trkpt lat="40.532192794724324" lon="9.091322108789337"><ele>861.0</ele><time>2026-03-27T13:19:59.999Z</time></trkpt><trkpt lat="40.53216773231508" lon="9.091416697273242"><ele>860.5000000000001</ele><time>2026-03-27T13:20:00.999Z</time></trkpt><trkpt lat="40.53213625388358" lon="9.091517192195942"><ele>860.0</ele><time>2026-03-27T13:20:01.999Z</time></trkpt><trkpt lat="40.532093195532596" lon="9.091636146168836"><ele>861.6666666666667</ele><time>2026-03-27T13:20:02.999Z</time></trkpt><trkpt lat="40.53205893648113" lon="9.091738657873705"><ele>863.3333333333334</ele><time>2026-03-27T13:20:03.999Z</time></trkpt><trkpt lat="40.53203769210239" lon="9.091827729080936"><ele>865.0</ele><time>2026-03-27T13:20:04.999Z</time></trkpt><trkpt lat="40.53202342608547" lon="9.091930448554542"><ele>866.6666666666667</ele><time>2026-03-27T13:20:05.999Z</time></trkpt><trkpt lat="40.53201987647397" lon="9.092042618714109"><ele>868.3333333333334</ele><time>2026-03-27T13:20:06.999Z</time></trkpt><trkpt lat="40.532019863245615" lon="9.09215542267375"><ele>870.0</ele><time>2026-03-27T13:20:07.999Z</time></trkpt><trkpt lat="40.53201386999064" lon="9.092246907741174"><ele>871.5</ele><time>2026-03-27T13:20:08.999Z</time></trkpt><trkpt lat="40.53199743148227" lon="9.092354271929404"><ele>873.0</ele><time>2026-03-27T13:20:09.999Z</time></trkpt><trkpt lat="40.53196738901683" lon="9.09247438815643"><ele>874.5</ele><time>2026-03-27T13:20:10.999Z</time></trkpt><trkpt lat="40.5319369049165" lon="9.09259894536067"><ele>876.0</ele><time>2026-03-27T13:20:11.999Z</time></trkpt><trkpt lat="40.53189398483216" lon="9.092698216181727"><ele>877.5</ele><time>2026-03-27T13:20:12.999Z</time></trkpt><trkpt lat="40.531848981450906" lon="9.092778018422276"><ele>879.0</ele><time>2026-03-27T13:20:13.999Z</time></trkpt><trkpt lat="40.5318207685808" lon="9.092863064403927"><ele>879.3333333333334</ele><time>2026-03-27T13:20:14.999Z</time></trkpt><trkpt lat="40.53180608946825" lon="9.092959471502184"><ele>879.6666666666667</ele><time>2026-03-27T13:20:15.999Z</time></trkpt><trkpt lat="40.53180513342826" lon="9.093065179850505"><ele>880.0</ele><time>2026-03-27T13:20:16.999Z</time></trkpt><trkpt lat="40.53180306042184" lon="9.093151869660199"><ele>880.3333333333334</ele><time>2026-03-27T13:20:17.999Z</time></trkpt><trkpt lat="40.531786623158375" lon="9.093239349273112"><ele>880.6666666666667</ele><time>2026-03-27T13:20:18.999Z</time></trkpt><trkpt lat="40.53176033851251" lon="9.093336371348578"><ele>881.0</ele><time>2026-03-27T13:20:19.999Z</time></trkpt><trkpt lat="40.53172740634792" lon="9.093436974193905"><ele>882.0</ele><time>2026-03-27T13:20:20.999Z</time></trkpt><trkpt lat="40.531699897009695" lon="9.093537035887232"><ele>883.0</ele><time>2026-03-27T13:20:21.999Z</time></trkpt><trkpt lat="40.531682567232" lon="9.093634780713867"><ele>884.0</ele><time>2026-03-27T13:20:22.999Z</time></trkpt><trkpt lat="40.53166933717283" lon="9.093718769732122"><ele>885.0</ele><time>2026-03-27T13:20:23.999Z</time></trkpt><trkpt lat="40.5316542495542" lon="9.09380856964319"><ele>886.0</ele><time>2026-03-27T13:20:24.999Z</time></trkpt><trkpt lat="40.53163767531296" lon="9.09389800645616"><ele>887.0</ele><time>2026-03-27T13:20:25.999Z</time></trkpt><trkpt lat="40.53161415715646" lon="9.093982264582039"><ele>888.0</ele><time>2026-03-27T13:20:26.999Z</time></trkpt><trkpt lat="40.531586744114236" lon="9.094060345503932"><ele>890.1666666666666</ele><time>2026-03-27T13:20:27.999Z</time></trkpt><trkpt lat="40.53156137543759" lon="9.094154037379841"><ele>892.3333333333333</ele><time>2026-03-27T13:20:28.999Z</time></trkpt><trkpt lat="40.53154924127273" lon="9.094267294622165"><ele>894.5</ele><time>2026-03-27T13:20:29.999Z</time></trkpt><trkpt lat="40.53153824859842" lon="9.094382339082987"><ele>896.6666666666666</ele><time>2026-03-27T13:20:30.999Z</time></trkpt><trkpt lat="40.53152269455668" lon="9.094500381165114"><ele>898.8333333333333</ele><time>2026-03-27T13:20:31.999Z</time></trkpt><trkpt lat="40.53150256444329" lon="9.09461886636738"><ele>901.0</ele><time>2026-03-27T13:20:32.999Z</time></trkpt><trkpt lat="40.53148081704149" lon="9.094747101084463"><ele>901.0</ele><time>2026-03-27T13:20:33.999Z</time></trkpt><trkpt lat="40.53145629165605" lon="9.094873262305928"><ele>900.9999999999999</ele><time>2026-03-27T13:20:34.999Z</time></trkpt><trkpt lat="40.53142496873357" lon="9.094982260964523"><ele>900.9999999999999</ele><time>2026-03-27T13:20:35.999Z</time></trkpt><trkpt lat="40.531374049229925" lon="9.095107881083868"><ele>901.0</ele><time>2026-03-27T13:20:36.999Z</time></trkpt><trkpt lat="40.53132438349786" lon="9.095221472733185"><ele>901.0</ele><time>2026-03-27T13:20:37.999Z</time></trkpt><trkpt lat="40.53128800691515" lon="9.095330010736607"><ele>902.8</ele><time>2026-03-27T13:20:38.999Z</time></trkpt><trkpt lat="40.53125778472431" lon="9.095440461166083"><ele>904.5999999999999</ele><time>2026-03-27T13:20:39.999Z</time></trkpt><trkpt lat="40.53123374033572" lon="9.095568118554548"><ele>906.4</ele><time>2026-03-27T13:20:40.998Z</time></trkpt><trkpt lat="40.531217692852536" lon="9.095693308786606"><ele>908.2</ele><time>2026-03-27T13:20:41.998Z</time></trkpt><trkpt lat="40.53121170296102" lon="9.095806171443044"><ele>910.0</ele><time>2026-03-27T13:20:42.998Z</time></trkpt><trkpt lat="40.53120358387613" lon="9.095928883545913"><ele>912.4</ele><time>2026-03-27T13:20:43.998Z</time></trkpt><trkpt lat="40.531191009750756" lon="9.096054072483605"><ele>914.8</ele><time>2026-03-27T13:20:44.998Z</time></trkpt><trkpt lat="40.53117444320485" lon="9.096170560939417"><ele>917.2</ele><time>2026-03-27T13:20:45.998Z</time></trkpt><trkpt lat="40.531156701839244" lon="9.096291652698474"><ele>919.6</ele><time>2026-03-27T13:20:46.998Z</time></trkpt><trkpt lat="40.531144257960435" lon="9.096411682950057"><ele>922.0</ele><time>2026-03-27T13:20:47.998Z</time></trkpt><trkpt lat="40.53112318832328" lon="9.096528343856335"><ele>923.1666666666666</ele><time>2026-03-27T13:20:48.998Z</time></trkpt><trkpt lat="40.53109949081432" lon="9.096621183790267"><ele>924.3333333333333</ele><time>2026-03-27T13:20:49.998Z</time></trkpt><trkpt lat="40.531078180865556" lon="9.096742264425819"><ele>925.5</ele><time>2026-03-27T13:20:51.998Z</time></trkpt><trkpt lat="40.531089621604636" lon="9.096876309586289"><ele>926.6666666666667</ele><time>2026-03-27T13:20:53.998Z</time></trkpt><trkpt lat="40.53109625659082" lon="9.096972157170628"><ele>927.8333333333334</ele><time>2026-03-27T13:20:54.998Z</time></trkpt><trkpt lat="40.53110540670841" lon="9.0970678656417"><ele>929.0</ele><time>2026-03-27T13:20:55.998Z</time></trkpt><trkpt lat="40.53114561335509" lon="9.09716553196864"><ele>929.0</ele><time>2026-03-27T13:20:57.998Z</time></trkpt><trkpt lat="40.53121629377608" lon="9.097222397795527"><ele>929.0</ele><time>2026-03-27T13:20:59.998Z</time></trkpt><trkpt lat="40.53130632149828" lon="9.097276085781719"><ele>929.0</ele><time>2026-03-27T13:21:01.998Z</time></trkpt><trkpt lat="40.5314328658629" lon="9.097269514893958"><ele>929.0</ele><time>2026-03-27T13:21:03.998Z</time></trkpt><trkpt lat="40.531556146450306" lon="9.097526069798006"><ele>929.4000000000001</ele><time>2026-03-27T13:21:04.998Z</time></trkpt><trkpt lat="40.53164592059468" lon="9.097496657094892"><ele>929.8000000000001</ele><time>2026-03-27T13:21:05.998Z</time></trkpt><trkpt lat="40.53175590919243" lon="9.097445481316598"><ele>930.1999999999999</ele><time>2026-03-27T13:21:06.998Z</time></trkpt><trkpt lat="40.53185444622393" lon="9.097379449609589"><ele>930.5999999999999</ele><time>2026-03-27T13:21:07.998Z</time></trkpt><trkpt lat="40.53192201542766" lon="9.097326607636107"><ele>931.0</ele><time>2026-03-27T13:21:08.998Z</time></trkpt><trkpt lat="40.532008413582375" lon="9.097240318855516"><ele>931.8</ele><time>2026-03-27T13:21:09.998Z</time></trkpt><trkpt lat="40.53209530877234" lon="9.09713327164865"><ele>932.5999999999999</ele><time>2026-03-27T13:21:10.998Z</time></trkpt><trkpt lat="40.53215161633626" lon="9.097053093579843"><ele>933.4</ele><time>2026-03-27T13:21:11.998Z</time></trkpt><trkpt lat="40.532208161979696" lon="9.096961822033144"><ele>934.2</ele><time>2026-03-27T13:21:12.998Z</time></trkpt><trkpt lat="40.53226040170792" lon="9.096860871837912"><ele>935.0</ele><time>2026-03-27T13:21:13.998Z</time></trkpt><trkpt lat="40.53230695662506" lon="9.096757340597978"><ele>935.0</ele><time>2026-03-27T13:21:14.998Z</time></trkpt><trkpt lat="40.532347855447384" lon="9.096647349820739"><ele>935.0</ele><time>2026-03-27T13:21:15.998Z</time></trkpt><trkpt lat="40.53238466994622" lon="9.096547678302489"><ele>935.0</ele><time>2026-03-27T13:21:16.998Z</time></trkpt><trkpt lat="40.53242426443718" lon="9.096436339483688"><ele>935.0</ele><time>2026-03-27T13:21:17.998Z</time></trkpt><trkpt lat="40.53246552436237" lon="9.096328707413596"><ele>935.0</ele><time>2026-03-27T13:21:18.998Z</time></trkpt><trkpt lat="40.53251291265276" lon="9.096222169013284"><ele>933.5000000000001</ele><time>2026-03-27T13:21:19.998Z</time></trkpt><trkpt lat="40.532562648077985" lon="9.0961235655637"><ele>932.0</ele><time>2026-03-27T13:21:20.998Z</time></trkpt><trkpt lat="40.53261726389858" lon="9.0960262376018"><ele>930.5</ele><time>2026-03-27T13:21:21.998Z</time></trkpt><trkpt lat="40.53267809112849" lon="9.095933872035156"><ele>929.0</ele><time>2026-03-27T13:21:22.998Z</time></trkpt><trkpt lat="40.532729802890195" lon="9.09587092798468"><ele>927.5000000000001</ele><time>2026-03-27T13:21:23.998Z</time></trkpt><trkpt lat="40.53279912461383" lon="9.095803247701774"><ele>926.0</ele><time>2026-03-27T13:21:24.998Z</time></trkpt><trkpt lat="40.532880649057816" lon="9.095731260659168"><ele>925.6666666666667</ele><time>2026-03-27T13:21:25.998Z</time></trkpt><trkpt lat="40.5329538226476" lon="9.095677030537678"><ele>925.3333333333334</ele><time>2026-03-27T13:21:26.998Z</time></trkpt><trkpt lat="40.53301234526212" lon="9.095639437699827"><ele>925.0</ele><time>2026-03-27T13:21:27.998Z</time></trkpt><trkpt lat="40.5330752641375" lon="9.0956069034706"><ele>924.6666666666667</ele><time>2026-03-27T13:21:28.998Z</time></trkpt><trkpt lat="40.533152631860105" lon="9.095576801123062"><ele>924.3333333333334</ele><time>2026-03-27T13:21:29.998Z</time></trkpt><trkpt lat="40.53324425429424" lon="9.095553998675326"><ele>924.0</ele><time>2026-03-27T13:21:31Z</time></trkpt><trkpt lat="40.5333299156598" lon="9.095548409566478"><ele>924.0</ele><time>2026-03-27T13:21:32Z</time></trkpt><trkpt lat="40.53342217477028" lon="9.095541953249764"><ele>924.0000000000001</ele><time>2026-03-27T13:21:33Z</time></trkpt><trkpt lat="40.533528547486206" lon="9.09553754692527"><ele>924.0000000000001</ele><time>2026-03-27T13:21:34Z</time></trkpt><trkpt lat="40.53364306059309" lon="9.09553310991577"><ele>924.0</ele><time>2026-03-27T13:21:35Z</time></trkpt><trkpt lat="40.53375831289055" lon="9.095528644234054"><ele>924.0</ele><time>2026-03-27T13:21:36Z</time></trkpt><trkpt lat="40.53387451591689" lon="9.095524141730209"><ele>924.4000000000001</ele><time>2026-03-27T13:21:37Z</time></trkpt><trkpt lat="40.53397199197421" lon="9.095520364828271"><ele>924.8000000000001</ele><time>2026-03-27T13:21:38Z</time></trkpt><trkpt lat="40.53408076975508" lon="9.095516150031331"><ele>925.1999999999999</ele><time>2026-03-27T13:21:39Z</time></trkpt><trkpt lat="40.53420308317553" lon="9.095511410770174"><ele>925.5999999999999</ele><time>2026-03-27T13:21:40Z</time></trkpt><trkpt lat="40.53432021479004" lon="9.095506872288798"><ele>926.0</ele><time>2026-03-27T13:21:41Z</time></trkpt><trkpt lat="40.53443149671488" lon="9.09550234545316"><ele>926.0</ele><time>2026-03-27T13:21:42Z</time></trkpt><trkpt lat="40.53455378010802" lon="9.095496729815416"><ele>926.0</ele><time>2026-03-27T13:21:43Z</time></trkpt><trkpt lat="40.534666596878516" lon="9.095491548918748"><ele>926.0</ele><time>2026-03-27T13:21:44Z</time></trkpt><trkpt lat="40.534791806800186" lon="9.09548370804313"><ele>926.0</ele><time>2026-03-27T13:21:45Z</time></trkpt><trkpt lat="40.5349168560312" lon="9.0954742267411"><ele>927.75</ele><time>2026-03-27T13:21:46Z</time></trkpt><trkpt lat="40.53506848484579" lon="9.095459530771272"><ele>929.5</ele><time>2026-03-27T13:21:47Z</time></trkpt><trkpt lat="40.53522090474627" lon="9.095440410457908"><ele>931.25</ele><time>2026-03-27T13:21:48Z</time></trkpt><trkpt lat="40.53536418082721" lon="9.095421164390293"><ele>933.0</ele><time>2026-03-27T13:21:49Z</time></trkpt><trkpt lat="40.53549639963643" lon="9.095403403673249"><ele>934.8333333333334</ele><time>2026-03-27T13:21:50Z</time></trkpt><trkpt lat="40.535596748918756" lon="9.095389923913695"><ele>936.6666666666667</ele><time>2026-03-27T13:21:50.999Z</time></trkpt><trkpt lat="40.53568964813005" lon="9.095376999244774"><ele>938.5</ele><time>2026-03-27T13:21:51.999Z</time></trkpt><trkpt lat="40.53578268746257" lon="9.095363988932629"><ele>940.3333333333334</ele><time>2026-03-27T13:21:52.999Z</time></trkpt><trkpt lat="40.53587015437512" lon="9.095351757846867"><ele>942.1666666666667</ele><time>2026-03-27T13:21:53.999Z</time></trkpt><trkpt lat="40.53593829614158" lon="9.095342229148999"><ele>944.0</ele><time>2026-03-27T13:21:54.999Z</time></trkpt><trkpt lat="40.535900617350016" lon="9.09522989122124"><ele>944.0000000000001</ele><time>2026-03-27T13:22:00.999Z</time></trkpt><trkpt lat="40.53583032141783" lon="9.095250420231872"><ele>944.0</ele><time>2026-03-27T13:22:21.999Z</time></trkpt><trkpt lat="40.53576969855157" lon="9.095299935952966"><ele>944.0</ele><time>2026-03-27T13:22:24.999Z</time></trkpt><trkpt lat="40.535828272218836" lon="9.095356733412938"><ele>944.0</ele><time>2026-03-27T13:24:38Z</time></trkpt><trkpt lat="40.53590568842476" lon="9.09533139407258"><ele>944.0000000000001</ele><time>2026-03-27T13:24:40Z</time></trkpt><trkpt lat="40.53600086208492" lon="9.095329171138427"><ele>944.0</ele><time>2026-03-27T13:24:42Z</time></trkpt><trkpt lat="40.53613043703077" lon="9.095316667424155"><ele>944.0</ele><time>2026-03-27T13:24:44Z</time></trkpt><trkpt lat="40.53620847994131" lon="9.095308147037885"><ele>944.0000000000001</ele><time>2026-03-27T13:24:45Z</time></trkpt><trkpt lat="40.53629381010714" lon="9.095294264452377"><ele>944.0000000000001</ele><time>2026-03-27T13:24:46Z</time></trkpt><trkpt lat="40.536391463854486" lon="9.095282099924924"><ele>944.0</ele><time>2026-03-27T13:24:47Z</time></trkpt><trkpt lat="40.53649588832583" lon="9.095274667440176"><ele>944.0</ele><time>2026-03-27T13:24:48Z</time></trkpt><trkpt lat="40.53660695188824" lon="9.09525698784981"><ele>945.0</ele><time>2026-03-27T13:24:49Z</time></trkpt><trkpt lat="40.53672134312657" lon="9.095241418082356"><ele>946.0</ele><time>2026-03-27T13:24:49.999Z</time></trkpt><trkpt lat="40.53684626917373" lon="9.095231852672587"><ele>947.0</ele><time>2026-03-27T13:24:50.999Z</time></trkpt><trkpt lat="40.53698564361454" lon="9.095227667967267"><ele>948.0</ele><time>2026-03-27T13:24:51.999Z</time></trkpt><trkpt lat="40.5371438164586" lon="9.095231374224987"><ele>945.3333333333333</ele><time>2026-03-27T13:24:52.999Z</time></trkpt><trkpt lat="40.53730564324604" lon="9.09523732640374"><ele>942.6666666666666</ele><time>2026-03-27T13:24:53.999Z</time></trkpt><trkpt lat="40.5374694773471" lon="9.09524505742575"><ele>940.0</ele><time>2026-03-27T13:24:54.999Z</time></trkpt><trkpt lat="40.53764129645114" lon="9.095250403522845"><ele>940.0</ele><time>2026-03-27T13:24:55.999Z</time></trkpt><trkpt lat="40.537820931528394" lon="9.095253815157342"><ele>940.0</ele><time>2026-03-27T13:24:56.999Z</time></trkpt><trkpt lat="40.5380071923213" lon="9.09525569321289"><ele>940.0</ele><time>2026-03-27T13:24:57.999Z</time></trkpt><trkpt lat="40.538200746771786" lon="9.095257723285636"><ele>937.6666666666666</ele><time>2026-03-27T13:24:58.999Z</time></trkpt><trkpt lat="40.53839052583122" lon="9.095263245962792"><ele>935.3333333333333</ele><time>2026-03-27T13:24:59.999Z</time></trkpt><trkpt lat="40.53858610864186" lon="9.09526862875882"><ele>933.0</ele><time>2026-03-27T13:25:00.999Z</time></trkpt><trkpt lat="40.538786259088894" lon="9.09527339167803"><ele>930.0</ele><time>2026-03-27T13:25:01.999Z</time></trkpt><trkpt lat="40.53899134260732" lon="9.095276550426666"><ele>927.0</ele><time>2026-03-27T13:25:02.999Z</time></trkpt><trkpt lat="40.539201013440895" lon="9.095281656288162"><ele>924.0</ele><time>2026-03-27T13:25:03.999Z</time></trkpt><trkpt lat="40.53941464338166" lon="9.09528516400867"><ele>923.3333333333333</ele><time>2026-03-27T13:25:04.999Z</time></trkpt><trkpt lat="40.539631038791704" lon="9.0952902402065"><ele>922.6666666666666</ele><time>2026-03-27T13:25:05.999Z</time></trkpt><trkpt lat="40.539848041827454" lon="9.095294520278765"><ele>922.0</ele><time>2026-03-27T13:25:06.999Z</time></trkpt><trkpt lat="40.540062013448946" lon="9.095299074412843"><ele>922.0</ele><time>2026-03-27T13:25:07.999Z</time></trkpt><trkpt lat="40.54027590416738" lon="9.095307086345212"><ele>922.0</ele><time>2026-03-27T13:25:08.999Z</time></trkpt><trkpt lat="40.54048982547526" lon="9.095311619083935"><ele>922.0</ele><time>2026-03-27T13:25:09.999Z</time></trkpt><trkpt lat="40.54070729088666" lon="9.095309671856194"><ele>921.3333333333333</ele><time>2026-03-27T13:25:10.999Z</time></trkpt><trkpt lat="40.54092502346644" lon="9.095311291633072"><ele>920.6666666666667</ele><time>2026-03-27T13:25:11.999Z</time></trkpt><trkpt lat="40.541143402700826" lon="9.095314581352266"><ele>920.0</ele><time>2026-03-27T13:25:12.999Z</time></trkpt><trkpt lat="40.541362096724065" lon="9.095321568037106"><ele>919.3333333333334</ele><time>2026-03-27T13:25:13.999Z</time></trkpt><trkpt lat="40.54157476143069" lon="9.095327243774872"><ele>918.6666666666667</ele><time>2026-03-27T13:25:14.999Z</time></trkpt><trkpt lat="40.541773782032294" lon="9.095329105835681"><ele>918.0</ele><time>2026-03-27T13:25:15.999Z</time></trkpt><trkpt lat="40.54196327785293" lon="9.095331850566224"><ele>917.3333333333333</ele><time>2026-03-27T13:25:16.999Z</time></trkpt><trkpt lat="40.54214820627491" lon="9.095339696464249"><ele>916.6666666666666</ele><time>2026-03-27T13:25:17.999Z</time></trkpt><trkpt lat="40.542333708518065" lon="9.095347478423871"><ele>916.0</ele><time>2026-03-27T13:25:18.999Z</time></trkpt><trkpt lat="40.54251935053389" lon="9.095348652685304"><ele>916.0</ele><time>2026-03-27T13:25:19.999Z</time></trkpt><trkpt lat="40.54270489050421" lon="9.095344480812814"><ele>916.0</ele><time>2026-03-27T13:25:20.999Z</time></trkpt><trkpt lat="40.54288531164569" lon="9.095345345559835"><ele>916.0</ele><time>2026-03-27T13:25:21.999Z</time></trkpt><trkpt lat="40.54306582067208" lon="9.095352556945642"><ele>915.6666666666666</ele><time>2026-03-27T13:25:22.999Z</time></trkpt><trkpt lat="40.54324056574102" lon="9.095359109391426"><ele>915.3333333333333</ele><time>2026-03-27T13:25:23.999Z</time></trkpt><trkpt lat="40.54340533302976" lon="9.095367458705171"><ele>915.0</ele><time>2026-03-27T13:25:24.999Z</time></trkpt><trkpt lat="40.54357143261941" lon="9.095371465660152"><ele>913.6666666666667</ele><time>2026-03-27T13:25:25.999Z</time></trkpt><trkpt lat="40.54374073509895" lon="9.09537164330627"><ele>912.3333333333334</ele><time>2026-03-27T13:25:26.999Z</time></trkpt><trkpt lat="40.5439135861343" lon="9.095371876795719"><ele>911.0</ele><time>2026-03-27T13:25:27.999Z</time></trkpt><trkpt lat="40.54408878380619" lon="9.095373949319207"><ele>911.0</ele><time>2026-03-27T13:25:28.999Z</time></trkpt><trkpt lat="40.544266502418125" lon="9.095378466986345"><ele>911.0</ele><time>2026-03-27T13:25:29.999Z</time></trkpt><trkpt lat="40.54444686387145" lon="9.095385894049853"><ele>911.0</ele><time>2026-03-27T13:25:30.999Z</time></trkpt><trkpt lat="40.544629492408035" lon="9.09539291651622"><ele>911.3333333333334</ele><time>2026-03-27T13:25:31.999Z</time></trkpt><trkpt lat="40.544815500074534" lon="9.095396912341233"><ele>911.6666666666667</ele><time>2026-03-27T13:25:32.999Z</time></trkpt><trkpt lat="40.545003931826464" lon="9.095399361298412"><ele>912.0</ele><time>2026-03-27T13:25:33.999Z</time></trkpt><trkpt lat="40.54519312170774" lon="9.095402725205263"><ele>913.6666666666667</ele><time>2026-03-27T13:25:34.999Z</time></trkpt><trkpt lat="40.54538452579721" lon="9.095410540325242"><ele>915.3333333333334</ele><time>2026-03-27T13:25:35.999Z</time></trkpt><trkpt lat="40.54557644463357" lon="9.095417773348617"><ele>917.0</ele><time>2026-03-27T13:25:36.999Z</time></trkpt><trkpt lat="40.54576890292502" lon="9.095421386140272"><ele>917.0</ele><time>2026-03-27T13:25:37.999Z</time></trkpt><trkpt lat="40.54596336892476" lon="9.095422819387984"><ele>917.0</ele><time>2026-03-27T13:25:38.999Z</time></trkpt><trkpt lat="40.546157506022034" lon="9.095429678828419"><ele>917.0</ele><time>2026-03-27T13:25:39.999Z</time></trkpt><trkpt lat="40.54634992351121" lon="9.095436159605805"><ele>918.3333333333334</ele><time>2026-03-27T13:25:40.999Z</time></trkpt><trkpt lat="40.54653875074856" lon="9.095441845477227"><ele>919.6666666666667</ele><time>2026-03-27T13:25:42.001Z</time></trkpt><trkpt lat="40.5467101132294" lon="9.095447153774701"><ele>921.0</ele><time>2026-03-27T13:25:43.001Z</time></trkpt><trkpt lat="40.546879558315396" lon="9.09544873530827"><ele>921.3333333333333</ele><time>2026-03-27T13:25:44.001Z</time></trkpt><trkpt lat="40.54705093703251" lon="9.095450164874006"><ele>921.6666666666666</ele><time>2026-03-27T13:25:45.001Z</time></trkpt><trkpt lat="40.547222277643904" lon="9.095452405014969"><ele>922.0</ele><time>2026-03-27T13:25:46.001Z</time></trkpt><trkpt lat="40.547394551528285" lon="9.095458316564908"><ele>922.0</ele><time>2026-03-27T13:25:47.001Z</time></trkpt><trkpt lat="40.54756957395393" lon="9.095466281505695"><ele>922.0</ele><time>2026-03-27T13:25:48.001Z</time></trkpt><trkpt lat="40.54774513828308" lon="9.095504064129422"><ele>922.0</ele><time>2026-03-27T13:25:49.001Z</time></trkpt><trkpt lat="40.54792475965212" lon="9.09544430004127"><ele>922.0</ele><time>2026-03-27T13:25:50.001Z</time></trkpt><trkpt lat="40.54810232095066" lon="9.095402950212403"><ele>922.0</ele><time>2026-03-27T13:25:51.001Z</time></trkpt><trkpt lat="40.54827649353377" lon="9.09533682584378"><ele>922.0</ele><time>2026-03-27T13:25:52.001Z</time></trkpt><trkpt lat="40.54844023591407" lon="9.095231455751033"><ele>922.0</ele><time>2026-03-27T13:25:53.001Z</time></trkpt><trkpt lat="40.54858442880712" lon="9.09511246191145"><ele>922.0</ele><time>2026-03-27T13:25:54.001Z</time></trkpt><trkpt lat="40.54872108962461" lon="9.094979976957307"><ele>922.0</ele><time>2026-03-27T13:25:55.001Z</time></trkpt><trkpt lat="40.548848465598425" lon="9.094824971824735"><ele>921.3333333333333</ele><time>2026-03-27T13:25:56.001Z</time></trkpt><trkpt lat="40.54896631503175" lon="9.094650645445055"><ele>920.6666666666667</ele><time>2026-03-27T13:25:57Z</time></trkpt><trkpt lat="40.54906997898248" lon="9.094459883496206"><ele>920.0</ele><time>2026-03-27T13:25:58Z</time></trkpt><trkpt lat="40.5491597627986" lon="9.094256041828986"><ele>918.3333333333334</ele><time>2026-03-27T13:25:59Z</time></trkpt><trkpt lat="40.54922940188542" lon="9.094034847611882"><ele>916.6666666666667</ele><time>2026-03-27T13:26:00Z</time></trkpt><trkpt lat="40.54927948739097" lon="9.093800491363707"><ele>915.0</ele><time>2026-03-27T13:26:01Z</time></trkpt><trkpt lat="40.54930903801469" lon="9.09355780060505"><ele>915.0</ele><time>2026-03-27T13:26:02Z</time></trkpt><trkpt lat="40.54931295559923" lon="9.093316233980985"><ele>915.0</ele><time>2026-03-27T13:26:03Z</time></trkpt><trkpt lat="40.54929701808934" lon="9.093091325959238"><ele>915.0</ele><time>2026-03-27T13:26:04Z</time></trkpt><trkpt lat="40.54927158875225" lon="9.09286633363359"><ele>911.6666666666667</ele><time>2026-03-27T13:26:05Z</time></trkpt><trkpt lat="40.54924371909548" lon="9.092633519484147"><ele>908.3333333333334</ele><time>2026-03-27T13:26:06Z</time></trkpt><trkpt lat="40.54921103543902" lon="9.09240459879526"><ele>905.0</ele><time>2026-03-27T13:26:07Z</time></trkpt><trkpt lat="40.54916743627338" lon="9.092188194952081"><ele>902.0</ele><time>2026-03-27T13:26:08Z</time></trkpt><trkpt lat="40.54911625705938" lon="9.09197793820217"><ele>899.0</ele><time>2026-03-27T13:26:09Z</time></trkpt><trkpt lat="40.54906339993543" lon="9.09176418243614"><ele>896.0</ele><time>2026-03-27T13:26:10Z</time></trkpt><trkpt lat="40.5490038111513" lon="9.091546421281791"><ele>892.6666666666667</ele><time>2026-03-27T13:26:11Z</time></trkpt><trkpt lat="40.548943319321005" lon="9.091338317678767"><ele>889.3333333333333</ele><time>2026-03-27T13:26:12Z</time></trkpt><trkpt lat="40.548882222628855" lon="9.091130546143367"><ele>886.0</ele><time>2026-03-27T13:26:13Z</time></trkpt><trkpt lat="40.54880419517345" lon="9.09092579839429"><ele>886.0</ele><time>2026-03-27T13:26:14Z</time></trkpt><trkpt lat="40.548708274682966" lon="9.090722342388567"><ele>886.0</ele><time>2026-03-27T13:26:15Z</time></trkpt><trkpt lat="40.54859606192397" lon="9.090524780606863"><ele>886.0</ele><time>2026-03-27T13:26:16Z</time></trkpt><trkpt lat="40.54848162479026" lon="9.090340889438748"><ele>886.0</ele><time>2026-03-27T13:26:17Z</time></trkpt><trkpt lat="40.548368927163295" lon="9.090157522635435"><ele>886.0</ele><time>2026-03-27T13:26:18Z</time></trkpt><trkpt lat="40.548256721974866" lon="9.089973192847099"><ele>886.0</ele><time>2026-03-27T13:26:19Z</time></trkpt><trkpt lat="40.54814611105283" lon="9.089786776020475"><ele>886.0</ele><time>2026-03-27T13:26:20Z</time></trkpt><trkpt lat="40.548037926184136" lon="9.089608519093394"><ele>886.0</ele><time>2026-03-27T13:26:21Z</time></trkpt><trkpt lat="40.5479347825286" lon="9.089427260327364"><ele>886.0</ele><time>2026-03-27T13:26:22Z</time></trkpt><trkpt lat="40.54783072827336" lon="9.089249255797444"><ele>882.6666666666666</ele><time>2026-03-27T13:26:23Z</time></trkpt><trkpt lat="40.54772411534673" lon="9.089075787135215"><ele>879.3333333333333</ele><time>2026-03-27T13:26:24Z</time></trkpt><trkpt lat="40.54761707139127" lon="9.088901672017325"><ele>876.0</ele><time>2026-03-27T13:26:25Z</time></trkpt><trkpt lat="40.54750866698947" lon="9.088723834123194"><ele>876.0</ele><time>2026-03-27T13:26:26Z</time></trkpt><trkpt lat="40.547395987214166" lon="9.088537279520446"><ele>876.0</ele><time>2026-03-27T13:26:27Z</time></trkpt><trkpt lat="40.547279305747075" lon="9.08834837734171"><ele>876.0</ele><time>2026-03-27T13:26:28Z</time></trkpt><trkpt lat="40.5471639939212" lon="9.088158282695836"><ele>873.3333333333333</ele><time>2026-03-27T13:26:29Z</time></trkpt><trkpt lat="40.54705191783663" lon="9.087966600226823"><ele>870.6666666666666</ele><time>2026-03-27T13:26:30Z</time></trkpt><trkpt lat="40.54694494241702" lon="9.08777620868476"><ele>868.0</ele><time>2026-03-27T13:26:31Z</time></trkpt><trkpt lat="40.54684188335008" lon="9.087583116390336"><ele>865.6666666666666</ele><time>2026-03-27T13:26:32Z</time></trkpt><trkpt lat="40.546748357700714" lon="9.087379636523483"><ele>863.3333333333333</ele><time>2026-03-27T13:26:33Z</time></trkpt><trkpt lat="40.546694655237594" lon="9.087156848878697"><ele>861.0</ele><time>2026-03-27T13:26:34Z</time></trkpt><trkpt lat="40.54665698578211" lon="9.086942282925953"><ele>861.0</ele><time>2026-03-27T13:26:35Z</time></trkpt><trkpt lat="40.54663043297169" lon="9.086727597972098"><ele>861.0</ele><time>2026-03-27T13:26:36Z</time></trkpt><trkpt lat="40.546618984741414" lon="9.086515593397246"><ele>861.0</ele><time>2026-03-27T13:26:37Z</time></trkpt><trkpt lat="40.546622102236114" lon="9.086307423340665"><ele>858.3333333333333</ele><time>2026-03-27T13:26:38Z</time></trkpt><trkpt lat="40.546657769195726" lon="9.086100077758706"><ele>855.6666666666666</ele><time>2026-03-27T13:26:39Z</time></trkpt><trkpt lat="40.54670474099611" lon="9.085886144442588"><ele>853.0</ele><time>2026-03-27T13:26:40Z</time></trkpt><trkpt lat="40.54676409585619" lon="9.085667343900079"><ele>851.0</ele><time>2026-03-27T13:26:41Z</time></trkpt><trkpt lat="40.546826270117606" lon="9.085440754282901"><ele>849.0</ele><time>2026-03-27T13:26:42Z</time></trkpt><trkpt lat="40.54691898062153" lon="9.08523821691615"><ele>847.0</ele><time>2026-03-27T13:26:43Z</time></trkpt><trkpt lat="40.547046451701924" lon="9.085085283223808"><ele>845.3333333333333</ele><time>2026-03-27T13:26:44Z</time></trkpt><trkpt lat="40.5471615570969" lon="9.084917925253084"><ele>843.6666666666667</ele><time>2026-03-27T13:26:45Z</time></trkpt><trkpt lat="40.547303037420576" lon="9.084784042673878"><ele>842.0</ele><time>2026-03-27T13:26:46Z</time></trkpt><trkpt lat="40.547458363328005" lon="9.084667862524732"><ele>842.0</ele><time>2026-03-27T13:26:47Z</time></trkpt><trkpt lat="40.54762617698911" lon="9.084571086161715"><ele>842.0</ele><time>2026-03-27T13:26:48Z</time></trkpt><trkpt lat="40.54780631273092" lon="9.084496754253848"><ele>842.0</ele><time>2026-03-27T13:26:49Z</time></trkpt><trkpt lat="40.54799304059249" lon="9.084446815932928"><ele>841.6666666666667</ele><time>2026-03-27T13:26:49.999Z</time></trkpt><trkpt lat="40.54818859513447" lon="9.084429855367864"><ele>841.3333333333333</ele><time>2026-03-27T13:26:50.999Z</time></trkpt><trkpt lat="40.548388012308116" lon="9.084452405899757"><ele>841.0</ele><time>2026-03-27T13:26:51.999Z</time></trkpt><trkpt lat="40.548587569109934" lon="9.084518458655438"><ele>841.0</ele><time>2026-03-27T13:26:52.999Z</time></trkpt><trkpt lat="40.548781478646994" lon="9.08461772746894"><ele>841.0</ele><time>2026-03-27T13:26:53.999Z</time></trkpt><trkpt lat="40.54896478227525" lon="9.084730671652018"><ele>841.0</ele><time>2026-03-27T13:26:54.999Z</time></trkpt><trkpt lat="40.54914293671279" lon="9.084846934284563"><ele>839.3333333333333</ele><time>2026-03-27T13:26:55.999Z</time></trkpt><trkpt lat="40.54931654365397" lon="9.08496050767951"><ele>837.6666666666667</ele><time>2026-03-27T13:26:56.999Z</time></trkpt><trkpt lat="40.5494837184782" lon="9.08507041392952"><ele>836.0</ele><time>2026-03-27T13:26:57.999Z</time></trkpt><trkpt lat="40.549647741939005" lon="9.085177750097998"><ele>834.0</ele><time>2026-03-27T13:26:58.999Z</time></trkpt><trkpt lat="40.5498132256467" lon="9.085283316038927"><ele>832.0</ele><time>2026-03-27T13:26:59.999Z</time></trkpt><trkpt lat="40.54997380029064" lon="9.085387410491032"><ele>830.0</ele><time>2026-03-27T13:27:00.999Z</time></trkpt><trkpt lat="40.55013028965217" lon="9.085490363026096"><ele>830.0</ele><time>2026-03-27T13:27:01.999Z</time></trkpt><trkpt lat="40.55028662280242" lon="9.085594448672635"><ele>830.0</ele><time>2026-03-27T13:27:02.999Z</time></trkpt><trkpt lat="40.55044411825163" lon="9.085699024852525"><ele>830.0</ele><time>2026-03-27T13:27:03.999Z</time></trkpt><trkpt lat="40.55060638081191" lon="9.08580305133032"><ele>825.0</ele><time>2026-03-27T13:27:04.999Z</time></trkpt><trkpt lat="40.55077144163989" lon="9.085909685509746"><ele>820.0</ele><time>2026-03-27T13:27:05.999Z</time></trkpt><trkpt lat="40.55093675589582" lon="9.086019581474638"><ele>815.0</ele><time>2026-03-27T13:27:06.999Z</time></trkpt><trkpt lat="40.55110715392318" lon="9.086133658980058"><ele>813.3333333333334</ele><time>2026-03-27T13:27:07.999Z</time></trkpt><trkpt lat="40.55128280814957" lon="9.086248592601839"><ele>811.6666666666667</ele><time>2026-03-27T13:27:08.999Z</time></trkpt><trkpt lat="40.55145667994685" lon="9.086357723411766"><ele>810.0</ele><time>2026-03-27T13:27:09.999Z</time></trkpt><trkpt lat="40.55162393241805" lon="9.086462709123825"><ele>810.0</ele><time>2026-03-27T13:27:10.999Z</time></trkpt><trkpt lat="40.55178536050885" lon="9.086571445345648"><ele>810.0</ele><time>2026-03-27T13:27:11.999Z</time></trkpt><trkpt lat="40.551944674507396" lon="9.086681791288587"><ele>810.0</ele><time>2026-03-27T13:27:12.999Z</time></trkpt><trkpt lat="40.552102085366705" lon="9.08680732474266"><ele>805.6666666666667</ele><time>2026-03-27T13:27:13.999Z</time></trkpt><trkpt lat="40.552257440672896" lon="9.086951382712565"><ele>801.3333333333334</ele><time>2026-03-27T13:27:14.999Z</time></trkpt><trkpt lat="40.55240918433639" lon="9.087109732933277"><ele>797.0</ele><time>2026-03-27T13:27:15.999Z</time></trkpt><trkpt lat="40.55256437017342" lon="9.087270380737213"><ele>797.0</ele><time>2026-03-27T13:27:16.999Z</time></trkpt><trkpt lat="40.55272390325149" lon="9.08742521790043"><ele>797.0</ele><time>2026-03-27T13:27:17.999Z</time></trkpt><trkpt lat="40.55288317096389" lon="9.08757985394788"><ele>797.0</ele><time>2026-03-27T13:27:18.999Z</time></trkpt><trkpt lat="40.55303750382153" lon="9.08773389639673"><ele>792.0</ele><time>2026-03-27T13:27:19.999Z</time></trkpt><trkpt lat="40.55318821486246" lon="9.087890015683573"><ele>787.0</ele><time>2026-03-27T13:27:20.999Z</time></trkpt><trkpt lat="40.55333386378425" lon="9.088055195381516"><ele>782.0</ele><time>2026-03-27T13:27:21.999Z</time></trkpt><trkpt lat="40.553472690425245" lon="9.088238623483003"><ele>786.0</ele><time>2026-03-27T13:27:22.999Z</time></trkpt><trkpt lat="40.553602196748606" lon="9.088425374312894"><ele>790.0</ele><time>2026-03-27T13:27:23.999Z</time></trkpt><trkpt lat="40.553728592508335" lon="9.088615819061872"><ele>794.0</ele><time>2026-03-27T13:27:24.999Z</time></trkpt><trkpt lat="40.55384772320948" lon="9.08880809808065"><ele>789.6666666666667</ele><time>2026-03-27T13:27:25.999Z</time></trkpt><trkpt lat="40.55397134736528" lon="9.088998092421432"><ele>785.3333333333333</ele><time>2026-03-27T13:27:26.999Z</time></trkpt><trkpt lat="40.55409766185372" lon="9.089185290189208"><ele>781.0</ele><time>2026-03-27T13:27:27.999Z</time></trkpt><trkpt lat="40.554223513037165" lon="9.089375266290848"><ele>781.0</ele><time>2026-03-27T13:27:28.999Z</time></trkpt><trkpt lat="40.5543454259618" lon="9.089573195882783"><ele>781.0</ele><time>2026-03-27T13:27:29.999Z</time></trkpt><trkpt lat="40.55446614805914" lon="9.089779245370359"><ele>781.0</ele><time>2026-03-27T13:27:30.999Z</time></trkpt><trkpt lat="40.554585330958126" lon="9.090000874223007"><ele>772.6666666666666</ele><time>2026-03-27T13:27:31.999Z</time></trkpt><trkpt lat="40.55470031847525" lon="9.090224683124411"><ele>764.3333333333333</ele><time>2026-03-27T13:27:32.999Z</time></trkpt><trkpt lat="40.5548174632665" lon="9.090451178667454"><ele>756.0</ele><time>2026-03-27T13:27:33.999Z</time></trkpt><trkpt lat="40.554932582254516" lon="9.090674404455962"><ele>759.6666666666666</ele><time>2026-03-27T13:27:34.999Z</time></trkpt><trkpt lat="40.555043598028504" lon="9.09089077002166"><ele>763.3333333333333</ele><time>2026-03-27T13:27:35.999Z</time></trkpt><trkpt lat="40.555150486707866" lon="9.091101813218046"><ele>767.0</ele><time>2026-03-27T13:27:36.999Z</time></trkpt><trkpt lat="40.55526036123731" lon="9.091313926191244"><ele>767.0</ele><time>2026-03-27T13:27:37.999Z</time></trkpt><trkpt lat="40.55536823802519" lon="9.091520800939682"><ele>767.0</ele><time>2026-03-27T13:27:38.999Z</time></trkpt><trkpt lat="40.555474933151636" lon="9.091721520015252"><ele>767.0</ele><time>2026-03-27T13:27:39.999Z</time></trkpt><trkpt lat="40.555573876409305" lon="9.091923253778912"><ele>760.6666666666666</ele><time>2026-03-27T13:27:40.999Z</time></trkpt><trkpt lat="40.55567330921864" lon="9.092113929738892"><ele>754.3333333333334</ele><time>2026-03-27T13:27:41.999Z</time></trkpt><trkpt lat="40.55579558693541" lon="9.092279425253825"><ele>748.0</ele><time>2026-03-27T13:27:42.999Z</time></trkpt><trkpt lat="40.555937366003064" lon="9.092411587941767"><ele>747.6666666666667</ele><time>2026-03-27T13:27:43.998Z</time></trkpt><trkpt lat="40.556098129798855" lon="9.092523329893785"><ele>747.3333333333334</ele><time>2026-03-27T13:27:44.998Z</time></trkpt><trkpt lat="40.55627585722974" lon="9.09260036195353"><ele>747.0</ele><time>2026-03-27T13:27:45.998Z</time></trkpt><trkpt lat="40.556461198997326" lon="9.092649027821754"><ele>747.0</ele><time>2026-03-27T13:27:47Z</time></trkpt><trkpt lat="40.55665665884776" lon="9.092676933212164"><ele>747.0</ele><time>2026-03-27T13:27:48Z</time></trkpt><trkpt lat="40.5568464984688" lon="9.092705822675102"><ele>747.0</ele><time>2026-03-27T13:27:49Z</time></trkpt><trkpt lat="40.55703608774867" lon="9.092736774710188"><ele>743.0</ele><time>2026-03-27T13:27:50Z</time></trkpt><trkpt lat="40.55722394390915" lon="9.09276760191442"><ele>739.0</ele><time>2026-03-27T13:27:51Z</time></trkpt><trkpt lat="40.557403689353286" lon="9.09280287175117"><ele>735.0</ele><time>2026-03-27T13:27:52Z</time></trkpt><trkpt lat="40.55757846858657" lon="9.09285390498462"><ele>735.0</ele><time>2026-03-27T13:27:53Z</time></trkpt><trkpt lat="40.557746646269784" lon="9.092942888127821"><ele>735.0</ele><time>2026-03-27T13:27:54Z</time></trkpt><trkpt lat="40.55789153260358" lon="9.093066778856118"><ele>735.0</ele><time>2026-03-27T13:27:55Z</time></trkpt><trkpt lat="40.558019273480085" lon="9.09320279001281"><ele>735.0</ele><time>2026-03-27T13:27:56Z</time></trkpt><trkpt lat="40.558155569673175" lon="9.093304775298568"><ele>735.0</ele><time>2026-03-27T13:27:57Z</time></trkpt><trkpt lat="40.558295070572406" lon="9.093354707443902"><ele>735.0</ele><time>2026-03-27T13:27:58Z</time></trkpt><trkpt lat="40.55842629527057" lon="9.093330279048624"><ele>735.0</ele><time>2026-03-27T13:27:59Z</time></trkpt><trkpt lat="40.558548045622686" lon="9.093281474365792"><ele>732.5</ele><time>2026-03-27T13:28:00Z</time></trkpt><trkpt lat="40.55862810135609" lon="9.093132036284166"><ele>730.0</ele><time>2026-03-27T13:28:01Z</time></trkpt><trkpt lat="40.55867415773768" lon="9.092971238089582"><ele>727.5</ele><time>2026-03-27T13:28:02Z</time></trkpt><trkpt lat="40.558680985850934" lon="9.092792951754355"><ele>725.0</ele><time>2026-03-27T13:28:03Z</time></trkpt><trkpt lat="40.5586403898602" lon="9.092634490148134"><ele>725.0</ele><time>2026-03-27T13:28:04Z</time></trkpt><trkpt lat="40.55857823158602" lon="9.092508953140387"><ele>725.0</ele><time>2026-03-27T13:28:05Z</time></trkpt><trkpt lat="40.5585149249939" lon="9.092373894466613"><ele>725.0</ele><time>2026-03-27T13:28:06Z</time></trkpt><trkpt lat="40.55844003583393" lon="9.09224306223787"><ele>725.0</ele><time>2026-03-27T13:28:07Z</time></trkpt><trkpt lat="40.55836062740395" lon="9.092100219598471"><ele>720.6666666666666</ele><time>2026-03-27T13:28:08Z</time></trkpt><trkpt lat="40.558273389178495" lon="9.091949003937128"><ele>716.3333333333334</ele><time>2026-03-27T13:28:09Z</time></trkpt><trkpt lat="40.55820956562798" lon="9.09176394813761"><ele>712.0</ele><time>2026-03-27T13:28:10Z</time></trkpt><trkpt lat="40.558154545539196" lon="9.091562466191123"><ele>708.3333333333334</ele><time>2026-03-27T13:28:11Z</time></trkpt><trkpt lat="40.55811476351274" lon="9.09134007518078"><ele>704.6666666666666</ele><time>2026-03-27T13:28:12Z</time></trkpt><trkpt lat="40.558090630843566" lon="9.091104125927856"><ele>701.0</ele><time>2026-03-27T13:28:13Z</time></trkpt><trkpt lat="40.558101244980236" lon="9.09087844069207"><ele>700.6666666666666</ele><time>2026-03-27T13:28:14Z</time></trkpt><trkpt lat="40.55813460535124" lon="9.090656132705545"><ele>700.3333333333334</ele><time>2026-03-27T13:28:15Z</time></trkpt><trkpt lat="40.55819843408478" lon="9.090436077659126"><ele>700.0</ele><time>2026-03-27T13:28:16Z</time></trkpt><trkpt lat="40.55828150837768" lon="9.090220481484321"><ele>700.0</ele><time>2026-03-27T13:28:17Z</time></trkpt><trkpt lat="40.55836707705704" lon="9.090008458454633"><ele>700.0</ele><time>2026-03-27T13:28:18Z</time></trkpt><trkpt lat="40.55847109956917" lon="9.089800481273192"><ele>700.0</ele><time>2026-03-27T13:28:19Z</time></trkpt><trkpt lat="40.558574449344775" lon="9.089590058354535"><ele>702.0</ele><time>2026-03-27T13:28:20Z</time></trkpt><trkpt lat="40.558676452669566" lon="9.08938146954345"><ele>704.0</ele><time>2026-03-27T13:28:21Z</time></trkpt><trkpt lat="40.558780262815354" lon="9.089169328881761"><ele>706.0</ele><time>2026-03-27T13:28:22Z</time></trkpt><trkpt lat="40.55889846900027" lon="9.088970381889398"><ele>701.3333333333334</ele><time>2026-03-27T13:28:23Z</time></trkpt><trkpt lat="40.55900985952845" lon="9.0887653515441"><ele>696.6666666666666</ele><time>2026-03-27T13:28:24Z</time></trkpt><trkpt lat="40.55912453367813" lon="9.088564265193678"><ele>692.0</ele><time>2026-03-27T13:28:25Z</time></trkpt><trkpt lat="40.5592283033294" lon="9.088353671433994"><ele>692.0</ele><time>2026-03-27T13:28:26Z</time></trkpt><trkpt lat="40.55934671766707" lon="9.08815935324496"><ele>692.0</ele><time>2026-03-27T13:28:27Z</time></trkpt><trkpt lat="40.55946007801723" lon="9.087963996196251"><ele>692.0</ele><time>2026-03-27T13:28:28Z</time></trkpt><trkpt lat="40.55957633516579" lon="9.08776733987769"><ele>688.0</ele><time>2026-03-27T13:28:29Z</time></trkpt><trkpt lat="40.559690481253725" lon="9.087571365427518"><ele>684.0</ele><time>2026-03-27T13:28:30Z</time></trkpt><trkpt lat="40.5598008965171" lon="9.087378398894693"><ele>680.0</ele><time>2026-03-27T13:28:31Z</time></trkpt><trkpt lat="40.55991467093854" lon="9.087185060694614"><ele>679.3333333333333</ele><time>2026-03-27T13:28:32Z</time></trkpt><trkpt lat="40.56002457373905" lon="9.086997414495142"><ele>678.6666666666666</ele><time>2026-03-27T13:28:33Z</time></trkpt><trkpt lat="40.560131614253905" lon="9.08681226255508"><ele>678.0</ele><time>2026-03-27T13:28:34Z</time></trkpt><trkpt lat="40.560241457818314" lon="9.086623089680248"><ele>678.3333333333334</ele><time>2026-03-27T13:28:35Z</time></trkpt><trkpt lat="40.560352234441154" lon="9.086432996273746"><ele>678.6666666666667</ele><time>2026-03-27T13:28:36Z</time></trkpt><trkpt lat="40.560463625355965" lon="9.086241983838237"><ele>679.0</ele><time>2026-03-27T13:28:37Z</time></trkpt><trkpt lat="40.56057701485744" lon="9.086048407227345"><ele>677.0</ele><time>2026-03-27T13:28:38Z</time></trkpt><trkpt lat="40.560693834373936" lon="9.085855984105475"><ele>675.0</ele><time>2026-03-27T13:28:39Z</time></trkpt><trkpt lat="40.56080890474654" lon="9.08566448108652"><ele>673.0</ele><time>2026-03-27T13:28:40Z</time></trkpt><trkpt lat="40.56091826552732" lon="9.085475783716692"><ele>673.0</ele><time>2026-03-27T13:28:41Z</time></trkpt><trkpt lat="40.56102103314225" lon="9.085296888847406"><ele>673.0</ele><time>2026-03-27T13:28:42Z</time></trkpt><trkpt lat="40.561119018570174" lon="9.08512914103975"><ele>673.0</ele><time>2026-03-27T13:28:43Z</time></trkpt><trkpt lat="40.56121089157616" lon="9.084970533964498"><ele>672.0</ele><time>2026-03-27T13:28:44Z</time></trkpt><trkpt lat="40.56130110474314" lon="9.084820579300315"><ele>671.0</ele><time>2026-03-27T13:28:45Z</time></trkpt><trkpt lat="40.56138442555171" lon="9.084675632636177"><ele>670.0</ele><time>2026-03-27T13:28:46Z</time></trkpt><trkpt lat="40.56146077939086" lon="9.084535008432134"><ele>669.0</ele><time>2026-03-27T13:28:47Z</time></trkpt><trkpt lat="40.56153573133" lon="9.084403559203638"><ele>669.0</ele><time>2026-03-27T13:28:48Z</time></trkpt><trkpt lat="40.56161216699684" lon="9.084280589917366"><ele>669.0</ele><time>2026-03-27T13:28:48.999Z</time></trkpt><trkpt lat="40.56167441323263" lon="9.084189504669302"><ele>669.0</ele><time>2026-03-27T13:28:49.999Z</time></trkpt><trkpt lat="40.561742003698754" lon="9.084147173378355"><ele>669.0</ele><time>2026-03-27T13:28:50.999Z</time></trkpt><trkpt lat="40.56179724244821" lon="9.084086637605303"><ele>669.0</ele><time>2026-03-27T13:28:52.999Z</time></trkpt><trkpt lat="40.56194490484203" lon="9.084246402122332"><ele>669.0</ele><time>2026-03-27T13:28:57.999Z</time></trkpt><trkpt lat="40.561962685621964" lon="9.084327584568344"><ele>669.0</ele><time>2026-03-27T13:28:58.999Z</time></trkpt><trkpt lat="40.561969277544634" lon="9.084422470064894"><ele>669.0</ele><time>2026-03-27T13:28:59.999Z</time></trkpt><trkpt lat="40.561992234416984" lon="9.084517841447237"><ele>669.0</ele><time>2026-03-27T13:29:00.999Z</time></trkpt><trkpt lat="40.56201674791869" lon="9.08462436109466"><ele>669.0</ele><time>2026-03-27T13:29:01.999Z</time></trkpt><trkpt lat="40.562048917002016" lon="9.084747426298867"><ele>669.0</ele><time>2026-03-27T13:29:02.999Z</time></trkpt><trkpt lat="40.562099216082395" lon="9.084884314687024"><ele>669.75</ele><time>2026-03-27T13:29:03.999Z</time></trkpt><trkpt lat="40.56216023533936" lon="9.085032693768198"><ele>670.5</ele><time>2026-03-27T13:29:04.999Z</time></trkpt><trkpt lat="40.56222235960432" lon="9.085182414823633"><ele>671.25</ele><time>2026-03-27T13:29:05.999Z</time></trkpt><trkpt lat="40.56228928589542" lon="9.08534497839436"><ele>672.0</ele><time>2026-03-27T13:29:06.999Z</time></trkpt><trkpt lat="40.562364944094725" lon="9.085514059157022"><ele>672.0</ele><time>2026-03-27T13:29:07.999Z</time></trkpt><trkpt lat="40.56244821193586" lon="9.085693030919007"><ele>672.0</ele><time>2026-03-27T13:29:08.999Z</time></trkpt><trkpt lat="40.56253014014947" lon="9.085874819732712"><ele>672.0</ele><time>2026-03-27T13:29:09.999Z</time></trkpt><trkpt lat="40.5626066538332" lon="9.086051747283015"><ele>669.6666666666666</ele><time>2026-03-27T13:29:10.999Z</time></trkpt><trkpt lat="40.562682724023404" lon="9.086234914517789"><ele>667.3333333333333</ele><time>2026-03-27T13:29:11.999Z</time></trkpt><trkpt lat="40.562759126645254" lon="9.086422024938848"><ele>665.0</ele><time>2026-03-27T13:29:12.999Z</time></trkpt><trkpt lat="40.562834220041644" lon="9.086605593909232"><ele>665.3333333333333</ele><time>2026-03-27T13:29:13.999Z</time></trkpt><trkpt lat="40.562910750399176" lon="9.08678896473784"><ele>665.6666666666666</ele><time>2026-03-27T13:29:14.999Z</time></trkpt><trkpt lat="40.56299264796977" lon="9.086977558134583"><ele>666.0</ele><time>2026-03-27T13:29:15.999Z</time></trkpt><trkpt lat="40.56307992388971" lon="9.087168807562385"><ele>666.0</ele><time>2026-03-27T13:29:16.999Z</time></trkpt><trkpt lat="40.56316763764963" lon="9.08736678807924"><ele>666.0</ele><time>2026-03-27T13:29:17.999Z</time></trkpt><trkpt lat="40.56325603285543" lon="9.087568806862835"><ele>666.0</ele><time>2026-03-27T13:29:18.999Z</time></trkpt><trkpt lat="40.56334178671883" lon="9.087770196060124"><ele>664.3333333333334</ele><time>2026-03-27T13:29:19.999Z</time></trkpt><trkpt lat="40.56342520083615" lon="9.087968254210075"><ele>662.6666666666667</ele><time>2026-03-27T13:29:20.999Z</time></trkpt><trkpt lat="40.56350989313526" lon="9.088165834925535"><ele>661.0</ele><time>2026-03-27T13:29:21.999Z</time></trkpt><trkpt lat="40.56359441140672" lon="9.08836328715246"><ele>660.6666666666667</ele><time>2026-03-27T13:29:22.999Z</time></trkpt><trkpt lat="40.56367873785617" lon="9.088557076563841"><ele>660.3333333333334</ele><time>2026-03-27T13:29:23.999Z</time></trkpt><trkpt lat="40.56376439334237" lon="9.08874954100532"><ele>660.0</ele><time>2026-03-27T13:29:24.999Z</time></trkpt><trkpt lat="40.56385803559087" lon="9.08894464065991"><ele>659.6666666666666</ele><time>2026-03-27T13:29:25.999Z</time></trkpt><trkpt lat="40.563964021888545" lon="9.089134709969477"><ele>659.3333333333333</ele><time>2026-03-27T13:29:26.999Z</time></trkpt><trkpt lat="40.56407612252373" lon="9.089323065138407"><ele>659.0</ele><time>2026-03-27T13:29:27.999Z</time></trkpt><trkpt lat="40.564189655736556" lon="9.089515296288257"><ele>659.0</ele><time>2026-03-27T13:29:28.999Z</time></trkpt><trkpt lat="40.56430317354697" lon="9.08971113438823"><ele>659.0</ele><time>2026-03-27T13:29:29.999Z</time></trkpt><trkpt lat="40.5644143177608" lon="9.08990538564261"><ele>659.0</ele><time>2026-03-27T13:29:30.999Z</time></trkpt><trkpt lat="40.56452406014061" lon="9.090096624447476"><ele>658.0</ele><time>2026-03-27T13:29:31.999Z</time></trkpt><trkpt lat="40.56463338384932" lon="9.090284472894368"><ele>657.0</ele><time>2026-03-27T13:29:32.999Z</time></trkpt><trkpt lat="40.564743083149736" lon="9.090471137668251"><ele>656.0</ele><time>2026-03-27T13:29:33.999Z</time></trkpt><trkpt lat="40.564854127456464" lon="9.090658073149234"><ele>654.6666666666666</ele><time>2026-03-27T13:29:34.999Z</time></trkpt><trkpt lat="40.56496319487559" lon="9.090848251157603"><ele>653.3333333333334</ele><time>2026-03-27T13:29:35.999Z</time></trkpt><trkpt lat="40.565055387488435" lon="9.091055705105843"><ele>652.0</ele><time>2026-03-27T13:29:36.999Z</time></trkpt><trkpt lat="40.56510978996331" lon="9.091287408939646"><ele>652.0</ele><time>2026-03-27T13:29:37.999Z</time></trkpt><trkpt lat="40.56514158708451" lon="9.091523699342142"><ele>652.0</ele><time>2026-03-27T13:29:38.999Z</time></trkpt><trkpt lat="40.56517520305471" lon="9.091760115919572"><ele>652.0</ele><time>2026-03-27T13:29:39.999Z</time></trkpt><trkpt lat="40.565206898035285" lon="9.091996222822246"><ele>651.6666666666667</ele><time>2026-03-27T13:29:40.999Z</time></trkpt><trkpt lat="40.56523641613373" lon="9.09223042004695"><ele>651.3333333333334</ele><time>2026-03-27T13:29:41.998Z</time></trkpt><trkpt lat="40.56526908000119" lon="9.092464231452551"><ele>651.0</ele><time>2026-03-27T13:29:42.998Z</time></trkpt><trkpt lat="40.565302448384905" lon="9.092698569778378"><ele>651.6666666666666</ele><time>2026-03-27T13:29:43.998Z</time></trkpt><trkpt lat="40.565333385878574" lon="9.092932715031543"><ele>652.3333333333333</ele><time>2026-03-27T13:29:44.998Z</time></trkpt><trkpt lat="40.565365286214394" lon="9.09316850109157"><ele>653.0</ele><time>2026-03-27T13:29:45.998Z</time></trkpt><trkpt lat="40.565407241373265" lon="9.093401840577311"><ele>651.3333333333333</ele><time>2026-03-27T13:29:46.998Z</time></trkpt><trkpt lat="40.565463748051485" lon="9.09362978417911"><ele>649.6666666666666</ele><time>2026-03-27T13:29:47.998Z</time></trkpt><trkpt lat="40.56553099972092" lon="9.093855665070333"><ele>648.0</ele><time>2026-03-27T13:29:48.998Z</time></trkpt><trkpt lat="40.56560111083784" lon="9.094079434190975"><ele>646.3333333333334</ele><time>2026-03-27T13:29:49.998Z</time></trkpt><trkpt lat="40.56567063567604" lon="9.094306529348946"><ele>644.6666666666667</ele><time>2026-03-27T13:29:50.998Z</time></trkpt><trkpt lat="40.56574033791307" lon="9.094537602692457"><ele>643.0</ele><time>2026-03-27T13:29:51.998Z</time></trkpt><trkpt lat="40.565807792835635" lon="9.094768340989106"><ele>642.0</ele><time>2026-03-27T13:29:53Z</time></trkpt><trkpt lat="40.565877715117395" lon="9.094997724882159"><ele>641.0</ele><time>2026-03-27T13:29:54Z</time></trkpt><trkpt lat="40.56594385692389" lon="9.095224759182306"><ele>640.0</ele><time>2026-03-27T13:29:55Z</time></trkpt><trkpt lat="40.56600370070701" lon="9.095450690494879"><ele>640.0</ele><time>2026-03-27T13:29:56Z</time></trkpt><trkpt lat="40.5660461466938" lon="9.095686059940736"><ele>640.0</ele><time>2026-03-27T13:29:57Z</time></trkpt><trkpt lat="40.566067177650076" lon="9.095929097142594"><ele>640.0</ele><time>2026-03-27T13:29:58Z</time></trkpt><trkpt lat="40.56608182527615" lon="9.09617694471858"><ele>640.3333333333334</ele><time>2026-03-27T13:29:59Z</time></trkpt><trkpt lat="40.56609377854903" lon="9.096407040671682"><ele>640.6666666666666</ele><time>2026-03-27T13:30:00Z</time></trkpt><trkpt lat="40.566109955282265" lon="9.096607146362683"><ele>641.0</ele><time>2026-03-27T13:30:01Z</time></trkpt><trkpt lat="40.566120492413056" lon="9.096782167537835"><ele>641.0</ele><time>2026-03-27T13:30:02Z</time></trkpt><trkpt lat="40.566125897741415" lon="9.096928545709947"><ele>641.0</ele><time>2026-03-27T13:30:03Z</time></trkpt><trkpt lat="40.56613510785479" lon="9.09705894319308"><ele>641.0</ele><time>2026-03-27T13:30:04Z</time></trkpt><trkpt lat="40.56614213958263" lon="9.097173212979785"><ele>641.0</ele><time>2026-03-27T13:30:05Z</time></trkpt><trkpt lat="40.56616326437206" lon="9.097265178921463"><ele>641.0</ele><time>2026-03-27T13:30:06Z</time></trkpt><trkpt lat="40.56627573327288" lon="9.097376428455135"><ele>641.0</ele><time>2026-03-27T13:30:08Z</time></trkpt><trkpt lat="40.56636185015561" lon="9.0974082933391"><ele>641.0</ele><time>2026-03-27T13:30:09Z</time></trkpt><trkpt lat="40.56645198346413" lon="9.097466278179297"><ele>641.0</ele><time>2026-03-27T13:30:10Z</time></trkpt><trkpt lat="40.566553626992885" lon="9.097567062490299"><ele>641.0</ele><time>2026-03-27T13:30:11Z</time></trkpt><trkpt lat="40.56665386370154" lon="9.097688391620824"><ele>641.0</ele><time>2026-03-27T13:30:12Z</time></trkpt><trkpt lat="40.5667675059168" lon="9.097809468135148"><ele>641.0</ele><time>2026-03-27T13:30:13Z</time></trkpt><trkpt lat="40.56690654780721" lon="9.09792031454561"><ele>641.0</ele><time>2026-03-27T13:30:14Z</time></trkpt><trkpt lat="40.56705563455037" lon="9.098023963449833"><ele>642.5</ele><time>2026-03-27T13:30:15Z</time></trkpt><trkpt lat="40.567198898997276" lon="9.098121794541626"><ele>644.0</ele><time>2026-03-27T13:30:16Z</time></trkpt><trkpt lat="40.56732324584978" lon="9.098218594311797"><ele>645.5</ele><time>2026-03-27T13:30:17Z</time></trkpt><trkpt lat="40.56743408636359" lon="9.0983179786292"><ele>647.0</ele><time>2026-03-27T13:30:18Z</time></trkpt><trkpt lat="40.56753322781996" lon="9.098415725253641"><ele>647.0</ele><time>2026-03-27T13:30:19Z</time></trkpt><trkpt lat="40.567631245467375" lon="9.098505289528042"><ele>647.0</ele><time>2026-03-27T13:30:20Z</time></trkpt><trkpt lat="40.56773171585158" lon="9.098588386804767"><ele>647.0</ele><time>2026-03-27T13:30:21Z</time></trkpt><trkpt lat="40.567825158682716" lon="9.098645894664545"><ele>647.0</ele><time>2026-03-27T13:30:22Z</time></trkpt><trkpt lat="40.56791693655644" lon="9.098671366382561"><ele>647.0</ele><time>2026-03-27T13:30:23Z</time></trkpt><trkpt lat="40.56801880989632" lon="9.098672086517826"><ele>649.0</ele><time>2026-03-27T13:30:24Z</time></trkpt><trkpt lat="40.568129367012226" lon="9.098661626685491"><ele>651.0</ele><time>2026-03-27T13:30:25Z</time></trkpt><trkpt lat="40.56824627856949" lon="9.098670529104785"><ele>653.0</ele><time>2026-03-27T13:30:26Z</time></trkpt><trkpt lat="40.568372550015006" lon="9.09870013418708"><ele>655.0</ele><time>2026-03-27T13:30:27Z</time></trkpt><trkpt lat="40.5685030869909" lon="9.098743926189467"><ele>655.0</ele><time>2026-03-27T13:30:28Z</time></trkpt><trkpt lat="40.56863802973628" lon="9.098784307400122"><ele>655.0</ele><time>2026-03-27T13:30:29Z</time></trkpt><trkpt lat="40.568773709548616" lon="9.09880916865219"><ele>655.0</ele><time>2026-03-27T13:30:30Z</time></trkpt><trkpt lat="40.56890983773589" lon="9.09882357107433"><ele>655.0</ele><time>2026-03-27T13:30:31Z</time></trkpt><trkpt lat="40.56904754924164" lon="9.09882598569187"><ele>655.75</ele><time>2026-03-27T13:30:32Z</time></trkpt><trkpt lat="40.56918129955913" lon="9.098819373038001"><ele>656.5</ele><time>2026-03-27T13:30:33Z</time></trkpt><trkpt lat="40.56930733771817" lon="9.098805869972574"><ele>657.25</ele><time>2026-03-27T13:30:34Z</time></trkpt><trkpt lat="40.56943243482729" lon="9.098785661760866"><ele>658.0</ele><time>2026-03-27T13:30:35Z</time></trkpt><trkpt lat="40.56955738507615" lon="9.098771116900126"><ele>660.25</ele><time>2026-03-27T13:30:36Z</time></trkpt><trkpt lat="40.569682909621" lon="9.098767266224995"><ele>662.5</ele><time>2026-03-27T13:30:37Z</time></trkpt><trkpt lat="40.569810403584945" lon="9.098765411458649"><ele>664.75</ele><time>2026-03-27T13:30:38Z</time></trkpt><trkpt lat="40.56993816588441" lon="9.098763710280881"><ele>667.0</ele><time>2026-03-27T13:30:39Z</time></trkpt><trkpt lat="40.57006651221661" lon="9.098758855775234"><ele>667.0</ele><time>2026-03-27T13:30:40Z</time></trkpt><trkpt lat="40.570195698870776" lon="9.098753064521192"><ele>667.0</ele><time>2026-03-27T13:30:41Z</time></trkpt><trkpt lat="40.570316652705614" lon="9.098692281396211"><ele>667.0</ele><time>2026-03-27T13:30:42Z</time></trkpt><trkpt lat="40.57043638118161" lon="9.098674537619136"><ele>667.0</ele><time>2026-03-27T13:30:43Z</time></trkpt><trkpt lat="40.570554047724016" lon="9.098688659444264"><ele>670.0</ele><time>2026-03-27T13:30:44Z</time></trkpt><trkpt lat="40.57067211363997" lon="9.098725501608127"><ele>673.0</ele><time>2026-03-27T13:30:45Z</time></trkpt><trkpt lat="40.57079119917865" lon="9.09878675888914"><ele>676.0</ele><time>2026-03-27T13:30:46Z</time></trkpt><trkpt lat="40.57090946970744" lon="9.098867442629416"><ele>679.0</ele><time>2026-03-27T13:30:47Z</time></trkpt><trkpt lat="40.57102860047322" lon="9.098966087801"><ele>679.0</ele><time>2026-03-27T13:30:47.999Z</time></trkpt><trkpt lat="40.5711354815024" lon="9.099078380074188"><ele>679.0</ele><time>2026-03-27T13:30:48.999Z</time></trkpt><trkpt lat="40.57122644604839" lon="9.0991779667974"><ele>679.0</ele><time>2026-03-27T13:30:49.999Z</time></trkpt><trkpt lat="40.57129756243404" lon="9.099265111884678"><ele>679.0</ele><time>2026-03-27T13:30:50.999Z</time></trkpt><trkpt lat="40.571352851654616" lon="9.09932783991619"><ele>679.0</ele><time>2026-03-27T13:30:51.999Z</time></trkpt><trkpt lat="40.57141284479818" lon="9.099366195535826"><ele>680.8333333333334</ele><time>2026-03-27T13:30:52.999Z</time></trkpt><trkpt lat="40.57147811884406" lon="9.099333789124037"><ele>682.6666666666667</ele><time>2026-03-27T13:30:53.999Z</time></trkpt><trkpt lat="40.5714985532546" lon="9.099242717721781"><ele>684.5</ele><time>2026-03-27T13:30:54.999Z</time></trkpt><trkpt lat="40.57147207293112" lon="9.09914654305305"><ele>686.3333333333334</ele><time>2026-03-27T13:30:55.999Z</time></trkpt><trkpt lat="40.5715368454633" lon="9.099033626035457"><ele>688.1666666666666</ele><time>2026-03-27T13:30:57.999Z</time></trkpt><trkpt lat="40.571616170274865" lon="9.09903371302063"><ele>690.0</ele><time>2026-03-27T13:30:58.999Z</time></trkpt><trkpt lat="40.571724304496485" lon="9.09901563862004"><ele>690.0</ele><time>2026-03-27T13:30:59.999Z</time></trkpt><trkpt lat="40.57182423770697" lon="9.098979937355217"><ele>690.0</ele><time>2026-03-27T13:31:00.999Z</time></trkpt><trkpt lat="40.57192486065605" lon="9.098959229419352"><ele>690.0</ele><time>2026-03-27T13:31:01.999Z</time></trkpt><trkpt lat="40.572022457314624" lon="9.098964929962273"><ele>690.0</ele><time>2026-03-27T13:31:02.999Z</time></trkpt><trkpt lat="40.57212493463106" lon="9.099002795634606"><ele>690.0</ele><time>2026-03-27T13:31:03.999Z</time></trkpt><trkpt lat="40.57222354809802" lon="9.099082670075717"><ele>693.25</ele><time>2026-03-27T13:31:04.999Z</time></trkpt><trkpt lat="40.57231384958506" lon="9.099205678388508"><ele>696.5</ele><time>2026-03-27T13:31:05.999Z</time></trkpt><trkpt lat="40.57238052926328" lon="9.099334090624689"><ele>699.75</ele><time>2026-03-27T13:31:06.999Z</time></trkpt><trkpt lat="40.57244396459069" lon="9.099453847747906"><ele>703.0</ele><time>2026-03-27T13:31:07.999Z</time></trkpt><trkpt lat="40.57252569153166" lon="9.099570095859386"><ele>703.0</ele><time>2026-03-27T13:31:08.999Z</time></trkpt><trkpt lat="40.57261935406507" lon="9.099674413720372"><ele>703.0</ele><time>2026-03-27T13:31:09.999Z</time></trkpt><trkpt lat="40.57272198376279" lon="9.099753883049887"><ele>703.0</ele><time>2026-03-27T13:31:10.999Z</time></trkpt><trkpt lat="40.57283029771937" lon="9.09981406081022"><ele>703.0</ele><time>2026-03-27T13:31:11.999Z</time></trkpt><trkpt lat="40.572953694963296" lon="9.099846423271538"><ele>704.4</ele><time>2026-03-27T13:31:12.999Z</time></trkpt><trkpt lat="40.57306918279818" lon="9.099839828527312"><ele>705.8</ele><time>2026-03-27T13:31:13.999Z</time></trkpt><trkpt lat="40.573163530085715" lon="9.099814960188557"><ele>707.2</ele><time>2026-03-27T13:31:14.999Z</time></trkpt><trkpt lat="40.57324822288781" lon="9.099789743820446"><ele>708.6</ele><time>2026-03-27T13:31:15.999Z</time></trkpt><trkpt lat="40.57332958064532" lon="9.099791081885563"><ele>710.0</ele><time>2026-03-27T13:31:16.999Z</time></trkpt><trkpt lat="40.57340526424142" lon="9.099839633125182"><ele>711.6</ele><time>2026-03-27T13:31:17.999Z</time></trkpt><trkpt lat="40.57346127459861" lon="9.099923744386006"><ele>713.2</ele><time>2026-03-27T13:31:18.999Z</time></trkpt><trkpt lat="40.57346689721308" lon="9.100047670215655"><ele>714.8</ele><time>2026-03-27T13:31:19.999Z</time></trkpt><trkpt lat="40.573496637811246" lon="9.10017304261155"><ele>716.4</ele><time>2026-03-27T13:31:20.999Z</time></trkpt><trkpt lat="40.57354483623382" lon="9.100292969341588"><ele>718.0</ele><time>2026-03-27T13:31:21.999Z</time></trkpt><trkpt lat="40.573618303019764" lon="9.100403141359717"><ele>722.25</ele><time>2026-03-27T13:31:22.999Z</time></trkpt><trkpt lat="40.573715113419084" lon="9.100496410314257"><ele>726.5</ele><time>2026-03-27T13:31:23.999Z</time></trkpt><trkpt lat="40.573828608699905" lon="9.100578804021715"><ele>730.75</ele><time>2026-03-27T13:31:24.999Z</time></trkpt><trkpt lat="40.57393783286735" lon="9.10065568505662"><ele>735.0</ele><time>2026-03-27T13:31:25.999Z</time></trkpt><trkpt lat="40.57403102106847" lon="9.100736298964987"><ele>735.2</ele><time>2026-03-27T13:31:26.999Z</time></trkpt><trkpt lat="40.574119492618266" lon="9.100821429546254"><ele>735.4</ele><time>2026-03-27T13:31:27.999Z</time></trkpt><trkpt lat="40.574205770044735" lon="9.100913036131223"><ele>735.5999999999999</ele><time>2026-03-27T13:31:28.999Z</time></trkpt><trkpt lat="40.574286611825784" lon="9.101011977756361"><ele>735.8</ele><time>2026-03-27T13:31:29.999Z</time></trkpt><trkpt lat="40.574368092279684" lon="9.10111537146879"><ele>736.0</ele><time>2026-03-27T13:31:30.999Z</time></trkpt><trkpt lat="40.574458181954675" lon="9.10121359566547"><ele>740.25</ele><time>2026-03-27T13:31:31.999Z</time></trkpt><trkpt lat="40.574556518323575" lon="9.10129959836191"><ele>744.5</ele><time>2026-03-27T13:31:32.999Z</time></trkpt><trkpt lat="40.57466346898951" lon="9.101366425699496"><ele>748.75</ele><time>2026-03-27T13:31:33.999Z</time></trkpt><trkpt lat="40.57477599179158" lon="9.101408689705995"><ele>753.0</ele><time>2026-03-27T13:31:34.999Z</time></trkpt><trkpt lat="40.57488742589917" lon="9.101440634905249"><ele>753.0</ele><time>2026-03-27T13:31:35.999Z</time></trkpt><trkpt lat="40.574999199222" lon="9.101457694019128"><ele>753.0</ele><time>2026-03-27T13:31:36.999Z</time></trkpt><trkpt lat="40.57511958549042" lon="9.10145049834853"><ele>753.0</ele><time>2026-03-27T13:31:37.999Z</time></trkpt><trkpt lat="40.575241761145314" lon="9.101425689427616"><ele>753.0</ele><time>2026-03-27T13:31:38.999Z</time></trkpt><trkpt lat="40.575363708896475" lon="9.1014095590339"><ele>756.25</ele><time>2026-03-27T13:31:39.999Z</time></trkpt><trkpt lat="40.57548772385924" lon="9.1014148285688"><ele>759.5</ele><time>2026-03-27T13:31:40.999Z</time></trkpt><trkpt lat="40.575608443971575" lon="9.101437320723967"><ele>762.75</ele><time>2026-03-27T13:31:41.998Z</time></trkpt><trkpt lat="40.575721329227164" lon="9.101464813084117"><ele>766.0</ele><time>2026-03-27T13:31:42.998Z</time></trkpt><trkpt lat="40.575810469272" lon="9.101513392641259"><ele>764.1999999999999</ele><time>2026-03-27T13:31:43.998Z</time></trkpt><trkpt lat="40.57588336662953" lon="9.101592788468116"><ele>762.4</ele><time>2026-03-27T13:31:44.998Z</time></trkpt><trkpt lat="40.575947439763425" lon="9.101702725437457"><ele>760.6</ele><time>2026-03-27T13:31:45.998Z</time></trkpt><trkpt lat="40.57600338806125" lon="9.101829995418708"><ele>758.8</ele><time>2026-03-27T13:31:46.998Z</time></trkpt><trkpt lat="40.576059234462534" lon="9.101971974386839"><ele>757.0</ele><time>2026-03-27T13:31:47.998Z</time></trkpt><trkpt lat="40.5761212913286" lon="9.102118624644842"><ele>757.0</ele><time>2026-03-27T13:31:48.998Z</time></trkpt><trkpt lat="40.576185686712435" lon="9.102263141121286"><ele>757.0</ele><time>2026-03-27T13:31:49.998Z</time></trkpt><trkpt lat="40.576247745482426" lon="9.102400298968398"><ele>757.0</ele><time>2026-03-27T13:31:50.998Z</time></trkpt><trkpt lat="40.5762946765394" lon="9.10250046787682"><ele>757.0</ele><time>2026-03-27T13:31:51.998Z</time></trkpt><trkpt lat="40.57636506613328" lon="9.102604740568408"><ele>757.0</ele><time>2026-03-27T13:31:53.998Z</time></trkpt><trkpt lat="40.57642345340602" lon="9.102672230683416"><ele>760.0</ele><time>2026-03-27T13:31:55.998Z</time></trkpt><trkpt lat="40.5765177553495" lon="9.102779568430536"><ele>763.0</ele><time>2026-03-27T13:31:57.998Z</time></trkpt><trkpt lat="40.57654617751748" lon="9.102881899336685"><ele>766.0</ele><time>2026-03-27T13:31:59Z</time></trkpt><trkpt lat="40.57658585421922" lon="9.10297786305626"><ele>769.0</ele><time>2026-03-27T13:32:00Z</time></trkpt><trkpt lat="40.576628133642686" lon="9.103069485438743"><ele>772.0</ele><time>2026-03-27T13:32:01Z</time></trkpt><trkpt lat="40.57665108725951" lon="9.103184124065985"><ele>771.2</ele><time>2026-03-27T13:32:02Z</time></trkpt><trkpt lat="40.57674852074747" lon="9.103265602195739"><ele>770.4000000000001</ele><time>2026-03-27T13:32:03Z</time></trkpt><trkpt lat="40.57679111544468" lon="9.103366175899493"><ele>769.5999999999999</ele><time>2026-03-27T13:32:04Z</time></trkpt><trkpt lat="40.576811426662275" lon="9.10347087421788"><ele>768.8</ele><time>2026-03-27T13:32:05Z</time></trkpt><trkpt lat="40.57680237482384" lon="9.103578415434052"><ele>768.0</ele><time>2026-03-27T13:32:06Z</time></trkpt><trkpt lat="40.57677639632229" lon="9.103686134445587"><ele>768.0</ele><time>2026-03-27T13:32:07Z</time></trkpt><trkpt lat="40.57675138462349" lon="9.103796853673057"><ele>768.0</ele><time>2026-03-27T13:32:08Z</time></trkpt><trkpt lat="40.57673818386387" lon="9.103920611746434"><ele>768.0</ele><time>2026-03-27T13:32:09Z</time></trkpt><trkpt lat="40.57674784361536" lon="9.1040460831591"><ele>768.0</ele><time>2026-03-27T13:32:10Z</time></trkpt><trkpt lat="40.576786266293894" lon="9.10416239455791"><ele>768.0</ele><time>2026-03-27T13:32:11Z</time></trkpt><trkpt lat="40.57683829999368" lon="9.10425400168384"><ele>768.0</ele><time>2026-03-27T13:32:12Z</time></trkpt><trkpt lat="40.57689530187666" lon="9.104293789283789"><ele>768.0</ele><time>2026-03-27T13:32:13Z</time></trkpt><trkpt lat="40.57701443090974" lon="9.104271420473392"><ele>768.0</ele><time>2026-03-27T13:32:15Z</time></trkpt><trkpt lat="40.577037918669284" lon="9.10414779835697"><ele>768.0</ele><time>2026-03-27T13:32:16Z</time></trkpt><trkpt lat="40.5770061631381" lon="9.104039538862102"><ele>768.0</ele><time>2026-03-27T13:32:17Z</time></trkpt><trkpt lat="40.57700614463621" lon="9.103953148745045"><ele>768.0</ele><time>2026-03-27T13:32:18Z</time></trkpt><trkpt lat="40.577036592156034" lon="9.103855778096287"><ele>772.8</ele><time>2026-03-27T13:32:19Z</time></trkpt><trkpt lat="40.57712383256297" lon="9.103799665205388"><ele>777.5999999999999</ele><time>2026-03-27T13:32:20Z</time></trkpt><trkpt lat="40.57721065657338" lon="9.103720675567777"><ele>782.4000000000001</ele><time>2026-03-27T13:32:21Z</time></trkpt><trkpt lat="40.577298394133656" lon="9.103659129107971"><ele>787.2</ele><time>2026-03-27T13:32:22Z</time></trkpt><trkpt lat="40.57736141497452" lon="9.103583694858413"><ele>792.0</ele><time>2026-03-27T13:32:23Z</time></trkpt><trkpt lat="40.57742379600785" lon="9.103514701667413"><ele>792.0</ele><time>2026-03-27T13:32:24Z</time></trkpt><trkpt lat="40.57745348611623" lon="9.10338306379701"><ele>792.0</ele><time>2026-03-27T13:32:25Z</time></trkpt><trkpt lat="40.5774674693422" lon="9.103252635052074"><ele>792.0</ele><time>2026-03-27T13:32:26Z</time></trkpt><trkpt lat="40.577481923448616" lon="9.103152880494143"><ele>792.0</ele><time>2026-03-27T13:32:27Z</time></trkpt><trkpt lat="40.577569346296215" lon="9.103051009090821"><ele>792.0</ele><time>2026-03-27T13:32:29Z</time></trkpt><trkpt lat="40.57764696877877" lon="9.103102757299851"><ele>792.0</ele><time>2026-03-27T13:32:30Z</time></trkpt><trkpt lat="40.577692661764324" lon="9.103208151361011"><ele>792.0</ele><time>2026-03-27T13:32:31Z</time></trkpt><trkpt lat="40.57770957026343" lon="9.103334739847554"><ele>792.0</ele><time>2026-03-27T13:32:32Z</time></trkpt><trkpt lat="40.57771327148003" lon="9.10347889455145"><ele>792.0</ele><time>2026-03-27T13:32:33Z</time></trkpt><trkpt lat="40.57772242918581" lon="9.103635959011047"><ele>792.0</ele><time>2026-03-27T13:32:34Z</time></trkpt><trkpt lat="40.5777389311933" lon="9.103805636350971"><ele>792.0</ele><time>2026-03-27T13:32:35Z</time></trkpt><trkpt lat="40.57775292904919" lon="9.103980506258651"><ele>792.0</ele><time>2026-03-27T13:32:36Z</time></trkpt><trkpt lat="40.57776861325631" lon="9.104160222596994"><ele>792.0</ele><time>2026-03-27T13:32:37Z</time></trkpt><trkpt lat="40.57778634686486" lon="9.104308345337596"><ele>792.0</ele><time>2026-03-27T13:32:38Z</time></trkpt><trkpt lat="40.57780455937458" lon="9.104448401149067"><ele>792.6</ele><time>2026-03-27T13:32:39Z</time></trkpt><trkpt lat="40.57783714967636" lon="9.104580774867802"><ele>793.2</ele><time>2026-03-27T13:32:40Z</time></trkpt><trkpt lat="40.57788094801591" lon="9.104703006060609"><ele>793.8</ele><time>2026-03-27T13:32:41Z</time></trkpt><trkpt lat="40.57794037098823" lon="9.104804873704403"><ele>794.4</ele><time>2026-03-27T13:32:42Z</time></trkpt><trkpt lat="40.57801433596985" lon="9.104895530627466"><ele>795.0</ele><time>2026-03-27T13:32:43Z</time></trkpt><trkpt lat="40.578130907791916" lon="9.104883470664337"><ele>798.8</ele><time>2026-03-27T13:32:44Z</time></trkpt><trkpt lat="40.5782326203916" lon="9.104880545278421"><ele>802.6</ele><time>2026-03-27T13:32:45Z</time></trkpt><trkpt lat="40.57831671466235" lon="9.104879215111588"><ele>806.4000000000001</ele><time>2026-03-27T13:32:46Z</time></trkpt><trkpt lat="40.578415024691516" lon="9.10498861408894"><ele>810.2</ele><time>2026-03-27T13:32:47Z</time></trkpt><trkpt lat="40.57846882492797" lon="9.10507586237245"><ele>814.0</ele><time>2026-03-27T13:32:48Z</time></trkpt><trkpt lat="40.578528381203505" lon="9.105151495950828"><ele>814.0</ele><time>2026-03-27T13:32:49Z</time></trkpt><trkpt lat="40.57858725424539" lon="9.105223971591782"><ele>814.0</ele><time>2026-03-27T13:32:49.999Z</time></trkpt><trkpt lat="40.5786618534429" lon="9.105315806954154"><ele>814.0</ele><time>2026-03-27T13:32:50.999Z</time></trkpt><trkpt lat="40.57872824054815" lon="9.105397532850631"><ele>814.0</ele><time>2026-03-27T13:32:51.999Z</time></trkpt><trkpt lat="40.578808491295675" lon="9.105498929175676"><ele>814.0</ele><time>2026-03-27T13:32:52.999Z</time></trkpt><trkpt lat="40.57888198398703" lon="9.105593906597758"><ele>814.0</ele><time>2026-03-27T13:32:53.999Z</time></trkpt><trkpt lat="40.57896166834843" lon="9.105699247887719"><ele>814.0</ele><time>2026-03-27T13:32:54.999Z</time></trkpt><trkpt lat="40.57904910956303" lon="9.105816682703962"><ele>814.0</ele><time>2026-03-27T13:32:55.999Z</time></trkpt><trkpt lat="40.579136845569565" lon="9.1059341590336"><ele>814.0</ele><time>2026-03-27T13:32:56.999Z</time></trkpt><trkpt lat="40.57921848281432" lon="9.106041672650056"><ele>814.0</ele><time>2026-03-27T13:32:57.999Z</time></trkpt><trkpt lat="40.579299511743116" lon="9.106144776271048"><ele>814.0</ele><time>2026-03-27T13:32:58.999Z</time></trkpt><trkpt lat="40.57937852194123" lon="9.106238868928582"><ele>814.0</ele><time>2026-03-27T13:32:59.999Z</time></trkpt><trkpt lat="40.57946183605196" lon="9.10630883975111"><ele>814.0</ele><time>2026-03-27T13:33:00.999Z</time></trkpt><trkpt lat="40.57950313436953" lon="9.106372671013894"><ele>814.0</ele><time>2026-03-27T13:33:01.999Z</time></trkpt><trkpt lat="40.57959600804314" lon="9.106387055377173"><ele>814.4000000000001</ele><time>2026-03-27T13:33:02.999Z</time></trkpt><trkpt lat="40.57968243015107" lon="9.106414446486216"><ele>814.8</ele><time>2026-03-27T13:33:03.999Z</time></trkpt><trkpt lat="40.57976942084581" lon="9.106460393642157"><ele>815.2</ele><time>2026-03-27T13:33:04.999Z</time></trkpt><trkpt lat="40.5798677387983" lon="9.106493979107066"><ele>815.5999999999999</ele><time>2026-03-27T13:33:05.999Z</time></trkpt><trkpt lat="40.57997318423206" lon="9.106532334075803"><ele>816.0</ele><time>2026-03-27T13:33:06.999Z</time></trkpt><trkpt lat="40.58007196283025" lon="9.10656594734807"><ele>816.0</ele><time>2026-03-27T13:33:07.999Z</time></trkpt><trkpt lat="40.58014452150476" lon="9.106557593813527"><ele>816.0</ele><time>2026-03-27T13:33:08.999Z</time></trkpt><trkpt lat="40.58023642629571" lon="9.106575692719572"><ele>816.0</ele><time>2026-03-27T13:33:09.999Z</time></trkpt><trkpt lat="40.580313890262715" lon="9.106598027155652"><ele>816.0</ele><time>2026-03-27T13:33:10.999Z</time></trkpt><trkpt lat="40.580397635434174" lon="9.106635461371807"><ele>816.0</ele><time>2026-03-27T13:33:11.999Z</time></trkpt><trkpt lat="40.58046324590407" lon="9.106692603389147"><ele>816.0</ele><time>2026-03-27T13:33:12.999Z</time></trkpt><trkpt lat="40.58051739230503" lon="9.106764103791559"><ele>815.0</ele><time>2026-03-27T13:33:13.999Z</time></trkpt><trkpt lat="40.58055818963892" lon="9.106831776588148"><ele>814.0</ele><time>2026-03-27T13:33:14.999Z</time></trkpt><trkpt lat="40.58063099256776" lon="9.106948050010603"><ele>813.0</ele><time>2026-03-27T13:33:16.999Z</time></trkpt><trkpt lat="40.58069763500464" lon="9.107020083805002"><ele>812.0</ele><time>2026-03-27T13:33:18.999Z</time></trkpt><trkpt lat="40.58079280677964" lon="9.106939284313189"><ele>811.0</ele><time>2026-03-27T13:33:20.999Z</time></trkpt><trkpt lat="40.58084837717325" lon="9.106894571867596"><ele>810.0</ele><time>2026-03-27T13:33:21.999Z</time></trkpt><trkpt lat="40.58086110489311" lon="9.106697214931659"><ele>810.0</ele><time>2026-03-27T13:33:23.999Z</time></trkpt><trkpt lat="40.58083761999205" lon="9.106587599397786"><ele>810.0</ele><time>2026-03-27T13:33:24.999Z</time></trkpt><trkpt lat="40.580791395487346" lon="9.106452363517139"><ele>810.0</ele><time>2026-03-27T13:33:25.999Z</time></trkpt><trkpt lat="40.58072106431767" lon="9.106303951661019"><ele>810.0</ele><time>2026-03-27T13:33:26.999Z</time></trkpt><trkpt lat="40.580640312551786" lon="9.106139899994377"><ele>806.0</ele><time>2026-03-27T13:33:27.999Z</time></trkpt><trkpt lat="40.580559146890145" lon="9.10597351038136"><ele>802.0</ele><time>2026-03-27T13:33:28.999Z</time></trkpt><trkpt lat="40.580485420567705" lon="9.105815989929026"><ele>798.0</ele><time>2026-03-27T13:33:29.999Z</time></trkpt><trkpt lat="40.580429592959" lon="9.105649723462278"><ele>794.0</ele><time>2026-03-27T13:33:30.999Z</time></trkpt><trkpt lat="40.58038217242767" lon="9.105458933107924"><ele>796.3333333333334</ele><time>2026-03-27T13:33:31.999Z</time></trkpt><trkpt lat="40.58033698887927" lon="9.105247649964744"><ele>798.6666666666667</ele><time>2026-03-27T13:33:32.999Z</time></trkpt><trkpt lat="40.5802902857128" lon="9.105031140979932"><ele>801.0</ele><time>2026-03-27T13:33:33.999Z</time></trkpt><trkpt lat="40.58023355157401" lon="9.104823689733172"><ele>801.0</ele><time>2026-03-27T13:33:34.999Z</time></trkpt><trkpt lat="40.58018887174203" lon="9.104625835914705"><ele>801.0</ele><time>2026-03-27T13:33:35.999Z</time></trkpt><trkpt lat="40.580157159030556" lon="9.104419487198962"><ele>801.0</ele><time>2026-03-27T13:33:36.999Z</time></trkpt><trkpt lat="40.58010996407927" lon="9.10421024591842"><ele>797.0</ele><time>2026-03-27T13:33:37.999Z</time></trkpt><trkpt lat="40.58006289446829" lon="9.104001561033064"><ele>793.0</ele><time>2026-03-27T13:33:38.999Z</time></trkpt><trkpt lat="40.580016437592164" lon="9.103794959198806"><ele>789.0</ele><time>2026-03-27T13:33:39.999Z</time></trkpt><trkpt lat="40.57997163133392" lon="9.103590074924188"><ele>789.0</ele><time>2026-03-27T13:33:40.999Z</time></trkpt><trkpt lat="40.579926243623405" lon="9.103382532047817"><ele>789.0</ele><time>2026-03-27T13:33:41.999Z</time></trkpt><trkpt lat="40.57988306579367" lon="9.10317631510163"><ele>789.0</ele><time>2026-03-27T13:33:42.999Z</time></trkpt><trkpt lat="40.57985795969243" lon="9.10295353996655"><ele>786.6666666666667</ele><time>2026-03-27T13:33:43.998Z</time></trkpt><trkpt lat="40.57985974798089" lon="9.102731107869362"><ele>784.3333333333334</ele><time>2026-03-27T13:33:44.998Z</time></trkpt><trkpt lat="40.579879019809546" lon="9.102490536709364"><ele>782.0</ele><time>2026-03-27T13:33:45.998Z</time></trkpt><trkpt lat="40.57989723815418" lon="9.102243461280253"><ele>781.6666666666667</ele><time>2026-03-27T13:33:46.998Z</time></trkpt><trkpt lat="40.5799123088038" lon="9.102001715542414"><ele>781.3333333333333</ele><time>2026-03-27T13:33:47.998Z</time></trkpt><trkpt lat="40.57992742331639" lon="9.101773776864597"><ele>781.0</ele><time>2026-03-27T13:33:48.998Z</time></trkpt><trkpt lat="40.57994458963646" lon="9.101554725077758"><ele>784.6666666666666</ele><time>2026-03-27T13:33:49.998Z</time></trkpt><trkpt lat="40.579969093256835" lon="9.10133950208371"><ele>788.3333333333333</ele><time>2026-03-27T13:33:50.998Z</time></trkpt><trkpt lat="40.57999366694836" lon="9.101131833441862"><ele>792.0</ele><time>2026-03-27T13:33:51.998Z</time></trkpt><trkpt lat="40.580013964117725" lon="9.100938921639052"><ele>792.0</ele><time>2026-03-27T13:33:52.998Z</time></trkpt><trkpt lat="40.580071424551825" lon="9.100790265026955"><ele>792.0</ele><time>2026-03-27T13:33:53.998Z</time></trkpt><trkpt lat="40.58014419963683" lon="9.100679911695815"><ele>792.0</ele><time>2026-03-27T13:33:54.998Z</time></trkpt><trkpt lat="40.58025717427853" lon="9.100584496133182"><ele>792.0</ele><time>2026-03-27T13:33:55.998Z</time></trkpt><trkpt lat="40.58039184430016" lon="9.100538968258855"><ele>785.75</ele><time>2026-03-27T13:33:56.998Z</time></trkpt><trkpt lat="40.58051912037246" lon="9.100517105486375"><ele>779.5</ele><time>2026-03-27T13:33:57.998Z</time></trkpt><trkpt lat="40.58064733692831" lon="9.100465999057661"><ele>773.25</ele><time>2026-03-27T13:33:58.998Z</time></trkpt><trkpt lat="40.58078086677851" lon="9.100354671414399"><ele>767.0</ele><time>2026-03-27T13:33:59.998Z</time></trkpt><trkpt lat="40.58090522735645" lon="9.100236818205238"><ele>767.0</ele><time>2026-03-27T13:34:00.998Z</time></trkpt><trkpt lat="40.58102532481732" lon="9.100114905563364"><ele>767.0</ele><time>2026-03-27T13:34:01.998Z</time></trkpt><trkpt lat="40.58112764036129" lon="9.09998636893555"><ele>767.0</ele><time>2026-03-27T13:34:02.998Z</time></trkpt><trkpt lat="40.58121237216409" lon="9.09983476717026"><ele>767.0</ele><time>2026-03-27T13:34:03.998Z</time></trkpt><trkpt lat="40.581239857133966" lon="9.099662023694883"><ele>761.0</ele><time>2026-03-27T13:34:05Z</time></trkpt><trkpt lat="40.58128718517051" lon="9.099491104635499"><ele>755.0</ele><time>2026-03-27T13:34:06Z</time></trkpt><trkpt lat="40.58123348490746" lon="9.0992888977366"><ele>749.0</ele><time>2026-03-27T13:34:07Z</time></trkpt><trkpt lat="40.58118602071157" lon="9.099108700316043"><ele>743.0</ele><time>2026-03-27T13:34:08Z</time></trkpt><trkpt lat="40.58111111228371" lon="9.098951324679929"><ele>742.6666666666666</ele><time>2026-03-27T13:34:09Z</time></trkpt><trkpt lat="40.580997933445495" lon="9.098820165645522"><ele>742.3333333333334</ele><time>2026-03-27T13:34:10Z</time></trkpt><trkpt lat="40.580865822328974" lon="9.098703947390904"><ele>742.0</ele><time>2026-03-27T13:34:11Z</time></trkpt><trkpt lat="40.58072618545665" lon="9.098584226162192"><ele>742.0</ele><time>2026-03-27T13:34:12Z</time></trkpt><trkpt lat="40.58058457262405" lon="9.098455735703185"><ele>742.0</ele><time>2026-03-27T13:34:13Z</time></trkpt><trkpt lat="40.58043781995352" lon="9.09831872066163"><ele>742.0</ele><time>2026-03-27T13:34:14Z</time></trkpt><trkpt lat="40.580290694915426" lon="9.098172628003148"><ele>739.3333333333334</ele><time>2026-03-27T13:34:15Z</time></trkpt><trkpt lat="40.580141908920176" lon="9.098021865260831"><ele>736.6666666666666</ele><time>2026-03-27T13:34:16Z</time></trkpt><trkpt lat="40.57999911039769" lon="9.097869207157526"><ele>734.0</ele><time>2026-03-27T13:34:17Z</time></trkpt><trkpt lat="40.57987935079742" lon="9.09769266833939"><ele>734.0</ele><time>2026-03-27T13:34:18Z</time></trkpt><trkpt lat="40.579744248884616" lon="9.097542151838145"><ele>734.0</ele><time>2026-03-27T13:34:19Z</time></trkpt><trkpt lat="40.57963633411047" lon="9.097371531028145"><ele>734.0</ele><time>2026-03-27T13:34:20Z</time></trkpt><trkpt lat="40.57955399082895" lon="9.097178245720478"><ele>733.3333333333333</ele><time>2026-03-27T13:34:21Z</time></trkpt><trkpt lat="40.579474312757995" lon="9.096984852471174"><ele>732.6666666666666</ele><time>2026-03-27T13:34:22Z</time></trkpt><trkpt lat="40.57940226803732" lon="9.096774771848352"><ele>732.0</ele><time>2026-03-27T13:34:23Z</time></trkpt><trkpt lat="40.579341262243034" lon="9.096564052124542"><ele>732.0</ele><time>2026-03-27T13:34:24Z</time></trkpt><trkpt lat="40.57928704420256" lon="9.096349342777886"><ele>732.0</ele><time>2026-03-27T13:34:25Z</time></trkpt><trkpt lat="40.57924625242658" lon="9.096126827808874"><ele>732.0</ele><time>2026-03-27T13:34:26Z</time></trkpt><trkpt lat="40.57922134948018" lon="9.09589314003344"><ele>730.6666666666666</ele><time>2026-03-27T13:34:27Z</time></trkpt><trkpt lat="40.57920589630391" lon="9.095654407314456"><ele>729.3333333333333</ele><time>2026-03-27T13:34:28Z</time></trkpt><trkpt lat="40.5791973618924" lon="9.095408167234496"><ele>728.0</ele><time>2026-03-27T13:34:29Z</time></trkpt><trkpt lat="40.57919970496579" lon="9.095161069608098"><ele>728.3333333333333</ele><time>2026-03-27T13:34:30Z</time></trkpt><trkpt lat="40.579210328910314" lon="9.094913605245859"><ele>728.6666666666666</ele><time>2026-03-27T13:34:31Z</time></trkpt><trkpt lat="40.57922165229626" lon="9.094669290638457"><ele>729.0</ele><time>2026-03-27T13:34:32Z</time></trkpt><trkpt lat="40.57921460911866" lon="9.094439695999682"><ele>729.0</ele><time>2026-03-27T13:34:33Z</time></trkpt><trkpt lat="40.57922294500542" lon="9.094220964789962"><ele>729.0</ele><time>2026-03-27T13:34:34Z</time></trkpt><trkpt lat="40.57924542759311" lon="9.09401022293323"><ele>729.0</ele><time>2026-03-27T13:34:35Z</time></trkpt><trkpt lat="40.579260617947725" lon="9.093812416026648"><ele>729.5</ele><time>2026-03-27T13:34:36Z</time></trkpt><trkpt lat="40.57929952682284" lon="9.093625628578936"><ele>730.0</ele><time>2026-03-27T13:34:37Z</time></trkpt><trkpt lat="40.57937221834036" lon="9.093469152249456"><ele>730.5</ele><time>2026-03-27T13:34:38Z</time></trkpt><trkpt lat="40.579463012765444" lon="9.093329887976239"><ele>731.0</ele><time>2026-03-27T13:34:39Z</time></trkpt><trkpt lat="40.579565574742816" lon="9.093181747208707"><ele>722.0</ele><time>2026-03-27T13:34:40Z</time></trkpt><trkpt lat="40.57967221508525" lon="9.09303083156374"><ele>713.0</ele><time>2026-03-27T13:34:41Z</time></trkpt><trkpt lat="40.57976159954726" lon="9.092838352383975"><ele>704.0</ele><time>2026-03-27T13:34:42Z</time></trkpt><trkpt lat="40.579837541039396" lon="9.092628903340191"><ele>704.0</ele><time>2026-03-27T13:34:43Z</time></trkpt><trkpt lat="40.57989388145229" lon="9.092428817167917"><ele>704.0</ele><time>2026-03-27T13:34:44Z</time></trkpt><trkpt lat="40.579934281134264" lon="9.09223211549923"><ele>704.0</ele><time>2026-03-27T13:34:45Z</time></trkpt><trkpt lat="40.57994717081468" lon="9.092025465206428"><ele>702.3333333333333</ele><time>2026-03-27T13:34:46Z</time></trkpt><trkpt lat="40.57992645632434" lon="9.091801162540701"><ele>700.6666666666666</ele><time>2026-03-27T13:34:47Z</time></trkpt><trkpt lat="40.579888114156965" lon="9.091567053409731"><ele>699.0</ele><time>2026-03-27T13:34:48Z</time></trkpt><trkpt lat="40.579851149005094" lon="9.091330666359015"><ele>698.6666666666666</ele><time>2026-03-27T13:34:49Z</time></trkpt><trkpt lat="40.579826225627556" lon="9.091091009793468"><ele>698.3333333333333</ele><time>2026-03-27T13:34:49.999Z</time></trkpt><trkpt lat="40.5798176005813" lon="9.090851639062981"><ele>698.0</ele><time>2026-03-27T13:34:50.999Z</time></trkpt><trkpt lat="40.57983719709382" lon="9.090609122969912"><ele>698.0</ele><time>2026-03-27T13:34:51.999Z</time></trkpt><trkpt lat="40.57989899177246" lon="9.090370972142686"><ele>698.0</ele><time>2026-03-27T13:34:52.999Z</time></trkpt><trkpt lat="40.5799348238963" lon="9.090120781773257"><ele>698.0</ele><time>2026-03-27T13:34:53.999Z</time></trkpt><trkpt lat="40.579991089872834" lon="9.089871622179038"><ele>699.3333333333333</ele><time>2026-03-27T13:34:54.999Z</time></trkpt><trkpt lat="40.58005189773677" lon="9.089621258333453"><ele>700.6666666666666</ele><time>2026-03-27T13:34:55.999Z</time></trkpt><trkpt lat="40.58012257343172" lon="9.08937521600533"><ele>702.0</ele><time>2026-03-27T13:34:56.999Z</time></trkpt><trkpt lat="40.58020538270069" lon="9.089135617079119"><ele>704.3333333333334</ele><time>2026-03-27T13:34:57.999Z</time></trkpt><trkpt lat="40.580295827719596" lon="9.088905977189764"><ele>706.6666666666667</ele><time>2026-03-27T13:34:58.999Z</time></trkpt><trkpt lat="40.58038537932856" lon="9.088688874552828"><ele>709.0</ele><time>2026-03-27T13:34:59.999Z</time></trkpt><trkpt lat="40.580466268444894" lon="9.088481460579033"><ele>697.6666666666667</ele><time>2026-03-27T13:35:00.999Z</time></trkpt><trkpt lat="40.58053745063528" lon="9.088278724292847"><ele>686.3333333333334</ele><time>2026-03-27T13:35:01.999Z</time></trkpt><trkpt lat="40.58058363627613" lon="9.088066996668182"><ele>675.0</ele><time>2026-03-27T13:35:02.999Z</time></trkpt><trkpt lat="40.58060195995882" lon="9.08783614364453"><ele>674.6666666666666</ele><time>2026-03-27T13:35:03.999Z</time></trkpt><trkpt lat="40.580602957235364" lon="9.087601051596108"><ele>674.3333333333333</ele><time>2026-03-27T13:35:04.999Z</time></trkpt><trkpt lat="40.58060679970626" lon="9.08736524267905"><ele>674.0</ele><time>2026-03-27T13:35:05.999Z</time></trkpt><trkpt lat="40.58061339360417" lon="9.087135384612607"><ele>672.6666666666666</ele><time>2026-03-27T13:35:06.999Z</time></trkpt><trkpt lat="40.58062094858873" lon="9.086906780656541"><ele>671.3333333333334</ele><time>2026-03-27T13:35:07.999Z</time></trkpt><trkpt lat="40.58063110291829" lon="9.086688247185837"><ele>670.0</ele><time>2026-03-27T13:35:08.999Z</time></trkpt><trkpt lat="40.580638315512935" lon="9.086478416007337"><ele>667.6666666666667</ele><time>2026-03-27T13:35:09.999Z</time></trkpt><trkpt lat="40.58064240019376" lon="9.086266897304602"><ele>665.3333333333334</ele><time>2026-03-27T13:35:10.999Z</time></trkpt><trkpt lat="40.58062878561096" lon="9.086049076552202"><ele>663.0</ele><time>2026-03-27T13:35:11.999Z</time></trkpt><trkpt lat="40.580591798958515" lon="9.085835396896684"><ele>660.3333333333334</ele><time>2026-03-27T13:35:12.999Z</time></trkpt><trkpt lat="40.580546463455555" lon="9.085619933132206"><ele>657.6666666666667</ele><time>2026-03-27T13:35:13.999Z</time></trkpt><trkpt lat="40.580509104897175" lon="9.085411596802942"><ele>655.0</ele><time>2026-03-27T13:35:14.999Z</time></trkpt><trkpt lat="40.5804667414272" lon="9.085224007591666"><ele>655.0</ele><time>2026-03-27T13:35:15.999Z</time></trkpt><trkpt lat="40.58043207451115" lon="9.085055061640055"><ele>655.0</ele><time>2026-03-27T13:35:16.999Z</time></trkpt><trkpt lat="40.580378140343015" lon="9.08490243969447"><ele>655.0</ele><time>2026-03-27T13:35:17.999Z</time></trkpt><trkpt lat="40.58028002614907" lon="9.084796424392225"><ele>655.0</ele><time>2026-03-27T13:35:18.999Z</time></trkpt><trkpt lat="40.58016560890794" lon="9.08472800091622"><ele>657.2</ele><time>2026-03-27T13:35:19.999Z</time></trkpt><trkpt lat="40.580069337352505" lon="9.084650881390878"><ele>659.4</ele><time>2026-03-27T13:35:20.999Z</time></trkpt><trkpt lat="40.5799953531136" lon="9.08454433626837"><ele>661.5999999999999</ele><time>2026-03-27T13:35:21.999Z</time></trkpt><trkpt lat="40.579963861408224" lon="9.08441599294917"><ele>663.8</ele><time>2026-03-27T13:35:22.999Z</time></trkpt><trkpt lat="40.57998329527859" lon="9.084288330345462"><ele>666.0</ele><time>2026-03-27T13:35:23.999Z</time></trkpt><trkpt lat="40.58002906938089" lon="9.084199676342868"><ele>666.0</ele><time>2026-03-27T13:35:24.999Z</time></trkpt><trkpt lat="40.580099968762404" lon="9.084143227241947"><ele>666.0</ele><time>2026-03-27T13:35:25.999Z</time></trkpt><trkpt lat="40.58018442166489" lon="9.0841188188173"><ele>666.0</ele><time>2026-03-27T13:35:26.999Z</time></trkpt><trkpt lat="40.580273613067064" lon="9.084141688988524"><ele>666.0</ele><time>2026-03-27T13:35:27.999Z</time></trkpt><trkpt lat="40.580358086772065" lon="9.084221443328579"><ele>666.0</ele><time>2026-03-27T13:35:28.999Z</time></trkpt><trkpt lat="40.58043302896967" lon="9.084341114516937"><ele>661.0</ele><time>2026-03-27T13:35:29.999Z</time></trkpt><trkpt lat="40.58050763032557" lon="9.084502416551986"><ele>656.0</ele><time>2026-03-27T13:35:30.999Z</time></trkpt><trkpt lat="40.580590052041515" lon="9.084680532619586"><ele>651.0</ele><time>2026-03-27T13:35:31.999Z</time></trkpt><trkpt lat="40.580676462900364" lon="9.084844537558599"><ele>652.3333333333334</ele><time>2026-03-27T13:35:32.999Z</time></trkpt><trkpt lat="40.580760746864534" lon="9.085010227223753"><ele>653.6666666666667</ele><time>2026-03-27T13:35:33.999Z</time></trkpt><trkpt lat="40.58084779785988" lon="9.085176904200722"><ele>655.0</ele><time>2026-03-27T13:35:34.999Z</time></trkpt><trkpt lat="40.580938495973946" lon="9.08535072410898"><ele>655.0</ele><time>2026-03-27T13:35:35.999Z</time></trkpt><trkpt lat="40.581032870342554" lon="9.085535282931644"><ele>655.0</ele><time>2026-03-27T13:35:36.999Z</time></trkpt><trkpt lat="40.58112605001229" lon="9.085731877206847"><ele>655.0</ele><time>2026-03-27T13:35:37.999Z</time></trkpt><trkpt lat="40.58121366111896" lon="9.085945649920031"><ele>651.0</ele><time>2026-03-27T13:35:38.999Z</time></trkpt><trkpt lat="40.58130078815915" lon="9.086166458493336"><ele>647.0</ele><time>2026-03-27T13:35:39.999Z</time></trkpt><trkpt lat="40.581380964656375" lon="9.086380131116158"><ele>643.0</ele><time>2026-03-27T13:35:40.999Z</time></trkpt><trkpt lat="40.58145147249965" lon="9.086572558101341"><ele>644.0</ele><time>2026-03-27T13:35:41.999Z</time></trkpt><trkpt lat="40.5815116158865" lon="9.086758357185271"><ele>645.0</ele><time>2026-03-27T13:35:42.999Z</time></trkpt><trkpt lat="40.581558230988605" lon="9.086942401750502"><ele>646.0</ele><time>2026-03-27T13:35:43.999Z</time></trkpt><trkpt lat="40.58159432706327" lon="9.087139329442012"><ele>646.0</ele><time>2026-03-27T13:35:44.998Z</time></trkpt><trkpt lat="40.581614646620956" lon="9.08735457983825"><ele>646.0</ele><time>2026-03-27T13:35:45.998Z</time></trkpt><trkpt lat="40.58161669685581" lon="9.087579009532746"><ele>646.0</ele><time>2026-03-27T13:35:46.998Z</time></trkpt><trkpt lat="40.58161079524262" lon="9.087810923215793"><ele>646.3333333333334</ele><time>2026-03-27T13:35:47.998Z</time></trkpt><trkpt lat="40.58160605247898" lon="9.088054106028137"><ele>646.6666666666666</ele><time>2026-03-27T13:35:48.998Z</time></trkpt><trkpt lat="40.58160129582748" lon="9.088309033317236"><ele>647.0</ele><time>2026-03-27T13:35:49.998Z</time></trkpt><trkpt lat="40.58159719599977" lon="9.088576521877824"><ele>647.0</ele><time>2026-03-27T13:35:50.998Z</time></trkpt><trkpt lat="40.58159429798737" lon="9.088851634972126"><ele>647.0</ele><time>2026-03-27T13:35:51.998Z</time></trkpt><trkpt lat="40.58159016565026" lon="9.089128929217356"><ele>647.0</ele><time>2026-03-27T13:35:52.998Z</time></trkpt><trkpt lat="40.581587827796724" lon="9.089388572268733"><ele>646.6666666666666</ele><time>2026-03-27T13:35:53.998Z</time></trkpt><trkpt lat="40.58159219134226" lon="9.089641625833565"><ele>646.3333333333334</ele><time>2026-03-27T13:35:54.998Z</time></trkpt><trkpt lat="40.58160388989538" lon="9.089877037640937"><ele>646.0</ele><time>2026-03-27T13:35:55.998Z</time></trkpt><trkpt lat="40.58161793065949" lon="9.090098550722791"><ele>645.3333333333334</ele><time>2026-03-27T13:35:56.998Z</time></trkpt><trkpt lat="40.58163145689495" lon="9.090319455232372"><ele>644.6666666666666</ele><time>2026-03-27T13:35:57.998Z</time></trkpt><trkpt lat="40.5816436005042" lon="9.090547996679982"><ele>644.0</ele><time>2026-03-27T13:35:58.998Z</time></trkpt><trkpt lat="40.58166121285846" lon="9.090780954163094"><ele>643.0</ele><time>2026-03-27T13:35:59.998Z</time></trkpt><trkpt lat="40.58168278254102" lon="9.091018686992022"><ele>642.0</ele><time>2026-03-27T13:36:00.998Z</time></trkpt><trkpt lat="40.58172241345872" lon="9.091264148633778"><ele>641.0</ele><time>2026-03-27T13:36:01.998Z</time></trkpt><trkpt lat="40.581785676315725" lon="9.091506523268327"><ele>641.0</ele><time>2026-03-27T13:36:02.998Z</time></trkpt><trkpt lat="40.58184966812839" lon="9.09172711885832"><ele>641.0</ele><time>2026-03-27T13:36:03.998Z</time></trkpt><trkpt lat="40.58190830068223" lon="9.091934421537141"><ele>641.0</ele><time>2026-03-27T13:36:04.998Z</time></trkpt><trkpt lat="40.58195520998071" lon="9.092131760966547"><ele>641.0</ele><time>2026-03-27T13:36:05.998Z</time></trkpt><trkpt lat="40.58197797284829" lon="9.0923293658565"><ele>641.0</ele><time>2026-03-27T13:36:06.998Z</time></trkpt><trkpt lat="40.58197657315435" lon="9.092514048989312"><ele>641.0</ele><time>2026-03-27T13:36:07.998Z</time></trkpt><trkpt lat="40.58196988766014" lon="9.092686024433313"><ele>641.0</ele><time>2026-03-27T13:36:08.998Z</time></trkpt><trkpt lat="40.581965759151764" lon="9.092851354339361"><ele>640.8</ele><time>2026-03-27T13:36:09.998Z</time></trkpt><trkpt lat="40.581960137914194" lon="9.09301478475566"><ele>640.5999999999999</ele><time>2026-03-27T13:36:11Z</time></trkpt><trkpt lat="40.58195986102144" lon="9.093154842815428"><ele>640.4</ele><time>2026-03-27T13:36:12Z</time></trkpt><trkpt lat="40.58196594262306" lon="9.093266770352306"><ele>640.2</ele><time>2026-03-27T13:36:13Z</time></trkpt><trkpt lat="40.58197736758279" lon="9.093370455156863"><ele>640.0</ele><time>2026-03-27T13:36:14Z</time></trkpt><trkpt lat="40.582001460400626" lon="9.093471738888669"><ele>637.8</ele><time>2026-03-27T13:36:15Z</time></trkpt><trkpt lat="40.58204423270116" lon="9.09357002950787"><ele>635.6</ele><time>2026-03-27T13:36:16Z</time></trkpt><trkpt lat="40.58211015103736" lon="9.093667654355539"><ele>633.4</ele><time>2026-03-27T13:36:17Z</time></trkpt><trkpt lat="40.58219955143814" lon="9.093750828559394"><ele>631.2</ele><time>2026-03-27T13:36:18Z</time></trkpt><trkpt lat="40.58231613574785" lon="9.093805954578517"><ele>629.0</ele><time>2026-03-27T13:36:19Z</time></trkpt><trkpt lat="40.582453761479805" lon="9.09384901320558"><ele>629.0</ele><time>2026-03-27T13:36:20Z</time></trkpt><trkpt lat="40.58260651679381" lon="9.093907883141165"><ele>629.0</ele><time>2026-03-27T13:36:21Z</time></trkpt><trkpt lat="40.58277229996086" lon="9.093990161449469"><ele>629.0</ele><time>2026-03-27T13:36:22Z</time></trkpt><trkpt lat="40.58293416287134" lon="9.094065195848518"><ele>628.3333333333333</ele><time>2026-03-27T13:36:23Z</time></trkpt><trkpt lat="40.58309962115841" lon="9.094142306594756"><ele>627.6666666666666</ele><time>2026-03-27T13:36:24Z</time></trkpt><trkpt lat="40.583253521460996" lon="9.094215366820539"><ele>627.0</ele><time>2026-03-27T13:36:25Z</time></trkpt><trkpt lat="40.58341050369216" lon="9.094291098545074"><ele>627.0</ele><time>2026-03-27T13:36:26Z</time></trkpt><trkpt lat="40.58357162817838" lon="9.094382632320887"><ele>627.0</ele><time>2026-03-27T13:36:27Z</time></trkpt><trkpt lat="40.583729981952374" lon="9.094497371655175"><ele>627.0</ele><time>2026-03-27T13:36:28Z</time></trkpt><trkpt lat="40.58389014821324" lon="9.094628374514302"><ele>626.6666666666666</ele><time>2026-03-27T13:36:29Z</time></trkpt><trkpt lat="40.584051597231905" lon="9.094768622181316"><ele>626.3333333333333</ele><time>2026-03-27T13:36:30Z</time></trkpt><trkpt lat="40.58421316621198" lon="9.094912064762589"><ele>626.0</ele><time>2026-03-27T13:36:31Z</time></trkpt><trkpt lat="40.584365757472426" lon="9.095048334659491"><ele>619.0</ele><time>2026-03-27T13:36:32Z</time></trkpt><trkpt lat="40.58451864986803" lon="9.095179802343722"><ele>612.0</ele><time>2026-03-27T13:36:33Z</time></trkpt><trkpt lat="40.58466843385543" lon="9.095309003540537"><ele>605.0</ele><time>2026-03-27T13:36:34Z</time></trkpt><trkpt lat="40.58481555292776" lon="9.09545508108609"><ele>605.0</ele><time>2026-03-27T13:36:35Z</time></trkpt><trkpt lat="40.58495633839315" lon="9.095630303320453"><ele>605.0</ele><time>2026-03-27T13:36:36Z</time></trkpt><trkpt lat="40.585095288996904" lon="9.095816040985259"><ele>605.0</ele><time>2026-03-27T13:36:37Z</time></trkpt><trkpt lat="40.58522960381946" lon="9.096012342760767"><ele>604.0</ele><time>2026-03-27T13:36:38Z</time></trkpt><trkpt lat="40.585365267588045" lon="9.096214727765119"><ele>603.0</ele><time>2026-03-27T13:36:39Z</time></trkpt><trkpt lat="40.58550211815632" lon="9.09642414589324"><ele>602.0</ele><time>2026-03-27T13:36:40Z</time></trkpt><trkpt lat="40.58564115726624" lon="9.09663240177516"><ele>602.0</ele><time>2026-03-27T13:36:41Z</time></trkpt><trkpt lat="40.58577899635953" lon="9.096839466154053"><ele>602.0</ele><time>2026-03-27T13:36:42Z</time></trkpt><trkpt lat="40.58591677401184" lon="9.09704415641991"><ele>602.0</ele><time>2026-03-27T13:36:43Z</time></trkpt><trkpt lat="40.586052667568794" lon="9.097241836951667"><ele>599.6666666666666</ele><time>2026-03-27T13:36:44Z</time></trkpt><trkpt lat="40.58617921965718" lon="9.097430796431462"><ele>597.3333333333334</ele><time>2026-03-27T13:36:45Z</time></trkpt><trkpt lat="40.5862976191534" lon="9.097613919064822"><ele>595.0</ele><time>2026-03-27T13:36:46Z</time></trkpt><trkpt lat="40.58641704068543" lon="9.097777649075056"><ele>595.0</ele><time>2026-03-27T13:36:47Z</time></trkpt><trkpt lat="40.586547565524945" lon="9.097896951142202"><ele>595.0</ele><time>2026-03-27T13:36:48Z</time></trkpt><trkpt lat="40.586696927719416" lon="9.097963155164454"><ele>595.0</ele><time>2026-03-27T13:36:49Z</time></trkpt><trkpt lat="40.5868702968031" lon="9.09798086257348"><ele>592.3333333333334</ele><time>2026-03-27T13:36:50Z</time></trkpt><trkpt lat="40.587054086286486" lon="9.09795266777519"><ele>589.6666666666666</ele><time>2026-03-27T13:36:50.999Z</time></trkpt><trkpt lat="40.587244198444886" lon="9.097902976366615"><ele>587.0</ele><time>2026-03-27T13:36:51.999Z</time></trkpt><trkpt lat="40.58743203479051" lon="9.097873842930086"><ele>587.0</ele><time>2026-03-27T13:36:52.999Z</time></trkpt><trkpt lat="40.58760306863943" lon="9.097838572775474"><ele>587.0</ele><time>2026-03-27T13:36:53.999Z</time></trkpt><trkpt lat="40.58777669748168" lon="9.097798633480148"><ele>587.0</ele><time>2026-03-27T13:36:54.999Z</time></trkpt><trkpt lat="40.58795794890418" lon="9.097854735836503"><ele>585.3333333333333</ele><time>2026-03-27T13:36:55.999Z</time></trkpt><trkpt lat="40.58814977649863" lon="9.097884360379837"><ele>583.6666666666666</ele><time>2026-03-27T13:36:56.999Z</time></trkpt><trkpt lat="40.58834509789143" lon="9.097941528261202"><ele>582.0</ele><time>2026-03-27T13:36:57.999Z</time></trkpt><trkpt lat="40.58854888442579" lon="9.097997518051683"><ele>579.0</ele><time>2026-03-27T13:36:58.999Z</time></trkpt><trkpt lat="40.5887576396144" lon="9.098055920116101"><ele>576.0</ele><time>2026-03-27T13:36:59.999Z</time></trkpt><trkpt lat="40.588961068916426" lon="9.098110824106774"><ele>573.0</ele><time>2026-03-27T13:37:00.999Z</time></trkpt><trkpt lat="40.58916737284358" lon="9.098145789046674"><ele>573.0</ele><time>2026-03-27T13:37:01.999Z</time></trkpt><trkpt lat="40.589364225690716" lon="9.098212044213156"><ele>573.0</ele><time>2026-03-27T13:37:02.999Z</time></trkpt><trkpt lat="40.58954518533439" lon="9.098251521703892"><ele>573.0</ele><time>2026-03-27T13:37:03.999Z</time></trkpt><trkpt lat="40.589749585622286" lon="9.098073443818286"><ele>571.6666666666666</ele><time>2026-03-27T13:37:04.999Z</time></trkpt><trkpt lat="40.58992345133045" lon="9.098035962936446"><ele>570.3333333333333</ele><time>2026-03-27T13:37:05.999Z</time></trkpt><trkpt lat="40.59009318419807" lon="9.097996761884463"><ele>569.0</ele><time>2026-03-27T13:37:06.999Z</time></trkpt><trkpt lat="40.590270307522346" lon="9.097956743715597"><ele>567.6666666666666</ele><time>2026-03-27T13:37:07.999Z</time></trkpt><trkpt lat="40.59043924234961" lon="9.097910272020318"><ele>566.3333333333334</ele><time>2026-03-27T13:37:08.999Z</time></trkpt><trkpt lat="40.590604833665765" lon="9.09785845565867"><ele>565.0</ele><time>2026-03-27T13:37:09.999Z</time></trkpt><trkpt lat="40.59077811902576" lon="9.097820227014521"><ele>565.0</ele><time>2026-03-27T13:37:10.999Z</time></trkpt><trkpt lat="40.59094692726538" lon="9.097825791727848"><ele>565.0</ele><time>2026-03-27T13:37:11.999Z</time></trkpt><trkpt lat="40.59111514630655" lon="9.097896397717149"><ele>565.0</ele><time>2026-03-27T13:37:12.999Z</time></trkpt><trkpt lat="40.5912766919959" lon="9.098004614761576"><ele>566.3333333333334</ele><time>2026-03-27T13:37:13.999Z</time></trkpt><trkpt lat="40.591433269210434" lon="9.098130427140934"><ele>567.6666666666666</ele><time>2026-03-27T13:37:14.999Z</time></trkpt><trkpt lat="40.59157831632585" lon="9.098287926167036"><ele>569.0</ele><time>2026-03-27T13:37:15.999Z</time></trkpt><trkpt lat="40.59170758390087" lon="9.098467745439619"><ele>569.0</ele><time>2026-03-27T13:37:16.999Z</time></trkpt><trkpt lat="40.59181090068261" lon="9.098653288578317"><ele>569.0</ele><time>2026-03-27T13:37:17.999Z</time></trkpt><trkpt lat="40.59192130851232" lon="9.098824697470098"><ele>569.0</ele><time>2026-03-27T13:37:18.999Z</time></trkpt><trkpt lat="40.59205791490256" lon="9.098979321573022"><ele>566.6666666666666</ele><time>2026-03-27T13:37:19.999Z</time></trkpt><trkpt lat="40.592212543732735" lon="9.099111247792269"><ele>564.3333333333334</ele><time>2026-03-27T13:37:20.999Z</time></trkpt><trkpt lat="40.592386638049476" lon="9.099217129060646"><ele>562.0</ele><time>2026-03-27T13:37:21.999Z</time></trkpt><trkpt lat="40.592574163373975" lon="9.099312243489983"><ele>562.0</ele><time>2026-03-27T13:37:22.999Z</time></trkpt><trkpt lat="40.59276255886659" lon="9.099405635675348"><ele>562.0</ele><time>2026-03-27T13:37:23.999Z</time></trkpt><trkpt lat="40.59295028234661" lon="9.099493560027117"><ele>562.0</ele><time>2026-03-27T13:37:24.999Z</time></trkpt><trkpt lat="40.5931287108534" lon="9.099587337022006"><ele>562.3333333333334</ele><time>2026-03-27T13:37:25.999Z</time></trkpt><trkpt lat="40.593300559358426" lon="9.09968950619571"><ele>562.6666666666666</ele><time>2026-03-27T13:37:26.999Z</time></trkpt><trkpt lat="40.593459902771194" lon="9.09979852002911"><ele>563.0</ele><time>2026-03-27T13:37:27.999Z</time></trkpt><trkpt lat="40.593615371406216" lon="9.099922127964803"><ele>555.0</ele><time>2026-03-27T13:37:28.999Z</time></trkpt><trkpt lat="40.59375336249587" lon="9.100066716364019"><ele>547.0</ele><time>2026-03-27T13:37:29.999Z</time></trkpt><trkpt lat="40.59386803359313" lon="9.100246965081215"><ele>539.0</ele><time>2026-03-27T13:37:30.999Z</time></trkpt><trkpt lat="40.593946568984805" lon="9.100454587623275"><ele>539.0</ele><time>2026-03-27T13:37:31.999Z</time></trkpt><trkpt lat="40.59399716129208" lon="9.100660561549411"><ele>539.0</ele><time>2026-03-27T13:37:32.999Z</time></trkpt><trkpt lat="40.59405491855792" lon="9.100863684778906"><ele>539.0</ele><time>2026-03-27T13:37:33.999Z</time></trkpt><trkpt lat="40.59412706795311" lon="9.101064921738356"><ele>543.0</ele><time>2026-03-27T13:37:34.999Z</time></trkpt><trkpt lat="40.594223083043495" lon="9.101253232408698"><ele>547.0</ele><time>2026-03-27T13:37:35.999Z</time></trkpt><trkpt lat="40.5943401633762" lon="9.1014319272679"><ele>551.0</ele><time>2026-03-27T13:37:36.999Z</time></trkpt><trkpt lat="40.59447655612665" lon="9.101598438713555"><ele>546.0</ele><time>2026-03-27T13:37:37.999Z</time></trkpt><trkpt lat="40.594624893140754" lon="9.101758136213027"><ele>541.0</ele><time>2026-03-27T13:37:38.999Z</time></trkpt><trkpt lat="40.594782223657155" lon="9.101922471844217"><ele>536.0</ele><time>2026-03-27T13:37:39.999Z</time></trkpt><trkpt lat="40.59494503313986" lon="9.102092060662248"><ele>536.0</ele><time>2026-03-27T13:37:40.999Z</time></trkpt><trkpt lat="40.59510461349973" lon="9.1022616944294"><ele>536.0</ele><time>2026-03-27T13:37:41.999Z</time></trkpt><trkpt lat="40.59525544890082" lon="9.102426507327078"><ele>536.0</ele><time>2026-03-27T13:37:42.999Z</time></trkpt><trkpt lat="40.59539857720949" lon="9.102585365375852"><ele>532.6666666666666</ele><time>2026-03-27T13:37:43.999Z</time></trkpt><trkpt lat="40.59553838644574" lon="9.102742926557092"><ele>529.3333333333334</ele><time>2026-03-27T13:37:44.999Z</time></trkpt><trkpt lat="40.59567861997955" lon="9.102900448650132"><ele>526.0</ele><time>2026-03-27T13:37:45.999Z</time></trkpt><trkpt lat="40.59582073702892" lon="9.103056242194475"><ele>526.0</ele><time>2026-03-27T13:37:46.998Z</time></trkpt><trkpt lat="40.59596753459075" lon="9.103221168525238"><ele>526.0</ele><time>2026-03-27T13:37:47.998Z</time></trkpt><trkpt lat="40.5961140254885" lon="9.10340184627035"><ele>526.0</ele><time>2026-03-27T13:37:48.998Z</time></trkpt><trkpt lat="40.59625869377012" lon="9.10359151095116"><ele>524.3333333333334</ele><time>2026-03-27T13:37:49.998Z</time></trkpt><trkpt lat="40.5964041735513" lon="9.10378856114166"><ele>522.6666666666666</ele><time>2026-03-27T13:37:50.998Z</time></trkpt><trkpt lat="40.596546489052116" lon="9.1039775797027"><ele>521.0</ele><time>2026-03-27T13:37:51.998Z</time></trkpt><trkpt lat="40.59668750877029" lon="9.104157155069288"><ele>518.0</ele><time>2026-03-27T13:37:52.998Z</time></trkpt><trkpt lat="40.59682175961075" lon="9.104330743258135"><ele>515.0</ele><time>2026-03-27T13:37:53.998Z</time></trkpt><trkpt lat="40.59694031361772" lon="9.104498320753017"><ele>512.0</ele><time>2026-03-27T13:37:54.998Z</time></trkpt><trkpt lat="40.59702973369058" lon="9.10467417950277"><ele>512.0</ele><time>2026-03-27T13:37:55.998Z</time></trkpt><trkpt lat="40.59708801867105" lon="9.10487318603636"><ele>512.0</ele><time>2026-03-27T13:37:56.998Z</time></trkpt><trkpt lat="40.597126088686586" lon="9.105097254065262"><ele>512.0</ele><time>2026-03-27T13:37:57.998Z</time></trkpt><trkpt lat="40.597158768338694" lon="9.105322537005444"><ele>513.3333333333333</ele><time>2026-03-27T13:37:58.998Z</time></trkpt><trkpt lat="40.597203100996474" lon="9.105532742325645"><ele>514.6666666666666</ele><time>2026-03-27T13:37:59.998Z</time></trkpt><trkpt lat="40.59727793438539" lon="9.1057428454894"><ele>516.0</ele><time>2026-03-27T13:38:00.998Z</time></trkpt><trkpt lat="40.59738170129363" lon="9.105944087466051"><ele>516.0</ele><time>2026-03-27T13:38:01.998Z</time></trkpt><trkpt lat="40.597505533027494" lon="9.106130971049254"><ele>516.0</ele><time>2026-03-27T13:38:02.998Z</time></trkpt><trkpt lat="40.59763397944486" lon="9.106285170218705"><ele>516.0</ele><time>2026-03-27T13:38:03.998Z</time></trkpt><trkpt lat="40.597774118126495" lon="9.10640678257595"><ele>514.6666666666666</ele><time>2026-03-27T13:38:04.998Z</time></trkpt><trkpt lat="40.59792896090058" lon="9.10649092366137"><ele>513.3333333333333</ele><time>2026-03-27T13:38:05.998Z</time></trkpt><trkpt lat="40.59809982814349" lon="9.106525991425437"><ele>512.0</ele><time>2026-03-27T13:38:06.998Z</time></trkpt><trkpt lat="40.598279238275495" lon="9.106528010105206"><ele>512.0</ele><time>2026-03-27T13:38:07.998Z</time></trkpt><trkpt lat="40.59845906415953" lon="9.106518812661557"><ele>512.0</ele><time>2026-03-27T13:38:08.998Z</time></trkpt><trkpt lat="40.598622286162794" lon="9.106504693859305"><ele>512.0</ele><time>2026-03-27T13:38:09.998Z</time></trkpt><trkpt lat="40.598774650357164" lon="9.106507783236863"><ele>510.3333333333333</ele><time>2026-03-27T13:38:10.998Z</time></trkpt><trkpt lat="40.59893034632549" lon="9.106548890768057"><ele>508.66666666666663</ele><time>2026-03-27T13:38:11.998Z</time></trkpt><trkpt lat="40.59908249164483" lon="9.10663258444294"><ele>507.0</ele><time>2026-03-27T13:38:12.998Z</time></trkpt><trkpt lat="40.599230980363075" lon="9.106748141761551"><ele>507.66666666666663</ele><time>2026-03-27T13:38:13.998Z</time></trkpt><trkpt lat="40.5993881591273" lon="9.106864662180163"><ele>508.3333333333333</ele><time>2026-03-27T13:38:14.998Z</time></trkpt><trkpt lat="40.599551801536414" lon="9.106985006324196"><ele>509.0</ele><time>2026-03-27T13:38:16Z</time></trkpt><trkpt lat="40.599717801927724" lon="9.107110533638508"><ele>509.0</ele><time>2026-03-27T13:38:17Z</time></trkpt><trkpt lat="40.599888026145145" lon="9.10723788742586"><ele>509.0</ele><time>2026-03-27T13:38:18Z</time></trkpt><trkpt lat="40.60005616852925" lon="9.107365277394118"><ele>509.0</ele><time>2026-03-27T13:38:19Z</time></trkpt><trkpt lat="40.60022589194573" lon="9.107493690157652"><ele>511.0</ele><time>2026-03-27T13:38:20Z</time></trkpt><trkpt lat="40.60039570765366" lon="9.107623909591464"><ele>513.0</ele><time>2026-03-27T13:38:21Z</time></trkpt><trkpt lat="40.6005595233837" lon="9.107761369141702"><ele>515.0</ele><time>2026-03-27T13:38:22Z</time></trkpt><trkpt lat="40.600716446702734" lon="9.107903733202189"><ele>515.0</ele><time>2026-03-27T13:38:23Z</time></trkpt><trkpt lat="40.60087175731754" lon="9.108045201840659"><ele>515.0</ele><time>2026-03-27T13:38:24Z</time></trkpt><trkpt lat="40.60103217916227" lon="9.108168131441158"><ele>515.0</ele><time>2026-03-27T13:38:25Z</time></trkpt><trkpt lat="40.601207177671945" lon="9.108260165051027"><ele>513.3333333333333</ele><time>2026-03-27T13:38:26Z</time></trkpt><trkpt lat="40.60139513986326" lon="9.108318273072292"><ele>511.66666666666663</ele><time>2026-03-27T13:38:27Z</time></trkpt><trkpt lat="40.60158476688059" lon="9.108371122086433"><ele>510.0</ele><time>2026-03-27T13:38:28Z</time></trkpt><trkpt lat="40.60176998743683" lon="9.108435193287907"><ele>510.0</ele><time>2026-03-27T13:38:29Z</time></trkpt><trkpt lat="40.60194459791843" lon="9.10850698967536"><ele>510.0</ele><time>2026-03-27T13:38:30Z</time></trkpt><trkpt lat="40.60212158893527" lon="9.108578586493637"><ele>510.0</ele><time>2026-03-27T13:38:31Z</time></trkpt><trkpt lat="40.60230192741227" lon="9.108653217305731"><ele>511.66666666666663</ele><time>2026-03-27T13:38:32Z</time></trkpt><trkpt lat="40.60248358244234" lon="9.108722598386024"><ele>513.3333333333333</ele><time>2026-03-27T13:38:33Z</time></trkpt><trkpt lat="40.60266835747658" lon="9.108788336662306"><ele>515.0</ele><time>2026-03-27T13:38:34Z</time></trkpt><trkpt lat="40.60286001555106" lon="9.108847705290513"><ele>516.0</ele><time>2026-03-27T13:38:35Z</time></trkpt><trkpt lat="40.60305846766842" lon="9.108896149847526"><ele>517.0</ele><time>2026-03-27T13:38:36Z</time></trkpt><trkpt lat="40.60325075178428" lon="9.108938750868123"><ele>518.0</ele><time>2026-03-27T13:38:37Z</time></trkpt><trkpt lat="40.603434299095724" lon="9.10897876451153"><ele>518.0</ele><time>2026-03-27T13:38:38Z</time></trkpt><trkpt lat="40.603605782275" lon="9.109015668367876"><ele>518.0</ele><time>2026-03-27T13:38:39Z</time></trkpt><trkpt lat="40.60377219966785" lon="9.109047682646962"><ele>518.0</ele><time>2026-03-27T13:38:40Z</time></trkpt><trkpt lat="40.603933359412686" lon="9.109105911682587"><ele>509.66666666666663</ele><time>2026-03-27T13:38:41Z</time></trkpt><trkpt lat="40.604083184625146" lon="9.109228413160235"><ele>501.33333333333337</ele><time>2026-03-27T13:38:42Z</time></trkpt><trkpt lat="40.60422458523884" lon="9.109380107979364"><ele>493.0</ele><time>2026-03-27T13:38:43Z</time></trkpt><trkpt lat="40.60437345110597" lon="9.109528939980537"><ele>494.6666666666667</ele><time>2026-03-27T13:38:44Z</time></trkpt><trkpt lat="40.604533717700775" lon="9.109676279501329"><ele>496.33333333333337</ele><time>2026-03-27T13:38:45Z</time></trkpt><trkpt lat="40.60470362106671" lon="9.10981741433905"><ele>498.0</ele><time>2026-03-27T13:38:46Z</time></trkpt><trkpt lat="40.60487148092521" lon="9.109943892439407"><ele>492.66666666666663</ele><time>2026-03-27T13:38:47Z</time></trkpt><trkpt lat="40.60503300093906" lon="9.110058053015713"><ele>487.3333333333333</ele><time>2026-03-27T13:38:48Z</time></trkpt><trkpt lat="40.60518919234937" lon="9.110172510868528"><ele>482.0</ele><time>2026-03-27T13:38:49Z</time></trkpt><trkpt lat="40.605346156591985" lon="9.110301264631344"><ele>481.0</ele><time>2026-03-27T13:38:50Z</time></trkpt><trkpt lat="40.6054928403632" lon="9.110452494261583"><ele>480.0</ele><time>2026-03-27T13:38:50.999Z</time></trkpt><trkpt lat="40.605627597187855" lon="9.11060533336547"><ele>479.0</ele><time>2026-03-27T13:38:51.999Z</time></trkpt><trkpt lat="40.60576016969232" lon="9.110762722269548"><ele>477.0</ele><time>2026-03-27T13:38:52.999Z</time></trkpt><trkpt lat="40.60589520272325" lon="9.11092108353926"><ele>475.0</ele><time>2026-03-27T13:38:53.999Z</time></trkpt><trkpt lat="40.606026073723655" lon="9.111071635358021"><ele>473.0</ele><time>2026-03-27T13:38:54.999Z</time></trkpt><trkpt lat="40.60614868737013" lon="9.111215035595908"><ele>473.0</ele><time>2026-03-27T13:38:55.999Z</time></trkpt><trkpt lat="40.60626961903633" lon="9.111354073987473"><ele>473.0</ele><time>2026-03-27T13:38:56.999Z</time></trkpt><trkpt lat="40.60639040030269" lon="9.111481280760657"><ele>473.0</ele><time>2026-03-27T13:38:57.999Z</time></trkpt><trkpt lat="40.606522183457315" lon="9.111579342316583"><ele>473.0</ele><time>2026-03-27T13:38:58.999Z</time></trkpt><trkpt lat="40.606672314931096" lon="9.111620275026485"><ele>473.0</ele><time>2026-03-27T13:38:59.999Z</time></trkpt><trkpt lat="40.606828553084895" lon="9.111594409780908"><ele>473.0</ele><time>2026-03-27T13:39:00.999Z</time></trkpt><trkpt lat="40.606968834290534" lon="9.111528077799173"><ele>466.75</ele><time>2026-03-27T13:39:01.999Z</time></trkpt><trkpt lat="40.60708782194244" lon="9.11141464417671"><ele>460.5</ele><time>2026-03-27T13:39:02.999Z</time></trkpt><trkpt lat="40.607177205703735" lon="9.111254187309621"><ele>454.25</ele><time>2026-03-27T13:39:03.999Z</time></trkpt><trkpt lat="40.60723834048307" lon="9.11107465113662"><ele>448.0</ele><time>2026-03-27T13:39:04.999Z</time></trkpt><trkpt lat="40.60728239402594" lon="9.11089512032914"><ele>446.25</ele><time>2026-03-27T13:39:05.999Z</time></trkpt><trkpt lat="40.60728984686252" lon="9.110718385844823"><ele>444.5</ele><time>2026-03-27T13:39:06.999Z</time></trkpt><trkpt lat="40.60725590344369" lon="9.110558387899356"><ele>442.75</ele><time>2026-03-27T13:39:07.999Z</time></trkpt><trkpt lat="40.607189401735205" lon="9.110401176156335"><ele>441.0</ele><time>2026-03-27T13:39:08.999Z</time></trkpt><trkpt lat="40.60710940814413" lon="9.110237387378753"><ele>441.0</ele><time>2026-03-27T13:39:09.999Z</time></trkpt><trkpt lat="40.607030901842485" lon="9.11005844283382"><ele>441.0</ele><time>2026-03-27T13:39:10.999Z</time></trkpt><trkpt lat="40.60694909146058" lon="9.109857296367935"><ele>441.0</ele><time>2026-03-27T13:39:11.999Z</time></trkpt><trkpt lat="40.60687050301446" lon="9.109668340300932"><ele>445.25</ele><time>2026-03-27T13:39:12.999Z</time></trkpt><trkpt lat="40.60679996506472" lon="9.109489962172571"><ele>449.5</ele><time>2026-03-27T13:39:13.999Z</time></trkpt><trkpt lat="40.60675105884324" lon="9.109307714202899"><ele>453.75</ele><time>2026-03-27T13:39:14.999Z</time></trkpt><trkpt lat="40.60673575599279" lon="9.109121678346638"><ele>458.0</ele><time>2026-03-27T13:39:15.999Z</time></trkpt><trkpt lat="40.60676212266333" lon="9.108940077135872"><ele>460.0</ele><time>2026-03-27T13:39:16.999Z</time></trkpt><trkpt lat="40.60684582511515" lon="9.10877274744966"><ele>462.0</ele><time>2026-03-27T13:39:17.999Z</time></trkpt><trkpt lat="40.60696315489641" lon="9.108619276595256"><ele>464.0</ele><time>2026-03-27T13:39:18.999Z</time></trkpt><trkpt lat="40.607077297511815" lon="9.108458718837852"><ele>461.0</ele><time>2026-03-27T13:39:19.999Z</time></trkpt><trkpt lat="40.60719571115607" lon="9.108289905046064"><ele>458.0</ele><time>2026-03-27T13:39:20.999Z</time></trkpt><trkpt lat="40.60731575044819" lon="9.108108881485546"><ele>455.0</ele><time>2026-03-27T13:39:21.999Z</time></trkpt><trkpt lat="40.60742970320676" lon="9.107924906452064"><ele>455.0</ele><time>2026-03-27T13:39:22.999Z</time></trkpt><trkpt lat="40.60753676153088" lon="9.107754039331317"><ele>455.0</ele><time>2026-03-27T13:39:23.999Z</time></trkpt><trkpt lat="40.607653537539825" lon="9.107606346008183"><ele>455.0</ele><time>2026-03-27T13:39:24.999Z</time></trkpt><trkpt lat="40.60779282238509" lon="9.107511466991683"><ele>450.3333333333333</ele><time>2026-03-27T13:39:25.999Z</time></trkpt><trkpt lat="40.607947326656834" lon="9.107462605970055"><ele>445.66666666666663</ele><time>2026-03-27T13:39:26.999Z</time></trkpt><trkpt lat="40.60810338916079" lon="9.10741368369209"><ele>441.0</ele><time>2026-03-27T13:39:27.999Z</time></trkpt><trkpt lat="40.60827231356489" lon="9.107398834279241"><ele>441.0</ele><time>2026-03-27T13:39:28.999Z</time></trkpt><trkpt lat="40.60839816059755" lon="9.10734039591386"><ele>441.0</ele><time>2026-03-27T13:39:29.999Z</time></trkpt><trkpt lat="40.60849992709641" lon="9.107222841771792"><ele>441.0</ele><time>2026-03-27T13:39:30.999Z</time></trkpt><trkpt lat="40.608550192105625" lon="9.107057253339933"><ele>441.0</ele><time>2026-03-27T13:39:31.999Z</time></trkpt><trkpt lat="40.60859233088618" lon="9.106870170627088"><ele>441.0</ele><time>2026-03-27T13:39:32.999Z</time></trkpt><trkpt lat="40.60861730126541" lon="9.10666811623623"><ele>441.0</ele><time>2026-03-27T13:39:33.999Z</time></trkpt><trkpt lat="40.60862652663278" lon="9.106436659675227"><ele>441.0</ele><time>2026-03-27T13:39:34.999Z</time></trkpt><trkpt lat="40.60862485398384" lon="9.106194754976226"><ele>439.66666666666663</ele><time>2026-03-27T13:39:35.999Z</time></trkpt><trkpt lat="40.60860499700141" lon="9.105968193398466"><ele>438.3333333333333</ele><time>2026-03-27T13:39:36.999Z</time></trkpt><trkpt lat="40.608594859359016" lon="9.105713957111009"><ele>437.0</ele><time>2026-03-27T13:39:37.999Z</time></trkpt><trkpt lat="40.60859307214636" lon="9.105477346120729"><ele>435.3333333333333</ele><time>2026-03-27T13:39:38.999Z</time></trkpt><trkpt lat="40.60859721604813" lon="9.105253398812954"><ele>433.66666666666663</ele><time>2026-03-27T13:39:39.999Z</time></trkpt><trkpt lat="40.60861145781487" lon="9.105027908717114"><ele>432.0</ele><time>2026-03-27T13:39:40.999Z</time></trkpt><trkpt lat="40.60863608538506" lon="9.104819506741906"><ele>431.25</ele><time>2026-03-27T13:39:41.999Z</time></trkpt><trkpt lat="40.60865701604179" lon="9.104632686286607"><ele>430.5</ele><time>2026-03-27T13:39:42.999Z</time></trkpt><trkpt lat="40.608670538439384" lon="9.104459587918042"><ele>429.75</ele><time>2026-03-27T13:39:43.999Z</time></trkpt><trkpt lat="40.608674973791274" lon="9.10431135051926"><ele>429.0</ele><time>2026-03-27T13:39:44.999Z</time></trkpt><trkpt lat="40.60867397217468" lon="9.104146818412103"><ele>427.6</ele><time>2026-03-27T13:39:45.999Z</time></trkpt><trkpt lat="40.608655384523466" lon="9.103987513768566"><ele>426.2</ele><time>2026-03-27T13:39:46.999Z</time></trkpt><trkpt lat="40.608642949427896" lon="9.103851072985137"><ele>424.8</ele><time>2026-03-27T13:39:47.999Z</time></trkpt><trkpt lat="40.608623052928536" lon="9.103715390155756"><ele>423.40000000000003</ele><time>2026-03-27T13:39:48.999Z</time></trkpt><trkpt lat="40.60860829867181" lon="9.103591886968662"><ele>422.0</ele><time>2026-03-27T13:39:49.998Z</time></trkpt><trkpt lat="40.608588991502224" lon="9.103464499130103"><ele>421.99999999999994</ele><time>2026-03-27T13:39:50.998Z</time></trkpt><trkpt lat="40.60860682865257" lon="9.10334071903814"><ele>422.0</ele><time>2026-03-27T13:39:52.998Z</time></trkpt><trkpt lat="40.60865915992146" lon="9.103287152804192"><ele>422.0</ele><time>2026-03-27T13:39:55.998Z</time></trkpt><trkpt lat="40.608713185381376" lon="9.103402060833426"><ele>422.0</ele><time>2026-03-27T13:39:58.998Z</time></trkpt><trkpt lat="40.6087253939104" lon="9.103486261427447"><ele>421.99999999999994</ele><time>2026-03-27T13:39:59.998Z</time></trkpt><trkpt lat="40.60874767420154" lon="9.103598244569527"><ele>422.0</ele><time>2026-03-27T13:40:00.998Z</time></trkpt><trkpt lat="40.60877837803704" lon="9.103733862211701"><ele>415.5</ele><time>2026-03-27T13:40:01.998Z</time></trkpt><trkpt lat="40.6088316924098" lon="9.103874595187195"><ele>409.0</ele><time>2026-03-27T13:40:02.998Z</time></trkpt><trkpt lat="40.60891338635399" lon="9.104023262160515"><ele>402.5</ele><time>2026-03-27T13:40:03.998Z</time></trkpt><trkpt lat="40.60900201014263" lon="9.104188811142361"><ele>396.0</ele><time>2026-03-27T13:40:04.998Z</time></trkpt><trkpt lat="40.60908437890514" lon="9.104371643455597"><ele>396.0</ele><time>2026-03-27T13:40:05.998Z</time></trkpt><trkpt lat="40.60916731879995" lon="9.10454227853371"><ele>396.0</ele><time>2026-03-27T13:40:06.998Z</time></trkpt><trkpt lat="40.60924357283253" lon="9.1047026942902"><ele>396.0</ele><time>2026-03-27T13:40:07.998Z</time></trkpt><trkpt lat="40.609322554220576" lon="9.104860332372873"><ele>396.0</ele><time>2026-03-27T13:40:08.998Z</time></trkpt><trkpt lat="40.6094023625229" lon="9.10501336859705"><ele>397.0</ele><time>2026-03-27T13:40:09.998Z</time></trkpt><trkpt lat="40.60947864709123" lon="9.105161210411918"><ele>398.0</ele><time>2026-03-27T13:40:10.998Z</time></trkpt><trkpt lat="40.60955694800109" lon="9.105309710666692"><ele>399.0</ele><time>2026-03-27T13:40:11.998Z</time></trkpt><trkpt lat="40.60963666256376" lon="9.105454180596006"><ele>400.0</ele><time>2026-03-27T13:40:12.998Z</time></trkpt><trkpt lat="40.60972217180801" lon="9.105588360661935"><ele>395.5</ele><time>2026-03-27T13:40:13.998Z</time></trkpt><trkpt lat="40.60981664596627" lon="9.105709827121823"><ele>391.0</ele><time>2026-03-27T13:40:14.998Z</time></trkpt><trkpt lat="40.609916902025645" lon="9.105825257827352"><ele>386.5</ele><time>2026-03-27T13:40:15.998Z</time></trkpt><trkpt lat="40.610018850735294" lon="9.105937340243711"><ele>382.0</ele><time>2026-03-27T13:40:16.998Z</time></trkpt><trkpt lat="40.61012479948333" lon="9.106047803508474"><ele>382.0</ele><time>2026-03-27T13:40:17.998Z</time></trkpt><trkpt lat="40.61023018826677" lon="9.106165993545872"><ele>382.0</ele><time>2026-03-27T13:40:18.998Z</time></trkpt><trkpt lat="40.61034005213647" lon="9.106287210568322"><ele>382.0</ele><time>2026-03-27T13:40:19.998Z</time></trkpt><trkpt lat="40.610451219576674" lon="9.10640915305726"><ele>382.0</ele><time>2026-03-27T13:40:20.998Z</time></trkpt><trkpt lat="40.6105616745469" lon="9.106545935099973"><ele>378.0</ele><time>2026-03-27T13:40:22Z</time></trkpt><trkpt lat="40.61067460566094" lon="9.106703031231884"><ele>374.0</ele><time>2026-03-27T13:40:23Z</time></trkpt><trkpt lat="40.61079319053325" lon="9.106866907036055"><ele>370.0</ele><time>2026-03-27T13:40:24Z</time></trkpt><trkpt lat="40.610911686826455" lon="9.107032405125683"><ele>370.0</ele><time>2026-03-27T13:40:25Z</time></trkpt><trkpt lat="40.61102623304647" lon="9.10721294853403"><ele>370.0</ele><time>2026-03-27T13:40:26Z</time></trkpt><trkpt lat="40.61112678571781" lon="9.107417670433456"><ele>370.0</ele><time>2026-03-27T13:40:27Z</time></trkpt><trkpt lat="40.611220873622706" lon="9.10764838603061"><ele>369.66666666666663</ele><time>2026-03-27T13:40:28Z</time></trkpt><trkpt lat="40.61131388069157" lon="9.107881030106887"><ele>369.3333333333333</ele><time>2026-03-27T13:40:29Z</time></trkpt><trkpt lat="40.61142011716326" lon="9.108083570341398"><ele>369.0</ele><time>2026-03-27T13:40:30Z</time></trkpt><trkpt lat="40.61154535424161" lon="9.10827798675262"><ele>369.0</ele><time>2026-03-27T13:40:31Z</time></trkpt><trkpt lat="40.61167776557504" lon="9.108465508235712"><ele>369.0</ele><time>2026-03-27T13:40:32Z</time></trkpt><trkpt lat="40.6118041938334" lon="9.108660956667556"><ele>369.0</ele><time>2026-03-27T13:40:33Z</time></trkpt><trkpt lat="40.61192674665211" lon="9.108872681733272"><ele>368.6666666666667</ele><time>2026-03-27T13:40:34Z</time></trkpt><trkpt lat="40.612044196292906" lon="9.109079652696359"><ele>368.33333333333337</ele><time>2026-03-27T13:40:35Z</time></trkpt><trkpt lat="40.61216579822707" lon="9.109277962752996"><ele>368.0</ele><time>2026-03-27T13:40:36Z</time></trkpt><trkpt lat="40.612283856893725" lon="9.109470461016006"><ele>368.0</ele><time>2026-03-27T13:40:37Z</time></trkpt><trkpt lat="40.612389972170796" lon="9.109651918207673"><ele>368.0</ele><time>2026-03-27T13:40:38Z</time></trkpt><trkpt lat="40.612487445361026" lon="9.10979029046525"><ele>368.0</ele><time>2026-03-27T13:40:39Z</time></trkpt><trkpt lat="40.61255912562641" lon="9.109910157604643"><ele>368.0</ele><time>2026-03-27T13:40:40Z</time></trkpt><trkpt lat="40.61259931047779" lon="9.110023634640807"><ele>367.59999999999997</ele><time>2026-03-27T13:40:41Z</time></trkpt><trkpt lat="40.61260164234253" lon="9.11013255290106"><ele>367.2</ele><time>2026-03-27T13:40:42Z</time></trkpt><trkpt lat="40.61257392738767" lon="9.110237187504985"><ele>366.8</ele><time>2026-03-27T13:40:43Z</time></trkpt><trkpt lat="40.61251196999281" lon="9.110360001590147"><ele>366.4</ele><time>2026-03-27T13:40:44Z</time></trkpt><trkpt lat="40.61246631677831" lon="9.110486276097248"><ele>366.0</ele><time>2026-03-27T13:40:45Z</time></trkpt><trkpt lat="40.612470727138195" lon="9.110617921489375"><ele>366.75</ele><time>2026-03-27T13:40:46Z</time></trkpt><trkpt lat="40.612518996197814" lon="9.110751579516892"><ele>367.5</ele><time>2026-03-27T13:40:47Z</time></trkpt><trkpt lat="40.61258911931089" lon="9.110867042632943"><ele>368.25</ele><time>2026-03-27T13:40:48Z</time></trkpt><trkpt lat="40.61267384507416" lon="9.110962233768944"><ele>369.0</ele><time>2026-03-27T13:40:49Z</time></trkpt><trkpt lat="40.61276599946991" lon="9.111063720447616"><ele>368.0</ele><time>2026-03-27T13:40:50Z</time></trkpt><trkpt lat="40.612859803916585" lon="9.111184484173272"><ele>367.0</ele><time>2026-03-27T13:40:51Z</time></trkpt><trkpt lat="40.61292604168893" lon="9.111339532424639"><ele>366.0</ele><time>2026-03-27T13:40:52Z</time></trkpt><trkpt lat="40.61297678958598" lon="9.11151631324752"><ele>365.0</ele><time>2026-03-27T13:40:53Z</time></trkpt><trkpt lat="40.613027403493625" lon="9.111699540943949"><ele>365.0</ele><time>2026-03-27T13:40:54Z</time></trkpt><trkpt lat="40.613079907558756" lon="9.111891837036264"><ele>365.0</ele><time>2026-03-27T13:40:55Z</time></trkpt><trkpt lat="40.613137513992775" lon="9.11209089323339"><ele>365.0</ele><time>2026-03-27T13:40:55.999Z</time></trkpt><trkpt lat="40.613203755551275" lon="9.112294998814615"><ele>365.0</ele><time>2026-03-27T13:40:56.999Z</time></trkpt><trkpt lat="40.613273387573074" lon="9.112504531717082"><ele>365.0</ele><time>2026-03-27T13:40:57.999Z</time></trkpt><trkpt lat="40.61334654319737" lon="9.112719815616293"><ele>365.0</ele><time>2026-03-27T13:40:58.999Z</time></trkpt><trkpt lat="40.613421380732056" lon="9.112937665461494"><ele>365.0</ele><time>2026-03-27T13:40:59.999Z</time></trkpt><trkpt lat="40.61349707530925" lon="9.113159504709202"><ele>365.0</ele><time>2026-03-27T13:41:00.999Z</time></trkpt><trkpt lat="40.613573772864875" lon="9.113380705700768"><ele>365.0</ele><time>2026-03-27T13:41:01.999Z</time></trkpt><trkpt lat="40.6136508900444" lon="9.113612013913075"><ele>364.6666666666667</ele><time>2026-03-27T13:41:02.999Z</time></trkpt><trkpt lat="40.61372929519294" lon="9.113852885308487"><ele>364.3333333333333</ele><time>2026-03-27T13:41:03.999Z</time></trkpt><trkpt lat="40.61380980348101" lon="9.114100657804002"><ele>364.0</ele><time>2026-03-27T13:41:04.999Z</time></trkpt><trkpt lat="40.613893170654165" lon="9.114346212037532"><ele>363.66666666666663</ele><time>2026-03-27T13:41:05.999Z</time></trkpt><trkpt lat="40.613981912789974" lon="9.114595870214835"><ele>363.3333333333333</ele><time>2026-03-27T13:41:06.999Z</time></trkpt><trkpt lat="40.614073260465794" lon="9.114846439871926"><ele>363.0</ele><time>2026-03-27T13:41:07.999Z</time></trkpt><trkpt lat="40.614168396122786" lon="9.115096297131782"><ele>363.0</ele><time>2026-03-27T13:41:08.999Z</time></trkpt><trkpt lat="40.614263081782184" lon="9.115345432321806"><ele>363.0</ele><time>2026-03-27T13:41:09.999Z</time></trkpt><trkpt lat="40.61436126539043" lon="9.11559477176978"><ele>363.0</ele><time>2026-03-27T13:41:10.999Z</time></trkpt><trkpt lat="40.61445431932166" lon="9.115843761711622"><ele>363.6666666666667</ele><time>2026-03-27T13:41:11.999Z</time></trkpt><trkpt lat="40.61455046370688" lon="9.11609387817526"><ele>364.33333333333337</ele><time>2026-03-27T13:41:12.999Z</time></trkpt><trkpt lat="40.61465127288334" lon="9.116339422702486"><ele>365.0</ele><time>2026-03-27T13:41:13.999Z</time></trkpt><trkpt lat="40.61474611555602" lon="9.116587532044006"><ele>365.0</ele><time>2026-03-27T13:41:14.999Z</time></trkpt><trkpt lat="40.614836502319676" lon="9.116839002063786"><ele>365.0</ele><time>2026-03-27T13:41:15.999Z</time></trkpt><trkpt lat="40.61493031793665" lon="9.117087928182334"><ele>365.0</ele><time>2026-03-27T13:41:16.999Z</time></trkpt><trkpt lat="40.61502702787931" lon="9.117328182862565"><ele>364.33333333333337</ele><time>2026-03-27T13:41:17.999Z</time></trkpt><trkpt lat="40.61512597182" lon="9.1175715571881"><ele>363.6666666666667</ele><time>2026-03-27T13:41:18.999Z</time></trkpt><trkpt lat="40.61522450134017" lon="9.117811638369787"><ele>363.0</ele><time>2026-03-27T13:41:19.999Z</time></trkpt><trkpt lat="40.61532607518504" lon="9.11804216276411"><ele>363.0</ele><time>2026-03-27T13:41:20.999Z</time></trkpt><trkpt lat="40.61542405629393" lon="9.118261474416542"><ele>363.0</ele><time>2026-03-27T13:41:21.999Z</time></trkpt><trkpt lat="40.615512307258356" lon="9.118476019757798"><ele>363.0</ele><time>2026-03-27T13:41:22.999Z</time></trkpt><trkpt lat="40.61558635349174" lon="9.118690221330295"><ele>363.0</ele><time>2026-03-27T13:41:23.999Z</time></trkpt><trkpt lat="40.615650530892026" lon="9.11891027564134"><ele>363.0</ele><time>2026-03-27T13:41:24.999Z</time></trkpt><trkpt lat="40.61570286511676" lon="9.119144555142602"><ele>363.0</ele><time>2026-03-27T13:41:25.999Z</time></trkpt><trkpt lat="40.61574305764732" lon="9.119378877380665"><ele>362.3333333333333</ele><time>2026-03-27T13:41:26.999Z</time></trkpt><trkpt lat="40.61577421559637" lon="9.119608558017422"><ele>361.66666666666663</ele><time>2026-03-27T13:41:27.999Z</time></trkpt><trkpt lat="40.61580136261705" lon="9.1198184151903"><ele>361.0</ele><time>2026-03-27T13:41:28.999Z</time></trkpt><trkpt lat="40.61582435670596" lon="9.120028926434152"><ele>362.66666666666663</ele><time>2026-03-27T13:41:29.999Z</time></trkpt><trkpt lat="40.61584048648322" lon="9.120243331562358"><ele>364.3333333333333</ele><time>2026-03-27T13:41:30.999Z</time></trkpt><trkpt lat="40.615823641723814" lon="9.120455926949884"><ele>366.0</ele><time>2026-03-27T13:41:31.999Z</time></trkpt><trkpt lat="40.61579368815701" lon="9.120644966836686"><ele>368.6666666666667</ele><time>2026-03-27T13:41:32.999Z</time></trkpt><trkpt lat="40.615772944565876" lon="9.120847546803512"><ele>371.33333333333337</ele><time>2026-03-27T13:41:33.999Z</time></trkpt><trkpt lat="40.61577490416209" lon="9.121062868431295"><ele>374.0</ele><time>2026-03-27T13:41:34.999Z</time></trkpt><trkpt lat="40.61578757519289" lon="9.121274428070747"><ele>374.0</ele><time>2026-03-27T13:41:35.999Z</time></trkpt><trkpt lat="40.6158207559657" lon="9.121488071611054"><ele>374.0</ele><time>2026-03-27T13:41:36.999Z</time></trkpt><trkpt lat="40.615876876303" lon="9.121709824208262"><ele>374.0</ele><time>2026-03-27T13:41:37.999Z</time></trkpt><trkpt lat="40.615939538384694" lon="9.121937768590472"><ele>374.33333333333337</ele><time>2026-03-27T13:41:38.999Z</time></trkpt><trkpt lat="40.61602201428154" lon="9.122158812912206"><ele>374.6666666666667</ele><time>2026-03-27T13:41:39.999Z</time></trkpt><trkpt lat="40.6160917705176" lon="9.122373478265015"><ele>375.0</ele><time>2026-03-27T13:41:40.999Z</time></trkpt><trkpt lat="40.616148155844876" lon="9.122580522622455"><ele>376.3333333333333</ele><time>2026-03-27T13:41:41.999Z</time></trkpt><trkpt lat="40.61618531126741" lon="9.122788112821139"><ele>377.66666666666663</ele><time>2026-03-27T13:41:42.999Z</time></trkpt><trkpt lat="40.616211275275646" lon="9.122996067663102"><ele>379.0</ele><time>2026-03-27T13:41:43.999Z</time></trkpt><trkpt lat="40.616255871019085" lon="9.123189602564183"><ele>379.0</ele><time>2026-03-27T13:41:44.999Z</time></trkpt><trkpt lat="40.61632692892115" lon="9.123380214460623"><ele>379.0</ele><time>2026-03-27T13:41:45.999Z</time></trkpt><trkpt lat="40.61641957202159" lon="9.123570007827736"><ele>379.0</ele><time>2026-03-27T13:41:46.999Z</time></trkpt><trkpt lat="40.61651470129924" lon="9.123753599896634"><ele>379.0</ele><time>2026-03-27T13:41:47.999Z</time></trkpt><trkpt lat="40.61659811301268" lon="9.123941931115908"><ele>379.0</ele><time>2026-03-27T13:41:48.999Z</time></trkpt><trkpt lat="40.61665957222933" lon="9.124131201266195"><ele>379.0</ele><time>2026-03-27T13:41:49.999Z</time></trkpt><trkpt lat="40.616692006410354" lon="9.124347001866001"><ele>380.0</ele><time>2026-03-27T13:41:50.999Z</time></trkpt><trkpt lat="40.616706187664235" lon="9.12457220002933"><ele>381.0</ele><time>2026-03-27T13:41:51.999Z</time></trkpt><trkpt lat="40.616706570613665" lon="9.124804034323827"><ele>382.0</ele><time>2026-03-27T13:41:52.998Z</time></trkpt><trkpt lat="40.616703674102375" lon="9.125043781976972"><ele>383.5</ele><time>2026-03-27T13:41:53.998Z</time></trkpt><trkpt lat="40.61669319577769" lon="9.125254990048644"><ele>385.0</ele><time>2026-03-27T13:41:54.998Z</time></trkpt><trkpt lat="40.61668174846366" lon="9.125438651856431"><ele>386.5</ele><time>2026-03-27T13:41:55.998Z</time></trkpt><trkpt lat="40.61668673765117" lon="9.125617030257821"><ele>388.0</ele><time>2026-03-27T13:41:56.998Z</time></trkpt><trkpt lat="40.61669490410411" lon="9.12582280643377"><ele>389.0</ele><time>2026-03-27T13:41:57.998Z</time></trkpt><trkpt lat="40.61673490045232" lon="9.126034224030432"><ele>390.0</ele><time>2026-03-27T13:41:58.998Z</time></trkpt><trkpt lat="40.61678410606574" lon="9.126242202275854"><ele>391.0</ele><time>2026-03-27T13:41:59.998Z</time></trkpt><trkpt lat="40.61683718411726" lon="9.126471077467977"><ele>391.33333333333337</ele><time>2026-03-27T13:42:00.998Z</time></trkpt><trkpt lat="40.61688042204162" lon="9.126674624451605"><ele>391.66666666666663</ele><time>2026-03-27T13:42:01.998Z</time></trkpt><trkpt lat="40.61692810347949" lon="9.126910740103481"><ele>392.0</ele><time>2026-03-27T13:42:02.998Z</time></trkpt><trkpt lat="40.61697352946185" lon="9.127144258664357"><ele>391.66666666666663</ele><time>2026-03-27T13:42:03.998Z</time></trkpt><trkpt lat="40.61701796958724" lon="9.127363990709107"><ele>391.33333333333337</ele><time>2026-03-27T13:42:04.998Z</time></trkpt><trkpt lat="40.617070324395826" lon="9.127553131185456"><ele>391.0</ele><time>2026-03-27T13:42:05.998Z</time></trkpt><trkpt lat="40.61713478842795" lon="9.127752050996618"><ele>391.0</ele><time>2026-03-27T13:42:06.998Z</time></trkpt><trkpt lat="40.61717450819998" lon="9.12796214705852"><ele>391.0</ele><time>2026-03-27T13:42:07.998Z</time></trkpt><trkpt lat="40.61720053505518" lon="9.128183534082751"><ele>391.0</ele><time>2026-03-27T13:42:08.998Z</time></trkpt><trkpt lat="40.6172151471216" lon="9.128405241941648"><ele>392.6666666666667</ele><time>2026-03-27T13:42:09.998Z</time></trkpt><trkpt lat="40.617261381042205" lon="9.128623399460292"><ele>394.33333333333337</ele><time>2026-03-27T13:42:10.998Z</time></trkpt><trkpt lat="40.61733189960303" lon="9.128839732150043"><ele>396.0</ele><time>2026-03-27T13:42:11.998Z</time></trkpt><trkpt lat="40.61741195195156" lon="9.129064609253737"><ele>397.33333333333337</ele><time>2026-03-27T13:42:12.998Z</time></trkpt><trkpt lat="40.61747419586737" lon="9.129283910017028"><ele>398.6666666666667</ele><time>2026-03-27T13:42:13.998Z</time></trkpt><trkpt lat="40.617507920750676" lon="9.129506828583143"><ele>400.0</ele><time>2026-03-27T13:42:14.998Z</time></trkpt><trkpt lat="40.617551430268634" lon="9.129728666722475"><ele>402.0</ele><time>2026-03-27T13:42:15.998Z</time></trkpt><trkpt lat="40.61761849291913" lon="9.129952266896746"><ele>404.0</ele><time>2026-03-27T13:42:16.998Z</time></trkpt><trkpt lat="40.6176967548437" lon="9.130169805426656"><ele>406.0</ele><time>2026-03-27T13:42:17.998Z</time></trkpt><trkpt lat="40.61777676682558" lon="9.13039276520113"><ele>405.6666666666667</ele><time>2026-03-27T13:42:18.998Z</time></trkpt><trkpt lat="40.61785996691717" lon="9.130614976293625"><ele>405.33333333333337</ele><time>2026-03-27T13:42:19.998Z</time></trkpt><trkpt lat="40.617939583350065" lon="9.130839592181495"><ele>405.0</ele><time>2026-03-27T13:42:20.998Z</time></trkpt><trkpt lat="40.61801583993959" lon="9.131054605040166"><ele>406.0</ele><time>2026-03-27T13:42:21.998Z</time></trkpt><trkpt lat="40.6180806079672" lon="9.13125366036341"><ele>407.0</ele><time>2026-03-27T13:42:22.998Z</time></trkpt><trkpt lat="40.61814675358898" lon="9.131460407008735"><ele>408.0</ele><time>2026-03-27T13:42:23.998Z</time></trkpt><trkpt lat="40.61821866612361" lon="9.131665495618734"><ele>409.33333333333337</ele><time>2026-03-27T13:42:24.998Z</time></trkpt><trkpt lat="40.61829670428412" lon="9.13186312974136"><ele>410.6666666666667</ele><time>2026-03-27T13:42:25.998Z</time></trkpt><trkpt lat="40.61837005715293" lon="9.132061785362593"><ele>412.0</ele><time>2026-03-27T13:42:27Z</time></trkpt><trkpt lat="40.61843319677454" lon="9.132271028385617"><ele>414.0</ele><time>2026-03-27T13:42:28Z</time></trkpt><trkpt lat="40.61848777345262" lon="9.132484950669996"><ele>416.0</ele><time>2026-03-27T13:42:29Z</time></trkpt><trkpt lat="40.618526773648306" lon="9.132706831707479"><ele>418.0</ele><time>2026-03-27T13:42:30Z</time></trkpt><trkpt lat="40.618551100103716" lon="9.132937169417234"><ele>418.0</ele><time>2026-03-27T13:42:31Z</time></trkpt><trkpt lat="40.618569650507" lon="9.133165826724717"><ele>418.0</ele><time>2026-03-27T13:42:32Z</time></trkpt><trkpt lat="40.6185963317851" lon="9.133399635998924"><ele>418.0</ele><time>2026-03-27T13:42:33Z</time></trkpt><trkpt lat="40.618646996177795" lon="9.133624312969975"><ele>418.33333333333337</ele><time>2026-03-27T13:42:34Z</time></trkpt><trkpt lat="40.61871379230933" lon="9.133830878487926"><ele>418.66666666666663</ele><time>2026-03-27T13:42:35Z</time></trkpt><trkpt lat="40.61879265490848" lon="9.13402135055211"><ele>419.0</ele><time>2026-03-27T13:42:36Z</time></trkpt><trkpt lat="40.61889029071947" lon="9.134201614677087"><ele>419.0</ele><time>2026-03-27T13:42:37Z</time></trkpt><trkpt lat="40.618991974900794" lon="9.134385552716404"><ele>419.0</ele><time>2026-03-27T13:42:38Z</time></trkpt><trkpt lat="40.6190873281605" lon="9.134574145666344"><ele>419.0</ele><time>2026-03-27T13:42:39Z</time></trkpt><trkpt lat="40.61915369753939" lon="9.134755356020113"><ele>421.3333333333333</ele><time>2026-03-27T13:42:40Z</time></trkpt><trkpt lat="40.61921599137677" lon="9.134928858617355"><ele>423.66666666666663</ele><time>2026-03-27T13:42:41Z</time></trkpt><trkpt lat="40.6193009814414" lon="9.135094382906484"><ele>426.0</ele><time>2026-03-27T13:42:42Z</time></trkpt><trkpt lat="40.61941111737211" lon="9.135254362248562"><ele>426.0</ele><time>2026-03-27T13:42:43Z</time></trkpt><trkpt lat="40.6195265309057" lon="9.135413719757258"><ele>426.0</ele><time>2026-03-27T13:42:44Z</time></trkpt><trkpt lat="40.61964974611894" lon="9.135574107649909"><ele>426.0</ele><time>2026-03-27T13:42:45Z</time></trkpt><trkpt lat="40.61977360831599" lon="9.13573799777743"><ele>425.66666666666663</ele><time>2026-03-27T13:42:46Z</time></trkpt><trkpt lat="40.61988879633466" lon="9.135902714162249"><ele>425.3333333333333</ele><time>2026-03-27T13:42:47Z</time></trkpt><trkpt lat="40.61999108531633" lon="9.136060699356927"><ele>425.0</ele><time>2026-03-27T13:42:48Z</time></trkpt><trkpt lat="40.62007952062165" lon="9.13623034864221"><ele>425.0</ele><time>2026-03-27T13:42:49Z</time></trkpt><trkpt lat="40.620148076772466" lon="9.136389219925173"><ele>425.0</ele><time>2026-03-27T13:42:50Z</time></trkpt><trkpt lat="40.62019011093263" lon="9.136569174487814"><ele>425.0</ele><time>2026-03-27T13:42:51Z</time></trkpt><trkpt lat="40.62021548008257" lon="9.13675859208525"><ele>425.0</ele><time>2026-03-27T13:42:52Z</time></trkpt><trkpt lat="40.620251954030984" lon="9.136956060279605"><ele>426.66666666666663</ele><time>2026-03-27T13:42:52.999Z</time></trkpt><trkpt lat="40.620304919473355" lon="9.137154918104418"><ele>428.33333333333337</ele><time>2026-03-27T13:42:53.999Z</time></trkpt><trkpt lat="40.620366344315876" lon="9.13735161151928"><ele>430.0</ele><time>2026-03-27T13:42:54.999Z</time></trkpt><trkpt lat="40.62043152164996" lon="9.137541405793408"><ele>434.0</ele><time>2026-03-27T13:42:55.999Z</time></trkpt><trkpt lat="40.620490767282554" lon="9.13772373666913"><ele>438.0</ele><time>2026-03-27T13:42:56.999Z</time></trkpt><trkpt lat="40.62053492305412" lon="9.137903689351136"><ele>442.0</ele><time>2026-03-27T13:42:57.999Z</time></trkpt><trkpt lat="40.62057491628866" lon="9.13808001778793"><ele>446.0</ele><time>2026-03-27T13:42:58.999Z</time></trkpt><trkpt lat="40.620613243039294" lon="9.138254401810686"><ele>446.20000000000005</ele><time>2026-03-27T13:42:59.999Z</time></trkpt><trkpt lat="40.62064196239327" lon="9.138423579057628"><ele>446.40000000000003</ele><time>2026-03-27T13:43:00.999Z</time></trkpt><trkpt lat="40.62063614601516" lon="9.138571469335297"><ele>446.6</ele><time>2026-03-27T13:43:01.999Z</time></trkpt><trkpt lat="40.62061534179951" lon="9.138694660118611"><ele>446.8</ele><time>2026-03-27T13:43:02.999Z</time></trkpt><trkpt lat="40.62061064245367" lon="9.138825789671536"><ele>447.0</ele><time>2026-03-27T13:43:03.999Z</time></trkpt><trkpt lat="40.6206144112537" lon="9.13897933518902"><ele>447.25</ele><time>2026-03-27T13:43:04.999Z</time></trkpt><trkpt lat="40.62062408557407" lon="9.139147723500978"><ele>447.5</ele><time>2026-03-27T13:43:05.999Z</time></trkpt><trkpt lat="40.620634568057184" lon="9.139327344322993"><ele>447.75</ele><time>2026-03-27T13:43:06.999Z</time></trkpt><trkpt lat="40.620643068523655" lon="9.139520303665748"><ele>448.0</ele><time>2026-03-27T13:43:07.999Z</time></trkpt><trkpt lat="40.62065727206396" lon="9.139719448246632"><ele>448.6666666666667</ele><time>2026-03-27T13:43:08.999Z</time></trkpt><trkpt lat="40.62068387355107" lon="9.139928625184645"><ele>449.33333333333337</ele><time>2026-03-27T13:43:09.999Z</time></trkpt><trkpt lat="40.62070973896124" lon="9.14013913790715"><ele>450.0</ele><time>2026-03-27T13:43:10.999Z</time></trkpt><trkpt lat="40.62073811851496" lon="9.14035552247099"><ele>450.0</ele><time>2026-03-27T13:43:11.999Z</time></trkpt><trkpt lat="40.62076704211526" lon="9.140579236340923"><ele>450.0</ele><time>2026-03-27T13:43:12.999Z</time></trkpt><trkpt lat="40.62079411584647" lon="9.140804973995104"><ele>450.0</ele><time>2026-03-27T13:43:13.999Z</time></trkpt><trkpt lat="40.62081829367722" lon="9.141031834038406"><ele>450.66666666666663</ele><time>2026-03-27T13:43:14.999Z</time></trkpt><trkpt lat="40.62084972310967" lon="9.141252259949116"><ele>451.3333333333333</ele><time>2026-03-27T13:43:15.999Z</time></trkpt><trkpt lat="40.62089832433678" lon="9.14146601992269"><ele>452.0</ele><time>2026-03-27T13:43:16.999Z</time></trkpt><trkpt lat="40.620966806543066" lon="9.141672788178047"><ele>452.0</ele><time>2026-03-27T13:43:17.999Z</time></trkpt><trkpt lat="40.621054896297615" lon="9.141869954465047"><ele>452.0</ele><time>2026-03-27T13:43:18.999Z</time></trkpt><trkpt lat="40.62114865549963" lon="9.142064847227756"><ele>452.0</ele><time>2026-03-27T13:43:19.999Z</time></trkpt><trkpt lat="40.62124895589087" lon="9.142259235745914"><ele>457.66666666666663</ele><time>2026-03-27T13:43:20.999Z</time></trkpt><trkpt lat="40.62134963963437" lon="9.142458628803935"><ele>463.33333333333337</ele><time>2026-03-27T13:43:21.999Z</time></trkpt><trkpt lat="40.62144986236465" lon="9.142664556857865"><ele>469.0</ele><time>2026-03-27T13:43:22.999Z</time></trkpt><trkpt lat="40.6215545602337" lon="9.142867206440078"><ele>469.0</ele><time>2026-03-27T13:43:23.999Z</time></trkpt><trkpt lat="40.62165965523344" lon="9.143077469367556"><ele>469.0</ele><time>2026-03-27T13:43:24.999Z</time></trkpt><trkpt lat="40.62176561048011" lon="9.143298832632153"><ele>469.0</ele><time>2026-03-27T13:43:25.999Z</time></trkpt><trkpt lat="40.62187077277618" lon="9.143529582770228"><ele>470.0</ele><time>2026-03-27T13:43:26.999Z</time></trkpt><trkpt lat="40.62197392896876" lon="9.143765024706356"><ele>471.0</ele><time>2026-03-27T13:43:27.999Z</time></trkpt><trkpt lat="40.62207066758616" lon="9.14398857552167"><ele>472.0</ele><time>2026-03-27T13:43:28.999Z</time></trkpt><trkpt lat="40.62215628125106" lon="9.144185263569529"><ele>472.0</ele><time>2026-03-27T13:43:29.999Z</time></trkpt><trkpt lat="40.62223350315456" lon="9.144375396639624"><ele>472.0</ele><time>2026-03-27T13:43:30.999Z</time></trkpt><trkpt lat="40.6222940486036" lon="9.144568720841706"><ele>472.0</ele><time>2026-03-27T13:43:31.999Z</time></trkpt><trkpt lat="40.622330573779976" lon="9.144780723057611"><ele>471.33333333333337</ele><time>2026-03-27T13:43:32.999Z</time></trkpt><trkpt lat="40.62235289105014" lon="9.145019207610678"><ele>470.66666666666663</ele><time>2026-03-27T13:43:33.999Z</time></trkpt><trkpt lat="40.622359213280525" lon="9.145244333963303"><ele>470.0</ele><time>2026-03-27T13:43:34.999Z</time></trkpt><trkpt lat="40.62236752074185" lon="9.145450984379181"><ele>470.0</ele><time>2026-03-27T13:43:35.999Z</time></trkpt><trkpt lat="40.622383134506606" lon="9.145658097149502"><ele>470.0</ele><time>2026-03-27T13:43:36.999Z</time></trkpt><trkpt lat="40.62240099389751" lon="9.14586302104855"><ele>470.0</ele><time>2026-03-27T13:43:37.999Z</time></trkpt><trkpt lat="40.622412412806476" lon="9.146074271625878"><ele>470.66666666666663</ele><time>2026-03-27T13:43:38.999Z</time></trkpt><trkpt lat="40.622425326246365" lon="9.146292475921431"><ele>471.33333333333337</ele><time>2026-03-27T13:43:39.999Z</time></trkpt><trkpt lat="40.62243973179787" lon="9.146518444628985"><ele>472.0</ele><time>2026-03-27T13:43:40.999Z</time></trkpt><trkpt lat="40.62245593443541" lon="9.14674209632523"><ele>474.0</ele><time>2026-03-27T13:43:41.999Z</time></trkpt><trkpt lat="40.6224769841172" lon="9.146968851763301"><ele>476.0</ele><time>2026-03-27T13:43:42.999Z</time></trkpt><trkpt lat="40.62249720214958" lon="9.147198042076097"><ele>478.0</ele><time>2026-03-27T13:43:43.999Z</time></trkpt><trkpt lat="40.622517330108465" lon="9.147431630237705"><ele>479.0</ele><time>2026-03-27T13:43:44.999Z</time></trkpt><trkpt lat="40.62253277283003" lon="9.14767094340709"><ele>480.0</ele><time>2026-03-27T13:43:45.999Z</time></trkpt><trkpt lat="40.62254407227525" lon="9.147914001999654"><ele>481.0</ele><time>2026-03-27T13:43:46.999Z</time></trkpt><trkpt lat="40.62255197559965" lon="9.148122544504801"><ele>482.20000000000005</ele><time>2026-03-27T13:43:47.999Z</time></trkpt><trkpt lat="40.622554837056065" lon="9.148292012024442"><ele>483.40000000000003</ele><time>2026-03-27T13:43:48.999Z</time></trkpt><trkpt lat="40.6225613673806" lon="9.148419933651144"><ele>484.6</ele><time>2026-03-27T13:43:49.998Z</time></trkpt><trkpt lat="40.622564182709475" lon="9.148526746948397"><ele>485.8</ele><time>2026-03-27T13:43:50.998Z</time></trkpt><trkpt lat="40.62256296243244" lon="9.148615593780159"><ele>487.0</ele><time>2026-03-27T13:43:51.998Z</time></trkpt><trkpt lat="40.62256885274525" lon="9.148721840865996"><ele>487.00000000000006</ele><time>2026-03-27T13:43:53.998Z</time></trkpt><trkpt lat="40.62255392543698" lon="9.148815750721758"><ele>487.0</ele><time>2026-03-27T13:43:57.998Z</time></trkpt><trkpt lat="40.622504297831846" lon="9.148874164330588"><ele>487.0</ele><time>2026-03-27T13:44:00.998Z</time></trkpt><trkpt lat="40.622423961161786" lon="9.14882052732081"><ele>487.0</ele><time>2026-03-27T13:44:03.998Z</time></trkpt><trkpt lat="40.62241944130547" lon="9.148722422998617"><ele>487.00000000000006</ele><time>2026-03-27T13:44:05.998Z</time></trkpt><trkpt lat="40.622492445138555" lon="9.148675925863339"><ele>487.0</ele><time>2026-03-27T13:44:08.998Z</time></trkpt><trkpt lat="40.62253484912342" lon="9.148792332842708"><ele>487.00000000000006</ele><time>2026-03-27T13:44:11.998Z</time></trkpt><trkpt lat="40.62254597366516" lon="9.148904878989669"><ele>487.0</ele><time>2026-03-27T13:44:13.998Z</time></trkpt><trkpt lat="40.62258093218977" lon="9.149000223682464"><ele>487.0</ele><time>2026-03-27T13:44:15.998Z</time></trkpt><trkpt lat="40.622564665786626" lon="9.149149902750926"><ele>487.0</ele><time>2026-03-27T13:44:17.998Z</time></trkpt><trkpt lat="40.622557332534704" lon="9.149235087176988"><ele>487.00000000000006</ele><time>2026-03-27T13:44:18.998Z</time></trkpt><trkpt lat="40.62255509362741" lon="9.149331135247015"><ele>487.0</ele><time>2026-03-27T13:44:19.998Z</time></trkpt><trkpt lat="40.62257280171625" lon="9.149444944118285"><ele>487.8</ele><time>2026-03-27T13:44:20.998Z</time></trkpt><trkpt lat="40.622595499782975" lon="9.14957134610184"><ele>488.6</ele><time>2026-03-27T13:44:21.998Z</time></trkpt><trkpt lat="40.62261199074177" lon="9.149698043738985"><ele>489.40000000000003</ele><time>2026-03-27T13:44:22.998Z</time></trkpt><trkpt lat="40.62263502849944" lon="9.149825921377785"><ele>490.20000000000005</ele><time>2026-03-27T13:44:23.998Z</time></trkpt><trkpt lat="40.622659625146476" lon="9.149961294093286"><ele>491.0</ele><time>2026-03-27T13:44:24.998Z</time></trkpt><trkpt lat="40.622685373900865" lon="9.150098742093304"><ele>492.6</ele><time>2026-03-27T13:44:25.998Z</time></trkpt><trkpt lat="40.622709533883324" lon="9.150226704798461"><ele>494.20000000000005</ele><time>2026-03-27T13:44:26.998Z</time></trkpt><trkpt lat="40.62273630047602" lon="9.150360747088472"><ele>495.79999999999995</ele><time>2026-03-27T13:44:27.998Z</time></trkpt><trkpt lat="40.62275581893739" lon="9.150498617962544"><ele>497.4</ele><time>2026-03-27T13:44:28.998Z</time></trkpt><trkpt lat="40.62277913511834" lon="9.150638402793895"><ele>499.0</ele><time>2026-03-27T13:44:29.998Z</time></trkpt><trkpt lat="40.622803210199464" lon="9.150781621484132"><ele>499.0</ele><time>2026-03-27T13:44:30.998Z</time></trkpt><trkpt lat="40.622832139263146" lon="9.150932896904239"><ele>499.0</ele><time>2026-03-27T13:44:31.998Z</time></trkpt><trkpt lat="40.62286142467064" lon="9.151091283685377"><ele>499.0</ele><time>2026-03-27T13:44:33Z</time></trkpt><trkpt lat="40.62288678737068" lon="9.151251246208574"><ele>499.0</ele><time>2026-03-27T13:44:34Z</time></trkpt><trkpt lat="40.6229171277621" lon="9.151407746272627"><ele>500.4</ele><time>2026-03-27T13:44:35Z</time></trkpt><trkpt lat="40.62294707525971" lon="9.151559847132699"><ele>501.79999999999995</ele><time>2026-03-27T13:44:36Z</time></trkpt><trkpt lat="40.62297398344413" lon="9.151695896364522"><ele>503.20000000000005</ele><time>2026-03-27T13:44:37Z</time></trkpt><trkpt lat="40.62300051201224" lon="9.151828943823496"><ele>504.6</ele><time>2026-03-27T13:44:38Z</time></trkpt><trkpt lat="40.623025569411496" lon="9.151961899727441"><ele>506.0</ele><time>2026-03-27T13:44:39Z</time></trkpt><trkpt lat="40.623046408498894" lon="9.152093331924712"><ele>505.99999999999994</ele><time>2026-03-27T13:44:40Z</time></trkpt><trkpt lat="40.62306229942266" lon="9.15222421579094"><ele>506.0</ele><time>2026-03-27T13:44:41Z</time></trkpt><trkpt lat="40.62307875116032" lon="9.152347353896433"><ele>506.0</ele><time>2026-03-27T13:44:42Z</time></trkpt><trkpt lat="40.62309770693402" lon="9.152462961806567"><ele>506.0</ele><time>2026-03-27T13:44:43Z</time></trkpt><trkpt lat="40.62311753826967" lon="9.152565525051598"><ele>505.99999999999994</ele><time>2026-03-27T13:44:44Z</time></trkpt><trkpt lat="40.62313850515703" lon="9.15264716925251"><ele>506.0</ele><time>2026-03-27T13:44:45Z</time></trkpt><trkpt lat="40.62317967157091" lon="9.15280437732244"><ele>507.3333333333333</ele><time>2026-03-27T13:44:47Z</time></trkpt><trkpt lat="40.62320446097409" lon="9.152903989248243"><ele>508.66666666666663</ele><time>2026-03-27T13:44:48Z</time></trkpt><trkpt lat="40.62324004603456" lon="9.153002728314295"><ele>510.0</ele><time>2026-03-27T13:44:49Z</time></trkpt><trkpt lat="40.623290133781296" lon="9.153103616561777"><ele>511.33333333333337</ele><time>2026-03-27T13:44:50Z</time></trkpt><trkpt lat="40.623350494502795" lon="9.153197377141677"><ele>512.6666666666667</ele><time>2026-03-27T13:44:51Z</time></trkpt><trkpt lat="40.62341384720267" lon="9.153287266995479"><ele>514.0</ele><time>2026-03-27T13:44:52Z</time></trkpt><trkpt lat="40.62347423897026" lon="9.1533751540297"><ele>514.8333333333334</ele><time>2026-03-27T13:44:53Z</time></trkpt><trkpt lat="40.623530510658966" lon="9.15346253280853"><ele>515.6666666666667</ele><time>2026-03-27T13:44:54Z</time></trkpt><trkpt lat="40.62357901840646" lon="9.153550482338789"><ele>516.5</ele><time>2026-03-27T13:44:54.999Z</time></trkpt><trkpt lat="40.623618137987336" lon="9.15363373681299"><ele>517.3333333333334</ele><time>2026-03-27T13:44:55.999Z</time></trkpt><trkpt lat="40.62365580324694" lon="9.153758817576788"><ele>518.1666666666666</ele><time>2026-03-27T13:44:57.999Z</time></trkpt><trkpt lat="40.62365108870273" lon="9.153843101801666"><ele>519.0</ele><time>2026-03-27T13:44:59.999Z</time></trkpt><trkpt lat="40.62359647537338" lon="9.153937974085174"><ele>519.3333333333334</ele><time>2026-03-27T13:45:02.999Z</time></trkpt><trkpt lat="40.62360028712893" lon="9.154057731864826"><ele>519.6666666666666</ele><time>2026-03-27T13:45:04.999Z</time></trkpt><trkpt lat="40.623624402581704" lon="9.154197894559942"><ele>520.0</ele><time>2026-03-27T13:45:06.999Z</time></trkpt><trkpt lat="40.623638453219264" lon="9.154291747290943"><ele>520.3333333333333</ele><time>2026-03-27T13:45:07.999Z</time></trkpt><trkpt lat="40.62366094282912" lon="9.154401113941905"><ele>520.6666666666666</ele><time>2026-03-27T13:45:08.999Z</time></trkpt><trkpt lat="40.62367727014815" lon="9.154514011619213"><ele>521.0</ele><time>2026-03-27T13:45:09.999Z</time></trkpt><trkpt lat="40.62369044878531" lon="9.154600495552238"><ele>521.0</ele><time>2026-03-27T13:45:10.999Z</time></trkpt><trkpt lat="40.62371619510205" lon="9.154767096080041"><ele>521.0</ele><time>2026-03-27T13:45:12.999Z</time></trkpt><trkpt lat="40.623729218824955" lon="9.154861294730779"><ele>521.0</ele><time>2026-03-27T13:45:13.999Z</time></trkpt><trkpt lat="40.62373714050226" lon="9.154961104571862"><ele>521.0</ele><time>2026-03-27T13:45:14.999Z</time></trkpt><trkpt lat="40.62374115597894" lon="9.155066998990838"><ele>521.0</ele><time>2026-03-27T13:45:15.999Z</time></trkpt><trkpt lat="40.62374572652639" lon="9.155182731689518"><ele>521.0</ele><time>2026-03-27T13:45:16.999Z</time></trkpt><trkpt lat="40.62375932800421" lon="9.155300237979814"><ele>522.2857142857142</ele><time>2026-03-27T13:45:17.999Z</time></trkpt><trkpt lat="40.623779294418284" lon="9.155407029623854"><ele>523.5714285714286</ele><time>2026-03-27T13:45:18.999Z</time></trkpt><trkpt lat="40.62380109553662" lon="9.15549522517257"><ele>524.8571428571429</ele><time>2026-03-27T13:45:19.999Z</time></trkpt><trkpt lat="40.62382443619203" lon="9.155575544162188"><ele>526.1428571428571</ele><time>2026-03-27T13:45:20.999Z</time></trkpt><trkpt lat="40.62385263524391" lon="9.155660160260744"><ele>527.4285714285714</ele><time>2026-03-27T13:45:21.999Z</time></trkpt><trkpt lat="40.623880742671275" lon="9.155747194130921"><ele>528.7142857142857</ele><time>2026-03-27T13:45:22.999Z</time></trkpt><trkpt lat="40.62390548301637" lon="9.15583447542218"><ele>530.0</ele><time>2026-03-27T13:45:23.999Z</time></trkpt><trkpt lat="40.62392604148849" lon="9.15591408688642"><ele>531.8</ele><time>2026-03-27T13:45:24.999Z</time></trkpt><trkpt lat="40.62395524689787" lon="9.15606673897956"><ele>533.6</ele><time>2026-03-27T13:45:26.999Z</time></trkpt><trkpt lat="40.623991901185896" lon="9.15620251082716"><ele>535.4</ele><time>2026-03-27T13:45:28.999Z</time></trkpt><trkpt lat="40.62403158017619" lon="9.156312676288987"><ele>537.2</ele><time>2026-03-27T13:45:30.999Z</time></trkpt><trkpt lat="40.62409121222428" lon="9.156437188198593"><ele>539.0</ele><time>2026-03-27T13:45:32.999Z</time></trkpt><trkpt lat="40.62412607320248" lon="9.156516451152624"><ele>539.0</ele><time>2026-03-27T13:45:33.999Z</time></trkpt><trkpt lat="40.62418033824092" lon="9.156640340761067"><ele>539.0</ele><time>2026-03-27T13:45:35.999Z</time></trkpt><trkpt lat="40.62425519657622" lon="9.15671785821622"><ele>539.0</ele><time>2026-03-27T13:45:37.999Z</time></trkpt><trkpt lat="40.62437153989089" lon="9.1567372571939"><ele>539.0</ele><time>2026-03-27T13:45:39.999Z</time></trkpt><trkpt lat="40.624471790820685" lon="9.156740769056057"><ele>539.0</ele><time>2026-03-27T13:45:41.999Z</time></trkpt><trkpt lat="40.624530071783134" lon="9.156785990132407"><ele>539.0</ele><time>2026-03-27T13:45:44.999Z</time></trkpt><trkpt lat="40.62453454468911" lon="9.156912451202686"><ele>539.0</ele><time>2026-03-27T13:45:46.999Z</time></trkpt><trkpt lat="40.62461442240876" lon="9.157018796981703"><ele>539.0</ele><time>2026-03-27T13:45:48.999Z</time></trkpt><trkpt lat="40.62464197840291" lon="9.157094064128936"><ele>539.0</ele><time>2026-03-27T13:45:49.999Z</time></trkpt><trkpt lat="40.624656688300355" lon="9.157186593470952"><ele>539.0</ele><time>2026-03-27T13:45:50.999Z</time></trkpt><trkpt lat="40.624665315091406" lon="9.157281602006773"><ele>539.0</ele><time>2026-03-27T13:45:51.999Z</time></trkpt><trkpt lat="40.62467187883425" lon="9.157377465576968"><ele>540.1428571428571</ele><time>2026-03-27T13:45:52.999Z</time></trkpt><trkpt lat="40.624686526322606" lon="9.157468472868302"><ele>541.2857142857142</ele><time>2026-03-27T13:45:53.999Z</time></trkpt><trkpt lat="40.624705814754336" lon="9.157560808475932"><ele>542.4285714285714</ele><time>2026-03-27T13:45:54.998Z</time></trkpt><trkpt lat="40.6247189255991" lon="9.157649178793358"><ele>543.5714285714286</ele><time>2026-03-27T13:45:55.998Z</time></trkpt><trkpt lat="40.62472960341834" lon="9.157735211171978"><ele>544.7142857142857</ele><time>2026-03-27T13:45:56.998Z</time></trkpt><trkpt lat="40.62474435658218" lon="9.157822788112856"><ele>545.8571428571429</ele><time>2026-03-27T13:45:57.998Z</time></trkpt><trkpt lat="40.62475950910893" lon="9.157913830970763"><ele>547.0</ele><time>2026-03-27T13:45:58.998Z</time></trkpt><trkpt lat="40.624780525132294" lon="9.158006502498983"><ele>547.0</ele><time>2026-03-27T13:45:59.998Z</time></trkpt><trkpt lat="40.62480252187326" lon="9.158096868065392"><ele>547.0</ele><time>2026-03-27T13:46:00.998Z</time></trkpt><trkpt lat="40.624822034199056" lon="9.158193151678777"><ele>547.0</ele><time>2026-03-27T13:46:01.998Z</time></trkpt><trkpt lat="40.62484413076292" lon="9.158290842017268"><ele>547.0</ele><time>2026-03-27T13:46:02.998Z</time></trkpt><trkpt lat="40.62486389399138" lon="9.158397368878042"><ele>547.0</ele><time>2026-03-27T13:46:03.998Z</time></trkpt><trkpt lat="40.62488617907245" lon="9.158513008326544"><ele>547.0</ele><time>2026-03-27T13:46:04.998Z</time></trkpt><trkpt lat="40.62491614029934" lon="9.158637038616705"><ele>549.25</ele><time>2026-03-27T13:46:05.998Z</time></trkpt><trkpt lat="40.62496646065825" lon="9.158774203817401"><ele>551.5</ele><time>2026-03-27T13:46:06.998Z</time></trkpt><trkpt lat="40.625020041292274" lon="9.158912111404407"><ele>553.75</ele><time>2026-03-27T13:46:07.998Z</time></trkpt><trkpt lat="40.62506720992983" lon="9.159050736652656"><ele>556.0</ele><time>2026-03-27T13:46:08.998Z</time></trkpt><trkpt lat="40.62510659524648" lon="9.15918018632757"><ele>558.0</ele><time>2026-03-27T13:46:09.998Z</time></trkpt><trkpt lat="40.62514654803237" lon="9.159298480871882"><ele>560.0</ele><time>2026-03-27T13:46:10.998Z</time></trkpt><trkpt lat="40.62518729622461" lon="9.159410362763161"><ele>562.0</ele><time>2026-03-27T13:46:11.998Z</time></trkpt><trkpt lat="40.62522841707605" lon="9.159520617702231"><ele>564.0</ele><time>2026-03-27T13:46:12.998Z</time></trkpt><trkpt lat="40.62525765483479" lon="9.159632868125696"><ele>566.0</ele><time>2026-03-27T13:46:13.998Z</time></trkpt><trkpt lat="40.62529067627347" lon="9.15974503146081"><ele>566.8</ele><time>2026-03-27T13:46:14.998Z</time></trkpt><trkpt lat="40.62531470040346" lon="9.15986782505269"><ele>567.6</ele><time>2026-03-27T13:46:15.998Z</time></trkpt><trkpt lat="40.62533080836637" lon="9.159989918592876"><ele>568.4</ele><time>2026-03-27T13:46:16.998Z</time></trkpt><trkpt lat="40.6253474280855" lon="9.1601141326038"><ele>569.2</ele><time>2026-03-27T13:46:17.998Z</time></trkpt><trkpt lat="40.62536601672553" lon="9.160241922713553"><ele>570.0</ele><time>2026-03-27T13:46:18.998Z</time></trkpt><trkpt lat="40.62538791768244" lon="9.160372801898587"><ele>570.0</ele><time>2026-03-27T13:46:19.998Z</time></trkpt><trkpt lat="40.62541679613456" lon="9.16051074368393"><ele>570.0</ele><time>2026-03-27T13:46:20.998Z</time></trkpt><trkpt lat="40.62544739278939" lon="9.160658575863657"><ele>570.0</ele><time>2026-03-27T13:46:21.998Z</time></trkpt><trkpt lat="40.62547918931152" lon="9.160806975989253"><ele>570.0</ele><time>2026-03-27T13:46:22.998Z</time></trkpt><trkpt lat="40.62551632548691" lon="9.160954622061688"><ele>571.8</ele><time>2026-03-27T13:46:23.998Z</time></trkpt><trkpt lat="40.62555154113035" lon="9.161098096024455"><ele>573.6</ele><time>2026-03-27T13:46:24.998Z</time></trkpt><trkpt lat="40.62558530663673" lon="9.161234209740948"><ele>575.4</ele><time>2026-03-27T13:46:25.998Z</time></trkpt><trkpt lat="40.625618568724974" lon="9.161369011089402"><ele>577.2</ele><time>2026-03-27T13:46:26.998Z</time></trkpt><trkpt lat="40.62565236393441" lon="9.16149070712915"><ele>579.0</ele><time>2026-03-27T13:46:27.998Z</time></trkpt><trkpt lat="40.62567805968089" lon="9.161585714137377"><ele>579.8333333333334</ele><time>2026-03-27T13:46:28.998Z</time></trkpt><trkpt lat="40.62569766962613" lon="9.161667734914628"><ele>580.6666666666666</ele><time>2026-03-27T13:46:29.998Z</time></trkpt><trkpt lat="40.62572659577784" lon="9.161805692878865"><ele>581.5</ele><time>2026-03-27T13:46:31.998Z</time></trkpt><trkpt lat="40.62574961312732" lon="9.161897609020125"><ele>582.3333333333333</ele><time>2026-03-27T13:46:32.998Z</time></trkpt><trkpt lat="40.625764418163854" lon="9.162001386747717"><ele>583.1666666666666</ele><time>2026-03-27T13:46:33.998Z</time></trkpt><trkpt lat="40.62578401519478" lon="9.162118692457758"><ele>584.0</ele><time>2026-03-27T13:46:34.998Z</time></trkpt><trkpt lat="40.625818985363786" lon="9.162248732394682"><ele>584.8</ele><time>2026-03-27T13:46:35.998Z</time></trkpt><trkpt lat="40.62586555878482" lon="9.162366339906905"><ele>585.5999999999999</ele><time>2026-03-27T13:46:36.998Z</time></trkpt><trkpt lat="40.62591168794663" lon="9.162482432240358"><ele>586.4</ele><time>2026-03-27T13:46:37.998Z</time></trkpt><trkpt lat="40.62593984593463" lon="9.16259115870382"><ele>587.1999999999999</ele><time>2026-03-27T13:46:39Z</time></trkpt><trkpt lat="40.6259603263002" lon="9.162698641898958"><ele>588.0</ele><time>2026-03-27T13:46:40Z</time></trkpt><trkpt lat="40.625965001622056" lon="9.1628119242956"><ele>588.0</ele><time>2026-03-27T13:46:41Z</time></trkpt><trkpt lat="40.62596281254161" lon="9.162937941829346"><ele>588.0</ele><time>2026-03-27T13:46:42Z</time></trkpt><trkpt lat="40.625965434840836" lon="9.163081142604561"><ele>588.0</ele><time>2026-03-27T13:46:43Z</time></trkpt><trkpt lat="40.62600043789998" lon="9.16322114007892"><ele>588.0</ele><time>2026-03-27T13:46:44Z</time></trkpt><trkpt lat="40.62606276541292" lon="9.163358006858234"><ele>588.0</ele><time>2026-03-27T13:46:45Z</time></trkpt><trkpt lat="40.62612656609242" lon="9.16348230555187"><ele>588.1999999999999</ele><time>2026-03-27T13:46:46Z</time></trkpt><trkpt lat="40.6261854007022" lon="9.163604985137129"><ele>588.4</ele><time>2026-03-27T13:46:47Z</time></trkpt><trkpt lat="40.62624767244856" lon="9.163714577915075"><ele>588.5999999999999</ele><time>2026-03-27T13:46:48Z</time></trkpt><trkpt lat="40.62630546097456" lon="9.163836482181594"><ele>588.8</ele><time>2026-03-27T13:46:49Z</time></trkpt><trkpt lat="40.62636121215949" lon="9.163963985239251"><ele>589.0</ele><time>2026-03-27T13:46:50Z</time></trkpt><trkpt lat="40.6264082647712" lon="9.16410174724697"><ele>589.0</ele><time>2026-03-27T13:46:51Z</time></trkpt><trkpt lat="40.62645653935153" lon="9.164240904060305"><ele>589.0</ele><time>2026-03-27T13:46:52Z</time></trkpt><trkpt lat="40.62650151917962" lon="9.164379020183908"><ele>589.0</ele><time>2026-03-27T13:46:53Z</time></trkpt><trkpt lat="40.62654496829225" lon="9.164520686249864"><ele>589.0</ele><time>2026-03-27T13:46:54Z</time></trkpt><trkpt lat="40.62658891476427" lon="9.1646580913669"><ele>589.0</ele><time>2026-03-27T13:46:55Z</time></trkpt><trkpt lat="40.626619894334915" lon="9.164810027361298"><ele>589.0</ele><time>2026-03-27T13:46:56Z</time></trkpt><trkpt lat="40.62669040521501" lon="9.16495237347763"><ele>589.0</ele><time>2026-03-27T13:46:57Z</time></trkpt><trkpt lat="40.62679880187151" lon="9.165058504611153"><ele>589.0</ele><time>2026-03-27T13:46:57.999Z</time></trkpt><trkpt lat="40.626902610967925" lon="9.165177834314155"><ele>589.5</ele><time>2026-03-27T13:46:58.999Z</time></trkpt><trkpt lat="40.62699483757207" lon="9.165289592776066"><ele>590.0</ele><time>2026-03-27T13:46:59.999Z</time></trkpt><trkpt lat="40.62708207061382" lon="9.165421254833966"><ele>590.5</ele><time>2026-03-27T13:47:00.999Z</time></trkpt><trkpt lat="40.62716733108121" lon="9.16555775732547"><ele>591.0</ele><time>2026-03-27T13:47:01.999Z</time></trkpt><trkpt lat="40.62724267146744" lon="9.165702843463691"><ele>593.75</ele><time>2026-03-27T13:47:02.999Z</time></trkpt><trkpt lat="40.62731157629621" lon="9.165846988528362"><ele>596.5</ele><time>2026-03-27T13:47:03.999Z</time></trkpt><trkpt lat="40.62736616257188" lon="9.166009376261323"><ele>599.25</ele><time>2026-03-27T13:47:04.999Z</time></trkpt><trkpt lat="40.62741649683778" lon="9.166173111391966"><ele>602.0</ele><time>2026-03-27T13:47:05.999Z</time></trkpt><trkpt lat="40.62746332427766" lon="9.166330235211303"><ele>602.0</ele><time>2026-03-27T13:47:06.999Z</time></trkpt><trkpt lat="40.627501259076126" lon="9.166487422042271"><ele>602.0</ele><time>2026-03-27T13:47:07.999Z</time></trkpt><trkpt lat="40.627533576671055" lon="9.166651299866555"><ele>602.0</ele><time>2026-03-27T13:47:08.999Z</time></trkpt><trkpt lat="40.62755714000904" lon="9.166829232497056"><ele>602.0</ele><time>2026-03-27T13:47:09.999Z</time></trkpt><trkpt lat="40.627573285849344" lon="9.167007848421058"><ele>605.0</ele><time>2026-03-27T13:47:10.999Z</time></trkpt><trkpt lat="40.627582776184575" lon="9.167188504398682"><ele>608.0</ele><time>2026-03-27T13:47:11.999Z</time></trkpt><trkpt lat="40.627605489684896" lon="9.167364358078675"><ele>611.0</ele><time>2026-03-27T13:47:12.999Z</time></trkpt><trkpt lat="40.62764089982321" lon="9.167515291621969"><ele>614.0</ele><time>2026-03-27T13:47:13.999Z</time></trkpt><trkpt lat="40.62768821108686" lon="9.167689907516904"><ele>612.75</ele><time>2026-03-27T13:47:14.999Z</time></trkpt><trkpt lat="40.6277993916246" lon="9.16782828046002"><ele>611.5</ele><time>2026-03-27T13:47:15.999Z</time></trkpt><trkpt lat="40.627883072350066" lon="9.167988577942321"><ele>610.25</ele><time>2026-03-27T13:47:16.999Z</time></trkpt><trkpt lat="40.62793125363095" lon="9.168145084796429"><ele>609.0</ele><time>2026-03-27T13:47:17.999Z</time></trkpt><trkpt lat="40.62793873245302" lon="9.168324236631014"><ele>611.5</ele><time>2026-03-27T13:47:18.999Z</time></trkpt><trkpt lat="40.62796471398041" lon="9.168510506425811"><ele>614.0</ele><time>2026-03-27T13:47:19.999Z</time></trkpt><trkpt lat="40.628007152449335" lon="9.16869610360441"><ele>616.5</ele><time>2026-03-27T13:47:20.999Z</time></trkpt><trkpt lat="40.6280365543839" lon="9.168881211347117"><ele>619.0</ele><time>2026-03-27T13:47:21.999Z</time></trkpt><trkpt lat="40.62806484409834" lon="9.169084630085852"><ele>623.0</ele><time>2026-03-27T13:47:22.999Z</time></trkpt><trkpt lat="40.62809135301561" lon="9.169288248046914"><ele>627.0</ele><time>2026-03-27T13:47:23.999Z</time></trkpt><trkpt lat="40.62812189147054" lon="9.16948741352437"><ele>631.0</ele><time>2026-03-27T13:47:24.999Z</time></trkpt><trkpt lat="40.62815548448815" lon="9.169680289052536"><ele>635.5</ele><time>2026-03-27T13:47:25.999Z</time></trkpt><trkpt lat="40.628178588072714" lon="9.169875784659956"><ele>640.0</ele><time>2026-03-27T13:47:26.999Z</time></trkpt><trkpt lat="40.62820798833936" lon="9.170064173363208"><ele>644.5</ele><time>2026-03-27T13:47:27.999Z</time></trkpt><trkpt lat="40.62823786296628" lon="9.170249718237837"><ele>649.0</ele><time>2026-03-27T13:47:28.999Z</time></trkpt><trkpt lat="40.62826819575722" lon="9.170445732968046"><ele>649.0</ele><time>2026-03-27T13:47:29.999Z</time></trkpt><trkpt lat="40.628290827874764" lon="9.170646215084002"><ele>649.0</ele><time>2026-03-27T13:47:30.999Z</time></trkpt><trkpt lat="40.628313295575815" lon="9.170841672366349"><ele>649.0</ele><time>2026-03-27T13:47:31.999Z</time></trkpt><trkpt lat="40.62833319780508" lon="9.171022013365995"><ele>649.0</ele><time>2026-03-27T13:47:32.999Z</time></trkpt><trkpt lat="40.62834511089129" lon="9.171199746797061"><ele>653.0</ele><time>2026-03-27T13:47:33.999Z</time></trkpt><trkpt lat="40.62833330022004" lon="9.171367214037558"><ele>657.0</ele><time>2026-03-27T13:47:34.999Z</time></trkpt><trkpt lat="40.62829535685276" lon="9.171516001525138"><ele>661.0</ele><time>2026-03-27T13:47:35.999Z</time></trkpt><trkpt lat="40.62825949357253" lon="9.171664937847241"><ele>665.0</ele><time>2026-03-27T13:47:36.999Z</time></trkpt><trkpt lat="40.62830993921404" lon="9.171836957218481"><ele>667.75</ele><time>2026-03-27T13:47:37.999Z</time></trkpt><trkpt lat="40.628330263389195" lon="9.172022413900384"><ele>670.5</ele><time>2026-03-27T13:47:38.999Z</time></trkpt><trkpt lat="40.62835040739169" lon="9.172197305336118"><ele>673.25</ele><time>2026-03-27T13:47:39.999Z</time></trkpt><trkpt lat="40.62835464214144" lon="9.172356106013602"><ele>676.0</ele><time>2026-03-27T13:47:40.999Z</time></trkpt><trkpt lat="40.62834224791528" lon="9.17252531696234"><ele>678.75</ele><time>2026-03-27T13:47:41.999Z</time></trkpt><trkpt lat="40.628322877499755" lon="9.172669210690197"><ele>681.5</ele><time>2026-03-27T13:47:42.999Z</time></trkpt><trkpt lat="40.628297650815036" lon="9.172811093403823"><ele>684.25</ele><time>2026-03-27T13:47:43.999Z</time></trkpt><trkpt lat="40.62825710654269" lon="9.172936091484063"><ele>687.0</ele><time>2026-03-27T13:47:44.999Z</time></trkpt><trkpt lat="40.62819530405882" lon="9.17310716261154"><ele>688.75</ele><time>2026-03-27T13:47:45.999Z</time></trkpt><trkpt lat="40.62818021086569" lon="9.173306680549972"><ele>690.5</ele><time>2026-03-27T13:47:46.999Z</time></trkpt><trkpt lat="40.62817122555895" lon="9.17348830908554"><ele>692.25</ele><time>2026-03-27T13:47:47.999Z</time></trkpt><trkpt lat="40.62815001211566" lon="9.173663343177733"><ele>694.0</ele><time>2026-03-27T13:47:48.999Z</time></trkpt><trkpt lat="40.628128124542556" lon="9.173836944652225"><ele>696.0</ele><time>2026-03-27T13:47:49.999Z</time></trkpt><trkpt lat="40.62810688928546" lon="9.174025136136615"><ele>698.0</ele><time>2026-03-27T13:47:50.999Z</time></trkpt><trkpt lat="40.62809714086421" lon="9.17420597908789"><ele>700.0</ele><time>2026-03-27T13:47:51.999Z</time></trkpt><trkpt lat="40.62809229043105" lon="9.174391047188628"><ele>702.0</ele><time>2026-03-27T13:47:52.999Z</time></trkpt><trkpt lat="40.628089095081435" lon="9.17454982484875"><ele>702.0</ele><time>2026-03-27T13:47:53.999Z</time></trkpt><trkpt lat="40.62809124197484" lon="9.174685669246198"><ele>702.0</ele><time>2026-03-27T13:47:54.999Z</time></trkpt><trkpt lat="40.628127996710916" lon="9.174826116187182"><ele>702.0</ele><time>2026-03-27T13:47:55.998Z</time></trkpt><trkpt lat="40.62827413786368" lon="9.174887548469467"><ele>702.0</ele><time>2026-03-27T13:47:56.998Z</time></trkpt><trkpt lat="40.62836714307759" lon="9.174990198279962"><ele>705.6</ele><time>2026-03-27T13:47:57.998Z</time></trkpt><trkpt lat="40.628449145435575" lon="9.17511012580194"><ele>709.2</ele><time>2026-03-27T13:47:58.998Z</time></trkpt><trkpt lat="40.62852080875165" lon="9.175193362092173"><ele>712.8</ele><time>2026-03-27T13:47:59.998Z</time></trkpt><trkpt lat="40.62858392114103" lon="9.175245441716203"><ele>716.4</ele><time>2026-03-27T13:48:00.998Z</time></trkpt><trkpt lat="40.62869648411162" lon="9.175237813384609"><ele>720.0</ele><time>2026-03-27T13:48:02.998Z</time></trkpt><trkpt lat="40.62873360866763" lon="9.175120242343056"><ele>718.4</ele><time>2026-03-27T13:48:03.998Z</time></trkpt><trkpt lat="40.62877380449213" lon="9.175016392559536"><ele>716.8</ele><time>2026-03-27T13:48:04.998Z</time></trkpt><trkpt lat="40.62884699826268" lon="9.174902193784137"><ele>715.2</ele><time>2026-03-27T13:48:05.998Z</time></trkpt><trkpt lat="40.62894899544545" lon="9.17480463369809"><ele>713.6</ele><time>2026-03-27T13:48:06.998Z</time></trkpt><trkpt lat="40.62905263323113" lon="9.174743997949582"><ele>712.0</ele><time>2026-03-27T13:48:07.998Z</time></trkpt><trkpt lat="40.62917738937991" lon="9.174718033082947"><ele>712.0</ele><time>2026-03-27T13:48:08.998Z</time></trkpt><trkpt lat="40.62929855543024" lon="9.17469420257348"><ele>712.0</ele><time>2026-03-27T13:48:09.998Z</time></trkpt><trkpt lat="40.629432383342596" lon="9.174611693491983"><ele>712.0</ele><time>2026-03-27T13:48:10.998Z</time></trkpt><trkpt lat="40.629571336709574" lon="9.174507584986227"><ele>712.0</ele><time>2026-03-27T13:48:11.998Z</time></trkpt><trkpt lat="40.62968253270214" lon="9.174346100772597"><ele>715.3333333333334</ele><time>2026-03-27T13:48:12.998Z</time></trkpt><trkpt lat="40.62982085165427" lon="9.174189508830812"><ele>718.6666666666666</ele><time>2026-03-27T13:48:13.998Z</time></trkpt><trkpt lat="40.629939557747576" lon="9.174038044753377"><ele>722.0</ele><time>2026-03-27T13:48:14.998Z</time></trkpt><trkpt lat="40.63006684471591" lon="9.173900108076593"><ele>722.0</ele><time>2026-03-27T13:48:15.998Z</time></trkpt><trkpt lat="40.630178863463755" lon="9.173781975937521"><ele>722.0</ele><time>2026-03-27T13:48:16.998Z</time></trkpt><trkpt lat="40.63030207280105" lon="9.173669822026525"><ele>722.0</ele><time>2026-03-27T13:48:17.998Z</time></trkpt><trkpt lat="40.630407550838605" lon="9.173583573694016"><ele>722.0</ele><time>2026-03-27T13:48:18.998Z</time></trkpt><trkpt lat="40.63049307672207" lon="9.1735238290626"><ele>724.6666666666666</ele><time>2026-03-27T13:48:19.998Z</time></trkpt><trkpt lat="40.63056787029038" lon="9.173503270747585"><ele>727.3333333333333</ele><time>2026-03-27T13:48:20.998Z</time></trkpt><trkpt lat="40.6306409200661" lon="9.173533452764064"><ele>730.0</ele><time>2026-03-27T13:48:21.998Z</time></trkpt><trkpt lat="40.63070331723696" lon="9.173615474174609"><ele>732.6666666666666</ele><time>2026-03-27T13:48:22.998Z</time></trkpt><trkpt lat="40.6307755928356" lon="9.173672576160108"><ele>735.3333333333334</ele><time>2026-03-27T13:48:23.998Z</time></trkpt><trkpt lat="40.630873432405174" lon="9.173759662504825"><ele>738.0</ele><time>2026-03-27T13:48:24.998Z</time></trkpt><trkpt lat="40.63099597635338" lon="9.173869669418501"><ele>738.0</ele><time>2026-03-27T13:48:25.998Z</time></trkpt><trkpt lat="40.63109956235845" lon="9.174009888925537"><ele>738.0</ele><time>2026-03-27T13:48:26.998Z</time></trkpt><trkpt lat="40.63116967624827" lon="9.17415036187463"><ele>738.0</ele><time>2026-03-27T13:48:27.998Z</time></trkpt><trkpt lat="40.6312418589153" lon="9.174259540214896"><ele>738.0</ele><time>2026-03-27T13:48:28.998Z</time></trkpt><trkpt lat="40.63134610313408" lon="9.174328221121547"><ele>743.25</ele><time>2026-03-27T13:48:29.998Z</time></trkpt><trkpt lat="40.63146604014569" lon="9.174354674863105"><ele>748.5</ele><time>2026-03-27T13:48:30.998Z</time></trkpt><trkpt lat="40.63160791773223" lon="9.174350559655725"><ele>753.75</ele><time>2026-03-27T13:48:31.998Z</time></trkpt><trkpt lat="40.631757403228335" lon="9.174326401314861"><ele>759.0</ele><time>2026-03-27T13:48:32.998Z</time></trkpt><trkpt lat="40.63189480273558" lon="9.174303998076471"><ele>761.75</ele><time>2026-03-27T13:48:33.998Z</time></trkpt><trkpt lat="40.63202679705264" lon="9.174288228231982"><ele>764.5</ele><time>2026-03-27T13:48:34.998Z</time></trkpt><trkpt lat="40.63215832659582" lon="9.174273851331785"><ele>767.25</ele><time>2026-03-27T13:48:35.998Z</time></trkpt><trkpt lat="40.632301528398585" lon="9.174276762481163"><ele>770.0</ele><time>2026-03-27T13:48:36.998Z</time></trkpt><trkpt lat="40.63244263056411" lon="9.174313038791583"><ele>770.0</ele><time>2026-03-27T13:48:37.998Z</time></trkpt><trkpt lat="40.632575359262106" lon="9.174353612614762"><ele>770.0</ele><time>2026-03-27T13:48:38.998Z</time></trkpt><trkpt lat="40.63268851953157" lon="9.17440883638762"><ele>770.0</ele><time>2026-03-27T13:48:39.998Z</time></trkpt><trkpt lat="40.63277943681347" lon="9.174463504333094"><ele>770.0</ele><time>2026-03-27T13:48:40.998Z</time></trkpt><trkpt lat="40.63284710476624" lon="9.17451098177642"><ele>770.0</ele><time>2026-03-27T13:48:41.998Z</time></trkpt><trkpt lat="40.63293771364647" lon="9.174555391447457"><ele>770.8333333333334</ele><time>2026-03-27T13:48:43.998Z</time></trkpt><trkpt lat="40.63299339380871" lon="9.17461535463851"><ele>771.6666666666667</ele><time>2026-03-27T13:48:46Z</time></trkpt><trkpt lat="40.63306356097468" lon="9.17468440296291"><ele>772.5</ele><time>2026-03-27T13:48:48Z</time></trkpt><trkpt lat="40.633130158132275" lon="9.174742204159154"><ele>773.3333333333333</ele><time>2026-03-27T13:48:49Z</time></trkpt><trkpt lat="40.633203322520195" lon="9.174788906793847"><ele>774.1666666666666</ele><time>2026-03-27T13:48:50Z</time></trkpt><trkpt lat="40.63328136967876" lon="9.174835578987464"><ele>775.0</ele><time>2026-03-27T13:48:51Z</time></trkpt><trkpt lat="40.63336376340322" lon="9.174880349732916"><ele>775.0</ele><time>2026-03-27T13:48:52Z</time></trkpt><trkpt lat="40.63347209235469" lon="9.17487554430666"><ele>775.0</ele><time>2026-03-27T13:48:53Z</time></trkpt><trkpt lat="40.633591237629126" lon="9.174884840394856"><ele>775.0</ele><time>2026-03-27T13:48:54Z</time></trkpt><trkpt lat="40.6337043346802" lon="9.174880431263807"><ele>775.0</ele><time>2026-03-27T13:48:55Z</time></trkpt><trkpt lat="40.63382388596865" lon="9.174899356078054"><ele>777.0</ele><time>2026-03-27T13:48:56Z</time></trkpt><trkpt lat="40.63394761410903" lon="9.174932156270911"><ele>779.0</ele><time>2026-03-27T13:48:57Z</time></trkpt><trkpt lat="40.63407896627769" lon="9.1749914083839"><ele>781.0</ele><time>2026-03-27T13:48:58Z</time></trkpt><trkpt lat="40.63421877327654" lon="9.175060629503443"><ele>783.0</ele><time>2026-03-27T13:48:59Z</time></trkpt><trkpt lat="40.634367229348555" lon="9.17513624971155"><ele>787.0</ele><time>2026-03-27T13:48:59.999Z</time></trkpt><trkpt lat="40.63452223127983" lon="9.175228253189264"><ele>791.0</ele><time>2026-03-27T13:49:00.999Z</time></trkpt><trkpt lat="40.63467517747664" lon="9.175337682170031"><ele>795.0</ele><time>2026-03-27T13:49:01.999Z</time></trkpt><trkpt lat="40.63482514234952" lon="9.175451638297119"><ele>795.0</ele><time>2026-03-27T13:49:02.999Z</time></trkpt><trkpt lat="40.63497000997772" lon="9.175565820353636"><ele>795.0</ele><time>2026-03-27T13:49:03.999Z</time></trkpt><trkpt lat="40.63511831133147" lon="9.175685863560966"><ele>795.0</ele><time>2026-03-27T13:49:04.999Z</time></trkpt><trkpt lat="40.635263848753176" lon="9.175812324872531"><ele>793.6666666666667</ele><time>2026-03-27T13:49:05.999Z</time></trkpt><trkpt lat="40.635391007661774" lon="9.175922082837944"><ele>792.3333333333334</ele><time>2026-03-27T13:49:06.999Z</time></trkpt><trkpt lat="40.63550087064069" lon="9.17604514410202"><ele>791.0</ele><time>2026-03-27T13:49:07.999Z</time></trkpt><trkpt lat="40.63562691137468" lon="9.176163051339966"><ele>791.0</ele><time>2026-03-27T13:49:08.999Z</time></trkpt><trkpt lat="40.63577580648425" lon="9.17627282440425"><ele>791.0</ele><time>2026-03-27T13:49:09.999Z</time></trkpt><trkpt lat="40.635929810244996" lon="9.176365510890632"><ele>791.0</ele><time>2026-03-27T13:49:10.999Z</time></trkpt><trkpt lat="40.636081404599736" lon="9.176448862106799"><ele>787.6666666666667</ele><time>2026-03-27T13:49:11.999Z</time></trkpt><trkpt lat="40.6362440456739" lon="9.176515466284428"><ele>784.3333333333333</ele><time>2026-03-27T13:49:12.999Z</time></trkpt><trkpt lat="40.63643142221394" lon="9.176562753790083"><ele>781.0</ele><time>2026-03-27T13:49:13.999Z</time></trkpt><trkpt lat="40.63662780067589" lon="9.176600432054075"><ele>777.6666666666666</ele><time>2026-03-27T13:49:14.999Z</time></trkpt><trkpt lat="40.63681320822117" lon="9.176614064676597"><ele>774.3333333333333</ele><time>2026-03-27T13:49:15.999Z</time></trkpt><trkpt lat="40.63698485964042" lon="9.1766377783289"><ele>771.0</ele><time>2026-03-27T13:49:16.999Z</time></trkpt><trkpt lat="40.63713371790596" lon="9.176663448727789"><ele>768.5</ele><time>2026-03-27T13:49:17.999Z</time></trkpt><trkpt lat="40.63725458199409" lon="9.176681905088504"><ele>766.0</ele><time>2026-03-27T13:49:18.999Z</time></trkpt><trkpt lat="40.63736137266168" lon="9.176685538595782"><ele>763.5</ele><time>2026-03-27T13:49:19.999Z</time></trkpt><trkpt lat="40.63747033355797" lon="9.176642956303452"><ele>761.0</ele><time>2026-03-27T13:49:20.999Z</time></trkpt><trkpt lat="40.63757248311882" lon="9.176555007278909"><ele>761.5999999999999</ele><time>2026-03-27T13:49:21.999Z</time></trkpt><trkpt lat="40.6376512908099" lon="9.176449152055842"><ele>762.2</ele><time>2026-03-27T13:49:22.999Z</time></trkpt><trkpt lat="40.637700305524014" lon="9.176338825410683"><ele>762.8</ele><time>2026-03-27T13:49:23.999Z</time></trkpt><trkpt lat="40.63772758569171" lon="9.176209640135868"><ele>763.4000000000001</ele><time>2026-03-27T13:49:24.999Z</time></trkpt><trkpt lat="40.63772916073509" lon="9.176043342136019"><ele>764.0</ele><time>2026-03-27T13:49:25.999Z</time></trkpt><trkpt lat="40.637759030669606" lon="9.175881220387968"><ele>763.6666666666666</ele><time>2026-03-27T13:49:26.999Z</time></trkpt><trkpt lat="40.63771938051352" lon="9.175649560374586"><ele>763.3333333333334</ele><time>2026-03-27T13:49:27.999Z</time></trkpt><trkpt lat="40.63770574945958" lon="9.175464813802485"><ele>763.0</ele><time>2026-03-27T13:49:28.999Z</time></trkpt><trkpt lat="40.63771083893221" lon="9.175258442323097"><ele>763.0</ele><time>2026-03-27T13:49:30Z</time></trkpt><trkpt lat="40.63771588537429" lon="9.1751239379377"><ele>763.0</ele><time>2026-03-27T13:49:31Z</time></trkpt><trkpt lat="40.6377299092146" lon="9.174976165742736"><ele>763.0</ele><time>2026-03-27T13:49:32Z</time></trkpt><trkpt lat="40.637779969534165" lon="9.174892505258908"><ele>763.0</ele><time>2026-03-27T13:49:33Z</time></trkpt><trkpt lat="40.63791622207345" lon="9.174845490042781"><ele>763.0</ele><time>2026-03-27T13:49:34Z</time></trkpt><trkpt lat="40.63800581488129" lon="9.174742479967279"><ele>758.25</ele><time>2026-03-27T13:49:35Z</time></trkpt><trkpt lat="40.638121863847125" lon="9.174615100133138"><ele>753.5</ele><time>2026-03-27T13:49:36Z</time></trkpt><trkpt lat="40.63820523530573" lon="9.174453511631501"><ele>748.75</ele><time>2026-03-27T13:49:37Z</time></trkpt><trkpt lat="40.638232203250574" lon="9.17426703046409"><ele>744.0</ele><time>2026-03-27T13:49:38Z</time></trkpt><trkpt lat="40.638256267866716" lon="9.174017889702236"><ele>743.0</ele><time>2026-03-27T13:49:39Z</time></trkpt><trkpt lat="40.63828932978077" lon="9.173793154347058"><ele>742.0</ele><time>2026-03-27T13:49:40Z</time></trkpt><trkpt lat="40.638312439546375" lon="9.173599311721704"><ele>741.0</ele><time>2026-03-27T13:49:41Z</time></trkpt><trkpt lat="40.63832975097617" lon="9.17343283485587"><ele>741.0</ele><time>2026-03-27T13:49:42Z</time></trkpt><trkpt lat="40.63840180823899" lon="9.173288128517246"><ele>741.0</ele><time>2026-03-27T13:49:43Z</time></trkpt><trkpt lat="40.63850441122481" lon="9.173093754127576"><ele>741.0</ele><time>2026-03-27T13:49:44Z</time></trkpt><trkpt lat="40.638586284963424" lon="9.172888861833925"><ele>739.6666666666666</ele><time>2026-03-27T13:49:45Z</time></trkpt><trkpt lat="40.638660758215906" lon="9.1726738340441"><ele>738.3333333333333</ele><time>2026-03-27T13:49:46Z</time></trkpt><trkpt lat="40.63873991511573" lon="9.17245958837961"><ele>737.0</ele><time>2026-03-27T13:49:47Z</time></trkpt><trkpt lat="40.63881265608909" lon="9.172252483722609"><ele>737.0</ele><time>2026-03-27T13:49:48Z</time></trkpt><trkpt lat="40.63887828147604" lon="9.17203680933064"><ele>737.0</ele><time>2026-03-27T13:49:49Z</time></trkpt><trkpt lat="40.638914058566435" lon="9.171805658165477"><ele>737.0</ele><time>2026-03-27T13:49:50Z</time></trkpt><trkpt lat="40.638917447938404" lon="9.171624513846439"><ele>737.8</ele><time>2026-03-27T13:49:51Z</time></trkpt><trkpt lat="40.6389223317723" lon="9.171467690386947"><ele>738.6</ele><time>2026-03-27T13:49:52Z</time></trkpt><trkpt lat="40.638938754609214" lon="9.171363698007069"><ele>739.4</ele><time>2026-03-27T13:49:53Z</time></trkpt><trkpt lat="40.63899342890975" lon="9.171233510892671"><ele>740.1999999999999</ele><time>2026-03-27T13:49:54Z</time></trkpt><trkpt lat="40.639081770060976" lon="9.17122692115899"><ele>741.0</ele><time>2026-03-27T13:49:55Z</time></trkpt><trkpt lat="40.63915983262668" lon="9.171252760156479"><ele>741.0</ele><time>2026-03-27T13:49:56Z</time></trkpt><trkpt lat="40.63925076832505" lon="9.171300037910477"><ele>741.0</ele><time>2026-03-27T13:49:57Z</time></trkpt><trkpt lat="40.639374377764014" lon="9.17134558461445"><ele>741.0</ele><time>2026-03-27T13:49:57.999Z</time></trkpt><trkpt lat="40.63951609168199" lon="9.171430303160937"><ele>741.0</ele><time>2026-03-27T13:49:58.999Z</time></trkpt><trkpt lat="40.63964940188586" lon="9.171535393419513"><ele>743.0</ele><time>2026-03-27T13:49:59.999Z</time></trkpt><trkpt lat="40.639780563442834" lon="9.17168151454122"><ele>745.0</ele><time>2026-03-27T13:50:00.999Z</time></trkpt><trkpt lat="40.63990321038427" lon="9.171810110611307"><ele>747.0</ele><time>2026-03-27T13:50:01.999Z</time></trkpt><trkpt lat="40.640052209803216" lon="9.171893870861425"><ele>747.0</ele><time>2026-03-27T13:50:02.999Z</time></trkpt><trkpt lat="40.64019807401431" lon="9.171982031979596"><ele>747.0</ele><time>2026-03-27T13:50:03.999Z</time></trkpt><trkpt lat="40.640334738876085" lon="9.17202607851293"><ele>747.0</ele><time>2026-03-27T13:50:04.999Z</time></trkpt><trkpt lat="40.640488634825594" lon="9.172028426741383"><ele>749.0</ele><time>2026-03-27T13:50:05.999Z</time></trkpt><trkpt lat="40.64066389797404" lon="9.171999083366948"><ele>751.0</ele><time>2026-03-27T13:50:06.999Z</time></trkpt><trkpt lat="40.640846042108144" lon="9.17195348282913"><ele>753.0</ele><time>2026-03-27T13:50:07.999Z</time></trkpt><trkpt lat="40.6410139952349" lon="9.17189251213895"><ele>752.6666666666666</ele><time>2026-03-27T13:50:08.999Z</time></trkpt><trkpt lat="40.641185175338315" lon="9.171819653171893"><ele>752.3333333333333</ele><time>2026-03-27T13:50:09.999Z</time></trkpt><trkpt lat="40.64134280736983" lon="9.171748814085472"><ele>752.0</ele><time>2026-03-27T13:50:10.999Z</time></trkpt><trkpt lat="40.64148191889153" lon="9.171670688737269"><ele>752.0</ele><time>2026-03-27T13:50:11.999Z</time></trkpt><trkpt lat="40.64160519069447" lon="9.171584044245984"><ele>752.0</ele><time>2026-03-27T13:50:12.999Z</time></trkpt><trkpt lat="40.64170503783208" lon="9.171458314664006"><ele>752.0</ele><time>2026-03-27T13:50:13.999Z</time></trkpt><trkpt lat="40.64180651045991" lon="9.17127941845708"><ele>752.0</ele><time>2026-03-27T13:50:14.999Z</time></trkpt><trkpt lat="40.64189992959159" lon="9.171089241544175"><ele>754.0</ele><time>2026-03-27T13:50:15.999Z</time></trkpt><trkpt lat="40.64199643495315" lon="9.17093648657119"><ele>756.0</ele><time>2026-03-27T13:50:16.999Z</time></trkpt><trkpt lat="40.642112997562535" lon="9.170857306374986"><ele>758.0</ele><time>2026-03-27T13:50:17.999Z</time></trkpt><trkpt lat="40.64223705650573" lon="9.170800962287693"><ele>760.0</ele><time>2026-03-27T13:50:18.999Z</time></trkpt><trkpt lat="40.64237122839836" lon="9.170756763402707"><ele>762.6666666666667</ele><time>2026-03-27T13:50:19.999Z</time></trkpt><trkpt lat="40.642539285274225" lon="9.170690374735933"><ele>765.3333333333334</ele><time>2026-03-27T13:50:20.999Z</time></trkpt><trkpt lat="40.642716463403666" lon="9.17063885723111"><ele>768.0</ele><time>2026-03-27T13:50:21.999Z</time></trkpt><trkpt lat="40.64289836645897" lon="9.170591939483716"><ele>770.6666666666667</ele><time>2026-03-27T13:50:22.999Z</time></trkpt><trkpt lat="40.64307795118129" lon="9.170562491871616"><ele>773.3333333333334</ele><time>2026-03-27T13:50:23.999Z</time></trkpt><trkpt lat="40.643265927964976" lon="9.170551229978368"><ele>776.0</ele><time>2026-03-27T13:50:24.999Z</time></trkpt><trkpt lat="40.643438313286424" lon="9.170524159293127"><ele>776.0</ele><time>2026-03-27T13:50:25.999Z</time></trkpt><trkpt lat="40.64357231277597" lon="9.170498140679404"><ele>776.0</ele><time>2026-03-27T13:50:26.999Z</time></trkpt><trkpt lat="40.643687110101496" lon="9.170513261738982"><ele>776.0</ele><time>2026-03-27T13:50:27.999Z</time></trkpt><trkpt lat="40.64378810123326" lon="9.170563746538516"><ele>776.0</ele><time>2026-03-27T13:50:28.999Z</time></trkpt><trkpt lat="40.64386404606432" lon="9.17066244739751"><ele>776.6666666666667</ele><time>2026-03-27T13:50:29.999Z</time></trkpt><trkpt lat="40.64396807479256" lon="9.170763787800514"><ele>777.3333333333333</ele><time>2026-03-27T13:50:30.999Z</time></trkpt><trkpt lat="40.64410347552772" lon="9.170866940631308"><ele>778.0</ele><time>2026-03-27T13:50:31.999Z</time></trkpt><trkpt lat="40.64422592833188" lon="9.171017406690368"><ele>778.0</ele><time>2026-03-27T13:50:32.999Z</time></trkpt><trkpt lat="40.64434584580302" lon="9.171161665650073"><ele>778.0</ele><time>2026-03-27T13:50:33.999Z</time></trkpt><trkpt lat="40.644453099723606" lon="9.171301183232613"><ele>778.0</ele><time>2026-03-27T13:50:34.999Z</time></trkpt><trkpt lat="40.64457197646303" lon="9.17144670904711"><ele>780.5</ele><time>2026-03-27T13:50:35.999Z</time></trkpt><trkpt lat="40.64468835534229" lon="9.171591996292275"><ele>783.0</ele><time>2026-03-27T13:50:36.999Z</time></trkpt><trkpt lat="40.64474465990006" lon="9.171771704408767"><ele>785.5</ele><time>2026-03-27T13:50:37.999Z</time></trkpt><trkpt lat="40.64483192542463" lon="9.171907246182935"><ele>788.0</ele><time>2026-03-27T13:50:38.999Z</time></trkpt><trkpt lat="40.644903535440015" lon="9.172048493671099"><ele>788.0</ele><time>2026-03-27T13:50:39.999Z</time></trkpt><trkpt lat="40.645010589256174" lon="9.172154225558751"><ele>788.0</ele><time>2026-03-27T13:50:40.999Z</time></trkpt><trkpt lat="40.64511782935216" lon="9.172266978508647"><ele>788.0</ele><time>2026-03-27T13:50:41.999Z</time></trkpt><trkpt lat="40.64526331660927" lon="9.172363633342119"><ele>788.0</ele><time>2026-03-27T13:50:42.999Z</time></trkpt><trkpt lat="40.64543734887289" lon="9.172472370407565"><ele>790.3333333333334</ele><time>2026-03-27T13:50:43.999Z</time></trkpt><trkpt lat="40.64562343735061" lon="9.17258304217487"><ele>792.6666666666667</ele><time>2026-03-27T13:50:44.999Z</time></trkpt><trkpt lat="40.645798682307024" lon="9.172694801478771"><ele>795.0</ele><time>2026-03-27T13:50:45.999Z</time></trkpt><trkpt lat="40.64597589911225" lon="9.172815129486736"><ele>799.6666666666667</ele><time>2026-03-27T13:50:46.999Z</time></trkpt><trkpt lat="40.64613402021921" lon="9.172913900055702"><ele>804.3333333333334</ele><time>2026-03-27T13:50:47.999Z</time></trkpt><trkpt lat="40.64628369471912" lon="9.172964159017464"><ele>809.0</ele><time>2026-03-27T13:50:48.999Z</time></trkpt><trkpt lat="40.646418685809316" lon="9.17300932026891"><ele>809.0</ele><time>2026-03-27T13:50:49.999Z</time></trkpt><trkpt lat="40.64659546623217" lon="9.173026344753863"><ele>809.0</ele><time>2026-03-27T13:50:51Z</time></trkpt><trkpt lat="40.64676839539805" lon="9.17307513764914"><ele>809.0</ele><time>2026-03-27T13:50:52Z</time></trkpt><trkpt lat="40.646923807417174" lon="9.173139299829709"><ele>809.5</ele><time>2026-03-27T13:50:53Z</time></trkpt><trkpt lat="40.647082594666855" lon="9.17321872094659"><ele>810.0</ele><time>2026-03-27T13:50:54Z</time></trkpt><trkpt lat="40.647216260039485" lon="9.173323278164602"><ele>810.5</ele><time>2026-03-27T13:50:55Z</time></trkpt><trkpt lat="40.64730087652679" lon="9.173438947960932"><ele>811.0</ele><time>2026-03-27T13:50:56Z</time></trkpt><trkpt lat="40.64738283480002" lon="9.173551861657685"><ele>811.0</ele><time>2026-03-27T13:50:57Z</time></trkpt><trkpt lat="40.64745471185945" lon="9.173650886489439"><ele>811.0</ele><time>2026-03-27T13:50:58Z</time></trkpt><trkpt lat="40.647482472442796" lon="9.173820147840257"><ele>811.0</ele><time>2026-03-27T13:50:59Z</time></trkpt><trkpt lat="40.647551021194694" lon="9.173954165696125"><ele>811.0</ele><time>2026-03-27T13:51:00Z</time></trkpt><trkpt lat="40.64766714880673" lon="9.174070026685989"><ele>812.0</ele><time>2026-03-27T13:51:01Z</time></trkpt><trkpt lat="40.64781565465492" lon="9.174180683576184"><ele>813.0</ele><time>2026-03-27T13:51:02Z</time></trkpt><trkpt lat="40.647973071973325" lon="9.17428698202999"><ele>814.0</ele><time>2026-03-27T13:51:03Z</time></trkpt><trkpt lat="40.64812088598593" lon="9.174402590017255"><ele>814.0</ele><time>2026-03-27T13:51:04Z</time></trkpt><trkpt lat="40.64824888091781" lon="9.174533091160754"><ele>814.0</ele><time>2026-03-27T13:51:05Z</time></trkpt><trkpt lat="40.64839668862335" lon="9.174636177391154"><ele>814.0</ele><time>2026-03-27T13:51:06Z</time></trkpt><trkpt lat="40.648554401279796" lon="9.174732799962905"><ele>814.3333333333333</ele><time>2026-03-27T13:51:07Z</time></trkpt><trkpt lat="40.64871951705297" lon="9.174821675010579"><ele>814.6666666666667</ele><time>2026-03-27T13:51:08Z</time></trkpt><trkpt lat="40.64888452543121" lon="9.174912907732057"><ele>815.0</ele><time>2026-03-27T13:51:09Z</time></trkpt><trkpt lat="40.649042481012586" lon="9.175013524446342"><ele>815.0</ele><time>2026-03-27T13:51:10Z</time></trkpt><trkpt lat="40.64919422030329" lon="9.175120810929812"><ele>815.0</ele><time>2026-03-27T13:51:11Z</time></trkpt><trkpt lat="40.64934793568476" lon="9.17521913164725"><ele>815.0</ele><time>2026-03-27T13:51:12Z</time></trkpt><trkpt lat="40.649485548173224" lon="9.175291809675581"><ele>814.75</ele><time>2026-03-27T13:51:13Z</time></trkpt><trkpt lat="40.64960062681431" lon="9.175344690801362"><ele>814.5</ele><time>2026-03-27T13:51:14Z</time></trkpt><trkpt lat="40.64971143908293" lon="9.175350083380046"><ele>814.25</ele><time>2026-03-27T13:51:15Z</time></trkpt><trkpt lat="40.64983866215532" lon="9.175361657843126"><ele>814.0</ele><time>2026-03-27T13:51:16Z</time></trkpt><trkpt lat="40.650000899630726" lon="9.175304955358543"><ele>814.0</ele><time>2026-03-27T13:51:17Z</time></trkpt><trkpt lat="40.65011820198308" lon="9.175254316223253"><ele>814.0</ele><time>2026-03-27T13:51:18Z</time></trkpt><trkpt lat="40.65021077891602" lon="9.175189879954656"><ele>814.0</ele><time>2026-03-27T13:51:19Z</time></trkpt><trkpt lat="40.650276057289595" lon="9.175067570397642"><ele>814.0</ele><time>2026-03-27T13:51:20Z</time></trkpt><trkpt lat="40.65034036605679" lon="9.174878498449702"><ele>811.6666666666666</ele><time>2026-03-27T13:51:21Z</time></trkpt><trkpt lat="40.650376374472245" lon="9.174671855760801"><ele>809.3333333333333</ele><time>2026-03-27T13:51:22Z</time></trkpt><trkpt lat="40.65039344925204" lon="9.174446020645515"><ele>807.0</ele><time>2026-03-27T13:51:23Z</time></trkpt><trkpt lat="40.65041126127831" lon="9.174285352209386"><ele>807.0</ele><time>2026-03-27T13:51:24Z</time></trkpt><trkpt lat="40.6504437242072" lon="9.174170694485502"><ele>807.0</ele><time>2026-03-27T13:51:25Z</time></trkpt><trkpt lat="40.6505035791058" lon="9.174100366841168"><ele>807.0</ele><time>2026-03-27T13:51:26Z</time></trkpt><trkpt lat="40.650588356372765" lon="9.174048663639441"><ele>807.0</ele><time>2026-03-27T13:51:27Z</time></trkpt><trkpt lat="40.65073514491499" lon="9.17398856767321"><ele>807.0</ele><time>2026-03-27T13:51:28Z</time></trkpt><trkpt lat="40.65092565450331" lon="9.173938859324947"><ele>807.6666666666667</ele><time>2026-03-27T13:51:29Z</time></trkpt><trkpt lat="40.651078666171664" lon="9.173820889475083"><ele>808.3333333333334</ele><time>2026-03-27T13:51:30Z</time></trkpt><trkpt lat="40.65121965506645" lon="9.173701070876342"><ele>809.0</ele><time>2026-03-27T13:51:31Z</time></trkpt><trkpt lat="40.65138040358482" lon="9.173614590010095"><ele>809.0</ele><time>2026-03-27T13:51:32Z</time></trkpt><trkpt lat="40.65154238701582" lon="9.17351185958512"><ele>809.0</ele><time>2026-03-27T13:51:33Z</time></trkpt><trkpt lat="40.651691945490434" lon="9.173434018184693"><ele>809.0</ele><time>2026-03-27T13:51:34Z</time></trkpt><trkpt lat="40.651829157718694" lon="9.173400446049252"><ele>807.0</ele><time>2026-03-27T13:51:35Z</time></trkpt><trkpt lat="40.651956834817256" lon="9.173398701616568"><ele>805.0</ele><time>2026-03-27T13:51:36Z</time></trkpt><trkpt lat="40.65207989106898" lon="9.173416668727201"><ele>803.0</ele><time>2026-03-27T13:51:37Z</time></trkpt><trkpt lat="40.65220700137649" lon="9.173456731311692"><ele>801.0</ele><time>2026-03-27T13:51:38Z</time></trkpt><trkpt lat="40.65234648750008" lon="9.173498643558972"><ele>801.0</ele><time>2026-03-27T13:51:39Z</time></trkpt><trkpt lat="40.652509708815685" lon="9.173548296017143"><ele>801.0</ele><time>2026-03-27T13:51:40Z</time></trkpt><trkpt lat="40.652677503144076" lon="9.173597454402442"><ele>801.0</ele><time>2026-03-27T13:51:41Z</time></trkpt><trkpt lat="40.652843616751426" lon="9.173638748663103"><ele>802.6666666666667</ele><time>2026-03-27T13:51:42Z</time></trkpt><trkpt lat="40.65301969554189" lon="9.173685601633474"><ele>804.3333333333334</ele><time>2026-03-27T13:51:43Z</time></trkpt><trkpt lat="40.653189239188585" lon="9.173731093278702"><ele>806.0</ele><time>2026-03-27T13:51:44Z</time></trkpt><trkpt lat="40.65335821834196" lon="9.17377557954156"><ele>806.0</ele><time>2026-03-27T13:51:45Z</time></trkpt><trkpt lat="40.65352004241047" lon="9.173801643823676"><ele>806.0</ele><time>2026-03-27T13:51:46Z</time></trkpt><trkpt lat="40.65367801397918" lon="9.173845930253027"><ele>806.0</ele><time>2026-03-27T13:51:47Z</time></trkpt><trkpt lat="40.65384595888655" lon="9.17384223399625"><ele>806.6666666666667</ele><time>2026-03-27T13:51:48Z</time></trkpt><trkpt lat="40.65402488373419" lon="9.173831557111727"><ele>807.3333333333333</ele><time>2026-03-27T13:51:49Z</time></trkpt><trkpt lat="40.65418988642254" lon="9.173794312942254"><ele>808.0</ele><time>2026-03-27T13:51:50Z</time></trkpt><trkpt lat="40.654352543339634" lon="9.173772469491484"><ele>807.0</ele><time>2026-03-27T13:51:51Z</time></trkpt><trkpt lat="40.654514153132645" lon="9.173728751429756"><ele>806.0</ele><time>2026-03-27T13:51:52Z</time></trkpt><trkpt lat="40.65467707933076" lon="9.173683734119033"><ele>805.0</ele><time>2026-03-27T13:51:53Z</time></trkpt><trkpt lat="40.65484166408424" lon="9.173615207212576"><ele>805.0</ele><time>2026-03-27T13:51:54Z</time></trkpt><trkpt lat="40.65501239196012" lon="9.173558212334317"><ele>805.0</ele><time>2026-03-27T13:51:55Z</time></trkpt><trkpt lat="40.65517504374839" lon="9.173478629535873"><ele>805.0</ele><time>2026-03-27T13:51:56Z</time></trkpt><trkpt lat="40.65533029600618" lon="9.173420513264562"><ele>804.25</ele><time>2026-03-27T13:51:57Z</time></trkpt><trkpt lat="40.65544137314471" lon="9.173417308138694"><ele>803.5</ele><time>2026-03-27T13:51:58Z</time></trkpt><trkpt lat="40.65555461561981" lon="9.173431837966973"><ele>802.75</ele><time>2026-03-27T13:51:58.999Z</time></trkpt><trkpt lat="40.65566095070493" lon="9.173467651229831"><ele>802.0</ele><time>2026-03-27T13:51:59.999Z</time></trkpt><trkpt lat="40.655790613260194" lon="9.173560961021481"><ele>802.0</ele><time>2026-03-27T13:52:00.999Z</time></trkpt><trkpt lat="40.65597135286381" lon="9.17369248076679"><ele>802.0</ele><time>2026-03-27T13:52:01.999Z</time></trkpt><trkpt lat="40.656135143354625" lon="9.173828197461626"><ele>802.0</ele><time>2026-03-27T13:52:02.999Z</time></trkpt><trkpt lat="40.65630612448853" lon="9.173952625113651"><ele>799.6666666666666</ele><time>2026-03-27T13:52:03.999Z</time></trkpt><trkpt lat="40.656460933256135" lon="9.174070026959765"><ele>797.3333333333333</ele><time>2026-03-27T13:52:04.999Z</time></trkpt><trkpt lat="40.65663118035882" lon="9.17419734896164"><ele>795.0</ele><time>2026-03-27T13:52:05.999Z</time></trkpt><trkpt lat="40.6567901513238" lon="9.174336612866234"><ele>795.0</ele><time>2026-03-27T13:52:06.999Z</time></trkpt><trkpt lat="40.656939200505064" lon="9.17449397969177"><ele>795.0</ele><time>2026-03-27T13:52:07.999Z</time></trkpt><trkpt lat="40.657077201137845" lon="9.174641960710234"><ele>795.0</ele><time>2026-03-27T13:52:08.999Z</time></trkpt><trkpt lat="40.657212789214505" lon="9.174743110001765"><ele>795.0</ele><time>2026-03-27T13:52:09.999Z</time></trkpt><trkpt lat="40.65733759536597" lon="9.174838645456068"><ele>795.0</ele><time>2026-03-27T13:52:10.999Z</time></trkpt><trkpt lat="40.65745919237284" lon="9.174914141013131"><ele>795.0</ele><time>2026-03-27T13:52:11.999Z</time></trkpt><trkpt lat="40.65758661859016" lon="9.174947027345095"><ele>795.0</ele><time>2026-03-27T13:52:12.999Z</time></trkpt><trkpt lat="40.65772318149573" lon="9.174966906395618"><ele>793.0</ele><time>2026-03-27T13:52:13.999Z</time></trkpt><trkpt lat="40.65784029045961" lon="9.174984496540272"><ele>791.0</ele><time>2026-03-27T13:52:14.999Z</time></trkpt><trkpt lat="40.65795861053935" lon="9.17501145401483"><ele>789.0</ele><time>2026-03-27T13:52:15.999Z</time></trkpt><trkpt lat="40.658115557028" lon="9.175051506591654"><ele>787.0</ele><time>2026-03-27T13:52:16.999Z</time></trkpt><trkpt lat="40.65827449637471" lon="9.17508263156167"><ele>787.0</ele><time>2026-03-27T13:52:17.999Z</time></trkpt><trkpt lat="40.65840551024634" lon="9.175115202084914"><ele>787.0</ele><time>2026-03-27T13:52:18.999Z</time></trkpt><trkpt lat="40.65854009184656" lon="9.17514180295015"><ele>787.0</ele><time>2026-03-27T13:52:19.999Z</time></trkpt><trkpt lat="40.658647122667226" lon="9.175153704662234"><ele>787.0</ele><time>2026-03-27T13:52:20.999Z</time></trkpt><trkpt lat="40.65872750659869" lon="9.175170401766419"><ele>784.25</ele><time>2026-03-27T13:52:21.999Z</time></trkpt><trkpt lat="40.65881699584685" lon="9.175120550300846"><ele>781.5</ele><time>2026-03-27T13:52:22.999Z</time></trkpt><trkpt lat="40.65891514674468" lon="9.175031703148697"><ele>778.75</ele><time>2026-03-27T13:52:23.999Z</time></trkpt><trkpt lat="40.65904277631624" lon="9.174885886126601"><ele>776.0</ele><time>2026-03-27T13:52:24.999Z</time></trkpt><trkpt lat="40.65916091939363" lon="9.174744137020893"><ele>774.6666666666667</ele><time>2026-03-27T13:52:25.999Z</time></trkpt><trkpt lat="40.65928236936889" lon="9.174599714150595"><ele>773.3333333333333</ele><time>2026-03-27T13:52:26.999Z</time></trkpt><trkpt lat="40.65943522609963" lon="9.17445993649264"><ele>772.0</ele><time>2026-03-27T13:52:27.999Z</time></trkpt><trkpt lat="40.659566958487495" lon="9.174299714352726"><ele>771.6666666666666</ele><time>2026-03-27T13:52:28.999Z</time></trkpt><trkpt lat="40.659707572218345" lon="9.17415504506312"><ele>771.3333333333333</ele><time>2026-03-27T13:52:29.999Z</time></trkpt><trkpt lat="40.659846252419094" lon="9.174016687620203"><ele>771.0</ele><time>2026-03-27T13:52:30.999Z</time></trkpt><trkpt lat="40.659951070543464" lon="9.173896163429147"><ele>771.0</ele><time>2026-03-27T13:52:31.999Z</time></trkpt><trkpt lat="40.66004771747674" lon="9.17377435741018"><ele>771.0</ele><time>2026-03-27T13:52:32.999Z</time></trkpt><trkpt lat="40.6601404757162" lon="9.173665097340416"><ele>771.0</ele><time>2026-03-27T13:52:33.999Z</time></trkpt><trkpt lat="40.66024391810924" lon="9.173547789183173"><ele>771.0</ele><time>2026-03-27T13:52:34.999Z</time></trkpt><trkpt lat="40.66033101073787" lon="9.173406842884464"><ele>773.3333333333333</ele><time>2026-03-27T13:52:35.999Z</time></trkpt><trkpt lat="40.66039859874427" lon="9.17322358083968"><ele>775.6666666666666</ele><time>2026-03-27T13:52:36.999Z</time></trkpt><trkpt lat="40.66044555610126" lon="9.172979043272896"><ele>778.0</ele><time>2026-03-27T13:52:37.999Z</time></trkpt><trkpt lat="40.66049577734875" lon="9.172768214593475"><ele>778.0</ele><time>2026-03-27T13:52:38.999Z</time></trkpt><trkpt lat="40.66055732389732" lon="9.172626396237305"><ele>778.0</ele><time>2026-03-27T13:52:39.999Z</time></trkpt><trkpt lat="40.66062872675163" lon="9.172491088823605"><ele>778.0</ele><time>2026-03-27T13:52:40.999Z</time></trkpt><trkpt lat="40.6607403350861" lon="9.172378515842288"><ele>778.0</ele><time>2026-03-27T13:52:41.999Z</time></trkpt><trkpt lat="40.660875979328104" lon="9.172249180228587"><ele>776.0</ele><time>2026-03-27T13:52:42.999Z</time></trkpt><trkpt lat="40.66100024943991" lon="9.17214299378408"><ele>774.0</ele><time>2026-03-27T13:52:43.999Z</time></trkpt><trkpt lat="40.6611097601221" lon="9.172008555188514"><ele>772.0</ele><time>2026-03-27T13:52:44.999Z</time></trkpt><trkpt lat="40.6611672571764" lon="9.1718493196577"><ele>770.0</ele><time>2026-03-27T13:52:45.999Z</time></trkpt><trkpt lat="40.66120326789702" lon="9.171671483388192"><ele>774.3333333333334</ele><time>2026-03-27T13:52:46.999Z</time></trkpt><trkpt lat="40.66122328165281" lon="9.171456238877784"><ele>778.6666666666667</ele><time>2026-03-27T13:52:47.999Z</time></trkpt><trkpt lat="40.661221414596284" lon="9.171257334417216"><ele>783.0</ele><time>2026-03-27T13:52:48.999Z</time></trkpt><trkpt lat="40.6611639402693" lon="9.171083107478456"><ele>777.6666666666666</ele><time>2026-03-27T13:52:49.999Z</time></trkpt><trkpt lat="40.661089431588294" lon="9.170884962538612"><ele>772.3333333333333</ele><time>2026-03-27T13:52:50.999Z</time></trkpt><trkpt lat="40.661012234482946" lon="9.170664577795405"><ele>767.0</ele><time>2026-03-27T13:52:51.999Z</time></trkpt><trkpt lat="40.660953073734284" lon="9.170475992984287"><ele>766.6</ele><time>2026-03-27T13:52:52.999Z</time></trkpt><trkpt lat="40.66090065348608" lon="9.170309782343192"><ele>766.2</ele><time>2026-03-27T13:52:53.999Z</time></trkpt><trkpt lat="40.66086008344773" lon="9.170167689659575"><ele>765.8</ele><time>2026-03-27T13:52:54.999Z</time></trkpt><trkpt lat="40.660855762234206" lon="9.1700575187496"><ele>765.4</ele><time>2026-03-27T13:52:55.999Z</time></trkpt><trkpt lat="40.66089998922768" lon="9.169957562618013"><ele>765.0</ele><time>2026-03-27T13:52:57Z</time></trkpt><trkpt lat="40.66095105623952" lon="9.169864646800114"><ele>765.25</ele><time>2026-03-27T13:52:58Z</time></trkpt><trkpt lat="40.66102953455836" lon="9.169773375832644"><ele>765.5</ele><time>2026-03-27T13:52:59Z</time></trkpt><trkpt lat="40.661140056415086" lon="9.169683012247248"><ele>765.75</ele><time>2026-03-27T13:53:00Z</time></trkpt><trkpt lat="40.66126319783807" lon="9.169554341941874"><ele>766.0</ele><time>2026-03-27T13:53:01Z</time></trkpt><trkpt lat="40.66137708012214" lon="9.16942193473962"><ele>766.0</ele><time>2026-03-27T13:53:02Z</time></trkpt><trkpt lat="40.66147195387028" lon="9.169263272227093"><ele>766.0</ele><time>2026-03-27T13:53:03Z</time></trkpt><trkpt lat="40.66155899163091" lon="9.169102607134242"><ele>766.0</ele><time>2026-03-27T13:53:04Z</time></trkpt><trkpt lat="40.66161798049947" lon="9.168928746956958"><ele>766.0</ele><time>2026-03-27T13:53:05Z</time></trkpt><trkpt lat="40.66165335573895" lon="9.168743459313161"><ele>764.75</ele><time>2026-03-27T13:53:06Z</time></trkpt><trkpt lat="40.66165766039404" lon="9.168585601607273"><ele>763.5</ele><time>2026-03-27T13:53:07Z</time></trkpt><trkpt lat="40.661646216816614" lon="9.168412177770845"><ele>762.25</ele><time>2026-03-27T13:53:08Z</time></trkpt><trkpt lat="40.661672328957685" lon="9.168236833340695"><ele>761.0</ele><time>2026-03-27T13:53:09Z</time></trkpt><trkpt lat="40.661719637340425" lon="9.168040592177606"><ele>760.3333333333333</ele><time>2026-03-27T13:53:10Z</time></trkpt><trkpt lat="40.66176704974631" lon="9.167831463621129"><ele>759.6666666666666</ele><time>2026-03-27T13:53:11Z</time></trkpt><trkpt lat="40.661813037137414" lon="9.167619013617587"><ele>759.0</ele><time>2026-03-27T13:53:12Z</time></trkpt><trkpt lat="40.66184471769255" lon="9.167403551161245"><ele>758.6666666666666</ele><time>2026-03-27T13:53:13Z</time></trkpt><trkpt lat="40.661886138851735" lon="9.167189748987289"><ele>758.3333333333333</ele><time>2026-03-27T13:53:14Z</time></trkpt><trkpt lat="40.66191761393973" lon="9.166988025337037"><ele>758.0</ele><time>2026-03-27T13:53:15Z</time></trkpt><trkpt lat="40.66194036845064" lon="9.166800005685111"><ele>757.5999999999999</ele><time>2026-03-27T13:53:16Z</time></trkpt><trkpt lat="40.66195749002477" lon="9.166633860066897"><ele>757.1999999999999</ele><time>2026-03-27T13:53:17Z</time></trkpt><trkpt lat="40.6619666793145" lon="9.166475347149087"><ele>756.8</ele><time>2026-03-27T13:53:18Z</time></trkpt><trkpt lat="40.661999369566914" lon="9.166348474040943"><ele>756.4</ele><time>2026-03-27T13:53:19Z</time></trkpt><trkpt lat="40.66202332343651" lon="9.16625549387531"><ele>756.0</ele><time>2026-03-27T13:53:20Z</time></trkpt><trkpt lat="40.66205461689453" lon="9.166170013818983"><ele>755.4</ele><time>2026-03-27T13:53:21Z</time></trkpt><trkpt lat="40.662109453678816" lon="9.166051172208666"><ele>754.8</ele><time>2026-03-27T13:53:22Z</time></trkpt><trkpt lat="40.66218464254184" lon="9.165922881111385"><ele>754.1999999999999</ele><time>2026-03-27T13:53:23Z</time></trkpt><trkpt lat="40.6622527289017" lon="9.165836386436832"><ele>753.5999999999999</ele><time>2026-03-27T13:53:24Z</time></trkpt><trkpt lat="40.66232799772739" lon="9.165768406666194"><ele>753.0</ele><time>2026-03-27T13:53:25Z</time></trkpt><trkpt lat="40.66243481329963" lon="9.16572995391473"><ele>753.0</ele><time>2026-03-27T13:53:26Z</time></trkpt><trkpt lat="40.662548481163554" lon="9.165705276237578"><ele>753.0</ele><time>2026-03-27T13:53:27Z</time></trkpt><trkpt lat="40.662654742770805" lon="9.165696618794534"><ele>753.0</ele><time>2026-03-27T13:53:28Z</time></trkpt><trkpt lat="40.66273989790366" lon="9.165746184217594"><ele>753.0</ele><time>2026-03-27T13:53:29Z</time></trkpt><trkpt lat="40.662798710098464" lon="9.165846766766576"><ele>753.0</ele><time>2026-03-27T13:53:30Z</time></trkpt><trkpt lat="40.662838887197076" lon="9.165965046032035"><ele>749.0</ele><time>2026-03-27T13:53:31Z</time></trkpt><trkpt lat="40.66290254882356" lon="9.166120168971483"><ele>745.0</ele><time>2026-03-27T13:53:32Z</time></trkpt><trkpt lat="40.66299595935281" lon="9.16631981635214"><ele>741.0</ele><time>2026-03-27T13:53:33Z</time></trkpt><trkpt lat="40.66305822658661" lon="9.166497361486593"><ele>742.6666666666666</ele><time>2026-03-27T13:53:34Z</time></trkpt><trkpt lat="40.66313796027808" lon="9.166673374653437"><ele>744.3333333333333</ele><time>2026-03-27T13:53:35Z</time></trkpt><trkpt lat="40.663224798124766" lon="9.16685748914366"><ele>746.0</ele><time>2026-03-27T13:53:36Z</time></trkpt><trkpt lat="40.66331314253073" lon="9.167037528536442"><ele>746.0</ele><time>2026-03-27T13:53:37Z</time></trkpt><trkpt lat="40.66340292474686" lon="9.167186293700361"><ele>746.0</ele><time>2026-03-27T13:53:38Z</time></trkpt><trkpt lat="40.66349814803297" lon="9.167315091376677"><ele>746.0</ele><time>2026-03-27T13:53:39Z</time></trkpt><trkpt lat="40.6636097105424" lon="9.167433384689868"><ele>746.0</ele><time>2026-03-27T13:53:40Z</time></trkpt><trkpt lat="40.66372979481459" lon="9.167529045372575"><ele>746.8</ele><time>2026-03-27T13:53:41Z</time></trkpt><trkpt lat="40.663853197595806" lon="9.167608056078967"><ele>747.5999999999999</ele><time>2026-03-27T13:53:42Z</time></trkpt><trkpt lat="40.66395918741944" lon="9.1676512356498"><ele>748.4</ele><time>2026-03-27T13:53:43Z</time></trkpt><trkpt lat="40.66404370717211" lon="9.167658734086444"><ele>749.2</ele><time>2026-03-27T13:53:44Z</time></trkpt><trkpt lat="40.66411357332491" lon="9.167638718785224"><ele>750.0</ele><time>2026-03-27T13:53:45Z</time></trkpt><trkpt lat="40.66418085853918" lon="9.167593573201767"><ele>750.0</ele><time>2026-03-27T13:53:46Z</time></trkpt><trkpt lat="40.66424061493697" lon="9.167511686584268"><ele>750.0</ele><time>2026-03-27T13:53:47Z</time></trkpt><trkpt lat="40.66428675690965" lon="9.167420457629696"><ele>750.0</ele><time>2026-03-27T13:53:48Z</time></trkpt><trkpt lat="40.66430113807755" lon="9.167308035081813"><ele>750.0</ele><time>2026-03-27T13:53:49Z</time></trkpt><trkpt lat="40.66429708449241" lon="9.167179531718887"><ele>750.0</ele><time>2026-03-27T13:53:50Z</time></trkpt><trkpt lat="40.66429444025022" lon="9.1670311813071"><ele>749.0</ele><time>2026-03-27T13:53:51Z</time></trkpt><trkpt lat="40.66428033706028" lon="9.166862762001635"><ele>748.0</ele><time>2026-03-27T13:53:52Z</time></trkpt><trkpt lat="40.66425817624373" lon="9.166669070550272"><ele>747.0</ele><time>2026-03-27T13:53:53Z</time></trkpt><trkpt lat="40.66421168375978" lon="9.166458977337696"><ele>746.0</ele><time>2026-03-27T13:53:54Z</time></trkpt><trkpt lat="40.664174000931375" lon="9.166238780309286"><ele>744.3333333333333</ele><time>2026-03-27T13:53:55Z</time></trkpt><trkpt lat="40.66414672399656" lon="9.166010784525746"><ele>742.6666666666666</ele><time>2026-03-27T13:53:56Z</time></trkpt><trkpt lat="40.66416436216179" lon="9.165776115197847"><ele>741.0</ele><time>2026-03-27T13:53:57Z</time></trkpt><trkpt lat="40.66417798400076" lon="9.16551953358343"><ele>739.0</ele><time>2026-03-27T13:53:58Z</time></trkpt><trkpt lat="40.66419410699343" lon="9.165268924951397"><ele>737.0</ele><time>2026-03-27T13:53:59Z</time></trkpt><trkpt lat="40.66420999594505" lon="9.165011041796422"><ele>735.0</ele><time>2026-03-27T13:53:59.999Z</time></trkpt><trkpt lat="40.66422375508531" lon="9.164760887381604"><ele>733.6666666666666</ele><time>2026-03-27T13:54:00.999Z</time></trkpt><trkpt lat="40.6642362878961" lon="9.16453302911401"><ele>732.3333333333333</ele><time>2026-03-27T13:54:01.999Z</time></trkpt><trkpt lat="40.66424385469583" lon="9.164321871866361"><ele>731.0</ele><time>2026-03-27T13:54:02.999Z</time></trkpt><trkpt lat="40.66424326154636" lon="9.164109196311424"><ele>728.75</ele><time>2026-03-27T13:54:03.999Z</time></trkpt><trkpt lat="40.66424726416262" lon="9.163900934740957"><ele>726.5</ele><time>2026-03-27T13:54:04.999Z</time></trkpt><trkpt lat="40.664251659774145" lon="9.163706062732368"><ele>724.25</ele><time>2026-03-27T13:54:05.999Z</time></trkpt><trkpt lat="40.66425994655374" lon="9.163517807107946"><ele>722.0</ele><time>2026-03-27T13:54:06.999Z</time></trkpt><trkpt lat="40.66427349783131" lon="9.163338216598055"><ele>721.5</ele><time>2026-03-27T13:54:07.999Z</time></trkpt><trkpt lat="40.66429053783348" lon="9.163164101891232"><ele>721.0</ele><time>2026-03-27T13:54:08.999Z</time></trkpt><trkpt lat="40.664361725490664" lon="9.163015944069874"><ele>720.5</ele><time>2026-03-27T13:54:09.999Z</time></trkpt><trkpt lat="40.66444599685132" lon="9.1628726368626"><ele>720.0</ele><time>2026-03-27T13:54:10.999Z</time></trkpt><trkpt lat="40.664538734224635" lon="9.162720156865834"><ele>720.0</ele><time>2026-03-27T13:54:11.999Z</time></trkpt><trkpt lat="40.66461293165642" lon="9.162582936660902"><ele>720.0</ele><time>2026-03-27T13:54:12.999Z</time></trkpt><trkpt lat="40.664642014543745" lon="9.16245554068279"><ele>720.0</ele><time>2026-03-27T13:54:13.999Z</time></trkpt><trkpt lat="40.664679401688296" lon="9.162347272433484"><ele>720.0</ele><time>2026-03-27T13:54:14.999Z</time></trkpt><trkpt lat="40.66466289427721" lon="9.16221524114354"><ele>720.0</ele><time>2026-03-27T13:54:15.999Z</time></trkpt><trkpt lat="40.66464846669013" lon="9.162072417551173"><ele>718.4</ele><time>2026-03-27T13:54:16.999Z</time></trkpt><trkpt lat="40.66461761271648" lon="9.161938490776"><ele>716.8</ele><time>2026-03-27T13:54:17.999Z</time></trkpt><trkpt lat="40.66459462413519" lon="9.161805574086628"><ele>715.2</ele><time>2026-03-27T13:54:18.999Z</time></trkpt><trkpt lat="40.664648097016794" lon="9.161683661583009"><ele>713.6</ele><time>2026-03-27T13:54:19.999Z</time></trkpt><trkpt lat="40.66467035958888" lon="9.161541895692691"><ele>712.0</ele><time>2026-03-27T13:54:20.999Z</time></trkpt><trkpt lat="40.6646683543133" lon="9.16137339708064"><ele>710.3333333333334</ele><time>2026-03-27T13:54:21.999Z</time></trkpt><trkpt lat="40.66463810621804" lon="9.161177678553736"><ele>708.6666666666666</ele><time>2026-03-27T13:54:22.999Z</time></trkpt><trkpt lat="40.66458822527859" lon="9.16096231588057"><ele>707.0</ele><time>2026-03-27T13:54:23.999Z</time></trkpt><trkpt lat="40.66452789589493" lon="9.160742345117008"><ele>705.0</ele><time>2026-03-27T13:54:24.999Z</time></trkpt><trkpt lat="40.66447143210229" lon="9.160517729527063"><ele>703.0</ele><time>2026-03-27T13:54:25.999Z</time></trkpt><trkpt lat="40.66442431234366" lon="9.160310933127148"><ele>701.0</ele><time>2026-03-27T13:54:26.999Z</time></trkpt><trkpt lat="40.664385894194695" lon="9.160121737729394"><ele>696.5</ele><time>2026-03-27T13:54:27.999Z</time></trkpt><trkpt lat="40.66435384237321" lon="9.15994895799366"><ele>692.0</ele><time>2026-03-27T13:54:28.999Z</time></trkpt><trkpt lat="40.6643261327362" lon="9.15978008034504"><ele>687.5</ele><time>2026-03-27T13:54:29.999Z</time></trkpt><trkpt lat="40.66432732377244" lon="9.159608987289731"><ele>683.0</ele><time>2026-03-27T13:54:30.999Z</time></trkpt><trkpt lat="40.664330802162205" lon="9.159426149398062"><ele>682.0</ele><time>2026-03-27T13:54:31.999Z</time></trkpt><trkpt lat="40.66435222546698" lon="9.15922599667819"><ele>681.0</ele><time>2026-03-27T13:54:32.999Z</time></trkpt><trkpt lat="40.664376391391095" lon="9.159009645894901"><ele>680.0</ele><time>2026-03-27T13:54:33.999Z</time></trkpt><trkpt lat="40.66437576181316" lon="9.158818182143278"><ele>680.0</ele><time>2026-03-27T13:54:34.999Z</time></trkpt><trkpt lat="40.66439140705709" lon="9.158646309473943"><ele>680.0</ele><time>2026-03-27T13:54:35.999Z</time></trkpt><trkpt lat="40.664411739820714" lon="9.158495303234144"><ele>680.0</ele><time>2026-03-27T13:54:36.999Z</time></trkpt><trkpt lat="40.66444274291009" lon="9.15836443853285"><ele>680.0</ele><time>2026-03-27T13:54:37.999Z</time></trkpt><trkpt lat="40.66449780520367" lon="9.158242546739315"><ele>677.75</ele><time>2026-03-27T13:54:38.999Z</time></trkpt><trkpt lat="40.66457451873776" lon="9.158133764887225"><ele>675.5</ele><time>2026-03-27T13:54:39.999Z</time></trkpt><trkpt lat="40.6646593453086" lon="9.158048544815765"><ele>673.25</ele><time>2026-03-27T13:54:40.999Z</time></trkpt><trkpt lat="40.66476122149645" lon="9.157990456867147"><ele>671.0</ele><time>2026-03-27T13:54:41.999Z</time></trkpt><trkpt lat="40.66488411733552" lon="9.157947371289708"><ele>671.0</ele><time>2026-03-27T13:54:42.999Z</time></trkpt><trkpt lat="40.66500780095319" lon="9.157907149863695"><ele>671.0</ele><time>2026-03-27T13:54:43.999Z</time></trkpt><trkpt lat="40.665126627993665" lon="9.157875331350539"><ele>671.0</ele><time>2026-03-27T13:54:44.999Z</time></trkpt><trkpt lat="40.66523581362344" lon="9.157860696188866"><ele>671.0</ele><time>2026-03-27T13:54:45.999Z</time></trkpt><trkpt lat="40.66531978506902" lon="9.157839718727931"><ele>671.0</ele><time>2026-03-27T13:54:46.999Z</time></trkpt><trkpt lat="40.665419999304355" lon="9.157749863106476"><ele>670.0</ele><time>2026-03-27T13:54:48.999Z</time></trkpt><trkpt lat="40.66544501829258" lon="9.157671960257549"><ele>669.0</ele><time>2026-03-27T13:54:49.999Z</time></trkpt><trkpt lat="40.66544208974359" lon="9.157579596979355"><ele>668.0</ele><time>2026-03-27T13:54:50.999Z</time></trkpt><trkpt lat="40.665405306593314" lon="9.157495842689366"><ele>667.0</ele><time>2026-03-27T13:54:51.999Z</time></trkpt><trkpt lat="40.6653517482465" lon="9.157424797317773"><ele>666.0</ele><time>2026-03-27T13:54:52.999Z</time></trkpt><trkpt lat="40.665281657841255" lon="9.157366050693934"><ele>665.0</ele><time>2026-03-27T13:54:53.999Z</time></trkpt><trkpt lat="40.66521640380397" lon="9.157313472258416"><ele>664.0</ele><time>2026-03-27T13:54:54.999Z</time></trkpt><trkpt lat="40.66517332457941" lon="9.157252126450437"><ele>664.0</ele><time>2026-03-27T13:54:55.999Z</time></trkpt><trkpt lat="40.66517340786697" lon="9.157148028557742"><ele>664.0</ele><time>2026-03-27T13:54:56.999Z</time></trkpt><trkpt lat="40.66516431399311" lon="9.157063919125813"><ele>664.0</ele><time>2026-03-27T13:54:57.998Z</time></trkpt><trkpt lat="40.66518351293159" lon="9.15698423793452"><ele>664.0</ele><time>2026-03-27T13:54:58.998Z</time></trkpt><trkpt lat="40.6652498931177" lon="9.156931124614943"><ele>664.0</ele><time>2026-03-27T13:54:59.998Z</time></trkpt><trkpt lat="40.66533276737892" lon="9.156921828869311"><ele>664.0</ele><time>2026-03-27T13:55:00.998Z</time></trkpt><trkpt lat="40.66541704188423" lon="9.156894624208888"><ele>662.25</ele><time>2026-03-27T13:55:01.998Z</time></trkpt><trkpt lat="40.66553358591618" lon="9.156877313108554"><ele>660.5</ele><time>2026-03-27T13:55:03Z</time></trkpt><trkpt lat="40.665667519068776" lon="9.156857139849569"><ele>658.75</ele><time>2026-03-27T13:55:04Z</time></trkpt><trkpt lat="40.66578183639746" lon="9.156833554015847"><ele>657.0</ele><time>2026-03-27T13:55:05Z</time></trkpt><trkpt lat="40.66588298554385" lon="9.156858388699538"><ele>657.0</ele><time>2026-03-27T13:55:06Z</time></trkpt><trkpt lat="40.66598407168499" lon="9.156878315569221"><ele>657.0</ele><time>2026-03-27T13:55:07Z</time></trkpt><trkpt lat="40.66608962078014" lon="9.156943699697882"><ele>657.0</ele><time>2026-03-27T13:55:08Z</time></trkpt><trkpt lat="40.66621582377279" lon="9.157017143742198"><ele>657.0</ele><time>2026-03-27T13:55:09Z</time></trkpt><trkpt lat="40.66632288424696" lon="9.15712177388711"><ele>653.25</ele><time>2026-03-27T13:55:10Z</time></trkpt><trkpt lat="40.666427670305545" lon="9.157229870351083"><ele>649.5</ele><time>2026-03-27T13:55:11Z</time></trkpt><trkpt lat="40.66652571104235" lon="9.157339110241674"><ele>645.75</ele><time>2026-03-27T13:55:12Z</time></trkpt><trkpt lat="40.666608637507366" lon="9.157457146610538"><ele>642.0</ele><time>2026-03-27T13:55:13Z</time></trkpt><trkpt lat="40.66667651318501" lon="9.157592339395254"><ele>641.75</ele><time>2026-03-27T13:55:14Z</time></trkpt><trkpt lat="40.66673299904717" lon="9.157729263876872"><ele>641.5</ele><time>2026-03-27T13:55:15Z</time></trkpt><trkpt lat="40.666791236310324" lon="9.157868048676642"><ele>641.25</ele><time>2026-03-27T13:55:16Z</time></trkpt><trkpt lat="40.66687102637539" lon="9.15798900863638"><ele>641.0</ele><time>2026-03-27T13:55:17Z</time></trkpt><trkpt lat="40.66696680673342" lon="9.158083744611694"><ele>638.25</ele><time>2026-03-27T13:55:18Z</time></trkpt><trkpt lat="40.667073792612925" lon="9.158178150637308"><ele>635.5</ele><time>2026-03-27T13:55:19Z</time></trkpt><trkpt lat="40.66718849179489" lon="9.158266335359986"><ele>632.75</ele><time>2026-03-27T13:55:20Z</time></trkpt><trkpt lat="40.66731320063394" lon="9.15835162043788"><ele>630.0</ele><time>2026-03-27T13:55:21Z</time></trkpt><trkpt lat="40.66745179629953" lon="9.158428894310466"><ele>630.0</ele><time>2026-03-27T13:55:22Z</time></trkpt><trkpt lat="40.667591943083565" lon="9.158507661760785"><ele>630.0</ele><time>2026-03-27T13:55:23Z</time></trkpt><trkpt lat="40.667721466356056" lon="9.158584264157996"><ele>630.0</ele><time>2026-03-27T13:55:24Z</time></trkpt><trkpt lat="40.667841314496904" lon="9.1586565748351"><ele>630.0</ele><time>2026-03-27T13:55:25Z</time></trkpt><trkpt lat="40.667958006529354" lon="9.158748646851343"><ele>627.0</ele><time>2026-03-27T13:55:26Z</time></trkpt><trkpt lat="40.66806599886225" lon="9.15883273015475"><ele>624.0</ele><time>2026-03-27T13:55:27Z</time></trkpt><trkpt lat="40.66815815420197" lon="9.158910395592445"><ele>621.0</ele><time>2026-03-27T13:55:28Z</time></trkpt><trkpt lat="40.66825689147032" lon="9.158979354087306"><ele>618.0</ele><time>2026-03-27T13:55:29Z</time></trkpt><trkpt lat="40.668358583808896" lon="9.159005698473356"><ele>618.0</ele><time>2026-03-27T13:55:30Z</time></trkpt><trkpt lat="40.66846646572313" lon="9.158993219755239"><ele>618.0</ele><time>2026-03-27T13:55:31Z</time></trkpt><trkpt lat="40.6685808649391" lon="9.158946398387542"><ele>618.0</ele><time>2026-03-27T13:55:32Z</time></trkpt><trkpt lat="40.66869928327952" lon="9.15888858588786"><ele>618.0</ele><time>2026-03-27T13:55:33Z</time></trkpt><trkpt lat="40.66881661455938" lon="9.158855985601907"><ele>615.0</ele><time>2026-03-27T13:55:34Z</time></trkpt><trkpt lat="40.66893145248688" lon="9.158853835420114"><ele>612.0</ele><time>2026-03-27T13:55:35Z</time></trkpt><trkpt lat="40.66903872164708" lon="9.158873994491152"><ele>609.0</ele><time>2026-03-27T13:55:36Z</time></trkpt><trkpt lat="40.66914936243628" lon="9.158946514648411"><ele>606.0</ele><time>2026-03-27T13:55:37Z</time></trkpt><trkpt lat="40.66925142951264" lon="9.159031621582812"><ele>604.0</ele><time>2026-03-27T13:55:38Z</time></trkpt><trkpt lat="40.66936634831363" lon="9.159133843901913"><ele>602.0</ele><time>2026-03-27T13:55:39Z</time></trkpt><trkpt lat="40.669498888932736" lon="9.159228577163372"><ele>600.0</ele><time>2026-03-27T13:55:40Z</time></trkpt><trkpt lat="40.66964472903662" lon="9.159295247075342"><ele>598.0</ele><time>2026-03-27T13:55:41Z</time></trkpt><trkpt lat="40.66979049613306" lon="9.159351325086146"><ele>598.0</ele><time>2026-03-27T13:55:42Z</time></trkpt><trkpt lat="40.66992332135555" lon="9.159409938695227"><ele>598.0</ele><time>2026-03-27T13:55:43Z</time></trkpt><trkpt lat="40.67004117825644" lon="9.159482082430749"><ele>598.0</ele><time>2026-03-27T13:55:44Z</time></trkpt><trkpt lat="40.67016342773277" lon="9.159569915597302"><ele>598.0</ele><time>2026-03-27T13:55:45Z</time></trkpt><trkpt lat="40.67028864117483" lon="9.159644824064783"><ele>594.25</ele><time>2026-03-27T13:55:46Z</time></trkpt><trkpt lat="40.67041518438332" lon="9.159714784619485"><ele>590.5</ele><time>2026-03-27T13:55:47Z</time></trkpt><trkpt lat="40.67054569937982" lon="9.1597513886222"><ele>586.75</ele><time>2026-03-27T13:55:48Z</time></trkpt><trkpt lat="40.67067931314614" lon="9.159745120178757"><ele>583.0</ele><time>2026-03-27T13:55:49Z</time></trkpt><trkpt lat="40.67080683899722" lon="9.15971171428209"><ele>583.0</ele><time>2026-03-27T13:55:50Z</time></trkpt><trkpt lat="40.67093255171213" lon="9.15966761910987"><ele>583.0</ele><time>2026-03-27T13:55:51Z</time></trkpt><trkpt lat="40.671043425978056" lon="9.159653009030068"><ele>583.0</ele><time>2026-03-27T13:55:52Z</time></trkpt><trkpt lat="40.671146313369455" lon="9.159660714696514"><ele>583.0</ele><time>2026-03-27T13:55:53Z</time></trkpt><trkpt lat="40.671240989188405" lon="9.159670470455714"><ele>583.0</ele><time>2026-03-27T13:55:54Z</time></trkpt><trkpt lat="40.67133571482478" lon="9.159701897780213"><ele>584.25</ele><time>2026-03-27T13:55:55Z</time></trkpt><trkpt lat="40.671441728335196" lon="9.159755585485588"><ele>585.5</ele><time>2026-03-27T13:55:56Z</time></trkpt><trkpt lat="40.671569543479" lon="9.159810032068101"><ele>586.75</ele><time>2026-03-27T13:55:56.999Z</time></trkpt><trkpt lat="40.67169675105265" lon="9.159849791556748"><ele>588.0</ele><time>2026-03-27T13:55:57.999Z</time></trkpt><trkpt lat="40.671811019554916" lon="9.159887916304486"><ele>588.0</ele><time>2026-03-27T13:55:58.999Z</time></trkpt><trkpt lat="40.67191619549306" lon="9.159923175813784"><ele>588.0</ele><time>2026-03-27T13:55:59.999Z</time></trkpt><trkpt lat="40.67199935403164" lon="9.15995626348352"><ele>588.0</ele><time>2026-03-27T13:56:00.999Z</time></trkpt><trkpt lat="40.67207734923189" lon="9.160000509505945"><ele>588.0</ele><time>2026-03-27T13:56:01.999Z</time></trkpt><trkpt lat="40.67214866063659" lon="9.160080344485404"><ele>588.0</ele><time>2026-03-27T13:56:02.999Z</time></trkpt><trkpt lat="40.672182447657406" lon="9.160195242443745"><ele>584.6</ele><time>2026-03-27T13:56:03.999Z</time></trkpt><trkpt lat="40.67222297043159" lon="9.16033008068868"><ele>581.1999999999999</ele><time>2026-03-27T13:56:04.999Z</time></trkpt><trkpt lat="40.6722712190903" lon="9.160488484191719"><ele>577.8</ele><time>2026-03-27T13:56:05.999Z</time></trkpt><trkpt lat="40.67228830810214" lon="9.160627949582553"><ele>574.4</ele><time>2026-03-27T13:56:06.999Z</time></trkpt><trkpt lat="40.67229938864252" lon="9.16073886710344"><ele>571.0</ele><time>2026-03-27T13:56:07.999Z</time></trkpt><trkpt lat="40.67233383241125" lon="9.160845985734706"><ele>571.0</ele><time>2026-03-27T13:56:08.999Z</time></trkpt><trkpt lat="40.67240563911532" lon="9.160947384547697"><ele>571.0</ele><time>2026-03-27T13:56:09.999Z</time></trkpt><trkpt lat="40.672503383704225" lon="9.161022815535418"><ele>571.0</ele><time>2026-03-27T13:56:10.999Z</time></trkpt><trkpt lat="40.67262293132791" lon="9.161072578261052"><ele>571.0</ele><time>2026-03-27T13:56:11.999Z</time></trkpt><trkpt lat="40.67274829909263" lon="9.161096915586265"><ele>568.25</ele><time>2026-03-27T13:56:12.999Z</time></trkpt><trkpt lat="40.672879467587315" lon="9.161097194272871"><ele>565.5</ele><time>2026-03-27T13:56:13.999Z</time></trkpt><trkpt lat="40.673007249783964" lon="9.16107526495723"><ele>562.75</ele><time>2026-03-27T13:56:14.999Z</time></trkpt><trkpt lat="40.67313470155362" lon="9.161037474746925"><ele>560.0</ele><time>2026-03-27T13:56:15.999Z</time></trkpt><trkpt lat="40.6732528768688" lon="9.160965574430188"><ele>560.0</ele><time>2026-03-27T13:56:16.999Z</time></trkpt><trkpt lat="40.673364506902445" lon="9.160878299531404"><ele>560.0</ele><time>2026-03-27T13:56:17.999Z</time></trkpt><trkpt lat="40.67348103318709" lon="9.160787577401095"><ele>560.0</ele><time>2026-03-27T13:56:18.999Z</time></trkpt><trkpt lat="40.67359768644006" lon="9.160704818229004"><ele>560.0</ele><time>2026-03-27T13:56:19.999Z</time></trkpt><trkpt lat="40.67372021154766" lon="9.16063527600786"><ele>556.25</ele><time>2026-03-27T13:56:20.999Z</time></trkpt><trkpt lat="40.673856644207106" lon="9.16058178565357"><ele>552.5</ele><time>2026-03-27T13:56:21.999Z</time></trkpt><trkpt lat="40.673992092777915" lon="9.160525585770493"><ele>548.75</ele><time>2026-03-27T13:56:22.999Z</time></trkpt><trkpt lat="40.67412119636299" lon="9.160457105265131"><ele>545.0</ele><time>2026-03-27T13:56:23.999Z</time></trkpt><trkpt lat="40.674228500507525" lon="9.160388882605426"><ele>545.0</ele><time>2026-03-27T13:56:24.999Z</time></trkpt><trkpt lat="40.674317848553045" lon="9.160328050413927"><ele>545.0</ele><time>2026-03-27T13:56:25.999Z</time></trkpt><trkpt lat="40.67437924060151" lon="9.16026653130599"><ele>545.0</ele><time>2026-03-27T13:56:26.999Z</time></trkpt><trkpt lat="40.67444928454822" lon="9.16017959461422"><ele>545.0</ele><time>2026-03-27T13:56:28.999Z</time></trkpt><trkpt lat="40.67444073693953" lon="9.160080527835456"><ele>545.0</ele><time>2026-03-27T13:56:30.999Z</time></trkpt><trkpt lat="40.67434569614164" lon="9.159986016368082"><ele>545.0</ele><time>2026-03-27T13:56:32.999Z</time></trkpt><trkpt lat="40.6742824438243" lon="9.15993992209661"><ele>545.0</ele><time>2026-03-27T13:56:33.999Z</time></trkpt><trkpt lat="40.67423956706173" lon="9.159842719592737"><ele>545.0</ele><time>2026-03-27T13:56:34.999Z</time></trkpt><trkpt lat="40.67417590112527" lon="9.159735883605379"><ele>545.0</ele><time>2026-03-27T13:56:35.999Z</time></trkpt><trkpt lat="40.67411092133992" lon="9.159611938183648"><ele>545.0</ele><time>2026-03-27T13:56:36.999Z</time></trkpt><trkpt lat="40.67405153161278" lon="9.15943803786521"><ele>544.3333333333333</ele><time>2026-03-27T13:56:37.999Z</time></trkpt><trkpt lat="40.67400922048775" lon="9.159235593672156"><ele>543.6666666666666</ele><time>2026-03-27T13:56:38.999Z</time></trkpt><trkpt lat="40.67397633190752" lon="9.159017849950894"><ele>543.0</ele><time>2026-03-27T13:56:39.999Z</time></trkpt><trkpt lat="40.67394946126791" lon="9.1587946653243"><ele>542.75</ele><time>2026-03-27T13:56:40.999Z</time></trkpt><trkpt lat="40.67392516016445" lon="9.158600416724363"><ele>542.5</ele><time>2026-03-27T13:56:41.999Z</time></trkpt><trkpt lat="40.673894230662086" lon="9.158414020431524"><ele>542.25</ele><time>2026-03-27T13:56:42.999Z</time></trkpt><trkpt lat="40.67385501047363" lon="9.158246616736031"><ele>542.0</ele><time>2026-03-27T13:56:43.999Z</time></trkpt><trkpt lat="40.67381992964407" lon="9.158084541793688"><ele>542.75</ele><time>2026-03-27T13:56:44.999Z</time></trkpt><trkpt lat="40.6737866960856" lon="9.15791869140237"><ele>543.5</ele><time>2026-03-27T13:56:45.999Z</time></trkpt><trkpt lat="40.673771704738975" lon="9.157730463967525"><ele>544.25</ele><time>2026-03-27T13:56:46.999Z</time></trkpt><trkpt lat="40.67377141727844" lon="9.157530628645908"><ele>545.0</ele><time>2026-03-27T13:56:47.999Z</time></trkpt><trkpt lat="40.67377402741498" lon="9.157322649430379"><ele>542.6666666666666</ele><time>2026-03-27T13:56:48.999Z</time></trkpt><trkpt lat="40.673780289239595" lon="9.157113183275166"><ele>540.3333333333334</ele><time>2026-03-27T13:56:49.999Z</time></trkpt><trkpt lat="40.67378729716956" lon="9.156903408838781"><ele>538.0</ele><time>2026-03-27T13:56:50.999Z</time></trkpt><trkpt lat="40.67380056918179" lon="9.156705414252688"><ele>534.5</ele><time>2026-03-27T13:56:51.999Z</time></trkpt><trkpt lat="40.67381806992617" lon="9.156526218084736"><ele>531.0</ele><time>2026-03-27T13:56:52.999Z</time></trkpt><trkpt lat="40.673857337878914" lon="9.156345779673781"><ele>527.5</ele><time>2026-03-27T13:56:53.999Z</time></trkpt><trkpt lat="40.673921745100515" lon="9.156156572105363"><ele>524.0</ele><time>2026-03-27T13:56:54.999Z</time></trkpt><trkpt lat="40.67399835499368" lon="9.155974079964556"><ele>524.0</ele><time>2026-03-27T13:56:55.998Z</time></trkpt><trkpt lat="40.6740905404093" lon="9.15580432164837"><ele>524.0</ele><time>2026-03-27T13:56:56.998Z</time></trkpt><trkpt lat="40.67418280760186" lon="9.155645663471418"><ele>524.0</ele><time>2026-03-27T13:56:57.998Z</time></trkpt><trkpt lat="40.674253567595024" lon="9.155481300220343"><ele>520.6666666666666</ele><time>2026-03-27T13:56:58.998Z</time></trkpt><trkpt lat="40.67431250710636" lon="9.1552941138365"><ele>517.3333333333334</ele><time>2026-03-27T13:56:59.998Z</time></trkpt><trkpt lat="40.67435877696925" lon="9.155089246588688"><ele>514.0</ele><time>2026-03-27T13:57:00.998Z</time></trkpt><trkpt lat="40.67438249721674" lon="9.154867027752083"><ele>514.0</ele><time>2026-03-27T13:57:01.998Z</time></trkpt><trkpt lat="40.67438873258192" lon="9.154641422079075"><ele>514.0</ele><time>2026-03-27T13:57:02.998Z</time></trkpt><trkpt lat="40.6743716300275" lon="9.154412029125353"><ele>514.0</ele><time>2026-03-27T13:57:03.998Z</time></trkpt><trkpt lat="40.67434038055651" lon="9.1542086815918"><ele>515.75</ele><time>2026-03-27T13:57:04.998Z</time></trkpt><trkpt lat="40.67430205924689" lon="9.15403414315885"><ele>517.5</ele><time>2026-03-27T13:57:05.998Z</time></trkpt><trkpt lat="40.67424961328978" lon="9.15385928132874"><ele>519.25</ele><time>2026-03-27T13:57:06.998Z</time></trkpt><trkpt lat="40.67417991435129" lon="9.153713138482106"><ele>521.0</ele><time>2026-03-27T13:57:07.998Z</time></trkpt><trkpt lat="40.67408807584473" lon="9.153610459368931"><ele>521.0</ele><time>2026-03-27T13:57:09Z</time></trkpt><trkpt lat="40.67398379038872" lon="9.15353445407021"><ele>521.0</ele><time>2026-03-27T13:57:10Z</time></trkpt><trkpt lat="40.673886683905344" lon="9.153449622681677"><ele>521.0</ele><time>2026-03-27T13:57:11Z</time></trkpt><trkpt lat="40.67382433211527" lon="9.1533438937987"><ele>521.0</ele><time>2026-03-27T13:57:12Z</time></trkpt><trkpt lat="40.67379624079995" lon="9.153211502728068"><ele>521.0</ele><time>2026-03-27T13:57:13Z</time></trkpt><trkpt lat="40.673794910140195" lon="9.153050177374167"><ele>522.6666666666666</ele><time>2026-03-27T13:57:14Z</time></trkpt><trkpt lat="40.67379708493649" lon="9.152858155864283"><ele>524.3333333333334</ele><time>2026-03-27T13:57:15Z</time></trkpt><trkpt lat="40.67379692309658" lon="9.152650775566114"><ele>526.0</ele><time>2026-03-27T13:57:16Z</time></trkpt><trkpt lat="40.673807797897005" lon="9.152425646567353"><ele>523.3333333333334</ele><time>2026-03-27T13:57:17Z</time></trkpt><trkpt lat="40.67382054192376" lon="9.152172220834284"><ele>520.6666666666666</ele><time>2026-03-27T13:57:18Z</time></trkpt><trkpt lat="40.67383677208108" lon="9.15192133142363"><ele>518.0</ele><time>2026-03-27T13:57:19Z</time></trkpt><trkpt lat="40.67385141272064" lon="9.151686719684996"><ele>515.6666666666666</ele><time>2026-03-27T13:57:20Z</time></trkpt><trkpt lat="40.67386323582781" lon="9.151459572491092"><ele>513.3333333333334</ele><time>2026-03-27T13:57:21Z</time></trkpt><trkpt lat="40.673876774504" lon="9.15124980492768"><ele>511.0</ele><time>2026-03-27T13:57:22Z</time></trkpt><trkpt lat="40.67389187376799" lon="9.151040561566004"><ele>511.0</ele><time>2026-03-27T13:57:23Z</time></trkpt><trkpt lat="40.67389896585722" lon="9.150826930763278"><ele>511.0</ele><time>2026-03-27T13:57:24Z</time></trkpt><trkpt lat="40.67389742388327" lon="9.150617570908867"><ele>511.0</ele><time>2026-03-27T13:57:25Z</time></trkpt><trkpt lat="40.67390024644943" lon="9.15041956718039"><ele>507.33333333333337</ele><time>2026-03-27T13:57:26Z</time></trkpt><trkpt lat="40.67392454354847" lon="9.150229578987146"><ele>503.66666666666663</ele><time>2026-03-27T13:57:27Z</time></trkpt><trkpt lat="40.673963131228255" lon="9.150029905250788"><ele>500.0</ele><time>2026-03-27T13:57:28Z</time></trkpt><trkpt lat="40.674010433483126" lon="9.149822868253777"><ele>497.5</ele><time>2026-03-27T13:57:29Z</time></trkpt><trkpt lat="40.674058343166294" lon="9.149624769354293"><ele>495.0</ele><time>2026-03-27T13:57:30Z</time></trkpt><trkpt lat="40.674101217817615" lon="9.149442024964529"><ele>492.5</ele><time>2026-03-27T13:57:31Z</time></trkpt><trkpt lat="40.674136795187266" lon="9.149271218981209"><ele>490.0</ele><time>2026-03-27T13:57:32Z</time></trkpt><trkpt lat="40.67416153153225" lon="9.149107660863498"><ele>489.0</ele><time>2026-03-27T13:57:33Z</time></trkpt><trkpt lat="40.674156729822094" lon="9.148930373376912"><ele>488.0</ele><time>2026-03-27T13:57:34Z</time></trkpt><trkpt lat="40.674133001468" lon="9.148720166171675"><ele>487.0</ele><time>2026-03-27T13:57:35Z</time></trkpt><trkpt lat="40.674108871164776" lon="9.148527648659178"><ele>486.0</ele><time>2026-03-27T13:57:36Z</time></trkpt><trkpt lat="40.674095271950414" lon="9.148337352080842"><ele>483.25</ele><time>2026-03-27T13:57:37Z</time></trkpt><trkpt lat="40.674099036286336" lon="9.14815570980636"><ele>480.5</ele><time>2026-03-27T13:57:38Z</time></trkpt><trkpt lat="40.674116760348944" lon="9.14799948723521"><ele>477.75</ele><time>2026-03-27T13:57:39Z</time></trkpt><trkpt lat="40.67415097762675" lon="9.147867796757494"><ele>475.0</ele><time>2026-03-27T13:57:40Z</time></trkpt><trkpt lat="40.67420857369927" lon="9.147750444856175"><ele>475.0</ele><time>2026-03-27T13:57:41Z</time></trkpt><trkpt lat="40.674288042107605" lon="9.147630944542941"><ele>475.0</ele><time>2026-03-27T13:57:42Z</time></trkpt><trkpt lat="40.67438635048053" lon="9.147504689360446"><ele>475.0</ele><time>2026-03-27T13:57:43Z</time></trkpt><trkpt lat="40.67449558811766" lon="9.14738863984918"><ele>475.0</ele><time>2026-03-27T13:57:44Z</time></trkpt><trkpt lat="40.67461093392912" lon="9.147292948997055"><ele>472.25</ele><time>2026-03-27T13:57:45Z</time></trkpt><trkpt lat="40.67474958603956" lon="9.147230812038014"><ele>469.5</ele><time>2026-03-27T13:57:46Z</time></trkpt><trkpt lat="40.67488786590008" lon="9.147180313959304"><ele>466.75</ele><time>2026-03-27T13:57:47Z</time></trkpt><trkpt lat="40.67503527162364" lon="9.1471283629188"><ele>464.0</ele><time>2026-03-27T13:57:48Z</time></trkpt><trkpt lat="40.675182068190416" lon="9.147055137734151"><ele>464.25</ele><time>2026-03-27T13:57:49Z</time></trkpt><trkpt lat="40.675314919428125" lon="9.147021808211662"><ele>464.5</ele><time>2026-03-27T13:57:50Z</time></trkpt><trkpt lat="40.67541980818366" lon="9.147007834087661"><ele>464.75</ele><time>2026-03-27T13:57:51Z</time></trkpt><trkpt lat="40.675520518720624" lon="9.147031179846016"><ele>465.0</ele><time>2026-03-27T13:57:52Z</time></trkpt><trkpt lat="40.67562024890049" lon="9.147096691173829"><ele>465.0</ele><time>2026-03-27T13:57:53Z</time></trkpt><trkpt lat="40.675735563123276" lon="9.147187990410123"><ele>465.0</ele><time>2026-03-27T13:57:54Z</time></trkpt><trkpt lat="40.67586627098082" lon="9.147278829991214"><ele>465.0</ele><time>2026-03-27T13:57:55Z</time></trkpt><trkpt lat="40.675997446486925" lon="9.147346947491334"><ele>465.0</ele><time>2026-03-27T13:57:56Z</time></trkpt><trkpt lat="40.676125755365135" lon="9.147410619508765"><ele>467.0</ele><time>2026-03-27T13:57:57Z</time></trkpt><trkpt lat="40.67625732611226" lon="9.147464063852695"><ele>469.0</ele><time>2026-03-27T13:57:58Z</time></trkpt><trkpt lat="40.6763933614402" lon="9.147505043317512"><ele>471.0</ele><time>2026-03-27T13:57:59Z</time></trkpt><trkpt lat="40.67652869531895" lon="9.14753423513145"><ele>473.0</ele><time>2026-03-27T13:58:00Z</time></trkpt><trkpt lat="40.67666531186735" lon="9.147541983437707"><ele>473.0</ele><time>2026-03-27T13:58:00.999Z</time></trkpt><trkpt lat="40.67680680574795" lon="9.147527556256131"><ele>473.0</ele><time>2026-03-27T13:58:01.999Z</time></trkpt><trkpt lat="40.67695131705831" lon="9.147493401276513"><ele>473.0</ele><time>2026-03-27T13:58:02.999Z</time></trkpt><trkpt lat="40.67709520011782" lon="9.147446964027285"><ele>473.0</ele><time>2026-03-27T13:58:03.999Z</time></trkpt><trkpt lat="40.67722154505176" lon="9.147379317914389"><ele>474.75</ele><time>2026-03-27T13:58:04.999Z</time></trkpt><trkpt lat="40.67733650996403" lon="9.14730405412045"><ele>476.5</ele><time>2026-03-27T13:58:05.999Z</time></trkpt><trkpt lat="40.677445982019094" lon="9.147233923502691"><ele>478.25</ele><time>2026-03-27T13:58:06.999Z</time></trkpt><trkpt lat="40.67754102568805" lon="9.147187330970901"><ele>480.0</ele><time>2026-03-27T13:58:07.999Z</time></trkpt><trkpt lat="40.6776411476291" lon="9.147153279929723"><ele>480.0</ele><time>2026-03-27T13:58:08.999Z</time></trkpt><trkpt lat="40.677760831999954" lon="9.147123856421715"><ele>480.0</ele><time>2026-03-27T13:58:09.999Z</time></trkpt><trkpt lat="40.67788752242407" lon="9.147100370583322"><ele>480.0</ele><time>2026-03-27T13:58:10.999Z</time></trkpt><trkpt lat="40.67801361696543" lon="9.147080259571819"><ele>480.0</ele><time>2026-03-27T13:58:11.999Z</time></trkpt><trkpt lat="40.67814056523944" lon="9.147077068034756"><ele>478.5</ele><time>2026-03-27T13:58:12.999Z</time></trkpt><trkpt lat="40.678265660800534" lon="9.147096229993844"><ele>477.0</ele><time>2026-03-27T13:58:13.999Z</time></trkpt><trkpt lat="40.67837211777303" lon="9.147142324016349"><ele>475.5</ele><time>2026-03-27T13:58:14.999Z</time></trkpt><trkpt lat="40.67847290081902" lon="9.147213539360532"><ele>474.0</ele><time>2026-03-27T13:58:15.999Z</time></trkpt><trkpt lat="40.67857702279774" lon="9.147299971353787"><ele>468.5</ele><time>2026-03-27T13:58:16.999Z</time></trkpt><trkpt lat="40.678687086902066" lon="9.147402014961893"><ele>463.0</ele><time>2026-03-27T13:58:17.999Z</time></trkpt><trkpt lat="40.678809964334846" lon="9.14751182143243"><ele>457.5</ele><time>2026-03-27T13:58:18.999Z</time></trkpt><trkpt lat="40.67894599495871" lon="9.147626545414813"><ele>452.0</ele><time>2026-03-27T13:58:19.999Z</time></trkpt><trkpt lat="40.6790922749562" lon="9.147739479375867"><ele>452.0</ele><time>2026-03-27T13:58:20.999Z</time></trkpt><trkpt lat="40.679231189127066" lon="9.147825756933804"><ele>452.0</ele><time>2026-03-27T13:58:21.999Z</time></trkpt><trkpt lat="40.679360390130896" lon="9.14789695407089"><ele>452.0</ele><time>2026-03-27T13:58:22.999Z</time></trkpt><trkpt lat="40.67947814558308" lon="9.147954829566196"><ele>452.0</ele><time>2026-03-27T13:58:23.999Z</time></trkpt><trkpt lat="40.67959373362918" lon="9.148000620391837"><ele>448.75</ele><time>2026-03-27T13:58:24.999Z</time></trkpt><trkpt lat="40.679717422002284" lon="9.148040362733962"><ele>445.5</ele><time>2026-03-27T13:58:25.999Z</time></trkpt><trkpt lat="40.6798309898596" lon="9.148094785211985"><ele>442.25</ele><time>2026-03-27T13:58:26.999Z</time></trkpt><trkpt lat="40.67991702041471" lon="9.148180054095002"><ele>439.0</ele><time>2026-03-27T13:58:27.999Z</time></trkpt><trkpt lat="40.67998225070259" lon="9.148277564106994"><ele>438.2</ele><time>2026-03-27T13:58:28.999Z</time></trkpt><trkpt lat="40.68002910390056" lon="9.148385968434615"><ele>437.4</ele><time>2026-03-27T13:58:29.999Z</time></trkpt><trkpt lat="40.68003074024509" lon="9.148521233942065"><ele>436.6</ele><time>2026-03-27T13:58:30.999Z</time></trkpt><trkpt lat="40.68004961172306" lon="9.148644208469014"><ele>435.8</ele><time>2026-03-27T13:58:31.999Z</time></trkpt><trkpt lat="40.680053985655434" lon="9.148778911801807"><ele>435.0</ele><time>2026-03-27T13:58:32.999Z</time></trkpt><trkpt lat="40.68006498157924" lon="9.148920557651845"><ele>435.0</ele><time>2026-03-27T13:58:33.999Z</time></trkpt><trkpt lat="40.680074215573164" lon="9.149066456938927"><ele>435.0</ele><time>2026-03-27T13:58:34.999Z</time></trkpt><trkpt lat="40.68011750680925" lon="9.14921317180497"><ele>435.0</ele><time>2026-03-27T13:58:35.999Z</time></trkpt><trkpt lat="40.680184568636996" lon="9.149345601531898"><ele>435.0</ele><time>2026-03-27T13:58:36.999Z</time></trkpt><trkpt lat="40.680267601956075" lon="9.149461438153864"><ele>431.2</ele><time>2026-03-27T13:58:37.999Z</time></trkpt><trkpt lat="40.680344149996884" lon="9.149559764218102"><ele>427.4</ele><time>2026-03-27T13:58:38.999Z</time></trkpt><trkpt lat="40.68041975550655" lon="9.149648638051596"><ele>423.6</ele><time>2026-03-27T13:58:39.999Z</time></trkpt><trkpt lat="40.6805049465809" lon="9.149709264978135"><ele>419.8</ele><time>2026-03-27T13:58:40.999Z</time></trkpt><trkpt lat="40.6806067255977" lon="9.14971365871881"><ele>416.0</ele><time>2026-03-27T13:58:41.999Z</time></trkpt><trkpt lat="40.68071471390271" lon="9.14967857743954"><ele>416.0</ele><time>2026-03-27T13:58:42.999Z</time></trkpt><trkpt lat="40.68081797177808" lon="9.149594890169618"><ele>416.0</ele><time>2026-03-27T13:58:43.999Z</time></trkpt><trkpt lat="40.68091502116653" lon="9.149519049775114"><ele>416.0</ele><time>2026-03-27T13:58:44.999Z</time></trkpt><trkpt lat="40.6810171470922" lon="9.14947139472951"><ele>416.0</ele><time>2026-03-27T13:58:45.999Z</time></trkpt><trkpt lat="40.681121141090124" lon="9.149448260312559"><ele>416.0</ele><time>2026-03-27T13:58:46.999Z</time></trkpt><trkpt lat="40.681220433622535" lon="9.14945700142429"><ele>413.8</ele><time>2026-03-27T13:58:47.999Z</time></trkpt><trkpt lat="40.68131635854834" lon="9.149493770965833"><ele>411.6</ele><time>2026-03-27T13:58:48.999Z</time></trkpt><trkpt lat="40.68139767338176" lon="9.14955607489057"><ele>409.4</ele><time>2026-03-27T13:58:49.999Z</time></trkpt><trkpt lat="40.68148821788694" lon="9.14959657291535"><ele>407.2</ele><time>2026-03-27T13:58:50.999Z</time></trkpt><trkpt lat="40.68159315356452" lon="9.149585295090864"><ele>405.0</ele><time>2026-03-27T13:58:51.999Z</time></trkpt><trkpt lat="40.68171477609862" lon="9.149536801325032"><ele>405.0</ele><time>2026-03-27T13:58:52.999Z</time></trkpt><trkpt lat="40.681823882568644" lon="9.149487338046669"><ele>405.0</ele><time>2026-03-27T13:58:53.999Z</time></trkpt><trkpt lat="40.68193455201483" lon="9.149474173661234"><ele>405.0</ele><time>2026-03-27T13:58:54.999Z</time></trkpt><trkpt lat="40.68206437684573" lon="9.149505421278862"><ele>405.0</ele><time>2026-03-27T13:58:55.999Z</time></trkpt><trkpt lat="40.68220898995098" lon="9.149547989472257"><ele>403.33333333333337</ele><time>2026-03-27T13:58:56.999Z</time></trkpt><trkpt lat="40.68237837168392" lon="9.149599560545555"><ele>401.6666666666667</ele><time>2026-03-27T13:58:57.999Z</time></trkpt><trkpt lat="40.68255396594018" lon="9.149648416748095"><ele>400.0</ele><time>2026-03-27T13:58:58.999Z</time></trkpt><trkpt lat="40.682709185794366" lon="9.14969536560603"><ele>399.0</ele><time>2026-03-27T13:58:59.999Z</time></trkpt><trkpt lat="40.68284971090417" lon="9.14974552613837"><ele>398.0</ele><time>2026-03-27T13:59:00.998Z</time></trkpt><trkpt lat="40.682991471568165" lon="9.149785165475983"><ele>397.0</ele><time>2026-03-27T13:59:01.998Z</time></trkpt><trkpt lat="40.68314616909864" lon="9.149814757058572"><ele>396.0</ele><time>2026-03-27T13:59:02.998Z</time></trkpt><trkpt lat="40.6833137486235" lon="9.149822169472849"><ele>396.0</ele><time>2026-03-27T13:59:03.998Z</time></trkpt><trkpt lat="40.68348575863976" lon="9.149789214324262"><ele>396.0</ele><time>2026-03-27T13:59:04.998Z</time></trkpt><trkpt lat="40.68366291680197" lon="9.149787160900559"><ele>396.0</ele><time>2026-03-27T13:59:05.998Z</time></trkpt><trkpt lat="40.683838057893155" lon="9.149765567284737"><ele>395.66666666666663</ele><time>2026-03-27T13:59:06.998Z</time></trkpt><trkpt lat="40.68401194223544" lon="9.149754213632695"><ele>395.3333333333333</ele><time>2026-03-27T13:59:07.998Z</time></trkpt><trkpt lat="40.68418139655596" lon="9.149755068051897"><ele>395.0</ele><time>2026-03-27T13:59:08.998Z</time></trkpt><trkpt lat="40.68435383707812" lon="9.149757736950713"><ele>394.66666666666663</ele><time>2026-03-27T13:59:09.998Z</time></trkpt><trkpt lat="40.68452230015735" lon="9.14976373511058"><ele>394.33333333333337</ele><time>2026-03-27T13:59:10.998Z</time></trkpt><trkpt lat="40.68467976726843" lon="9.149774915693149"><ele>394.0</ele><time>2026-03-27T13:59:11.998Z</time></trkpt><trkpt lat="40.68482160975977" lon="9.14978895257695"><ele>394.0</ele><time>2026-03-27T13:59:12.998Z</time></trkpt><trkpt lat="40.68495844643207" lon="9.149807354231573"><ele>394.0</ele><time>2026-03-27T13:59:13.998Z</time></trkpt><trkpt lat="40.68509279180226" lon="9.1498447218112"><ele>394.0</ele><time>2026-03-27T13:59:15Z</time></trkpt><trkpt lat="40.68521889557233" lon="9.149903621200849"><ele>394.0</ele><time>2026-03-27T13:59:16Z</time></trkpt><trkpt lat="40.68532455119521" lon="9.149988816375743"><ele>391.0</ele><time>2026-03-27T13:59:17Z</time></trkpt><trkpt lat="40.68541892512937" lon="9.150099970849604"><ele>388.0</ele><time>2026-03-27T13:59:18Z</time></trkpt><trkpt lat="40.68550749454307" lon="9.150231396196524"><ele>385.0</ele><time>2026-03-27T13:59:19Z</time></trkpt><trkpt lat="40.68559434153923" lon="9.150396320861905"><ele>382.0</ele><time>2026-03-27T13:59:20Z</time></trkpt><trkpt lat="40.685681671853736" lon="9.150578362551194"><ele>381.75</ele><time>2026-03-27T13:59:21Z</time></trkpt><trkpt lat="40.6857669817765" lon="9.150734607640144"><ele>381.5</ele><time>2026-03-27T13:59:22Z</time></trkpt><trkpt lat="40.68586221250092" lon="9.150881851441586"><ele>381.25</ele><time>2026-03-27T13:59:23Z</time></trkpt><trkpt lat="40.6859667229754" lon="9.151017324064528"><ele>381.0</ele><time>2026-03-27T13:59:24Z</time></trkpt><trkpt lat="40.68609259740383" lon="9.15113967767426"><ele>377.0</ele><time>2026-03-27T13:59:25Z</time></trkpt><trkpt lat="40.686219374519396" lon="9.151242297807128"><ele>373.0</ele><time>2026-03-27T13:59:26Z</time></trkpt><trkpt lat="40.68634955038997" lon="9.151313085694207"><ele>369.0</ele><time>2026-03-27T13:59:27Z</time></trkpt><trkpt lat="40.68649426137419" lon="9.151366005645249"><ele>365.0</ele><time>2026-03-27T13:59:28Z</time></trkpt><trkpt lat="40.686635454865055" lon="9.151431510423986"><ele>365.0</ele><time>2026-03-27T13:59:29Z</time></trkpt><trkpt lat="40.68675286566946" lon="9.151513545142787"><ele>365.0</ele><time>2026-03-27T13:59:30Z</time></trkpt><trkpt lat="40.686852517261386" lon="9.151602167008546"><ele>365.0</ele><time>2026-03-27T13:59:31Z</time></trkpt><trkpt lat="40.68693367977473" lon="9.151713470390824"><ele>365.0</ele><time>2026-03-27T13:59:32Z</time></trkpt><trkpt lat="40.68699606493758" lon="9.15184275962202"><ele>364.8</ele><time>2026-03-27T13:59:33Z</time></trkpt><trkpt lat="40.68703202119568" lon="9.151975473417767"><ele>364.6</ele><time>2026-03-27T13:59:34Z</time></trkpt><trkpt lat="40.68705101256285" lon="9.152106080309203"><ele>364.4</ele><time>2026-03-27T13:59:35Z</time></trkpt><trkpt lat="40.687076577816654" lon="9.152236762027394"><ele>364.2</ele><time>2026-03-27T13:59:36Z</time></trkpt><trkpt lat="40.687114295175185" lon="9.152368687276327"><ele>364.0</ele><time>2026-03-27T13:59:37Z</time></trkpt><trkpt lat="40.68715637305909" lon="9.152520326762"><ele>364.0</ele><time>2026-03-27T13:59:38Z</time></trkpt><trkpt lat="40.687205463207455" lon="9.152648533216674"><ele>364.0</ele><time>2026-03-27T13:59:39Z</time></trkpt><trkpt lat="40.68726417159545" lon="9.152773332212824"><ele>364.0</ele><time>2026-03-27T13:59:40Z</time></trkpt><trkpt lat="40.68732542269627" lon="9.152894272852022"><ele>364.0</ele><time>2026-03-27T13:59:41Z</time></trkpt><trkpt lat="40.687388241849725" lon="9.153012027173334"><ele>364.0</ele><time>2026-03-27T13:59:42Z</time></trkpt><trkpt lat="40.68745346512797" lon="9.153141347071687"><ele>365.0</ele><time>2026-03-27T13:59:43Z</time></trkpt><trkpt lat="40.68751592734675" lon="9.15328344373317"><ele>366.0</ele><time>2026-03-27T13:59:44Z</time></trkpt><trkpt lat="40.68756993583948" lon="9.153429012506116"><ele>367.0</ele><time>2026-03-27T13:59:45Z</time></trkpt><trkpt lat="40.68760674386776" lon="9.15357479061672"><ele>368.0</ele><time>2026-03-27T13:59:46Z</time></trkpt><trkpt lat="40.68759918919398" lon="9.153718423344724"><ele>368.0</ele><time>2026-03-27T13:59:47Z</time></trkpt><trkpt lat="40.68759706984201" lon="9.15385282664256"><ele>368.0</ele><time>2026-03-27T13:59:48Z</time></trkpt><trkpt lat="40.687630790455835" lon="9.153998463006092"><ele>368.0</ele><time>2026-03-27T13:59:49Z</time></trkpt><trkpt lat="40.687652504481434" lon="9.154127874068129"><ele>368.0</ele><time>2026-03-27T13:59:50Z</time></trkpt><trkpt lat="40.68770464481881" lon="9.15425850519413"><ele>368.0</ele><time>2026-03-27T13:59:51Z</time></trkpt><trkpt lat="40.68778346441598" lon="9.154382275991685"><ele>367.0</ele><time>2026-03-27T13:59:52Z</time></trkpt><trkpt lat="40.68787861030862" lon="9.15449821299078"><ele>366.0</ele><time>2026-03-27T13:59:53Z</time></trkpt><trkpt lat="40.68798930919808" lon="9.154595364917403"><ele>365.0</ele><time>2026-03-27T13:59:54Z</time></trkpt><trkpt lat="40.688114094382556" lon="9.154664066905061"><ele>364.0</ele><time>2026-03-27T13:59:55Z</time></trkpt><trkpt lat="40.68823469599805" lon="9.154719087377858"><ele>364.0</ele><time>2026-03-27T13:59:56Z</time></trkpt><trkpt lat="40.688339857244166" lon="9.154774270749224"><ele>364.0</ele><time>2026-03-27T13:59:57Z</time></trkpt><trkpt lat="40.68845004859957" lon="9.15482666680333"><ele>364.0</ele><time>2026-03-27T13:59:58Z</time></trkpt><trkpt lat="40.68857091274976" lon="9.154862343582087"><ele>364.0</ele><time>2026-03-27T13:59:58.999Z</time></trkpt><trkpt lat="40.6886998165741" lon="9.154883462603397"><ele>365.25</ele><time>2026-03-27T13:59:59.999Z</time></trkpt><trkpt lat="40.68883364553461" lon="9.154887872371107"><ele>366.5</ele><time>2026-03-27T14:00:00.999Z</time></trkpt><trkpt lat="40.68897313328004" lon="9.154887998452654"><ele>367.75</ele><time>2026-03-27T14:00:01.999Z</time></trkpt><trkpt lat="40.68911746682633" lon="9.154891472815475"><ele>369.0</ele><time>2026-03-27T14:00:02.999Z</time></trkpt><trkpt lat="40.68927280598471" lon="9.154902891593178"><ele>367.6666666666667</ele><time>2026-03-27T14:00:03.999Z</time></trkpt><trkpt lat="40.689436752778576" lon="9.154908742111118"><ele>366.33333333333337</ele><time>2026-03-27T14:00:04.999Z</time></trkpt><trkpt lat="40.68960885340078" lon="9.15490914485946"><ele>365.0</ele><time>2026-03-27T14:00:05.999Z</time></trkpt><trkpt lat="40.68977959729291" lon="9.15490753234948"><ele>365.0</ele><time>2026-03-27T14:00:06.999Z</time></trkpt><trkpt lat="40.689931825375716" lon="9.154917524201576"><ele>365.0</ele><time>2026-03-27T14:00:07.999Z</time></trkpt><trkpt lat="40.690069907050116" lon="9.154930378981662"><ele>365.0</ele><time>2026-03-27T14:00:08.999Z</time></trkpt><trkpt lat="40.69021937066313" lon="9.154953803173182"><ele>365.0</ele><time>2026-03-27T14:00:09.999Z</time></trkpt><trkpt lat="40.690359923121" lon="9.154971958291329"><ele>366.33333333333337</ele><time>2026-03-27T14:00:10.999Z</time></trkpt><trkpt lat="40.69050844490996" lon="9.15499645969586"><ele>367.6666666666667</ele><time>2026-03-27T14:00:11.999Z</time></trkpt><trkpt lat="40.69065658773403" lon="9.15503098207435"><ele>369.0</ele><time>2026-03-27T14:00:12.999Z</time></trkpt><trkpt lat="40.690809750755605" lon="9.155082628235732"><ele>369.0</ele><time>2026-03-27T14:00:13.999Z</time></trkpt><trkpt lat="40.69096022266996" lon="9.155149104556527"><ele>369.0</ele><time>2026-03-27T14:00:14.999Z</time></trkpt><trkpt lat="40.691110834168924" lon="9.155235347992127"><ele>369.0</ele><time>2026-03-27T14:00:15.999Z</time></trkpt><trkpt lat="40.69125502546594" lon="9.155337703805365"><ele>372.3333333333333</ele><time>2026-03-27T14:00:16.999Z</time></trkpt><trkpt lat="40.69139527544844" lon="9.155463693344643"><ele>375.66666666666663</ele><time>2026-03-27T14:00:17.999Z</time></trkpt><trkpt lat="40.691514050480286" lon="9.155610227926987"><ele>379.0</ele><time>2026-03-27T14:00:18.999Z</time></trkpt><trkpt lat="40.69163493343409" lon="9.155731364991073"><ele>379.0</ele><time>2026-03-27T14:00:19.999Z</time></trkpt><trkpt lat="40.69172856304625" lon="9.15585044051056"><ele>379.0</ele><time>2026-03-27T14:00:20.999Z</time></trkpt><trkpt lat="40.69184821594483" lon="9.155927720518049"><ele>379.0</ele><time>2026-03-27T14:00:21.999Z</time></trkpt><trkpt lat="40.69198449245342" lon="9.155967467466187"><ele>379.0</ele><time>2026-03-27T14:00:22.999Z</time></trkpt><trkpt lat="40.69212463022263" lon="9.15594040406352"><ele>377.66666666666663</ele><time>2026-03-27T14:00:23.999Z</time></trkpt><trkpt lat="40.69226927819788" lon="9.155896214006022"><ele>376.3333333333333</ele><time>2026-03-27T14:00:24.999Z</time></trkpt><trkpt lat="40.69242515491215" lon="9.1558668767413"><ele>375.0</ele><time>2026-03-27T14:00:25.999Z</time></trkpt><trkpt lat="40.69257190742917" lon="9.155834595083798"><ele>375.0</ele><time>2026-03-27T14:00:26.999Z</time></trkpt><trkpt lat="40.69272146654662" lon="9.15585735533016"><ele>375.0</ele><time>2026-03-27T14:00:27.999Z</time></trkpt><trkpt lat="40.692884619733825" lon="9.15588723894127"><ele>375.0</ele><time>2026-03-27T14:00:28.999Z</time></trkpt><trkpt lat="40.693039201475685" lon="9.155914293857244"><ele>373.75</ele><time>2026-03-27T14:00:29.999Z</time></trkpt><trkpt lat="40.69317281452675" lon="9.155929347557446"><ele>372.5</ele><time>2026-03-27T14:00:30.999Z</time></trkpt><trkpt lat="40.6933116104504" lon="9.155870030255914"><ele>371.25</ele><time>2026-03-27T14:00:31.999Z</time></trkpt><trkpt lat="40.69343979685402" lon="9.155824231403958"><ele>370.0</ele><time>2026-03-27T14:00:32.999Z</time></trkpt><trkpt lat="40.6935697092221" lon="9.155780209556296"><ele>367.5</ele><time>2026-03-27T14:00:33.999Z</time></trkpt><trkpt lat="40.69369716665334" lon="9.155731121865392"><ele>365.0</ele><time>2026-03-27T14:00:34.999Z</time></trkpt><trkpt lat="40.69380672190901" lon="9.155677616554625"><ele>362.5</ele><time>2026-03-27T14:00:35.999Z</time></trkpt><trkpt lat="40.69392767322761" lon="9.155592135799678"><ele>360.0</ele><time>2026-03-27T14:00:36.999Z</time></trkpt><trkpt lat="40.69404702165039" lon="9.155465436906237"><ele>360.0</ele><time>2026-03-27T14:00:37.999Z</time></trkpt><trkpt lat="40.694187187853196" lon="9.155313776193394"><ele>360.0</ele><time>2026-03-27T14:00:38.999Z</time></trkpt><trkpt lat="40.69432323041306" lon="9.155175359264831"><ele>360.0</ele><time>2026-03-27T14:00:39.999Z</time></trkpt><trkpt lat="40.694453194367156" lon="9.155063464001566"><ele>359.0</ele><time>2026-03-27T14:00:40.999Z</time></trkpt><trkpt lat="40.69460175540166" lon="9.15495553775567"><ele>358.0</ele><time>2026-03-27T14:00:41.999Z</time></trkpt><trkpt lat="40.69475085909207" lon="9.154854741483632"><ele>357.0</ele><time>2026-03-27T14:00:42.999Z</time></trkpt><trkpt lat="40.69489937914122" lon="9.154760693730692"><ele>357.0</ele><time>2026-03-27T14:00:43.999Z</time></trkpt><trkpt lat="40.69503451119632" lon="9.15467997815435"><ele>357.0</ele><time>2026-03-27T14:00:44.999Z</time></trkpt><trkpt lat="40.69516065496361" lon="9.154609654407334"><ele>357.0</ele><time>2026-03-27T14:00:45.999Z</time></trkpt><trkpt lat="40.69530176834052" lon="9.154567095011148"><ele>357.0</ele><time>2026-03-27T14:00:46.999Z</time></trkpt><trkpt lat="40.69543905828233" lon="9.154538577228879"><ele>356.5</ele><time>2026-03-27T14:00:47.999Z</time></trkpt><trkpt lat="40.695536902166545" lon="9.154582366740586"><ele>356.0</ele><time>2026-03-27T14:00:48.999Z</time></trkpt><trkpt lat="40.6956833666075" lon="9.154654477149048"><ele>355.5</ele><time>2026-03-27T14:00:49.999Z</time></trkpt><trkpt lat="40.69582790027618" lon="9.154728385932563"><ele>355.0</ele><time>2026-03-27T14:00:50.999Z</time></trkpt><trkpt lat="40.69596349042108" lon="9.15480102782088"><ele>353.0</ele><time>2026-03-27T14:00:51.999Z</time></trkpt><trkpt lat="40.69611261871178" lon="9.154795667477144"><ele>351.0</ele><time>2026-03-27T14:00:52.999Z</time></trkpt><trkpt lat="40.696277774948975" lon="9.154778789447924"><ele>349.0</ele><time>2026-03-27T14:00:53.999Z</time></trkpt><trkpt lat="40.696414447829184" lon="9.154756577251005"><ele>349.0</ele><time>2026-03-27T14:00:54.999Z</time></trkpt><trkpt lat="40.69654972649855" lon="9.154742599163054"><ele>349.0</ele><time>2026-03-27T14:00:55.999Z</time></trkpt><trkpt lat="40.69669938825161" lon="9.154672576580705"><ele>349.0</ele><time>2026-03-27T14:00:56.999Z</time></trkpt><trkpt lat="40.696847522765246" lon="9.154664619408635"><ele>349.0</ele><time>2026-03-27T14:00:57.999Z</time></trkpt><trkpt lat="40.69699729600547" lon="9.154659868175909"><ele>343.66666666666663</ele><time>2026-03-27T14:00:58.999Z</time></trkpt><trkpt lat="40.69714154201575" lon="9.154619716144515"><ele>338.3333333333333</ele><time>2026-03-27T14:00:59.999Z</time></trkpt><trkpt lat="40.69730857049295" lon="9.154595439860742"><ele>333.0</ele><time>2026-03-27T14:01:00.998Z</time></trkpt><trkpt lat="40.6974651744811" lon="9.154575024933804"><ele>333.0</ele><time>2026-03-27T14:01:01.998Z</time></trkpt><trkpt lat="40.6976311474606" lon="9.154572964393644"><ele>333.0</ele><time>2026-03-27T14:01:02.998Z</time></trkpt><trkpt lat="40.69779408942333" lon="9.154551969218781"><ele>333.0</ele><time>2026-03-27T14:01:03.998Z</time></trkpt><trkpt lat="40.69795327203547" lon="9.154544113812939"><ele>330.3333333333333</ele><time>2026-03-27T14:01:04.998Z</time></trkpt><trkpt lat="40.698122956609154" lon="9.154539919014658"><ele>327.66666666666663</ele><time>2026-03-27T14:01:05.998Z</time></trkpt><trkpt lat="40.69829354327173" lon="9.154542969635813"><ele>325.0</ele><time>2026-03-27T14:01:06.998Z</time></trkpt><trkpt lat="40.698467490515235" lon="9.15457089675075"><ele>321.0</ele><time>2026-03-27T14:01:07.998Z</time></trkpt><trkpt lat="40.698635260700954" lon="9.15461416337725"><ele>317.0</ele><time>2026-03-27T14:01:08.998Z</time></trkpt><trkpt lat="40.69880110383169" lon="9.154658144586666"><ele>313.0</ele><time>2026-03-27T14:01:09.998Z</time></trkpt><trkpt lat="40.698971716128376" lon="9.154710211383268"><ele>313.0</ele><time>2026-03-27T14:01:10.998Z</time></trkpt><trkpt lat="40.69911754446553" lon="9.154761204388794"><ele>313.0</ele><time>2026-03-27T14:01:11.998Z</time></trkpt><trkpt lat="40.69923159617844" lon="9.154808652628175"><ele>313.0</ele><time>2026-03-27T14:01:12.998Z</time></trkpt><trkpt lat="40.69932841112585" lon="9.154852685450228"><ele>313.0</ele><time>2026-03-27T14:01:13.998Z</time></trkpt><trkpt lat="40.69942104742769" lon="9.1548880349629"><ele>309.6</ele><time>2026-03-27T14:01:14.998Z</time></trkpt><trkpt lat="40.699518639481944" lon="9.154916536056149"><ele>306.20000000000005</ele><time>2026-03-27T14:01:15.998Z</time></trkpt><trkpt lat="40.699602230394106" lon="9.154936958346733"><ele>302.8</ele><time>2026-03-27T14:01:16.998Z</time></trkpt><trkpt lat="40.69971109995581" lon="9.154965817304912"><ele>299.40000000000003</ele><time>2026-03-27T14:01:17.998Z</time></trkpt><trkpt lat="40.69982914380425" lon="9.15501768429204"><ele>296.0</ele><time>2026-03-27T14:01:18.998Z</time></trkpt><trkpt lat="40.699962855525335" lon="9.155076921970469"><ele>296.0</ele><time>2026-03-27T14:01:20Z</time></trkpt><trkpt lat="40.700110442648715" lon="9.155114419871254"><ele>296.0</ele><time>2026-03-27T14:01:21Z</time></trkpt><trkpt lat="40.70025592179573" lon="9.155165008186351"><ele>296.0</ele><time>2026-03-27T14:01:22Z</time></trkpt><trkpt lat="40.70040712511378" lon="9.155218563480966"><ele>294.5</ele><time>2026-03-27T14:01:23Z</time></trkpt><trkpt lat="40.70055123285839" lon="9.155255275328043"><ele>293.0</ele><time>2026-03-27T14:01:24Z</time></trkpt><trkpt lat="40.70068853530377" lon="9.155308321368102"><ele>291.5</ele><time>2026-03-27T14:01:25Z</time></trkpt><trkpt lat="40.70082081218436" lon="9.155353248340555"><ele>290.0</ele><time>2026-03-27T14:01:26Z</time></trkpt><trkpt lat="40.70093992800456" lon="9.155409866568826"><ele>290.0</ele><time>2026-03-27T14:01:27Z</time></trkpt><trkpt lat="40.70104568413142" lon="9.155484507916439"><ele>290.0</ele><time>2026-03-27T14:01:28Z</time></trkpt><trkpt lat="40.70114120056976" lon="9.155591520022973"><ele>290.0</ele><time>2026-03-27T14:01:29Z</time></trkpt><trkpt lat="40.70121889504764" lon="9.155721358992515"><ele>290.0</ele><time>2026-03-27T14:01:30Z</time></trkpt><trkpt lat="40.701258275355784" lon="9.155895240354111"><ele>289.0</ele><time>2026-03-27T14:01:31Z</time></trkpt><trkpt lat="40.70130066701968" lon="9.156062632543037"><ele>288.0</ele><time>2026-03-27T14:01:32Z</time></trkpt><trkpt lat="40.70133727423188" lon="9.1562176376833"><ele>287.0</ele><time>2026-03-27T14:01:33Z</time></trkpt><trkpt lat="40.70136648258939" lon="9.156349601334412"><ele>286.0</ele><time>2026-03-27T14:01:34Z</time></trkpt><trkpt lat="40.70139158130001" lon="9.15646712472124"><ele>285.40000000000003</ele><time>2026-03-27T14:01:35Z</time></trkpt><trkpt lat="40.701416376629396" lon="9.156556749317346"><ele>284.8</ele><time>2026-03-27T14:01:36Z</time></trkpt><trkpt lat="40.70142449278545" lon="9.156704350795462"><ele>284.20000000000005</ele><time>2026-03-27T14:01:38Z</time></trkpt><trkpt lat="40.70133671720944" lon="9.156772365573831"><ele>283.6</ele><time>2026-03-27T14:01:39Z</time></trkpt><trkpt lat="40.701308659592605" lon="9.156863583648198"><ele>283.0</ele><time>2026-03-27T14:01:40Z</time></trkpt><trkpt lat="40.701274693413986" lon="9.156979639140014"><ele>283.0</ele><time>2026-03-27T14:01:41Z</time></trkpt><trkpt lat="40.70123702774374" lon="9.15711776176042"><ele>283.0</ele><time>2026-03-27T14:01:42Z</time></trkpt><trkpt lat="40.70118584899482" lon="9.157254832792477"><ele>283.0</ele><time>2026-03-27T14:01:43Z</time></trkpt><trkpt lat="40.701125986180166" lon="9.157372723895657"><ele>283.0</ele><time>2026-03-27T14:01:44Z</time></trkpt><trkpt lat="40.701087432966624" lon="9.157474095308318"><ele>283.0</ele><time>2026-03-27T14:01:45Z</time></trkpt><trkpt lat="40.70108912933816" lon="9.157610358586277"><ele>282.5</ele><time>2026-03-27T14:01:46Z</time></trkpt><trkpt lat="40.70109519171769" lon="9.157755440599667"><ele>282.0</ele><time>2026-03-27T14:01:47Z</time></trkpt><trkpt lat="40.70111683677746" lon="9.157938028462862"><ele>281.5</ele><time>2026-03-27T14:01:48Z</time></trkpt><trkpt lat="40.701112628503445" lon="9.158094800791206"><ele>281.0</ele><time>2026-03-27T14:01:49Z</time></trkpt><trkpt lat="40.70109693363657" lon="9.158229986387333"><ele>278.0</ele><time>2026-03-27T14:01:50Z</time></trkpt><trkpt lat="40.701070314980676" lon="9.158373218608782"><ele>275.0</ele><time>2026-03-27T14:01:51Z</time></trkpt><trkpt lat="40.70104267187353" lon="9.158516307735583"><ele>272.0</ele><time>2026-03-27T14:01:52Z</time></trkpt><trkpt lat="40.70101597774499" lon="9.158646475401325"><ele>269.0</ele><time>2026-03-27T14:01:53Z</time></trkpt><trkpt lat="40.70099855779648" lon="9.158773245817152"><ele>266.0</ele><time>2026-03-27T14:01:54Z</time></trkpt><trkpt lat="40.70099178461809" lon="9.158883989751914"><ele>266.0</ele><time>2026-03-27T14:01:55Z</time></trkpt><trkpt lat="40.70100152924223" lon="9.15900375737349"><ele>266.0</ele><time>2026-03-27T14:01:56Z</time></trkpt><trkpt lat="40.70106831678345" lon="9.159105192543267"><ele>266.0</ele><time>2026-03-27T14:01:57Z</time></trkpt><trkpt lat="40.70110358717579" lon="9.159227911719494"><ele>266.0</ele><time>2026-03-27T14:01:58Z</time></trkpt><trkpt lat="40.70111759708466" lon="9.159342672424657"><ele>266.0</ele><time>2026-03-27T14:01:59Z</time></trkpt><trkpt lat="40.70111035965236" lon="9.159451781994465"><ele>265.2</ele><time>2026-03-27T14:02:00Z</time></trkpt><trkpt lat="40.701103298088924" lon="9.15957403437245"><ele>264.40000000000003</ele><time>2026-03-27T14:02:00.999Z</time></trkpt><trkpt lat="40.701098333446595" lon="9.159699532809004"><ele>263.6</ele><time>2026-03-27T14:02:01.999Z</time></trkpt><trkpt lat="40.70109768629158" lon="9.159826531704304"><ele>262.8</ele><time>2026-03-27T14:02:02.999Z</time></trkpt><trkpt lat="40.701122506714164" lon="9.15995792669181"><ele>262.0</ele><time>2026-03-27T14:02:03.999Z</time></trkpt><trkpt lat="40.70117523079762" lon="9.160082598455244"><ele>261.0</ele><time>2026-03-27T14:02:04.999Z</time></trkpt><trkpt lat="40.70121688654516" lon="9.160230879319036"><ele>260.0</ele><time>2026-03-27T14:02:05.999Z</time></trkpt><trkpt lat="40.701261382619336" lon="9.160375473862896"><ele>259.0</ele><time>2026-03-27T14:02:06.999Z</time></trkpt><trkpt lat="40.70130766939465" lon="9.160514334306527"><ele>258.0</ele><time>2026-03-27T14:02:07.999Z</time></trkpt><trkpt lat="40.7013477735607" lon="9.160645207484515"><ele>256.6666666666667</ele><time>2026-03-27T14:02:08.999Z</time></trkpt><trkpt lat="40.701378392319526" lon="9.160765082681369"><ele>255.33333333333331</ele><time>2026-03-27T14:02:09.999Z</time></trkpt><trkpt lat="40.70138933758512" lon="9.160869670996998"><ele>254.0</ele><time>2026-03-27T14:02:10.999Z</time></trkpt><trkpt lat="40.70138600198146" lon="9.160969672832179"><ele>252.66666666666666</ele><time>2026-03-27T14:02:11.999Z</time></trkpt><trkpt lat="40.701363665045726" lon="9.16106516448986"><ele>251.33333333333331</ele><time>2026-03-27T14:02:12.999Z</time></trkpt><trkpt lat="40.70130744190163" lon="9.16112257547707"><ele>250.0</ele><time>2026-03-27T14:02:13.999Z</time></trkpt><trkpt lat="40.701242543675754" lon="9.161236448182299"><ele>250.0</ele><time>2026-03-27T14:02:14.999Z</time></trkpt><trkpt lat="40.70117489742359" lon="9.161366396134493"><ele>250.0</ele><time>2026-03-27T14:02:15.999Z</time></trkpt><trkpt lat="40.70113633364537" lon="9.161508583623252"><ele>250.0</ele><time>2026-03-27T14:02:16.999Z</time></trkpt><trkpt lat="40.70111382473822" lon="9.161678784705229"><ele>250.0</ele><time>2026-03-27T14:02:17.999Z</time></trkpt><trkpt lat="40.701095193522974" lon="9.161858959220005"><ele>250.0</ele><time>2026-03-27T14:02:18.999Z</time></trkpt><trkpt lat="40.7010769862256" lon="9.16201084153322"><ele>250.0</ele><time>2026-03-27T14:02:19.999Z</time></trkpt><trkpt lat="40.70104571066096" lon="9.162122503605826"><ele>250.0</ele><time>2026-03-27T14:02:20.999Z</time></trkpt><trkpt lat="40.701019819556386" lon="9.162232346379017"><ele>250.0</ele><time>2026-03-27T14:02:21.999Z</time></trkpt><trkpt lat="40.70101346346225" lon="9.162338303583919"><ele>250.0</ele><time>2026-03-27T14:02:22.999Z</time></trkpt><trkpt lat="40.70104703474079" lon="9.162444354194495"><ele>252.0</ele><time>2026-03-27T14:02:23.999Z</time></trkpt><trkpt lat="40.70114952448437" lon="9.162533880688112"><ele>254.0</ele><time>2026-03-27T14:02:24.999Z</time></trkpt><trkpt lat="40.701251173629196" lon="9.162658798832004"><ele>256.0</ele><time>2026-03-27T14:02:25.999Z</time></trkpt><trkpt lat="40.70135982830153" lon="9.162815673144213"><ele>258.0</ele><time>2026-03-27T14:02:26.999Z</time></trkpt><trkpt lat="40.701456508996245" lon="9.162989076174942"><ele>258.0</ele><time>2026-03-27T14:02:27.999Z</time></trkpt><trkpt lat="40.70150468261915" lon="9.163189688824016"><ele>258.0</ele><time>2026-03-27T14:02:28.999Z</time></trkpt><trkpt lat="40.701559368379826" lon="9.163387072841285"><ele>258.0</ele><time>2026-03-27T14:02:29.999Z</time></trkpt><trkpt lat="40.70158539574987" lon="9.16355275971857"><ele>258.0</ele><time>2026-03-27T14:02:30.999Z</time></trkpt><trkpt lat="40.70160011103067" lon="9.163699407714528"><ele>257.6666666666667</ele><time>2026-03-27T14:02:31.999Z</time></trkpt><trkpt lat="40.70160798062464" lon="9.163892190945244"><ele>257.33333333333337</ele><time>2026-03-27T14:02:32.999Z</time></trkpt><trkpt lat="40.70160869502688" lon="9.164120401073902"><ele>257.0</ele><time>2026-03-27T14:02:33.999Z</time></trkpt><trkpt lat="40.70159689600449" lon="9.164329525030046"><ele>257.0</ele><time>2026-03-27T14:02:34.999Z</time></trkpt><trkpt lat="40.701572938171225" lon="9.164499443680054"><ele>257.0</ele><time>2026-03-27T14:02:35.999Z</time></trkpt><trkpt lat="40.70156844121602" lon="9.164630551111129"><ele>257.0</ele><time>2026-03-27T14:02:36.999Z</time></trkpt><trkpt lat="40.701576919734585" lon="9.164738053976853"><ele>257.0</ele><time>2026-03-27T14:02:37.999Z</time></trkpt><trkpt lat="40.70160124124435" lon="9.164832004653485"><ele>257.0</ele><time>2026-03-27T14:02:38.999Z</time></trkpt><trkpt lat="40.701693970603614" lon="9.164909476087441"><ele>257.5</ele><time>2026-03-27T14:02:39.999Z</time></trkpt><trkpt lat="40.701803467456614" lon="9.16497712141376"><ele>258.0</ele><time>2026-03-27T14:02:40.999Z</time></trkpt><trkpt lat="40.7019397918373" lon="9.165062231090655"><ele>258.5</ele><time>2026-03-27T14:02:41.999Z</time></trkpt><trkpt lat="40.702063710969625" lon="9.165208942489341"><ele>259.0</ele><time>2026-03-27T14:02:42.999Z</time></trkpt><trkpt lat="40.70221001307138" lon="9.165357142245893"><ele>259.0</ele><time>2026-03-27T14:02:43.999Z</time></trkpt><trkpt lat="40.70234018780348" lon="9.165494672771931"><ele>259.0</ele><time>2026-03-27T14:02:44.999Z</time></trkpt><trkpt lat="40.70242775065954" lon="9.165592967859993"><ele>259.0</ele><time>2026-03-27T14:02:45.999Z</time></trkpt><trkpt lat="40.702496278141034" lon="9.165684539437073"><ele>259.0</ele><time>2026-03-27T14:02:46.999Z</time></trkpt><trkpt lat="40.70256441032322" lon="9.1658375739319"><ele>259.5</ele><time>2026-03-27T14:02:47.999Z</time></trkpt><trkpt lat="40.702605607514705" lon="9.165996462850483"><ele>260.0</ele><time>2026-03-27T14:02:48.999Z</time></trkpt><trkpt lat="40.70264905384514" lon="9.166172628974218"><ele>260.5</ele><time>2026-03-27T14:02:49.999Z</time></trkpt><trkpt lat="40.70270011842243" lon="9.166365445012577"><ele>261.0</ele><time>2026-03-27T14:02:50.999Z</time></trkpt><trkpt lat="40.702757653721626" lon="9.166546188924219"><ele>261.0</ele><time>2026-03-27T14:02:51.999Z</time></trkpt><trkpt lat="40.70282869589172" lon="9.166702152406991"><ele>261.0</ele><time>2026-03-27T14:02:52.999Z</time></trkpt><trkpt lat="40.702949230184714" lon="9.166819462019488"><ele>261.0</ele><time>2026-03-27T14:02:53.999Z</time></trkpt><trkpt lat="40.70304356913259" lon="9.166948487132768"><ele>261.0</ele><time>2026-03-27T14:02:54.999Z</time></trkpt><trkpt lat="40.703145711520186" lon="9.167023858875819"><ele>261.0</ele><time>2026-03-27T14:02:55.999Z</time></trkpt><trkpt lat="40.703215314226235" lon="9.16711062563726"><ele>261.0</ele><time>2026-03-27T14:02:56.999Z</time></trkpt><trkpt lat="40.70326668764098" lon="9.167209425713287"><ele>261.0</ele><time>2026-03-27T14:02:57.999Z</time></trkpt><trkpt lat="40.70333670470059" lon="9.167237264519015"><ele>261.0</ele><time>2026-03-27T14:02:58.999Z</time></trkpt><trkpt lat="40.703400620566825" lon="9.167211179122162"><ele>261.0</ele><time>2026-03-27T14:02:59.999Z</time></trkpt><trkpt lat="40.703464066258306" lon="9.167127246855708"><ele>261.0</ele><time>2026-03-27T14:03:00.999Z</time></trkpt><trkpt lat="40.70354648049003" lon="9.166995170851756"><ele>260.3333333333333</ele><time>2026-03-27T14:03:01.999Z</time></trkpt><trkpt lat="40.703679735544156" lon="9.16684999409395"><ele>259.66666666666663</ele><time>2026-03-27T14:03:02.999Z</time></trkpt><trkpt lat="40.7038081737793" lon="9.166677293454189"><ele>259.0</ele><time>2026-03-27T14:03:03.998Z</time></trkpt><trkpt lat="40.70391767189976" lon="9.166523202036085"><ele>257.75</ele><time>2026-03-27T14:03:04.998Z</time></trkpt><trkpt lat="40.70402769348806" lon="9.166401913560644"><ele>256.5</ele><time>2026-03-27T14:03:05.998Z</time></trkpt><trkpt lat="40.70411807223661" lon="9.166303178331592"><ele>255.25</ele><time>2026-03-27T14:03:06.998Z</time></trkpt><trkpt lat="40.70420494633197" lon="9.166227673991761"><ele>254.0</ele><time>2026-03-27T14:03:07.998Z</time></trkpt><trkpt lat="40.70430421073682" lon="9.166149290880563"><ele>253.0</ele><time>2026-03-27T14:03:08.998Z</time></trkpt><trkpt lat="40.70442424380855" lon="9.166046843811781"><ele>252.0</ele><time>2026-03-27T14:03:09.998Z</time></trkpt><trkpt lat="40.70452695869626" lon="9.16593820572378"><ele>251.0</ele><time>2026-03-27T14:03:10.998Z</time></trkpt><trkpt lat="40.7046219452359" lon="9.165819690264504"><ele>250.0</ele><time>2026-03-27T14:03:11.998Z</time></trkpt><trkpt lat="40.70470857252485" lon="9.165657851188314"><ele>249.5</ele><time>2026-03-27T14:03:12.998Z</time></trkpt><trkpt lat="40.704780192043984" lon="9.165495250907297"><ele>249.0</ele><time>2026-03-27T14:03:13.998Z</time></trkpt><trkpt lat="40.70485639463384" lon="9.165387546846018"><ele>248.5</ele><time>2026-03-27T14:03:14.998Z</time></trkpt><trkpt lat="40.7049375121265" lon="9.165303568150449"><ele>248.0</ele><time>2026-03-27T14:03:15.998Z</time></trkpt><trkpt lat="40.705049969942365" lon="9.165241474370374"><ele>248.0</ele><time>2026-03-27T14:03:16.998Z</time></trkpt><trkpt lat="40.7051723297662" lon="9.16519345148167"><ele>248.0</ele><time>2026-03-27T14:03:17.998Z</time></trkpt><trkpt lat="40.70528564016044" lon="9.165171826039908"><ele>248.0</ele><time>2026-03-27T14:03:18.998Z</time></trkpt><trkpt lat="40.705390640552864" lon="9.165165186293606"><ele>248.0</ele><time>2026-03-27T14:03:19.998Z</time></trkpt><trkpt lat="40.705511858767096" lon="9.16519245121599"><ele>246.0</ele><time>2026-03-27T14:03:20.998Z</time></trkpt><trkpt lat="40.70564344286197" lon="9.165237356023132"><ele>244.0</ele><time>2026-03-27T14:03:21.998Z</time></trkpt><trkpt lat="40.70576341593108" lon="9.165252837979295"><ele>242.0</ele><time>2026-03-27T14:03:22.998Z</time></trkpt><trkpt lat="40.70587272901619" lon="9.165257650943763"><ele>240.0</ele><time>2026-03-27T14:03:23.998Z</time></trkpt><trkpt lat="40.70596077185891" lon="9.165259381859741"><ele>240.0</ele><time>2026-03-27T14:03:24.998Z</time></trkpt><trkpt lat="40.70605067099767" lon="9.165254327266663"><ele>240.0</ele><time>2026-03-27T14:03:27Z</time></trkpt><trkpt lat="40.70613209402022" lon="9.165242727025692"><ele>240.0</ele><time>2026-03-27T14:03:29Z</time></trkpt><trkpt lat="40.706205961599316" lon="9.165224528148839"><ele>240.0</ele><time>2026-03-27T14:05:02.999Z</time></trkpt><trkpt lat="40.70628597596943" lon="9.16519245789824"><ele>240.0</ele><time>2026-03-27T14:05:29.998Z</time></trkpt><trkpt lat="40.70636384632982" lon="9.165155070512224"><ele>240.0</ele><time>2026-03-27T14:05:32Z</time></trkpt><trkpt lat="40.706446970290195" lon="9.165051844338384"><ele>238.8</ele><time>2026-03-27T14:05:34Z</time></trkpt><trkpt lat="40.70651915255693" lon="9.164965852638847"><ele>237.6</ele><time>2026-03-27T14:05:35Z</time></trkpt><trkpt lat="40.70659065623288" lon="9.164899975774482"><ele>236.39999999999998</ele><time>2026-03-27T14:05:36Z</time></trkpt><trkpt lat="40.70666621103786" lon="9.16484557175364"><ele>235.2</ele><time>2026-03-27T14:05:37Z</time></trkpt><trkpt lat="40.70675250913813" lon="9.16479382093244"><ele>234.0</ele><time>2026-03-27T14:05:38Z</time></trkpt><trkpt lat="40.70684239512681" lon="9.164733596940236"><ele>233.0</ele><time>2026-03-27T14:05:39Z</time></trkpt><trkpt lat="40.70693154831461" lon="9.164668341804134"><ele>231.99999999999997</ele><time>2026-03-27T14:05:40Z</time></trkpt><trkpt lat="40.70702488091417" lon="9.164594195705359"><ele>230.99999999999997</ele><time>2026-03-27T14:05:41Z</time></trkpt><trkpt lat="40.7071140065163" lon="9.164521440404185"><ele>230.0</ele><time>2026-03-27T14:05:42Z</time></trkpt><trkpt lat="40.7072019940805" lon="9.164448182725666"><ele>229.0</ele><time>2026-03-27T14:05:43Z</time></trkpt><trkpt lat="40.70729067589452" lon="9.16436540077343"><ele>229.0</ele><time>2026-03-27T14:05:44Z</time></trkpt><trkpt lat="40.70736438706614" lon="9.164279529045434"><ele>228.99999999999997</ele><time>2026-03-27T14:05:45Z</time></trkpt><trkpt lat="40.70744048728001" lon="9.164192702558573"><ele>228.99999999999997</ele><time>2026-03-27T14:05:46Z</time></trkpt><trkpt lat="40.70752376430481" lon="9.16410907966856"><ele>229.0</ele><time>2026-03-27T14:05:47Z</time></trkpt><trkpt lat="40.70760579390079" lon="9.164046786885825"><ele>229.0</ele><time>2026-03-27T14:05:48Z</time></trkpt><trkpt lat="40.707686375635596" lon="9.164003565704025"><ele>229.39999999999998</ele><time>2026-03-27T14:05:49Z</time></trkpt><trkpt lat="40.70776671273204" lon="9.163972098446251"><ele>229.79999999999998</ele><time>2026-03-27T14:05:50Z</time></trkpt><trkpt lat="40.70785941120417" lon="9.163945717640575"><ele>230.20000000000002</ele><time>2026-03-27T14:05:51Z</time></trkpt><trkpt lat="40.707963529304706" lon="9.163928809523219"><ele>230.60000000000002</ele><time>2026-03-27T14:05:52Z</time></trkpt><trkpt lat="40.70807340951519" lon="9.16395361301161"><ele>231.0</ele><time>2026-03-27T14:05:53Z</time></trkpt><trkpt lat="40.70817932741999" lon="9.163961462823307"><ele>231.0</ele><time>2026-03-27T14:05:54Z</time></trkpt><trkpt lat="40.70829504013375" lon="9.164017249983187"><ele>231.0</ele><time>2026-03-27T14:05:55Z</time></trkpt><trkpt lat="40.70840267417777" lon="9.164069910529289"><ele>231.0</ele><time>2026-03-27T14:05:56Z</time></trkpt><trkpt lat="40.70850776765092" lon="9.164110343514661"><ele>231.0</ele><time>2026-03-27T14:05:57Z</time></trkpt><trkpt lat="40.7086089073186" lon="9.164132410516098"><ele>229.25</ele><time>2026-03-27T14:05:58Z</time></trkpt><trkpt lat="40.70871998101191" lon="9.164105664172645"><ele>227.5</ele><time>2026-03-27T14:05:59Z</time></trkpt><trkpt lat="40.70884643679596" lon="9.164105319390849"><ele>225.75</ele><time>2026-03-27T14:06:00Z</time></trkpt><trkpt lat="40.70895847005098" lon="9.164094864171973"><ele>224.0</ele><time>2026-03-27T14:06:01Z</time></trkpt><trkpt lat="40.709077285561285" lon="9.16412413100986"><ele>224.0</ele><time>2026-03-27T14:06:02Z</time></trkpt><trkpt lat="40.70919068320555" lon="9.164153062461923"><ele>223.99999999999997</ele><time>2026-03-27T14:06:03Z</time></trkpt><trkpt lat="40.709276124122276" lon="9.164169800544329"><ele>223.99999999999997</ele><time>2026-03-27T14:06:04Z</time></trkpt><trkpt lat="40.70934657593818" lon="9.164167787718311"><ele>224.0</ele><time>2026-03-27T14:06:05Z</time></trkpt><trkpt lat="40.70945259880291" lon="9.164142461831073"><ele>224.0</ele><time>2026-03-27T14:06:07Z</time></trkpt><trkpt lat="40.709750180150415" lon="9.164269872714112"><ele>223.66666666666669</ele><time>2026-03-27T14:06:09Z</time></trkpt><trkpt lat="40.70976705540378" lon="9.164353039919295"><ele>223.33333333333334</ele><time>2026-03-27T14:06:10Z</time></trkpt><trkpt lat="40.70979999615092" lon="9.164462391543161"><ele>223.0</ele><time>2026-03-27T14:06:11Z</time></trkpt><trkpt lat="40.70983015240339" lon="9.164557690845898"><ele>222.66666666666669</ele><time>2026-03-27T14:06:13Z</time></trkpt><trkpt lat="40.709851689730925" lon="9.164655301989399"><ele>222.33333333333334</ele><time>2026-03-27T14:06:15Z</time></trkpt><trkpt lat="40.70984378929855" lon="9.164784153778065"><ele>222.0</ele><time>2026-03-27T14:06:17Z</time></trkpt><trkpt lat="40.70978358530107" lon="9.164929891574292"><ele>222.66666666666666</ele><time>2026-03-27T14:06:18.999Z</time></trkpt><trkpt lat="40.70972628528908" lon="9.164991297643162"><ele>223.33333333333331</ele><time>2026-03-27T14:06:20.999Z</time></trkpt><trkpt lat="40.70967505179837" lon="9.165070198953966"><ele>224.0</ele><time>2026-03-27T14:06:24.999Z</time></trkpt><trkpt lat="40.70962666532572" lon="9.165124322743253"><ele>224.66666666666666</ele><time>2026-03-27T14:06:26.999Z</time></trkpt><trkpt lat="40.709564049988465" lon="9.16516780796341"><ele>225.33333333333331</ele><time>2026-03-27T14:06:28.999Z</time></trkpt><trkpt lat="40.709487540596214" lon="9.16521141156146"><ele>226.0</ele><time>2026-03-27T14:06:30.999Z</time></trkpt><trkpt lat="40.709530495149394" lon="9.165527750415263"><ele>226.0</ele><time>2026-03-27T14:06:35.999Z</time></trkpt><trkpt lat="40.70955777197439" lon="9.165685373300684"><ele>226.00000000000003</ele><time>2026-03-27T14:06:37.999Z</time></trkpt><trkpt lat="40.709585340589456" lon="9.165770947777826"><ele>226.00000000000003</ele><time>2026-03-27T14:06:38.999Z</time></trkpt><trkpt lat="40.70963516243575" lon="9.165917893884151"><ele>226.0</ele><time>2026-03-27T14:06:40.999Z</time></trkpt><trkpt lat="40.70969028178134" lon="9.166036538650413"><ele>226.0</ele><time>2026-03-27T14:06:42.999Z</time></trkpt><trkpt lat="40.709730438002914" lon="9.166101649540527"><ele>227.16666666666666</ele><time>2026-03-27T14:06:43.999Z</time></trkpt><trkpt lat="40.70979502829363" lon="9.166138618050997"><ele>228.33333333333331</ele><time>2026-03-27T14:06:44.999Z</time></trkpt><trkpt lat="40.70986708540946" lon="9.166167430549272"><ele>229.5</ele><time>2026-03-27T14:06:45.999Z</time></trkpt><trkpt lat="40.70993362745658" lon="9.166173894688962"><ele>230.66666666666669</ele><time>2026-03-27T14:06:46.999Z</time></trkpt><trkpt lat="40.710010655023" lon="9.166079997898212"><ele>231.83333333333334</ele><time>2026-03-27T14:06:48.999Z</time></trkpt><trkpt lat="40.7100940777625" lon="9.166061167823088"><ele>233.0</ele><time>2026-03-27T14:06:50.999Z</time></trkpt><trkpt lat="40.71012462687747" lon="9.166209434912027"><ele>233.0</ele><time>2026-03-27T14:06:52.999Z</time></trkpt><trkpt lat="40.710120175500926" lon="9.166349408461215"><ele>233.0</ele><time>2026-03-27T14:06:53.999Z</time></trkpt><trkpt lat="40.710122507422966" lon="9.16649674736485"><ele>233.0</ele><time>2026-03-27T14:06:54.999Z</time></trkpt><trkpt lat="40.71013112493447" lon="9.166625284532522"><ele>233.0</ele><time>2026-03-27T14:06:55.999Z</time></trkpt><trkpt lat="40.71015725086325" lon="9.166778896882331"><ele>233.0</ele><time>2026-03-27T14:06:56.999Z</time></trkpt><trkpt lat="40.71020325675984" lon="9.166946649606265"><ele>235.25</ele><time>2026-03-27T14:06:57.999Z</time></trkpt><trkpt lat="40.71026015313726" lon="9.167113123533081"><ele>237.5</ele><time>2026-03-27T14:06:58.999Z</time></trkpt><trkpt lat="40.710315837005744" lon="9.167280608595524"><ele>239.75</ele><time>2026-03-27T14:06:59.999Z</time></trkpt><trkpt lat="40.71036926743187" lon="9.167453091404063"><ele>242.0</ele><time>2026-03-27T14:07:00.999Z</time></trkpt><trkpt lat="40.71042520164761" lon="9.167622605056703"><ele>243.25</ele><time>2026-03-27T14:07:01.999Z</time></trkpt><trkpt lat="40.71048245093397" lon="9.16779135087853"><ele>244.5</ele><time>2026-03-27T14:07:02.999Z</time></trkpt><trkpt lat="40.71054463245541" lon="9.167967274154774"><ele>245.75</ele><time>2026-03-27T14:07:03.999Z</time></trkpt><trkpt lat="40.71060499587564" lon="9.168142584395147"><ele>247.0</ele><time>2026-03-27T14:07:04.999Z</time></trkpt><trkpt lat="40.71065740933111" lon="9.168314074394138"><ele>248.0</ele><time>2026-03-27T14:07:05.999Z</time></trkpt><trkpt lat="40.71071060242977" lon="9.168486423515173"><ele>249.0</ele><time>2026-03-27T14:07:06.999Z</time></trkpt><trkpt lat="40.71075051642686" lon="9.168625018337295"><ele>250.0</ele><time>2026-03-27T14:07:07.999Z</time></trkpt><trkpt lat="40.710779963056524" lon="9.168752086381001"><ele>251.0</ele><time>2026-03-27T14:07:08.999Z</time></trkpt><trkpt lat="40.71081724828597" lon="9.16889318819986"><ele>250.75</ele><time>2026-03-27T14:07:09.999Z</time></trkpt><trkpt lat="40.71087285404493" lon="9.169038772189761"><ele>250.5</ele><time>2026-03-27T14:07:10.999Z</time></trkpt><trkpt lat="40.71094019543442" lon="9.169166952346373"><ele>250.25</ele><time>2026-03-27T14:07:11.999Z</time></trkpt><trkpt lat="40.71101704648708" lon="9.169290845170675"><ele>250.0</ele><time>2026-03-27T14:07:12.999Z</time></trkpt><trkpt lat="40.711105365569345" lon="9.16941278402811"><ele>247.8</ele><time>2026-03-27T14:07:13.999Z</time></trkpt><trkpt lat="40.71119399313148" lon="9.169517458835248"><ele>245.6</ele><time>2026-03-27T14:07:14.999Z</time></trkpt><trkpt lat="40.71127968585675" lon="9.16959602324973"><ele>243.39999999999998</ele><time>2026-03-27T14:07:15.999Z</time></trkpt><trkpt lat="40.711352294982554" lon="9.169650444574184"><ele>241.2</ele><time>2026-03-27T14:07:16.999Z</time></trkpt><trkpt lat="40.71141105476648" lon="9.169702221816861"><ele>239.0</ele><time>2026-03-27T14:07:17.999Z</time></trkpt><trkpt lat="40.71150853909903" lon="9.169752594592149"><ele>239.0</ele><time>2026-03-27T14:07:19.998Z</time></trkpt><trkpt lat="40.71158827458532" lon="9.16977894129394"><ele>238.99999999999997</ele><time>2026-03-27T14:07:21.998Z</time></trkpt><trkpt lat="40.71165971684377" lon="9.16982368024006"><ele>238.99999999999997</ele><time>2026-03-27T14:07:24.998Z</time></trkpt><trkpt lat="40.7117960428397" lon="9.169881385067443"><ele>239.0</ele><time>2026-03-27T14:07:25.998Z</time></trkpt><trkpt lat="40.711907532717845" lon="9.169925413325833"><ele>239.0</ele><time>2026-03-27T14:07:27.998Z</time></trkpt><trkpt lat="40.711979425915914" lon="9.16996712678932"><ele>239.0</ele><time>2026-03-27T14:07:28.998Z</time></trkpt><trkpt lat="40.71204043503581" lon="9.17000593413102"><ele>239.0</ele><time>2026-03-27T14:07:29.998Z</time></trkpt><trkpt lat="40.71221823524233" lon="9.169983366282228"><ele>239.0</ele><time>2026-03-27T14:07:35.998Z</time></trkpt><trkpt lat="40.712312772656524" lon="9.169935834702228"><ele>239.0</ele><time>2026-03-27T14:07:38Z</time></trkpt><trkpt lat="40.71250226016858" lon="9.17008517766877"><ele>239.00000000000003</ele><time>2026-03-27T14:07:42Z</time></trkpt><trkpt lat="40.712594999390426" lon="9.17014154146561"><ele>239.0</ele><time>2026-03-27T14:07:43Z</time></trkpt><trkpt lat="40.712670248746164" lon="9.170156812920975"><ele>239.0</ele><time>2026-03-27T14:07:44Z</time></trkpt><trkpt lat="40.712784285706874" lon="9.170193673476817"><ele>239.0</ele><time>2026-03-27T14:07:45Z</time></trkpt><trkpt lat="40.712868493956854" lon="9.170224657309213"><ele>239.00000000000003</ele><time>2026-03-27T14:07:46Z</time></trkpt><trkpt lat="40.71292969302179" lon="9.170254436092511"><ele>239.0</ele><time>2026-03-27T14:07:47Z</time></trkpt><trkpt lat="40.713010422915566" lon="9.170302762374588"><ele>240.0</ele><time>2026-03-27T14:07:49Z</time></trkpt><trkpt lat="40.71305518387037" lon="9.170395296468328"><ele>240.99999999999997</ele><time>2026-03-27T14:07:51Z</time></trkpt><trkpt lat="40.71313265541897" lon="9.170491124062458"><ele>241.99999999999997</ele><time>2026-03-27T14:08:05Z</time></trkpt><trkpt lat="40.71319937598028" lon="9.170539516794946"><ele>243.0</ele><time>2026-03-27T14:08:06Z</time></trkpt><trkpt lat="40.71327511283843" lon="9.170614969334515"><ele>244.0</ele><time>2026-03-27T14:08:07Z</time></trkpt><trkpt lat="40.71335121572175" lon="9.170714677555795"><ele>246.33333333333331</ele><time>2026-03-27T14:08:08Z</time></trkpt><trkpt lat="40.713428890472564" lon="9.170876073720212"><ele>248.66666666666669</ele><time>2026-03-27T14:08:09Z</time></trkpt><trkpt lat="40.71351739583327" lon="9.171054809880019"><ele>251.0</ele><time>2026-03-27T14:08:10Z</time></trkpt><trkpt lat="40.7136102160534" lon="9.171214774559212"><ele>252.75</ele><time>2026-03-27T14:08:11Z</time></trkpt><trkpt lat="40.71370871234682" lon="9.171366073617593"><ele>254.5</ele><time>2026-03-27T14:08:12Z</time></trkpt><trkpt lat="40.71379879647774" lon="9.171507097984955"><ele>256.25</ele><time>2026-03-27T14:08:13Z</time></trkpt><trkpt lat="40.713870322483395" lon="9.171620466946726"><ele>258.0</ele><time>2026-03-27T14:08:14Z</time></trkpt><trkpt lat="40.7139404177402" lon="9.171718576367512"><ele>259.0</ele><time>2026-03-27T14:08:15Z</time></trkpt><trkpt lat="40.71402168797552" lon="9.171812110750372"><ele>260.0</ele><time>2026-03-27T14:08:16Z</time></trkpt><trkpt lat="40.71410286566341" lon="9.171888957186049"><ele>261.0</ele><time>2026-03-27T14:08:16.999Z</time></trkpt><trkpt lat="40.71419909831598" lon="9.171927296933129"><ele>262.0</ele><time>2026-03-27T14:08:17.999Z</time></trkpt><trkpt lat="40.71429031719859" lon="9.171923992705374"><ele>263.0</ele><time>2026-03-27T14:08:18.999Z</time></trkpt><trkpt lat="40.71437442268255" lon="9.171881059144281"><ele>265.2</ele><time>2026-03-27T14:08:19.999Z</time></trkpt><trkpt lat="40.71444569581421" lon="9.17180813250839"><ele>267.4</ele><time>2026-03-27T14:08:20.999Z</time></trkpt><trkpt lat="40.7145148046863" lon="9.171700023373845"><ele>269.59999999999997</ele><time>2026-03-27T14:08:21.999Z</time></trkpt><trkpt lat="40.71454043379666" lon="9.171570456297387"><ele>271.8</ele><time>2026-03-27T14:08:22.999Z</time></trkpt><trkpt lat="40.714555685330836" lon="9.171423473469359"><ele>274.0</ele><time>2026-03-27T14:08:23.999Z</time></trkpt><trkpt lat="40.714570420064085" lon="9.171241318576342"><ele>274.0</ele><time>2026-03-27T14:08:24.999Z</time></trkpt><trkpt lat="40.71458419802274" lon="9.171036159046643"><ele>274.0</ele><time>2026-03-27T14:08:25.999Z</time></trkpt><trkpt lat="40.7146051560563" lon="9.170839492789336"><ele>274.0</ele><time>2026-03-27T14:08:26.999Z</time></trkpt><trkpt lat="40.71463540333381" lon="9.170685010435896"><ele>274.0</ele><time>2026-03-27T14:08:27.999Z</time></trkpt><trkpt lat="40.7146732952781" lon="9.170567086989747"><ele>273.0</ele><time>2026-03-27T14:08:28.999Z</time></trkpt><trkpt lat="40.71473575669599" lon="9.170466021513393"><ele>272.0</ele><time>2026-03-27T14:08:29.999Z</time></trkpt><trkpt lat="40.71481283371825" lon="9.170382357673105"><ele>271.0</ele><time>2026-03-27T14:08:30.999Z</time></trkpt><trkpt lat="40.71491839936802" lon="9.17032683976757"><ele>270.0</ele><time>2026-03-27T14:08:31.999Z</time></trkpt><trkpt lat="40.715035906508525" lon="9.170289478921664"><ele>269.0</ele><time>2026-03-27T14:08:32.999Z</time></trkpt><trkpt lat="40.715165653663746" lon="9.17024254732052"><ele>267.59999999999997</ele><time>2026-03-27T14:08:33.999Z</time></trkpt><trkpt lat="40.71527611938982" lon="9.170182118420705"><ele>266.2</ele><time>2026-03-27T14:08:34.999Z</time></trkpt><trkpt lat="40.71536840041124" lon="9.17011606906052"><ele>264.79999999999995</ele><time>2026-03-27T14:08:35.999Z</time></trkpt><trkpt lat="40.71543236265518" lon="9.170067464646486"><ele>263.4</ele><time>2026-03-27T14:08:36.999Z</time></trkpt><trkpt lat="40.71550577349297" lon="9.170057851763177"><ele>262.0</ele><time>2026-03-27T14:08:38.999Z</time></trkpt><trkpt lat="40.71552576024265" lon="9.170179989749615"><ele>262.0</ele><time>2026-03-27T14:08:40.999Z</time></trkpt><trkpt lat="40.71552784678431" lon="9.170274418269694"><ele>262.0</ele><time>2026-03-27T14:08:41.999Z</time></trkpt><trkpt lat="40.71551898004272" lon="9.17037621029876"><ele>262.0</ele><time>2026-03-27T14:08:42.999Z</time></trkpt><trkpt lat="40.715515333651275" lon="9.170501581134546"><ele>262.0</ele><time>2026-03-27T14:08:43.999Z</time></trkpt><trkpt lat="40.71552128945452" lon="9.170643447348779"><ele>262.0</ele><time>2026-03-27T14:08:44.999Z</time></trkpt><trkpt lat="40.715511366407334" lon="9.170800456385006"><ele>263.25</ele><time>2026-03-27T14:08:45.999Z</time></trkpt><trkpt lat="40.71549779668217" lon="9.17096111220707"><ele>264.5</ele><time>2026-03-27T14:08:46.999Z</time></trkpt><trkpt lat="40.71548072430314" lon="9.171113841047733"><ele>265.75</ele><time>2026-03-27T14:08:47.999Z</time></trkpt><trkpt lat="40.71547571735833" lon="9.171268505529698"><ele>267.0</ele><time>2026-03-27T14:08:48.999Z</time></trkpt><trkpt lat="40.71549124613435" lon="9.171424841576481"><ele>268.0</ele><time>2026-03-27T14:08:49.999Z</time></trkpt><trkpt lat="40.715495361557416" lon="9.171601373126645"><ele>269.0</ele><time>2026-03-27T14:08:50.999Z</time></trkpt><trkpt lat="40.715481805061934" lon="9.17177315208034"><ele>270.0</ele><time>2026-03-27T14:08:51.999Z</time></trkpt><trkpt lat="40.71545255222596" lon="9.17193598802519"><ele>271.0</ele><time>2026-03-27T14:08:52.999Z</time></trkpt><trkpt lat="40.71542526202822" lon="9.172093257499974"><ele>271.0</ele><time>2026-03-27T14:08:53.999Z</time></trkpt><trkpt lat="40.715392419380706" lon="9.172258552489936"><ele>271.0</ele><time>2026-03-27T14:08:54.999Z</time></trkpt><trkpt lat="40.71536925760437" lon="9.172430443410704"><ele>271.0</ele><time>2026-03-27T14:08:55.999Z</time></trkpt><trkpt lat="40.71536089515977" lon="9.172607902212519"><ele>271.0</ele><time>2026-03-27T14:08:56.999Z</time></trkpt><trkpt lat="40.71536690077394" lon="9.172797733786128"><ele>271.3333333333333</ele><time>2026-03-27T14:08:57.999Z</time></trkpt><trkpt lat="40.71536786420075" lon="9.172997453400999"><ele>271.6666666666667</ele><time>2026-03-27T14:08:58.999Z</time></trkpt><trkpt lat="40.71535249590753" lon="9.173198697566345"><ele>272.0</ele><time>2026-03-27T14:08:59.999Z</time></trkpt><trkpt lat="40.71533656706829" lon="9.173401340445087"><ele>272.5</ele><time>2026-03-27T14:09:00.999Z</time></trkpt><trkpt lat="40.7153231675891" lon="9.173594111607938"><ele>273.0</ele><time>2026-03-27T14:09:01.999Z</time></trkpt><trkpt lat="40.71531759473882" lon="9.173782051985059"><ele>273.5</ele><time>2026-03-27T14:09:02.999Z</time></trkpt><trkpt lat="40.71532949991048" lon="9.173954790028287"><ele>274.0</ele><time>2026-03-27T14:09:03.999Z</time></trkpt><trkpt lat="40.7153568808427" lon="9.174111863328948"><ele>276.0</ele><time>2026-03-27T14:09:04.999Z</time></trkpt><trkpt lat="40.71539158471387" lon="9.17427722083874"><ele>278.0</ele><time>2026-03-27T14:09:05.999Z</time></trkpt><trkpt lat="40.71544395654763" lon="9.174468549258055"><ele>280.0</ele><time>2026-03-27T14:09:06.999Z</time></trkpt><trkpt lat="40.71548841479952" lon="9.174658017641503"><ele>282.0</ele><time>2026-03-27T14:09:07.999Z</time></trkpt><trkpt lat="40.71554539365385" lon="9.174835437338528"><ele>283.75</ele><time>2026-03-27T14:09:08.999Z</time></trkpt><trkpt lat="40.715603544296386" lon="9.17500317413119"><ele>285.5</ele><time>2026-03-27T14:09:09.999Z</time></trkpt><trkpt lat="40.7156446968436" lon="9.175158912509037"><ele>287.25</ele><time>2026-03-27T14:09:10.999Z</time></trkpt><trkpt lat="40.71567325543663" lon="9.175322145390465"><ele>289.0</ele><time>2026-03-27T14:09:11.999Z</time></trkpt><trkpt lat="40.71570340687575" lon="9.175508705949314"><ele>289.0</ele><time>2026-03-27T14:09:12.999Z</time></trkpt><trkpt lat="40.715756555778164" lon="9.175676757910919"><ele>289.0</ele><time>2026-03-27T14:09:13.998Z</time></trkpt><trkpt lat="40.715804777302715" lon="9.175846084061419"><ele>289.0</ele><time>2026-03-27T14:09:14.998Z</time></trkpt><trkpt lat="40.71586477644401" lon="9.17600317440537"><ele>289.0</ele><time>2026-03-27T14:09:15.998Z</time></trkpt><trkpt lat="40.71591025547632" lon="9.176147693896453"><ele>289.0</ele><time>2026-03-27T14:09:16.998Z</time></trkpt><trkpt lat="40.715945640992864" lon="9.176267588868955"><ele>289.0</ele><time>2026-03-27T14:09:17.998Z</time></trkpt><trkpt lat="40.715965400943716" lon="9.176390840697126"><ele>289.0</ele><time>2026-03-27T14:09:18.998Z</time></trkpt><trkpt lat="40.715966522794574" lon="9.176568236017012"><ele>289.0</ele><time>2026-03-27T14:09:19.998Z</time></trkpt><trkpt lat="40.71598027730255" lon="9.176743314000708"><ele>289.25</ele><time>2026-03-27T14:09:20.998Z</time></trkpt><trkpt lat="40.71601435921734" lon="9.176919239118856"><ele>289.5</ele><time>2026-03-27T14:09:21.998Z</time></trkpt><trkpt lat="40.716031967968696" lon="9.17709755646254"><ele>289.75</ele><time>2026-03-27T14:09:22.998Z</time></trkpt><trkpt lat="40.71603536941163" lon="9.177282252562144"><ele>290.0</ele><time>2026-03-27T14:09:23.998Z</time></trkpt><trkpt lat="40.71602276528016" lon="9.17743235974341"><ele>289.33333333333337</ele><time>2026-03-27T14:09:24.998Z</time></trkpt><trkpt lat="40.71602056461478" lon="9.177611284918067"><ele>288.6666666666667</ele><time>2026-03-27T14:09:25.998Z</time></trkpt><trkpt lat="40.716049599629464" lon="9.177824620536024"><ele>288.0</ele><time>2026-03-27T14:09:26.998Z</time></trkpt><trkpt lat="40.7160874552398" lon="9.17802648963295"><ele>287.2</ele><time>2026-03-27T14:09:27.998Z</time></trkpt><trkpt lat="40.71611402216703" lon="9.178184728976497"><ele>286.4</ele><time>2026-03-27T14:09:28.998Z</time></trkpt><trkpt lat="40.716126568882686" lon="9.178312068455982"><ele>285.59999999999997</ele><time>2026-03-27T14:09:29.998Z</time></trkpt><trkpt lat="40.71613067050551" lon="9.17841069408227"><ele>284.8</ele><time>2026-03-27T14:09:30.998Z</time></trkpt><trkpt lat="40.716152929103814" lon="9.178523174500926"><ele>284.0</ele><time>2026-03-27T14:09:32.998Z</time></trkpt><trkpt lat="40.716222749922" lon="9.178547743569252"><ele>284.0</ele><time>2026-03-27T14:09:35.998Z</time></trkpt><trkpt lat="40.71632147745021" lon="9.178572927020952"><ele>284.0</ele><time>2026-03-27T14:09:37.998Z</time></trkpt><trkpt lat="40.7163938839786" lon="9.178710992577367"><ele>284.0</ele><time>2026-03-27T14:09:39.998Z</time></trkpt><trkpt lat="40.71642181149026" lon="9.178831133523783"><ele>284.0</ele><time>2026-03-27T14:09:40.998Z</time></trkpt><trkpt lat="40.7164689828813" lon="9.178968595442646"><ele>284.0</ele><time>2026-03-27T14:09:41.998Z</time></trkpt><trkpt lat="40.71653475908161" lon="9.179098802221995"><ele>285.75</ele><time>2026-03-27T14:09:42.998Z</time></trkpt><trkpt lat="40.716588842557314" lon="9.179221221956192"><ele>287.5</ele><time>2026-03-27T14:09:44Z</time></trkpt><trkpt lat="40.71662151216271" lon="9.179356985742837"><ele>289.25</ele><time>2026-03-27T14:09:45Z</time></trkpt><trkpt lat="40.71666011884889" lon="9.179521627399355"><ele>291.0</ele><time>2026-03-27T14:09:46Z</time></trkpt><trkpt lat="40.716730513881856" lon="9.179659437329637"><ele>291.0</ele><time>2026-03-27T14:09:47Z</time></trkpt><trkpt lat="40.71682288766824" lon="9.179775558441184"><ele>291.0</ele><time>2026-03-27T14:09:48Z</time></trkpt><trkpt lat="40.71693179808766" lon="9.179869953289032"><ele>291.0</ele><time>2026-03-27T14:09:49Z</time></trkpt><trkpt lat="40.717026131686595" lon="9.179975034090557"><ele>291.0</ele><time>2026-03-27T14:09:50Z</time></trkpt><trkpt lat="40.71709133890903" lon="9.1800723767859"><ele>291.1666666666667</ele><time>2026-03-27T14:09:51Z</time></trkpt><trkpt lat="40.71712849446011" lon="9.180163377224844"><ele>291.3333333333333</ele><time>2026-03-27T14:09:52Z</time></trkpt><trkpt lat="40.71715447963588" lon="9.180265843100777"><ele>291.5</ele><time>2026-03-27T14:09:53Z</time></trkpt><trkpt lat="40.71717299124956" lon="9.180374670454599"><ele>291.66666666666663</ele><time>2026-03-27T14:09:54Z</time></trkpt><trkpt lat="40.71719981535203" lon="9.180487822513435"><ele>291.8333333333333</ele><time>2026-03-27T14:09:55Z</time></trkpt><trkpt lat="40.71723846987624" lon="9.180582307860186"><ele>292.0</ele><time>2026-03-27T14:09:57Z</time></trkpt><trkpt lat="40.71735276462764" lon="9.18058386218973"><ele>292.0</ele><time>2026-03-27T14:09:59Z</time></trkpt><trkpt lat="40.7174203812548" lon="9.180594067337395"><ele>292.0</ele><time>2026-03-27T14:10:00Z</time></trkpt><trkpt lat="40.717485716383734" lon="9.180650576766222"><ele>292.0</ele><time>2026-03-27T14:10:01Z</time></trkpt><trkpt lat="40.717543783653966" lon="9.180735605584113"><ele>292.0</ele><time>2026-03-27T14:10:02Z</time></trkpt><trkpt lat="40.71761638914584" lon="9.180831807649806"><ele>292.0</ele><time>2026-03-27T14:10:03Z</time></trkpt><trkpt lat="40.71768748623268" lon="9.180903517544976"><ele>292.0</ele><time>2026-03-27T14:10:04Z</time></trkpt><trkpt lat="40.71775877345541" lon="9.180985188632405"><ele>292.5</ele><time>2026-03-27T14:10:05Z</time></trkpt><trkpt lat="40.717822706099184" lon="9.18107690737386"><ele>293.0</ele><time>2026-03-27T14:10:06Z</time></trkpt><trkpt lat="40.71788961578633" lon="9.18115881887681"><ele>293.5</ele><time>2026-03-27T14:10:07Z</time></trkpt><trkpt lat="40.71795937968967" lon="9.181240768608912"><ele>294.0</ele><time>2026-03-27T14:10:08Z</time></trkpt><trkpt lat="40.71802139017863" lon="9.181321551671239"><ele>294.5</ele><time>2026-03-27T14:10:09Z</time></trkpt><trkpt lat="40.718074163419416" lon="9.181390171123445"><ele>295.0</ele><time>2026-03-27T14:10:10Z</time></trkpt><trkpt lat="40.718130008035054" lon="9.181486226932956"><ele>296.16666666666663</ele><time>2026-03-27T14:10:12Z</time></trkpt><trkpt lat="40.718151929105574" lon="9.181576921134322"><ele>297.3333333333333</ele><time>2026-03-27T14:10:13Z</time></trkpt><trkpt lat="40.71819540737776" lon="9.181692310899328"><ele>298.5</ele><time>2026-03-27T14:10:14Z</time></trkpt><trkpt lat="40.71823877211212" lon="9.181771450983694"><ele>299.6666666666667</ele><time>2026-03-27T14:10:15Z</time></trkpt><trkpt lat="40.71830355001809" lon="9.181853052040488"><ele>300.83333333333337</ele><time>2026-03-27T14:10:15.999Z</time></trkpt><trkpt lat="40.718373452776376" lon="9.18195296132931"><ele>302.0</ele><time>2026-03-27T14:10:16.999Z</time></trkpt><trkpt lat="40.718433017237665" lon="9.182061519456544"><ele>302.0</ele><time>2026-03-27T14:10:17.999Z</time></trkpt><trkpt lat="40.71848907877291" lon="9.18216039391879"><ele>302.0</ele><time>2026-03-27T14:10:18.999Z</time></trkpt><trkpt lat="40.71855193962028" lon="9.182262381304353"><ele>302.0</ele><time>2026-03-27T14:10:19.999Z</time></trkpt><trkpt lat="40.71860816641607" lon="9.182350251923436"><ele>302.0</ele><time>2026-03-27T14:10:20.999Z</time></trkpt><trkpt lat="40.718671819732045" lon="9.182450332382032"><ele>302.0</ele><time>2026-03-27T14:10:21.999Z</time></trkpt><trkpt lat="40.71873699818152" lon="9.182538582459735"><ele>302.5</ele><time>2026-03-27T14:10:22.999Z</time></trkpt><trkpt lat="40.718789882642774" lon="9.18261849163977"><ele>303.0</ele><time>2026-03-27T14:10:23.999Z</time></trkpt><trkpt lat="40.718836681587966" lon="9.182703985718247"><ele>303.5</ele><time>2026-03-27T14:10:24.999Z</time></trkpt><trkpt lat="40.7188835794804" lon="9.182790762152985"><ele>304.0</ele><time>2026-03-27T14:10:25.999Z</time></trkpt><trkpt lat="40.71892988502994" lon="9.182867586584678"><ele>304.5</ele><time>2026-03-27T14:10:26.999Z</time></trkpt><trkpt lat="40.71897774240656" lon="9.1829404094612"><ele>305.0</ele><time>2026-03-27T14:10:27.999Z</time></trkpt><trkpt lat="40.7190151413411" lon="9.183012108302162"><ele>305.0</ele><time>2026-03-27T14:10:28.999Z</time></trkpt><trkpt lat="40.719058237589444" lon="9.183093457118115"><ele>305.0</ele><time>2026-03-27T14:10:29.999Z</time></trkpt><trkpt lat="40.71914167834739" lon="9.183206263371426"><ele>305.0</ele><time>2026-03-27T14:10:31.999Z</time></trkpt><trkpt lat="40.71920462028124" lon="9.183318226219148"><ele>305.0</ele><time>2026-03-27T14:10:33.999Z</time></trkpt><trkpt lat="40.71926061636028" lon="9.183391217581262"><ele>305.0</ele><time>2026-03-27T14:10:36.999Z</time></trkpt><trkpt lat="40.71930278234793" lon="9.18350697491376"><ele>305.2</ele><time>2026-03-27T14:10:38.999Z</time></trkpt><trkpt lat="40.71933662350152" lon="9.183580008412955"><ele>305.4</ele><time>2026-03-27T14:10:39.999Z</time></trkpt><trkpt lat="40.719380764228035" lon="9.183679876465064"><ele>305.6</ele><time>2026-03-27T14:10:40.999Z</time></trkpt><trkpt lat="40.71942036521994" lon="9.183767439001736"><ele>305.8</ele><time>2026-03-27T14:10:41.999Z</time></trkpt><trkpt lat="40.71949501643826" lon="9.183875265430581"><ele>306.0</ele><time>2026-03-27T14:10:43.999Z</time></trkpt><trkpt lat="40.71962708847445" lon="9.18393134183503"><ele>306.0</ele><time>2026-03-27T14:10:45.999Z</time></trkpt><trkpt lat="40.719715026129144" lon="9.183956790832882"><ele>306.0</ele><time>2026-03-27T14:10:46.999Z</time></trkpt><trkpt lat="40.71980566687759" lon="9.1839800095203"><ele>306.0</ele><time>2026-03-27T14:10:47.999Z</time></trkpt><trkpt lat="40.719895527844756" lon="9.183986772644971"><ele>306.0</ele><time>2026-03-27T14:10:48.999Z</time></trkpt><trkpt lat="40.71998662649594" lon="9.183997808317073"><ele>306.0</ele><time>2026-03-27T14:10:49.999Z</time></trkpt><trkpt lat="40.720082105645716" lon="9.184014965547274"><ele>308.0</ele><time>2026-03-27T14:10:50.999Z</time></trkpt><trkpt lat="40.72018005475506" lon="9.184019650667075"><ele>310.0</ele><time>2026-03-27T14:10:51.999Z</time></trkpt><trkpt lat="40.72028413858341" lon="9.184001699587375"><ele>312.0</ele><time>2026-03-27T14:10:52.999Z</time></trkpt><trkpt lat="40.72037510330501" lon="9.183990157113598"><ele>314.0</ele><time>2026-03-27T14:10:53.999Z</time></trkpt><trkpt lat="40.72047074540226" lon="9.18399832432171"><ele>316.0</ele><time>2026-03-27T14:10:54.999Z</time></trkpt><trkpt lat="40.720568769986" lon="9.184016592581946"><ele>316.2</ele><time>2026-03-27T14:10:55.999Z</time></trkpt><trkpt lat="40.72067893566215" lon="9.184053868556816"><ele>316.40000000000003</ele><time>2026-03-27T14:10:56.999Z</time></trkpt><trkpt lat="40.72077628175328" lon="9.184096482926456"><ele>316.6</ele><time>2026-03-27T14:10:57.999Z</time></trkpt><trkpt lat="40.72083514728674" lon="9.18415126100877"><ele>316.8</ele><time>2026-03-27T14:10:58.999Z</time></trkpt><trkpt lat="40.72088580465416" lon="9.184241764740152"><ele>317.0</ele><time>2026-03-27T14:10:59.999Z</time></trkpt><trkpt lat="40.72093131662469" lon="9.184357419090585"><ele>317.0</ele><time>2026-03-27T14:11:00.999Z</time></trkpt><trkpt lat="40.720975449357425" lon="9.184495217922"><ele>317.0</ele><time>2026-03-27T14:11:01.999Z</time></trkpt><trkpt lat="40.72100961555643" lon="9.184621244956839"><ele>317.0</ele><time>2026-03-27T14:11:02.999Z</time></trkpt><trkpt lat="40.721043837776946" lon="9.184727143517575"><ele>317.0</ele><time>2026-03-27T14:11:03.999Z</time></trkpt><trkpt lat="40.72108919928445" lon="9.184808579078384"><ele>317.0</ele><time>2026-03-27T14:11:04.999Z</time></trkpt><trkpt lat="40.72114710113228" lon="9.184873496353665"><ele>316.1666666666667</ele><time>2026-03-27T14:11:05.999Z</time></trkpt><trkpt lat="40.72119577749675" lon="9.184954063113155"><ele>315.33333333333337</ele><time>2026-03-27T14:11:06.999Z</time></trkpt><trkpt lat="40.721224831239795" lon="9.18503389007594"><ele>314.5</ele><time>2026-03-27T14:11:07.999Z</time></trkpt><trkpt lat="40.72125968392942" lon="9.185165918291865"><ele>313.6666666666667</ele><time>2026-03-27T14:11:09.999Z</time></trkpt><trkpt lat="40.72131781010283" lon="9.185234773819161"><ele>312.8333333333333</ele><time>2026-03-27T14:11:11.998Z</time></trkpt><trkpt lat="40.721394196549745" lon="9.185328390511971"><ele>312.0</ele><time>2026-03-27T14:11:14.998Z</time></trkpt><trkpt lat="40.721367467123486" lon="9.18543922787561"><ele>312.0</ele><time>2026-03-27T14:11:16.998Z</time></trkpt><trkpt lat="40.72127773081272" lon="9.185453956740785"><ele>312.0</ele><time>2026-03-27T14:11:18.998Z</time></trkpt><trkpt lat="40.721185395381376" lon="9.18544848315124"><ele>312.0</ele><time>2026-03-27T14:11:20.998Z</time></trkpt><trkpt lat="40.72104861048777" lon="9.185471864779194"><ele>312.0</ele><time>2026-03-27T14:11:22.998Z</time></trkpt><trkpt lat="40.720940384309586" lon="9.185502740119805"><ele>312.0</ele><time>2026-03-27T14:11:23.998Z</time></trkpt><trkpt lat="40.72082581336103" lon="9.185533391958824"><ele>311.0</ele><time>2026-03-27T14:11:24.998Z</time></trkpt><trkpt lat="40.72070990877376" lon="9.185571425751174"><ele>310.0</ele><time>2026-03-27T14:11:25.998Z</time></trkpt><trkpt lat="40.720599995708355" lon="9.185615614555726"><ele>309.0</ele><time>2026-03-27T14:11:26.998Z</time></trkpt><trkpt lat="40.72050093226506" lon="9.185659549593208"><ele>308.0</ele><time>2026-03-27T14:11:27.998Z</time></trkpt><trkpt lat="40.720405917781626" lon="9.185683775747822"><ele>307.0</ele><time>2026-03-27T14:11:28.998Z</time></trkpt><trkpt lat="40.72030837145594" lon="9.185687637060083"><ele>309.75</ele><time>2026-03-27T14:11:29.998Z</time></trkpt><trkpt lat="40.72019669580874" lon="9.18567483582453"><ele>312.5</ele><time>2026-03-27T14:11:30.998Z</time></trkpt><trkpt lat="40.720067674993096" lon="9.185646628077075"><ele>315.25</ele><time>2026-03-27T14:11:31.998Z</time></trkpt><trkpt lat="40.71994943394072" lon="9.185614492923722"><ele>318.0</ele><time>2026-03-27T14:11:32.998Z</time></trkpt><trkpt lat="40.71983200065326" lon="9.185557225651115"><ele>318.0</ele><time>2026-03-27T14:11:33.998Z</time></trkpt><trkpt lat="40.71972042144116" lon="9.185554404628641"><ele>318.0</ele><time>2026-03-27T14:11:34.998Z</time></trkpt><trkpt lat="40.71961103520404" lon="9.18557280815675"><ele>318.0</ele><time>2026-03-27T14:11:35.998Z</time></trkpt><trkpt lat="40.71950182018631" lon="9.185574352031809"><ele>318.0</ele><time>2026-03-27T14:11:36.998Z</time></trkpt><trkpt lat="40.71940895539222" lon="9.185557523324642"><ele>318.0</ele><time>2026-03-27T14:11:37.998Z</time></trkpt><trkpt lat="40.71932009490802" lon="9.18553628880718"><ele>315.5</ele><time>2026-03-27T14:11:38.998Z</time></trkpt><trkpt lat="40.71922502110785" lon="9.185530808239347"><ele>313.0</ele><time>2026-03-27T14:11:39.998Z</time></trkpt><trkpt lat="40.71911601109863" lon="9.18560531852074"><ele>310.5</ele><time>2026-03-27T14:11:40.998Z</time></trkpt><trkpt lat="40.719006130482754" lon="9.18573198042925"><ele>308.0</ele><time>2026-03-27T14:11:41.998Z</time></trkpt><trkpt lat="40.71892714992381" lon="9.185811906203046"><ele>305.75</ele><time>2026-03-27T14:11:42.998Z</time></trkpt><trkpt lat="40.71884493391494" lon="9.185869781755612"><ele>303.5</ele><time>2026-03-27T14:11:43.998Z</time></trkpt><trkpt lat="40.718740726326715" lon="9.185914317883018"><ele>301.25</ele><time>2026-03-27T14:11:44.998Z</time></trkpt><trkpt lat="40.718617652474585" lon="9.185921508019046"><ele>299.0</ele><time>2026-03-27T14:11:45.998Z</time></trkpt><trkpt lat="40.718491761968096" lon="9.185921882774403"><ele>298.59999999999997</ele><time>2026-03-27T14:11:46.998Z</time></trkpt><trkpt lat="40.718378973279236" lon="9.18590985069385"><ele>298.2</ele><time>2026-03-27T14:11:47.998Z</time></trkpt><trkpt lat="40.71827137086568" lon="9.185885298468998"><ele>297.79999999999995</ele><time>2026-03-27T14:11:48.998Z</time></trkpt><trkpt lat="40.71815877293681" lon="9.18583613492548"><ele>297.4</ele><time>2026-03-27T14:11:50Z</time></trkpt><trkpt lat="40.71806868128266" lon="9.185793353327243"><ele>297.0</ele><time>2026-03-27T14:11:51Z</time></trkpt><trkpt lat="40.71798870383745" lon="9.185743546513066"><ele>297.0</ele><time>2026-03-27T14:11:52Z</time></trkpt><trkpt lat="40.71793182340681" lon="9.185682781363255"><ele>297.0</ele><time>2026-03-27T14:11:53Z</time></trkpt><trkpt lat="40.71786217694378" lon="9.185494432159135"><ele>297.0</ele><time>2026-03-27T14:11:55Z</time></trkpt><trkpt lat="40.71784603968287" lon="9.18531041617951"><ele>297.0</ele><time>2026-03-27T14:11:56Z</time></trkpt><trkpt lat="40.71783905816649" lon="9.185144468210371"><ele>296.8</ele><time>2026-03-27T14:11:57Z</time></trkpt><trkpt lat="40.71781298936102" lon="9.185022739315857"><ele>296.6</ele><time>2026-03-27T14:11:58Z</time></trkpt><trkpt lat="40.71776817734049" lon="9.184915477338334"><ele>296.40000000000003</ele><time>2026-03-27T14:11:59Z</time></trkpt><trkpt lat="40.7177135176225" lon="9.184840821531646"><ele>296.2</ele><time>2026-03-27T14:12:00Z</time></trkpt><trkpt lat="40.71765981208915" lon="9.184784255204823"><ele>296.0</ele><time>2026-03-27T14:12:01Z</time></trkpt><trkpt lat="40.71754192149912" lon="9.184756843011513"><ele>295.0</ele><time>2026-03-27T14:12:02Z</time></trkpt><trkpt lat="40.71738364695622" lon="9.184805713235331"><ele>294.0</ele><time>2026-03-27T14:12:03Z</time></trkpt><trkpt lat="40.7172000010803" lon="9.184884021007099"><ele>293.0</ele><time>2026-03-27T14:12:04Z</time></trkpt><trkpt lat="40.7170109945585" lon="9.184967854862693"><ele>293.0</ele><time>2026-03-27T14:12:05Z</time></trkpt><trkpt lat="40.71684221723327" lon="9.185059570581055"><ele>293.0</ele><time>2026-03-27T14:12:06Z</time></trkpt><trkpt lat="40.71668575948479" lon="9.185145487086807"><ele>293.0</ele><time>2026-03-27T14:12:07Z</time></trkpt><trkpt lat="40.7165321339999" lon="9.18524296479142"><ele>293.0</ele><time>2026-03-27T14:12:08Z</time></trkpt><trkpt lat="40.71638893433247" lon="9.185343223950582"><ele>293.0</ele><time>2026-03-27T14:12:09Z</time></trkpt><trkpt lat="40.71625858363662" lon="9.185435579358014"><ele>293.0</ele><time>2026-03-27T14:12:10Z</time></trkpt><trkpt lat="40.71615518460536" lon="9.185496800251498"><ele>293.0</ele><time>2026-03-27T14:12:11Z</time></trkpt><trkpt lat="40.7160701833797" lon="9.185505248148967"><ele>293.75</ele><time>2026-03-27T14:12:12Z</time></trkpt><trkpt lat="40.71599066630471" lon="9.185508830743764"><ele>294.5</ele><time>2026-03-27T14:12:13Z</time></trkpt><trkpt lat="40.71594858444137" lon="9.185671214571471"><ele>295.25</ele><time>2026-03-27T14:12:16.999Z</time></trkpt><trkpt lat="40.71604240081792" lon="9.185827825152089"><ele>296.0</ele><time>2026-03-27T14:12:18.999Z</time></trkpt><trkpt lat="40.71608037001631" lon="9.185953249510147"><ele>296.0</ele><time>2026-03-27T14:12:19.999Z</time></trkpt><trkpt lat="40.71614137691155" lon="9.186098851956599"><ele>296.0</ele><time>2026-03-27T14:12:20.999Z</time></trkpt><trkpt lat="40.71619103010473" lon="9.1862355679425"><ele>296.0</ele><time>2026-03-27T14:12:21.999Z</time></trkpt><trkpt lat="40.71625385664939" lon="9.18637363450444"><ele>296.0</ele><time>2026-03-27T14:12:22.999Z</time></trkpt><trkpt lat="40.716306121486134" lon="9.186540872003054"><ele>296.6666666666667</ele><time>2026-03-27T14:12:23.999Z</time></trkpt><trkpt lat="40.716378369133594" lon="9.186727233717264"><ele>297.3333333333333</ele><time>2026-03-27T14:12:24.999Z</time></trkpt><trkpt lat="40.716486626632395" lon="9.186884102930955"><ele>298.0</ele><time>2026-03-27T14:12:25.999Z</time></trkpt><trkpt lat="40.716561837415874" lon="9.187079501778555"><ele>298.0</ele><time>2026-03-27T14:12:26.999Z</time></trkpt><trkpt lat="40.71664435099766" lon="9.187286577206613"><ele>298.0</ele><time>2026-03-27T14:12:27.999Z</time></trkpt><trkpt lat="40.716723921758955" lon="9.187499736845558"><ele>298.0</ele><time>2026-03-27T14:12:28.999Z</time></trkpt><trkpt lat="40.71681321403664" lon="9.187696452033743"><ele>298.0</ele><time>2026-03-27T14:12:29.999Z</time></trkpt><trkpt lat="40.716885011629024" lon="9.187900828123794"><ele>298.0</ele><time>2026-03-27T14:12:30.999Z</time></trkpt><trkpt lat="40.71695102876773" lon="9.18812904447073"><ele>298.0</ele><time>2026-03-27T14:12:31.999Z</time></trkpt><trkpt lat="40.717042193185584" lon="9.188349868325037"><ele>298.3333333333333</ele><time>2026-03-27T14:12:32.999Z</time></trkpt><trkpt lat="40.717124762806336" lon="9.188554096496624"><ele>298.6666666666667</ele><time>2026-03-27T14:12:33.999Z</time></trkpt><trkpt lat="40.71718696607615" lon="9.188767974733723"><ele>299.0</ele><time>2026-03-27T14:12:34.999Z</time></trkpt><trkpt lat="40.71722867620932" lon="9.188975507262356"><ele>299.25</ele><time>2026-03-27T14:12:35.999Z</time></trkpt><trkpt lat="40.717255768043344" lon="9.189172076065613"><ele>299.5</ele><time>2026-03-27T14:12:36.999Z</time></trkpt><trkpt lat="40.71726902988308" lon="9.189348981755352"><ele>299.75</ele><time>2026-03-27T14:12:37.999Z</time></trkpt><trkpt lat="40.71728278707209" lon="9.189510185378692"><ele>300.0</ele><time>2026-03-27T14:12:38.999Z</time></trkpt><trkpt lat="40.71733260288742" lon="9.18963929117466"><ele>300.0</ele><time>2026-03-27T14:12:39.999Z</time></trkpt><trkpt lat="40.71738137163147" lon="9.189724619938941"><ele>300.0</ele><time>2026-03-27T14:12:40.999Z</time></trkpt><trkpt lat="40.71745731547582" lon="9.189775502518915"><ele>300.0</ele><time>2026-03-27T14:12:41.999Z</time></trkpt><trkpt lat="40.71756061602296" lon="9.189807740216434"><ele>300.0</ele><time>2026-03-27T14:12:42.999Z</time></trkpt><trkpt lat="40.717667582894094" lon="9.189789405476116"><ele>300.0</ele><time>2026-03-27T14:12:43.999Z</time></trkpt><trkpt lat="40.71779265820856" lon="9.18981288770557"><ele>300.25</ele><time>2026-03-27T14:12:44.999Z</time></trkpt><trkpt lat="40.71791829180686" lon="9.18984451654802"><ele>300.5</ele><time>2026-03-27T14:12:45.999Z</time></trkpt><trkpt lat="40.71802015195962" lon="9.18988167568368"><ele>300.75</ele><time>2026-03-27T14:12:46.999Z</time></trkpt><trkpt lat="40.71811765754566" lon="9.189867572350416"><ele>301.0</ele><time>2026-03-27T14:12:47.999Z</time></trkpt><trkpt lat="40.71825790054071" lon="9.18981802918511"><ele>301.0</ele><time>2026-03-27T14:12:48.999Z</time></trkpt><trkpt lat="40.71839947911548" lon="9.189786884145029"><ele>301.0</ele><time>2026-03-27T14:12:49.999Z</time></trkpt><trkpt lat="40.718515515204956" lon="9.18979465757576"><ele>301.0</ele><time>2026-03-27T14:12:50.999Z</time></trkpt><trkpt lat="40.71860397158512" lon="9.189775186012035"><ele>301.0</ele><time>2026-03-27T14:12:51.999Z</time></trkpt><trkpt lat="40.71867402337203" lon="9.189737704176082"><ele>301.0</ele><time>2026-03-27T14:12:52.999Z</time></trkpt><trkpt lat="40.718746430831715" lon="9.189670303813248"><ele>298.5</ele><time>2026-03-27T14:12:53.999Z</time></trkpt><trkpt lat="40.71883940458959" lon="9.189675181969404"><ele>296.0</ele><time>2026-03-27T14:12:54.999Z</time></trkpt><trkpt lat="40.71894538771362" lon="9.189715284721439"><ele>293.5</ele><time>2026-03-27T14:12:55.999Z</time></trkpt><trkpt lat="40.71907151790516" lon="9.189799964252844"><ele>291.0</ele><time>2026-03-27T14:12:56.999Z</time></trkpt><trkpt lat="40.7191935377099" lon="9.189916985438357"><ele>290.5</ele><time>2026-03-27T14:12:57.999Z</time></trkpt><trkpt lat="40.71930573045112" lon="9.190034772517487"><ele>290.0</ele><time>2026-03-27T14:12:58.999Z</time></trkpt><trkpt lat="40.71940117200448" lon="9.190082509939723"><ele>289.5</ele><time>2026-03-27T14:12:59.999Z</time></trkpt><trkpt lat="40.71949758989902" lon="9.19010516492939"><ele>289.0</ele><time>2026-03-27T14:13:00.999Z</time></trkpt><trkpt lat="40.719637759324264" lon="9.190125078204101"><ele>287.5</ele><time>2026-03-27T14:13:01.999Z</time></trkpt><trkpt lat="40.719774106703696" lon="9.190152510919589"><ele>286.0</ele><time>2026-03-27T14:13:02.999Z</time></trkpt><trkpt lat="40.71989513776343" lon="9.190162247251141"><ele>284.5</ele><time>2026-03-27T14:13:03.999Z</time></trkpt><trkpt lat="40.7200164161764" lon="9.19020216529704"><ele>283.0</ele><time>2026-03-27T14:13:04.999Z</time></trkpt><trkpt lat="40.72015215760444" lon="9.19029887924499"><ele>280.5</ele><time>2026-03-27T14:13:05.999Z</time></trkpt><trkpt lat="40.7202851033216" lon="9.190340213072497"><ele>278.0</ele><time>2026-03-27T14:13:06.998Z</time></trkpt><trkpt lat="40.72040943403923" lon="9.190396071160746"><ele>275.5</ele><time>2026-03-27T14:13:07.998Z</time></trkpt><trkpt lat="40.72051546052813" lon="9.19045663746988"><ele>273.0</ele><time>2026-03-27T14:13:08.998Z</time></trkpt><trkpt lat="40.72063096834119" lon="9.19053275886742"><ele>273.0</ele><time>2026-03-27T14:13:09.998Z</time></trkpt><trkpt lat="40.72074887103848" lon="9.190657724925584"><ele>273.0</ele><time>2026-03-27T14:13:10.998Z</time></trkpt><trkpt lat="40.72083810409189" lon="9.19076778718194"><ele>273.0</ele><time>2026-03-27T14:13:11.998Z</time></trkpt><trkpt lat="40.72090628315229" lon="9.19084864976929"><ele>273.0</ele><time>2026-03-27T14:13:12.998Z</time></trkpt><trkpt lat="40.720921367326355" lon="9.19094305484609"><ele>273.0</ele><time>2026-03-27T14:13:13.998Z</time></trkpt><trkpt lat="40.72090979429001" lon="9.191143260060215"><ele>272.75</ele><time>2026-03-27T14:13:15.998Z</time></trkpt><trkpt lat="40.720928687210616" lon="9.191312537248624"><ele>272.5</ele><time>2026-03-27T14:13:16.998Z</time></trkpt><trkpt lat="40.72095523323472" lon="9.191481654154781"><ele>272.25</ele><time>2026-03-27T14:13:17.998Z</time></trkpt><trkpt lat="40.72102386635742" lon="9.191666634983273"><ele>272.0</ele><time>2026-03-27T14:13:18.998Z</time></trkpt><trkpt lat="40.72110352822238" lon="9.191869841260855"><ele>272.0</ele><time>2026-03-27T14:13:19.998Z</time></trkpt><trkpt lat="40.721137314046615" lon="9.192096326711486"><ele>272.0</ele><time>2026-03-27T14:13:20.998Z</time></trkpt><trkpt lat="40.72118395471391" lon="9.192318829920447"><ele>272.0</ele><time>2026-03-27T14:13:21.998Z</time></trkpt><trkpt lat="40.72124851772998" lon="9.192466064947748"><ele>272.0</ele><time>2026-03-27T14:13:22.998Z</time></trkpt><trkpt lat="40.721302931003926" lon="9.192593221959406"><ele>272.0</ele><time>2026-03-27T14:13:23.998Z</time></trkpt><trkpt lat="40.72136318129291" lon="9.192675415346276"><ele>272.0</ele><time>2026-03-27T14:13:24.998Z</time></trkpt><trkpt lat="40.72142714506986" lon="9.192716296733618"><ele>272.0</ele><time>2026-03-27T14:13:25.998Z</time></trkpt><trkpt lat="40.72151351560368" lon="9.192742994022469"><ele>272.0</ele><time>2026-03-27T14:13:26.998Z</time></trkpt><trkpt lat="40.72160304264274" lon="9.192750918439437"><ele>272.0</ele><time>2026-03-27T14:13:27.998Z</time></trkpt><trkpt lat="40.72169186095347" lon="9.192678333498966"><ele>272.0</ele><time>2026-03-27T14:13:28.998Z</time></trkpt><trkpt lat="40.72176427998503" lon="9.192601258167043"><ele>272.0</ele><time>2026-03-27T14:13:29.998Z</time></trkpt><trkpt lat="40.72183485090628" lon="9.192497685035903"><ele>272.0</ele><time>2026-03-27T14:13:30.998Z</time></trkpt><trkpt lat="40.72192282078936" lon="9.192411467523891"><ele>272.0</ele><time>2026-03-27T14:13:31.998Z</time></trkpt><trkpt lat="40.72203542986007" lon="9.192412245194035"><ele>272.0</ele><time>2026-03-27T14:13:33.998Z</time></trkpt><trkpt lat="40.72205845637555" lon="9.192530220974717"><ele>271.2</ele><time>2026-03-27T14:13:34.998Z</time></trkpt><trkpt lat="40.722122248429365" lon="9.19259092626339"><ele>270.4</ele><time>2026-03-27T14:13:35.998Z</time></trkpt><trkpt lat="40.722213176528335" lon="9.192648040847265"><ele>269.6</ele><time>2026-03-27T14:13:36.998Z</time></trkpt><trkpt lat="40.72230339477692" lon="9.192666492604317"><ele>268.8</ele><time>2026-03-27T14:13:37.998Z</time></trkpt><trkpt lat="40.722380937824596" lon="9.19264310894645"><ele>268.0</ele><time>2026-03-27T14:13:38.998Z</time></trkpt><trkpt lat="40.72250253287913" lon="9.192637285908004"><ele>268.0</ele><time>2026-03-27T14:13:39.998Z</time></trkpt><trkpt lat="40.722639658977386" lon="9.192631982590031"><ele>268.0</ele><time>2026-03-27T14:13:40.998Z</time></trkpt><trkpt lat="40.72276831641912" lon="9.192608460373899"><ele>268.0</ele><time>2026-03-27T14:13:41.998Z</time></trkpt><trkpt lat="40.72293062145578" lon="9.192561057256269"><ele>268.0</ele><time>2026-03-27T14:13:42.998Z</time></trkpt><trkpt lat="40.72307040871178" lon="9.192517516160223"><ele>268.2</ele><time>2026-03-27T14:13:43.998Z</time></trkpt><trkpt lat="40.72319557683942" lon="9.192505224203543"><ele>268.4</ele><time>2026-03-27T14:13:44.998Z</time></trkpt><trkpt lat="40.72330648084912" lon="9.19251783848239"><ele>268.59999999999997</ele><time>2026-03-27T14:13:45.998Z</time></trkpt><trkpt lat="40.723416787067016" lon="9.192525521792762"><ele>268.8</ele><time>2026-03-27T14:13:46.998Z</time></trkpt><trkpt lat="40.72349634902888" lon="9.192476092385395"><ele>269.0</ele><time>2026-03-27T14:13:47.998Z</time></trkpt><trkpt lat="40.72350812198256" lon="9.192371919448588"><ele>268.4</ele><time>2026-03-27T14:13:48.998Z</time></trkpt><trkpt lat="40.7236150147309" lon="9.192249756565587"><ele>267.79999999999995</ele><time>2026-03-27T14:13:50.998Z</time></trkpt><trkpt lat="40.723696494778046" lon="9.192216685394136"><ele>267.20000000000005</ele><time>2026-03-27T14:13:51.998Z</time></trkpt><trkpt lat="40.72376277904836" lon="9.192262278378646"><ele>266.6</ele><time>2026-03-27T14:13:52.998Z</time></trkpt><trkpt lat="40.72378264242581" lon="9.192401152329994"><ele>266.0</ele><time>2026-03-27T14:13:54.998Z</time></trkpt><trkpt lat="40.723800495786605" lon="9.192510202091462"><ele>267.40000000000003</ele><time>2026-03-27T14:13:56Z</time></trkpt><trkpt lat="40.72382146506429" lon="9.19264720820733"><ele>268.8</ele><time>2026-03-27T14:13:57Z</time></trkpt><trkpt lat="40.7238621559755" lon="9.192784846972316"><ele>270.20000000000005</ele><time>2026-03-27T14:13:58Z</time></trkpt><trkpt lat="40.723953359657926" lon="9.192875814234952"><ele>271.6</ele><time>2026-03-27T14:14:00Z</time></trkpt><trkpt lat="40.724003281166326" lon="9.192797510539789"><ele>273.0</ele><time>2026-03-27T14:14:01Z</time></trkpt><trkpt lat="40.72406910684781" lon="9.192739440790453"><ele>273.0</ele><time>2026-03-27T14:14:02Z</time></trkpt><trkpt lat="40.7242193719231" lon="9.192595373515784"><ele>273.0</ele><time>2026-03-27T14:14:03Z</time></trkpt><trkpt lat="40.72431154758797" lon="9.192451249685647"><ele>273.0</ele><time>2026-03-27T14:14:04Z</time></trkpt><trkpt lat="40.72436375584173" lon="9.192284338569655"><ele>272.5</ele><time>2026-03-27T14:14:05Z</time></trkpt><trkpt lat="40.72438386491122" lon="9.19211021716685"><ele>272.0</ele><time>2026-03-27T14:14:06Z</time></trkpt><trkpt lat="40.72443275520611" lon="9.19201339338335"><ele>271.5</ele><time>2026-03-27T14:14:07Z</time></trkpt><trkpt lat="40.72450121475299" lon="9.191942492654603"><ele>271.0</ele><time>2026-03-27T14:14:08Z</time></trkpt><trkpt lat="40.724632811501635" lon="9.19185037626371"><ele>271.0</ele><time>2026-03-27T14:14:10Z</time></trkpt><trkpt lat="40.724720792239005" lon="9.19173233848503"><ele>271.0</ele><time>2026-03-27T14:14:11Z</time></trkpt><trkpt lat="40.72478249385938" lon="9.191545233154507"><ele>271.0</ele><time>2026-03-27T14:14:12Z</time></trkpt><trkpt lat="40.724862599482464" lon="9.191358242665785"><ele>271.0</ele><time>2026-03-27T14:14:12.999Z</time></trkpt><trkpt lat="40.72495643400101" lon="9.191216171417667"><ele>269.25</ele><time>2026-03-27T14:14:13.999Z</time></trkpt><trkpt lat="40.725043840241035" lon="9.191091493106427"><ele>267.5</ele><time>2026-03-27T14:14:14.999Z</time></trkpt><trkpt lat="40.72508849578806" lon="9.19097736046707"><ele>265.75</ele><time>2026-03-27T14:14:15.999Z</time></trkpt><trkpt lat="40.72510943965589" lon="9.190780683256461"><ele>264.0</ele><time>2026-03-27T14:14:17.999Z</time></trkpt><trkpt lat="40.72509681963723" lon="9.190646047620184"><ele>263.75</ele><time>2026-03-27T14:14:18.999Z</time></trkpt><trkpt lat="40.72506289048628" lon="9.190492629790443"><ele>263.5</ele><time>2026-03-27T14:14:19.999Z</time></trkpt><trkpt lat="40.72503623739132" lon="9.190310061721014"><ele>263.25</ele><time>2026-03-27T14:14:20.999Z</time></trkpt><trkpt lat="40.72505358326188" lon="9.19017875329045"><ele>263.0</ele><time>2026-03-27T14:14:21.999Z</time></trkpt><trkpt lat="40.72504978402388" lon="9.190055365132132"><ele>263.0</ele><time>2026-03-27T14:14:22.999Z</time></trkpt><trkpt lat="40.72512033120514" lon="9.189867882022812"><ele>263.0</ele><time>2026-03-27T14:14:23.999Z</time></trkpt><trkpt lat="40.72519757773119" lon="9.189688521791659"><ele>263.0</ele><time>2026-03-27T14:14:25Z</time></trkpt><trkpt lat="40.72527084287694" lon="9.189544164398916"><ele>263.0</ele><time>2026-03-27T14:14:26Z</time></trkpt><trkpt lat="40.72533907775884" lon="9.189427044493755"><ele>263.25</ele><time>2026-03-27T14:14:27Z</time></trkpt><trkpt lat="40.72542942922764" lon="9.189346020463347"><ele>263.5</ele><time>2026-03-27T14:14:28Z</time></trkpt><trkpt lat="40.72555739514004" lon="9.189248597135425"><ele>263.75</ele><time>2026-03-27T14:14:29Z</time></trkpt><trkpt lat="40.72568238134694" lon="9.18913556013126"><ele>264.0</ele><time>2026-03-27T14:14:30Z</time></trkpt><trkpt lat="40.72579883061755" lon="9.188989850283654"><ele>264.5</ele><time>2026-03-27T14:14:31Z</time></trkpt><trkpt lat="40.725910292579485" lon="9.188846484845236"><ele>265.0</ele><time>2026-03-27T14:14:32Z</time></trkpt><trkpt lat="40.72601822013108" lon="9.188736430998038"><ele>265.5</ele><time>2026-03-27T14:14:33Z</time></trkpt><trkpt lat="40.726116226976" lon="9.188625114270293"><ele>266.0</ele><time>2026-03-27T14:14:34Z</time></trkpt><trkpt lat="40.726225784314856" lon="9.188506206833184"><ele>264.33333333333337</ele><time>2026-03-27T14:14:35Z</time></trkpt><trkpt lat="40.726352660585" lon="9.188392601821615"><ele>262.6666666666667</ele><time>2026-03-27T14:14:36Z</time></trkpt><trkpt lat="40.726495710573204" lon="9.188290162702202"><ele>261.0</ele><time>2026-03-27T14:14:37Z</time></trkpt><trkpt lat="40.726621764682676" lon="9.188190500846133"><ele>260.0</ele><time>2026-03-27T14:14:38Z</time></trkpt><trkpt lat="40.72674162859701" lon="9.188122810979175"><ele>259.0</ele><time>2026-03-27T14:14:39Z</time></trkpt><trkpt lat="40.72685275561233" lon="9.188026269501945"><ele>258.0</ele><time>2026-03-27T14:14:40Z</time></trkpt><trkpt lat="40.72696626185731" lon="9.187936122071683"><ele>257.0</ele><time>2026-03-27T14:14:41Z</time></trkpt><trkpt lat="40.7270928228555" lon="9.187827192928363"><ele>257.0</ele><time>2026-03-27T14:14:42Z</time></trkpt><trkpt lat="40.72723111412714" lon="9.187700237485567"><ele>257.0</ele><time>2026-03-27T14:14:43Z</time></trkpt><trkpt lat="40.72736013109808" lon="9.187584200859076"><ele>257.0</ele><time>2026-03-27T14:14:44Z</time></trkpt><trkpt lat="40.727475596113685" lon="9.187501255089483"><ele>257.0</ele><time>2026-03-27T14:14:45Z</time></trkpt><trkpt lat="40.72755018850131" lon="9.187361888373951"><ele>257.0</ele><time>2026-03-27T14:14:46Z</time></trkpt><trkpt lat="40.7276437779942" lon="9.187192944024174"><ele>257.0</ele><time>2026-03-27T14:14:47Z</time></trkpt><trkpt lat="40.72772389370764" lon="9.186992265269245"><ele>256.33333333333337</ele><time>2026-03-27T14:14:48Z</time></trkpt><trkpt lat="40.72779818451599" lon="9.186802555269956"><ele>255.66666666666669</ele><time>2026-03-27T14:14:49Z</time></trkpt><trkpt lat="40.72784035998777" lon="9.186617575170237"><ele>255.0</ele><time>2026-03-27T14:14:50Z</time></trkpt><trkpt lat="40.727892933193566" lon="9.18644181041102"><ele>254.0</ele><time>2026-03-27T14:14:51Z</time></trkpt><trkpt lat="40.72797216828244" lon="9.186264494080449"><ele>253.0</ele><time>2026-03-27T14:14:52Z</time></trkpt><trkpt lat="40.72804960347894" lon="9.186112236958985"><ele>252.0</ele><time>2026-03-27T14:14:53Z</time></trkpt><trkpt lat="40.72811184811656" lon="9.185984414756794"><ele>251.0</ele><time>2026-03-27T14:14:54Z</time></trkpt><trkpt lat="40.728181377869866" lon="9.185888652189414"><ele>251.0</ele><time>2026-03-27T14:14:55Z</time></trkpt><trkpt lat="40.728252678765784" lon="9.185829126708818"><ele>251.00000000000003</ele><time>2026-03-27T14:14:56Z</time></trkpt><trkpt lat="40.728338603055114" lon="9.185797506084443"><ele>251.00000000000003</ele><time>2026-03-27T14:14:57Z</time></trkpt><trkpt lat="40.72843912897866" lon="9.185751365777676"><ele>251.0</ele><time>2026-03-27T14:14:58Z</time></trkpt><trkpt lat="40.728583460106144" lon="9.185702318569893"><ele>251.0</ele><time>2026-03-27T14:14:59Z</time></trkpt><trkpt lat="40.72871640966828" lon="9.18564339933105"><ele>251.25</ele><time>2026-03-27T14:15:00Z</time></trkpt><trkpt lat="40.72885189194843" lon="9.185578611366191"><ele>251.5</ele><time>2026-03-27T14:15:01Z</time></trkpt><trkpt lat="40.72897795644981" lon="9.18549224169623"><ele>251.75</ele><time>2026-03-27T14:15:02Z</time></trkpt><trkpt lat="40.729096627465104" lon="9.185408913276628"><ele>252.0</ele><time>2026-03-27T14:15:03Z</time></trkpt><trkpt lat="40.72921667370052" lon="9.185310065693281"><ele>252.0</ele><time>2026-03-27T14:15:04Z</time></trkpt><trkpt lat="40.72931058284066" lon="9.185216953021097"><ele>252.0</ele><time>2026-03-27T14:15:05Z</time></trkpt><trkpt lat="40.729363132273086" lon="9.185080480718709"><ele>252.0</ele><time>2026-03-27T14:15:06Z</time></trkpt><trkpt lat="40.729412720655596" lon="9.184923900417198"><ele>252.0</ele><time>2026-03-27T14:15:07Z</time></trkpt><trkpt lat="40.72943063764975" lon="9.184763297612829"><ele>253.2</ele><time>2026-03-27T14:15:07.999Z</time></trkpt><trkpt lat="40.72942498058074" lon="9.184624193934333"><ele>254.39999999999998</ele><time>2026-03-27T14:15:08.999Z</time></trkpt><trkpt lat="40.7294200388805" lon="9.184478657230768"><ele>255.60000000000002</ele><time>2026-03-27T14:15:09.999Z</time></trkpt><trkpt lat="40.72941997056813" lon="9.184336266079562"><ele>256.8</ele><time>2026-03-27T14:15:10.999Z</time></trkpt><trkpt lat="40.729422366410674" lon="9.18421092151425"><ele>258.0</ele><time>2026-03-27T14:15:11.999Z</time></trkpt><trkpt lat="40.72945745169282" lon="9.18410279943645"><ele>257.0</ele><time>2026-03-27T14:15:12.999Z</time></trkpt><trkpt lat="40.72946292364387" lon="9.183962757824958"><ele>256.0</ele><time>2026-03-27T14:15:13.999Z</time></trkpt><trkpt lat="40.729470776925396" lon="9.183822163512373"><ele>255.0</ele><time>2026-03-27T14:15:14.999Z</time></trkpt><trkpt lat="40.72943403191725" lon="9.183601660417729"><ele>254.0</ele><time>2026-03-27T14:15:15.999Z</time></trkpt><trkpt lat="40.729427450395306" lon="9.183419182492708"><ele>254.0</ele><time>2026-03-27T14:15:16.999Z</time></trkpt><trkpt lat="40.72944755312453" lon="9.183234101027475"><ele>254.0</ele><time>2026-03-27T14:15:17.999Z</time></trkpt><trkpt lat="40.72948583980906" lon="9.18306827337132"><ele>254.0</ele><time>2026-03-27T14:15:18.999Z</time></trkpt><trkpt lat="40.72952724522485" lon="9.18292103801964"><ele>254.0</ele><time>2026-03-27T14:15:19.999Z</time></trkpt><trkpt lat="40.72957201614269" lon="9.18277522782058"><ele>251.25</ele><time>2026-03-27T14:15:20.999Z</time></trkpt><trkpt lat="40.729656158739154" lon="9.182637559753205"><ele>248.5</ele><time>2026-03-27T14:15:21.999Z</time></trkpt><trkpt lat="40.72975156629124" lon="9.182526573373295"><ele>245.75</ele><time>2026-03-27T14:15:22.999Z</time></trkpt><trkpt lat="40.729867475645335" lon="9.182448127165683"><ele>243.0</ele><time>2026-03-27T14:15:23.999Z</time></trkpt><trkpt lat="40.72998672015852" lon="9.182408623458175"><ele>242.66666666666666</ele><time>2026-03-27T14:15:24.999Z</time></trkpt><trkpt lat="40.730073874602695" lon="9.182340048424834"><ele>242.33333333333331</ele><time>2026-03-27T14:15:25.999Z</time></trkpt><trkpt lat="40.73013032136443" lon="9.182228424390651"><ele>242.0</ele><time>2026-03-27T14:15:26.999Z</time></trkpt><trkpt lat="40.73016232223461" lon="9.182115974778721"><ele>241.66666666666666</ele><time>2026-03-27T14:15:27.999Z</time></trkpt><trkpt lat="40.73020118510711" lon="9.182029915513464"><ele>241.33333333333331</ele><time>2026-03-27T14:15:28.999Z</time></trkpt><trkpt lat="40.73027908404276" lon="9.182024194414874"><ele>241.0</ele><time>2026-03-27T14:15:29.999Z</time></trkpt><trkpt lat="40.73043293315478" lon="9.181966288227477"><ele>241.0</ele><time>2026-03-27T14:15:31.999Z</time></trkpt><trkpt lat="40.730521505813215" lon="9.181913370319348"><ele>241.0</ele><time>2026-03-27T14:15:32.999Z</time></trkpt><trkpt lat="40.73060357349787" lon="9.181827361692239"><ele>241.0</ele><time>2026-03-27T14:15:33.999Z</time></trkpt><trkpt lat="40.730680969041444" lon="9.18170388214031"><ele>241.0</ele><time>2026-03-27T14:15:34.999Z</time></trkpt><trkpt lat="40.73074239837239" lon="9.181532190822255"><ele>242.0</ele><time>2026-03-27T14:15:35.999Z</time></trkpt><trkpt lat="40.730816686146596" lon="9.181321188439046"><ele>243.0</ele><time>2026-03-27T14:15:36.999Z</time></trkpt><trkpt lat="40.730903404293876" lon="9.18114927176824"><ele>244.0</ele><time>2026-03-27T14:15:37.999Z</time></trkpt><trkpt lat="40.73099373673657" lon="9.180975201722537"><ele>242.6</ele><time>2026-03-27T14:15:38.999Z</time></trkpt><trkpt lat="40.7311064076473" lon="9.180819564747495"><ele>241.2</ele><time>2026-03-27T14:15:39.999Z</time></trkpt><trkpt lat="40.731148719146105" lon="9.180749792342882"><ele>239.79999999999998</ele><time>2026-03-27T14:15:40.999Z</time></trkpt><trkpt lat="40.73120137365685" lon="9.180625003128677"><ele>238.39999999999998</ele><time>2026-03-27T14:15:41.999Z</time></trkpt><trkpt lat="40.731231529468765" lon="9.180490491796476"><ele>237.0</ele><time>2026-03-27T14:15:42.999Z</time></trkpt><trkpt lat="40.73120180876581" lon="9.180248558831229"><ele>236.5</ele><time>2026-03-27T14:15:43.999Z</time></trkpt><trkpt lat="40.73122111971918" lon="9.180021779758336"><ele>236.0</ele><time>2026-03-27T14:15:44.999Z</time></trkpt><trkpt lat="40.73122702991266" lon="9.179856758452685"><ele>235.5</ele><time>2026-03-27T14:15:45.999Z</time></trkpt><trkpt lat="40.73122456154604" lon="9.17968593074737"><ele>235.0</ele><time>2026-03-27T14:15:46.999Z</time></trkpt><trkpt lat="40.7312204772252" lon="9.179526962435427"><ele>235.0</ele><time>2026-03-27T14:15:47.999Z</time></trkpt><trkpt lat="40.73120742205259" lon="9.179364254166233"><ele>235.0</ele><time>2026-03-27T14:15:48.999Z</time></trkpt><trkpt lat="40.73119363920085" lon="9.179175562578378"><ele>235.0</ele><time>2026-03-27T14:15:49.999Z</time></trkpt><trkpt lat="40.73119969686986" lon="9.17902829291949"><ele>235.0</ele><time>2026-03-27T14:15:50.999Z</time></trkpt><trkpt lat="40.73120640581671" lon="9.178908864593406"><ele>234.6</ele><time>2026-03-27T14:15:51.999Z</time></trkpt><trkpt lat="40.7312390253071" lon="9.17882937938042"><ele>234.2</ele><time>2026-03-27T14:15:52.999Z</time></trkpt><trkpt lat="40.73129932060026" lon="9.178752299200298"><ele>233.8</ele><time>2026-03-27T14:15:53.999Z</time></trkpt><trkpt lat="40.73134164744228" lon="9.178662918590353"><ele>233.4</ele><time>2026-03-27T14:15:54.999Z</time></trkpt><trkpt lat="40.73141661290501" lon="9.178446362360564"><ele>233.0</ele><time>2026-03-27T14:15:55.999Z</time></trkpt><trkpt lat="40.73147267857109" lon="9.178261921144436"><ele>232.66666666666669</ele><time>2026-03-27T14:15:56.999Z</time></trkpt><trkpt lat="40.731542135665954" lon="9.178080737362382"><ele>232.33333333333331</ele><time>2026-03-27T14:15:57.999Z</time></trkpt><trkpt lat="40.731586800442564" lon="9.177879413177443"><ele>232.0</ele><time>2026-03-27T14:15:58.999Z</time></trkpt><trkpt lat="40.731622057504495" lon="9.177671720386188"><ele>232.0</ele><time>2026-03-27T14:15:59.999Z</time></trkpt><trkpt lat="40.73165228205116" lon="9.177476965345042"><ele>232.0</ele><time>2026-03-27T14:16:01Z</time></trkpt><trkpt lat="40.73167019199732" lon="9.177273910221768"><ele>232.0</ele><time>2026-03-27T14:16:02.001Z</time></trkpt><trkpt lat="40.73165943966612" lon="9.177062528130396"><ele>231.66666666666666</ele><time>2026-03-27T14:16:03Z</time></trkpt><trkpt lat="40.731648839597774" lon="9.176850283082851"><ele>231.33333333333331</ele><time>2026-03-27T14:16:04Z</time></trkpt><trkpt lat="40.731659061003974" lon="9.176612155779603"><ele>231.0</ele><time>2026-03-27T14:16:05Z</time></trkpt><trkpt lat="40.73165029176912" lon="9.176382219707726"><ele>229.66666666666669</ele><time>2026-03-27T14:16:06Z</time></trkpt><trkpt lat="40.73164401792788" lon="9.176151459815886"><ele>228.33333333333334</ele><time>2026-03-27T14:16:07Z</time></trkpt><trkpt lat="40.7316444490365" lon="9.175928552408374"><ele>227.0</ele><time>2026-03-27T14:16:08Z</time></trkpt><trkpt lat="40.73164479254068" lon="9.175711487845739"><ele>227.33333333333334</ele><time>2026-03-27T14:16:09Z</time></trkpt><trkpt lat="40.73163956962441" lon="9.175486901531182"><ele>227.66666666666669</ele><time>2026-03-27T14:16:10Z</time></trkpt><trkpt lat="40.73162978605554" lon="9.17527560193331"><ele>228.0</ele><time>2026-03-27T14:16:11Z</time></trkpt><trkpt lat="40.731617894808025" lon="9.175104524059211"><ele>228.0</ele><time>2026-03-27T14:16:12Z</time></trkpt><trkpt lat="40.73163276471622" lon="9.174943961252009"><ele>228.0</ele><time>2026-03-27T14:16:13Z</time></trkpt><trkpt lat="40.73164731583522" lon="9.174783413085999"><ele>228.0</ele><time>2026-03-27T14:16:14Z</time></trkpt><trkpt lat="40.73166249932068" lon="9.174616129399439"><ele>228.0</ele><time>2026-03-27T14:16:15Z</time></trkpt><trkpt lat="40.731688646720016" lon="9.174439680824142"><ele>228.2</ele><time>2026-03-27T14:16:16Z</time></trkpt><trkpt lat="40.731703973642155" lon="9.174276018192804"><ele>228.4</ele><time>2026-03-27T14:16:17Z</time></trkpt><trkpt lat="40.73172524020471" lon="9.174151622699329"><ele>228.59999999999997</ele><time>2026-03-27T14:16:18Z</time></trkpt><trkpt lat="40.73176538812899" lon="9.174029734221861"><ele>228.79999999999998</ele><time>2026-03-27T14:16:19Z</time></trkpt><trkpt lat="40.73178720621444" lon="9.173905523793056"><ele>229.0</ele><time>2026-03-27T14:16:20Z</time></trkpt><trkpt lat="40.73177533160206" lon="9.173753452592003"><ele>228.0</ele><time>2026-03-27T14:16:21Z</time></trkpt><trkpt lat="40.73172152573285" lon="9.173563529784213"><ele>227.0</ele><time>2026-03-27T14:16:22Z</time></trkpt><trkpt lat="40.73164870776651" lon="9.173363462306064"><ele>226.0</ele><time>2026-03-27T14:16:23Z</time></trkpt><trkpt lat="40.731582534062284" lon="9.173190985304055"><ele>224.5</ele><time>2026-03-27T14:16:24Z</time></trkpt><trkpt lat="40.73153567284503" lon="9.1730387990249"><ele>223.0</ele><time>2026-03-27T14:16:25Z</time></trkpt><trkpt lat="40.73149037907076" lon="9.172893544545133"><ele>221.5</ele><time>2026-03-27T14:16:26Z</time></trkpt><trkpt lat="40.73144333263524" lon="9.172762980182215"><ele>220.0</ele><time>2026-03-27T14:16:27Z</time></trkpt><trkpt lat="40.73138326468882" lon="9.172645647458408"><ele>220.0</ele><time>2026-03-27T14:16:28Z</time></trkpt><trkpt lat="40.73135043514862" lon="9.172533993313822"><ele>220.0</ele><time>2026-03-27T14:16:29Z</time></trkpt><trkpt lat="40.73132031990392" lon="9.172415132602858"><ele>220.0</ele><time>2026-03-27T14:16:30Z</time></trkpt><trkpt lat="40.731298441300154" lon="9.172292105713305"><ele>220.0</ele><time>2026-03-27T14:16:31Z</time></trkpt><trkpt lat="40.73128216713385" lon="9.172160400153041"><ele>220.0</ele><time>2026-03-27T14:16:32Z</time></trkpt><trkpt lat="40.73130111663215" lon="9.172038317269198"><ele>220.0</ele><time>2026-03-27T14:16:33Z</time></trkpt><trkpt lat="40.73134135102164" lon="9.171911275546364"><ele>220.0</ele><time>2026-03-27T14:16:34Z</time></trkpt><trkpt lat="40.731425823886234" lon="9.17177827318196"><ele>220.0</ele><time>2026-03-27T14:16:35Z</time></trkpt><trkpt lat="40.73150525584776" lon="9.171643118092828"><ele>220.0</ele><time>2026-03-27T14:16:36Z</time></trkpt><trkpt lat="40.731542759167525" lon="9.171484567159595"><ele>220.33333333333331</ele><time>2026-03-27T14:16:37Z</time></trkpt><trkpt lat="40.73156714339136" lon="9.171277429024899"><ele>220.66666666666669</ele><time>2026-03-27T14:16:38Z</time></trkpt><trkpt lat="40.73158708015717" lon="9.17106167920142"><ele>221.0</ele><time>2026-03-27T14:16:39Z</time></trkpt><trkpt lat="40.731629677216844" lon="9.17086305109926"><ele>221.0</ele><time>2026-03-27T14:16:40Z</time></trkpt><trkpt lat="40.731667625974005" lon="9.170692444428475"><ele>221.00000000000003</ele><time>2026-03-27T14:16:41Z</time></trkpt><trkpt lat="40.73169565724681" lon="9.170544093058085"><ele>221.00000000000003</ele><time>2026-03-27T14:16:42Z</time></trkpt><trkpt lat="40.73172165295153" lon="9.17041996360885"><ele>221.0</ele><time>2026-03-27T14:16:43Z</time></trkpt><trkpt lat="40.731727697296584" lon="9.17030008030151"><ele>221.0</ele><time>2026-03-27T14:16:44Z</time></trkpt><trkpt lat="40.73169129306854" lon="9.17016864656513"><ele>221.5</ele><time>2026-03-27T14:16:45Z</time></trkpt><trkpt lat="40.731614011750956" lon="9.170030818617223"><ele>222.0</ele><time>2026-03-27T14:16:46Z</time></trkpt><trkpt lat="40.73150846486939" lon="9.16989485340942"><ele>222.5</ele><time>2026-03-27T14:16:47Z</time></trkpt><trkpt lat="40.73140280191412" lon="9.169784607666394"><ele>223.0</ele><time>2026-03-27T14:16:48Z</time></trkpt><trkpt lat="40.73129733931271" lon="9.169703666144784"><ele>223.25</ele><time>2026-03-27T14:16:49Z</time></trkpt><trkpt lat="40.73120058293001" lon="9.169634828354772"><ele>223.5</ele><time>2026-03-27T14:16:50Z</time></trkpt><trkpt lat="40.731135290757365" lon="9.169512949757975"><ele>223.75</ele><time>2026-03-27T14:16:51Z</time></trkpt><trkpt lat="40.73103829141683" lon="9.169380475273206"><ele>224.0</ele><time>2026-03-27T14:16:52Z</time></trkpt><trkpt lat="40.73093132545971" lon="9.169268014771827"><ele>222.75</ele><time>2026-03-27T14:16:53Z</time></trkpt><trkpt lat="40.730844956731445" lon="9.169152926985628"><ele>221.5</ele><time>2026-03-27T14:16:54Z</time></trkpt><trkpt lat="40.73079406717582" lon="9.169002451692128"><ele>220.25</ele><time>2026-03-27T14:16:55Z</time></trkpt><trkpt lat="40.73073807208316" lon="9.168838994793068"><ele>219.0</ele><time>2026-03-27T14:16:56Z</time></trkpt><trkpt lat="40.730687761966024" lon="9.168664248086733"><ele>219.0</ele><time>2026-03-27T14:16:57Z</time></trkpt><trkpt lat="40.73063246683486" lon="9.168474930886045"><ele>219.0</ele><time>2026-03-27T14:16:58Z</time></trkpt><trkpt lat="40.73053827612964" lon="9.168311582119973"><ele>219.0</ele><time>2026-03-27T14:16:59Z</time></trkpt><trkpt lat="40.730469969718584" lon="9.168155491854835"><ele>219.0</ele><time>2026-03-27T14:17:00Z</time></trkpt><trkpt lat="40.73043303916278" lon="9.167983681883747"><ele>219.25</ele><time>2026-03-27T14:17:01Z</time></trkpt><trkpt lat="40.73039065399872" lon="9.167812422865223"><ele>219.5</ele><time>2026-03-27T14:17:02Z</time></trkpt><trkpt lat="40.73030704078089" lon="9.167674971053717"><ele>219.75</ele><time>2026-03-27T14:17:03Z</time></trkpt><trkpt lat="40.73020409762285" lon="9.167519506863245"><ele>220.0</ele><time>2026-03-27T14:17:04Z</time></trkpt><trkpt lat="40.73011343310478" lon="9.167365650367287"><ele>218.75</ele><time>2026-03-27T14:17:05Z</time></trkpt><trkpt lat="40.73000712295329" lon="9.1672515389041"><ele>217.5</ele><time>2026-03-27T14:17:06Z</time></trkpt><trkpt lat="40.72991253414017" lon="9.167159707651404"><ele>216.25</ele><time>2026-03-27T14:17:07Z</time></trkpt><trkpt lat="40.7298235895795" lon="9.167086625416234"><ele>215.0</ele><time>2026-03-27T14:17:07.999Z</time></trkpt><trkpt lat="40.729779555373234" lon="9.166972346612384"><ele>215.00000000000003</ele><time>2026-03-27T14:17:08.999Z</time></trkpt><trkpt lat="40.729735719841266" lon="9.166879826433124"><ele>215.0</ele><time>2026-03-27T14:17:09.999Z</time></trkpt><trkpt lat="40.729683892172325" lon="9.166796626286427"><ele>215.0</ele><time>2026-03-27T14:17:10.999Z</time></trkpt><trkpt lat="40.72965919633336" lon="9.166684694738546"><ele>215.0</ele><time>2026-03-27T14:17:11.999Z</time></trkpt><trkpt lat="40.729641239989725" lon="9.166587545977714"><ele>215.00000000000003</ele><time>2026-03-27T14:17:12.999Z</time></trkpt><trkpt lat="40.72964860730751" lon="9.166503818918981"><ele>215.0</ele><time>2026-03-27T14:17:13.999Z</time></trkpt><trkpt lat="40.72967483599415" lon="9.166427828867347"><ele>215.00000000000003</ele><time>2026-03-27T14:17:14.999Z</time></trkpt><trkpt lat="40.729773249514814" lon="9.166337787064547"><ele>215.0</ele><time>2026-03-27T14:17:16.999Z</time></trkpt><trkpt lat="40.729837143092766" lon="9.16630176866817"><ele>215.0</ele><time>2026-03-27T14:17:17.999Z</time></trkpt><trkpt lat="40.72989491563425" lon="9.166243355159795"><ele>215.0</ele><time>2026-03-27T14:17:18.999Z</time></trkpt><trkpt lat="40.72994413598825" lon="9.166186168467398"><ele>215.00000000000003</ele><time>2026-03-27T14:17:19.999Z</time></trkpt><trkpt lat="40.72996448044934" lon="9.166036353282438"><ele>215.0</ele><time>2026-03-27T14:17:21.999Z</time></trkpt><trkpt lat="40.72994068250862" lon="9.165942618084433"><ele>215.0</ele><time>2026-03-27T14:17:22.999Z</time></trkpt><trkpt lat="40.729908806574834" lon="9.165837075498457"><ele>215.0</ele><time>2026-03-27T14:17:23.999Z</time></trkpt><trkpt lat="40.729889545190005" lon="9.165715942286004"><ele>215.0</ele><time>2026-03-27T14:17:24.999Z</time></trkpt><trkpt lat="40.7298824870279" lon="9.165589103196883"><ele>215.0</ele><time>2026-03-27T14:17:25.999Z</time></trkpt><trkpt lat="40.729869539661074" lon="9.16544548347091"><ele>215.0</ele><time>2026-03-27T14:17:26.999Z</time></trkpt><trkpt lat="40.72982352572766" lon="9.165321696448473"><ele>214.6</ele><time>2026-03-27T14:17:27.999Z</time></trkpt><trkpt lat="40.72975857538223" lon="9.165214643613593"><ele>214.2</ele><time>2026-03-27T14:17:28.999Z</time></trkpt><trkpt lat="40.72967491733883" lon="9.165127921455218"><ele>213.8</ele><time>2026-03-27T14:17:29.999Z</time></trkpt><trkpt lat="40.72959429945333" lon="9.16506718556532"><ele>213.4</ele><time>2026-03-27T14:17:30.999Z</time></trkpt><trkpt lat="40.729530107624775" lon="9.165003178308984"><ele>213.0</ele><time>2026-03-27T14:17:31.999Z</time></trkpt><trkpt lat="40.72951242801219" lon="9.164897580776854"><ele>212.60000000000002</ele><time>2026-03-27T14:17:32.999Z</time></trkpt><trkpt lat="40.72949072620251" lon="9.16478004206207"><ele>212.20000000000002</ele><time>2026-03-27T14:17:33.999Z</time></trkpt><trkpt lat="40.729491287964024" lon="9.164624979011053"><ele>211.8</ele><time>2026-03-27T14:17:34.999Z</time></trkpt><trkpt lat="40.72951303104894" lon="9.164471927721802"><ele>211.4</ele><time>2026-03-27T14:17:35.999Z</time></trkpt><trkpt lat="40.729553041982726" lon="9.164331158462886"><ele>211.0</ele><time>2026-03-27T14:17:36.999Z</time></trkpt><trkpt lat="40.7296016795185" lon="9.164208850179485"><ele>211.0</ele><time>2026-03-27T14:17:37.999Z</time></trkpt><trkpt lat="40.72966918970328" lon="9.164114501420222"><ele>211.0</ele><time>2026-03-27T14:17:38.999Z</time></trkpt><trkpt lat="40.729751244985685" lon="9.164034648552667"><ele>211.0</ele><time>2026-03-27T14:17:39.999Z</time></trkpt><trkpt lat="40.72980750506362" lon="9.163944656263093"><ele>211.0</ele><time>2026-03-27T14:17:40.999Z</time></trkpt><trkpt lat="40.72982892501485" lon="9.163826121072189"><ele>211.0</ele><time>2026-03-27T14:17:41.999Z</time></trkpt><trkpt lat="40.729829255550534" lon="9.163685019037727"><ele>211.0</ele><time>2026-03-27T14:17:42.999Z</time></trkpt><trkpt lat="40.72980496251191" lon="9.163539452593273"><ele>211.0</ele><time>2026-03-27T14:17:43.999Z</time></trkpt><trkpt lat="40.729785276077074" lon="9.16340536581255"><ele>211.0</ele><time>2026-03-27T14:17:44.999Z</time></trkpt><trkpt lat="40.72979755975356" lon="9.16328560030984"><ele>211.0</ele><time>2026-03-27T14:17:45.999Z</time></trkpt><trkpt lat="40.72984993417245" lon="9.163150550016542"><ele>211.0</ele><time>2026-03-27T14:17:46.999Z</time></trkpt><trkpt lat="40.729909693674" lon="9.162999098110973"><ele>211.25</ele><time>2026-03-27T14:17:47.999Z</time></trkpt><trkpt lat="40.729957538514924" lon="9.162842595242168"><ele>211.5</ele><time>2026-03-27T14:17:48.999Z</time></trkpt><trkpt lat="40.73002298902708" lon="9.162701835392413"><ele>211.75</ele><time>2026-03-27T14:17:49.999Z</time></trkpt><trkpt lat="40.73012197768951" lon="9.162562048865176"><ele>212.0</ele><time>2026-03-27T14:17:50.999Z</time></trkpt><trkpt lat="40.73021862160354" lon="9.162419545790888"><ele>211.25</ele><time>2026-03-27T14:17:51.999Z</time></trkpt><trkpt lat="40.730302149001645" lon="9.162275577977253"><ele>210.5</ele><time>2026-03-27T14:17:52.999Z</time></trkpt><trkpt lat="40.73037025594244" lon="9.162153346034781"><ele>209.75</ele><time>2026-03-27T14:17:53.999Z</time></trkpt><trkpt lat="40.73043222285329" lon="9.162066827862464"><ele>209.0</ele><time>2026-03-27T14:17:54.999Z</time></trkpt><trkpt lat="40.73054037038394" lon="9.162017519940107"><ele>209.0</ele><time>2026-03-27T14:17:56.999Z</time></trkpt><trkpt lat="40.7306132485724" lon="9.162147250618345"><ele>209.0</ele><time>2026-03-27T14:17:58.999Z</time></trkpt><trkpt lat="40.7306502736005" lon="9.162222467973836"><ele>209.0</ele><time>2026-03-27T14:17:59.999Z</time></trkpt><trkpt lat="40.73071286445963" lon="9.16228228478125"><ele>209.0</ele><time>2026-03-27T14:18:00.999Z</time></trkpt><trkpt lat="40.730791508801914" lon="9.162338074495226"><ele>209.0</ele><time>2026-03-27T14:18:01.999Z</time></trkpt><trkpt lat="40.730901961817004" lon="9.162367603345741"><ele>208.79999999999998</ele><time>2026-03-27T14:18:02.999Z</time></trkpt><trkpt lat="40.731027290496165" lon="9.162371245744163"><ele>208.6</ele><time>2026-03-27T14:18:03.998Z</time></trkpt><trkpt lat="40.73113934093224" lon="9.162374414316602"><ele>208.4</ele><time>2026-03-27T14:18:04.998Z</time></trkpt><trkpt lat="40.73123798955003" lon="9.162382992636642"><ele>208.2</ele><time>2026-03-27T14:18:05.998Z</time></trkpt><trkpt lat="40.73132751538754" lon="9.162389621317947"><ele>208.0</ele><time>2026-03-27T14:18:07Z</time></trkpt><trkpt lat="40.73141553571408" lon="9.162388639373072"><ele>208.0</ele><time>2026-03-27T14:18:08Z</time></trkpt><trkpt lat="40.73150550127256" lon="9.162388329347701"><ele>208.0</ele><time>2026-03-27T14:18:09Z</time></trkpt><trkpt lat="40.73160505232286" lon="9.16238492606009"><ele>208.0</ele><time>2026-03-27T14:18:10Z</time></trkpt><trkpt lat="40.731707968814455" lon="9.162353979172407"><ele>208.0</ele><time>2026-03-27T14:18:11Z</time></trkpt><trkpt lat="40.73180841320344" lon="9.162302756245186"><ele>208.0</ele><time>2026-03-27T14:18:12Z</time></trkpt><trkpt lat="40.73190590259987" lon="9.162240823652773"><ele>207.60000000000002</ele><time>2026-03-27T14:18:13Z</time></trkpt><trkpt lat="40.73197545249852" lon="9.162143075875747"><ele>207.20000000000002</ele><time>2026-03-27T14:18:14Z</time></trkpt><trkpt lat="40.73204594678308" lon="9.16203228933427"><ele>206.8</ele><time>2026-03-27T14:18:15Z</time></trkpt><trkpt lat="40.73213415386464" lon="9.161941116357456"><ele>206.4</ele><time>2026-03-27T14:18:16Z</time></trkpt><trkpt lat="40.73221335260665" lon="9.161837806495736"><ele>206.0</ele><time>2026-03-27T14:18:17Z</time></trkpt><trkpt lat="40.73230398887227" lon="9.161761307137057"><ele>206.0</ele><time>2026-03-27T14:18:18Z</time></trkpt><trkpt lat="40.73240570322566" lon="9.161691468129746"><ele>206.0</ele><time>2026-03-27T14:18:19Z</time></trkpt><trkpt lat="40.73249977994923" lon="9.161634302778745"><ele>206.0</ele><time>2026-03-27T14:18:20Z</time></trkpt><trkpt lat="40.73258561798341" lon="9.161581011405339"><ele>206.0</ele><time>2026-03-27T14:18:21Z</time></trkpt><trkpt lat="40.73267608996401" lon="9.1615542420471"><ele>206.0</ele><time>2026-03-27T14:18:22Z</time></trkpt><trkpt lat="40.73279642501311" lon="9.161551173316884"><ele>207.33333333333334</ele><time>2026-03-27T14:18:23Z</time></trkpt><trkpt lat="40.73293090629365" lon="9.161531405105537"><ele>208.66666666666669</ele><time>2026-03-27T14:18:24Z</time></trkpt><trkpt lat="40.73308603615157" lon="9.161489430268485"><ele>210.0</ele><time>2026-03-27T14:18:25Z</time></trkpt><trkpt lat="40.73324292090961" lon="9.16145365903692"><ele>210.0</ele><time>2026-03-27T14:18:26Z</time></trkpt><trkpt lat="40.733404928620736" lon="9.161431995086303"><ele>210.0</ele><time>2026-03-27T14:18:27Z</time></trkpt><trkpt lat="40.73356196804523" lon="9.161412605392702"><ele>210.0</ele><time>2026-03-27T14:18:28Z</time></trkpt><trkpt lat="40.7337188858569" lon="9.161394445086156"><ele>212.0</ele><time>2026-03-27T14:18:29Z</time></trkpt><trkpt lat="40.73387370866008" lon="9.161372435736457"><ele>214.0</ele><time>2026-03-27T14:18:30Z</time></trkpt><trkpt lat="40.73403259618473" lon="9.161338524909445"><ele>216.0</ele><time>2026-03-27T14:18:31Z</time></trkpt><trkpt lat="40.734191458113415" lon="9.161310242517931"><ele>216.0</ele><time>2026-03-27T14:18:32Z</time></trkpt><trkpt lat="40.734353616079396" lon="9.161306407484647"><ele>216.0</ele><time>2026-03-27T14:18:33Z</time></trkpt><trkpt lat="40.734526220920245" lon="9.161321705199958"><ele>216.0</ele><time>2026-03-27T14:18:34Z</time></trkpt><trkpt lat="40.73469133323654" lon="9.161336802803824"><ele>217.66666666666669</ele><time>2026-03-27T14:18:35Z</time></trkpt><trkpt lat="40.73486851929723" lon="9.161346057224996"><ele>219.33333333333334</ele><time>2026-03-27T14:18:36Z</time></trkpt><trkpt lat="40.73504235574151" lon="9.161351846850138"><ele>221.0</ele><time>2026-03-27T14:18:37Z</time></trkpt><trkpt lat="40.735199339713866" lon="9.161356002461304"><ele>221.5</ele><time>2026-03-27T14:18:38Z</time></trkpt><trkpt lat="40.735334021104144" lon="9.16132175965145"><ele>222.0</ele><time>2026-03-27T14:18:39Z</time></trkpt><trkpt lat="40.73545750284774" lon="9.161314553049811"><ele>222.5</ele><time>2026-03-27T14:18:40Z</time></trkpt><trkpt lat="40.735580965944536" lon="9.161281030618655"><ele>223.0</ele><time>2026-03-27T14:18:41Z</time></trkpt><trkpt lat="40.735693250841116" lon="9.161264448802033"><ele>223.0</ele><time>2026-03-27T14:18:42Z</time></trkpt><trkpt lat="40.735793722611426" lon="9.161285553485106"><ele>223.0</ele><time>2026-03-27T14:18:43Z</time></trkpt><trkpt lat="40.73590721360694" lon="9.161348313332564"><ele>223.0</ele><time>2026-03-27T14:18:44Z</time></trkpt><trkpt lat="40.736048876748534" lon="9.161453176704562"><ele>223.0</ele><time>2026-03-27T14:18:45Z</time></trkpt><trkpt lat="40.73619782823873" lon="9.161553403377264"><ele>224.33333333333331</ele><time>2026-03-27T14:18:46Z</time></trkpt><trkpt lat="40.73632152449108" lon="9.161669529066536"><ele>225.66666666666669</ele><time>2026-03-27T14:18:47Z</time></trkpt><trkpt lat="40.736460083206374" lon="9.16179333784696"><ele>227.0</ele><time>2026-03-27T14:18:48Z</time></trkpt><trkpt lat="40.7365841297919" lon="9.161915681348978"><ele>227.0</ele><time>2026-03-27T14:18:49Z</time></trkpt><trkpt lat="40.73672800825791" lon="9.162012620991227"><ele>227.0</ele><time>2026-03-27T14:18:50Z</time></trkpt><trkpt lat="40.73689125348228" lon="9.162087118029735"><ele>227.0</ele><time>2026-03-27T14:18:51Z</time></trkpt><trkpt lat="40.73705824333787" lon="9.162159900378995"><ele>229.0</ele><time>2026-03-27T14:18:52Z</time></trkpt><trkpt lat="40.737217860328194" lon="9.16223465952845"><ele>231.0</ele><time>2026-03-27T14:18:53Z</time></trkpt><trkpt lat="40.73737084516951" lon="9.16232409006237"><ele>233.0</ele><time>2026-03-27T14:18:54Z</time></trkpt><trkpt lat="40.7375242829233" lon="9.162397772424642"><ele>233.25</ele><time>2026-03-27T14:18:55Z</time></trkpt><trkpt lat="40.73768473215936" lon="9.162451381333774"><ele>233.5</ele><time>2026-03-27T14:18:56Z</time></trkpt><trkpt lat="40.73781946098344" lon="9.162499010574024"><ele>233.75</ele><time>2026-03-27T14:18:57Z</time></trkpt><trkpt lat="40.73794210659444" lon="9.162568080943164"><ele>234.0</ele><time>2026-03-27T14:18:58Z</time></trkpt><trkpt lat="40.738045980753036" lon="9.162679108841767"><ele>233.66666666666669</ele><time>2026-03-27T14:18:59Z</time></trkpt><trkpt lat="40.73815233100479" lon="9.162841134708417"><ele>233.33333333333334</ele><time>2026-03-27T14:19:00Z</time></trkpt><trkpt lat="40.738257644554544" lon="9.163022930591302"><ele>233.0</ele><time>2026-03-27T14:19:01Z</time></trkpt><trkpt lat="40.73833459707265" lon="9.163203768380733"><ele>233.0</ele><time>2026-03-27T14:19:02Z</time></trkpt><trkpt lat="40.73836243514923" lon="9.163363158414757"><ele>233.0</ele><time>2026-03-27T14:19:03Z</time></trkpt><trkpt lat="40.73839696175835" lon="9.163551405275781"><ele>233.0</ele><time>2026-03-27T14:19:04Z</time></trkpt><trkpt lat="40.73844611353117" lon="9.163755951229305"><ele>233.0</ele><time>2026-03-27T14:19:04.999Z</time></trkpt><trkpt lat="40.7384864562753" lon="9.163917877610997"><ele>232.60000000000002</ele><time>2026-03-27T14:19:05.999Z</time></trkpt><trkpt lat="40.73853985679412" lon="9.164038702844287"><ele>232.20000000000002</ele><time>2026-03-27T14:19:06.999Z</time></trkpt><trkpt lat="40.73860421927679" lon="9.164155768636368"><ele>231.8</ele><time>2026-03-27T14:19:07.999Z</time></trkpt><trkpt lat="40.73870936311517" lon="9.164222788924661"><ele>231.4</ele><time>2026-03-27T14:19:08.999Z</time></trkpt><trkpt lat="40.73878615430504" lon="9.16427813217011"><ele>231.0</ele><time>2026-03-27T14:19:09.999Z</time></trkpt><trkpt lat="40.738835167754054" lon="9.164332147023725"><ele>231.5</ele><time>2026-03-27T14:19:10.999Z</time></trkpt><trkpt lat="40.73887419082318" lon="9.16440776347219"><ele>232.0</ele><time>2026-03-27T14:19:11.999Z</time></trkpt><trkpt lat="40.73880884499497" lon="9.164586203235931"><ele>232.5</ele><time>2026-03-27T14:19:12.999Z</time></trkpt><trkpt lat="40.73880807961077" lon="9.164754056550336"><ele>233.0</ele><time>2026-03-27T14:19:13.999Z</time></trkpt><trkpt lat="40.73881157580679" lon="9.164975724757845"><ele>233.0</ele><time>2026-03-27T14:19:14.999Z</time></trkpt><trkpt lat="40.738825500260454" lon="9.165266502644755"><ele>233.0</ele><time>2026-03-27T14:19:15.999Z</time></trkpt><trkpt lat="40.7388393173688" lon="9.165520610217987"><ele>233.0</ele><time>2026-03-27T14:19:16.999Z</time></trkpt><trkpt lat="40.73884332442856" lon="9.165738317793917"><ele>232.0</ele><time>2026-03-27T14:19:17.999Z</time></trkpt><trkpt lat="40.73884132403284" lon="9.16590898195898"><ele>231.0</ele><time>2026-03-27T14:19:18.999Z</time></trkpt><trkpt lat="40.73883424125798" lon="9.166049551730506"><ele>230.0</ele><time>2026-03-27T14:19:19.999Z</time></trkpt><trkpt lat="40.73884713860766" lon="9.166166297219082"><ele>229.0</ele><time>2026-03-27T14:19:20.999Z</time></trkpt><trkpt lat="40.738963758623036" lon="9.166283347664422"><ele>229.0</ele><time>2026-03-27T14:19:22.999Z</time></trkpt><trkpt lat="40.739038807839634" lon="9.166257266756284"><ele>228.99999999999997</ele><time>2026-03-27T14:19:23.999Z</time></trkpt><trkpt lat="40.73911180270862" lon="9.166261185125547"><ele>228.99999999999997</ele><time>2026-03-27T14:19:24.999Z</time></trkpt><trkpt lat="40.73921356525155" lon="9.166239248069278"><ele>229.0</ele><time>2026-03-27T14:19:25.999Z</time></trkpt><trkpt lat="40.73934334059756" lon="9.166200524340994"><ele>229.0</ele><time>2026-03-27T14:19:26.999Z</time></trkpt><trkpt lat="40.73947467729209" lon="9.166174784079407"><ele>229.0</ele><time>2026-03-27T14:19:27.999Z</time></trkpt><trkpt lat="40.739594085645294" lon="9.16614511330869"><ele>229.0</ele><time>2026-03-27T14:19:28.999Z</time></trkpt><trkpt lat="40.73971602307388" lon="9.166113135407164"><ele>229.0</ele><time>2026-03-27T14:19:29.999Z</time></trkpt><trkpt lat="40.73983828124453" lon="9.166114475693153"><ele>229.0</ele><time>2026-03-27T14:19:30.999Z</time></trkpt><trkpt lat="40.739928625825904" lon="9.166115274282703"><ele>229.0</ele><time>2026-03-27T14:19:31.999Z</time></trkpt><trkpt lat="40.74005203919582" lon="9.166145273816086"><ele>229.0</ele><time>2026-03-27T14:19:32.999Z</time></trkpt><trkpt lat="40.740183799458485" lon="9.166201201219787"><ele>229.0</ele><time>2026-03-27T14:19:33.999Z</time></trkpt><trkpt lat="40.740339834550994" lon="9.16626005258939"><ele>229.0</ele><time>2026-03-27T14:19:34.999Z</time></trkpt><trkpt lat="40.740480838793395" lon="9.166337070999427"><ele>227.33333333333331</ele><time>2026-03-27T14:19:35.999Z</time></trkpt><trkpt lat="40.7406262850259" lon="9.166328668924848"><ele>225.66666666666669</ele><time>2026-03-27T14:19:36.999Z</time></trkpt><trkpt lat="40.74078066497814" lon="9.166350448901301"><ele>224.0</ele><time>2026-03-27T14:19:37.999Z</time></trkpt><trkpt lat="40.74093453580742" lon="9.166390229124023"><ele>223.5</ele><time>2026-03-27T14:19:38.999Z</time></trkpt><trkpt lat="40.741085119995276" lon="9.166421823280734"><ele>223.0</ele><time>2026-03-27T14:19:39.999Z</time></trkpt><trkpt lat="40.74121984886567" lon="9.166412549359066"><ele>222.5</ele><time>2026-03-27T14:19:40.999Z</time></trkpt><trkpt lat="40.741351163888254" lon="9.166390637553818"><ele>222.0</ele><time>2026-03-27T14:19:41.999Z</time></trkpt><trkpt lat="40.741459814423855" lon="9.166391165485566"><ele>222.0</ele><time>2026-03-27T14:19:42.999Z</time></trkpt><trkpt lat="40.74156884039724" lon="9.166417399840695"><ele>222.0</ele><time>2026-03-27T14:19:43.999Z</time></trkpt><trkpt lat="40.741706141248066" lon="9.166456329119605"><ele>222.0</ele><time>2026-03-27T14:19:44.999Z</time></trkpt><trkpt lat="40.74184873197433" lon="9.166517573623633"><ele>222.0</ele><time>2026-03-27T14:19:45.999Z</time></trkpt><trkpt lat="40.74199986292176" lon="9.166577756562727"><ele>222.33333333333331</ele><time>2026-03-27T14:19:46.999Z</time></trkpt><trkpt lat="40.742161325634996" lon="9.166633846887132"><ele>222.66666666666666</ele><time>2026-03-27T14:19:47.999Z</time></trkpt><trkpt lat="40.7423119827189" lon="9.166679788535356"><ele>223.0</ele><time>2026-03-27T14:19:48.999Z</time></trkpt><trkpt lat="40.74244088636955" lon="9.16672067604044"><ele>223.0</ele><time>2026-03-27T14:19:49.999Z</time></trkpt><trkpt lat="40.742566704116996" lon="9.166762226420394"><ele>223.0</ele><time>2026-03-27T14:19:50.999Z</time></trkpt><trkpt lat="40.74267107496284" lon="9.166803443626044"><ele>223.0</ele><time>2026-03-27T14:19:51.999Z</time></trkpt><trkpt lat="40.74278866969308" lon="9.166790391860987"><ele>223.0</ele><time>2026-03-27T14:19:52.999Z</time></trkpt><trkpt lat="40.742917318270074" lon="9.166773326972264"><ele>222.5</ele><time>2026-03-27T14:19:53.999Z</time></trkpt><trkpt lat="40.74305116056304" lon="9.166741368722727"><ele>222.0</ele><time>2026-03-27T14:19:54.999Z</time></trkpt><trkpt lat="40.74318500911734" lon="9.166694154824846"><ele>221.5</ele><time>2026-03-27T14:19:55.999Z</time></trkpt><trkpt lat="40.74331027969273" lon="9.1666414603652"><ele>221.0</ele><time>2026-03-27T14:19:56.999Z</time></trkpt><trkpt lat="40.74345755024076" lon="9.166565213420654"><ele>218.66666666666669</ele><time>2026-03-27T14:19:57.999Z</time></trkpt><trkpt lat="40.74360683606545" lon="9.166462232191334"><ele>216.33333333333331</ele><time>2026-03-27T14:19:58.999Z</time></trkpt><trkpt lat="40.743744277792864" lon="9.166372075292609"><ele>214.0</ele><time>2026-03-27T14:19:59.998Z</time></trkpt><trkpt lat="40.74386414313213" lon="9.166293447794882"><ele>214.0</ele><time>2026-03-27T14:20:00.998Z</time></trkpt><trkpt lat="40.74396397975204" lon="9.166217090578533"><ele>214.0</ele><time>2026-03-27T14:20:01.998Z</time></trkpt><trkpt lat="40.744047882801745" lon="9.166132385484154"><ele>214.0</ele><time>2026-03-27T14:20:02.998Z</time></trkpt><trkpt lat="40.74412764210647" lon="9.16602556511717"><ele>214.0</ele><time>2026-03-27T14:20:03.998Z</time></trkpt><trkpt lat="40.74420362082593" lon="9.165882012163058"><ele>214.0</ele><time>2026-03-27T14:20:04.998Z</time></trkpt><trkpt lat="40.74428380297119" lon="9.165730739246136"><ele>213.99999999999997</ele><time>2026-03-27T14:20:05.998Z</time></trkpt><trkpt lat="40.7443321083773" lon="9.16559412328256"><ele>213.99999999999997</ele><time>2026-03-27T14:20:06.998Z</time></trkpt><trkpt lat="40.74435731934487" lon="9.165470666818935"><ele>214.0</ele><time>2026-03-27T14:20:07.998Z</time></trkpt><trkpt lat="40.7443921004427" lon="9.16537367785261"><ele>214.0</ele><time>2026-03-27T14:20:08.998Z</time></trkpt><trkpt lat="40.74439409350235" lon="9.165242357246882"><ele>213.6</ele><time>2026-03-27T14:20:10.998Z</time></trkpt><trkpt lat="40.74439615424156" lon="9.16509912903158"><ele>213.2</ele><time>2026-03-27T14:23:30.999Z</time></trkpt><trkpt lat="40.74433508624557" lon="9.165008583317386"><ele>212.79999999999998</ele><time>2026-03-27T14:23:32.999Z</time></trkpt><trkpt lat="40.74428312077489" lon="9.164908213318208"><ele>212.39999999999998</ele><time>2026-03-27T14:23:34.999Z</time></trkpt><trkpt lat="40.74422075556574" lon="9.16479287040598"><ele>212.0</ele><time>2026-03-27T14:23:36.999Z</time></trkpt><trkpt lat="40.74418417455895" lon="9.164717894712128"><ele>211.8</ele><time>2026-03-27T14:23:37.999Z</time></trkpt><trkpt lat="40.74414989653277" lon="9.16463495878206"><ele>211.6</ele><time>2026-03-27T14:23:38.999Z</time></trkpt><trkpt lat="40.74409450225254" lon="9.164533910409766"><ele>211.4</ele><time>2026-03-27T14:23:39.999Z</time></trkpt><trkpt lat="40.74402607943919" lon="9.164418356318757"><ele>211.20000000000002</ele><time>2026-03-27T14:23:40.999Z</time></trkpt><trkpt lat="40.74395978674926" lon="9.164327959530556"><ele>211.0</ele><time>2026-03-27T14:23:41.999Z</time></trkpt><trkpt lat="40.743883475644076" lon="9.164202111900629"><ele>211.0</ele><time>2026-03-27T14:23:42.999Z</time></trkpt><trkpt lat="40.74380156429782" lon="9.164042916216655"><ele>211.0</ele><time>2026-03-27T14:23:43.999Z</time></trkpt><trkpt lat="40.74373828423739" lon="9.163870036105159"><ele>211.0</ele><time>2026-03-27T14:23:44.999Z</time></trkpt><trkpt lat="40.74367795252967" lon="9.163669434752725"><ele>211.0</ele><time>2026-03-27T14:23:45.999Z</time></trkpt><trkpt lat="40.74363138866723" lon="9.16346446847626"><ele>211.0</ele><time>2026-03-27T14:23:46.999Z</time></trkpt><trkpt lat="40.74359689828145" lon="9.163283638711178"><ele>211.0</ele><time>2026-03-27T14:23:47.999Z</time></trkpt><trkpt lat="40.74355030387826" lon="9.16311191879806"><ele>211.0</ele><time>2026-03-27T14:23:48.999Z</time></trkpt><trkpt lat="40.74347783860766" lon="9.162938206376735"><ele>211.5</ele><time>2026-03-27T14:23:49.999Z</time></trkpt><trkpt lat="40.743388051405404" lon="9.162775698238056"><ele>212.0</ele><time>2026-03-27T14:23:50.999Z</time></trkpt><trkpt lat="40.74329408564384" lon="9.162632772939583"><ele>212.5</ele><time>2026-03-27T14:23:51.999Z</time></trkpt><trkpt lat="40.743212473425686" lon="9.16249277610175"><ele>213.0</ele><time>2026-03-27T14:23:52.999Z</time></trkpt><trkpt lat="40.74314853899258" lon="9.16232373529124"><ele>213.0</ele><time>2026-03-27T14:23:53.999Z</time></trkpt><trkpt lat="40.74309669533192" lon="9.162127443747796"><ele>213.0</ele><time>2026-03-27T14:23:54.999Z</time></trkpt><trkpt lat="40.74304532612093" lon="9.161918752371975"><ele>213.0</ele><time>2026-03-27T14:23:55.999Z</time></trkpt><trkpt lat="40.74298650848717" lon="9.161711028743914"><ele>213.66666666666669</ele><time>2026-03-27T14:23:56.999Z</time></trkpt><trkpt lat="40.74291550732632" lon="9.16148968554864"><ele>214.33333333333334</ele><time>2026-03-27T14:23:57.999Z</time></trkpt><trkpt lat="40.742838609294985" lon="9.161253516313234"><ele>215.0</ele><time>2026-03-27T14:23:58.999Z</time></trkpt><trkpt lat="40.742764221056056" lon="9.1610161157624"><ele>214.66666666666669</ele><time>2026-03-27T14:23:59.999Z</time></trkpt><trkpt lat="40.74269958579906" lon="9.160766075112804"><ele>214.33333333333331</ele><time>2026-03-27T14:24:00.999Z</time></trkpt><trkpt lat="40.74265045569521" lon="9.160503898576671"><ele>214.0</ele><time>2026-03-27T14:24:01.999Z</time></trkpt><trkpt lat="40.74260376660223" lon="9.16022494094304"><ele>214.0</ele><time>2026-03-27T14:24:02.999Z</time></trkpt><trkpt lat="40.742554005240414" lon="9.159940677299904"><ele>214.0</ele><time>2026-03-27T14:24:03.998Z</time></trkpt><trkpt lat="40.7425062414134" lon="9.15964976723733"><ele>214.0</ele><time>2026-03-27T14:24:04.998Z</time></trkpt><trkpt lat="40.74245846701289" lon="9.159358082856171"><ele>214.33333333333331</ele><time>2026-03-27T14:24:05.998Z</time></trkpt><trkpt lat="40.74240960265904" lon="9.159077977644234"><ele>214.66666666666669</ele><time>2026-03-27T14:24:06.998Z</time></trkpt><trkpt lat="40.74235214418528" lon="9.158825007297601"><ele>215.0</ele><time>2026-03-27T14:24:07.998Z</time></trkpt><trkpt lat="40.74227471174682" lon="9.15858458377"><ele>215.66666666666669</ele><time>2026-03-27T14:24:08.998Z</time></trkpt><trkpt lat="40.74217355060771" lon="9.158343958648564"><ele>216.33333333333331</ele><time>2026-03-27T14:24:09.998Z</time></trkpt><trkpt lat="40.74206410972371" lon="9.158096374797674"><ele>217.0</ele><time>2026-03-27T14:24:10.998Z</time></trkpt><trkpt lat="40.74195526542189" lon="9.157850118440637"><ele>217.66666666666666</ele><time>2026-03-27T14:24:11.998Z</time></trkpt><trkpt lat="40.741851306097374" lon="9.157623510374505"><ele>218.33333333333331</ele><time>2026-03-27T14:24:12.998Z</time></trkpt><trkpt lat="40.74175525460492" lon="9.15741504252668"><ele>219.0</ele><time>2026-03-27T14:24:13.998Z</time></trkpt><trkpt lat="40.74167401083955" lon="9.157180663187075"><ele>219.66666666666669</ele><time>2026-03-27T14:24:14.998Z</time></trkpt><trkpt lat="40.741602758489705" lon="9.156918520630306"><ele>220.33333333333334</ele><time>2026-03-27T14:24:15.998Z</time></trkpt><trkpt lat="40.74153099332871" lon="9.156653323889735"><ele>221.0</ele><time>2026-03-27T14:24:16.998Z</time></trkpt><trkpt lat="40.74145867381098" lon="9.156383067247745"><ele>221.33333333333334</ele><time>2026-03-27T14:24:17.998Z</time></trkpt><trkpt lat="40.74138235892893" lon="9.156113441644054"><ele>221.66666666666669</ele><time>2026-03-27T14:24:18.998Z</time></trkpt><trkpt lat="40.74130285609634" lon="9.155848762171281"><ele>222.0</ele><time>2026-03-27T14:24:19.998Z</time></trkpt><trkpt lat="40.74122972601429" lon="9.15561443532603"><ele>222.25</ele><time>2026-03-27T14:24:20.998Z</time></trkpt><trkpt lat="40.74116436424143" lon="9.15540620842613"><ele>222.5</ele><time>2026-03-27T14:24:21.998Z</time></trkpt><trkpt lat="40.741120905166454" lon="9.155254933196957"><ele>222.75</ele><time>2026-03-27T14:24:23Z</time></trkpt><trkpt lat="40.74113689632796" lon="9.15512527294807"><ele>223.0</ele><time>2026-03-27T14:24:25Z</time></trkpt><trkpt lat="40.74118781313475" lon="9.15504956145222"><ele>222.99999999999997</ele><time>2026-03-27T14:24:41Z</time></trkpt><trkpt lat="40.74122503846929" lon="9.154964779166905"><ele>223.0</ele><time>2026-03-27T14:24:54Z</time></trkpt><trkpt lat="40.74125860075115" lon="9.154844728881072"><ele>223.0</ele><time>2026-03-27T14:25:23.999Z</time></trkpt><trkpt lat="40.741253111169165" lon="9.154758927041646"><ele>223.0</ele><time>2026-03-27T14:25:24.999Z</time></trkpt><trkpt lat="40.74122805078789" lon="9.15465771716435"><ele>222.99999999999997</ele><time>2026-03-27T14:25:25.999Z</time></trkpt><trkpt lat="40.74120648245928" lon="9.154546495009127"><ele>223.0</ele><time>2026-03-27T14:25:26.999Z</time></trkpt><trkpt lat="40.74119364301752" lon="9.154438418153106"><ele>222.2</ele><time>2026-03-27T14:25:27.999Z</time></trkpt><trkpt lat="40.74117583929118" lon="9.154313088385937"><ele>221.4</ele><time>2026-03-27T14:25:28.999Z</time></trkpt><trkpt lat="40.74114782656296" lon="9.154167349808224"><ele>220.59999999999997</ele><time>2026-03-27T14:25:29.999Z</time></trkpt><trkpt lat="40.74112330575346" lon="9.154015199788004"><ele>219.79999999999998</ele><time>2026-03-27T14:25:30.999Z</time></trkpt><trkpt lat="40.74110826283234" lon="9.153867921743975"><ele>219.0</ele><time>2026-03-27T14:25:31.999Z</time></trkpt><trkpt lat="40.741109101524295" lon="9.153725446789243"><ele>217.0</ele><time>2026-03-27T14:25:32.999Z</time></trkpt><trkpt lat="40.74112959109348" lon="9.153569736101078"><ele>215.0</ele><time>2026-03-27T14:25:33.999Z</time></trkpt><trkpt lat="40.74116782593182" lon="9.15340092900866"><ele>213.0</ele><time>2026-03-27T14:25:34.999Z</time></trkpt><trkpt lat="40.7412152312925" lon="9.153226558471305"><ele>211.0</ele><time>2026-03-27T14:25:35.999Z</time></trkpt><trkpt lat="40.74126344409506" lon="9.153064208873124"><ele>209.5</ele><time>2026-03-27T14:25:36.999Z</time></trkpt><trkpt lat="40.741312985871026" lon="9.152908526515363"><ele>208.0</ele><time>2026-03-27T14:25:37.999Z</time></trkpt><trkpt lat="40.74134876057491" lon="9.15275384422978"><ele>206.5</ele><time>2026-03-27T14:25:38.999Z</time></trkpt><trkpt lat="40.741386754977526" lon="9.152613605177773"><ele>205.0</ele><time>2026-03-27T14:25:39.999Z</time></trkpt><trkpt lat="40.74141706956438" lon="9.152488158456881"><ele>205.0</ele><time>2026-03-27T14:25:40.999Z</time></trkpt><trkpt lat="40.74149631182603" lon="9.152404585892823"><ele>205.0</ele><time>2026-03-27T14:25:41.999Z</time></trkpt><trkpt lat="40.74158730361869" lon="9.15232379214299"><ele>205.0</ele><time>2026-03-27T14:25:42.999Z</time></trkpt><trkpt lat="40.74170115467036" lon="9.152262618600354"><ele>205.0</ele><time>2026-03-27T14:25:43.999Z</time></trkpt><trkpt lat="40.74180958760181" lon="9.152211106607815"><ele>205.0</ele><time>2026-03-27T14:25:44.999Z</time></trkpt><trkpt lat="40.741901591692205" lon="9.152152184656734"><ele>204.2</ele><time>2026-03-27T14:25:45.999Z</time></trkpt><trkpt lat="40.7419576739403" lon="9.152092425058168"><ele>203.4</ele><time>2026-03-27T14:25:46.999Z</time></trkpt><trkpt lat="40.74198580046827" lon="9.15192127156261"><ele>202.60000000000002</ele><time>2026-03-27T14:25:48.999Z</time></trkpt><trkpt lat="40.74196409227441" lon="9.151800740377972"><ele>201.8</ele><time>2026-03-27T14:25:49.999Z</time></trkpt><trkpt lat="40.741938521280055" lon="9.151666645858858"><ele>201.0</ele><time>2026-03-27T14:25:50.999Z</time></trkpt><trkpt lat="40.7419087681809" lon="9.151520439800068"><ele>201.0</ele><time>2026-03-27T14:25:51.999Z</time></trkpt><trkpt lat="40.74188653654823" lon="9.151386313802325"><ele>201.0</ele><time>2026-03-27T14:25:52.999Z</time></trkpt><trkpt lat="40.74188707183239" lon="9.15128368035809"><ele>201.0</ele><time>2026-03-27T14:25:53.999Z</time></trkpt><trkpt lat="40.74190469461399" lon="9.15117196303611"><ele>201.0</ele><time>2026-03-27T14:25:56.999Z</time></trkpt><trkpt lat="40.74193650300744" lon="9.151067180418039"><ele>201.0</ele><time>2026-03-27T14:26:01.999Z</time></trkpt><trkpt lat="40.74199283174158" lon="9.150944182313854"><ele>201.0</ele><time>2026-03-27T14:26:03.999Z</time></trkpt><trkpt lat="40.74205899845743" lon="9.150863600281605"><ele>201.0</ele><time>2026-03-27T14:26:04.999Z</time></trkpt><trkpt lat="40.74212065768849" lon="9.150793020814818"><ele>201.0</ele><time>2026-03-27T14:26:05.998Z</time></trkpt><trkpt lat="40.74216196838311" lon="9.150722896202982"><ele>201.0</ele><time>2026-03-27T14:26:06.998Z</time></trkpt><trkpt lat="40.74222564172918" lon="9.150641008659344"><ele>201.0</ele><time>2026-03-27T14:26:07.998Z</time></trkpt><trkpt lat="40.74229454788007" lon="9.1505630081543"><ele>201.0</ele><time>2026-03-27T14:26:08.998Z</time></trkpt><trkpt lat="40.74239626034108" lon="9.1505041647235"><ele>200.25</ele><time>2026-03-27T14:26:09.998Z</time></trkpt><trkpt lat="40.74251344113271" lon="9.150456262441354"><ele>199.5</ele><time>2026-03-27T14:26:10.998Z</time></trkpt><trkpt lat="40.74262658165617" lon="9.150398040731686"><ele>198.75</ele><time>2026-03-27T14:26:11.998Z</time></trkpt><trkpt lat="40.742726713695" lon="9.150326211994257"><ele>198.0</ele><time>2026-03-27T14:26:12.998Z</time></trkpt><trkpt lat="40.742839347518604" lon="9.150256990263895"><ele>197.0</ele><time>2026-03-27T14:26:13.998Z</time></trkpt><trkpt lat="40.74293912868689" lon="9.150169650874625"><ele>196.0</ele><time>2026-03-27T14:26:14.998Z</time></trkpt><trkpt lat="40.74304834024637" lon="9.15008646698443"><ele>195.0</ele><time>2026-03-27T14:26:15.998Z</time></trkpt><trkpt lat="40.74313925410346" lon="9.150007263854045"><ele>194.0</ele><time>2026-03-27T14:26:16.998Z</time></trkpt><trkpt lat="40.743222247780864" lon="9.149936141797209"><ele>194.0</ele><time>2026-03-27T14:26:17.998Z</time></trkpt><trkpt lat="40.74330519715995" lon="9.149862892297044"><ele>194.0</ele><time>2026-03-27T14:26:18.998Z</time></trkpt><trkpt lat="40.743384364533284" lon="9.149797920009002"><ele>194.0</ele><time>2026-03-27T14:26:19.998Z</time></trkpt><trkpt lat="40.743450052521396" lon="9.149716747792832"><ele>194.0</ele><time>2026-03-27T14:26:20.998Z</time></trkpt><trkpt lat="40.74351000331642" lon="9.14958496390048"><ele>194.0</ele><time>2026-03-27T14:26:21.998Z</time></trkpt><trkpt lat="40.743573403830204" lon="9.149412248089432"><ele>194.33333333333334</ele><time>2026-03-27T14:26:22.998Z</time></trkpt><trkpt lat="40.74363876014792" lon="9.14921542783129"><ele>194.66666666666669</ele><time>2026-03-27T14:26:23.998Z</time></trkpt><trkpt lat="40.743674447417455" lon="9.148989016781691"><ele>195.0</ele><time>2026-03-27T14:26:24.998Z</time></trkpt><trkpt lat="40.74373073082186" lon="9.148771812271947"><ele>194.33333333333331</ele><time>2026-03-27T14:26:25.998Z</time></trkpt><trkpt lat="40.743773389313915" lon="9.14855391845351"><ele>193.66666666666666</ele><time>2026-03-27T14:26:26.998Z</time></trkpt><trkpt lat="40.743815899267254" lon="9.148336830197954"><ele>193.0</ele><time>2026-03-27T14:26:27.998Z</time></trkpt><trkpt lat="40.7438597730554" lon="9.148123460160608"><ele>191.66666666666666</ele><time>2026-03-27T14:26:29Z</time></trkpt><trkpt lat="40.743898247444015" lon="9.147894455199543"><ele>190.33333333333331</ele><time>2026-03-27T14:26:30Z</time></trkpt><trkpt lat="40.743937162321195" lon="9.147657562784783"><ele>189.0</ele><time>2026-03-27T14:26:31Z</time></trkpt><trkpt lat="40.74396189198933" lon="9.147420966527054"><ele>186.66666666666666</ele><time>2026-03-27T14:26:32Z</time></trkpt><trkpt lat="40.74398838940416" lon="9.147196369085087"><ele>184.33333333333331</ele><time>2026-03-27T14:26:33Z</time></trkpt><trkpt lat="40.74402086900349" lon="9.146985475664678"><ele>182.0</ele><time>2026-03-27T14:26:34Z</time></trkpt><trkpt lat="40.7440468257457" lon="9.146794164401408"><ele>182.0</ele><time>2026-03-27T14:26:35Z</time></trkpt><trkpt lat="40.74406971732764" lon="9.14663179643205"><ele>182.0</ele><time>2026-03-27T14:26:36Z</time></trkpt><trkpt lat="40.74408839972906" lon="9.146494920866257"><ele>182.0</ele><time>2026-03-27T14:26:37Z</time></trkpt><trkpt lat="40.74410996490848" lon="9.14639102342415"><ele>182.0</ele><time>2026-03-27T14:26:38Z</time></trkpt><trkpt lat="40.74416441682786" lon="9.14629732180747"><ele>182.0</ele><time>2026-03-27T14:26:40Z</time></trkpt><trkpt lat="40.74422732704903" lon="9.146342278844227"><ele>181.0</ele><time>2026-03-27T14:26:42Z</time></trkpt><trkpt lat="40.74440024385167" lon="9.146389706090357"><ele>180.0</ele><time>2026-03-27T14:26:44Z</time></trkpt><trkpt lat="40.74450622872745" lon="9.146413930827425"><ele>179.0</ele><time>2026-03-27T14:26:45Z</time></trkpt><trkpt lat="40.74463560997153" lon="9.146416054104941"><ele>178.0</ele><time>2026-03-27T14:26:46Z</time></trkpt><trkpt lat="40.744774188920786" lon="9.146399648611817"><ele>178.0</ele><time>2026-03-27T14:26:47Z</time></trkpt><trkpt lat="40.744914099963935" lon="9.146364926003887"><ele>178.0</ele><time>2026-03-27T14:26:48Z</time></trkpt><trkpt lat="40.7450398186944" lon="9.146320244444485"><ele>178.0</ele><time>2026-03-27T14:26:49Z</time></trkpt><trkpt lat="40.74516039781305" lon="9.146267107295431"><ele>178.0</ele><time>2026-03-27T14:26:50Z</time></trkpt><trkpt lat="40.74528419664074" lon="9.14621275532845"><ele>178.75</ele><time>2026-03-27T14:26:51Z</time></trkpt><trkpt lat="40.745407717595036" lon="9.14615381597395"><ele>179.5</ele><time>2026-03-27T14:26:52Z</time></trkpt><trkpt lat="40.74553254904293" lon="9.146100018578187"><ele>180.25</ele><time>2026-03-27T14:26:53Z</time></trkpt><trkpt lat="40.74566161053417" lon="9.146053458940296"><ele>181.0</ele><time>2026-03-27T14:26:54Z</time></trkpt><trkpt lat="40.74579682716896" lon="9.146016636520145"><ele>181.0</ele><time>2026-03-27T14:26:55Z</time></trkpt><trkpt lat="40.74593595279725" lon="9.14598560188959"><ele>181.0</ele><time>2026-03-27T14:26:56Z</time></trkpt><trkpt lat="40.746078441057385" lon="9.145962044376358"><ele>181.0</ele><time>2026-03-27T14:26:57Z</time></trkpt><trkpt lat="40.74622887716083" lon="9.145946591237152"><ele>181.0</ele><time>2026-03-27T14:26:58Z</time></trkpt><trkpt lat="40.746382911433656" lon="9.145940421722246"><ele>182.33333333333334</ele><time>2026-03-27T14:26:59Z</time></trkpt><trkpt lat="40.746537998244214" lon="9.145952528295973"><ele>183.66666666666666</ele><time>2026-03-27T14:27:00Z</time></trkpt><trkpt lat="40.74669022435617" lon="9.14597422160106"><ele>185.0</ele><time>2026-03-27T14:27:01Z</time></trkpt><trkpt lat="40.74683636035509" lon="9.145998815772282"><ele>184.66666666666666</ele><time>2026-03-27T14:27:02Z</time></trkpt><trkpt lat="40.7469849377272" lon="9.146016599548865"><ele>184.33333333333334</ele><time>2026-03-27T14:27:03Z</time></trkpt><trkpt lat="40.74713595032541" lon="9.146029767860465"><ele>184.0</ele><time>2026-03-27T14:27:04Z</time></trkpt><trkpt lat="40.74729092476322" lon="9.146044945624851"><ele>184.0</ele><time>2026-03-27T14:27:05Z</time></trkpt><trkpt lat="40.747447028086334" lon="9.146061492862565"><ele>184.0</ele><time>2026-03-27T14:27:06Z</time></trkpt><trkpt lat="40.74759760680865" lon="9.146078468881724"><ele>184.0</ele><time>2026-03-27T14:27:07Z</time></trkpt><trkpt lat="40.747737812277855" lon="9.146095744237911"><ele>184.0</ele><time>2026-03-27T14:27:08Z</time></trkpt><trkpt lat="40.7478779015623" lon="9.146120976560931"><ele>183.5</ele><time>2026-03-27T14:27:09Z</time></trkpt><trkpt lat="40.748019769857635" lon="9.14615541859718"><ele>183.0</ele><time>2026-03-27T14:27:10Z</time></trkpt><trkpt lat="40.748162567210215" lon="9.146192375966752"><ele>182.5</ele><time>2026-03-27T14:27:11Z</time></trkpt><trkpt lat="40.74831237740226" lon="9.146230326584073"><ele>182.0</ele><time>2026-03-27T14:27:12Z</time></trkpt><trkpt lat="40.74846724197338" lon="9.146273034621675"><ele>181.66666666666666</ele><time>2026-03-27T14:27:13Z</time></trkpt><trkpt lat="40.748626104484224" lon="9.14632923939154"><ele>181.33333333333334</ele><time>2026-03-27T14:27:14Z</time></trkpt><trkpt lat="40.74879250098492" lon="9.146393922661256"><ele>181.0</ele><time>2026-03-27T14:27:14.999Z</time></trkpt><trkpt lat="40.74896362809763" lon="9.146467133211486"><ele>181.66666666666669</ele><time>2026-03-27T14:27:15.999Z</time></trkpt><trkpt lat="40.749135555686756" lon="9.146552049751012"><ele>182.33333333333334</ele><time>2026-03-27T14:27:16.999Z</time></trkpt><trkpt lat="40.74931041145806" lon="9.146647873074668"><ele>183.0</ele><time>2026-03-27T14:27:17.999Z</time></trkpt><trkpt lat="40.7494851986452" lon="9.146749966601542"><ele>183.0</ele><time>2026-03-27T14:27:18.999Z</time></trkpt><trkpt lat="40.74965926418643" lon="9.146848334504861"><ele>183.0</ele><time>2026-03-27T14:27:19.999Z</time></trkpt><trkpt lat="40.749830505333136" lon="9.146937626266359"><ele>183.0</ele><time>2026-03-27T14:27:20.999Z</time></trkpt><trkpt lat="40.75000580854812" lon="9.147014436184875"><ele>183.0</ele><time>2026-03-27T14:27:21.999Z</time></trkpt><trkpt lat="40.75018247168378" lon="9.147071237618611"><ele>183.0</ele><time>2026-03-27T14:27:22.999Z</time></trkpt><trkpt lat="40.750360875321" lon="9.14711356549397"><ele>183.0</ele><time>2026-03-27T14:27:23.999Z</time></trkpt><trkpt lat="40.75053750606876" lon="9.147144447508694"><ele>181.66666666666666</ele><time>2026-03-27T14:27:24.999Z</time></trkpt><trkpt lat="40.75071676423805" lon="9.14716774554277"><ele>180.33333333333331</ele><time>2026-03-27T14:27:25.999Z</time></trkpt><trkpt lat="40.75089653888952" lon="9.14719206964222"><ele>179.0</ele><time>2026-03-27T14:27:26.999Z</time></trkpt><trkpt lat="40.75107508578109" lon="9.147213721105128"><ele>179.0</ele><time>2026-03-27T14:27:27.999Z</time></trkpt><trkpt lat="40.75123484721232" lon="9.147233129185146"><ele>179.0</ele><time>2026-03-27T14:27:28.999Z</time></trkpt><trkpt lat="40.7513843971531" lon="9.147250933985118"><ele>179.0</ele><time>2026-03-27T14:27:29.999Z</time></trkpt><trkpt lat="40.751536952306985" lon="9.14727349837487"><ele>179.0</ele><time>2026-03-27T14:27:30.999Z</time></trkpt><trkpt lat="40.751691412513146" lon="9.147302776535248"><ele>179.0</ele><time>2026-03-27T14:27:31.999Z</time></trkpt><trkpt lat="40.75184277734348" lon="9.147319350131184"><ele>179.0</ele><time>2026-03-27T14:27:32.999Z</time></trkpt><trkpt lat="40.7520035416278" lon="9.147334207191394"><ele>178.66666666666666</ele><time>2026-03-27T14:27:33.999Z</time></trkpt><trkpt lat="40.75218011124113" lon="9.147349520332671"><ele>178.33333333333334</ele><time>2026-03-27T14:27:34.999Z</time></trkpt><trkpt lat="40.75235421987004" lon="9.14736168347017"><ele>178.0</ele><time>2026-03-27T14:27:35.999Z</time></trkpt><trkpt lat="40.752535577577476" lon="9.147376757061027"><ele>177.33333333333334</ele><time>2026-03-27T14:27:36.999Z</time></trkpt><trkpt lat="40.752729001341955" lon="9.147398030344458"><ele>176.66666666666666</ele><time>2026-03-27T14:27:37.999Z</time></trkpt><trkpt lat="40.75292812721314" lon="9.14742199776664"><ele>176.0</ele><time>2026-03-27T14:27:38.999Z</time></trkpt><trkpt lat="40.75313020326688" lon="9.147445960281802"><ele>176.0</ele><time>2026-03-27T14:27:39.999Z</time></trkpt><trkpt lat="40.75332505944064" lon="9.147467153756368"><ele>176.0</ele><time>2026-03-27T14:27:40.999Z</time></trkpt><trkpt lat="40.75351507275319" lon="9.147489535172213"><ele>176.0</ele><time>2026-03-27T14:27:41.999Z</time></trkpt><trkpt lat="40.75369066527425" lon="9.147513061129326"><ele>173.66666666666666</ele><time>2026-03-27T14:27:42.999Z</time></trkpt><trkpt lat="40.753853298096615" lon="9.147534750082471"><ele>171.33333333333334</ele><time>2026-03-27T14:27:43.999Z</time></trkpt><trkpt lat="40.754002599267835" lon="9.147552197040806"><ele>169.0</ele><time>2026-03-27T14:27:44.999Z</time></trkpt><trkpt lat="40.75414898290982" lon="9.147565994076752"><ele>169.0</ele><time>2026-03-27T14:27:45.999Z</time></trkpt><trkpt lat="40.75429995974074" lon="9.147575251788084"><ele>169.0</ele><time>2026-03-27T14:27:46.999Z</time></trkpt><trkpt lat="40.75445456388766" lon="9.147594125647132"><ele>169.0</ele><time>2026-03-27T14:27:47.999Z</time></trkpt><trkpt lat="40.754615159494634" lon="9.147629328713663"><ele>169.66666666666669</ele><time>2026-03-27T14:27:48.999Z</time></trkpt><trkpt lat="40.75477705960909" lon="9.147690973630851"><ele>170.33333333333334</ele><time>2026-03-27T14:27:49.999Z</time></trkpt><trkpt lat="40.75494291561361" lon="9.147780984328023"><ele>171.0</ele><time>2026-03-27T14:27:50.999Z</time></trkpt><trkpt lat="40.75510599701046" lon="9.147878617355568"><ele>171.0</ele><time>2026-03-27T14:27:51.999Z</time></trkpt><trkpt lat="40.75527073632244" lon="9.147984970604359"><ele>171.0</ele><time>2026-03-27T14:27:52.999Z</time></trkpt><trkpt lat="40.75543789834213" lon="9.148092998871624"><ele>171.0</ele><time>2026-03-27T14:27:53.999Z</time></trkpt><trkpt lat="40.75560685732492" lon="9.148202294730858"><ele>171.0</ele><time>2026-03-27T14:27:54.999Z</time></trkpt><trkpt lat="40.75577498451862" lon="9.148314451798297"><ele>171.0</ele><time>2026-03-27T14:27:55.999Z</time></trkpt><trkpt lat="40.75593917516183" lon="9.148422874307084"><ele>171.0</ele><time>2026-03-27T14:27:56.999Z</time></trkpt><trkpt lat="40.756106410434576" lon="9.148530728866383"><ele>171.66666666666666</ele><time>2026-03-27T14:27:57.999Z</time></trkpt><trkpt lat="40.75627526293353" lon="9.148640434800933"><ele>172.33333333333331</ele><time>2026-03-27T14:27:58.999Z</time></trkpt><trkpt lat="40.75644541420929" lon="9.148752161500585"><ele>173.0</ele><time>2026-03-27T14:27:59.999Z</time></trkpt><trkpt lat="40.75661609114901" lon="9.1488652514493"><ele>173.0</ele><time>2026-03-27T14:28:00.999Z</time></trkpt><trkpt lat="40.756786510578884" lon="9.148979963971248"><ele>173.0</ele><time>2026-03-27T14:28:01.999Z</time></trkpt><trkpt lat="40.75696068862272" lon="9.14909045787645"><ele>173.0</ele><time>2026-03-27T14:28:02.999Z</time></trkpt><trkpt lat="40.75713615060881" lon="9.149199758885938"><ele>173.66666666666666</ele><time>2026-03-27T14:28:03.999Z</time></trkpt><trkpt lat="40.757312612302485" lon="9.149310367853847"><ele>174.33333333333334</ele><time>2026-03-27T14:28:04.999Z</time></trkpt><trkpt lat="40.75748704553235" lon="9.149425985412652"><ele>175.0</ele><time>2026-03-27T14:28:05.999Z</time></trkpt><trkpt lat="40.75766111901388" lon="9.149543285742533"><ele>175.33333333333334</ele><time>2026-03-27T14:28:06.999Z</time></trkpt><trkpt lat="40.757837829474845" lon="9.149660400885349"><ele>175.66666666666666</ele><time>2026-03-27T14:28:07.999Z</time></trkpt><trkpt lat="40.758017231643464" lon="9.149776537309705"><ele>176.0</ele><time>2026-03-27T14:28:08.999Z</time></trkpt><trkpt lat="40.75819803165342" lon="9.149888445770467"><ele>176.33333333333331</ele><time>2026-03-27T14:28:09.998Z</time></trkpt><trkpt lat="40.7583776185188" lon="9.149999906918843"><ele>176.66666666666666</ele><time>2026-03-27T14:28:10.998Z</time></trkpt><trkpt lat="40.75856067414252" lon="9.15011496656816"><ele>177.0</ele><time>2026-03-27T14:28:11.998Z</time></trkpt><trkpt lat="40.75874412900008" lon="9.150229227751215"><ele>178.0</ele><time>2026-03-27T14:28:12.998Z</time></trkpt><trkpt lat="40.7589266453796" lon="9.150348235419903"><ele>179.0</ele><time>2026-03-27T14:28:13.998Z</time></trkpt><trkpt lat="40.75911085559329" lon="9.150468809634068"><ele>180.0</ele><time>2026-03-27T14:28:14.998Z</time></trkpt><trkpt lat="40.759298464643614" lon="9.150588789023256"><ele>181.33333333333334</ele><time>2026-03-27T14:28:15.998Z</time></trkpt><trkpt lat="40.759486529534136" lon="9.150711999908443"><ele>182.66666666666669</ele><time>2026-03-27T14:28:16.998Z</time></trkpt><trkpt lat="40.75967242911415" lon="9.15083992735624"><ele>184.0</ele><time>2026-03-27T14:28:17.998Z</time></trkpt><trkpt lat="40.75986028891905" lon="9.150969519660531"><ele>184.0</ele><time>2026-03-27T14:28:18.998Z</time></trkpt><trkpt lat="40.760044432477386" lon="9.15109053663153"><ele>184.0</ele><time>2026-03-27T14:28:19.998Z</time></trkpt><trkpt lat="40.760232375758434" lon="9.151210469415203"><ele>184.0</ele><time>2026-03-27T14:28:20.998Z</time></trkpt><trkpt lat="40.76042032590058" lon="9.151329215206879"><ele>184.66666666666669</ele><time>2026-03-27T14:28:21.998Z</time></trkpt><trkpt lat="40.76060652931357" lon="9.151448837038632"><ele>185.33333333333334</ele><time>2026-03-27T14:28:22.998Z</time></trkpt><trkpt lat="40.76079133554235" lon="9.151567952110096"><ele>186.0</ele><time>2026-03-27T14:28:23.998Z</time></trkpt><trkpt lat="40.76097970172921" lon="9.151685484165418"><ele>187.0</ele><time>2026-03-27T14:28:24.998Z</time></trkpt><trkpt lat="40.76116855403426" lon="9.151803360463035"><ele>188.0</ele><time>2026-03-27T14:28:25.998Z</time></trkpt><trkpt lat="40.76135632480526" lon="9.151925677868158"><ele>189.0</ele><time>2026-03-27T14:28:26.998Z</time></trkpt><trkpt lat="40.761548664660246" lon="9.152046045411574"><ele>189.0</ele><time>2026-03-27T14:28:27.998Z</time></trkpt><trkpt lat="40.76173629675942" lon="9.15216829552307"><ele>189.0</ele><time>2026-03-27T14:28:28.998Z</time></trkpt><trkpt lat="40.76191873692814" lon="9.152285884140849"><ele>189.0</ele><time>2026-03-27T14:28:29.998Z</time></trkpt><trkpt lat="40.76210296987372" lon="9.152398293335082"><ele>186.33333333333334</ele><time>2026-03-27T14:28:30.998Z</time></trkpt><trkpt lat="40.762284791202575" lon="9.152517404629064"><ele>183.66666666666669</ele><time>2026-03-27T14:28:31.998Z</time></trkpt><trkpt lat="40.7624713598352" lon="9.15263681571041"><ele>181.0</ele><time>2026-03-27T14:28:32.998Z</time></trkpt><trkpt lat="40.76265991366512" lon="9.152757147465977"><ele>179.66666666666669</ele><time>2026-03-27T14:28:33.998Z</time></trkpt><trkpt lat="40.76284254301457" lon="9.152874556065292"><ele>178.33333333333334</ele><time>2026-03-27T14:28:35Z</time></trkpt><trkpt lat="40.763017697634126" lon="9.152985048810876"><ele>177.0</ele><time>2026-03-27T14:28:36Z</time></trkpt><trkpt lat="40.763179334243254" lon="9.153093878866757"><ele>177.0</ele><time>2026-03-27T14:28:37Z</time></trkpt><trkpt lat="40.76333864944699" lon="9.153205679089846"><ele>177.0</ele><time>2026-03-27T14:28:38Z</time></trkpt><trkpt lat="40.76349977713047" lon="9.153336321713573"><ele>177.0</ele><time>2026-03-27T14:28:39Z</time></trkpt><trkpt lat="40.76366144174718" lon="9.153482273559371"><ele>176.33333333333334</ele><time>2026-03-27T14:28:40Z</time></trkpt><trkpt lat="40.76381897102142" lon="9.153643442931502"><ele>175.66666666666669</ele><time>2026-03-27T14:28:41Z</time></trkpt><trkpt lat="40.76396607528474" lon="9.153812127269509"><ele>175.0</ele><time>2026-03-27T14:28:42Z</time></trkpt><trkpt lat="40.764096723878374" lon="9.153987793524996"><ele>174.66666666666669</ele><time>2026-03-27T14:28:43Z</time></trkpt><trkpt lat="40.764216556911265" lon="9.154179581851562"><ele>174.33333333333334</ele><time>2026-03-27T14:28:44Z</time></trkpt><trkpt lat="40.764335885664295" lon="9.15438319967792"><ele>174.0</ele><time>2026-03-27T14:28:45Z</time></trkpt><trkpt lat="40.7644360121931" lon="9.154607309271345"><ele>175.33333333333334</ele><time>2026-03-27T14:28:46Z</time></trkpt><trkpt lat="40.76454364834253" lon="9.15483089559853"><ele>176.66666666666669</ele><time>2026-03-27T14:28:47Z</time></trkpt><trkpt lat="40.76466207067122" lon="9.15504737684975"><ele>178.0</ele><time>2026-03-27T14:28:48Z</time></trkpt><trkpt lat="40.7647666512119" lon="9.155277720431426"><ele>178.0</ele><time>2026-03-27T14:28:49Z</time></trkpt><trkpt lat="40.764874773780676" lon="9.155505693576924"><ele>178.0</ele><time>2026-03-27T14:28:50Z</time></trkpt><trkpt lat="40.76498012190719" lon="9.155726503978837"><ele>178.0</ele><time>2026-03-27T14:28:51Z</time></trkpt><trkpt lat="40.76508297516523" lon="9.155947241045995"><ele>177.33333333333334</ele><time>2026-03-27T14:28:52Z</time></trkpt><trkpt lat="40.76518623992302" lon="9.156169673243765"><ele>176.66666666666666</ele><time>2026-03-27T14:28:53Z</time></trkpt><trkpt lat="40.765292302046284" lon="9.156394049766394"><ele>176.0</ele><time>2026-03-27T14:28:54Z</time></trkpt><trkpt lat="40.765394398714804" lon="9.15661377002701"><ele>178.66666666666666</ele><time>2026-03-27T14:28:55Z</time></trkpt><trkpt lat="40.76549194412079" lon="9.156830743317967"><ele>181.33333333333334</ele><time>2026-03-27T14:28:56Z</time></trkpt><trkpt lat="40.7655893127579" lon="9.157045775620459"><ele>184.0</ele><time>2026-03-27T14:28:57Z</time></trkpt><trkpt lat="40.76568189319546" lon="9.157263296910346"><ele>183.0</ele><time>2026-03-27T14:28:58Z</time></trkpt><trkpt lat="40.76576752650757" lon="9.157483715529628"><ele>182.0</ele><time>2026-03-27T14:28:59Z</time></trkpt><trkpt lat="40.765845430925225" lon="9.15770399210266"><ele>181.0</ele><time>2026-03-27T14:29:00Z</time></trkpt><trkpt lat="40.76591691475398" lon="9.157928064118337"><ele>181.0</ele><time>2026-03-27T14:29:01Z</time></trkpt><trkpt lat="40.76598314930511" lon="9.158159294196603"><ele>181.0</ele><time>2026-03-27T14:29:02Z</time></trkpt><trkpt lat="40.766043301136044" lon="9.158398498022777"><ele>181.0</ele><time>2026-03-27T14:29:03Z</time></trkpt><trkpt lat="40.76609874631512" lon="9.15864170675485"><ele>184.0</ele><time>2026-03-27T14:29:04Z</time></trkpt><trkpt lat="40.76614553012051" lon="9.158890193280337"><ele>187.0</ele><time>2026-03-27T14:29:05Z</time></trkpt><trkpt lat="40.76618746960746" lon="9.159145363326687"><ele>190.0</ele><time>2026-03-27T14:29:06Z</time></trkpt><trkpt lat="40.76623012774926" lon="9.1594037519238"><ele>190.0</ele><time>2026-03-27T14:29:07Z</time></trkpt><trkpt lat="40.76627491133571" lon="9.159665316982059"><ele>190.0</ele><time>2026-03-27T14:29:08Z</time></trkpt><trkpt lat="40.76631975823103" lon="9.159934423414544"><ele>190.0</ele><time>2026-03-27T14:29:09Z</time></trkpt><trkpt lat="40.76636784999655" lon="9.160203540737314"><ele>189.0</ele><time>2026-03-27T14:29:10Z</time></trkpt><trkpt lat="40.76639557284107" lon="9.160478246950438"><ele>188.0</ele><time>2026-03-27T14:29:11Z</time></trkpt><trkpt lat="40.76644115233372" lon="9.160752578747786"><ele>187.0</ele><time>2026-03-27T14:29:12Z</time></trkpt><trkpt lat="40.76648742931473" lon="9.161029359308847"><ele>185.66666666666669</ele><time>2026-03-27T14:29:13Z</time></trkpt><trkpt lat="40.76653374881026" lon="9.161306394118673"><ele>184.33333333333334</ele><time>2026-03-27T14:29:14Z</time></trkpt><trkpt lat="40.766579977200514" lon="9.161582884138122"><ele>183.0</ele><time>2026-03-27T14:29:15Z</time></trkpt><trkpt lat="40.76662534741236" lon="9.161854241389271"><ele>180.66666666666666</ele><time>2026-03-27T14:29:16Z</time></trkpt><trkpt lat="40.76667007676066" lon="9.16212176564189"><ele>178.33333333333331</ele><time>2026-03-27T14:29:16.999Z</time></trkpt><trkpt lat="40.766714899961315" lon="9.162385660952609"><ele>176.0</ele><time>2026-03-27T14:29:17.999Z</time></trkpt><trkpt lat="40.76677368219442" lon="9.162642886014138"><ele>175.66666666666666</ele><time>2026-03-27T14:29:18.999Z</time></trkpt><trkpt lat="40.7668164635323" lon="9.16290231612588"><ele>175.33333333333334</ele><time>2026-03-27T14:29:19.999Z</time></trkpt><trkpt lat="40.76684307685495" lon="9.163163113142385"><ele>175.0</ele><time>2026-03-27T14:29:20.999Z</time></trkpt><trkpt lat="40.766885047004635" lon="9.163417945238159"><ele>176.33333333333334</ele><time>2026-03-27T14:29:21.999Z</time></trkpt><trkpt lat="40.76694034110296" lon="9.163667128897576"><ele>177.66666666666666</ele><time>2026-03-27T14:29:22.999Z</time></trkpt><trkpt lat="40.766977925149774" lon="9.163920478005927"><ele>179.0</ele><time>2026-03-27T14:29:23.999Z</time></trkpt><trkpt lat="40.76701670941704" lon="9.164167515576706"><ele>179.0</ele><time>2026-03-27T14:29:24.999Z</time></trkpt><trkpt lat="40.767055617002946" lon="9.164413562424672"><ele>179.0</ele><time>2026-03-27T14:29:25.999Z</time></trkpt><trkpt lat="40.7670946093558" lon="9.16465962146945"><ele>179.0</ele><time>2026-03-27T14:29:26.999Z</time></trkpt><trkpt lat="40.76713392801879" lon="9.164909290934428"><ele>179.0</ele><time>2026-03-27T14:29:27.999Z</time></trkpt><trkpt lat="40.767173880962964" lon="9.165155758893777"><ele>179.0</ele><time>2026-03-27T14:29:28.999Z</time></trkpt><trkpt lat="40.76721341129507" lon="9.165400698873126"><ele>179.0</ele><time>2026-03-27T14:29:29.999Z</time></trkpt><trkpt lat="40.76725253550826" lon="9.165640740655837"><ele>179.33333333333331</ele><time>2026-03-27T14:29:30.999Z</time></trkpt><trkpt lat="40.7672921307353" lon="9.165875056288698"><ele>179.66666666666666</ele><time>2026-03-27T14:29:31.999Z</time></trkpt><trkpt lat="40.7673306523317" lon="9.166109448699608"><ele>180.0</ele><time>2026-03-27T14:29:32.999Z</time></trkpt><trkpt lat="40.76736867744829" lon="9.166345518357607"><ele>180.66666666666666</ele><time>2026-03-27T14:29:33.999Z</time></trkpt><trkpt lat="40.76740540816214" lon="9.166584738831375"><ele>181.33333333333331</ele><time>2026-03-27T14:29:34.999Z</time></trkpt><trkpt lat="40.76744171630682" lon="9.16682552985729"><ele>182.0</ele><time>2026-03-27T14:29:35.999Z</time></trkpt><trkpt lat="40.76748484759299" lon="9.167065738803789"><ele>182.0</ele><time>2026-03-27T14:29:36.999Z</time></trkpt><trkpt lat="40.767540888177045" lon="9.167303477209078"><ele>182.0</ele><time>2026-03-27T14:29:37.999Z</time></trkpt><trkpt lat="40.76760544276695" lon="9.167544390756781"><ele>182.0</ele><time>2026-03-27T14:29:38.999Z</time></trkpt><trkpt lat="40.767684434626126" lon="9.167779187768215"><ele>184.33333333333331</ele><time>2026-03-27T14:29:39.999Z</time></trkpt><trkpt lat="40.76776980806545" lon="9.168012538753402"><ele>186.66666666666666</ele><time>2026-03-27T14:29:40.999Z</time></trkpt><trkpt lat="40.76786171548136" lon="9.168240992883236"><ele>189.0</ele><time>2026-03-27T14:29:41.999Z</time></trkpt><trkpt lat="40.76795712969481" lon="9.168465517618731"><ele>189.0</ele><time>2026-03-27T14:29:42.999Z</time></trkpt><trkpt lat="40.768060152584155" lon="9.168681043948657"><ele>189.0</ele><time>2026-03-27T14:29:43.999Z</time></trkpt><trkpt lat="40.76817404406916" lon="9.168887963112022"><ele>189.0</ele><time>2026-03-27T14:29:44.999Z</time></trkpt><trkpt lat="40.76829103698247" lon="9.169093152724903"><ele>189.33333333333334</ele><time>2026-03-27T14:29:45.999Z</time></trkpt><trkpt lat="40.76840542697282" lon="9.169299153551675"><ele>189.66666666666669</ele><time>2026-03-27T14:29:46.999Z</time></trkpt><trkpt lat="40.768521243397224" lon="9.169505773244337"><ele>190.0</ele><time>2026-03-27T14:29:47.999Z</time></trkpt><trkpt lat="40.768636346049405" lon="9.169709734936362"><ele>190.66666666666669</ele><time>2026-03-27T14:29:48.999Z</time></trkpt><trkpt lat="40.768753915800666" lon="9.169912439697931"><ele>191.33333333333334</ele><time>2026-03-27T14:29:49.999Z</time></trkpt><trkpt lat="40.76887264922113" lon="9.170115496337353"><ele>192.0</ele><time>2026-03-27T14:29:50.999Z</time></trkpt><trkpt lat="40.76899174481114" lon="9.170318925035426"><ele>192.0</ele><time>2026-03-27T14:29:51.999Z</time></trkpt><trkpt lat="40.76911015592344" lon="9.170524244763723"><ele>192.0</ele><time>2026-03-27T14:29:52.999Z</time></trkpt><trkpt lat="40.769227311539275" lon="9.17073086825215"><ele>192.0</ele><time>2026-03-27T14:29:53.999Z</time></trkpt><trkpt lat="40.76934300288789" lon="9.170938045378396"><ele>192.66666666666669</ele><time>2026-03-27T14:29:54.999Z</time></trkpt><trkpt lat="40.76945898404043" lon="9.171145461949964"><ele>193.33333333333334</ele><time>2026-03-27T14:29:55.999Z</time></trkpt><trkpt lat="40.76957758612861" lon="9.17134834235473"><ele>194.0</ele><time>2026-03-27T14:29:56.999Z</time></trkpt><trkpt lat="40.769697787911724" lon="9.171550513393433"><ele>194.33333333333334</ele><time>2026-03-27T14:29:57.999Z</time></trkpt><trkpt lat="40.769816173986946" lon="9.1717563593632"><ele>194.66666666666669</ele><time>2026-03-27T14:29:58.999Z</time></trkpt><trkpt lat="40.769928325757185" lon="9.171957156748526"><ele>195.0</ele><time>2026-03-27T14:29:59.999Z</time></trkpt><trkpt lat="40.7700402879158" lon="9.172156178101407"><ele>195.0</ele><time>2026-03-27T14:30:00.999Z</time></trkpt><trkpt lat="40.77015453207396" lon="9.172353642724232"><ele>195.0</ele><time>2026-03-27T14:30:01.999Z</time></trkpt><trkpt lat="40.77027094090886" lon="9.172553046362735"><ele>195.0</ele><time>2026-03-27T14:30:02.999Z</time></trkpt><trkpt lat="40.77038496070716" lon="9.17275741406415"><ele>195.0</ele><time>2026-03-27T14:30:03.999Z</time></trkpt><trkpt lat="40.770499689389794" lon="9.17296405152216"><ele>195.0</ele><time>2026-03-27T14:30:04.999Z</time></trkpt><trkpt lat="40.770615301679506" lon="9.173172395378291"><ele>195.0</ele><time>2026-03-27T14:30:05.999Z</time></trkpt><trkpt lat="40.770732047800365" lon="9.173381011057442"><ele>195.0</ele><time>2026-03-27T14:30:06.999Z</time></trkpt><trkpt lat="40.77085122264309" lon="9.173589674596066"><ele>195.0</ele><time>2026-03-27T14:30:07.999Z</time></trkpt><trkpt lat="40.7709716965394" lon="9.173796097860777"><ele>195.0</ele><time>2026-03-27T14:30:08.999Z</time></trkpt><trkpt lat="40.77109175111028" lon="9.174003803102723"><ele>196.66666666666669</ele><time>2026-03-27T14:30:09.998Z</time></trkpt><trkpt lat="40.77120351065334" lon="9.174207834368184"><ele>198.33333333333334</ele><time>2026-03-27T14:30:10.998Z</time></trkpt><trkpt lat="40.771313972775985" lon="9.174408422820829"><ele>200.0</ele><time>2026-03-27T14:30:11.998Z</time></trkpt><trkpt lat="40.7714250851672" lon="9.17460290871751"><ele>200.0</ele><time>2026-03-27T14:30:12.998Z</time></trkpt><trkpt lat="40.77153514067919" lon="9.174797715931458"><ele>200.0</ele><time>2026-03-27T14:30:13.998Z</time></trkpt><trkpt lat="40.771648135840515" lon="9.174993143173173"><ele>200.0</ele><time>2026-03-27T14:30:14.998Z</time></trkpt><trkpt lat="40.77176097866438" lon="9.175191882388697"><ele>199.66666666666669</ele><time>2026-03-27T14:30:15.998Z</time></trkpt><trkpt lat="40.77187650522876" lon="9.175391783156458"><ele>199.33333333333331</ele><time>2026-03-27T14:30:16.998Z</time></trkpt><trkpt lat="40.771995777259654" lon="9.1755944536425"><ele>199.0</ele><time>2026-03-27T14:30:17.998Z</time></trkpt><trkpt lat="40.772115144648446" lon="9.175800480431874"><ele>198.33333333333331</ele><time>2026-03-27T14:30:18.998Z</time></trkpt><trkpt lat="40.77223431835209" lon="9.176011444418716"><ele>197.66666666666669</ele><time>2026-03-27T14:30:19.998Z</time></trkpt><trkpt lat="40.772354467089016" lon="9.176224750781017"><ele>197.0</ele><time>2026-03-27T14:30:20.998Z</time></trkpt><trkpt lat="40.77247387204439" lon="9.176439356560925"><ele>197.33333333333334</ele><time>2026-03-27T14:30:21.998Z</time></trkpt><trkpt lat="40.772587314921736" lon="9.176640815512998"><ele>197.66666666666669</ele><time>2026-03-27T14:30:22.998Z</time></trkpt><trkpt lat="40.77269241131249" lon="9.176825549482801"><ele>198.0</ele><time>2026-03-27T14:30:23.998Z</time></trkpt><trkpt lat="40.77279197424975" lon="9.177000236046657"><ele>197.66666666666669</ele><time>2026-03-27T14:30:24.998Z</time></trkpt><trkpt lat="40.772885120699435" lon="9.177162484110783"><ele>197.33333333333334</ele><time>2026-03-27T14:30:25.998Z</time></trkpt><trkpt lat="40.77297298106799" lon="9.177319240509544"><ele>197.0</ele><time>2026-03-27T14:30:26.998Z</time></trkpt><trkpt lat="40.77306321959235" lon="9.177474978532073"><ele>197.0</ele><time>2026-03-27T14:30:27.998Z</time></trkpt><trkpt lat="40.77315161542548" lon="9.177631069279574"><ele>197.0</ele><time>2026-03-27T14:30:28.998Z</time></trkpt><trkpt lat="40.773236183565594" lon="9.177784461453305"><ele>197.0</ele><time>2026-03-27T14:30:29.998Z</time></trkpt><trkpt lat="40.77332428099539" lon="9.177942061633024"><ele>197.0</ele><time>2026-03-27T14:30:30.998Z</time></trkpt><trkpt lat="40.773414619875616" lon="9.17810167427093"><ele>197.25</ele><time>2026-03-27T14:30:31.998Z</time></trkpt><trkpt lat="40.77350000003887" lon="9.178256589456486"><ele>197.5</ele><time>2026-03-27T14:30:32.998Z</time></trkpt><trkpt lat="40.77358171222621" lon="9.178400755368845"><ele>197.75</ele><time>2026-03-27T14:30:33.998Z</time></trkpt><trkpt lat="40.77364440573715" lon="9.178513841859637"><ele>198.0</ele><time>2026-03-27T14:30:34.998Z</time></trkpt><trkpt lat="40.773706755901024" lon="9.178625507035271"><ele>197.60000000000002</ele><time>2026-03-27T14:30:35.998Z</time></trkpt><trkpt lat="40.77377080779166" lon="9.178738262299833"><ele>197.20000000000002</ele><time>2026-03-27T14:30:36.998Z</time></trkpt><trkpt lat="40.773839199669624" lon="9.178859940471249"><ele>196.8</ele><time>2026-03-27T14:30:37.998Z</time></trkpt><trkpt lat="40.773897997310705" lon="9.178979520786973"><ele>196.4</ele><time>2026-03-27T14:30:38.998Z</time></trkpt><trkpt lat="40.773940642181934" lon="9.179078156840742"><ele>196.0</ele><time>2026-03-27T14:30:40Z</time></trkpt><trkpt lat="40.77396981016287" lon="9.179151947832823"><ele>195.66666666666666</ele><time>2026-03-27T14:30:41Z</time></trkpt><trkpt lat="40.77402883944383" lon="9.179281084795095"><ele>195.33333333333331</ele><time>2026-03-27T14:30:43Z</time></trkpt><trkpt lat="40.77406965893801" lon="9.179357532838022"><ele>195.0</ele><time>2026-03-27T14:30:46Z</time></trkpt><trkpt lat="40.77404593765842" lon="9.179446739825579"><ele>194.66666666666669</ele><time>2026-03-27T14:42:09Z</time></trkpt><trkpt lat="40.77399874615417" lon="9.179539446031523"><ele>194.33333333333334</ele><time>2026-03-27T14:42:12Z</time></trkpt><trkpt lat="40.77400551644269" lon="9.179646751976653"><ele>194.0</ele><time>2026-03-27T14:42:14Z</time></trkpt><trkpt lat="40.77394745398898" lon="9.179745939309786"><ele>194.0</ele><time>2026-03-27T14:42:15.999Z</time></trkpt><trkpt lat="40.77388351037135" lon="9.179799970482689"><ele>194.0</ele><time>2026-03-27T14:42:19.999Z</time></trkpt><trkpt lat="40.77389841570231" lon="9.179713094338718"><ele>194.0</ele><time>2026-03-27T14:42:24.999Z</time></trkpt><trkpt lat="40.77394823762854" lon="9.179634370618833"><ele>194.0</ele><time>2026-03-27T14:42:25.999Z</time></trkpt><trkpt lat="40.7739846008625" lon="9.179565854530368"><ele>194.0</ele><time>2026-03-27T14:42:26.999Z</time></trkpt><trkpt lat="40.77402023575081" lon="9.179487524668119"><ele>194.0</ele><time>2026-03-27T14:42:27.999Z</time></trkpt><trkpt lat="40.774048718533535" lon="9.179412499447713"><ele>194.0</ele><time>2026-03-27T14:42:31.999Z</time></trkpt><trkpt lat="40.774178962412314" lon="9.179500198039774"><ele>194.00000000000003</ele><time>2026-03-27T14:43:40Z</time></trkpt><trkpt lat="40.77422175093439" lon="9.179573339781248"><ele>194.0</ele><time>2026-03-27T14:43:41Z</time></trkpt><trkpt lat="40.77427109471356" lon="9.179669492085843"><ele>194.0</ele><time>2026-03-27T14:43:42Z</time></trkpt><trkpt lat="40.774314212868425" lon="9.179772863064539"><ele>194.0</ele><time>2026-03-27T14:43:43Z</time></trkpt><trkpt lat="40.77435036167166" lon="9.179850178795771"><ele>194.00000000000003</ele><time>2026-03-27T14:43:44Z</time></trkpt><trkpt lat="40.774401534937724" lon="9.179903397188248"><ele>194.0</ele><time>2026-03-27T14:43:45Z</time></trkpt><trkpt lat="40.774502207111745" lon="9.179859137821532"><ele>194.5</ele><time>2026-03-27T14:43:47Z</time></trkpt><trkpt lat="40.774547572536534" lon="9.179761829233552"><ele>195.0</ele><time>2026-03-27T14:43:48Z</time></trkpt><trkpt lat="40.774587294256605" lon="9.17963137932581"><ele>195.5</ele><time>2026-03-27T14:43:49Z</time></trkpt><trkpt lat="40.77468303375372" lon="9.179523904692063"><ele>196.0</ele><time>2026-03-27T14:43:50Z</time></trkpt><trkpt lat="40.774803581116664" lon="9.17943567904715"><ele>196.0</ele><time>2026-03-27T14:43:51Z</time></trkpt><trkpt lat="40.77493237006025" lon="9.179359086898776"><ele>196.0</ele><time>2026-03-27T14:43:52Z</time></trkpt><trkpt lat="40.775066027797955" lon="9.179278970037219"><ele>196.0</ele><time>2026-03-27T14:43:53Z</time></trkpt><trkpt lat="40.77520016075863" lon="9.179192107542033"><ele>196.0</ele><time>2026-03-27T14:43:54Z</time></trkpt><trkpt lat="40.775340464105085" lon="9.179101240182751"><ele>197.33333333333331</ele><time>2026-03-27T14:43:55Z</time></trkpt><trkpt lat="40.7754873063747" lon="9.17900821512126"><ele>198.66666666666669</ele><time>2026-03-27T14:43:56Z</time></trkpt><trkpt lat="40.77563120611201" lon="9.178917163840614"><ele>200.0</ele><time>2026-03-27T14:43:57Z</time></trkpt><trkpt lat="40.77577960687244" lon="9.178823822951097"><ele>200.0</ele><time>2026-03-27T14:43:58Z</time></trkpt><trkpt lat="40.77593301859839" lon="9.178729202153217"><ele>200.0</ele><time>2026-03-27T14:43:59Z</time></trkpt><trkpt lat="40.7760929597556" lon="9.178631508765463"><ele>200.0</ele><time>2026-03-27T14:44:00Z</time></trkpt><trkpt lat="40.7762579963185" lon="9.178530400350317"><ele>201.0</ele><time>2026-03-27T14:44:01Z</time></trkpt><trkpt lat="40.77642731545009" lon="9.178426577380078"><ele>202.0</ele><time>2026-03-27T14:44:02Z</time></trkpt><trkpt lat="40.77660346134017" lon="9.178321838759267"><ele>203.0</ele><time>2026-03-27T14:44:03Z</time></trkpt><trkpt lat="40.776781522869875" lon="9.178215909129792"><ele>203.33333333333334</ele><time>2026-03-27T14:44:04Z</time></trkpt><trkpt lat="40.77695585517298" lon="9.17811297450078"><ele>203.66666666666669</ele><time>2026-03-27T14:44:05Z</time></trkpt><trkpt lat="40.77712224561151" lon="9.178009332100595"><ele>204.0</ele><time>2026-03-27T14:44:06Z</time></trkpt><trkpt lat="40.777289179064844" lon="9.177897992786248"><ele>204.0</ele><time>2026-03-27T14:44:07Z</time></trkpt><trkpt lat="40.777452198832826" lon="9.177775209450415"><ele>204.0</ele><time>2026-03-27T14:44:08Z</time></trkpt><trkpt lat="40.77760541071946" lon="9.17764268635358"><ele>204.0</ele><time>2026-03-27T14:44:09Z</time></trkpt><trkpt lat="40.77774620485956" lon="9.177499646159825"><ele>206.0</ele><time>2026-03-27T14:44:10Z</time></trkpt><trkpt lat="40.77788179686026" lon="9.177346992534956"><ele>208.0</ele><time>2026-03-27T14:44:11Z</time></trkpt><trkpt lat="40.77800957509818" lon="9.177188515210561"><ele>210.0</ele><time>2026-03-27T14:44:12Z</time></trkpt><trkpt lat="40.778129654009376" lon="9.177019236173518"><ele>210.0</ele><time>2026-03-27T14:44:13Z</time></trkpt><trkpt lat="40.77824355166946" lon="9.176839528448843"><ele>210.0</ele><time>2026-03-27T14:44:14Z</time></trkpt><trkpt lat="40.77835274776111" lon="9.176651109741327"><ele>210.0</ele><time>2026-03-27T14:44:14.999Z</time></trkpt><trkpt lat="40.7784572708924" lon="9.176454979287781"><ele>213.33333333333331</ele><time>2026-03-27T14:44:15.999Z</time></trkpt><trkpt lat="40.77855200282475" lon="9.176251807625466"><ele>216.66666666666666</ele><time>2026-03-27T14:44:16.999Z</time></trkpt><trkpt lat="40.77863434479231" lon="9.176041414913609"><ele>220.0</ele><time>2026-03-27T14:44:17.999Z</time></trkpt><trkpt lat="40.77870395678087" lon="9.175822707685224"><ele>220.33333333333331</ele><time>2026-03-27T14:44:18.999Z</time></trkpt><trkpt lat="40.778768914058105" lon="9.175601587216393"><ele>220.66666666666669</ele><time>2026-03-27T14:44:19.999Z</time></trkpt><trkpt lat="40.77882580546887" lon="9.175377677101476"><ele>221.0</ele><time>2026-03-27T14:44:20.999Z</time></trkpt><trkpt lat="40.778877758053056" lon="9.175147932500868"><ele>221.0</ele><time>2026-03-27T14:44:21.999Z</time></trkpt><trkpt lat="40.77892619973128" lon="9.174913606266836"><ele>221.0</ele><time>2026-03-27T14:44:22.999Z</time></trkpt><trkpt lat="40.77897720598383" lon="9.17468207020027"><ele>221.0</ele><time>2026-03-27T14:44:23.999Z</time></trkpt><trkpt lat="40.779031998865214" lon="9.174451373746395"><ele>221.66666666666669</ele><time>2026-03-27T14:44:24.999Z</time></trkpt><trkpt lat="40.77908784111781" lon="9.174220850783527"><ele>222.33333333333331</ele><time>2026-03-27T14:44:25.999Z</time></trkpt><trkpt lat="40.779140058240316" lon="9.173987208076966"><ele>223.0</ele><time>2026-03-27T14:44:26.999Z</time></trkpt><trkpt lat="40.77919217222518" lon="9.173756330923855"><ele>223.66666666666666</ele><time>2026-03-27T14:44:27.999Z</time></trkpt><trkpt lat="40.779243908202524" lon="9.173527033584566"><ele>224.33333333333331</ele><time>2026-03-27T14:44:28.999Z</time></trkpt><trkpt lat="40.7792917979761" lon="9.173312577112366"><ele>225.0</ele><time>2026-03-27T14:44:29.999Z</time></trkpt><trkpt lat="40.77933713816862" lon="9.173102139957782"><ele>226.25</ele><time>2026-03-27T14:44:30.999Z</time></trkpt><trkpt lat="40.779377748036225" lon="9.172915562576177"><ele>227.5</ele><time>2026-03-27T14:44:31.999Z</time></trkpt><trkpt lat="40.77941116691001" lon="9.172760722387373"><ele>228.75</ele><time>2026-03-27T14:44:32.999Z</time></trkpt><trkpt lat="40.7794439775581" lon="9.172611113764908"><ele>230.0</ele><time>2026-03-27T14:44:33.999Z</time></trkpt><trkpt lat="40.77947998691968" lon="9.172452255420492"><ele>228.0</ele><time>2026-03-27T14:44:34.999Z</time></trkpt><trkpt lat="40.779535415589635" lon="9.172281860776641"><ele>226.0</ele><time>2026-03-27T14:44:35.999Z</time></trkpt><trkpt lat="40.77961892135104" lon="9.172102350885146"><ele>224.0</ele><time>2026-03-27T14:44:36.999Z</time></trkpt><trkpt lat="40.77971972633165" lon="9.171932725829345"><ele>224.0</ele><time>2026-03-27T14:44:37.999Z</time></trkpt><trkpt lat="40.77985288285466" lon="9.171774152911492"><ele>224.0</ele><time>2026-03-27T14:44:38.999Z</time></trkpt><trkpt lat="40.779999484762044" lon="9.171626611083207"><ele>224.0</ele><time>2026-03-27T14:44:39.999Z</time></trkpt><trkpt lat="40.780147735137945" lon="9.171472112459547"><ele>223.33333333333334</ele><time>2026-03-27T14:44:40.999Z</time></trkpt><trkpt lat="40.7802966206037" lon="9.171311138118222"><ele>222.66666666666669</ele><time>2026-03-27T14:44:41.999Z</time></trkpt><trkpt lat="40.78044324711305" lon="9.1711463650445"><ele>222.0</ele><time>2026-03-27T14:44:42.999Z</time></trkpt><trkpt lat="40.78058685063319" lon="9.17098147179508"><ele>222.0</ele><time>2026-03-27T14:44:43.999Z</time></trkpt><trkpt lat="40.78072621470657" lon="9.170814699805774"><ele>222.0</ele><time>2026-03-27T14:44:44.999Z</time></trkpt><trkpt lat="40.78086134254045" lon="9.170643551352205"><ele>222.0</ele><time>2026-03-27T14:44:45.999Z</time></trkpt><trkpt lat="40.78098752015275" lon="9.170478173877605"><ele>223.66666666666669</ele><time>2026-03-27T14:44:46.999Z</time></trkpt><trkpt lat="40.78111202835633" lon="9.170309526826227"><ele>225.33333333333334</ele><time>2026-03-27T14:44:47.999Z</time></trkpt><trkpt lat="40.7812377233821" lon="9.170137076385663"><ele>227.0</ele><time>2026-03-27T14:44:48.999Z</time></trkpt><trkpt lat="40.78136230514374" lon="9.16996612113284"><ele>228.0</ele><time>2026-03-27T14:44:49.999Z</time></trkpt><trkpt lat="40.78148558560332" lon="9.169791872874034"><ele>229.0</ele><time>2026-03-27T14:44:50.999Z</time></trkpt><trkpt lat="40.78160363529068" lon="9.169625906737666"><ele>230.0</ele><time>2026-03-27T14:44:51.999Z</time></trkpt><trkpt lat="40.78172220529461" lon="9.16946051440214"><ele>230.0</ele><time>2026-03-27T14:44:52.999Z</time></trkpt><trkpt lat="40.78183936634073" lon="9.169297170246221"><ele>230.0</ele><time>2026-03-27T14:44:53.999Z</time></trkpt><trkpt lat="40.781954422136764" lon="9.169137018597304"><ele>230.0</ele><time>2026-03-27T14:44:54.999Z</time></trkpt><trkpt lat="40.78206200515725" lon="9.168983877063916"><ele>232.0</ele><time>2026-03-27T14:44:55.999Z</time></trkpt><trkpt lat="40.782162133911726" lon="9.168844412846319"><ele>234.0</ele><time>2026-03-27T14:44:56.999Z</time></trkpt><trkpt lat="40.782252184372176" lon="9.168713758310798"><ele>236.0</ele><time>2026-03-27T14:44:57.999Z</time></trkpt><trkpt lat="40.78232701932993" lon="9.16860956047494"><ele>238.0</ele><time>2026-03-27T14:44:58.999Z</time></trkpt><trkpt lat="40.782390988955726" lon="9.168533714217435"><ele>238.0</ele><time>2026-03-27T14:44:59.999Z</time></trkpt><trkpt lat="40.78246005989658" lon="9.168494738662883"><ele>238.0</ele><time>2026-03-27T14:45:00.999Z</time></trkpt><trkpt lat="40.78255626976949" lon="9.168538762621003"><ele>238.0</ele><time>2026-03-27T14:45:02.999Z</time></trkpt><trkpt lat="40.78258686909589" lon="9.168664156206662"><ele>238.0</ele><time>2026-03-27T14:45:04.999Z</time></trkpt><trkpt lat="40.78255315057857" lon="9.168833676822896"><ele>238.0</ele><time>2026-03-27T14:45:06.999Z</time></trkpt><trkpt lat="40.782560248167975" lon="9.168917397285254"><ele>237.99999999999997</ele><time>2026-03-27T14:45:07.999Z</time></trkpt><trkpt lat="40.7825684039149" lon="9.16901359937995"><ele>238.0</ele><time>2026-03-27T14:45:08.998Z</time></trkpt><trkpt lat="40.782577619235234" lon="9.169122299798783"><ele>238.0</ele><time>2026-03-27T14:45:09.998Z</time></trkpt><trkpt lat="40.78258707003884" lon="9.1692342160368"><ele>238.0</ele><time>2026-03-27T14:45:10.998Z</time></trkpt><trkpt lat="40.78259703184151" lon="9.169352227650547"><ele>237.99999999999997</ele><time>2026-03-27T14:45:11.998Z</time></trkpt><trkpt lat="40.78260739339875" lon="9.169474974914623"><ele>238.0</ele><time>2026-03-27T14:45:12.998Z</time></trkpt><trkpt lat="40.782617925491486" lon="9.169599742415153"><ele>237.8</ele><time>2026-03-27T14:45:13.998Z</time></trkpt><trkpt lat="40.78262882974988" lon="9.169728918754613"><ele>237.60000000000002</ele><time>2026-03-27T14:45:14.998Z</time></trkpt><trkpt lat="40.782639942883115" lon="9.169863650218234"><ele>237.39999999999998</ele><time>2026-03-27T14:45:15.998Z</time></trkpt><trkpt lat="40.78265009637751" lon="9.170003316367707"><ele>237.2</ele><time>2026-03-27T14:45:16.998Z</time></trkpt><trkpt lat="40.782661156933244" lon="9.170155459572085"><ele>237.0</ele><time>2026-03-27T14:45:17.998Z</time></trkpt><trkpt lat="40.782672265826314" lon="9.170313756941834"><ele>238.25</ele><time>2026-03-27T14:45:18.998Z</time></trkpt><trkpt lat="40.78268336373841" lon="9.17047571030405"><ele>239.5</ele><time>2026-03-27T14:45:19.998Z</time></trkpt><trkpt lat="40.782694060253704" lon="9.17063855784487"><ele>240.75</ele><time>2026-03-27T14:45:21Z</time></trkpt><trkpt lat="40.78270577694859" lon="9.170808429181701"><ele>242.0</ele><time>2026-03-27T14:45:22Z</time></trkpt><trkpt lat="40.782720919313945" lon="9.170973944884551"><ele>242.0</ele><time>2026-03-27T14:45:23Z</time></trkpt><trkpt lat="40.782739054918196" lon="9.171126650820602"><ele>242.0</ele><time>2026-03-27T14:45:24Z</time></trkpt><trkpt lat="40.782760796897605" lon="9.171270115116789"><ele>242.0</ele><time>2026-03-27T14:45:25Z</time></trkpt><trkpt lat="40.782787799925245" lon="9.171418996529978"><ele>242.0</ele><time>2026-03-27T14:45:26Z</time></trkpt><trkpt lat="40.78281923255807" lon="9.171574322317037"><ele>240.25</ele><time>2026-03-27T14:45:27Z</time></trkpt><trkpt lat="40.78285472294692" lon="9.171728469377657"><ele>238.5</ele><time>2026-03-27T14:45:28Z</time></trkpt><trkpt lat="40.78289323496284" lon="9.17188218865202"><ele>236.75</ele><time>2026-03-27T14:45:29Z</time></trkpt><trkpt lat="40.78293347407359" lon="9.17203612418835"><ele>235.0</ele><time>2026-03-27T14:45:30Z</time></trkpt><trkpt lat="40.78297686110293" lon="9.172179368136867"><ele>235.0</ele><time>2026-03-27T14:45:31Z</time></trkpt><trkpt lat="40.783017483478204" lon="9.172319200012126"><ele>235.0</ele><time>2026-03-27T14:45:32Z</time></trkpt><trkpt lat="40.78304525436048" lon="9.172463353352185"><ele>235.0</ele><time>2026-03-27T14:45:33Z</time></trkpt><trkpt lat="40.78304854138724" lon="9.172614900880378"><ele>235.0</ele><time>2026-03-27T14:45:34Z</time></trkpt><trkpt lat="40.78304200018833" lon="9.172785360026499"><ele>234.25</ele><time>2026-03-27T14:45:35Z</time></trkpt><trkpt lat="40.78302717698093" lon="9.172964558959475"><ele>233.5</ele><time>2026-03-27T14:45:36Z</time></trkpt><trkpt lat="40.783007917185635" lon="9.173141949634402"><ele>232.75</ele><time>2026-03-27T14:45:37Z</time></trkpt><trkpt lat="40.78298308989944" lon="9.173322469620372"><ele>232.0</ele><time>2026-03-27T14:45:38Z</time></trkpt><trkpt lat="40.78295647414166" lon="9.173504743922823"><ele>230.75</ele><time>2026-03-27T14:45:39Z</time></trkpt><trkpt lat="40.78293878650531" lon="9.173686308057365"><ele>229.5</ele><time>2026-03-27T14:45:40Z</time></trkpt><trkpt lat="40.782931172370674" lon="9.17387000573139"><ele>228.25</ele><time>2026-03-27T14:45:41Z</time></trkpt><trkpt lat="40.78293859070856" lon="9.174067703558276"><ele>227.0</ele><time>2026-03-27T14:45:42Z</time></trkpt><trkpt lat="40.782962818992495" lon="9.174272523280141"><ele>225.66666666666669</ele><time>2026-03-27T14:45:43Z</time></trkpt><trkpt lat="40.783014993117206" lon="9.174480602591878"><ele>224.33333333333331</ele><time>2026-03-27T14:45:44Z</time></trkpt><trkpt lat="40.783084065921784" lon="9.174677587885869"><ele>223.0</ele><time>2026-03-27T14:45:45Z</time></trkpt><trkpt lat="40.7831625946932" lon="9.174873978621106"><ele>221.66666666666666</ele><time>2026-03-27T14:45:46Z</time></trkpt><trkpt lat="40.78324460909651" lon="9.175071299829188"><ele>220.33333333333331</ele><time>2026-03-27T14:45:47Z</time></trkpt><trkpt lat="40.7833246717437" lon="9.175267056998432"><ele>219.0</ele><time>2026-03-27T14:45:48Z</time></trkpt><trkpt lat="40.78340426693453" lon="9.175464704969572"><ele>219.0</ele><time>2026-03-27T14:45:49Z</time></trkpt><trkpt lat="40.78348342809597" lon="9.175676299822046"><ele>219.0</ele><time>2026-03-27T14:45:50Z</time></trkpt><trkpt lat="40.78355884747788" lon="9.17588661241181"><ele>219.0</ele><time>2026-03-27T14:45:51Z</time></trkpt><trkpt lat="40.783630200219974" lon="9.176101583550194"><ele>219.0</ele><time>2026-03-27T14:45:52Z</time></trkpt><trkpt lat="40.78369809967387" lon="9.176325906156247"><ele>219.0</ele><time>2026-03-27T14:45:53Z</time></trkpt><trkpt lat="40.783762351987214" lon="9.176563028328022"><ele>219.0</ele><time>2026-03-27T14:45:54Z</time></trkpt><trkpt lat="40.78382281072763" lon="9.176804916124775"><ele>218.0</ele><time>2026-03-27T14:45:55Z</time></trkpt><trkpt lat="40.78387788312465" lon="9.177050232764627"><ele>217.0</ele><time>2026-03-27T14:45:56Z</time></trkpt><trkpt lat="40.783929687316586" lon="9.177297734765485"><ele>216.0</ele><time>2026-03-27T14:45:57Z</time></trkpt><trkpt lat="40.78397880284421" lon="9.177546554004913"><ele>215.0</ele><time>2026-03-27T14:45:58Z</time></trkpt><trkpt lat="40.7840326989085" lon="9.177790365929223"><ele>214.0</ele><time>2026-03-27T14:45:59Z</time></trkpt><trkpt lat="40.78410452459803" lon="9.178031238197777"><ele>213.0</ele><time>2026-03-27T14:46:00Z</time></trkpt><trkpt lat="40.784187597736384" lon="9.178264517398471"><ele>212.33333333333331</ele><time>2026-03-27T14:46:01Z</time></trkpt><trkpt lat="40.784282898241614" lon="9.178481998951831"><ele>211.66666666666666</ele><time>2026-03-27T14:46:02Z</time></trkpt><trkpt lat="40.784375851159666" lon="9.178698184950331"><ele>211.0</ele><time>2026-03-27T14:46:03Z</time></trkpt><trkpt lat="40.78446845140446" lon="9.178910060426455"><ele>212.66666666666666</ele><time>2026-03-27T14:46:04Z</time></trkpt><trkpt lat="40.7845605242709" lon="9.179116959039172"><ele>214.33333333333331</ele><time>2026-03-27T14:46:05Z</time></trkpt><trkpt lat="40.78464173445531" lon="9.179330048906118"><ele>216.0</ele><time>2026-03-27T14:46:06Z</time></trkpt><trkpt lat="40.78469668468976" lon="9.179559816449073"><ele>216.0</ele><time>2026-03-27T14:46:07Z</time></trkpt><trkpt lat="40.7847407161807" lon="9.179798106986535"><ele>216.0</ele><time>2026-03-27T14:46:08Z</time></trkpt><trkpt lat="40.784768462247875" lon="9.180042796517395"><ele>216.0</ele><time>2026-03-27T14:46:09Z</time></trkpt><trkpt lat="40.78479033799805" lon="9.180292063468011"><ele>216.33333333333331</ele><time>2026-03-27T14:46:10Z</time></trkpt><trkpt lat="40.78481205867474" lon="9.180548325737751"><ele>216.66666666666666</ele><time>2026-03-27T14:46:11Z</time></trkpt><trkpt lat="40.784831845727" lon="9.180808983232625"><ele>217.0</ele><time>2026-03-27T14:46:12Z</time></trkpt><trkpt lat="40.78485193074314" lon="9.181071131492821"><ele>217.0</ele><time>2026-03-27T14:46:13Z</time></trkpt><trkpt lat="40.78487226574491" lon="9.181333958778897"><ele>217.0</ele><time>2026-03-27T14:46:14Z</time></trkpt><trkpt lat="40.7848948349028" lon="9.181600224130449"><ele>217.0</ele><time>2026-03-27T14:46:15Z</time></trkpt><trkpt lat="40.78491638046096" lon="9.181855304107128"><ele>216.66666666666666</ele><time>2026-03-27T14:46:16Z</time></trkpt><trkpt lat="40.78492712900606" lon="9.182096055762766"><ele>216.33333333333331</ele><time>2026-03-27T14:46:16.999Z</time></trkpt><trkpt lat="40.7849091243058" lon="9.182336058584024"><ele>216.0</ele><time>2026-03-27T14:46:17.999Z</time></trkpt><trkpt lat="40.78486242794249" lon="9.182566058621074"><ele>215.0</ele><time>2026-03-27T14:46:18.999Z</time></trkpt><trkpt lat="40.78478486995739" lon="9.182785755911235"><ele>214.0</ele><time>2026-03-27T14:46:19.999Z</time></trkpt><trkpt lat="40.78468236832807" lon="9.182977060271428"><ele>213.0</ele><time>2026-03-27T14:46:20.999Z</time></trkpt><trkpt lat="40.78456500715592" lon="9.18313118414112"><ele>212.66666666666669</ele><time>2026-03-27T14:46:21.999Z</time></trkpt><trkpt lat="40.78443688159177" lon="9.183254961825652"><ele>212.33333333333334</ele><time>2026-03-27T14:46:22.999Z</time></trkpt><trkpt lat="40.78431567820128" lon="9.18338668039907"><ele>212.0</ele><time>2026-03-27T14:46:23.999Z</time></trkpt><trkpt lat="40.784202316605004" lon="9.183536872004716"><ele>211.33333333333334</ele><time>2026-03-27T14:46:24.999Z</time></trkpt><trkpt lat="40.784102303713624" lon="9.183714018367276"><ele>210.66666666666669</ele><time>2026-03-27T14:46:25.999Z</time></trkpt><trkpt lat="40.78402264112441" lon="9.183912670519385"><ele>210.0</ele><time>2026-03-27T14:46:26.999Z</time></trkpt><trkpt lat="40.78396433448615" lon="9.184121608083236"><ele>209.33333333333331</ele><time>2026-03-27T14:46:27.999Z</time></trkpt><trkpt lat="40.783932768017095" lon="9.184347182907802"><ele>208.66666666666666</ele><time>2026-03-27T14:46:28.999Z</time></trkpt><trkpt lat="40.78391731944224" lon="9.184577278646927"><ele>208.0</ele><time>2026-03-27T14:46:29.999Z</time></trkpt><trkpt lat="40.78390035883654" lon="9.184805195132324"><ele>208.33333333333331</ele><time>2026-03-27T14:46:30.999Z</time></trkpt><trkpt lat="40.7838879481242" lon="9.185035233057196"><ele>208.66666666666669</ele><time>2026-03-27T14:46:31.999Z</time></trkpt><trkpt lat="40.7838753157069" lon="9.18526757553802"><ele>209.0</ele><time>2026-03-27T14:46:32.999Z</time></trkpt><trkpt lat="40.7838613901185" lon="9.1854998370375"><ele>210.0</ele><time>2026-03-27T14:46:33.999Z</time></trkpt><trkpt lat="40.78384431632702" lon="9.185731843813961"><ele>211.0</ele><time>2026-03-27T14:46:34.999Z</time></trkpt><trkpt lat="40.78382078997018" lon="9.185965911871218"><ele>212.0</ele><time>2026-03-27T14:46:35.999Z</time></trkpt><trkpt lat="40.783787850642476" lon="9.186202369702388"><ele>212.0</ele><time>2026-03-27T14:46:36.999Z</time></trkpt><trkpt lat="40.783746436196886" lon="9.18644149820864"><ele>212.0</ele><time>2026-03-27T14:46:37.999Z</time></trkpt><trkpt lat="40.783700656286165" lon="9.186681358674058"><ele>212.0</ele><time>2026-03-27T14:46:38.999Z</time></trkpt><trkpt lat="40.78365158359929" lon="9.186922612410918"><ele>212.0</ele><time>2026-03-27T14:46:39.999Z</time></trkpt><trkpt lat="40.78360353434058" lon="9.18715655060597"><ele>212.0</ele><time>2026-03-27T14:46:40.999Z</time></trkpt><trkpt lat="40.7835583200401" lon="9.187389899954375"><ele>212.0</ele><time>2026-03-27T14:46:41.999Z</time></trkpt><trkpt lat="40.78352207344743" lon="9.187620021187234"><ele>212.33333333333334</ele><time>2026-03-27T14:46:42.999Z</time></trkpt><trkpt lat="40.78350378414618" lon="9.18785575820217"><ele>212.66666666666669</ele><time>2026-03-27T14:46:43.999Z</time></trkpt><trkpt lat="40.78351156684077" lon="9.188091709227754"><ele>213.0</ele><time>2026-03-27T14:46:44.999Z</time></trkpt><trkpt lat="40.78354488126225" lon="9.188326848906364"><ele>213.0</ele><time>2026-03-27T14:46:45.999Z</time></trkpt><trkpt lat="40.78359913398408" lon="9.188556209186865"><ele>213.0</ele><time>2026-03-27T14:46:46.999Z</time></trkpt><trkpt lat="40.78366169846813" lon="9.188777641593502"><ele>213.0</ele><time>2026-03-27T14:46:47.999Z</time></trkpt><trkpt lat="40.78372801564333" lon="9.189005829009732"><ele>214.0</ele><time>2026-03-27T14:46:48.999Z</time></trkpt><trkpt lat="40.78380199395937" lon="9.189230586286186"><ele>215.0</ele><time>2026-03-27T14:46:49.999Z</time></trkpt><trkpt lat="40.78387532175434" lon="9.189449928508367"><ele>216.0</ele><time>2026-03-27T14:46:50.999Z</time></trkpt><trkpt lat="40.783949483397535" lon="9.189671683115504"><ele>217.0</ele><time>2026-03-27T14:46:51.999Z</time></trkpt><trkpt lat="40.78402138324116" lon="9.189892008245595"><ele>218.0</ele><time>2026-03-27T14:46:52.999Z</time></trkpt><trkpt lat="40.7840929820161" lon="9.190114093477675"><ele>219.0</ele><time>2026-03-27T14:46:53.999Z</time></trkpt><trkpt lat="40.78416538728436" lon="9.190340344385325"><ele>219.0</ele><time>2026-03-27T14:46:54.999Z</time></trkpt><trkpt lat="40.78423609984895" lon="9.190561930683657"><ele>219.0</ele><time>2026-03-27T14:46:55.999Z</time></trkpt><trkpt lat="40.78430465125067" lon="9.190780805209146"><ele>219.0</ele><time>2026-03-27T14:46:56.999Z</time></trkpt><trkpt lat="40.784371591844796" lon="9.190994536615232"><ele>220.33333333333331</ele><time>2026-03-27T14:46:57.999Z</time></trkpt><trkpt lat="40.784440581816845" lon="9.191206582626029"><ele>221.66666666666666</ele><time>2026-03-27T14:46:58.999Z</time></trkpt><trkpt lat="40.78450990946683" lon="9.191419204402196"><ele>223.0</ele><time>2026-03-27T14:46:59.999Z</time></trkpt><trkpt lat="40.784579483659265" lon="9.191635597141449"><ele>223.66666666666666</ele><time>2026-03-27T14:47:00.999Z</time></trkpt><trkpt lat="40.78465304161302" lon="9.191856733146562"><ele>224.33333333333331</ele><time>2026-03-27T14:47:01.999Z</time></trkpt><trkpt lat="40.78473670187234" lon="9.192078771371554"><ele>225.0</ele><time>2026-03-27T14:47:02.999Z</time></trkpt><trkpt lat="40.784833371541275" lon="9.192303414952166"><ele>225.66666666666669</ele><time>2026-03-27T14:47:03.999Z</time></trkpt><trkpt lat="40.7849369340533" lon="9.192526247187692"><ele>226.33333333333334</ele><time>2026-03-27T14:47:04.999Z</time></trkpt><trkpt lat="40.785042581531364" lon="9.192747489342793"><ele>227.0</ele><time>2026-03-27T14:47:05.999Z</time></trkpt><trkpt lat="40.785149234379865" lon="9.192968588996969"><ele>226.66666666666669</ele><time>2026-03-27T14:47:06.999Z</time></trkpt><trkpt lat="40.78525903189909" lon="9.193187904082025"><ele>226.33333333333331</ele><time>2026-03-27T14:47:07.999Z</time></trkpt><trkpt lat="40.78536865723003" lon="9.193406874660651"><ele>226.0</ele><time>2026-03-27T14:47:08.999Z</time></trkpt><trkpt lat="40.78547566619751" lon="9.19362446253497"><ele>226.0</ele><time>2026-03-27T14:47:09.998Z</time></trkpt><trkpt lat="40.78557998828999" lon="9.193835595277067"><ele>226.0</ele><time>2026-03-27T14:47:10.998Z</time></trkpt><trkpt lat="40.7856853751765" lon="9.194053060266842"><ele>226.0</ele><time>2026-03-27T14:47:11.998Z</time></trkpt><trkpt lat="40.785791984944865" lon="9.194272870725014"><ele>227.0</ele><time>2026-03-27T14:47:12.998Z</time></trkpt><trkpt lat="40.7859004630856" lon="9.194494273933277"><ele>228.0</ele><time>2026-03-27T14:47:13.998Z</time></trkpt><trkpt lat="40.786009041795566" lon="9.194715882407204"><ele>229.0</ele><time>2026-03-27T14:47:14.998Z</time></trkpt><trkpt lat="40.78611689361955" lon="9.194936215805113"><ele>229.0</ele><time>2026-03-27T14:47:15.998Z</time></trkpt><trkpt lat="40.78622607018481" lon="9.19516114923758"><ele>229.0</ele><time>2026-03-27T14:47:16.998Z</time></trkpt><trkpt lat="40.786334308301605" lon="9.195376857977669"><ele>229.0</ele><time>2026-03-27T14:47:17.998Z</time></trkpt><trkpt lat="40.78645529338786" lon="9.195582866177118"><ele>229.66666666666666</ele><time>2026-03-27T14:47:18.998Z</time></trkpt><trkpt lat="40.786564379100305" lon="9.195800404648763"><ele>230.33333333333331</ele><time>2026-03-27T14:47:19.998Z</time></trkpt><trkpt lat="40.786657555773445" lon="9.196034707084038"><ele>231.0</ele><time>2026-03-27T14:47:20.998Z</time></trkpt><trkpt lat="40.78676672862549" lon="9.196259469214883"><ele>230.66666666666669</ele><time>2026-03-27T14:47:21.998Z</time></trkpt><trkpt lat="40.786875390007594" lon="9.196482076563685"><ele>230.33333333333334</ele><time>2026-03-27T14:47:22.998Z</time></trkpt><trkpt lat="40.78698197477564" lon="9.196706635514513"><ele>230.0</ele><time>2026-03-27T14:47:23.998Z</time></trkpt><trkpt lat="40.787080717583635" lon="9.196938657736677"><ele>230.66666666666669</ele><time>2026-03-27T14:47:24.998Z</time></trkpt><trkpt lat="40.78717495599668" lon="9.197178774418099"><ele>231.33333333333331</ele><time>2026-03-27T14:47:25.998Z</time></trkpt><trkpt lat="40.78725744397018" lon="9.197428428063327"><ele>232.0</ele><time>2026-03-27T14:47:27Z</time></trkpt><trkpt lat="40.78733222006763" lon="9.19768208387469"><ele>232.0</ele><time>2026-03-27T14:47:28Z</time></trkpt><trkpt lat="40.78739609565591" lon="9.197944090555515"><ele>232.0</ele><time>2026-03-27T14:47:29Z</time></trkpt><trkpt lat="40.7874481765917" lon="9.198212764025962"><ele>232.0</ele><time>2026-03-27T14:47:30Z</time></trkpt><trkpt lat="40.78748355589238" lon="9.198489148873005"><ele>232.0</ele><time>2026-03-27T14:47:31Z</time></trkpt><trkpt lat="40.787510584233075" lon="9.198772509556244"><ele>232.0</ele><time>2026-03-27T14:47:32Z</time></trkpt><trkpt lat="40.78752927813108" lon="9.199054978979042"><ele>232.0</ele><time>2026-03-27T14:47:33Z</time></trkpt><trkpt lat="40.78754580294656" lon="9.199341026713366"><ele>232.0</ele><time>2026-03-27T14:47:34Z</time></trkpt><trkpt lat="40.7875628648342" lon="9.199625792579221"><ele>232.0</ele><time>2026-03-27T14:47:35Z</time></trkpt><trkpt lat="40.78757999640154" lon="9.199898771158587"><ele>232.0</ele><time>2026-03-27T14:47:36Z</time></trkpt><trkpt lat="40.78759955197418" lon="9.200166963260205"><ele>231.66666666666666</ele><time>2026-03-27T14:47:37Z</time></trkpt><trkpt lat="40.78762581696699" lon="9.200439373513515"><ele>231.33333333333331</ele><time>2026-03-27T14:47:38Z</time></trkpt><trkpt lat="40.78766854252311" lon="9.200714132656486"><ele>231.0</ele><time>2026-03-27T14:47:39Z</time></trkpt><trkpt lat="40.787730522406925" lon="9.200978184396497"><ele>230.66666666666669</ele><time>2026-03-27T14:47:40Z</time></trkpt><trkpt lat="40.787803096261875" lon="9.201226165157514"><ele>230.33333333333334</ele><time>2026-03-27T14:47:41Z</time></trkpt><trkpt lat="40.787886096402566" lon="9.201464811467384"><ele>230.0</ele><time>2026-03-27T14:47:42Z</time></trkpt><trkpt lat="40.78796901541128" lon="9.201691269112779"><ele>230.0</ele><time>2026-03-27T14:47:43Z</time></trkpt><trkpt lat="40.78805237442987" lon="9.201916447371469"><ele>230.0</ele><time>2026-03-27T14:47:44Z</time></trkpt><trkpt lat="40.78813058896168" lon="9.2021454175669"><ele>230.0</ele><time>2026-03-27T14:47:45Z</time></trkpt><trkpt lat="40.788181209587556" lon="9.20237651312181"><ele>230.0</ele><time>2026-03-27T14:47:46Z</time></trkpt><trkpt lat="40.78820724319841" lon="9.202615185053796"><ele>230.0</ele><time>2026-03-27T14:47:47Z</time></trkpt><trkpt lat="40.7882091694584" lon="9.202857524840386"><ele>230.0</ele><time>2026-03-27T14:47:48Z</time></trkpt><trkpt lat="40.788202159492876" lon="9.20312092708595"><ele>232.33333333333334</ele><time>2026-03-27T14:47:49Z</time></trkpt><trkpt lat="40.788191759959055" lon="9.20340605398962"><ele>234.66666666666669</ele><time>2026-03-27T14:47:50Z</time></trkpt><trkpt lat="40.788180246174655" lon="9.203698269132854"><ele>237.0</ele><time>2026-03-27T14:47:51Z</time></trkpt><trkpt lat="40.78816703959539" lon="9.20400533136439"><ele>241.0</ele><time>2026-03-27T14:47:52Z</time></trkpt><trkpt lat="40.78815769884787" lon="9.2043156990281"><ele>245.0</ele><time>2026-03-27T14:47:53Z</time></trkpt><trkpt lat="40.78814662954513" lon="9.204630836470905"><ele>246.0</ele><time>2026-03-27T14:47:54Z</time></trkpt><trkpt lat="40.78813484458142" lon="9.204946058724916"><ele>247.0</ele><time>2026-03-27T14:47:55Z</time></trkpt><trkpt lat="40.78812272066459" lon="9.205270347207717"><ele>247.0</ele><time>2026-03-27T14:47:56Z</time></trkpt><trkpt lat="40.788109681129" lon="9.20560457397668"><ele>247.0</ele><time>2026-03-27T14:47:57Z</time></trkpt><trkpt lat="40.788100936975376" lon="9.205936663482886"><ele>249.5</ele><time>2026-03-27T14:47:58Z</time></trkpt><trkpt lat="40.78808646653051" lon="9.206261575970954"><ele>252.0</ele><time>2026-03-27T14:47:59Z</time></trkpt><trkpt lat="40.78807781293687" lon="9.2065849503093"><ele>252.0</ele><time>2026-03-27T14:48:00Z</time></trkpt><trkpt lat="40.788071547426654" lon="9.206904333513883"><ele>252.0</ele><time>2026-03-27T14:48:01Z</time></trkpt><trkpt lat="40.7880653659494" lon="9.207219433194373"><ele>254.0</ele><time>2026-03-27T14:48:02Z</time></trkpt><trkpt lat="40.78806924158434" lon="9.207534515204756"><ele>256.0</ele><time>2026-03-27T14:48:03Z</time></trkpt><trkpt lat="40.78805827843698" lon="9.207849216183124"><ele>258.0</ele><time>2026-03-27T14:48:04Z</time></trkpt><trkpt lat="40.78804596918199" lon="9.208164252215946"><ele>260.0</ele><time>2026-03-27T14:48:05Z</time></trkpt><trkpt lat="40.788037704837414" lon="9.20847713247567"><ele>260.0</ele><time>2026-03-27T14:48:06Z</time></trkpt><trkpt lat="40.78803308264177" lon="9.208790380822416"><ele>260.0</ele><time>2026-03-27T14:48:07Z</time></trkpt><trkpt lat="40.78803773528145" lon="9.209105586984146"><ele>259.5</ele><time>2026-03-27T14:48:08Z</time></trkpt><trkpt lat="40.78805951660351" lon="9.209418329634069"><ele>259.0</ele><time>2026-03-27T14:48:09Z</time></trkpt><trkpt lat="40.788088692766955" lon="9.209720852414796"><ele>258.66666666666663</ele><time>2026-03-27T14:48:10Z</time></trkpt><trkpt lat="40.78811883303931" lon="9.210011488074475"><ele>258.3333333333333</ele><time>2026-03-27T14:48:11Z</time></trkpt><trkpt lat="40.78815023594687" lon="9.210292722209967"><ele>258.0</ele><time>2026-03-27T14:48:12Z</time></trkpt><trkpt lat="40.78818710042049" lon="9.210575252206134"><ele>257.0</ele><time>2026-03-27T14:48:13Z</time></trkpt><trkpt lat="40.78822849689141" lon="9.210862687648348"><ele>256.0</ele><time>2026-03-27T14:48:14Z</time></trkpt><trkpt lat="40.788265687925204" lon="9.211154843914782"><ele>255.0</ele><time>2026-03-27T14:48:15Z</time></trkpt><trkpt lat="40.788308116727144" lon="9.211444389615613"><ele>253.5</ele><time>2026-03-27T14:48:16Z</time></trkpt><trkpt lat="40.78836776984165" lon="9.211731809431157"><ele>252.0</ele><time>2026-03-27T14:48:17Z</time></trkpt><trkpt lat="40.78843529418499" lon="9.212018885638772"><ele>252.0</ele><time>2026-03-27T14:48:18Z</time></trkpt><trkpt lat="40.78850268556471" lon="9.21230718880246"><ele>252.0</ele><time>2026-03-27T14:48:18.999Z</time></trkpt><trkpt lat="40.78856801181825" lon="9.21259763448955"><ele>254.0</ele><time>2026-03-27T14:48:19.999Z</time></trkpt><trkpt lat="40.78863079514219" lon="9.212885112143239"><ele>256.0</ele><time>2026-03-27T14:48:20.999Z</time></trkpt><trkpt lat="40.788693128552666" lon="9.213169484874856"><ele>256.66666666666663</ele><time>2026-03-27T14:48:21.999Z</time></trkpt><trkpt lat="40.7887554681669" lon="9.213448494075516"><ele>257.3333333333333</ele><time>2026-03-27T14:48:22.999Z</time></trkpt><trkpt lat="40.78881796617382" lon="9.213716746330768"><ele>258.0</ele><time>2026-03-27T14:48:23.999Z</time></trkpt><trkpt lat="40.788882015798436" lon="9.213982053817455"><ele>258.0</ele><time>2026-03-27T14:48:24.999Z</time></trkpt><trkpt lat="40.7889468640799" lon="9.214242094414097"><ele>258.0</ele><time>2026-03-27T14:48:25.999Z</time></trkpt><trkpt lat="40.78902221927432" lon="9.214500546821107"><ele>258.0</ele><time>2026-03-27T14:48:26.999Z</time></trkpt><trkpt lat="40.78911041698583" lon="9.214758607348076"><ele>258.0</ele><time>2026-03-27T14:48:27.999Z</time></trkpt><trkpt lat="40.789210245579326" lon="9.215015874696807"><ele>258.0</ele><time>2026-03-27T14:48:28.999Z</time></trkpt><trkpt lat="40.78930592475037" lon="9.215277049214237"><ele>258.0</ele><time>2026-03-27T14:48:29.999Z</time></trkpt><trkpt lat="40.789397330571745" lon="9.215537236688991"><ele>261.0</ele><time>2026-03-27T14:48:30.999Z</time></trkpt><trkpt lat="40.78948669897771" lon="9.215797901941858"><ele>264.0</ele><time>2026-03-27T14:48:31.999Z</time></trkpt><trkpt lat="40.789571771115725" lon="9.216056721491594"><ele>267.0</ele><time>2026-03-27T14:48:32.999Z</time></trkpt><trkpt lat="40.78965655484761" lon="9.216314972714953"><ele>265.6666666666667</ele><time>2026-03-27T14:48:33.999Z</time></trkpt><trkpt lat="40.78974193495789" lon="9.216572373218645"><ele>264.33333333333337</ele><time>2026-03-27T14:48:34.999Z</time></trkpt><trkpt lat="40.78982530414826" lon="9.21683062251937"><ele>263.0</ele><time>2026-03-27T14:48:35.999Z</time></trkpt><trkpt lat="40.789903919662684" lon="9.217091229438942"><ele>262.6666666666667</ele><time>2026-03-27T14:48:36.999Z</time></trkpt><trkpt lat="40.789975945992666" lon="9.217357634393728"><ele>262.3333333333333</ele><time>2026-03-27T14:48:37.999Z</time></trkpt><trkpt lat="40.79004239386748" lon="9.217628003489292"><ele>262.0</ele><time>2026-03-27T14:48:38.999Z</time></trkpt><trkpt lat="40.79010243425046" lon="9.217905408277772"><ele>263.66666666666663</ele><time>2026-03-27T14:48:39.999Z</time></trkpt><trkpt lat="40.79015848918071" lon="9.21818690053895"><ele>265.3333333333333</ele><time>2026-03-27T14:48:40.999Z</time></trkpt><trkpt lat="40.79021615628888" lon="9.218475627882816"><ele>267.0</ele><time>2026-03-27T14:48:41.999Z</time></trkpt><trkpt lat="40.79027548376808" lon="9.21876810673262"><ele>270.5</ele><time>2026-03-27T14:48:42.999Z</time></trkpt><trkpt lat="40.79033809773846" lon="9.219059842428694"><ele>274.0</ele><time>2026-03-27T14:48:43.999Z</time></trkpt><trkpt lat="40.790402902316906" lon="9.219348926970818"><ele>274.0</ele><time>2026-03-27T14:48:44.999Z</time></trkpt><trkpt lat="40.79046643004097" lon="9.219638031843461"><ele>274.0</ele><time>2026-03-27T14:48:45.999Z</time></trkpt><trkpt lat="40.79052786894789" lon="9.219924966516167"><ele>274.0</ele><time>2026-03-27T14:48:46.999Z</time></trkpt><trkpt lat="40.79058706028711" lon="9.220214024528472"><ele>274.0</ele><time>2026-03-27T14:48:47.999Z</time></trkpt><trkpt lat="40.790640690225885" lon="9.220482627230222"><ele>274.0</ele><time>2026-03-27T14:48:48.999Z</time></trkpt><trkpt lat="40.79069198989575" lon="9.220736237353105"><ele>275.3333333333333</ele><time>2026-03-27T14:48:49.999Z</time></trkpt><trkpt lat="40.79074068877575" lon="9.220977881783305"><ele>276.6666666666667</ele><time>2026-03-27T14:48:50.999Z</time></trkpt><trkpt lat="40.790787930706216" lon="9.22119485175834"><ele>278.0</ele><time>2026-03-27T14:48:51.999Z</time></trkpt><trkpt lat="40.79083034610795" lon="9.221399267678127"><ele>278.5</ele><time>2026-03-27T14:48:52.999Z</time></trkpt><trkpt lat="40.79087053169074" lon="9.22159093062428"><ele>279.0</ele><time>2026-03-27T14:48:53.999Z</time></trkpt><trkpt lat="40.79091267310034" lon="9.221769917250368"><ele>279.5</ele><time>2026-03-27T14:48:54.999Z</time></trkpt><trkpt lat="40.79095311010749" lon="9.221935565833261"><ele>280.0</ele><time>2026-03-27T14:48:55.999Z</time></trkpt><trkpt lat="40.790990303640065" lon="9.222080537230047"><ele>282.66666666666663</ele><time>2026-03-27T14:48:56.999Z</time></trkpt><trkpt lat="40.79101881700448" lon="9.222191613873882"><ele>285.3333333333333</ele><time>2026-03-27T14:48:57.999Z</time></trkpt><trkpt lat="40.79104139127163" lon="9.222279363451559"><ele>288.0</ele><time>2026-03-27T14:48:58.999Z</time></trkpt><trkpt lat="40.79107767870128" lon="9.222414264241511"><ele>290.6666666666667</ele><time>2026-03-27T14:49:00.999Z</time></trkpt><trkpt lat="40.79110733909547" lon="9.222521595345775"><ele>293.33333333333337</ele><time>2026-03-27T14:49:02.999Z</time></trkpt><trkpt lat="40.79112567314755" lon="9.222603075698107"><ele>296.0</ele><time>2026-03-27T14:49:04.999Z</time></trkpt><trkpt lat="40.79114461225758" lon="9.222700180727978"><ele>295.5</ele><time>2026-03-27T14:49:06.999Z</time></trkpt><trkpt lat="40.791120999886324" lon="9.222853353045435"><ele>295.0</ele><time>2026-03-27T14:49:08.999Z</time></trkpt><trkpt lat="40.791139286453436" lon="9.222938517993493"><ele>294.5</ele><time>2026-03-27T14:49:09.999Z</time></trkpt><trkpt lat="40.79115959850379" lon="9.22303307121974"><ele>294.0</ele><time>2026-03-27T14:49:10.999Z</time></trkpt><trkpt lat="40.79118223294007" lon="9.223136610793759"><ele>293.5</ele><time>2026-03-27T14:49:11.998Z</time></trkpt><trkpt lat="40.79120684443922" lon="9.223241644729828"><ele>293.0</ele><time>2026-03-27T14:49:12.998Z</time></trkpt><trkpt lat="40.7912358478438" lon="9.223358802144537"><ele>293.0</ele><time>2026-03-27T14:49:13.998Z</time></trkpt><trkpt lat="40.79127010609334" lon="9.22348467826245"><ele>293.0</ele><time>2026-03-27T14:49:14.998Z</time></trkpt><trkpt lat="40.791323365125606" lon="9.223612633002524"><ele>293.0</ele><time>2026-03-27T14:49:15.998Z</time></trkpt><trkpt lat="40.79136881455075" lon="9.223750979763622"><ele>293.0</ele><time>2026-03-27T14:49:16.998Z</time></trkpt><trkpt lat="40.791412477810454" lon="9.223911211319123"><ele>292.33333333333337</ele><time>2026-03-27T14:49:17.998Z</time></trkpt><trkpt lat="40.79149378017123" lon="9.224072508429858"><ele>291.6666666666667</ele><time>2026-03-27T14:49:18.998Z</time></trkpt><trkpt lat="40.79157297005896" lon="9.224263934506611"><ele>291.0</ele><time>2026-03-27T14:49:19.998Z</time></trkpt><trkpt lat="40.79166529190562" lon="9.224472237505289"><ele>291.0</ele><time>2026-03-27T14:49:20.998Z</time></trkpt><trkpt lat="40.791771110933574" lon="9.224697904627165"><ele>291.0</ele><time>2026-03-27T14:49:21.998Z</time></trkpt><trkpt lat="40.79187408110932" lon="9.224920567628645"><ele>291.0</ele><time>2026-03-27T14:49:22.998Z</time></trkpt><trkpt lat="40.791981040714916" lon="9.225152945541996"><ele>295.3333333333333</ele><time>2026-03-27T14:49:23.998Z</time></trkpt><trkpt lat="40.79209091051533" lon="9.225391955088352"><ele>299.66666666666663</ele><time>2026-03-27T14:49:24.998Z</time></trkpt><trkpt lat="40.792201103869644" lon="9.22562474090852"><ele>304.0</ele><time>2026-03-27T14:49:25.998Z</time></trkpt><trkpt lat="40.792312777287826" lon="9.22586309200913"><ele>304.0</ele><time>2026-03-27T14:49:26.998Z</time></trkpt><trkpt lat="40.79242669657498" lon="9.226098562797278"><ele>304.0</ele><time>2026-03-27T14:49:27.998Z</time></trkpt><trkpt lat="40.792540267358994" lon="9.226335964292826"><ele>304.0</ele><time>2026-03-27T14:49:28.998Z</time></trkpt><trkpt lat="40.79265412935281" lon="9.226574987073265"><ele>307.0</ele><time>2026-03-27T14:49:29.998Z</time></trkpt><trkpt lat="40.79276435927045" lon="9.226823586517067"><ele>310.0</ele><time>2026-03-27T14:49:30.998Z</time></trkpt><trkpt lat="40.79286650191998" lon="9.227072455954469"><ele>313.0</ele><time>2026-03-27T14:49:31.998Z</time></trkpt><trkpt lat="40.79296543493456" lon="9.227321960301039"><ele>313.0</ele><time>2026-03-27T14:49:33Z</time></trkpt><trkpt lat="40.79306286124482" lon="9.227580311356434"><ele>313.0</ele><time>2026-03-27T14:49:34Z</time></trkpt><trkpt lat="40.79315721030303" lon="9.227834199694144"><ele>313.0</ele><time>2026-03-27T14:49:35Z</time></trkpt><trkpt lat="40.79324773182379" lon="9.228088785344191"><ele>312.3333333333333</ele><time>2026-03-27T14:49:36Z</time></trkpt><trkpt lat="40.79333708173972" lon="9.22834433159724"><ele>311.6666666666667</ele><time>2026-03-27T14:49:37Z</time></trkpt><trkpt lat="40.79342505538768" lon="9.228599390776171"><ele>311.0</ele><time>2026-03-27T14:49:38Z</time></trkpt><trkpt lat="40.7935117770068" lon="9.228856812866837"><ele>313.6666666666667</ele><time>2026-03-27T14:49:39Z</time></trkpt><trkpt lat="40.79359884933284" lon="9.22911394911827"><ele>316.3333333333333</ele><time>2026-03-27T14:49:40Z</time></trkpt><trkpt lat="40.79368483385183" lon="9.229372589887447"><ele>319.0</ele><time>2026-03-27T14:49:41Z</time></trkpt><trkpt lat="40.79376333219008" lon="9.229636752511157"><ele>316.66666666666663</ele><time>2026-03-27T14:49:42Z</time></trkpt><trkpt lat="40.79383023773027" lon="9.22990738783284"><ele>314.3333333333333</ele><time>2026-03-27T14:49:43Z</time></trkpt><trkpt lat="40.79390433675277" lon="9.230184407175901"><ele>312.0</ele><time>2026-03-27T14:49:44Z</time></trkpt><trkpt lat="40.793983322430314" lon="9.230446141285563"><ele>310.3333333333333</ele><time>2026-03-27T14:49:45Z</time></trkpt><trkpt lat="40.79406458815033" lon="9.230711270788614"><ele>308.66666666666663</ele><time>2026-03-27T14:49:46Z</time></trkpt><trkpt lat="40.79413357411081" lon="9.2309673848612"><ele>307.0</ele><time>2026-03-27T14:49:47Z</time></trkpt><trkpt lat="40.794196460427536" lon="9.231216377959704"><ele>307.0</ele><time>2026-03-27T14:49:48Z</time></trkpt><trkpt lat="40.794261022747634" lon="9.231468214597871"><ele>307.0</ele><time>2026-03-27T14:49:49Z</time></trkpt><trkpt lat="40.79433349018411" lon="9.231728114659468"><ele>307.0</ele><time>2026-03-27T14:49:50Z</time></trkpt><trkpt lat="40.794405694338835" lon="9.231988798568388"><ele>305.0</ele><time>2026-03-27T14:49:51Z</time></trkpt><trkpt lat="40.79449119220785" lon="9.23222257573603"><ele>303.0</ele><time>2026-03-27T14:49:52Z</time></trkpt><trkpt lat="40.794598741684446" lon="9.23243810861479"><ele>301.0</ele><time>2026-03-27T14:49:53Z</time></trkpt><trkpt lat="40.79474044563966" lon="9.232635930437477"><ele>299.66666666666663</ele><time>2026-03-27T14:49:54Z</time></trkpt><trkpt lat="40.794900431310964" lon="9.23282925431729"><ele>298.3333333333333</ele><time>2026-03-27T14:49:55Z</time></trkpt><trkpt lat="40.79506477604212" lon="9.23302678664832"><ele>297.0</ele><time>2026-03-27T14:49:56Z</time></trkpt><trkpt lat="40.7952309912208" lon="9.23322455060279"><ele>292.0</ele><time>2026-03-27T14:49:57Z</time></trkpt><trkpt lat="40.795399477343416" lon="9.233420194497747"><ele>287.0</ele><time>2026-03-27T14:49:58Z</time></trkpt><trkpt lat="40.79556336791484" lon="9.233623573793409"><ele>282.0</ele><time>2026-03-27T14:49:59Z</time></trkpt><trkpt lat="40.79572147611137" lon="9.233820270168138"><ele>281.0</ele><time>2026-03-27T14:50:00Z</time></trkpt><trkpt lat="40.795877863575114" lon="9.234005359401895"><ele>280.0</ele><time>2026-03-27T14:50:01Z</time></trkpt><trkpt lat="40.796039629708815" lon="9.234190152788479"><ele>279.0</ele><time>2026-03-27T14:50:02Z</time></trkpt><trkpt lat="40.796208610136276" lon="9.234362753427325"><ele>279.0</ele><time>2026-03-27T14:50:03Z</time></trkpt><trkpt lat="40.79639340853066" lon="9.23450422123488"><ele>279.0</ele><time>2026-03-27T14:50:04Z</time></trkpt><trkpt lat="40.7965905885243" lon="9.234617155431822"><ele>279.0</ele><time>2026-03-27T14:50:05Z</time></trkpt><trkpt lat="40.79679770422519" lon="9.234712252959804"><ele>281.0</ele><time>2026-03-27T14:50:06Z</time></trkpt><trkpt lat="40.797008300037064" lon="9.234787241324671"><ele>283.0</ele><time>2026-03-27T14:50:07Z</time></trkpt><trkpt lat="40.79721940751819" lon="9.23484899541751"><ele>285.0</ele><time>2026-03-27T14:50:08Z</time></trkpt><trkpt lat="40.79742882870674" lon="9.234918399712168"><ele>285.3333333333333</ele><time>2026-03-27T14:50:09Z</time></trkpt><trkpt lat="40.79763062089908" lon="9.234990656651933"><ele>285.66666666666663</ele><time>2026-03-27T14:50:10Z</time></trkpt><trkpt lat="40.79782825893109" lon="9.235062437697767"><ele>286.0</ele><time>2026-03-27T14:50:11Z</time></trkpt><trkpt lat="40.79802894060788" lon="9.235135799743576"><ele>287.0</ele><time>2026-03-27T14:50:12Z</time></trkpt><trkpt lat="40.79822477680892" lon="9.235218519697298"><ele>288.0</ele><time>2026-03-27T14:50:13Z</time></trkpt><trkpt lat="40.79841889327425" lon="9.235316739898414"><ele>289.0</ele><time>2026-03-27T14:50:14Z</time></trkpt><trkpt lat="40.79860060738348" lon="9.235431273892425"><ele>289.3333333333333</ele><time>2026-03-27T14:50:15Z</time></trkpt><trkpt lat="40.79877630032492" lon="9.235575782358405"><ele>289.6666666666667</ele><time>2026-03-27T14:50:16Z</time></trkpt><trkpt lat="40.79894123603208" lon="9.235745037939166"><ele>290.0</ele><time>2026-03-27T14:50:17Z</time></trkpt><trkpt lat="40.79909413708625" lon="9.235938564556996"><ele>290.0</ele><time>2026-03-27T14:50:18Z</time></trkpt><trkpt lat="40.799243166581576" lon="9.23614056359023"><ele>290.0</ele><time>2026-03-27T14:50:19Z</time></trkpt><trkpt lat="40.79938946971354" lon="9.236345319732912"><ele>290.0</ele><time>2026-03-27T14:50:20Z</time></trkpt><trkpt lat="40.7995346273609" lon="9.236548765783265"><ele>291.0</ele><time>2026-03-27T14:50:20.999Z</time></trkpt><trkpt lat="40.79968504745269" lon="9.236747546157282"><ele>292.0</ele><time>2026-03-27T14:50:21.999Z</time></trkpt><trkpt lat="40.79984285744703" lon="9.236936059577067"><ele>293.0</ele><time>2026-03-27T14:50:22.999Z</time></trkpt><trkpt lat="40.800010609617004" lon="9.23710989900839"><ele>293.6666666666667</ele><time>2026-03-27T14:50:23.999Z</time></trkpt><trkpt lat="40.80018242242564" lon="9.237276137978068"><ele>294.3333333333333</ele><time>2026-03-27T14:50:24.999Z</time></trkpt><trkpt lat="40.80035563146027" lon="9.237439660949494"><ele>295.0</ele><time>2026-03-27T14:50:25.999Z</time></trkpt><trkpt lat="40.800523623212996" lon="9.237603142918314"><ele>293.3333333333333</ele><time>2026-03-27T14:50:26.999Z</time></trkpt><trkpt lat="40.800691782435244" lon="9.23776632652442"><ele>291.6666666666667</ele><time>2026-03-27T14:50:27.999Z</time></trkpt><trkpt lat="40.80085827970343" lon="9.237926805166014"><ele>290.0</ele><time>2026-03-27T14:50:28.999Z</time></trkpt><trkpt lat="40.80102729503468" lon="9.238084693520184"><ele>288.0</ele><time>2026-03-27T14:50:29.999Z</time></trkpt><trkpt lat="40.80120092483257" lon="9.238244611040273"><ele>286.0</ele><time>2026-03-27T14:50:30.999Z</time></trkpt><trkpt lat="40.80137651224817" lon="9.2384058572113"><ele>284.0</ele><time>2026-03-27T14:50:31.999Z</time></trkpt><trkpt lat="40.80155413277632" lon="9.238567213860602"><ele>284.0</ele><time>2026-03-27T14:50:32.999Z</time></trkpt><trkpt lat="40.80173269434487" lon="9.238717598693466"><ele>284.0</ele><time>2026-03-27T14:50:33.999Z</time></trkpt><trkpt lat="40.801911646936524" lon="9.238860857997958"><ele>284.0</ele><time>2026-03-27T14:50:34.999Z</time></trkpt><trkpt lat="40.80209650060139" lon="9.238992107425258"><ele>284.33333333333337</ele><time>2026-03-27T14:50:35.999Z</time></trkpt><trkpt lat="40.80228715022095" lon="9.239103156077952"><ele>284.6666666666667</ele><time>2026-03-27T14:50:36.999Z</time></trkpt><trkpt lat="40.802482576844056" lon="9.239200207663199"><ele>285.0</ele><time>2026-03-27T14:50:37.999Z</time></trkpt><trkpt lat="40.80268062932962" lon="9.23928113307162"><ele>286.0</ele><time>2026-03-27T14:50:38.999Z</time></trkpt><trkpt lat="40.802882792669664" lon="9.239346254696883"><ele>287.0</ele><time>2026-03-27T14:50:39.999Z</time></trkpt><trkpt lat="40.80308812175634" lon="9.239388439329701"><ele>288.0</ele><time>2026-03-27T14:50:40.999Z</time></trkpt><trkpt lat="40.8032937979315" lon="9.239404002246522"><ele>290.0</ele><time>2026-03-27T14:50:41.999Z</time></trkpt><trkpt lat="40.80349866878245" lon="9.23939193148773"><ele>292.0</ele><time>2026-03-27T14:50:42.999Z</time></trkpt><trkpt lat="40.80369867258737" lon="9.239346152040511"><ele>294.0</ele><time>2026-03-27T14:50:43.999Z</time></trkpt><trkpt lat="40.80388507636972" lon="9.23926437685153"><ele>294.0</ele><time>2026-03-27T14:50:44.999Z</time></trkpt><trkpt lat="40.804055176324844" lon="9.23913863753317"><ele>294.0</ele><time>2026-03-27T14:50:45.999Z</time></trkpt><trkpt lat="40.80421720609141" lon="9.239008418932487"><ele>294.0</ele><time>2026-03-27T14:50:46.999Z</time></trkpt><trkpt lat="40.80438093499419" lon="9.238902208138727"><ele>301.0</ele><time>2026-03-27T14:50:47.999Z</time></trkpt><trkpt lat="40.80453374972664" lon="9.238796263604376"><ele>308.0</ele><time>2026-03-27T14:50:48.999Z</time></trkpt><trkpt lat="40.80455218490152" lon="9.238348749296243"><ele>307.33333333333337</ele><time>2026-03-27T14:50:49.999Z</time></trkpt><trkpt lat="40.80464406602975" lon="9.238098709799592"><ele>306.6666666666667</ele><time>2026-03-27T14:50:50.999Z</time></trkpt><trkpt lat="40.8047367509839" lon="9.237842910918951"><ele>306.0</ele><time>2026-03-27T14:50:51.999Z</time></trkpt><trkpt lat="40.8048316953052" lon="9.237585970897134"><ele>306.0</ele><time>2026-03-27T14:50:52.999Z</time></trkpt><trkpt lat="40.80492738237651" lon="9.237327359593584"><ele>306.0</ele><time>2026-03-27T14:50:53.999Z</time></trkpt><trkpt lat="40.80502317190876" lon="9.237069717664403"><ele>306.0</ele><time>2026-03-27T14:50:54.999Z</time></trkpt><trkpt lat="40.80511348695022" lon="9.236826616314577"><ele>306.6666666666667</ele><time>2026-03-27T14:50:55.999Z</time></trkpt><trkpt lat="40.80521608667838" lon="9.236607555760049"><ele>307.33333333333337</ele><time>2026-03-27T14:50:56.999Z</time></trkpt><trkpt lat="40.80534823630731" lon="9.236419905830125"><ele>308.0</ele><time>2026-03-27T14:50:57.999Z</time></trkpt><trkpt lat="40.805504040447865" lon="9.236262226012258"><ele>308.0</ele><time>2026-03-27T14:50:58.999Z</time></trkpt><trkpt lat="40.805683059932434" lon="9.236137243511905"><ele>308.0</ele><time>2026-03-27T14:50:59.999Z</time></trkpt><trkpt lat="40.805873035606936" lon="9.236026443600837"><ele>308.0</ele><time>2026-03-27T14:51:00.999Z</time></trkpt><trkpt lat="40.806068130038256" lon="9.235914008666606"><ele>306.33333333333337</ele><time>2026-03-27T14:51:01.999Z</time></trkpt><trkpt lat="40.806264131628105" lon="9.2357972919104"><ele>304.6666666666667</ele><time>2026-03-27T14:51:02.999Z</time></trkpt><trkpt lat="40.80646092914193" lon="9.235675974950276"><ele>303.0</ele><time>2026-03-27T14:51:03.999Z</time></trkpt><trkpt lat="40.806659056367934" lon="9.235559164915523"><ele>305.6666666666667</ele><time>2026-03-27T14:51:04.999Z</time></trkpt><trkpt lat="40.80684948127827" lon="9.235456758182258"><ele>308.33333333333337</ele><time>2026-03-27T14:51:05.999Z</time></trkpt><trkpt lat="40.807049885069475" lon="9.235369258522372"><ele>311.0</ele><time>2026-03-27T14:51:06.999Z</time></trkpt><trkpt lat="40.80725810656529" lon="9.235306428892684"><ele>311.0</ele><time>2026-03-27T14:51:07.999Z</time></trkpt><trkpt lat="40.80747082315171" lon="9.235262385546381"><ele>311.0</ele><time>2026-03-27T14:51:08.999Z</time></trkpt><trkpt lat="40.80768626045814" lon="9.23524434930065"><ele>311.0</ele><time>2026-03-27T14:51:09.999Z</time></trkpt><trkpt lat="40.807902097612896" lon="9.235250577447994"><ele>313.33333333333337</ele><time>2026-03-27T14:51:10.999Z</time></trkpt><trkpt lat="40.808117491832895" lon="9.235274921312087"><ele>315.6666666666667</ele><time>2026-03-27T14:51:11.999Z</time></trkpt><trkpt lat="40.80833019433107" lon="9.235308884621775"><ele>318.0</ele><time>2026-03-27T14:51:12.999Z</time></trkpt><trkpt lat="40.8085396500365" lon="9.23534530171047"><ele>320.0</ele><time>2026-03-27T14:51:13.998Z</time></trkpt><trkpt lat="40.80875168972222" lon="9.235381882144667"><ele>322.0</ele><time>2026-03-27T14:51:14.998Z</time></trkpt><trkpt lat="40.80896497178637" lon="9.235410552398605"><ele>324.0</ele><time>2026-03-27T14:51:15.998Z</time></trkpt><trkpt lat="40.809174326878676" lon="9.235444468752382"><ele>325.0</ele><time>2026-03-27T14:51:16.998Z</time></trkpt><trkpt lat="40.809379691353904" lon="9.235494106007136"><ele>326.0</ele><time>2026-03-27T14:51:17.998Z</time></trkpt><trkpt lat="40.809583409109884" lon="9.235567283567836"><ele>327.0</ele><time>2026-03-27T14:51:18.998Z</time></trkpt><trkpt lat="40.8097838439453" lon="9.235676901021717"><ele>327.0</ele><time>2026-03-27T14:51:19.998Z</time></trkpt><trkpt lat="40.809980839036214" lon="9.235803534715712"><ele>327.0</ele><time>2026-03-27T14:51:20.998Z</time></trkpt><trkpt lat="40.81017158256248" lon="9.235955060066807"><ele>327.0</ele><time>2026-03-27T14:51:21.998Z</time></trkpt><trkpt lat="40.81034951887002" lon="9.236131756443335"><ele>330.6666666666667</ele><time>2026-03-27T14:51:22.998Z</time></trkpt><trkpt lat="40.81050486184722" lon="9.236344409724913"><ele>334.33333333333337</ele><time>2026-03-27T14:51:23.998Z</time></trkpt><trkpt lat="40.810652297041884" lon="9.236565881826927"><ele>338.0</ele><time>2026-03-27T14:51:24.998Z</time></trkpt><trkpt lat="40.81078589180056" lon="9.236805234090784"><ele>338.0</ele><time>2026-03-27T14:51:25.998Z</time></trkpt><trkpt lat="40.81090575015419" lon="9.237053878614793"><ele>338.0</ele><time>2026-03-27T14:51:26.998Z</time></trkpt><trkpt lat="40.81103146528235" lon="9.237294077968764"><ele>338.0</ele><time>2026-03-27T14:51:27.998Z</time></trkpt><trkpt lat="40.811159219319656" lon="9.237530265329493"><ele>341.33333333333337</ele><time>2026-03-27T14:51:28.998Z</time></trkpt><trkpt lat="40.81128604750616" lon="9.23776402778777"><ele>344.6666666666667</ele><time>2026-03-27T14:51:29.998Z</time></trkpt><trkpt lat="40.81141053595023" lon="9.237996154336175"><ele>348.0</ele><time>2026-03-27T14:51:30.998Z</time></trkpt><trkpt lat="40.811539139394704" lon="9.23822977551216"><ele>348.0</ele><time>2026-03-27T14:51:31.998Z</time></trkpt><trkpt lat="40.81166048185451" lon="9.238455236731005"><ele>348.0</ele><time>2026-03-27T14:51:32.998Z</time></trkpt><trkpt lat="40.81178401255904" lon="9.238680195372462"><ele>348.0</ele><time>2026-03-27T14:51:33.998Z</time></trkpt><trkpt lat="40.81191583988602" lon="9.238895906496811"><ele>352.6666666666667</ele><time>2026-03-27T14:51:34.998Z</time></trkpt><trkpt lat="40.812062316435174" lon="9.2390904756218"><ele>357.33333333333337</ele><time>2026-03-27T14:51:35.998Z</time></trkpt><trkpt lat="40.81222509096286" lon="9.239267279667706"><ele>362.0</ele><time>2026-03-27T14:51:36.998Z</time></trkpt><trkpt lat="40.8123978887024" lon="9.239431238062423"><ele>362.0</ele><time>2026-03-27T14:51:37.998Z</time></trkpt><trkpt lat="40.81258575588841" lon="9.239571041433246"><ele>362.0</ele><time>2026-03-27T14:51:39Z</time></trkpt><trkpt lat="40.81278512481609" lon="9.239685524495561"><ele>362.0</ele><time>2026-03-27T14:51:40Z</time></trkpt><trkpt lat="40.81298347956423" lon="9.239780129292111"><ele>359.6666666666667</ele><time>2026-03-27T14:51:41Z</time></trkpt><trkpt lat="40.813189750591064" lon="9.239856116537837"><ele>357.3333333333333</ele><time>2026-03-27T14:51:42Z</time></trkpt><trkpt lat="40.813406154720795" lon="9.239908034319328"><ele>355.0</ele><time>2026-03-27T14:51:43Z</time></trkpt><trkpt lat="40.81362293506328" lon="9.239943063863917"><ele>355.0</ele><time>2026-03-27T14:51:44Z</time></trkpt><trkpt lat="40.81383282906705" lon="9.239967713172513"><ele>355.0</ele><time>2026-03-27T14:51:45Z</time></trkpt><trkpt lat="40.814043710714444" lon="9.239993819500464"><ele>355.0</ele><time>2026-03-27T14:51:46Z</time></trkpt><trkpt lat="40.814256567943424" lon="9.240017343672514"><ele>352.66666666666663</ele><time>2026-03-27T14:51:47Z</time></trkpt><trkpt lat="40.81447088643589" lon="9.240035975513843"><ele>350.3333333333333</ele><time>2026-03-27T14:51:48Z</time></trkpt><trkpt lat="40.81468109059299" lon="9.240056815624376"><ele>348.0</ele><time>2026-03-27T14:51:49Z</time></trkpt><trkpt lat="40.81487476781419" lon="9.240066076361288"><ele>348.0</ele><time>2026-03-27T14:51:50Z</time></trkpt><trkpt lat="40.815048884500754" lon="9.240072858713514"><ele>348.0</ele><time>2026-03-27T14:51:51Z</time></trkpt><trkpt lat="40.81521095312741" lon="9.240091740548184"><ele>348.0</ele><time>2026-03-27T14:51:52Z</time></trkpt><trkpt lat="40.81537640730462" lon="9.240135819047344"><ele>343.3333333333333</ele><time>2026-03-27T14:51:53Z</time></trkpt><trkpt lat="40.81552975731587" lon="9.240259175560736"><ele>338.66666666666663</ele><time>2026-03-27T14:51:54Z</time></trkpt><trkpt lat="40.8156706153623" lon="9.240396693594704"><ele>334.0</ele><time>2026-03-27T14:51:55Z</time></trkpt><trkpt lat="40.81578005637316" lon="9.240580568118373"><ele>333.0</ele><time>2026-03-27T14:51:56Z</time></trkpt><trkpt lat="40.81587189104648" lon="9.240796875311927"><ele>332.0</ele><time>2026-03-27T14:51:57Z</time></trkpt><trkpt lat="40.81596594040749" lon="9.241038863132806"><ele>331.0</ele><time>2026-03-27T14:51:58Z</time></trkpt><trkpt lat="40.81604466341662" lon="9.241238671634312"><ele>335.5</ele><time>2026-03-27T14:51:59Z</time></trkpt><trkpt lat="40.816167441992256" lon="9.241558215626716"><ele>340.0</ele><time>2026-03-27T14:52:00Z</time></trkpt><trkpt lat="40.81626822470373" lon="9.24182904453448"><ele>340.0</ele><time>2026-03-27T14:52:01Z</time></trkpt><trkpt lat="40.81637135271255" lon="9.242096885143294"><ele>340.0</ele><time>2026-03-27T14:52:02Z</time></trkpt><trkpt lat="40.8164712184563" lon="9.24235429582619"><ele>340.0</ele><time>2026-03-27T14:52:03Z</time></trkpt><trkpt lat="40.81656461356686" lon="9.242591945812002"><ele>343.0</ele><time>2026-03-27T14:52:04Z</time></trkpt><trkpt lat="40.816645340716626" lon="9.242841371351464"><ele>346.0</ele><time>2026-03-27T14:52:05Z</time></trkpt><trkpt lat="40.81673517018066" lon="9.243078018402244"><ele>349.0</ele><time>2026-03-27T14:52:06Z</time></trkpt><trkpt lat="40.816837568226184" lon="9.2433057559495"><ele>353.0</ele><time>2026-03-27T14:52:07Z</time></trkpt><trkpt lat="40.81694385580973" lon="9.243504776927116"><ele>357.0</ele><time>2026-03-27T14:52:08Z</time></trkpt><trkpt lat="40.81708850258657" lon="9.243680840272717"><ele>361.0</ele><time>2026-03-27T14:52:09Z</time></trkpt><trkpt lat="40.81726344594568" lon="9.243813336741331"><ele>361.0</ele><time>2026-03-27T14:52:10Z</time></trkpt><trkpt lat="40.81744600944345" lon="9.243937218463964"><ele>361.0</ele><time>2026-03-27T14:52:11Z</time></trkpt><trkpt lat="40.817646716709525" lon="9.243998956637345"><ele>361.0</ele><time>2026-03-27T14:52:12Z</time></trkpt><trkpt lat="40.81786710516099" lon="9.244038653167578"><ele>357.3333333333333</ele><time>2026-03-27T14:52:13Z</time></trkpt><trkpt lat="40.81807817243896" lon="9.244091195382936"><ele>353.6666666666667</ele><time>2026-03-27T14:52:14Z</time></trkpt><trkpt lat="40.81828485528339" lon="9.244149550306462"><ele>350.0</ele><time>2026-03-27T14:52:15Z</time></trkpt><trkpt lat="40.8184920720546" lon="9.244220512540087"><ele>348.33333333333337</ele><time>2026-03-27T14:52:16Z</time></trkpt><trkpt lat="40.81868989829893" lon="9.24426782553784"><ele>346.6666666666667</ele><time>2026-03-27T14:52:17Z</time></trkpt><trkpt lat="40.81887210228432" lon="9.244251427630383"><ele>345.0</ele><time>2026-03-27T14:52:18Z</time></trkpt><trkpt lat="40.8190646890011" lon="9.244212919911975"><ele>345.0</ele><time>2026-03-27T14:52:19Z</time></trkpt><trkpt lat="40.81926087179201" lon="9.244129538281614"><ele>345.0</ele><time>2026-03-27T14:52:20Z</time></trkpt><trkpt lat="40.8194505759257" lon="9.244010255191045"><ele>345.0</ele><time>2026-03-27T14:52:21Z</time></trkpt><trkpt lat="40.81966442439508" lon="9.243829519569836"><ele>345.5</ele><time>2026-03-27T14:52:22Z</time></trkpt><trkpt lat="40.819839197061796" lon="9.243641958060635"><ele>346.0</ele><time>2026-03-27T14:52:22.999Z</time></trkpt><trkpt lat="40.82001847054848" lon="9.2434548438433"><ele>344.0</ele><time>2026-03-27T14:52:23.999Z</time></trkpt><trkpt lat="40.82019971014441" lon="9.2432634190503"><ele>342.0</ele><time>2026-03-27T14:52:24.999Z</time></trkpt><trkpt lat="40.820380094248385" lon="9.24307967046523"><ele>345.0</ele><time>2026-03-27T14:52:25.999Z</time></trkpt><trkpt lat="40.820553839916826" lon="9.242905565150783"><ele>348.0</ele><time>2026-03-27T14:52:26.999Z</time></trkpt><trkpt lat="40.82072558367232" lon="9.242735264218997"><ele>351.0</ele><time>2026-03-27T14:52:27.999Z</time></trkpt><trkpt lat="40.82089706038122" lon="9.242563674486888"><ele>348.6666666666667</ele><time>2026-03-27T14:52:28.999Z</time></trkpt><trkpt lat="40.82106715849157" lon="9.242388366415762"><ele>346.33333333333337</ele><time>2026-03-27T14:52:29.999Z</time></trkpt><trkpt lat="40.82123631482867" lon="9.242210002846312"><ele>344.0</ele><time>2026-03-27T14:52:30.999Z</time></trkpt><trkpt lat="40.82141860133952" lon="9.242055597718258"><ele>347.6666666666667</ele><time>2026-03-27T14:52:31.999Z</time></trkpt><trkpt lat="40.821600231702355" lon="9.241891688521621"><ele>351.3333333333333</ele><time>2026-03-27T14:52:32.999Z</time></trkpt><trkpt lat="40.82178588801376" lon="9.241743099008364"><ele>355.0</ele><time>2026-03-27T14:52:33.999Z</time></trkpt><trkpt lat="40.82197554242868" lon="9.24160651969333"><ele>355.0</ele><time>2026-03-27T14:52:34.999Z</time></trkpt><trkpt lat="40.82216991402853" lon="9.241482306110912"><ele>355.0</ele><time>2026-03-27T14:52:35.999Z</time></trkpt><trkpt lat="40.82236749077849" lon="9.241371183980535"><ele>355.0</ele><time>2026-03-27T14:52:36.999Z</time></trkpt><trkpt lat="40.822567236147535" lon="9.241255382095705"><ele>364.66666666666663</ele><time>2026-03-27T14:52:37.999Z</time></trkpt><trkpt lat="40.822782250280724" lon="9.241200499920604"><ele>374.3333333333333</ele><time>2026-03-27T14:52:38.999Z</time></trkpt><trkpt lat="40.822996119979045" lon="9.24115276747988"><ele>384.0</ele><time>2026-03-27T14:52:39.999Z</time></trkpt><trkpt lat="40.82321572893129" lon="9.24113579579981"><ele>384.0</ele><time>2026-03-27T14:52:40.999Z</time></trkpt><trkpt lat="40.82343289077396" lon="9.241136589990806"><ele>384.0</ele><time>2026-03-27T14:52:41.999Z</time></trkpt><trkpt lat="40.82365344082422" lon="9.241119867150902"><ele>384.0</ele><time>2026-03-27T14:52:42.999Z</time></trkpt><trkpt lat="40.82386922316134" lon="9.241059458047557"><ele>383.5</ele><time>2026-03-27T14:52:43.999Z</time></trkpt><trkpt lat="40.82409116802203" lon="9.241015938940775"><ele>383.0</ele><time>2026-03-27T14:52:44.999Z</time></trkpt><trkpt lat="40.82431735054497" lon="9.241009786646043"><ele>387.0</ele><time>2026-03-27T14:52:45.999Z</time></trkpt><trkpt lat="40.82454416982206" lon="9.241011646949808"><ele>391.0</ele><time>2026-03-27T14:52:46.999Z</time></trkpt><trkpt lat="40.82477021664391" lon="9.241004036080687"><ele>391.0</ele><time>2026-03-27T14:52:47.999Z</time></trkpt><trkpt lat="40.824986608295916" lon="9.240995229278054"><ele>391.0</ele><time>2026-03-27T14:52:48.999Z</time></trkpt><trkpt lat="40.82520394854687" lon="9.240996502044087"><ele>391.0</ele><time>2026-03-27T14:52:49.999Z</time></trkpt><trkpt lat="40.825415264163766" lon="9.24100961344538"><ele>392.0</ele><time>2026-03-27T14:52:50.999Z</time></trkpt><trkpt lat="40.82563770794809" lon="9.24103596340337"><ele>393.0</ele><time>2026-03-27T14:52:51.999Z</time></trkpt><trkpt lat="40.82586673120745" lon="9.241065864583222"><ele>395.5</ele><time>2026-03-27T14:52:52.999Z</time></trkpt><trkpt lat="40.82609947979016" lon="9.241096252124038"><ele>398.0</ele><time>2026-03-27T14:52:53.999Z</time></trkpt><trkpt lat="40.826336333283066" lon="9.241126462837327"><ele>398.0</ele><time>2026-03-27T14:52:54.999Z</time></trkpt><trkpt lat="40.826576273436366" lon="9.241156664036657"><ele>398.0</ele><time>2026-03-27T14:52:55.999Z</time></trkpt><trkpt lat="40.82681855865324" lon="9.241176191412269"><ele>400.0</ele><time>2026-03-27T14:52:56.999Z</time></trkpt><trkpt lat="40.827061188657076" lon="9.24119267732014"><ele>402.0</ele><time>2026-03-27T14:52:57.999Z</time></trkpt><trkpt lat="40.827301362779416" lon="9.241208255018876"><ele>402.0</ele><time>2026-03-27T14:52:58.999Z</time></trkpt><trkpt lat="40.82753837960482" lon="9.241222696398724"><ele>402.0</ele><time>2026-03-27T14:52:59.999Z</time></trkpt><trkpt lat="40.827770708223255" lon="9.241236260029323"><ele>405.0</ele><time>2026-03-27T14:53:00.999Z</time></trkpt><trkpt lat="40.82800194982217" lon="9.241244344517574"><ele>408.0</ele><time>2026-03-27T14:53:01.999Z</time></trkpt><trkpt lat="40.82822774101561" lon="9.241255861799836"><ele>408.0</ele><time>2026-03-27T14:53:02.999Z</time></trkpt><trkpt lat="40.828449456913695" lon="9.241277710369722"><ele>408.0</ele><time>2026-03-27T14:53:03.999Z</time></trkpt><trkpt lat="40.8286671615096" lon="9.241304437512635"><ele>408.0</ele><time>2026-03-27T14:53:04.999Z</time></trkpt><trkpt lat="40.82888331798972" lon="9.241331217266247"><ele>411.33333333333337</ele><time>2026-03-27T14:53:05.999Z</time></trkpt><trkpt lat="40.82909995570963" lon="9.24135951451675"><ele>414.6666666666667</ele><time>2026-03-27T14:53:06.999Z</time></trkpt><trkpt lat="40.8293135032485" lon="9.241387203555915"><ele>418.0</ele><time>2026-03-27T14:53:07.999Z</time></trkpt><trkpt lat="40.82953288945734" lon="9.241387515894443"><ele>419.33333333333337</ele><time>2026-03-27T14:53:08.999Z</time></trkpt><trkpt lat="40.82974601813263" lon="9.241387189594656"><ele>420.66666666666663</ele><time>2026-03-27T14:53:09.999Z</time></trkpt><trkpt lat="40.829959142576946" lon="9.24138751152763"><ele>422.0</ele><time>2026-03-27T14:53:10.999Z</time></trkpt><trkpt lat="40.83017349211212" lon="9.241387835310228"><ele>428.3333333333333</ele><time>2026-03-27T14:53:11.999Z</time></trkpt><trkpt lat="40.830388642256764" lon="9.241388160300195"><ele>434.66666666666663</ele><time>2026-03-27T14:53:12.999Z</time></trkpt><trkpt lat="40.83060337245665" lon="9.241373526683388"><ele>441.0</ele><time>2026-03-27T14:53:13.999Z</time></trkpt><trkpt lat="40.830815704325325" lon="9.241385716854321"><ele>446.0</ele><time>2026-03-27T14:53:14.999Z</time></trkpt><trkpt lat="40.83102815177417" lon="9.24139490728291"><ele>451.0</ele><time>2026-03-27T14:53:15.999Z</time></trkpt><trkpt lat="40.8312439374853" lon="9.241405788901462"><ele>456.0</ele><time>2026-03-27T14:53:16.998Z</time></trkpt><trkpt lat="40.83146396095037" lon="9.241422607214199"><ele>456.0</ele><time>2026-03-27T14:53:17.998Z</time></trkpt><trkpt lat="40.83168694988122" lon="9.241426436528108"><ele>456.0</ele><time>2026-03-27T14:53:18.998Z</time></trkpt><trkpt lat="40.83191316339943" lon="9.241437524494817"><ele>456.0</ele><time>2026-03-27T14:53:19.998Z</time></trkpt><trkpt lat="40.83214098212087" lon="9.241437534817628"><ele>459.5</ele><time>2026-03-27T14:53:20.998Z</time></trkpt><trkpt lat="40.83237110459966" lon="9.24144629506876"><ele>463.0</ele><time>2026-03-27T14:53:21.998Z</time></trkpt><trkpt lat="40.832599436277135" lon="9.241488395755603"><ele>448.5</ele><time>2026-03-27T14:53:22.998Z</time></trkpt><trkpt lat="40.8328182737814" lon="9.241579819051491"><ele>434.0</ele><time>2026-03-27T14:53:23.998Z</time></trkpt><trkpt lat="40.833031762366225" lon="9.241705935648689"><ele>434.0</ele><time>2026-03-27T14:53:24.998Z</time></trkpt><trkpt lat="40.83323185348946" lon="9.241821882074106"><ele>434.0</ele><time>2026-03-27T14:53:25.998Z</time></trkpt><trkpt lat="40.83343373390143" lon="9.241925839668394"><ele>434.0</ele><time>2026-03-27T14:53:26.998Z</time></trkpt><trkpt lat="40.83363834305197" lon="9.242027129736432"><ele>433.3333333333333</ele><time>2026-03-27T14:53:27.998Z</time></trkpt><trkpt lat="40.83384714696066" lon="9.242130889428067"><ele>432.66666666666663</ele><time>2026-03-27T14:53:28.998Z</time></trkpt><trkpt lat="40.83404725452445" lon="9.242250148090918"><ele>432.0</ele><time>2026-03-27T14:53:29.998Z</time></trkpt><trkpt lat="40.83424649420315" lon="9.242371077818424"><ele>433.33333333333337</ele><time>2026-03-27T14:53:30.998Z</time></trkpt><trkpt lat="40.83444732959551" lon="9.242492130391899"><ele>434.6666666666667</ele><time>2026-03-27T14:53:31.998Z</time></trkpt><trkpt lat="40.8346465422162" lon="9.24260661593447"><ele>436.0</ele><time>2026-03-27T14:53:32.998Z</time></trkpt><trkpt lat="40.83485185624614" lon="9.242700390722588"><ele>436.0</ele><time>2026-03-27T14:53:33.998Z</time></trkpt><trkpt lat="40.835064280862476" lon="9.242770490152008"><ele>436.0</ele><time>2026-03-27T14:53:34.998Z</time></trkpt><trkpt lat="40.83528683399491" lon="9.242810332561431"><ele>436.0</ele><time>2026-03-27T14:53:35.998Z</time></trkpt><trkpt lat="40.83550836418345" lon="9.242816948711265"><ele>437.33333333333337</ele><time>2026-03-27T14:53:36.998Z</time></trkpt><trkpt lat="40.8357263128667" lon="9.242803577920915"><ele>438.66666666666663</ele><time>2026-03-27T14:53:37.998Z</time></trkpt><trkpt lat="40.83594560803473" lon="9.242785185066044"><ele>440.0</ele><time>2026-03-27T14:53:38.998Z</time></trkpt><trkpt lat="40.83616321493284" lon="9.242764118248356"><ele>441.0</ele><time>2026-03-27T14:53:39.998Z</time></trkpt><trkpt lat="40.83637691137984" lon="9.242741839970746"><ele>442.0</ele><time>2026-03-27T14:53:40.998Z</time></trkpt><trkpt lat="40.836590239782026" lon="9.242721387137111"><ele>443.0</ele><time>2026-03-27T14:53:41.998Z</time></trkpt><trkpt lat="40.83679634402613" lon="9.242724220654555"><ele>446.3333333333333</ele><time>2026-03-27T14:53:42.998Z</time></trkpt><trkpt lat="40.83700100150879" lon="9.242767945447499"><ele>449.66666666666663</ele><time>2026-03-27T14:53:43.998Z</time></trkpt><trkpt lat="40.8371887890036" lon="9.242886885804936"><ele>453.0</ele><time>2026-03-27T14:53:45Z</time></trkpt><trkpt lat="40.837365517783326" lon="9.243038664048992"><ele>453.66666666666663</ele><time>2026-03-27T14:53:46Z</time></trkpt><trkpt lat="40.837528268712376" lon="9.243206927659271"><ele>454.3333333333333</ele><time>2026-03-27T14:53:47Z</time></trkpt><trkpt lat="40.83770044048269" lon="9.243361703079731"><ele>455.0</ele><time>2026-03-27T14:53:48Z</time></trkpt><trkpt lat="40.83788537323163" lon="9.243493983948172"><ele>453.66666666666663</ele><time>2026-03-27T14:53:49Z</time></trkpt><trkpt lat="40.838094378936994" lon="9.243576880709846"><ele>452.33333333333337</ele><time>2026-03-27T14:53:50Z</time></trkpt><trkpt lat="40.83829901770413" lon="9.243598802273633"><ele>451.0</ele><time>2026-03-27T14:53:51Z</time></trkpt><trkpt lat="40.83850654537079" lon="9.243565758019876"><ele>454.0</ele><time>2026-03-27T14:53:52Z</time></trkpt><trkpt lat="40.83871001850085" lon="9.243570834147784"><ele>457.0</ele><time>2026-03-27T14:53:53Z</time></trkpt><trkpt lat="40.83890845558378" lon="9.243629783860477"><ele>460.0</ele><time>2026-03-27T14:53:54Z</time></trkpt><trkpt lat="40.83909179232621" lon="9.243741165845128"><ele>460.0</ele><time>2026-03-27T14:53:55Z</time></trkpt><trkpt lat="40.83928752383023" lon="9.243863219412322"><ele>460.0</ele><time>2026-03-27T14:53:56Z</time></trkpt><trkpt lat="40.83947370335026" lon="9.2440015794545"><ele>460.0</ele><time>2026-03-27T14:53:57Z</time></trkpt><trkpt lat="40.83966436575351" lon="9.244154657651958"><ele>462.0</ele><time>2026-03-27T14:53:58Z</time></trkpt><trkpt lat="40.83985389318557" lon="9.244326769345669"><ele>464.0</ele><time>2026-03-27T14:53:59Z</time></trkpt><trkpt lat="40.84004230938027" lon="9.244503602076085"><ele>468.0</ele><time>2026-03-27T14:54:00Z</time></trkpt><trkpt lat="40.84023875361722" lon="9.244675369425499"><ele>472.0</ele><time>2026-03-27T14:54:01Z</time></trkpt><trkpt lat="40.84043473933984" lon="9.244840552585503"><ele>472.0</ele><time>2026-03-27T14:54:02Z</time></trkpt><trkpt lat="40.840644174332496" lon="9.244988690433216"><ele>472.0</ele><time>2026-03-27T14:54:03Z</time></trkpt><trkpt lat="40.84085757060251" lon="9.245112528332099"><ele>474.33333333333337</ele><time>2026-03-27T14:54:04Z</time></trkpt><trkpt lat="40.84107244377546" lon="9.245202500853475"><ele>476.66666666666663</ele><time>2026-03-27T14:54:05Z</time></trkpt><trkpt lat="40.84128086704198" lon="9.245276177568579"><ele>479.0</ele><time>2026-03-27T14:54:06Z</time></trkpt><trkpt lat="40.841512043498916" lon="9.24533357437027"><ele>479.0</ele><time>2026-03-27T14:54:07Z</time></trkpt><trkpt lat="40.84172739519736" lon="9.245400124124544"><ele>479.0</ele><time>2026-03-27T14:54:08Z</time></trkpt><trkpt lat="40.84192603560327" lon="9.245499563625025"><ele>479.0</ele><time>2026-03-27T14:54:09Z</time></trkpt><trkpt lat="40.842111404012" lon="9.24563278944927"><ele>481.0</ele><time>2026-03-27T14:54:10Z</time></trkpt><trkpt lat="40.842280112231045" lon="9.245808571164295"><ele>483.0</ele><time>2026-03-27T14:54:11Z</time></trkpt><trkpt lat="40.84243014878201" lon="9.246025888546585"><ele>485.0</ele><time>2026-03-27T14:54:12Z</time></trkpt><trkpt lat="40.84257648098385" lon="9.246251322306096"><ele>488.5</ele><time>2026-03-27T14:54:13Z</time></trkpt><trkpt lat="40.84272109014369" lon="9.246476951675689"><ele>492.0</ele><time>2026-03-27T14:54:14Z</time></trkpt><trkpt lat="40.84288115533753" lon="9.246688368095692"><ele>492.0</ele><time>2026-03-27T14:54:15Z</time></trkpt><trkpt lat="40.84305323511506" lon="9.246882524276073"><ele>492.0</ele><time>2026-03-27T14:54:16Z</time></trkpt><trkpt lat="40.84323608292368" lon="9.24705343862872"><ele>492.0</ele><time>2026-03-27T14:54:17Z</time></trkpt><trkpt lat="40.8434215330863" lon="9.24721614641986"><ele>492.0</ele><time>2026-03-27T14:54:18Z</time></trkpt><trkpt lat="40.843604151418155" lon="9.24738231162156"><ele>492.0</ele><time>2026-03-27T14:54:19Z</time></trkpt><trkpt lat="40.84378631020382" lon="9.247555088242597"><ele>496.5</ele><time>2026-03-27T14:54:20Z</time></trkpt><trkpt lat="40.843969953974465" lon="9.247730047838413"><ele>501.0</ele><time>2026-03-27T14:54:21Z</time></trkpt><trkpt lat="40.84415330554903" lon="9.247904014680994"><ele>501.66666666666663</ele><time>2026-03-27T14:54:22Z</time></trkpt><trkpt lat="40.844334784015636" lon="9.248071917795182"><ele>502.3333333333333</ele><time>2026-03-27T14:54:23Z</time></trkpt><trkpt lat="40.844515118908305" lon="9.248235370369432"><ele>503.0</ele><time>2026-03-27T14:54:24Z</time></trkpt><trkpt lat="40.84470970355895" lon="9.248378493424962"><ele>503.0</ele><time>2026-03-27T14:54:24.999Z</time></trkpt><trkpt lat="40.84491450126853" lon="9.24848923621936"><ele>503.0</ele><time>2026-03-27T14:54:25.999Z</time></trkpt><trkpt lat="40.84513032242994" lon="9.248582789257918"><ele>503.0</ele><time>2026-03-27T14:54:26.999Z</time></trkpt><trkpt lat="40.84535192766342" lon="9.248659818981773"><ele>508.0</ele><time>2026-03-27T14:54:27.999Z</time></trkpt><trkpt lat="40.84556848376026" lon="9.248745879001069"><ele>513.0</ele><time>2026-03-27T14:54:28.999Z</time></trkpt><trkpt lat="40.845775531611785" lon="9.248856816438467"><ele>516.0</ele><time>2026-03-27T14:54:29.999Z</time></trkpt><trkpt lat="40.84597225141275" lon="9.24900506538574"><ele>519.0</ele><time>2026-03-27T14:54:30.999Z</time></trkpt><trkpt lat="40.84615553225459" lon="9.249169904328221"><ele>522.0</ele><time>2026-03-27T14:54:31.999Z</time></trkpt><trkpt lat="40.84634539059617" lon="9.249316781901229"><ele>522.0</ele><time>2026-03-27T14:54:32.999Z</time></trkpt><trkpt lat="40.84653937030053" lon="9.249464607605763"><ele>522.0</ele><time>2026-03-27T14:54:33.999Z</time></trkpt><trkpt lat="40.84673239400079" lon="9.249610075617296"><ele>522.0</ele><time>2026-03-27T14:54:34.999Z</time></trkpt><trkpt lat="40.846920749940516" lon="9.249748946295092"><ele>523.6666666666666</ele><time>2026-03-27T14:54:35.999Z</time></trkpt><trkpt lat="40.84710375183727" lon="9.249888841408476"><ele>525.3333333333333</ele><time>2026-03-27T14:54:36.999Z</time></trkpt><trkpt lat="40.847282571313215" lon="9.2500279696331"><ele>527.0</ele><time>2026-03-27T14:54:37.999Z</time></trkpt><trkpt lat="40.84745782786281" lon="9.25016840634989"><ele>526.0</ele><time>2026-03-27T14:54:38.999Z</time></trkpt><trkpt lat="40.847637028462984" lon="9.250313412055327"><ele>525.0</ele><time>2026-03-27T14:54:39.999Z</time></trkpt><trkpt lat="40.84781818390002" lon="9.250463215071221"><ele>524.0</ele><time>2026-03-27T14:54:40.999Z</time></trkpt><trkpt lat="40.848000442781746" lon="9.250618879080863"><ele>523.6666666666666</ele><time>2026-03-27T14:54:41.999Z</time></trkpt><trkpt lat="40.84818429566755" lon="9.250784291900985"><ele>523.3333333333334</ele><time>2026-03-27T14:54:42.999Z</time></trkpt><trkpt lat="40.84836891512803" lon="9.250954552121083"><ele>523.0</ele><time>2026-03-27T14:54:43.999Z</time></trkpt><trkpt lat="40.84856394604947" lon="9.251113400708237"><ele>523.0</ele><time>2026-03-27T14:54:44.999Z</time></trkpt><trkpt lat="40.848763851873684" lon="9.251247876484376"><ele>523.0</ele><time>2026-03-27T14:54:45.999Z</time></trkpt><trkpt lat="40.8489654710522" lon="9.25135863427829"><ele>523.0</ele><time>2026-03-27T14:54:46.999Z</time></trkpt><trkpt lat="40.84916826565267" lon="9.251463311162672"><ele>520.3333333333334</ele><time>2026-03-27T14:54:47.999Z</time></trkpt><trkpt lat="40.84937156558378" lon="9.251572241593825"><ele>517.6666666666666</ele><time>2026-03-27T14:54:48.999Z</time></trkpt><trkpt lat="40.849577040179796" lon="9.25168849618114"><ele>515.0</ele><time>2026-03-27T14:54:49.999Z</time></trkpt><trkpt lat="40.84978373120854" lon="9.25180941164114"><ele>515.0</ele><time>2026-03-27T14:54:50.999Z</time></trkpt><trkpt lat="40.84999004650767" lon="9.251932938235438"><ele>515.0</ele><time>2026-03-27T14:54:51.999Z</time></trkpt><trkpt lat="40.85019708563078" lon="9.252058826476233"><ele>511.5</ele><time>2026-03-27T14:54:52.999Z</time></trkpt><trkpt lat="40.850400187464125" lon="9.252187795326556"><ele>508.0</ele><time>2026-03-27T14:54:53.999Z</time></trkpt><trkpt lat="40.85059923791487" lon="9.252324305786155"><ele>505.0</ele><time>2026-03-27T14:54:54.999Z</time></trkpt><trkpt lat="40.85079580873921" lon="9.252468606880154"><ele>502.0</ele><time>2026-03-27T14:54:55.999Z</time></trkpt><trkpt lat="40.85099269516594" lon="9.252612416973127"><ele>501.33333333333337</ele><time>2026-03-27T14:54:56.999Z</time></trkpt><trkpt lat="40.85118937034834" lon="9.252753341970708"><ele>500.66666666666663</ele><time>2026-03-27T14:54:57.999Z</time></trkpt><trkpt lat="40.85138603605795" lon="9.252894151885249"><ele>500.0</ele><time>2026-03-27T14:54:58.999Z</time></trkpt><trkpt lat="40.8515809132802" lon="9.253033490748813"><ele>500.3333333333333</ele><time>2026-03-27T14:54:59.999Z</time></trkpt><trkpt lat="40.851775714227585" lon="9.253169796844048"><ele>500.66666666666663</ele><time>2026-03-27T14:55:00.999Z</time></trkpt><trkpt lat="40.85196923634356" lon="9.253307670808455"><ele>501.0</ele><time>2026-03-27T14:55:01.999Z</time></trkpt><trkpt lat="40.85216361299987" lon="9.253445116143322"><ele>500.0</ele><time>2026-03-27T14:55:02.999Z</time></trkpt><trkpt lat="40.85236002636289" lon="9.253582245189413"><ele>499.0</ele><time>2026-03-27T14:55:03.999Z</time></trkpt><trkpt lat="40.85255430420613" lon="9.253722131727658"><ele>498.0</ele><time>2026-03-27T14:55:04.999Z</time></trkpt><trkpt lat="40.852749778432056" lon="9.253865394600034"><ele>497.0</ele><time>2026-03-27T14:55:05.999Z</time></trkpt><trkpt lat="40.852944978672305" lon="9.25400691370575"><ele>496.0</ele><time>2026-03-27T14:55:06.999Z</time></trkpt><trkpt lat="40.85314214889319" lon="9.25414715016864"><ele>495.0</ele><time>2026-03-27T14:55:07.999Z</time></trkpt><trkpt lat="40.85334282288966" lon="9.254282977250787"><ele>492.0</ele><time>2026-03-27T14:55:08.999Z</time></trkpt><trkpt lat="40.85354972337948" lon="9.254410519414462"><ele>489.0</ele><time>2026-03-27T14:55:09.999Z</time></trkpt><trkpt lat="40.853760103025635" lon="9.254522541986693"><ele>489.0</ele><time>2026-03-27T14:55:10.999Z</time></trkpt><trkpt lat="40.85397684143787" lon="9.254613253051787"><ele>489.0</ele><time>2026-03-27T14:55:11.999Z</time></trkpt><trkpt lat="40.85419533525902" lon="9.254687783584494"><ele>489.33333333333337</ele><time>2026-03-27T14:55:12.999Z</time></trkpt><trkpt lat="40.85441138538533" lon="9.254763592737971"><ele>489.6666666666667</ele><time>2026-03-27T14:55:13.999Z</time></trkpt><trkpt lat="40.85462919820328" lon="9.254839451535302"><ele>490.0</ele><time>2026-03-27T14:55:14.999Z</time></trkpt><trkpt lat="40.85484556498807" lon="9.25491733297173"><ele>490.0</ele><time>2026-03-27T14:55:15.999Z</time></trkpt><trkpt lat="40.85506061785216" lon="9.254993687297292"><ele>490.0</ele><time>2026-03-27T14:55:16.999Z</time></trkpt><trkpt lat="40.855272976549905" lon="9.255071893554637"><ele>490.0</ele><time>2026-03-27T14:55:17.998Z</time></trkpt><trkpt lat="40.855486303138285" lon="9.255151719917725"><ele>488.33333333333337</ele><time>2026-03-27T14:55:18.998Z</time></trkpt><trkpt lat="40.855698895691084" lon="9.255231129055291"><ele>486.66666666666663</ele><time>2026-03-27T14:55:19.998Z</time></trkpt><trkpt lat="40.85591110785461" lon="9.255310811263001"><ele>485.0</ele><time>2026-03-27T14:55:20.998Z</time></trkpt><trkpt lat="40.856124734666125" lon="9.255392650889085"><ele>484.3333333333333</ele><time>2026-03-27T14:55:21.998Z</time></trkpt><trkpt lat="40.85633797389564" lon="9.255472888129566"><ele>483.66666666666663</ele><time>2026-03-27T14:55:22.998Z</time></trkpt><trkpt lat="40.85655264558692" lon="9.255547735140322"><ele>483.0</ele><time>2026-03-27T14:55:23.998Z</time></trkpt><trkpt lat="40.85676919601035" lon="9.255619216342943"><ele>484.0</ele><time>2026-03-27T14:55:24.998Z</time></trkpt><trkpt lat="40.85698436098443" lon="9.255683214303888"><ele>485.0</ele><time>2026-03-27T14:55:25.998Z</time></trkpt><trkpt lat="40.85719859247474" lon="9.255736597083786"><ele>486.0</ele><time>2026-03-27T14:55:26.998Z</time></trkpt><trkpt lat="40.857412112562386" lon="9.255778517330928"><ele>486.0</ele><time>2026-03-27T14:55:27.998Z</time></trkpt><trkpt lat="40.85762431617314" lon="9.255799453850395"><ele>486.0</ele><time>2026-03-27T14:55:28.998Z</time></trkpt><trkpt lat="40.85782875490017" lon="9.255782386989434"><ele>486.0</ele><time>2026-03-27T14:55:29.998Z</time></trkpt><trkpt lat="40.85802009564524" lon="9.255726434352074"><ele>486.0</ele><time>2026-03-27T14:55:30.998Z</time></trkpt><trkpt lat="40.8582121649106" lon="9.25565700443731"><ele>486.0</ele><time>2026-03-27T14:55:31.998Z</time></trkpt><trkpt lat="40.85840976580112" lon="9.255587129609186"><ele>486.0</ele><time>2026-03-27T14:55:32.998Z</time></trkpt><trkpt lat="40.8586102165008" lon="9.255514070122526"><ele>487.0</ele><time>2026-03-27T14:55:33.998Z</time></trkpt><trkpt lat="40.858813724665005" lon="9.25544011395954"><ele>488.0</ele><time>2026-03-27T14:55:34.998Z</time></trkpt><trkpt lat="40.85901872478121" lon="9.255369551865293"><ele>489.0</ele><time>2026-03-27T14:55:35.998Z</time></trkpt><trkpt lat="40.85922119602587" lon="9.255307700026524"><ele>489.33333333333337</ele><time>2026-03-27T14:55:36.998Z</time></trkpt><trkpt lat="40.859428395219844" lon="9.255261848667985"><ele>489.6666666666667</ele><time>2026-03-27T14:55:37.998Z</time></trkpt><trkpt lat="40.85963885525105" lon="9.255243698372858"><ele>490.0</ele><time>2026-03-27T14:55:38.998Z</time></trkpt><trkpt lat="40.85985180952413" lon="9.255253591855931"><ele>490.0</ele><time>2026-03-27T14:55:39.998Z</time></trkpt><trkpt lat="40.860066633591565" lon="9.255288125040314"><ele>490.0</ele><time>2026-03-27T14:55:40.998Z</time></trkpt><trkpt lat="40.86027920624026" lon="9.25534889647919"><ele>490.0</ele><time>2026-03-27T14:55:41.998Z</time></trkpt><trkpt lat="40.86048349102544" lon="9.255453929717335"><ele>490.0</ele><time>2026-03-27T14:55:42.998Z</time></trkpt><trkpt lat="40.86069670288172" lon="9.255528319553571"><ele>490.0</ele><time>2026-03-27T14:55:43.998Z</time></trkpt><trkpt lat="40.86090607707502" lon="9.255627553354163"><ele>490.0</ele><time>2026-03-27T14:55:44.998Z</time></trkpt><trkpt lat="40.86111606815158" lon="9.255727976333363"><ele>489.0</ele><time>2026-03-27T14:55:45.998Z</time></trkpt><trkpt lat="40.86132758314956" lon="9.255827484684675"><ele>488.0</ele><time>2026-03-27T14:55:46.998Z</time></trkpt><trkpt lat="40.86154097538305" lon="9.255927023728631"><ele>488.0</ele><time>2026-03-27T14:55:47.998Z</time></trkpt><trkpt lat="40.861755484679605" lon="9.256024881446255"><ele>488.0</ele><time>2026-03-27T14:55:48.998Z</time></trkpt><trkpt lat="40.86197192371511" lon="9.256123782255887"><ele>487.5</ele><time>2026-03-27T14:55:49.998Z</time></trkpt><trkpt lat="40.86218990486565" lon="9.256219702267538"><ele>487.0</ele><time>2026-03-27T14:55:51Z</time></trkpt><trkpt lat="40.862409446894326" lon="9.256310020119741"><ele>488.5</ele><time>2026-03-27T14:55:52Z</time></trkpt><trkpt lat="40.86263113391614" lon="9.25638516508361"><ele>490.0</ele><time>2026-03-27T14:55:53Z</time></trkpt><trkpt lat="40.86285640538554" lon="9.256444474278567"><ele>490.5</ele><time>2026-03-27T14:55:54Z</time></trkpt><trkpt lat="40.86308382269435" lon="9.256496728679275"><ele>491.0</ele><time>2026-03-27T14:55:55Z</time></trkpt><trkpt lat="40.86331240167318" lon="9.25653864723692"><ele>490.5</ele><time>2026-03-27T14:55:56Z</time></trkpt><trkpt lat="40.86353954140573" lon="9.256581059135135"><ele>490.0</ele><time>2026-03-27T14:55:57Z</time></trkpt><trkpt lat="40.86376377487859" lon="9.256625281811552"><ele>490.0</ele><time>2026-03-27T14:55:58Z</time></trkpt><trkpt lat="40.86398481396385" lon="9.256669637162107"><ele>490.0</ele><time>2026-03-27T14:55:59Z</time></trkpt><trkpt lat="40.8642063945893" lon="9.256715137025761"><ele>490.0</ele><time>2026-03-27T14:56:00Z</time></trkpt><trkpt lat="40.864428125405645" lon="9.256759662659153"><ele>492.0</ele><time>2026-03-27T14:56:01Z</time></trkpt><trkpt lat="40.86465030664077" lon="9.256809883914789"><ele>494.0</ele><time>2026-03-27T14:56:02Z</time></trkpt><trkpt lat="40.864871207356536" lon="9.256867626153486"><ele>494.0</ele><time>2026-03-27T14:56:03Z</time></trkpt><trkpt lat="40.865088262980386" lon="9.256933175365798"><ele>494.0</ele><time>2026-03-27T14:56:04Z</time></trkpt><trkpt lat="40.865296551138" lon="9.257027905011787"><ele>494.0</ele><time>2026-03-27T14:56:05Z</time></trkpt><trkpt lat="40.86549913038714" lon="9.25710833201566"><ele>495.3333333333333</ele><time>2026-03-27T14:56:06Z</time></trkpt><trkpt lat="40.86569624838907" lon="9.25718658933166"><ele>496.66666666666663</ele><time>2026-03-27T14:56:07Z</time></trkpt><trkpt lat="40.86589314363633" lon="9.257247825152707"><ele>498.0</ele><time>2026-03-27T14:56:08Z</time></trkpt><trkpt lat="40.86607569136152" lon="9.257360827173775"><ele>500.33333333333337</ele><time>2026-03-27T14:56:09Z</time></trkpt><trkpt lat="40.86622821311193" lon="9.257536532110274"><ele>502.6666666666667</ele><time>2026-03-27T14:56:10Z</time></trkpt><trkpt lat="40.8663936114673" lon="9.257695725958671"><ele>505.0</ele><time>2026-03-27T14:56:11Z</time></trkpt><trkpt lat="40.8665373644061" lon="9.257883316076684"><ele>505.0</ele><time>2026-03-27T14:56:12Z</time></trkpt><trkpt lat="40.866682741394904" lon="9.258064908821845"><ele>505.0</ele><time>2026-03-27T14:56:13Z</time></trkpt><trkpt lat="40.86677782666374" lon="9.258304921766936"><ele>505.0</ele><time>2026-03-27T14:56:14Z</time></trkpt><trkpt lat="40.86685496346129" lon="9.258533917818655"><ele>506.6666666666667</ele><time>2026-03-27T14:56:15Z</time></trkpt><trkpt lat="40.866922768773115" lon="9.258763897531635"><ele>508.33333333333337</ele><time>2026-03-27T14:56:16Z</time></trkpt><trkpt lat="40.86699941657906" lon="9.25898776647204"><ele>510.0</ele><time>2026-03-27T14:56:17Z</time></trkpt><trkpt lat="40.86709546855996" lon="9.25919209085753"><ele>510.0</ele><time>2026-03-27T14:56:18Z</time></trkpt><trkpt lat="40.867219504778426" lon="9.259369244143766"><ele>510.0</ele><time>2026-03-27T14:56:19Z</time></trkpt><trkpt lat="40.867373781081405" lon="9.25950758446124"><ele>510.0</ele><time>2026-03-27T14:56:20Z</time></trkpt><trkpt lat="40.867539201556646" lon="9.25962669837305"><ele>509.66666666666663</ele><time>2026-03-27T14:56:21Z</time></trkpt><trkpt lat="40.867718701797365" lon="9.259745362494943"><ele>509.3333333333333</ele><time>2026-03-27T14:56:22Z</time></trkpt><trkpt lat="40.867902620674634" lon="9.259867035143317"><ele>509.0</ele><time>2026-03-27T14:56:23Z</time></trkpt><trkpt lat="40.86808934018393" lon="9.2599843437539"><ele>510.0</ele><time>2026-03-27T14:56:24Z</time></trkpt><trkpt lat="40.86828780251915" lon="9.260089363160526"><ele>511.0</ele><time>2026-03-27T14:56:25Z</time></trkpt><trkpt lat="40.8684972826014" lon="9.260176152992374"><ele>512.0</ele><time>2026-03-27T14:56:25.999Z</time></trkpt><trkpt lat="40.86871452534151" lon="9.260239989733938"><ele>512.0</ele><time>2026-03-27T14:56:26.999Z</time></trkpt><trkpt lat="40.86893523055925" lon="9.260287772563368"><ele>512.0</ele><time>2026-03-27T14:56:27.999Z</time></trkpt><trkpt lat="40.869153236869224" lon="9.260327569000575"><ele>512.0</ele><time>2026-03-27T14:56:28.999Z</time></trkpt><trkpt lat="40.86937251082359" lon="9.260367982431502"><ele>512.0</ele><time>2026-03-27T14:56:29.999Z</time></trkpt><trkpt lat="40.86958923869858" lon="9.260409094280357"><ele>512.0</ele><time>2026-03-27T14:56:30.999Z</time></trkpt><trkpt lat="40.86980409012168" lon="9.260448030957528"><ele>512.0</ele><time>2026-03-27T14:56:31.999Z</time></trkpt><trkpt lat="40.87001423432621" lon="9.260481321993385"><ele>512.6666666666666</ele><time>2026-03-27T14:56:32.999Z</time></trkpt><trkpt lat="40.870225859954424" lon="9.26049121109358"><ele>513.3333333333334</ele><time>2026-03-27T14:56:33.999Z</time></trkpt><trkpt lat="40.870441101608826" lon="9.260461667359143"><ele>514.0</ele><time>2026-03-27T14:56:34.999Z</time></trkpt><trkpt lat="40.87065704506959" lon="9.260408814679314"><ele>514.0</ele><time>2026-03-27T14:56:35.999Z</time></trkpt><trkpt lat="40.87087187670616" lon="9.260327910249746"><ele>514.0</ele><time>2026-03-27T14:56:36.999Z</time></trkpt><trkpt lat="40.87108867523508" lon="9.26023264483748"><ele>512.0</ele><time>2026-03-27T14:56:37.999Z</time></trkpt><trkpt lat="40.87130686717266" lon="9.260138186991231"><ele>510.0</ele><time>2026-03-27T14:56:38.999Z</time></trkpt><trkpt lat="40.8715280534465" lon="9.260048168367005"><ele>510.0</ele><time>2026-03-27T14:56:39.999Z</time></trkpt><trkpt lat="40.87174535541496" lon="9.25996394831345"><ele>510.0</ele><time>2026-03-27T14:56:40.999Z</time></trkpt><trkpt lat="40.87195332921263" lon="9.259886095801734"><ele>510.0</ele><time>2026-03-27T14:56:41.999Z</time></trkpt><trkpt lat="40.87215272023765" lon="9.259812707796716"><ele>510.33333333333337</ele><time>2026-03-27T14:56:42.999Z</time></trkpt><trkpt lat="40.872347373203105" lon="9.2597389207176"><ele>510.6666666666667</ele><time>2026-03-27T14:56:43.999Z</time></trkpt><trkpt lat="40.87253242266904" lon="9.259650852549646"><ele>511.0</ele><time>2026-03-27T14:56:44.999Z</time></trkpt><trkpt lat="40.87270557778283" lon="9.2595212813415"><ele>511.6666666666667</ele><time>2026-03-27T14:56:45.999Z</time></trkpt><trkpt lat="40.872859265706346" lon="9.259349677464192"><ele>512.3333333333334</ele><time>2026-03-27T14:56:46.999Z</time></trkpt><trkpt lat="40.8730013502235" lon="9.25915318703358"><ele>513.0</ele><time>2026-03-27T14:56:47.999Z</time></trkpt><trkpt lat="40.873135774348675" lon="9.258946479879148"><ele>513.3333333333334</ele><time>2026-03-27T14:56:48.999Z</time></trkpt><trkpt lat="40.873271246276516" lon="9.258733310670111"><ele>513.6666666666667</ele><time>2026-03-27T14:56:49.999Z</time></trkpt><trkpt lat="40.87340334896267" lon="9.258512793575086"><ele>514.0</ele><time>2026-03-27T14:56:50.999Z</time></trkpt><trkpt lat="40.8735305516036" lon="9.258283972966861"><ele>511.6666666666667</ele><time>2026-03-27T14:56:51.999Z</time></trkpt><trkpt lat="40.873656464375586" lon="9.258048277520299"><ele>509.33333333333337</ele><time>2026-03-27T14:56:52.999Z</time></trkpt><trkpt lat="40.873781326110056" lon="9.2578085948208"><ele>507.0</ele><time>2026-03-27T14:56:53.999Z</time></trkpt><trkpt lat="40.873901498078745" lon="9.257566094399666"><ele>507.0</ele><time>2026-03-27T14:56:54.999Z</time></trkpt><trkpt lat="40.87401981439807" lon="9.257333517787682"><ele>507.0</ele><time>2026-03-27T14:56:55.999Z</time></trkpt><trkpt lat="40.87413309005266" lon="9.2571194631682"><ele>507.0</ele><time>2026-03-27T14:56:56.999Z</time></trkpt><trkpt lat="40.87424002286999" lon="9.25691795571555"><ele>507.66666666666663</ele><time>2026-03-27T14:56:57.999Z</time></trkpt><trkpt lat="40.87434206262065" lon="9.25672541301609"><ele>508.3333333333333</ele><time>2026-03-27T14:56:58.999Z</time></trkpt><trkpt lat="40.874424345594925" lon="9.25652575952472"><ele>509.0</ele><time>2026-03-27T14:56:59.999Z</time></trkpt><trkpt lat="40.87447546539193" lon="9.256317178938302"><ele>509.0</ele><time>2026-03-27T14:57:00.999Z</time></trkpt><trkpt lat="40.87452479270831" lon="9.25611645623224"><ele>509.0</ele><time>2026-03-27T14:57:01.999Z</time></trkpt><trkpt lat="40.874586383066976" lon="9.25595202642166"><ele>509.0</ele><time>2026-03-27T14:57:02.999Z</time></trkpt><trkpt lat="40.87466683109752" lon="9.255830501480357"><ele>509.0</ele><time>2026-03-27T14:57:03.999Z</time></trkpt><trkpt lat="40.874782103687686" lon="9.255761030600832"><ele>509.0</ele><time>2026-03-27T14:57:04.999Z</time></trkpt><trkpt lat="40.87490739010668" lon="9.255759996535433"><ele>509.0</ele><time>2026-03-27T14:57:05.999Z</time></trkpt><trkpt lat="40.875019557214536" lon="9.25581983434337"><ele>509.0</ele><time>2026-03-27T14:57:06.999Z</time></trkpt><trkpt lat="40.875099515003065" lon="9.25595270133879"><ele>509.0</ele><time>2026-03-27T14:57:07.999Z</time></trkpt><trkpt lat="40.875142337853404" lon="9.256117076143884"><ele>507.25</ele><time>2026-03-27T14:57:08.999Z</time></trkpt><trkpt lat="40.87513468419899" lon="9.256300978342825"><ele>505.5</ele><time>2026-03-27T14:57:09.999Z</time></trkpt><trkpt lat="40.875107722306616" lon="9.25648633205017"><ele>503.75</ele><time>2026-03-27T14:57:10.999Z</time></trkpt><trkpt lat="40.87510154308783" lon="9.256690048808464"><ele>502.0</ele><time>2026-03-27T14:57:11.999Z</time></trkpt><trkpt lat="40.875109851664355" lon="9.256905256336855"><ele>498.75</ele><time>2026-03-27T14:57:12.999Z</time></trkpt><trkpt lat="40.875129681139214" lon="9.257106382998783"><ele>495.5</ele><time>2026-03-27T14:57:13.999Z</time></trkpt><trkpt lat="40.875176355782465" lon="9.257280755362506"><ele>492.25</ele><time>2026-03-27T14:57:14.999Z</time></trkpt><trkpt lat="40.87526632515953" lon="9.25742546457671"><ele>489.0</ele><time>2026-03-27T14:57:15.999Z</time></trkpt><trkpt lat="40.875389644686884" lon="9.257509475274166"><ele>485.66666666666663</ele><time>2026-03-27T14:57:16.999Z</time></trkpt><trkpt lat="40.87553969653036" lon="9.257542221186682"><ele>482.3333333333333</ele><time>2026-03-27T14:57:17.998Z</time></trkpt><trkpt lat="40.87569643144443" lon="9.257541850986744"><ele>479.0</ele><time>2026-03-27T14:57:18.998Z</time></trkpt><trkpt lat="40.875841958908985" lon="9.25750955288452"><ele>478.75</ele><time>2026-03-27T14:57:19.998Z</time></trkpt><trkpt lat="40.87596874533895" lon="9.257419362900349"><ele>478.5</ele><time>2026-03-27T14:57:20.998Z</time></trkpt><trkpt lat="40.876076311813655" lon="9.257277574810459"><ele>478.25</ele><time>2026-03-27T14:57:21.998Z</time></trkpt><trkpt lat="40.87614890488851" lon="9.257111361737708"><ele>478.0</ele><time>2026-03-27T14:57:22.998Z</time></trkpt><trkpt lat="40.87622762634984" lon="9.256942647467845"><ele>478.0</ele><time>2026-03-27T14:57:23.998Z</time></trkpt><trkpt lat="40.876323571225015" lon="9.256812969201524"><ele>478.0</ele><time>2026-03-27T14:57:24.998Z</time></trkpt><trkpt lat="40.87644296018042" lon="9.256736451865041"><ele>478.0</ele><time>2026-03-27T14:57:25.998Z</time></trkpt><trkpt lat="40.87658818867491" lon="9.256720571390742"><ele>478.0</ele><time>2026-03-27T14:57:26.998Z</time></trkpt><trkpt lat="40.87675794029493" lon="9.256734212940179"><ele>473.0</ele><time>2026-03-27T14:57:27.998Z</time></trkpt><trkpt lat="40.87693582577944" lon="9.256751090975252"><ele>468.0</ele><time>2026-03-27T14:57:28.998Z</time></trkpt><trkpt lat="40.87711380661003" lon="9.25676699688606"><ele>463.0</ele><time>2026-03-27T14:57:29.998Z</time></trkpt><trkpt lat="40.87728647802405" lon="9.256763122622948"><ele>463.0</ele><time>2026-03-27T14:57:30.998Z</time></trkpt><trkpt lat="40.87744442410249" lon="9.256799882797827"><ele>463.0</ele><time>2026-03-27T14:57:31.998Z</time></trkpt><trkpt lat="40.87760254557" lon="9.25680740058954"><ele>463.0</ele><time>2026-03-27T14:57:32.998Z</time></trkpt><trkpt lat="40.87775718657249" lon="9.25675169555374"><ele>459.0</ele><time>2026-03-27T14:57:33.998Z</time></trkpt><trkpt lat="40.87788106861326" lon="9.256623488864166"><ele>455.0</ele><time>2026-03-27T14:57:34.998Z</time></trkpt><trkpt lat="40.87796942861789" lon="9.256454932571037"><ele>451.0</ele><time>2026-03-27T14:57:35.998Z</time></trkpt><trkpt lat="40.877981790835285" lon="9.256245401791396"><ele>451.0</ele><time>2026-03-27T14:57:36.998Z</time></trkpt><trkpt lat="40.87800765769393" lon="9.256053740988671"><ele>451.0</ele><time>2026-03-27T14:57:37.998Z</time></trkpt><trkpt lat="40.87801990138718" lon="9.25585917247719"><ele>451.0</ele><time>2026-03-27T14:57:38.998Z</time></trkpt><trkpt lat="40.87806673093388" lon="9.255680889641118"><ele>451.0</ele><time>2026-03-27T14:57:39.998Z</time></trkpt><trkpt lat="40.87814910728895" lon="9.255537096442467"><ele>451.8</ele><time>2026-03-27T14:57:40.998Z</time></trkpt><trkpt lat="40.878252077207506" lon="9.255418988440786"><ele>452.6</ele><time>2026-03-27T14:57:41.998Z</time></trkpt><trkpt lat="40.878347039839085" lon="9.255320012780576"><ele>453.4</ele><time>2026-03-27T14:57:42.998Z</time></trkpt><trkpt lat="40.87842664575723" lon="9.255257090576606"><ele>454.2</ele><time>2026-03-27T14:57:43.998Z</time></trkpt><trkpt lat="40.87851280895729" lon="9.255258223528596"><ele>455.0</ele><time>2026-03-27T14:57:44.998Z</time></trkpt><trkpt lat="40.87859850914848" lon="9.255304830255785"><ele>459.0</ele><time>2026-03-27T14:57:45.998Z</time></trkpt><trkpt lat="40.878669292576156" lon="9.255435735184022"><ele>463.0</ele><time>2026-03-27T14:57:46.998Z</time></trkpt><trkpt lat="40.87871431191068" lon="9.255610901856887"><ele>467.0</ele><time>2026-03-27T14:57:47.998Z</time></trkpt><trkpt lat="40.878752820964" lon="9.255819618811207"><ele>471.0</ele><time>2026-03-27T14:57:48.998Z</time></trkpt><trkpt lat="40.8788085040444" lon="9.256053314055865"><ele>471.0</ele><time>2026-03-27T14:57:49.998Z</time></trkpt><trkpt lat="40.878880261501166" lon="9.256299098102234"><ele>471.0</ele><time>2026-03-27T14:57:50.998Z</time></trkpt><trkpt lat="40.878953552768365" lon="9.256520555524054"><ele>471.0</ele><time>2026-03-27T14:57:51.998Z</time></trkpt><trkpt lat="40.879028791462325" lon="9.256744792440431"><ele>469.66666666666663</ele><time>2026-03-27T14:57:52.998Z</time></trkpt><trkpt lat="40.87910620379347" lon="9.256970481604004"><ele>468.3333333333333</ele><time>2026-03-27T14:57:53.998Z</time></trkpt><trkpt lat="40.87918205463759" lon="9.257199020228194"><ele>467.0</ele><time>2026-03-27T14:57:54.998Z</time></trkpt><trkpt lat="40.8792564864982" lon="9.25743120191566"><ele>471.0</ele><time>2026-03-27T14:57:55.998Z</time></trkpt><trkpt lat="40.87931774986397" lon="9.25766528719545"><ele>475.0</ele><time>2026-03-27T14:57:57Z</time></trkpt><trkpt lat="40.8793357310408" lon="9.257877192187305"><ele>479.0</ele><time>2026-03-27T14:57:58Z</time></trkpt><trkpt lat="40.879347011578304" lon="9.258064919121821"><ele>476.5</ele><time>2026-03-27T14:57:59Z</time></trkpt><trkpt lat="40.87940375892084" lon="9.258220390818272"><ele>474.0</ele><time>2026-03-27T14:58:00Z</time></trkpt><trkpt lat="40.87950726174107" lon="9.258347631174287"><ele>471.5</ele><time>2026-03-27T14:58:01Z</time></trkpt><trkpt lat="40.87963487279847" lon="9.258408594386294"><ele>469.0</ele><time>2026-03-27T14:58:02Z</time></trkpt><trkpt lat="40.879775247583424" lon="9.258419458688255"><ele>469.0</ele><time>2026-03-27T14:58:03Z</time></trkpt><trkpt lat="40.87990720787221" lon="9.258329197058208"><ele>469.0</ele><time>2026-03-27T14:58:04Z</time></trkpt><trkpt lat="40.87997616858688" lon="9.258156081990608"><ele>469.0</ele><time>2026-03-27T14:58:05Z</time></trkpt><trkpt lat="40.8800023529387" lon="9.25798099414431"><ele>469.0</ele><time>2026-03-27T14:58:06Z</time></trkpt><trkpt lat="40.8799730282393" lon="9.257802949194554"><ele>471.5</ele><time>2026-03-27T14:58:07Z</time></trkpt><trkpt lat="40.879894332738345" lon="9.257636680342683"><ele>474.0</ele><time>2026-03-27T14:58:08Z</time></trkpt><trkpt lat="40.87980820707794" lon="9.257478139649221"><ele>476.5</ele><time>2026-03-27T14:58:09Z</time></trkpt><trkpt lat="40.879790962000556" lon="9.257297954360972"><ele>479.0</ele><time>2026-03-27T14:58:10Z</time></trkpt><trkpt lat="40.87981178710955" lon="9.257119374580377"><ele>481.75</ele><time>2026-03-27T14:58:11Z</time></trkpt><trkpt lat="40.87984095179625" lon="9.256933051483205"><ele>484.5</ele><time>2026-03-27T14:58:12Z</time></trkpt><trkpt lat="40.87984525826925" lon="9.256771735905224"><ele>487.25</ele><time>2026-03-27T14:58:13Z</time></trkpt><trkpt lat="40.87978624590956" lon="9.256579015410077"><ele>490.0</ele><time>2026-03-27T14:58:14Z</time></trkpt><trkpt lat="40.87969061832738" lon="9.256420927111858"><ele>492.75</ele><time>2026-03-27T14:58:15Z</time></trkpt><trkpt lat="40.8796076812551" lon="9.256260216654718"><ele>495.5</ele><time>2026-03-27T14:58:16Z</time></trkpt><trkpt lat="40.87953680474528" lon="9.256104639210573"><ele>498.25</ele><time>2026-03-27T14:58:17Z</time></trkpt><trkpt lat="40.87953689220305" lon="9.25597479933947"><ele>501.0</ele><time>2026-03-27T14:58:18Z</time></trkpt><trkpt lat="40.879574865910826" lon="9.255838311125794"><ele>501.0</ele><time>2026-03-27T14:58:19Z</time></trkpt><trkpt lat="40.8796673884927" lon="9.255814713718083"><ele>501.0</ele><time>2026-03-27T14:58:20Z</time></trkpt><trkpt lat="40.879746636451735" lon="9.255823881438507"><ele>501.0</ele><time>2026-03-27T14:58:21Z</time></trkpt><trkpt lat="40.87981962633575" lon="9.255875836431459"><ele>501.0</ele><time>2026-03-27T14:58:22Z</time></trkpt><trkpt lat="40.87988399825" lon="9.255992714176873"><ele>501.0</ele><time>2026-03-27T14:58:23Z</time></trkpt><trkpt lat="40.87989161285851" lon="9.256153085973923"><ele>501.0</ele><time>2026-03-27T14:58:24Z</time></trkpt><trkpt lat="40.87992914736942" lon="9.25632315533767"><ele>501.0</ele><time>2026-03-27T14:58:25Z</time></trkpt><trkpt lat="40.87997109210893" lon="9.256424150256944"><ele>501.0</ele><time>2026-03-27T14:58:25.999Z</time></trkpt><trkpt lat="40.88010206674904" lon="9.25656430935626"><ele>501.0</ele><time>2026-03-27T14:58:26.999Z</time></trkpt><trkpt lat="40.88021556571601" lon="9.256698789919033"><ele>500.25</ele><time>2026-03-27T14:58:27.999Z</time></trkpt><trkpt lat="40.88033881570019" lon="9.256811236779091"><ele>499.5</ele><time>2026-03-27T14:58:28.999Z</time></trkpt><trkpt lat="40.88046037437606" lon="9.25687462931607"><ele>498.75</ele><time>2026-03-27T14:58:29.999Z</time></trkpt><trkpt lat="40.88062549680111" lon="9.256826408137908"><ele>498.0</ele><time>2026-03-27T14:58:30.999Z</time></trkpt><trkpt lat="40.88073481279479" lon="9.256715391381316"><ele>498.0</ele><time>2026-03-27T14:58:31.999Z</time></trkpt><trkpt lat="40.880838645588206" lon="9.256550465073124"><ele>498.0</ele><time>2026-03-27T14:58:32.999Z</time></trkpt><trkpt lat="40.88092745255258" lon="9.256344758929137"><ele>498.0</ele><time>2026-03-27T14:58:33.999Z</time></trkpt><trkpt lat="40.88099605703143" lon="9.256124702820838"><ele>504.0</ele><time>2026-03-27T14:58:34.999Z</time></trkpt><trkpt lat="40.88108961684708" lon="9.255883356062101"><ele>510.0</ele><time>2026-03-27T14:58:35.999Z</time></trkpt><trkpt lat="40.8811795315152" lon="9.255679959651474"><ele>516.0</ele><time>2026-03-27T14:58:36.999Z</time></trkpt><trkpt lat="40.88128378132612" lon="9.255547417331337"><ele>518.4</ele><time>2026-03-27T14:58:37.999Z</time></trkpt><trkpt lat="40.881415116587725" lon="9.255448787446987"><ele>520.8</ele><time>2026-03-27T14:58:38.999Z</time></trkpt><trkpt lat="40.88151844879406" lon="9.25539362495945"><ele>523.1999999999999</ele><time>2026-03-27T14:58:39.999Z</time></trkpt><trkpt lat="40.881597103739466" lon="9.255336800059698"><ele>525.6</ele><time>2026-03-27T14:58:40.999Z</time></trkpt><trkpt lat="40.88168196728127" lon="9.25536807301412"><ele>528.0</ele><time>2026-03-27T14:58:41.999Z</time></trkpt><trkpt lat="40.88172181772312" lon="9.255513530075786"><ele>528.5</ele><time>2026-03-27T14:58:43.999Z</time></trkpt><trkpt lat="40.88175347982171" lon="9.25564674358032"><ele>529.0</ele><time>2026-03-27T14:58:44.999Z</time></trkpt><trkpt lat="40.88178518292633" lon="9.255813423932524"><ele>529.5</ele><time>2026-03-27T14:58:45.999Z</time></trkpt><trkpt lat="40.88182013923106" lon="9.255965289960168"><ele>530.0</ele><time>2026-03-27T14:58:46.999Z</time></trkpt><trkpt lat="40.881871338397545" lon="9.256132208786308"><ele>530.0</ele><time>2026-03-27T14:58:47.999Z</time></trkpt><trkpt lat="40.881921997246764" lon="9.25632708524883"><ele>530.0</ele><time>2026-03-27T14:58:48.999Z</time></trkpt><trkpt lat="40.88196007493645" lon="9.256544374497198"><ele>530.0</ele><time>2026-03-27T14:58:49.999Z</time></trkpt><trkpt lat="40.8820431524765" lon="9.256761967270354"><ele>527.0</ele><time>2026-03-27T14:58:50.999Z</time></trkpt><trkpt lat="40.88213857126597" lon="9.256980619020275"><ele>524.0</ele><time>2026-03-27T14:58:51.999Z</time></trkpt><trkpt lat="40.88224319050356" lon="9.257183452549814"><ele>521.0</ele><time>2026-03-27T14:58:52.999Z</time></trkpt><trkpt lat="40.882351052082" lon="9.257369270072564"><ele>516.3333333333333</ele><time>2026-03-27T14:58:53.999Z</time></trkpt><trkpt lat="40.88246019071107" lon="9.257532098089305"><ele>511.66666666666663</ele><time>2026-03-27T14:58:54.999Z</time></trkpt><trkpt lat="40.88258640993418" lon="9.25767427058653"><ele>507.0</ele><time>2026-03-27T14:58:55.999Z</time></trkpt><trkpt lat="40.882739773053245" lon="9.257755965392144"><ele>506.33333333333337</ele><time>2026-03-27T14:58:56.999Z</time></trkpt><trkpt lat="40.88288899032025" lon="9.257831158178865"><ele>505.6666666666667</ele><time>2026-03-27T14:58:57.999Z</time></trkpt><trkpt lat="40.88303464465562" lon="9.257797266532824"><ele>505.0</ele><time>2026-03-27T14:58:58.999Z</time></trkpt><trkpt lat="40.8831946504448" lon="9.257695818843484"><ele>505.0</ele><time>2026-03-27T14:58:59.999Z</time></trkpt><trkpt lat="40.88334404847902" lon="9.257544504594415"><ele>505.0</ele><time>2026-03-27T14:59:00.999Z</time></trkpt><trkpt lat="40.88345659740019" lon="9.25739488278622"><ele>505.0</ele><time>2026-03-27T14:59:01.999Z</time></trkpt><trkpt lat="40.883551952818884" lon="9.257380359121195"><ele>505.0</ele><time>2026-03-27T14:59:02.999Z</time></trkpt><trkpt lat="40.883677372178546" lon="9.257403996129568"><ele>504.0</ele><time>2026-03-27T14:59:03.999Z</time></trkpt><trkpt lat="40.88379493949306" lon="9.257497972191475"><ele>503.0</ele><time>2026-03-27T14:59:04.999Z</time></trkpt><trkpt lat="40.883923380728966" lon="9.257621900176128"><ele>502.0</ele><time>2026-03-27T14:59:05.999Z</time></trkpt><trkpt lat="40.88404011955962" lon="9.257706533776048"><ele>501.0</ele><time>2026-03-27T14:59:06.999Z</time></trkpt><trkpt lat="40.8841620882468" lon="9.257726860921055"><ele>500.25</ele><time>2026-03-27T14:59:07.999Z</time></trkpt><trkpt lat="40.88429247225886" lon="9.257684461121368"><ele>499.5</ele><time>2026-03-27T14:59:08.999Z</time></trkpt><trkpt lat="40.88441293417289" lon="9.257570699225546"><ele>498.75</ele><time>2026-03-27T14:59:09.999Z</time></trkpt><trkpt lat="40.884531159546185" lon="9.2574417887316"><ele>498.0</ele><time>2026-03-27T14:59:10.999Z</time></trkpt><trkpt lat="40.88468072098832" lon="9.257406835123838"><ele>498.0</ele><time>2026-03-27T14:59:11.999Z</time></trkpt><trkpt lat="40.88485264847707" lon="9.25741632592786"><ele>498.0</ele><time>2026-03-27T14:59:12.999Z</time></trkpt><trkpt lat="40.88500363507576" lon="9.257477126338"><ele>498.0</ele><time>2026-03-27T14:59:13.999Z</time></trkpt><trkpt lat="40.885172118190546" lon="9.257563533841573"><ele>500.33333333333337</ele><time>2026-03-27T14:59:14.999Z</time></trkpt><trkpt lat="40.8853443016323" lon="9.257655260451244"><ele>502.6666666666667</ele><time>2026-03-27T14:59:15.999Z</time></trkpt><trkpt lat="40.88552804896507" lon="9.25775295317525"><ele>505.0</ele><time>2026-03-27T14:59:16.999Z</time></trkpt><trkpt lat="40.88570782624796" lon="9.257848535162207"><ele>505.0</ele><time>2026-03-27T14:59:17.998Z</time></trkpt><trkpt lat="40.88585702151697" lon="9.257952214791015"><ele>505.0</ele><time>2026-03-27T14:59:18.998Z</time></trkpt><trkpt lat="40.88597758045351" lon="9.258103541732096"><ele>505.0</ele><time>2026-03-27T14:59:19.998Z</time></trkpt><trkpt lat="40.88603158184152" lon="9.258261318305928"><ele>510.33333333333337</ele><time>2026-03-27T14:59:20.998Z</time></trkpt><trkpt lat="40.88603803404741" lon="9.258431885869303"><ele>515.6666666666666</ele><time>2026-03-27T14:59:21.998Z</time></trkpt><trkpt lat="40.886062035391916" lon="9.258644295008922"><ele>521.0</ele><time>2026-03-27T14:59:22.998Z</time></trkpt><trkpt lat="40.88610866907005" lon="9.25885693700669"><ele>513.0</ele><time>2026-03-27T14:59:23.998Z</time></trkpt><trkpt lat="40.88617657745607" lon="9.259073704974194"><ele>505.0</ele><time>2026-03-27T14:59:24.998Z</time></trkpt><trkpt lat="40.88630214877013" lon="9.259257007908008"><ele>497.0</ele><time>2026-03-27T14:59:25.998Z</time></trkpt><trkpt lat="40.886455819523576" lon="9.259414380735732"><ele>497.0</ele><time>2026-03-27T14:59:26.998Z</time></trkpt><trkpt lat="40.88662188161125" lon="9.259553654268611"><ele>497.0</ele><time>2026-03-27T14:59:27.998Z</time></trkpt><trkpt lat="40.88680522237736" lon="9.259677483157432"><ele>497.0</ele><time>2026-03-27T14:59:28.998Z</time></trkpt><trkpt lat="40.88697645697247" lon="9.259810260870168"><ele>494.3333333333333</ele><time>2026-03-27T14:59:29.998Z</time></trkpt><trkpt lat="40.88714503962535" lon="9.259962529813865"><ele>491.66666666666663</ele><time>2026-03-27T14:59:30.998Z</time></trkpt><trkpt lat="40.88731805746233" lon="9.260107283438245"><ele>489.0</ele><time>2026-03-27T14:59:31.998Z</time></trkpt><trkpt lat="40.88748336507687" lon="9.260249686093587"><ele>484.0</ele><time>2026-03-27T14:59:32.998Z</time></trkpt><trkpt lat="40.8876451133702" lon="9.260406469754086"><ele>479.0</ele><time>2026-03-27T14:59:33.998Z</time></trkpt><trkpt lat="40.88778742270648" lon="9.260571464666471"><ele>474.0</ele><time>2026-03-27T14:59:34.998Z</time></trkpt><trkpt lat="40.88793954222064" lon="9.260724643912402"><ele>474.0</ele><time>2026-03-27T14:59:35.998Z</time></trkpt><trkpt lat="40.88810775107982" lon="9.260844479633178"><ele>474.0</ele><time>2026-03-27T14:59:36.998Z</time></trkpt><trkpt lat="40.88828915150601" lon="9.260947767566218"><ele>474.0</ele><time>2026-03-27T14:59:37.998Z</time></trkpt><trkpt lat="40.88847888349324" lon="9.261017941128314"><ele>476.0</ele><time>2026-03-27T14:59:38.998Z</time></trkpt><trkpt lat="40.888668746400285" lon="9.261063481548163"><ele>478.0</ele><time>2026-03-27T14:59:39.998Z</time></trkpt><trkpt lat="40.88885992208197" lon="9.261101614136878"><ele>480.0</ele><time>2026-03-27T14:59:40.998Z</time></trkpt><trkpt lat="40.889048402257465" lon="9.26118130520468"><ele>480.0</ele><time>2026-03-27T14:59:41.998Z</time></trkpt><trkpt lat="40.88922033538731" lon="9.261306563955088"><ele>480.0</ele><time>2026-03-27T14:59:42.998Z</time></trkpt><trkpt lat="40.88937464948195" lon="9.26144682596592"><ele>480.0</ele><time>2026-03-27T14:59:43.998Z</time></trkpt><trkpt lat="40.889498885727946" lon="9.261534648292331"><ele>480.5</ele><time>2026-03-27T14:59:44.998Z</time></trkpt><trkpt lat="40.88961926720705" lon="9.261540358264526"><ele>481.0</ele><time>2026-03-27T14:59:45.998Z</time></trkpt><trkpt lat="40.889750764241455" lon="9.261495657455166"><ele>481.5</ele><time>2026-03-27T14:59:46.998Z</time></trkpt><trkpt lat="40.88987880163966" lon="9.261375626315779"><ele>482.0</ele><time>2026-03-27T14:59:47.998Z</time></trkpt><trkpt lat="40.89000095958489" lon="9.261278841550636"><ele>482.0</ele><time>2026-03-27T14:59:48.998Z</time></trkpt><trkpt lat="40.89013671543821" lon="9.261251794146816"><ele>482.0</ele><time>2026-03-27T14:59:49.998Z</time></trkpt><trkpt lat="40.89027847003268" lon="9.261304117805595"><ele>482.0</ele><time>2026-03-27T14:59:50.998Z</time></trkpt><trkpt lat="40.89043909360374" lon="9.26138842141734"><ele>473.3333333333333</ele><time>2026-03-27T14:59:51.998Z</time></trkpt><trkpt lat="40.89059372677298" lon="9.261469941497477"><ele>464.66666666666663</ele><time>2026-03-27T14:59:52.998Z</time></trkpt><trkpt lat="40.89075635140207" lon="9.261560195559738"><ele>456.0</ele><time>2026-03-27T14:59:53.998Z</time></trkpt><trkpt lat="40.89094768943189" lon="9.261625658851266"><ele>455.66666666666663</ele><time>2026-03-27T14:59:54.998Z</time></trkpt><trkpt lat="40.891096625403314" lon="9.261711123421994"><ele>455.3333333333333</ele><time>2026-03-27T14:59:55.998Z</time></trkpt><trkpt lat="40.891260374404446" lon="9.26178523656874"><ele>455.0</ele><time>2026-03-27T14:59:56.998Z</time></trkpt><trkpt lat="40.89142323759889" lon="9.261824746970282"><ele>455.0</ele><time>2026-03-27T14:59:57.998Z</time></trkpt><trkpt lat="40.89158567632528" lon="9.261860427034392"><ele>455.0</ele><time>2026-03-27T14:59:58.998Z</time></trkpt><trkpt lat="40.89176326785747" lon="9.261817003283692"><ele>455.0</ele><time>2026-03-27T14:59:59.998Z</time></trkpt><trkpt lat="40.89194623696419" lon="9.261728765613988"><ele>455.3333333333333</ele><time>2026-03-27T15:00:00.998Z</time></trkpt><trkpt lat="40.892125988233595" lon="9.261631938887591"><ele>455.66666666666663</ele><time>2026-03-27T15:00:01.998Z</time></trkpt><trkpt lat="40.89228361847247" lon="9.261539935172687"><ele>456.0</ele><time>2026-03-27T15:00:03Z</time></trkpt><trkpt lat="40.892435302526806" lon="9.261412935405474"><ele>456.0</ele><time>2026-03-27T15:00:04Z</time></trkpt><trkpt lat="40.89255831745691" lon="9.26124121942468"><ele>456.0</ele><time>2026-03-27T15:00:05Z</time></trkpt><trkpt lat="40.89265672919671" lon="9.261058544277581"><ele>456.0</ele><time>2026-03-27T15:00:06Z</time></trkpt><trkpt lat="40.892737194788936" lon="9.260909507759399"><ele>456.6</ele><time>2026-03-27T15:00:07Z</time></trkpt><trkpt lat="40.89281393511468" lon="9.260797306403958"><ele>457.20000000000005</ele><time>2026-03-27T15:00:08Z</time></trkpt><trkpt lat="40.892909296014906" lon="9.260736482553419"><ele>457.79999999999995</ele><time>2026-03-27T15:00:09Z</time></trkpt><trkpt lat="40.893020403472136" lon="9.260719095827096"><ele>458.4</ele><time>2026-03-27T15:00:10Z</time></trkpt><trkpt lat="40.893121514491156" lon="9.260746372076285"><ele>459.0</ele><time>2026-03-27T15:00:11Z</time></trkpt><trkpt lat="40.89317817738332" lon="9.260839401880157"><ele>459.0</ele><time>2026-03-27T15:00:12Z</time></trkpt><trkpt lat="40.89317925466847" lon="9.260997994510594"><ele>459.0</ele><time>2026-03-27T15:00:13Z</time></trkpt><trkpt lat="40.89314751396003" lon="9.261181264292821"><ele>459.0</ele><time>2026-03-27T15:00:14Z</time></trkpt><trkpt lat="40.89315456462628" lon="9.261356254038276"><ele>459.0</ele><time>2026-03-27T15:00:15Z</time></trkpt><trkpt lat="40.893173443084365" lon="9.261620998583854"><ele>455.66666666666663</ele><time>2026-03-27T15:00:16Z</time></trkpt><trkpt lat="40.893202251358886" lon="9.261871362345307"><ele>452.3333333333333</ele><time>2026-03-27T15:00:17Z</time></trkpt><trkpt lat="40.89323867202227" lon="9.262124816482816"><ele>449.0</ele><time>2026-03-27T15:00:18Z</time></trkpt><trkpt lat="40.89325909386913" lon="9.262352715436407"><ele>445.3333333333333</ele><time>2026-03-27T15:00:19Z</time></trkpt><trkpt lat="40.893238417380786" lon="9.262575363601393"><ele>441.66666666666663</ele><time>2026-03-27T15:00:20Z</time></trkpt><trkpt lat="40.89316920518731" lon="9.262780502495804"><ele>438.0</ele><time>2026-03-27T15:00:21Z</time></trkpt><trkpt lat="40.893115818216636" lon="9.262975755827698"><ele>436.33333333333337</ele><time>2026-03-27T15:00:22Z</time></trkpt><trkpt lat="40.893097138306736" lon="9.263185638740866"><ele>434.6666666666667</ele><time>2026-03-27T15:00:23Z</time></trkpt><trkpt lat="40.893138689283965" lon="9.26337996218824"><ele>433.0</ele><time>2026-03-27T15:00:24Z</time></trkpt><trkpt lat="40.89325844304507" lon="9.263572658453038"><ele>433.0</ele><time>2026-03-27T15:00:25Z</time></trkpt><trkpt lat="40.893408773167955" lon="9.263711941837075"><ele>433.0</ele><time>2026-03-27T15:00:25.999Z</time></trkpt><trkpt lat="40.8935790650926" lon="9.26379655049818"><ele>433.0</ele><time>2026-03-27T15:00:26.999Z</time></trkpt><trkpt lat="40.89376800816021" lon="9.263839088608277"><ele>433.0</ele><time>2026-03-27T15:00:27.999Z</time></trkpt><trkpt lat="40.89394906916075" lon="9.263905507428383"><ele>433.0</ele><time>2026-03-27T15:00:28.999Z</time></trkpt><trkpt lat="40.8941172347592" lon="9.263983190094981"><ele>433.0</ele><time>2026-03-27T15:00:29.999Z</time></trkpt><trkpt lat="40.89426405266533" lon="9.264077974449224"><ele>433.0</ele><time>2026-03-27T15:00:30.999Z</time></trkpt><trkpt lat="40.89438555779139" lon="9.264164641914899"><ele>432.99999999999994</ele><time>2026-03-27T15:00:31.999Z</time></trkpt><trkpt lat="40.89447577520965" lon="9.2642340352358"><ele>432.99999999999994</ele><time>2026-03-27T15:00:32.999Z</time></trkpt><trkpt lat="40.89455988958699" lon="9.26431606770876"><ele>433.0</ele><time>2026-03-27T15:00:33.999Z</time></trkpt><trkpt lat="40.8946196545139" lon="9.264413142744216"><ele>433.0</ele><time>2026-03-27T15:00:34.999Z</time></trkpt><trkpt lat="40.894665268371746" lon="9.264517716917462"><ele>433.0</ele><time>2026-03-27T15:00:35.999Z</time></trkpt><trkpt lat="40.8946529946489" lon="9.264620522912518"><ele>432.99999999999994</ele><time>2026-03-27T15:00:36.999Z</time></trkpt><trkpt lat="40.89465041457238" lon="9.264704078423515"><ele>432.99999999999994</ele><time>2026-03-27T15:00:37.999Z</time></trkpt><trkpt lat="40.894752208268365" lon="9.264874509800626"><ele>433.0</ele><time>2026-03-27T15:00:39.999Z</time></trkpt><trkpt lat="40.89484066904654" lon="9.264996370139666"><ele>433.0</ele><time>2026-03-27T15:00:40.999Z</time></trkpt><trkpt lat="40.89494594189393" lon="9.26512295887134"><ele>430.25</ele><time>2026-03-27T15:00:41.999Z</time></trkpt><trkpt lat="40.895052118238084" lon="9.265251327601513"><ele>427.5</ele><time>2026-03-27T15:00:42.999Z</time></trkpt><trkpt lat="40.89516049706496" lon="9.265363740883291"><ele>424.75</ele><time>2026-03-27T15:00:43.999Z</time></trkpt><trkpt lat="40.895283916183025" lon="9.265415461394015"><ele>422.0</ele><time>2026-03-27T15:00:44.999Z</time></trkpt><trkpt lat="40.895420062215074" lon="9.265440583918961"><ele>422.0</ele><time>2026-03-27T15:00:45.999Z</time></trkpt><trkpt lat="40.89554950465797" lon="9.265439584770046"><ele>422.0</ele><time>2026-03-27T15:00:46.999Z</time></trkpt><trkpt lat="40.89570332350187" lon="9.265466089042075"><ele>422.0</ele><time>2026-03-27T15:00:47.999Z</time></trkpt><trkpt lat="40.89584592476648" lon="9.265513609866396"><ele>422.0</ele><time>2026-03-27T15:00:48.999Z</time></trkpt><trkpt lat="40.89595194481705" lon="9.265615759470988"><ele>426.0</ele><time>2026-03-27T15:00:49.999Z</time></trkpt><trkpt lat="40.896041901983764" lon="9.265738494183623"><ele>430.0</ele><time>2026-03-27T15:00:50.999Z</time></trkpt><trkpt lat="40.89615752750786" lon="9.26587573553194"><ele>434.0</ele><time>2026-03-27T15:00:51.999Z</time></trkpt><trkpt lat="40.89626876785312" lon="9.266041034398777"><ele>434.0</ele><time>2026-03-27T15:00:52.999Z</time></trkpt><trkpt lat="40.896402457305605" lon="9.266210712738996"><ele>434.0</ele><time>2026-03-27T15:00:53.999Z</time></trkpt><trkpt lat="40.89653930473862" lon="9.266384941458414"><ele>434.0</ele><time>2026-03-27T15:00:54.999Z</time></trkpt><trkpt lat="40.896685295926865" lon="9.266541055559827"><ele>439.66666666666663</ele><time>2026-03-27T15:00:55.999Z</time></trkpt><trkpt lat="40.89683536770765" lon="9.266661707644376"><ele>445.33333333333337</ele><time>2026-03-27T15:00:56.999Z</time></trkpt><trkpt lat="40.896964127484424" lon="9.266825267948967"><ele>451.0</ele><time>2026-03-27T15:00:57.999Z</time></trkpt><trkpt lat="40.89711531546809" lon="9.266977929005307"><ele>451.0</ele><time>2026-03-27T15:00:58.999Z</time></trkpt><trkpt lat="40.89728801584402" lon="9.267098615307255"><ele>451.0</ele><time>2026-03-27T15:00:59.999Z</time></trkpt><trkpt lat="40.897459368651894" lon="9.267223674046868"><ele>451.0</ele><time>2026-03-27T15:01:00.999Z</time></trkpt><trkpt lat="40.89762177122738" lon="9.267352913150717"><ele>449.0</ele><time>2026-03-27T15:01:01.999Z</time></trkpt><trkpt lat="40.89780250896681" lon="9.26744319561716"><ele>447.0</ele><time>2026-03-27T15:01:02.999Z</time></trkpt><trkpt lat="40.897987090913944" lon="9.267474655345769"><ele>445.0</ele><time>2026-03-27T15:01:03.999Z</time></trkpt><trkpt lat="40.89815152619424" lon="9.267594830993175"><ele>445.0</ele><time>2026-03-27T15:01:04.999Z</time></trkpt><trkpt lat="40.898331904254775" lon="9.26768504772676"><ele>445.0</ele><time>2026-03-27T15:01:05.999Z</time></trkpt><trkpt lat="40.89851678392656" lon="9.267742401260692"><ele>445.0</ele><time>2026-03-27T15:01:06.999Z</time></trkpt><trkpt lat="40.89870160164896" lon="9.267789033632262"><ele>451.0</ele><time>2026-03-27T15:01:07.999Z</time></trkpt><trkpt lat="40.89887564796628" lon="9.26786382686494"><ele>457.0</ele><time>2026-03-27T15:01:08.999Z</time></trkpt><trkpt lat="40.89904656478933" lon="9.267965130453275"><ele>463.0</ele><time>2026-03-27T15:01:09.999Z</time></trkpt><trkpt lat="40.89920394586282" lon="9.268069337979528"><ele>463.33333333333337</ele><time>2026-03-27T15:01:10.999Z</time></trkpt><trkpt lat="40.89936198411866" lon="9.268172262289362"><ele>463.66666666666663</ele><time>2026-03-27T15:01:11.999Z</time></trkpt><trkpt lat="40.89952023026569" lon="9.268276741152059"><ele>464.0</ele><time>2026-03-27T15:01:12.999Z</time></trkpt><trkpt lat="40.89968327664255" lon="9.268384945193054"><ele>464.0</ele><time>2026-03-27T15:01:13.999Z</time></trkpt><trkpt lat="40.899851029185434" lon="9.268492344936416"><ele>464.0</ele><time>2026-03-27T15:01:14.999Z</time></trkpt><trkpt lat="40.90001257665479" lon="9.26859750789465"><ele>464.0</ele><time>2026-03-27T15:01:15.999Z</time></trkpt><trkpt lat="40.90016903440721" lon="9.268711418761079"><ele>463.3333333333333</ele><time>2026-03-27T15:01:16.999Z</time></trkpt><trkpt lat="40.900324399092796" lon="9.268825138181924"><ele>462.66666666666663</ele><time>2026-03-27T15:01:17.999Z</time></trkpt><trkpt lat="40.9004600580697" lon="9.268964493582782"><ele>462.0</ele><time>2026-03-27T15:01:18.998Z</time></trkpt><trkpt lat="40.90059339909125" lon="9.269135140429334"><ele>462.0</ele><time>2026-03-27T15:01:19.998Z</time></trkpt><trkpt lat="40.90072026802163" lon="9.269326236581243"><ele>462.0</ele><time>2026-03-27T15:01:20.998Z</time></trkpt><trkpt lat="40.900842512526104" lon="9.269531816997242"><ele>462.0</ele><time>2026-03-27T15:01:21.998Z</time></trkpt><trkpt lat="40.90095650985807" lon="9.269725582048704"><ele>459.0</ele><time>2026-03-27T15:01:22.998Z</time></trkpt><trkpt lat="40.901062909258854" lon="9.269903180960602"><ele>456.0</ele><time>2026-03-27T15:01:23.998Z</time></trkpt><trkpt lat="40.901194567186906" lon="9.270052472282353"><ele>453.0</ele><time>2026-03-27T15:01:24.998Z</time></trkpt><trkpt lat="40.90133949817986" lon="9.270133812642838"><ele>453.0</ele><time>2026-03-27T15:01:25.998Z</time></trkpt><trkpt lat="40.90146077802454" lon="9.270207501144592"><ele>453.0</ele><time>2026-03-27T15:01:26.998Z</time></trkpt><trkpt lat="40.90156853752399" lon="9.270229451733554"><ele>453.0</ele><time>2026-03-27T15:01:27.998Z</time></trkpt><trkpt lat="40.90171024190184" lon="9.27025438482081"><ele>453.0</ele><time>2026-03-27T15:01:28.998Z</time></trkpt><trkpt lat="40.90187436675652" lon="9.270295314691571"><ele>452.0</ele><time>2026-03-27T15:01:29.998Z</time></trkpt><trkpt lat="40.90204317844538" lon="9.270352048039129"><ele>451.0</ele><time>2026-03-27T15:01:30.998Z</time></trkpt><trkpt lat="40.90216793366583" lon="9.2704349829939"><ele>450.0</ele><time>2026-03-27T15:01:31.998Z</time></trkpt><trkpt lat="40.90227488565027" lon="9.27051955239004"><ele>449.0</ele><time>2026-03-27T15:01:32.998Z</time></trkpt><trkpt lat="40.902315983850606" lon="9.270668139553647"><ele>449.0</ele><time>2026-03-27T15:01:33.998Z</time></trkpt><trkpt lat="40.902398039335864" lon="9.270764893643202"><ele>449.0</ele><time>2026-03-27T15:01:34.998Z</time></trkpt><trkpt lat="40.90246864328133" lon="9.270821893159194"><ele>449.0</ele><time>2026-03-27T15:01:35.998Z</time></trkpt><trkpt lat="40.902550032243596" lon="9.27084246209361"><ele>449.0</ele><time>2026-03-27T15:01:36.998Z</time></trkpt><trkpt lat="40.90265887394247" lon="9.270831514110162"><ele>449.0</ele><time>2026-03-27T15:01:37.998Z</time></trkpt><trkpt lat="40.90282743229338" lon="9.270845323489064"><ele>447.0</ele><time>2026-03-27T15:01:38.998Z</time></trkpt><trkpt lat="40.903004503094216" lon="9.270817796572416"><ele>445.0</ele><time>2026-03-27T15:01:39.998Z</time></trkpt><trkpt lat="40.903174560705445" lon="9.270791437948505"><ele>443.0</ele><time>2026-03-27T15:01:40.998Z</time></trkpt><trkpt lat="40.9033284417388" lon="9.270821534991343"><ele>439.0</ele><time>2026-03-27T15:01:41.998Z</time></trkpt><trkpt lat="40.9034780933581" lon="9.270888159514167"><ele>435.0</ele><time>2026-03-27T15:01:42.998Z</time></trkpt><trkpt lat="40.90363740385945" lon="9.270987561321784"><ele>431.0</ele><time>2026-03-27T15:01:43.998Z</time></trkpt><trkpt lat="40.903803415107625" lon="9.271104164886518"><ele>431.0</ele><time>2026-03-27T15:01:44.998Z</time></trkpt><trkpt lat="40.903971789839645" lon="9.27122480051081"><ele>431.0</ele><time>2026-03-27T15:01:45.998Z</time></trkpt><trkpt lat="40.904124937707934" lon="9.27133747471169"><ele>431.0</ele><time>2026-03-27T15:01:46.998Z</time></trkpt><trkpt lat="40.90430281372727" lon="9.271466390904886"><ele>428.3333333333333</ele><time>2026-03-27T15:01:47.998Z</time></trkpt><trkpt lat="40.90445739432189" lon="9.271582611821971"><ele>425.66666666666663</ele><time>2026-03-27T15:01:48.998Z</time></trkpt><trkpt lat="40.9045983818518" lon="9.271710010919856"><ele>423.0</ele><time>2026-03-27T15:01:49.998Z</time></trkpt><trkpt lat="40.90472135067774" lon="9.271849840556323"><ele>423.0</ele><time>2026-03-27T15:01:50.998Z</time></trkpt><trkpt lat="40.904839123553344" lon="9.272010323333124"><ele>423.0</ele><time>2026-03-27T15:01:51.998Z</time></trkpt><trkpt lat="40.90492640328122" lon="9.272158492146797"><ele>423.0</ele><time>2026-03-27T15:01:52.998Z</time></trkpt><trkpt lat="40.904998716761774" lon="9.272327762997255"><ele>423.5</ele><time>2026-03-27T15:01:53.998Z</time></trkpt><trkpt lat="40.9050768968215" lon="9.272456614697264"><ele>424.0</ele><time>2026-03-27T15:01:54.998Z</time></trkpt><trkpt lat="40.90515658147318" lon="9.27255825186754"><ele>424.5</ele><time>2026-03-27T15:01:55.998Z</time></trkpt><trkpt lat="40.905268111009384" lon="9.272622072109412"><ele>425.0</ele><time>2026-03-27T15:01:56.998Z</time></trkpt><trkpt lat="40.90537745016091" lon="9.272656887938016"><ele>425.0</ele><time>2026-03-27T15:01:57.998Z</time></trkpt><trkpt lat="40.90554848227123" lon="9.272677509264524"><ele>425.0</ele><time>2026-03-27T15:01:58.998Z</time></trkpt><trkpt lat="40.905716586100674" lon="9.27266668530629"><ele>425.0</ele><time>2026-03-27T15:01:59.998Z</time></trkpt><trkpt lat="40.90590353221163" lon="9.272690679823876"><ele>422.66666666666663</ele><time>2026-03-27T15:02:00.998Z</time></trkpt><trkpt lat="40.906064795295784" lon="9.272711769978772"><ele>420.33333333333337</ele><time>2026-03-27T15:02:01.998Z</time></trkpt><trkpt lat="40.90621789275721" lon="9.27273438773635"><ele>418.0</ele><time>2026-03-27T15:02:02.998Z</time></trkpt><trkpt lat="40.906355132371615" lon="9.272772086710122"><ele>418.0</ele><time>2026-03-27T15:02:03.998Z</time></trkpt><trkpt lat="40.90647787907701" lon="9.27284724686771"><ele>418.0</ele><time>2026-03-27T15:02:04.998Z</time></trkpt><trkpt lat="40.90660635747725" lon="9.272943433722663"><ele>418.0</ele><time>2026-03-27T15:02:05.998Z</time></trkpt><trkpt lat="40.90675519784851" lon="9.273051446380135"><ele>421.0</ele><time>2026-03-27T15:02:06.998Z</time></trkpt><trkpt lat="40.90691110398125" lon="9.273156374047101"><ele>424.0</ele><time>2026-03-27T15:02:07.998Z</time></trkpt><trkpt lat="40.9070803073299" lon="9.273250439573532"><ele>427.0</ele><time>2026-03-27T15:02:09Z</time></trkpt><trkpt lat="40.90726142858992" lon="9.273314618306154"><ele>427.0</ele><time>2026-03-27T15:02:10Z</time></trkpt><trkpt lat="40.90743222029465" lon="9.273358860334136"><ele>427.0</ele><time>2026-03-27T15:02:11Z</time></trkpt><trkpt lat="40.90759663868918" lon="9.27339210458466"><ele>427.0</ele><time>2026-03-27T15:02:12Z</time></trkpt><trkpt lat="40.90776932165396" lon="9.273381470493339"><ele>425.0</ele><time>2026-03-27T15:02:13Z</time></trkpt><trkpt lat="40.907932821963854" lon="9.27331478845259"><ele>423.0</ele><time>2026-03-27T15:02:14Z</time></trkpt><trkpt lat="40.90809376937038" lon="9.2732583541553"><ele>421.0</ele><time>2026-03-27T15:02:15Z</time></trkpt><trkpt lat="40.90826429609189" lon="9.273214170287217"><ele>416.0</ele><time>2026-03-27T15:02:16Z</time></trkpt><trkpt lat="40.908427017073535" lon="9.273226362785323"><ele>411.0</ele><time>2026-03-27T15:02:17Z</time></trkpt><trkpt lat="40.908590439304355" lon="9.273237412501539"><ele>406.0</ele><time>2026-03-27T15:02:18Z</time></trkpt><trkpt lat="40.908702437242454" lon="9.27330800318281"><ele>406.0</ele><time>2026-03-27T15:02:19Z</time></trkpt><trkpt lat="40.90880897968202" lon="9.27340141714074"><ele>406.0</ele><time>2026-03-27T15:02:20Z</time></trkpt><trkpt lat="40.90888296072083" lon="9.27352353240289"><ele>406.0</ele><time>2026-03-27T15:02:21Z</time></trkpt><trkpt lat="40.90892439649881" lon="9.273660811574125"><ele>406.0</ele><time>2026-03-27T15:02:22Z</time></trkpt><trkpt lat="40.90896695760864" lon="9.273789648918578"><ele>406.0</ele><time>2026-03-27T15:02:23Z</time></trkpt><trkpt lat="40.90900186433715" lon="9.273896311450308"><ele>406.0</ele><time>2026-03-27T15:02:24Z</time></trkpt><trkpt lat="40.90908041541358" lon="9.273958746902625"><ele>406.0</ele><time>2026-03-27T15:02:25Z</time></trkpt><trkpt lat="40.90920855579378" lon="9.273953920309491"><ele>406.0</ele><time>2026-03-27T15:02:26Z</time></trkpt><trkpt lat="40.909346266723034" lon="9.2739264002222"><ele>406.0</ele><time>2026-03-27T15:02:27Z</time></trkpt><trkpt lat="40.90949093475143" lon="9.27392358654812"><ele>402.6666666666667</ele><time>2026-03-27T15:02:28Z</time></trkpt><trkpt lat="40.90964141158527" lon="9.273931853112765"><ele>399.33333333333337</ele><time>2026-03-27T15:02:28.999Z</time></trkpt><trkpt lat="40.9098154118291" lon="9.273959560282073"><ele>396.0</ele><time>2026-03-27T15:02:29.999Z</time></trkpt><trkpt lat="40.90999821713701" lon="9.273991095373836"><ele>400.0</ele><time>2026-03-27T15:02:30.999Z</time></trkpt><trkpt lat="40.9101791071871" lon="9.273991807592461"><ele>404.0</ele><time>2026-03-27T15:02:31.999Z</time></trkpt><trkpt lat="40.9103532345437" lon="9.273987756088477"><ele>408.0</ele><time>2026-03-27T15:02:32.999Z</time></trkpt><trkpt lat="40.91052094729808" lon="9.273989267810025"><ele>408.0</ele><time>2026-03-27T15:02:33.999Z</time></trkpt><trkpt lat="40.91069654974347" lon="9.274000945163586"><ele>408.0</ele><time>2026-03-27T15:02:34.999Z</time></trkpt><trkpt lat="40.91085270365146" lon="9.274039148323814"><ele>408.0</ele><time>2026-03-27T15:02:35.999Z</time></trkpt><trkpt lat="40.911002461209264" lon="9.274096255688674"><ele>403.0</ele><time>2026-03-27T15:02:36.999Z</time></trkpt><trkpt lat="40.911147391922164" lon="9.27417384132573"><ele>398.0</ele><time>2026-03-27T15:02:37.999Z</time></trkpt><trkpt lat="40.91126325309942" lon="9.274293492156625"><ele>393.0</ele><time>2026-03-27T15:02:38.999Z</time></trkpt><trkpt lat="40.911368250895144" lon="9.274430645973034"><ele>393.0</ele><time>2026-03-27T15:02:39.999Z</time></trkpt><trkpt lat="40.911477067100066" lon="9.274574111454111"><ele>393.0</ele><time>2026-03-27T15:02:40.999Z</time></trkpt><trkpt lat="40.911570745296856" lon="9.274735259431894"><ele>393.0</ele><time>2026-03-27T15:02:41.999Z</time></trkpt><trkpt lat="40.91166070371685" lon="9.274881237497558"><ele>390.66666666666663</ele><time>2026-03-27T15:02:42.999Z</time></trkpt><trkpt lat="40.91177290586571" lon="9.275050051772244"><ele>388.3333333333333</ele><time>2026-03-27T15:02:43.999Z</time></trkpt><trkpt lat="40.911921055947616" lon="9.27517366235629"><ele>386.0</ele><time>2026-03-27T15:02:44.999Z</time></trkpt><trkpt lat="40.91207939712738" lon="9.27526794462598"><ele>386.0</ele><time>2026-03-27T15:02:45.999Z</time></trkpt><trkpt lat="40.912219785459484" lon="9.275396990469783"><ele>386.0</ele><time>2026-03-27T15:02:46.999Z</time></trkpt><trkpt lat="40.91235261976486" lon="9.275511336904518"><ele>386.0</ele><time>2026-03-27T15:02:47.999Z</time></trkpt><trkpt lat="40.912472320049204" lon="9.27563734930093"><ele>384.75</ele><time>2026-03-27T15:02:48.999Z</time></trkpt><trkpt lat="40.912563492889824" lon="9.275797453938146"><ele>383.5</ele><time>2026-03-27T15:02:49.999Z</time></trkpt><trkpt lat="40.91264131237749" lon="9.275956509110653"><ele>382.25</ele><time>2026-03-27T15:02:50.999Z</time></trkpt><trkpt lat="40.912719734003154" lon="9.276106636832802"><ele>381.0</ele><time>2026-03-27T15:02:51.999Z</time></trkpt><trkpt lat="40.91283088227571" lon="9.276218920550049"><ele>381.0</ele><time>2026-03-27T15:02:52.999Z</time></trkpt><trkpt lat="40.912976019257485" lon="9.276296626851694"><ele>381.0</ele><time>2026-03-27T15:02:53.999Z</time></trkpt><trkpt lat="40.913129742989184" lon="9.276344648877156"><ele>381.0</ele><time>2026-03-27T15:02:54.999Z</time></trkpt><trkpt lat="40.91327072420764" lon="9.276430746400283"><ele>381.0</ele><time>2026-03-27T15:02:55.999Z</time></trkpt><trkpt lat="40.91341292635942" lon="9.27652968064839"><ele>381.0</ele><time>2026-03-27T15:02:56.999Z</time></trkpt><trkpt lat="40.913562418294624" lon="9.276648767589032"><ele>381.0</ele><time>2026-03-27T15:02:57.999Z</time></trkpt><trkpt lat="40.9136931092189" lon="9.27680171906122"><ele>381.0</ele><time>2026-03-27T15:02:58.999Z</time></trkpt><trkpt lat="40.91381843201065" lon="9.276961922597772"><ele>381.0</ele><time>2026-03-27T15:02:59.999Z</time></trkpt><trkpt lat="40.913944742346736" lon="9.277116536121861"><ele>381.0</ele><time>2026-03-27T15:03:00.999Z</time></trkpt><trkpt lat="40.91407128525849" lon="9.277266190788621"><ele>382.33333333333337</ele><time>2026-03-27T15:03:01.999Z</time></trkpt><trkpt lat="40.914202003192734" lon="9.277412952772924"><ele>383.6666666666667</ele><time>2026-03-27T15:03:02.999Z</time></trkpt><trkpt lat="40.914337540064" lon="9.277565074967924"><ele>385.0</ele><time>2026-03-27T15:03:03.999Z</time></trkpt><trkpt lat="40.91447194204371" lon="9.277739493764551"><ele>382.33333333333337</ele><time>2026-03-27T15:03:04.999Z</time></trkpt><trkpt lat="40.9145978408458" lon="9.277918725518566"><ele>379.6666666666667</ele><time>2026-03-27T15:03:05.999Z</time></trkpt><trkpt lat="40.91470204532227" lon="9.278120677169316"><ele>377.0</ele><time>2026-03-27T15:03:06.999Z</time></trkpt><trkpt lat="40.914819080667854" lon="9.278322973509198"><ele>377.0</ele><time>2026-03-27T15:03:07.999Z</time></trkpt><trkpt lat="40.914948282980085" lon="9.278496852982565"><ele>377.0</ele><time>2026-03-27T15:03:08.999Z</time></trkpt><trkpt lat="40.91507913052042" lon="9.27866713826076"><ele>377.0</ele><time>2026-03-27T15:03:09.999Z</time></trkpt><trkpt lat="40.9152061698669" lon="9.278819949510279"><ele>377.5</ele><time>2026-03-27T15:03:10.999Z</time></trkpt><trkpt lat="40.91532217643079" lon="9.278953447974969"><ele>378.0</ele><time>2026-03-27T15:03:11.999Z</time></trkpt><trkpt lat="40.91542662626359" lon="9.279062331762841"><ele>378.5</ele><time>2026-03-27T15:03:12.999Z</time></trkpt><trkpt lat="40.91551824534393" lon="9.279131141152181"><ele>379.0</ele><time>2026-03-27T15:03:13.999Z</time></trkpt><trkpt lat="40.91562330845038" lon="9.279140827178445"><ele>379.0</ele><time>2026-03-27T15:03:14.999Z</time></trkpt><trkpt lat="40.9157549060227" lon="9.279135098556209"><ele>379.0</ele><time>2026-03-27T15:03:15.999Z</time></trkpt><trkpt lat="40.91589393514192" lon="9.279123163451066"><ele>379.0</ele><time>2026-03-27T15:03:16.999Z</time></trkpt><trkpt lat="40.91604542238844" lon="9.27911370309579"><ele>379.0</ele><time>2026-03-27T15:03:17.999Z</time></trkpt><trkpt lat="40.91616415764655" lon="9.279187677678284"><ele>376.0</ele><time>2026-03-27T15:03:18.999Z</time></trkpt><trkpt lat="40.91624457260297" lon="9.279307540111471"><ele>373.0</ele><time>2026-03-27T15:03:19.999Z</time></trkpt><trkpt lat="40.91630285464691" lon="9.279436035932488"><ele>370.0</ele><time>2026-03-27T15:03:20.999Z</time></trkpt><trkpt lat="40.91639282672555" lon="9.27955004503659"><ele>367.0</ele><time>2026-03-27T15:03:21.998Z</time></trkpt><trkpt lat="40.91653074439579" lon="9.279581624285083"><ele>367.0</ele><time>2026-03-27T15:03:22.998Z</time></trkpt><trkpt lat="40.91667267836538" lon="9.27958350029843"><ele>367.0</ele><time>2026-03-27T15:03:23.998Z</time></trkpt><trkpt lat="40.91684276339982" lon="9.279492127836692"><ele>367.0</ele><time>2026-03-27T15:03:24.998Z</time></trkpt><trkpt lat="40.91696913749685" lon="9.279520579539785"><ele>365.5</ele><time>2026-03-27T15:03:25.998Z</time></trkpt><trkpt lat="40.9170925441246" lon="9.27955449025"><ele>364.0</ele><time>2026-03-27T15:03:26.998Z</time></trkpt><trkpt lat="40.91725456916781" lon="9.279611192723022"><ele>362.5</ele><time>2026-03-27T15:03:27.998Z</time></trkpt><trkpt lat="40.917337521749374" lon="9.27970450581498"><ele>361.0</ele><time>2026-03-27T15:03:28.998Z</time></trkpt><trkpt lat="40.91739143186493" lon="9.279821373968325"><ele>361.0</ele><time>2026-03-27T15:03:29.998Z</time></trkpt><trkpt lat="40.917480467025904" lon="9.27996128519874"><ele>361.0</ele><time>2026-03-27T15:03:30.998Z</time></trkpt><trkpt lat="40.91758808255027" lon="9.280098415201245"><ele>361.0</ele><time>2026-03-27T15:03:31.998Z</time></trkpt><trkpt lat="40.917729315534984" lon="9.280169290901966"><ele>361.0</ele><time>2026-03-27T15:03:32.998Z</time></trkpt><trkpt lat="40.917888630050946" lon="9.280254452589089"><ele>358.3333333333333</ele><time>2026-03-27T15:03:33.998Z</time></trkpt><trkpt lat="40.91805633370623" lon="9.280334511308846"><ele>355.6666666666667</ele><time>2026-03-27T15:03:34.998Z</time></trkpt><trkpt lat="40.918212343563546" lon="9.28042214385903"><ele>353.0</ele><time>2026-03-27T15:03:35.998Z</time></trkpt><trkpt lat="40.91837152153289" lon="9.280497530766395"><ele>353.33333333333337</ele><time>2026-03-27T15:03:36.998Z</time></trkpt><trkpt lat="40.91853625545422" lon="9.280562386628107"><ele>353.6666666666667</ele><time>2026-03-27T15:03:37.998Z</time></trkpt><trkpt lat="40.91869515211857" lon="9.28063006795063"><ele>354.0</ele><time>2026-03-27T15:03:38.998Z</time></trkpt><trkpt lat="40.91883077421154" lon="9.280694267728695"><ele>355.25</ele><time>2026-03-27T15:03:39.998Z</time></trkpt><trkpt lat="40.918965775868536" lon="9.280774073858481"><ele>356.5</ele><time>2026-03-27T15:03:40.998Z</time></trkpt><trkpt lat="40.91905952842882" lon="9.280866647505755"><ele>357.75</ele><time>2026-03-27T15:03:41.998Z</time></trkpt><trkpt lat="40.91911153615452" lon="9.280931260633148"><ele>359.0</ele><time>2026-03-27T15:03:42.998Z</time></trkpt><trkpt lat="40.919217927595476" lon="9.281031339101451"><ele>357.4</ele><time>2026-03-27T15:03:44.998Z</time></trkpt><trkpt lat="40.919270850281485" lon="9.28108965741657"><ele>355.79999999999995</ele><time>2026-03-27T15:03:45.998Z</time></trkpt><trkpt lat="40.91932673300788" lon="9.28115141255401"><ele>354.20000000000005</ele><time>2026-03-27T15:03:46.998Z</time></trkpt><trkpt lat="40.91946217109368" lon="9.281062186044672"><ele>352.6</ele><time>2026-03-27T15:03:47.998Z</time></trkpt><trkpt lat="40.919581468218894" lon="9.28102866849512"><ele>351.0</ele><time>2026-03-27T15:03:48.998Z</time></trkpt><trkpt lat="40.91968899001422" lon="9.281016936306402"><ele>351.0</ele><time>2026-03-27T15:03:49.998Z</time></trkpt><trkpt lat="40.919795966855474" lon="9.281001730620975"><ele>351.0</ele><time>2026-03-27T15:03:50.998Z</time></trkpt><trkpt lat="40.91989782024251" lon="9.281011015447424"><ele>351.0</ele><time>2026-03-27T15:03:51.998Z</time></trkpt><trkpt lat="40.92001410877844" lon="9.280976110351821"><ele>351.0</ele><time>2026-03-27T15:03:52.998Z</time></trkpt><trkpt lat="40.92010399027898" lon="9.280952298946694"><ele>351.0</ele><time>2026-03-27T15:03:53.998Z</time></trkpt><trkpt lat="40.92019212169355" lon="9.280916230522077"><ele>348.0</ele><time>2026-03-27T15:03:54.998Z</time></trkpt><trkpt lat="40.920315070959894" lon="9.280893959601586"><ele>345.0</ele><time>2026-03-27T15:03:56.998Z</time></trkpt><trkpt lat="40.920370960577294" lon="9.280937657740397"><ele>342.0</ele><time>2026-03-27T15:03:57.998Z</time></trkpt><trkpt lat="40.920474653954045" lon="9.281025603080096"><ele>339.0</ele><time>2026-03-27T15:03:58.998Z</time></trkpt><trkpt lat="40.9205754955384" lon="9.28113740790762"><ele>336.0</ele><time>2026-03-27T15:03:59.998Z</time></trkpt><trkpt lat="40.92067936243133" lon="9.281243467068565"><ele>336.0</ele><time>2026-03-27T15:04:00.998Z</time></trkpt><trkpt lat="40.920781411729074" lon="9.281334744817677"><ele>336.0</ele><time>2026-03-27T15:04:01.998Z</time></trkpt><trkpt lat="40.92088094437729" lon="9.281394510925919"><ele>336.0</ele><time>2026-03-27T15:04:02.998Z</time></trkpt><trkpt lat="40.92099516055389" lon="9.281438647476604"><ele>336.0</ele><time>2026-03-27T15:04:03.998Z</time></trkpt><trkpt lat="40.92111176010165" lon="9.281441274311113"><ele>335.25</ele><time>2026-03-27T15:04:04.998Z</time></trkpt><trkpt lat="40.921205704269475" lon="9.28145019656051"><ele>334.5</ele><time>2026-03-27T15:04:05.998Z</time></trkpt><trkpt lat="40.92132745481374" lon="9.281499975760871"><ele>333.75</ele><time>2026-03-27T15:04:06.998Z</time></trkpt><trkpt lat="40.92149148592715" lon="9.281582858300045"><ele>333.0</ele><time>2026-03-27T15:04:07.998Z</time></trkpt><trkpt lat="40.9216771909262" lon="9.281625189921623"><ele>331.0</ele><time>2026-03-27T15:04:08.998Z</time></trkpt><trkpt lat="40.9218325650315" lon="9.281688411581362"><ele>329.0</ele><time>2026-03-27T15:04:09.998Z</time></trkpt><trkpt lat="40.921993241804095" lon="9.281736682714035"><ele>327.0</ele><time>2026-03-27T15:04:10.998Z</time></trkpt><trkpt lat="40.92216215776479" lon="9.28173910652304"><ele>327.0</ele><time>2026-03-27T15:04:11.998Z</time></trkpt><trkpt lat="40.92231994781383" lon="9.28179561704069"><ele>327.0</ele><time>2026-03-27T15:04:12.998Z</time></trkpt><trkpt lat="40.9224594965802" lon="9.281847320520267"><ele>327.0</ele><time>2026-03-27T15:04:13.998Z</time></trkpt><trkpt lat="40.92261643789272" lon="9.281895109292925"><ele>326.75</ele><time>2026-03-27T15:04:15Z</time></trkpt><trkpt lat="40.9227430283551" lon="9.281963878434599"><ele>326.5</ele><time>2026-03-27T15:04:16Z</time></trkpt><trkpt lat="40.922843350789506" lon="9.282022749099314"><ele>326.25</ele><time>2026-03-27T15:04:17Z</time></trkpt><trkpt lat="40.922936307676125" lon="9.282078316020446"><ele>326.0</ele><time>2026-03-27T15:04:18Z</time></trkpt><trkpt lat="40.92304698454031" lon="9.282163460717815"><ele>326.0</ele><time>2026-03-27T15:04:19Z</time></trkpt><trkpt lat="40.923135416233805" lon="9.282215554375252"><ele>326.0</ele><time>2026-03-27T15:04:20Z</time></trkpt><trkpt lat="40.92322435787989" lon="9.282263157018752"><ele>326.0</ele><time>2026-03-27T15:04:21Z</time></trkpt><trkpt lat="40.92332883465095" lon="9.282206620471792"><ele>326.0</ele><time>2026-03-27T15:04:22Z</time></trkpt><trkpt lat="40.9234728101956" lon="9.282196956911"><ele>327.0</ele><time>2026-03-27T15:04:23Z</time></trkpt><trkpt lat="40.923599923431766" lon="9.282198665670913"><ele>328.0</ele><time>2026-03-27T15:04:24Z</time></trkpt><trkpt lat="40.92374434321005" lon="9.282154697531029"><ele>329.0</ele><time>2026-03-27T15:04:25Z</time></trkpt><trkpt lat="40.92388861305534" lon="9.282090666302645"><ele>330.0</ele><time>2026-03-27T15:04:26Z</time></trkpt><trkpt lat="40.92403625394394" lon="9.282057044653712"><ele>330.0</ele><time>2026-03-27T15:04:27Z</time></trkpt><trkpt lat="40.924195918034954" lon="9.282028727791303"><ele>330.0</ele><time>2026-03-27T15:04:28Z</time></trkpt><trkpt lat="40.924337052775186" lon="9.281969604307072"><ele>330.0</ele><time>2026-03-27T15:04:29Z</time></trkpt><trkpt lat="40.92449216571545" lon="9.281932997327464"><ele>329.25</ele><time>2026-03-27T15:04:30Z</time></trkpt><trkpt lat="40.924638501844434" lon="9.281902906850691"><ele>328.5</ele><time>2026-03-27T15:04:31Z</time></trkpt><trkpt lat="40.924780740664836" lon="9.28189121476329"><ele>327.75</ele><time>2026-03-27T15:04:31.999Z</time></trkpt><trkpt lat="40.92492466638874" lon="9.281846387740051"><ele>327.0</ele><time>2026-03-27T15:04:32.999Z</time></trkpt><trkpt lat="40.92505165957737" lon="9.281817206307299"><ele>327.40000000000003</ele><time>2026-03-27T15:04:33.999Z</time></trkpt><trkpt lat="40.92516110631847" lon="9.281770232585508"><ele>327.8</ele><time>2026-03-27T15:04:34.999Z</time></trkpt><trkpt lat="40.925268855747404" lon="9.281731923156293"><ele>328.2</ele><time>2026-03-27T15:04:35.999Z</time></trkpt><trkpt lat="40.92535329467307" lon="9.281719573770717"><ele>328.6</ele><time>2026-03-27T15:04:36.999Z</time></trkpt><trkpt lat="40.92543204652882" lon="9.281757760392754"><ele>329.0</ele><time>2026-03-27T15:04:37.999Z</time></trkpt><trkpt lat="40.925368215250664" lon="9.281855108061906"><ele>329.0</ele><time>2026-03-27T15:04:38.999Z</time></trkpt><trkpt lat="40.92542557589372" lon="9.281936933635293"><ele>329.0</ele><time>2026-03-27T15:04:39.999Z</time></trkpt><trkpt lat="40.92549642271735" lon="9.282045011843033"><ele>329.0</ele><time>2026-03-27T15:04:40.999Z</time></trkpt><trkpt lat="40.92561427183372" lon="9.282191789448037"><ele>329.0</ele><time>2026-03-27T15:04:41.999Z</time></trkpt><trkpt lat="40.92573966864415" lon="9.282299117184717"><ele>329.5</ele><time>2026-03-27T15:04:42.999Z</time></trkpt><trkpt lat="40.92586515437321" lon="9.28236241019187"><ele>330.0</ele><time>2026-03-27T15:04:43.999Z</time></trkpt><trkpt lat="40.926006335521095" lon="9.282394732492179"><ele>330.5</ele><time>2026-03-27T15:04:44.999Z</time></trkpt><trkpt lat="40.926146668887064" lon="9.28244496473025"><ele>331.0</ele><time>2026-03-27T15:04:45.999Z</time></trkpt><trkpt lat="40.92630021559105" lon="9.282501324986915"><ele>331.0</ele><time>2026-03-27T15:04:46.999Z</time></trkpt><trkpt lat="40.92645002519241" lon="9.28253048302694"><ele>331.0</ele><time>2026-03-27T15:04:47.999Z</time></trkpt><trkpt lat="40.926573317246486" lon="9.2825391332689"><ele>331.0</ele><time>2026-03-27T15:04:48.999Z</time></trkpt><trkpt lat="40.92664395708726" lon="9.282468882698733"><ele>331.0</ele><time>2026-03-27T15:04:49.999Z</time></trkpt><trkpt lat="40.92670397490265" lon="9.282418267936269"><ele>331.0</ele><time>2026-03-27T15:04:50.999Z</time></trkpt><trkpt lat="40.926830859271405" lon="9.282355208847571"><ele>331.0</ele><time>2026-03-27T15:04:51.999Z</time></trkpt><trkpt lat="40.9269394687337" lon="9.282308732282427"><ele>331.0</ele><time>2026-03-27T15:04:52.999Z</time></trkpt><trkpt lat="40.92708350095183" lon="9.28228290102794"><ele>331.0</ele><time>2026-03-27T15:04:53.999Z</time></trkpt><trkpt lat="40.92724857350846" lon="9.282274162940677"><ele>331.0</ele><time>2026-03-27T15:04:54.999Z</time></trkpt><trkpt lat="40.927409405044216" lon="9.282334758951093"><ele>330.66666666666663</ele><time>2026-03-27T15:04:55.999Z</time></trkpt><trkpt lat="40.92758615193711" lon="9.282343602325158"><ele>330.3333333333333</ele><time>2026-03-27T15:04:56.999Z</time></trkpt><trkpt lat="40.92775446667505" lon="9.282379449595771"><ele>330.0</ele><time>2026-03-27T15:04:57.999Z</time></trkpt><trkpt lat="40.92791065618475" lon="9.282375698689282"><ele>330.0</ele><time>2026-03-27T15:04:58.999Z</time></trkpt><trkpt lat="40.928003288009705" lon="9.282425396782816"><ele>330.0</ele><time>2026-03-27T15:04:59.999Z</time></trkpt><trkpt lat="40.928077194085986" lon="9.282472144494365"><ele>330.0</ele><time>2026-03-27T15:05:00.999Z</time></trkpt><trkpt lat="40.92816773009569" lon="9.282564531870717"><ele>330.0</ele><time>2026-03-27T15:05:01.999Z</time></trkpt><trkpt lat="40.928283901642544" lon="9.282650263272236"><ele>330.0</ele><time>2026-03-27T15:05:02.999Z</time></trkpt><trkpt lat="40.92840402041938" lon="9.282693304721759"><ele>329.75</ele><time>2026-03-27T15:05:03.999Z</time></trkpt><trkpt lat="40.92850642324671" lon="9.282706997411434"><ele>329.5</ele><time>2026-03-27T15:05:04.999Z</time></trkpt><trkpt lat="40.92860207683649" lon="9.282683887019706"><ele>329.25</ele><time>2026-03-27T15:05:05.999Z</time></trkpt><trkpt lat="40.92870700643722" lon="9.282654636743038"><ele>329.0</ele><time>2026-03-27T15:05:06.999Z</time></trkpt><trkpt lat="40.9288570082564" lon="9.282593946588213"><ele>329.0</ele><time>2026-03-27T15:05:07.999Z</time></trkpt><trkpt lat="40.9290218391152" lon="9.282560913885398"><ele>329.0</ele><time>2026-03-27T15:05:08.999Z</time></trkpt><trkpt lat="40.92918687171864" lon="9.282478341883229"><ele>329.0</ele><time>2026-03-27T15:05:09.999Z</time></trkpt><trkpt lat="40.9293334460962" lon="9.282390353312755"><ele>328.0</ele><time>2026-03-27T15:05:10.999Z</time></trkpt><trkpt lat="40.92944667893523" lon="9.282323417238663"><ele>327.0</ele><time>2026-03-27T15:05:11.999Z</time></trkpt><trkpt lat="40.92955594599818" lon="9.282241786833914"><ele>326.0</ele><time>2026-03-27T15:05:12.999Z</time></trkpt><trkpt lat="40.92963874116956" lon="9.282096117942052"><ele>325.0</ele><time>2026-03-27T15:05:13.999Z</time></trkpt><trkpt lat="40.929746255077575" lon="9.28195107300413"><ele>325.0</ele><time>2026-03-27T15:05:14.999Z</time></trkpt><trkpt lat="40.929833726544075" lon="9.281761890658311"><ele>325.0</ele><time>2026-03-27T15:05:15.999Z</time></trkpt><trkpt lat="40.92993288247349" lon="9.28160789944324"><ele>325.0</ele><time>2026-03-27T15:05:16.999Z</time></trkpt><trkpt lat="40.93000835416875" lon="9.28147189963783"><ele>325.0</ele><time>2026-03-27T15:05:17.999Z</time></trkpt><trkpt lat="40.930077161075786" lon="9.281388493571008"><ele>326.4</ele><time>2026-03-27T15:05:18.999Z</time></trkpt><trkpt lat="40.93015316584889" lon="9.281309717122003"><ele>327.8</ele><time>2026-03-27T15:05:20.999Z</time></trkpt><trkpt lat="40.930187291218296" lon="9.281381006223103"><ele>329.20000000000005</ele><time>2026-03-27T15:05:23.999Z</time></trkpt><trkpt lat="40.93020671618075" lon="9.281473757832057"><ele>330.6</ele><time>2026-03-27T15:05:24.998Z</time></trkpt><trkpt lat="40.930247316327566" lon="9.281618540140144"><ele>332.0</ele><time>2026-03-27T15:05:25.998Z</time></trkpt><trkpt lat="40.930284897945" lon="9.281747073316074"><ele>332.0</ele><time>2026-03-27T15:05:26.998Z</time></trkpt><trkpt lat="40.930338890103876" lon="9.281869257356885"><ele>332.0</ele><time>2026-03-27T15:05:27.998Z</time></trkpt><trkpt lat="40.93038371759726" lon="9.282026288560688"><ele>332.0</ele><time>2026-03-27T15:05:28.998Z</time></trkpt><trkpt lat="40.93040568680116" lon="9.282122234072133"><ele>332.0</ele><time>2026-03-27T15:05:29.998Z</time></trkpt><trkpt lat="40.93046950644986" lon="9.282239086313927"><ele>332.0</ele><time>2026-03-27T15:05:30.998Z</time></trkpt><trkpt lat="40.93059778217124" lon="9.282283982954269"><ele>332.0</ele><time>2026-03-27T15:05:31.998Z</time></trkpt><trkpt lat="40.93071290745409" lon="9.282298126185195"><ele>332.0</ele><time>2026-03-27T15:05:32.998Z</time></trkpt><trkpt lat="40.930806065966635" lon="9.28228060771511"><ele>332.0</ele><time>2026-03-27T15:05:33.998Z</time></trkpt><trkpt lat="40.93087393189224" lon="9.282263208934783"><ele>332.0</ele><time>2026-03-27T15:05:34.998Z</time></trkpt><trkpt lat="40.930991672923255" lon="9.282233023640126"><ele>332.0</ele><time>2026-03-27T15:05:36.998Z</time></trkpt><trkpt lat="40.93093440346976" lon="9.282407354620213"><ele>331.6</ele><time>2026-03-27T15:05:37.998Z</time></trkpt><trkpt lat="40.931004535721925" lon="9.28249132760164"><ele>331.20000000000005</ele><time>2026-03-27T15:05:39.998Z</time></trkpt><trkpt lat="40.93108550740036" lon="9.282590314378455"><ele>330.8</ele><time>2026-03-27T15:05:40.998Z</time></trkpt><trkpt lat="40.93115452188015" lon="9.282678449739969"><ele>330.4</ele><time>2026-03-27T15:05:41.998Z</time></trkpt><trkpt lat="40.931214503744826" lon="9.28276139492842"><ele>330.0</ele><time>2026-03-27T15:05:42.998Z</time></trkpt><trkpt lat="40.93126084653115" lon="9.282833315899461"><ele>330.0</ele><time>2026-03-27T15:05:43.998Z</time></trkpt><trkpt lat="40.931308061582484" lon="9.282916224546929"><ele>330.0</ele><time>2026-03-27T15:05:44.998Z</time></trkpt><trkpt lat="40.93135572220157" lon="9.282997779440159"><ele>330.0</ele><time>2026-03-27T15:05:45.998Z</time></trkpt><trkpt lat="40.93141358273918" lon="9.283087377816644"><ele>330.0</ele><time>2026-03-27T15:05:46.998Z</time></trkpt><trkpt lat="40.931480156441324" lon="9.283174445840542"><ele>330.0</ele><time>2026-03-27T15:05:47.998Z</time></trkpt><trkpt lat="40.9315606575922" lon="9.28327139329383"><ele>330.0</ele><time>2026-03-27T15:05:48.998Z</time></trkpt><trkpt lat="40.93165059783767" lon="9.283371649374594"><ele>330.5</ele><time>2026-03-27T15:05:49.998Z</time></trkpt><trkpt lat="40.931782317035456" lon="9.28350519636738"><ele>331.0</ele><time>2026-03-27T15:05:51.998Z</time></trkpt><trkpt lat="40.93187353114222" lon="9.283564840669644"><ele>331.5</ele><time>2026-03-27T15:05:52.998Z</time></trkpt><trkpt lat="40.931942271279325" lon="9.283649755767849"><ele>332.0</ele><time>2026-03-27T15:05:53.998Z</time></trkpt><trkpt lat="40.93203495257667" lon="9.283698368220868"><ele>332.0</ele><time>2026-03-27T15:05:54.998Z</time></trkpt><trkpt lat="40.93211458011697" lon="9.28378355898333"><ele>332.0</ele><time>2026-03-27T15:05:55.998Z</time></trkpt><trkpt lat="40.93222143886579" lon="9.28386455418651"><ele>332.0</ele><time>2026-03-27T15:05:56.998Z</time></trkpt><trkpt lat="40.93232061426372" lon="9.28394231616381"><ele>332.0</ele><time>2026-03-27T15:05:57.998Z</time></trkpt><trkpt lat="40.93242418558882" lon="9.28401776896351"><ele>332.0</ele><time>2026-03-27T15:05:58.998Z</time></trkpt><trkpt lat="40.93253650039815" lon="9.284113961192512"><ele>332.0</ele><time>2026-03-27T15:05:59.998Z</time></trkpt><trkpt lat="40.932632043290184" lon="9.2842232144378"><ele>332.0</ele><time>2026-03-27T15:06:00.998Z</time></trkpt><trkpt lat="40.93272272411548" lon="9.284308788281415"><ele>332.0</ele><time>2026-03-27T15:06:01.998Z</time></trkpt><trkpt lat="40.93278688458106" lon="9.2843848606873"><ele>332.0</ele><time>2026-03-27T15:06:02.998Z</time></trkpt><trkpt lat="40.93287490905019" lon="9.284433414017865"><ele>332.0</ele><time>2026-03-27T15:06:03.998Z</time></trkpt><trkpt lat="40.93299596186887" lon="9.284501661352662"><ele>332.0</ele><time>2026-03-27T15:06:04.999Z</time></trkpt><trkpt lat="40.93310912650295" lon="9.28458712826684"><ele>332.0</ele><time>2026-03-27T15:06:05.999Z</time></trkpt><trkpt lat="40.933210930993305" lon="9.284656182729506"><ele>332.0</ele><time>2026-03-27T15:06:06.999Z</time></trkpt><trkpt lat="40.93330720890529" lon="9.284742847133097"><ele>332.0</ele><time>2026-03-27T15:06:07.999Z</time></trkpt><trkpt lat="40.933412716663454" lon="9.284848761044369"><ele>332.0</ele><time>2026-03-27T15:06:08.999Z</time></trkpt><trkpt lat="40.933520867093605" lon="9.284961157820208"><ele>332.0</ele><time>2026-03-27T15:06:09.999Z</time></trkpt><trkpt lat="40.933622887148594" lon="9.285058874602973"><ele>330.75</ele><time>2026-03-27T15:06:10.999Z</time></trkpt><trkpt lat="40.933710271857045" lon="9.285147893748558"><ele>329.5</ele><time>2026-03-27T15:06:11.999Z</time></trkpt><trkpt lat="40.93381472782332" lon="9.285225830069228"><ele>328.25</ele><time>2026-03-27T15:06:12.999Z</time></trkpt><trkpt lat="40.93391724468826" lon="9.285319672476822"><ele>327.0</ele><time>2026-03-27T15:06:13.999Z</time></trkpt><trkpt lat="40.93400925685669" lon="9.285417860936136"><ele>327.0</ele><time>2026-03-27T15:06:14.999Z</time></trkpt><trkpt lat="40.934119558738104" lon="9.285490217409746"><ele>327.0</ele><time>2026-03-27T15:06:15.999Z</time></trkpt><trkpt lat="40.93421410473631" lon="9.285570851084028"><ele>327.0</ele><time>2026-03-27T15:06:16.999Z</time></trkpt><trkpt lat="40.9346078832035" lon="9.286050194055225"><ele>324.8</ele><time>2026-03-27T15:06:22.001Z</time></trkpt><trkpt lat="40.93469177574873" lon="9.286171527950339"><ele>322.6</ele><time>2026-03-27T15:06:23Z</time></trkpt><trkpt lat="40.93474469872492" lon="9.28623143522499"><ele>320.40000000000003</ele><time>2026-03-27T15:06:24.001Z</time></trkpt><trkpt lat="40.93478941884417" lon="9.286319828180655"><ele>318.20000000000005</ele><time>2026-03-27T15:06:25.001Z</time></trkpt><trkpt lat="40.934841357795484" lon="9.286400319010898"><ele>316.0</ele><time>2026-03-27T15:06:26Z</time></trkpt><trkpt lat="40.934922917426476" lon="9.286526713610362"><ele>314.2</ele><time>2026-03-27T15:06:27.001Z</time></trkpt><trkpt lat="40.93506540396788" lon="9.286471484232676"><ele>312.40000000000003</ele><time>2026-03-27T15:06:28.001Z</time></trkpt><trkpt lat="40.93514443667947" lon="9.286506222215392"><ele>310.6</ele><time>2026-03-27T15:06:29Z</time></trkpt><trkpt lat="40.93524557401774" lon="9.286560697663578"><ele>308.8</ele><time>2026-03-27T15:06:30.001Z</time></trkpt><trkpt lat="40.9353372072675" lon="9.286608365875281"><ele>307.0</ele><time>2026-03-27T15:06:31.001Z</time></trkpt><trkpt lat="40.93541339949202" lon="9.286669826532897"><ele>307.0</ele><time>2026-03-27T15:06:32Z</time></trkpt><trkpt lat="40.93546823395844" lon="9.286734427012052"><ele>307.0</ele><time>2026-03-27T15:06:33Z</time></trkpt><trkpt lat="40.93553006599595" lon="9.286784511882413"><ele>307.0</ele><time>2026-03-27T15:06:34.001Z</time></trkpt><trkpt lat="40.93564150810628" lon="9.286871407340213"><ele>307.0</ele><time>2026-03-27T15:06:36Z</time></trkpt><trkpt lat="40.93570305826013" lon="9.286899347085937"><ele>307.0</ele><time>2026-03-27T15:06:37Z</time></trkpt><trkpt lat="40.935761545695016" lon="9.286854530071892"><ele>307.0</ele><time>2026-03-27T15:06:38Z</time></trkpt><trkpt lat="40.93583559729932" lon="9.286880522654691"><ele>305.8333333333333</ele><time>2026-03-27T15:06:39Z</time></trkpt><trkpt lat="40.93589830626961" lon="9.286889621269454"><ele>304.66666666666663</ele><time>2026-03-27T15:06:40Z</time></trkpt><trkpt lat="40.93596242930347" lon="9.286927802352093"><ele>303.5</ele><time>2026-03-27T15:06:41Z</time></trkpt><trkpt lat="40.936004783848894" lon="9.287012661416231"><ele>302.3333333333333</ele><time>2026-03-27T15:06:42Z</time></trkpt><trkpt lat="40.9360761103795" lon="9.287106751335543"><ele>301.1666666666667</ele><time>2026-03-27T15:06:43Z</time></trkpt><trkpt lat="40.93613542168368" lon="9.287230268973508"><ele>300.0</ele><time>2026-03-27T15:06:44Z</time></trkpt><trkpt lat="40.93621468786427" lon="9.287356137141293"><ele>299.25</ele><time>2026-03-27T15:06:45Z</time></trkpt><trkpt lat="40.9363103036968" lon="9.287473530393674"><ele>298.5</ele><time>2026-03-27T15:06:46Z</time></trkpt><trkpt lat="40.936395963270215" lon="9.287609020757657"><ele>297.75</ele><time>2026-03-27T15:06:47Z</time></trkpt><trkpt lat="40.93647483453406" lon="9.287730023486443"><ele>297.0</ele><time>2026-03-27T15:06:48Z</time></trkpt><trkpt lat="40.93654126078621" lon="9.287842024548594"><ele>297.0</ele><time>2026-03-27T15:06:49Z</time></trkpt><trkpt lat="40.9366023483578" lon="9.287931779491728"><ele>297.0</ele><time>2026-03-27T15:06:50Z</time></trkpt><trkpt lat="40.936648059649016" lon="9.288000325333305"><ele>297.0</ele><time>2026-03-27T15:06:51Z</time></trkpt><trkpt lat="40.936699791367175" lon="9.288055625985143"><ele>297.0</ele><time>2026-03-27T15:06:52Z</time></trkpt><trkpt lat="40.93684131045245" lon="9.288043672630646"><ele>297.0</ele><time>2026-03-27T15:06:54Z</time></trkpt><trkpt lat="40.936949445723684" lon="9.288077890830612"><ele>296.5</ele><time>2026-03-27T15:06:55Z</time></trkpt><trkpt lat="40.93705843960611" lon="9.2881184485033"><ele>296.0</ele><time>2026-03-27T15:06:56Z</time></trkpt><trkpt lat="40.93714960986538" lon="9.28820975662768"><ele>295.5</ele><time>2026-03-27T15:06:57Z</time></trkpt><trkpt lat="40.93725922099655" lon="9.288275646106268"><ele>295.0</ele><time>2026-03-27T15:06:58Z</time></trkpt><trkpt lat="40.93738232244923" lon="9.28831961055146"><ele>295.0</ele><time>2026-03-27T15:06:59Z</time></trkpt><trkpt lat="40.937498572601626" lon="9.28841786981071"><ele>295.0</ele><time>2026-03-27T15:07:00Z</time></trkpt><trkpt lat="40.9376046674307" lon="9.288516066846793"><ele>295.0</ele><time>2026-03-27T15:07:01Z</time></trkpt><trkpt lat="40.93770817097519" lon="9.28861153099171"><ele>295.0</ele><time>2026-03-27T15:07:02Z</time></trkpt><trkpt lat="40.93780562923147" lon="9.288711315411724"><ele>294.5</ele><time>2026-03-27T15:07:03Z</time></trkpt><trkpt lat="40.93788826102391" lon="9.288809736405204"><ele>294.0</ele><time>2026-03-27T15:07:04Z</time></trkpt><trkpt lat="40.93796964500528" lon="9.288914368350872"><ele>293.5</ele><time>2026-03-27T15:07:05Z</time></trkpt><trkpt lat="40.93806032513374" lon="9.289016711160205"><ele>293.0</ele><time>2026-03-27T15:07:06Z</time></trkpt><trkpt lat="40.938158168627446" lon="9.289120761332889"><ele>293.0</ele><time>2026-03-27T15:07:07Z</time></trkpt><trkpt lat="40.938290200290595" lon="9.289209948712182"><ele>293.0</ele><time>2026-03-27T15:07:08Z</time></trkpt><trkpt lat="40.938427320027884" lon="9.289253528144815"><ele>293.0</ele><time>2026-03-27T15:07:09Z</time></trkpt><trkpt lat="40.93855595150865" lon="9.28930639095416"><ele>293.0</ele><time>2026-03-27T15:07:10Z</time></trkpt><trkpt lat="40.93869825628542" lon="9.289353072304875"><ele>293.0</ele><time>2026-03-27T15:07:11Z</time></trkpt><trkpt lat="40.93884719269724" lon="9.28941022434716"><ele>293.0</ele><time>2026-03-27T15:07:12Z</time></trkpt><trkpt lat="40.93898608475319" lon="9.289471810125054"><ele>293.0</ele><time>2026-03-27T15:07:13Z</time></trkpt><trkpt lat="40.93914179609576" lon="9.28953042078612"><ele>294.0</ele><time>2026-03-27T15:07:14Z</time></trkpt><trkpt lat="40.93930060710113" lon="9.28959021372114"><ele>295.0</ele><time>2026-03-27T15:07:15Z</time></trkpt><trkpt lat="40.939467031263526" lon="9.289647498342024"><ele>296.0</ele><time>2026-03-27T15:07:16Z</time></trkpt><trkpt lat="40.93962455340941" lon="9.289699546695676"><ele>296.0</ele><time>2026-03-27T15:07:17Z</time></trkpt><trkpt lat="40.939772057842376" lon="9.289733230168899"><ele>296.0</ele><time>2026-03-27T15:07:18Z</time></trkpt><trkpt lat="40.93989976731899" lon="9.28978371357344"><ele>296.0</ele><time>2026-03-27T15:07:19Z</time></trkpt><trkpt lat="40.940024580642984" lon="9.289877224152184"><ele>296.0</ele><time>2026-03-27T15:07:20Z</time></trkpt><trkpt lat="40.940159120544344" lon="9.289952433741083"><ele>297.0</ele><time>2026-03-27T15:07:21Z</time></trkpt><trkpt lat="40.94030288408172" lon="9.290013278346661"><ele>298.0</ele><time>2026-03-27T15:07:22Z</time></trkpt><trkpt lat="40.94043094712197" lon="9.290098408316013"><ele>299.0</ele><time>2026-03-27T15:07:23Z</time></trkpt><trkpt lat="40.94055058569548" lon="9.290217384035932"><ele>300.0</ele><time>2026-03-27T15:07:24Z</time></trkpt><trkpt lat="40.9406660561663" lon="9.290339479063318"><ele>300.0</ele><time>2026-03-27T15:07:25Z</time></trkpt><trkpt lat="40.94078530490736" lon="9.290475019062225"><ele>300.0</ele><time>2026-03-27T15:07:26Z</time></trkpt><trkpt lat="40.94090210594799" lon="9.29061666394616"><ele>300.0</ele><time>2026-03-27T15:07:27Z</time></trkpt><trkpt lat="40.94102607324568" lon="9.29076488645857"><ele>299.3333333333333</ele><time>2026-03-27T15:07:27.999Z</time></trkpt><trkpt lat="40.94115418177183" lon="9.29090939605955"><ele>298.66666666666663</ele><time>2026-03-27T15:07:28.999Z</time></trkpt><trkpt lat="40.941274218514806" lon="9.291033509873932"><ele>298.0</ele><time>2026-03-27T15:07:29.999Z</time></trkpt><trkpt lat="40.94137847594409" lon="9.29113980444578"><ele>298.0</ele><time>2026-03-27T15:07:30.999Z</time></trkpt><trkpt lat="40.941470622629396" lon="9.291242806798339"><ele>298.0</ele><time>2026-03-27T15:07:31.999Z</time></trkpt><trkpt lat="40.941574213406255" lon="9.291320616352534"><ele>298.0</ele><time>2026-03-27T15:07:32.999Z</time></trkpt><trkpt lat="40.94166319340896" lon="9.291412880444033"><ele>298.0</ele><time>2026-03-27T15:07:33.999Z</time></trkpt><trkpt lat="40.94174042372104" lon="9.291461649047774"><ele>298.0</ele><time>2026-03-27T15:07:34.999Z</time></trkpt><trkpt lat="40.941803335299" lon="9.29148807790712"><ele>297.2</ele><time>2026-03-27T15:07:35.999Z</time></trkpt><trkpt lat="40.941887306922794" lon="9.291559020461463"><ele>296.4</ele><time>2026-03-27T15:07:37.999Z</time></trkpt><trkpt lat="40.941856768821715" lon="9.291712454963907"><ele>295.59999999999997</ele><time>2026-03-27T15:07:38.999Z</time></trkpt><trkpt lat="40.941877136745006" lon="9.291844468694975"><ele>294.8</ele><time>2026-03-27T15:07:39.999Z</time></trkpt><trkpt lat="40.94189446887525" lon="9.291999926261663"><ele>294.0</ele><time>2026-03-27T15:07:40.999Z</time></trkpt><trkpt lat="40.94190451154819" lon="9.292165780745458"><ele>293.0</ele><time>2026-03-27T15:07:41.999Z</time></trkpt><trkpt lat="40.94190280352061" lon="9.292345274095759"><ele>292.0</ele><time>2026-03-27T15:07:42.999Z</time></trkpt><trkpt lat="40.94189852219464" lon="9.292542461709766"><ele>291.0</ele><time>2026-03-27T15:07:43.999Z</time></trkpt><trkpt lat="40.94189547093075" lon="9.292762502631428"><ele>291.0</ele><time>2026-03-27T15:07:44.999Z</time></trkpt><trkpt lat="40.94189421493591" lon="9.293015994330107"><ele>291.0</ele><time>2026-03-27T15:07:45.999Z</time></trkpt><trkpt lat="40.941915218858696" lon="9.293275928380988"><ele>291.0</ele><time>2026-03-27T15:07:46.999Z</time></trkpt><trkpt lat="40.941958766666836" lon="9.293573979875308"><ele>289.5</ele><time>2026-03-27T15:07:47.999Z</time></trkpt><trkpt lat="40.94201861220157" lon="9.293887158937565"><ele>288.0</ele><time>2026-03-27T15:07:48.999Z</time></trkpt><trkpt lat="40.942063316368156" lon="9.294175859362678"><ele>287.0</ele><time>2026-03-27T15:07:49.999Z</time></trkpt><trkpt lat="40.94208414117902" lon="9.294428291012382"><ele>286.0</ele><time>2026-03-27T15:07:50.999Z</time></trkpt><trkpt lat="40.94213530923614" lon="9.294665696003207"><ele>285.0</ele><time>2026-03-27T15:07:51.999Z</time></trkpt><trkpt lat="40.9421721650423" lon="9.294906061840763"><ele>284.0</ele><time>2026-03-27T15:07:52.999Z</time></trkpt><trkpt lat="40.94220810858307" lon="9.295152408193287"><ele>283.0</ele><time>2026-03-27T15:07:53.999Z</time></trkpt><trkpt lat="40.94224238723045" lon="9.29539867094274"><ele>282.0</ele><time>2026-03-27T15:07:54.999Z</time></trkpt><trkpt lat="40.94227640289459" lon="9.29564611931778"><ele>281.6666666666667</ele><time>2026-03-27T15:07:55.999Z</time></trkpt><trkpt lat="40.94231472244542" lon="9.295896649289988"><ele>281.33333333333337</ele><time>2026-03-27T15:07:56.999Z</time></trkpt><trkpt lat="40.9423531838568" lon="9.296152351772054"><ele>281.0</ele><time>2026-03-27T15:07:57.999Z</time></trkpt><trkpt lat="40.94239186610983" lon="9.296410928418561"><ele>281.6666666666667</ele><time>2026-03-27T15:07:58.999Z</time></trkpt><trkpt lat="40.94242627452616" lon="9.296664060491027"><ele>282.3333333333333</ele><time>2026-03-27T15:07:59.999Z</time></trkpt><trkpt lat="40.94246129285789" lon="9.296911587466633"><ele>283.0</ele><time>2026-03-27T15:08:00.999Z</time></trkpt><trkpt lat="40.94249436356827" lon="9.297152184551942"><ele>283.0</ele><time>2026-03-27T15:08:01.999Z</time></trkpt><trkpt lat="40.94252938341947" lon="9.29737617032463"><ele>283.0</ele><time>2026-03-27T15:08:02.999Z</time></trkpt><trkpt lat="40.94255809922931" lon="9.297593006968818"><ele>283.0</ele><time>2026-03-27T15:08:03.999Z</time></trkpt><trkpt lat="40.94259163282611" lon="9.297797690737934"><ele>283.0</ele><time>2026-03-27T15:08:04.999Z</time></trkpt><trkpt lat="40.94263769519976" lon="9.297982538006913"><ele>283.0</ele><time>2026-03-27T15:08:05.999Z</time></trkpt><trkpt lat="40.94269221264395" lon="9.29813875605665"><ele>283.0</ele><time>2026-03-27T15:08:06.999Z</time></trkpt><trkpt lat="40.942738258592954" lon="9.298295216812933"><ele>283.0</ele><time>2026-03-27T15:08:07.999Z</time></trkpt><trkpt lat="40.942772271868805" lon="9.298416212844842"><ele>282.8</ele><time>2026-03-27T15:08:08.999Z</time></trkpt><trkpt lat="40.94279536958617" lon="9.298520937986954"><ele>282.6</ele><time>2026-03-27T15:08:09.999Z</time></trkpt><trkpt lat="40.94286850021855" lon="9.29858343783547"><ele>282.4</ele><time>2026-03-27T15:08:10.999Z</time></trkpt><trkpt lat="40.943009561716245" lon="9.298526839744769"><ele>282.2</ele><time>2026-03-27T15:08:11.999Z</time></trkpt><trkpt lat="40.94312958700724" lon="9.298504544366613"><ele>282.0</ele><time>2026-03-27T15:08:12.999Z</time></trkpt><trkpt lat="40.94326244563616" lon="9.298432802458224"><ele>283.0</ele><time>2026-03-27T15:08:13.999Z</time></trkpt><trkpt lat="40.94342108210653" lon="9.29839818461344"><ele>284.0</ele><time>2026-03-27T15:08:14.999Z</time></trkpt><trkpt lat="40.94358550319163" lon="9.298330687041677"><ele>285.0</ele><time>2026-03-27T15:08:15.999Z</time></trkpt><trkpt lat="40.94374590738976" lon="9.298281586558163"><ele>285.0</ele><time>2026-03-27T15:08:16.999Z</time></trkpt><trkpt lat="40.943897648842054" lon="9.298222110205227"><ele>285.0</ele><time>2026-03-27T15:08:17.999Z</time></trkpt><trkpt lat="40.94404701650579" lon="9.298135853620598"><ele>285.0</ele><time>2026-03-27T15:08:18.999Z</time></trkpt><trkpt lat="40.94420759781987" lon="9.298075472920319"><ele>287.0</ele><time>2026-03-27T15:08:19.999Z</time></trkpt><trkpt lat="40.94436407146677" lon="9.298000077102492"><ele>289.0</ele><time>2026-03-27T15:08:20.998Z</time></trkpt><trkpt lat="40.94450448415065" lon="9.297938546903953"><ele>291.0</ele><time>2026-03-27T15:08:21.998Z</time></trkpt><trkpt lat="40.94463770222765" lon="9.297902647717825"><ele>291.0</ele><time>2026-03-27T15:08:22.998Z</time></trkpt><trkpt lat="40.944758862521844" lon="9.297905157901818"><ele>291.0</ele><time>2026-03-27T15:08:23.998Z</time></trkpt><trkpt lat="40.94487542626133" lon="9.297929480637455"><ele>291.0</ele><time>2026-03-27T15:08:24.998Z</time></trkpt><trkpt lat="40.944948158158645" lon="9.298047104129726"><ele>291.0</ele><time>2026-03-27T15:08:26Z</time></trkpt><trkpt lat="40.94500805295905" lon="9.298183971463029"><ele>290.75</ele><time>2026-03-27T15:08:27Z</time></trkpt><trkpt lat="40.945090214724495" lon="9.298311557864205"><ele>290.5</ele><time>2026-03-27T15:08:28Z</time></trkpt><trkpt lat="40.945191920492945" lon="9.298420120936683"><ele>290.25</ele><time>2026-03-27T15:08:29Z</time></trkpt><trkpt lat="40.945284343350615" lon="9.298537043921534"><ele>290.0</ele><time>2026-03-27T15:08:30Z</time></trkpt><trkpt lat="40.94536339938383" lon="9.298658133242165"><ele>290.0</ele><time>2026-03-27T15:08:31Z</time></trkpt><trkpt lat="40.94543536355673" lon="9.29874396596115"><ele>290.0</ele><time>2026-03-27T15:08:32Z</time></trkpt><trkpt lat="40.94551934293587" lon="9.29881624884342"><ele>290.0</ele><time>2026-03-27T15:08:34Z</time></trkpt><trkpt lat="40.94557034234558" lon="9.29890495709773"><ele>290.0</ele><time>2026-03-27T15:08:37Z</time></trkpt><trkpt lat="40.94563620593651" lon="9.298974130369595"><ele>290.0</ele><time>2026-03-27T15:08:40Z</time></trkpt><trkpt lat="40.945886625373475" lon="9.298687848037934"><ele>289.33333333333337</ele><time>2026-03-27T15:08:41Z</time></trkpt><trkpt lat="40.94600768279961" lon="9.29858819083741"><ele>288.6666666666667</ele><time>2026-03-27T15:08:42Z</time></trkpt><trkpt lat="40.94613773005683" lon="9.298466853764452"><ele>288.0</ele><time>2026-03-27T15:08:43Z</time></trkpt><trkpt lat="40.94628376119764" lon="9.298351806225021"><ele>288.0</ele><time>2026-03-27T15:08:44Z</time></trkpt><trkpt lat="40.946458265654286" lon="9.298245834600113"><ele>288.0</ele><time>2026-03-27T15:08:45Z</time></trkpt><trkpt lat="40.94664419718096" lon="9.298160839714637"><ele>288.0</ele><time>2026-03-27T15:08:46Z</time></trkpt><trkpt lat="40.94683010003117" lon="9.298084488931584"><ele>287.3333333333333</ele><time>2026-03-27T15:08:47Z</time></trkpt><trkpt lat="40.947013494827814" lon="9.298001611500439"><ele>286.66666666666663</ele><time>2026-03-27T15:08:48Z</time></trkpt><trkpt lat="40.94720722549041" lon="9.297905020727285"><ele>286.0</ele><time>2026-03-27T15:08:49Z</time></trkpt><trkpt lat="40.94740662077994" lon="9.297812294866702"><ele>288.0</ele><time>2026-03-27T15:08:50Z</time></trkpt><trkpt lat="40.94760963877879" lon="9.29771925693442"><ele>290.0</ele><time>2026-03-27T15:08:51Z</time></trkpt><trkpt lat="40.94781891181986" lon="9.297626391315609"><ele>292.0</ele><time>2026-03-27T15:08:52Z</time></trkpt><trkpt lat="40.948028922560106" lon="9.297529431394322"><ele>292.0</ele><time>2026-03-27T15:08:53Z</time></trkpt><trkpt lat="40.948235390727625" lon="9.297432597091388"><ele>292.0</ele><time>2026-03-27T15:08:54Z</time></trkpt><trkpt lat="40.948442052131306" lon="9.29733782089152"><ele>292.0</ele><time>2026-03-27T15:08:55Z</time></trkpt><trkpt lat="40.94864700205308" lon="9.297233478272265"><ele>291.66666666666663</ele><time>2026-03-27T15:08:56Z</time></trkpt><trkpt lat="40.9488391464842" lon="9.297111535167907"><ele>291.3333333333333</ele><time>2026-03-27T15:08:57Z</time></trkpt><trkpt lat="40.94902109970493" lon="9.296973930403693"><ele>291.0</ele><time>2026-03-27T15:08:58Z</time></trkpt><trkpt lat="40.94919922290228" lon="9.296819213137953"><ele>289.6666666666667</ele><time>2026-03-27T15:08:59Z</time></trkpt><trkpt lat="40.949368889740185" lon="9.296641929390145"><ele>288.33333333333337</ele><time>2026-03-27T15:09:00Z</time></trkpt><trkpt lat="40.94954118599885" lon="9.29647360837527"><ele>287.0</ele><time>2026-03-27T15:09:01Z</time></trkpt><trkpt lat="40.94970183046016" lon="9.29632474279499"><ele>287.0</ele><time>2026-03-27T15:09:02Z</time></trkpt><trkpt lat="40.94984869863349" lon="9.29618115800887"><ele>287.0</ele><time>2026-03-27T15:09:03Z</time></trkpt><trkpt lat="40.950001272565316" lon="9.296029326883497"><ele>287.0</ele><time>2026-03-27T15:09:04Z</time></trkpt><trkpt lat="40.950168654208916" lon="9.295873620285766"><ele>286.6666666666667</ele><time>2026-03-27T15:09:05Z</time></trkpt><trkpt lat="40.950344705206525" lon="9.295711612760716"><ele>286.3333333333333</ele><time>2026-03-27T15:09:06Z</time></trkpt><trkpt lat="40.95052484846309" lon="9.295546840120492"><ele>286.0</ele><time>2026-03-27T15:09:07Z</time></trkpt><trkpt lat="40.950708107572126" lon="9.29537540081544"><ele>286.3333333333333</ele><time>2026-03-27T15:09:08Z</time></trkpt><trkpt lat="40.9508777674169" lon="9.295213516196993"><ele>286.6666666666667</ele><time>2026-03-27T15:09:09Z</time></trkpt><trkpt lat="40.95103900662022" lon="9.295058981874034"><ele>287.0</ele><time>2026-03-27T15:09:10Z</time></trkpt><trkpt lat="40.95120824179901" lon="9.294900492658241"><ele>286.33333333333337</ele><time>2026-03-27T15:09:11Z</time></trkpt><trkpt lat="40.951384675590006" lon="9.294739826432037"><ele>285.6666666666667</ele><time>2026-03-27T15:09:12Z</time></trkpt><trkpt lat="40.95156149704527" lon="9.294583843744492"><ele>285.0</ele><time>2026-03-27T15:09:13Z</time></trkpt><trkpt lat="40.95174337691125" lon="9.294449198805236"><ele>286.3333333333333</ele><time>2026-03-27T15:09:14Z</time></trkpt><trkpt lat="40.95193685349527" lon="9.29432935324896"><ele>287.66666666666663</ele><time>2026-03-27T15:09:15Z</time></trkpt><trkpt lat="40.95214167027361" lon="9.294235208680313"><ele>289.0</ele><time>2026-03-27T15:09:16Z</time></trkpt><trkpt lat="40.95235557476132" lon="9.29418077521527"><ele>290.0</ele><time>2026-03-27T15:09:17Z</time></trkpt><trkpt lat="40.95257789437247" lon="9.294183345935346"><ele>291.0</ele><time>2026-03-27T15:09:18Z</time></trkpt><trkpt lat="40.952801955158264" lon="9.294213548958682"><ele>292.0</ele><time>2026-03-27T15:09:19Z</time></trkpt><trkpt lat="40.953035138931746" lon="9.294240056596864"><ele>292.0</ele><time>2026-03-27T15:09:20Z</time></trkpt><trkpt lat="40.95325865429692" lon="9.294254747601709"><ele>292.0</ele><time>2026-03-27T15:09:21Z</time></trkpt><trkpt lat="40.95348579894441" lon="9.294260120451838"><ele>294.0</ele><time>2026-03-27T15:09:22Z</time></trkpt><trkpt lat="40.95371849267328" lon="9.294279338856853"><ele>296.0</ele><time>2026-03-27T15:09:23Z</time></trkpt><trkpt lat="40.95395087732388" lon="9.294300090633334"><ele>296.0</ele><time>2026-03-27T15:09:24Z</time></trkpt><trkpt lat="40.95418038093488" lon="9.29431450630231"><ele>296.0</ele><time>2026-03-27T15:09:25Z</time></trkpt><trkpt lat="40.954409321440565" lon="9.294329732448375"><ele>298.5</ele><time>2026-03-27T15:09:26Z</time></trkpt><trkpt lat="40.9546354767215" lon="9.294346925002712"><ele>301.0</ele><time>2026-03-27T15:09:26.999Z</time></trkpt><trkpt lat="40.95486558061497" lon="9.294364772334466"><ele>301.3333333333333</ele><time>2026-03-27T15:09:27.999Z</time></trkpt><trkpt lat="40.955088643172054" lon="9.294386596692338"><ele>301.6666666666667</ele><time>2026-03-27T15:09:28.999Z</time></trkpt><trkpt lat="40.95529500120556" lon="9.294400641969032"><ele>302.0</ele><time>2026-03-27T15:09:29.999Z</time></trkpt><trkpt lat="40.95549657763785" lon="9.29441324638359"><ele>302.0</ele><time>2026-03-27T15:09:30.999Z</time></trkpt><trkpt lat="40.9556945214194" lon="9.294424643886092"><ele>302.0</ele><time>2026-03-27T15:09:31.999Z</time></trkpt><trkpt lat="40.95588857102724" lon="9.294436917683724"><ele>302.0</ele><time>2026-03-27T15:09:32.999Z</time></trkpt><trkpt lat="40.95607190630172" lon="9.294448804140963"><ele>300.0</ele><time>2026-03-27T15:09:33.999Z</time></trkpt><trkpt lat="40.95624615442709" lon="9.294457017706504"><ele>298.0</ele><time>2026-03-27T15:09:34.999Z</time></trkpt><trkpt lat="40.95641494761983" lon="9.294468665190678"><ele>296.0</ele><time>2026-03-27T15:09:35.999Z</time></trkpt><trkpt lat="40.95655805908718" lon="9.29448255436936"><ele>296.0</ele><time>2026-03-27T15:09:36.999Z</time></trkpt><trkpt lat="40.95667832166803" lon="9.294493579704662"><ele>296.0</ele><time>2026-03-27T15:09:37.999Z</time></trkpt><trkpt lat="40.95678718755521" lon="9.294504259953776"><ele>296.0</ele><time>2026-03-27T15:09:38.999Z</time></trkpt><trkpt lat="40.956885498188356" lon="9.294522983247383"><ele>296.0</ele><time>2026-03-27T15:09:39.999Z</time></trkpt><trkpt lat="40.95695329986037" lon="9.294560565673835"><ele>296.0</ele><time>2026-03-27T15:09:40.999Z</time></trkpt><trkpt lat="40.95700107723415" lon="9.294621503338687"><ele>295.2</ele><time>2026-03-27T15:09:41.999Z</time></trkpt><trkpt lat="40.95702926863567" lon="9.294714216700667"><ele>294.40000000000003</ele><time>2026-03-27T15:09:42.999Z</time></trkpt><trkpt lat="40.957061677557945" lon="9.294839972268832"><ele>293.6</ele><time>2026-03-27T15:09:43.999Z</time></trkpt><trkpt lat="40.95708436532208" lon="9.294990396916937"><ele>292.8</ele><time>2026-03-27T15:09:44.999Z</time></trkpt><trkpt lat="40.957096927679125" lon="9.295193430630965"><ele>292.0</ele><time>2026-03-27T15:09:45.999Z</time></trkpt><trkpt lat="40.95710963784681" lon="9.29540262313569"><ele>291.0</ele><time>2026-03-27T15:09:46.999Z</time></trkpt><trkpt lat="40.95713539191313" lon="9.295627387057769"><ele>290.0</ele><time>2026-03-27T15:09:47.999Z</time></trkpt><trkpt lat="40.957162417722415" lon="9.295831241187276"><ele>289.0</ele><time>2026-03-27T15:09:48.999Z</time></trkpt><trkpt lat="40.957183640390724" lon="9.296017034499377"><ele>289.0</ele><time>2026-03-27T15:09:49.999Z</time></trkpt><trkpt lat="40.95718963582405" lon="9.296194505433665"><ele>289.0</ele><time>2026-03-27T15:09:50.999Z</time></trkpt><trkpt lat="40.95716978657425" lon="9.29637802091172"><ele>289.0</ele><time>2026-03-27T15:09:51.999Z</time></trkpt><trkpt lat="40.957121997095236" lon="9.296570037737446"><ele>289.0</ele><time>2026-03-27T15:09:52.999Z</time></trkpt><trkpt lat="40.957067973411164" lon="9.296769433977337"><ele>288.3333333333333</ele><time>2026-03-27T15:09:53.999Z</time></trkpt><trkpt lat="40.957011122957184" lon="9.296982143846934"><ele>287.6666666666667</ele><time>2026-03-27T15:09:54.999Z</time></trkpt><trkpt lat="40.95695338977107" lon="9.29720838989689"><ele>287.0</ele><time>2026-03-27T15:09:55.999Z</time></trkpt><trkpt lat="40.95689580016657" lon="9.297432919695174"><ele>287.0</ele><time>2026-03-27T15:09:56.999Z</time></trkpt><trkpt lat="40.95683699158476" lon="9.297640586071678"><ele>287.0</ele><time>2026-03-27T15:09:57.999Z</time></trkpt><trkpt lat="40.956786218247466" lon="9.297833807188882"><ele>287.0</ele><time>2026-03-27T15:09:58.999Z</time></trkpt><trkpt lat="40.956744030155335" lon="9.298004087385983"><ele>289.0</ele><time>2026-03-27T15:09:59.999Z</time></trkpt><trkpt lat="40.95671698886178" lon="9.29817468393788"><ele>291.0</ele><time>2026-03-27T15:10:00.999Z</time></trkpt><trkpt lat="40.956727972411905" lon="9.298356136798992"><ele>293.0</ele><time>2026-03-27T15:10:01.999Z</time></trkpt><trkpt lat="40.95677895233987" lon="9.298526232070916"><ele>295.0</ele><time>2026-03-27T15:10:02.999Z</time></trkpt><trkpt lat="40.95683378555462" lon="9.298681433700589"><ele>295.0</ele><time>2026-03-27T15:10:03.999Z</time></trkpt><trkpt lat="40.956848403167484" lon="9.29882639138005"><ele>295.0</ele><time>2026-03-27T15:10:04.999Z</time></trkpt><trkpt lat="40.956817721389385" lon="9.29897180066254"><ele>295.0</ele><time>2026-03-27T15:10:05.999Z</time></trkpt><trkpt lat="40.95675040424702" lon="9.299140116489095"><ele>295.0</ele><time>2026-03-27T15:10:06.999Z</time></trkpt><trkpt lat="40.956668242283165" lon="9.299319470201738"><ele>297.0</ele><time>2026-03-27T15:10:07.999Z</time></trkpt><trkpt lat="40.9565921644379" lon="9.29950041147116"><ele>299.0</ele><time>2026-03-27T15:10:08.999Z</time></trkpt><trkpt lat="40.95652162397684" lon="9.29968698644345"><ele>301.0</ele><time>2026-03-27T15:10:09.999Z</time></trkpt><trkpt lat="40.95645334899429" lon="9.299878625911841"><ele>301.66666666666663</ele><time>2026-03-27T15:10:10.999Z</time></trkpt><trkpt lat="40.956380359404804" lon="9.300073272560036"><ele>302.3333333333333</ele><time>2026-03-27T15:10:11.999Z</time></trkpt><trkpt lat="40.95630230511854" lon="9.30026197745195"><ele>303.0</ele><time>2026-03-27T15:10:12.999Z</time></trkpt><trkpt lat="40.95622538352534" lon="9.30045107054976"><ele>304.6666666666667</ele><time>2026-03-27T15:10:13.999Z</time></trkpt><trkpt lat="40.95614757573505" lon="9.30063975137415"><ele>306.33333333333337</ele><time>2026-03-27T15:10:14.999Z</time></trkpt><trkpt lat="40.95606790310784" lon="9.300829129340057"><ele>308.0</ele><time>2026-03-27T15:10:15.999Z</time></trkpt><trkpt lat="40.955984671865394" lon="9.301014304147344"><ele>308.0</ele><time>2026-03-27T15:10:16.999Z</time></trkpt><trkpt lat="40.95590406663375" lon="9.301192319393172"><ele>308.0</ele><time>2026-03-27T15:10:17.999Z</time></trkpt><trkpt lat="40.95583270123283" lon="9.301360874945573"><ele>308.0</ele><time>2026-03-27T15:10:18.998Z</time></trkpt><trkpt lat="40.95576433840715" lon="9.30153665968865"><ele>310.6666666666667</ele><time>2026-03-27T15:10:19.998Z</time></trkpt><trkpt lat="40.955709110086794" lon="9.301720730780758"><ele>313.3333333333333</ele><time>2026-03-27T15:10:20.998Z</time></trkpt><trkpt lat="40.95566779992608" lon="9.301917666751146"><ele>316.0</ele><time>2026-03-27T15:10:21.998Z</time></trkpt><trkpt lat="40.95563652012343" lon="9.30212074786253"><ele>317.25</ele><time>2026-03-27T15:10:22.998Z</time></trkpt><trkpt lat="40.955608010680706" lon="9.302308761740703"><ele>318.5</ele><time>2026-03-27T15:10:23.998Z</time></trkpt><trkpt lat="40.95558293316761" lon="9.302484842234596"><ele>319.75</ele><time>2026-03-27T15:10:24.998Z</time></trkpt><trkpt lat="40.95555747053843" lon="9.302653964637406"><ele>321.0</ele><time>2026-03-27T15:10:25.998Z</time></trkpt><trkpt lat="40.95552156213001" lon="9.302811215577785"><ele>321.0</ele><time>2026-03-27T15:10:26.998Z</time></trkpt><trkpt lat="40.95546297698244" lon="9.302966285101675"><ele>321.0</ele><time>2026-03-27T15:10:27.998Z</time></trkpt><trkpt lat="40.955373884191616" lon="9.303102059244221"><ele>321.0</ele><time>2026-03-27T15:10:28.998Z</time></trkpt><trkpt lat="40.95526039131079" lon="9.303222956480495"><ele>321.0</ele><time>2026-03-27T15:10:29.998Z</time></trkpt><trkpt lat="40.95514317005743" lon="9.30334724984962"><ele>321.6666666666667</ele><time>2026-03-27T15:10:31Z</time></trkpt><trkpt lat="40.955021902389205" lon="9.30347599566643"><ele>322.33333333333337</ele><time>2026-03-27T15:10:32Z</time></trkpt><trkpt lat="40.95489950755267" lon="9.303609346232683"><ele>323.0</ele><time>2026-03-27T15:10:33Z</time></trkpt><trkpt lat="40.95477505683278" lon="9.30374519002457"><ele>323.0</ele><time>2026-03-27T15:10:34Z</time></trkpt><trkpt lat="40.95465019076111" lon="9.303885653135497"><ele>323.0</ele><time>2026-03-27T15:10:35Z</time></trkpt><trkpt lat="40.95452432326999" lon="9.304024822067797"><ele>323.0</ele><time>2026-03-27T15:10:36Z</time></trkpt><trkpt lat="40.954398787692135" lon="9.304161845972498"><ele>323.0</ele><time>2026-03-27T15:10:37Z</time></trkpt><trkpt lat="40.95427381071691" lon="9.304304809929567"><ele>323.0</ele><time>2026-03-27T15:10:38Z</time></trkpt><trkpt lat="40.95415221514537" lon="9.304457883813809"><ele>323.0</ele><time>2026-03-27T15:10:39Z</time></trkpt><trkpt lat="40.954030824251625" lon="9.304618350857892"><ele>323.33333333333337</ele><time>2026-03-27T15:10:40Z</time></trkpt><trkpt lat="40.953909436884636" lon="9.304791668010349"><ele>323.6666666666667</ele><time>2026-03-27T15:10:41Z</time></trkpt><trkpt lat="40.95378788117394" lon="9.304976034165927"><ele>324.0</ele><time>2026-03-27T15:10:42Z</time></trkpt><trkpt lat="40.953662791926206" lon="9.30516025434346"><ele>324.0</ele><time>2026-03-27T15:10:43Z</time></trkpt><trkpt lat="40.95353981283509" lon="9.305341157773443"><ele>324.0</ele><time>2026-03-27T15:10:44Z</time></trkpt><trkpt lat="40.95342155907015" lon="9.305506256040015"><ele>324.0</ele><time>2026-03-27T15:10:45Z</time></trkpt><trkpt lat="40.953312340143306" lon="9.305666877790635"><ele>328.3333333333333</ele><time>2026-03-27T15:10:46Z</time></trkpt><trkpt lat="40.95320864407617" lon="9.305843646781657"><ele>332.66666666666663</ele><time>2026-03-27T15:10:47Z</time></trkpt><trkpt lat="40.95311537342151" lon="9.306033173672375"><ele>337.0</ele><time>2026-03-27T15:10:48Z</time></trkpt><trkpt lat="40.95302470240167" lon="9.306230348962952"><ele>337.3333333333333</ele><time>2026-03-27T15:10:49Z</time></trkpt><trkpt lat="40.9529352039075" lon="9.30641473943902"><ele>337.6666666666667</ele><time>2026-03-27T15:10:50Z</time></trkpt><trkpt lat="40.952855975701" lon="9.306576238069514"><ele>338.0</ele><time>2026-03-27T15:10:51Z</time></trkpt><trkpt lat="40.95277542748927" lon="9.306745818753155"><ele>338.0</ele><time>2026-03-27T15:10:52Z</time></trkpt><trkpt lat="40.952694792492714" lon="9.306920586586902"><ele>338.0</ele><time>2026-03-27T15:10:53Z</time></trkpt><trkpt lat="40.95261776723101" lon="9.307103301410038"><ele>338.0</ele><time>2026-03-27T15:10:54Z</time></trkpt><trkpt lat="40.95254804075074" lon="9.307293302469686"><ele>339.25</ele><time>2026-03-27T15:10:55Z</time></trkpt><trkpt lat="40.952486205426695" lon="9.30747287365347"><ele>340.5</ele><time>2026-03-27T15:10:56Z</time></trkpt><trkpt lat="40.95243518331801" lon="9.307634295001238"><ele>341.75</ele><time>2026-03-27T15:10:57Z</time></trkpt><trkpt lat="40.95238786478576" lon="9.307785747729334"><ele>343.0</ele><time>2026-03-27T15:10:58Z</time></trkpt><trkpt lat="40.95234636184141" lon="9.307946392704554"><ele>343.75</ele><time>2026-03-27T15:10:59Z</time></trkpt><trkpt lat="40.95232206443132" lon="9.30811425371826"><ele>344.5</ele><time>2026-03-27T15:11:00Z</time></trkpt><trkpt lat="40.9523011174172" lon="9.308280569850915"><ele>345.25</ele><time>2026-03-27T15:11:01Z</time></trkpt><trkpt lat="40.952272806729326" lon="9.308422084568535"><ele>346.0</ele><time>2026-03-27T15:11:02Z</time></trkpt><trkpt lat="40.95222587569235" lon="9.308549509062125"><ele>346.0</ele><time>2026-03-27T15:11:03Z</time></trkpt><trkpt lat="40.95216141877846" lon="9.30867663258625"><ele>346.0</ele><time>2026-03-27T15:11:04Z</time></trkpt><trkpt lat="40.952103049790665" lon="9.30881644116487"><ele>346.0</ele><time>2026-03-27T15:11:05Z</time></trkpt><trkpt lat="40.952050730239456" lon="9.3089770121978"><ele>346.0</ele><time>2026-03-27T15:11:06Z</time></trkpt><trkpt lat="40.95200098753344" lon="9.30915633490689"><ele>346.0</ele><time>2026-03-27T15:11:07Z</time></trkpt><trkpt lat="40.95195626807714" lon="9.309351248099947"><ele>346.0</ele><time>2026-03-27T15:11:08Z</time></trkpt><trkpt lat="40.95190542406121" lon="9.309550741799747"><ele>346.0</ele><time>2026-03-27T15:11:09Z</time></trkpt><trkpt lat="40.951851481417336" lon="9.309757204372207"><ele>346.0</ele><time>2026-03-27T15:11:10Z</time></trkpt><trkpt lat="40.95180332708379" lon="9.309959771198546"><ele>346.0</ele><time>2026-03-27T15:11:11Z</time></trkpt><trkpt lat="40.951750580069096" lon="9.310167811943593"><ele>346.0</ele><time>2026-03-27T15:11:12Z</time></trkpt><trkpt lat="40.951697209247584" lon="9.310381067440266"><ele>344.66666666666663</ele><time>2026-03-27T15:11:13Z</time></trkpt><trkpt lat="40.95164855500697" lon="9.310589962288553"><ele>343.3333333333333</ele><time>2026-03-27T15:11:14Z</time></trkpt><trkpt lat="40.9516021435506" lon="9.310777643634822"><ele>342.0</ele><time>2026-03-27T15:11:15Z</time></trkpt><trkpt lat="40.95155722074615" lon="9.310950898733962"><ele>342.0</ele><time>2026-03-27T15:11:16Z</time></trkpt><trkpt lat="40.95151248342167" lon="9.311107983663467"><ele>342.0</ele><time>2026-03-27T15:11:17Z</time></trkpt><trkpt lat="40.951472069702156" lon="9.311254507920715"><ele>342.0</ele><time>2026-03-27T15:11:18Z</time></trkpt><trkpt lat="40.9514134964818" lon="9.311387604703688"><ele>342.0</ele><time>2026-03-27T15:11:19Z</time></trkpt><trkpt lat="40.95134764827204" lon="9.311526305714743"><ele>341.5</ele><time>2026-03-27T15:11:20Z</time></trkpt><trkpt lat="40.95129291424637" lon="9.311677511854997"><ele>341.0</ele><time>2026-03-27T15:11:21Z</time></trkpt><trkpt lat="40.951254319440075" lon="9.31181894356893"><ele>340.5</ele><time>2026-03-27T15:11:22Z</time></trkpt><trkpt lat="40.95123914579578" lon="9.311957832135064"><ele>340.0</ele><time>2026-03-27T15:11:23Z</time></trkpt><trkpt lat="40.951251057709975" lon="9.312118228855756"><ele>339.5</ele><time>2026-03-27T15:11:24Z</time></trkpt><trkpt lat="40.95126247951943" lon="9.312293887070497"><ele>339.0</ele><time>2026-03-27T15:11:25Z</time></trkpt><trkpt lat="40.95126522464225" lon="9.312491233099031"><ele>338.5</ele><time>2026-03-27T15:11:26Z</time></trkpt><trkpt lat="40.95126986536782" lon="9.312704992001647"><ele>338.0</ele><time>2026-03-27T15:11:27Z</time></trkpt><trkpt lat="40.95126941182474" lon="9.312917237768481"><ele>338.0</ele><time>2026-03-27T15:11:27.999Z</time></trkpt><trkpt lat="40.95126723805869" lon="9.313127776887118"><ele>338.0</ele><time>2026-03-27T15:11:28.999Z</time></trkpt><trkpt lat="40.95126610794586" lon="9.313333732683652"><ele>338.0</ele><time>2026-03-27T15:11:29.999Z</time></trkpt><trkpt lat="40.95126780556987" lon="9.31354044042206"><ele>338.0</ele><time>2026-03-27T15:11:30.999Z</time></trkpt><trkpt lat="40.95128803130604" lon="9.313758662227565"><ele>338.0</ele><time>2026-03-27T15:11:31.999Z</time></trkpt><trkpt lat="40.95132250209721" lon="9.313974981580163"><ele>338.0</ele><time>2026-03-27T15:11:32.999Z</time></trkpt><trkpt lat="40.95136836499974" lon="9.314203409334915"><ele>338.0</ele><time>2026-03-27T15:11:33.999Z</time></trkpt><trkpt lat="40.95141648812587" lon="9.314433782968358"><ele>338.0</ele><time>2026-03-27T15:11:34.999Z</time></trkpt><trkpt lat="40.951468110707765" lon="9.314663868254712"><ele>338.0</ele><time>2026-03-27T15:11:35.999Z</time></trkpt><trkpt lat="40.951521766696864" lon="9.314893291943275"><ele>338.6666666666667</ele><time>2026-03-27T15:11:36.999Z</time></trkpt><trkpt lat="40.951578990196516" lon="9.315122381716623"><ele>339.3333333333333</ele><time>2026-03-27T15:11:37.999Z</time></trkpt><trkpt lat="40.95163941185807" lon="9.3153537966561"><ele>340.0</ele><time>2026-03-27T15:11:38.999Z</time></trkpt><trkpt lat="40.951701216244665" lon="9.315586850427641"><ele>340.0</ele><time>2026-03-27T15:11:39.999Z</time></trkpt><trkpt lat="40.95175908100086" lon="9.315814255416674"><ele>340.0</ele><time>2026-03-27T15:11:40.999Z</time></trkpt><trkpt lat="40.9518126023359" lon="9.316026245809946"><ele>340.0</ele><time>2026-03-27T15:11:41.999Z</time></trkpt><trkpt lat="40.95186248870255" lon="9.316226477691112"><ele>340.25</ele><time>2026-03-27T15:11:42.999Z</time></trkpt><trkpt lat="40.95191084716042" lon="9.316422474467931"><ele>340.5</ele><time>2026-03-27T15:11:43.999Z</time></trkpt><trkpt lat="40.95195832804056" lon="9.316603405618764"><ele>340.75</ele><time>2026-03-27T15:11:44.999Z</time></trkpt><trkpt lat="40.95200180454253" lon="9.316768550370533"><ele>341.0</ele><time>2026-03-27T15:11:45.999Z</time></trkpt><trkpt lat="40.95204125579251" lon="9.316925395898313"><ele>341.0</ele><time>2026-03-27T15:11:46.999Z</time></trkpt><trkpt lat="40.95208279374538" lon="9.317071777896505"><ele>341.0</ele><time>2026-03-27T15:11:47.999Z</time></trkpt><trkpt lat="40.95213993731866" lon="9.317208182488107"><ele>341.0</ele><time>2026-03-27T15:11:48.999Z</time></trkpt><trkpt lat="40.9522325231496" lon="9.317337139960056"><ele>341.0</ele><time>2026-03-27T15:11:49.999Z</time></trkpt><trkpt lat="40.95235257932002" lon="9.317457055671193"><ele>341.25</ele><time>2026-03-27T15:11:50.999Z</time></trkpt><trkpt lat="40.952477131924226" lon="9.31756989884602"><ele>341.5</ele><time>2026-03-27T15:11:51.999Z</time></trkpt><trkpt lat="40.95259029508529" lon="9.317680046194056"><ele>341.75</ele><time>2026-03-27T15:11:52.999Z</time></trkpt><trkpt lat="40.952693678228584" lon="9.317789723878334"><ele>342.0</ele><time>2026-03-27T15:11:53.999Z</time></trkpt><trkpt lat="40.95279350938628" lon="9.3179090041197"><ele>342.75</ele><time>2026-03-27T15:11:54.999Z</time></trkpt><trkpt lat="40.95288119980206" lon="9.318025905548925"><ele>343.5</ele><time>2026-03-27T15:11:55.999Z</time></trkpt><trkpt lat="40.95294873188509" lon="9.318150290636952"><ele>344.25</ele><time>2026-03-27T15:11:56.999Z</time></trkpt><trkpt lat="40.952998398400354" lon="9.318275359383087"><ele>345.0</ele><time>2026-03-27T15:11:57.999Z</time></trkpt><trkpt lat="40.95303395671437" lon="9.318413706609045"><ele>346.0</ele><time>2026-03-27T15:11:58.999Z</time></trkpt><trkpt lat="40.95304629591183" lon="9.318539009784406"><ele>347.0</ele><time>2026-03-27T15:11:59.999Z</time></trkpt><trkpt lat="40.95302437873306" lon="9.318632339372488"><ele>348.0</ele><time>2026-03-27T15:12:00.999Z</time></trkpt><trkpt lat="40.95298312652904" lon="9.318717211676173"><ele>349.0</ele><time>2026-03-27T15:12:01.999Z</time></trkpt><trkpt lat="40.95292290392987" lon="9.318837521061539"><ele>350.0</ele><time>2026-03-27T15:12:02.999Z</time></trkpt><trkpt lat="40.95288014738256" lon="9.31898175379202"><ele>351.0</ele><time>2026-03-27T15:12:03.999Z</time></trkpt><trkpt lat="40.9528517519259" lon="9.319175613483436"><ele>352.0</ele><time>2026-03-27T15:12:04.999Z</time></trkpt><trkpt lat="40.95284766355132" lon="9.319399783992296"><ele>353.0</ele><time>2026-03-27T15:12:05.999Z</time></trkpt><trkpt lat="40.952836768259296" lon="9.319639633169245"><ele>353.0</ele><time>2026-03-27T15:12:06.999Z</time></trkpt><trkpt lat="40.95283843739684" lon="9.319869033663766"><ele>353.0</ele><time>2026-03-27T15:12:07.999Z</time></trkpt><trkpt lat="40.95285926812735" lon="9.320056198797177"><ele>353.0</ele><time>2026-03-27T15:12:08.999Z</time></trkpt><trkpt lat="40.95289977148033" lon="9.320249714334983"><ele>353.0</ele><time>2026-03-27T15:12:09.999Z</time></trkpt><trkpt lat="40.95297275829434" lon="9.320471302241438"><ele>353.0</ele><time>2026-03-27T15:12:10.999Z</time></trkpt><trkpt lat="40.95304535564432" lon="9.320699627176475"><ele>353.0</ele><time>2026-03-27T15:12:11.999Z</time></trkpt><trkpt lat="40.953127804068984" lon="9.320945619665013"><ele>352.6666666666667</ele><time>2026-03-27T15:12:12.999Z</time></trkpt><trkpt lat="40.953212526283295" lon="9.321176010774899"><ele>352.3333333333333</ele><time>2026-03-27T15:12:13.999Z</time></trkpt><trkpt lat="40.953309199917626" lon="9.321404064490133"><ele>352.0</ele><time>2026-03-27T15:12:14.999Z</time></trkpt><trkpt lat="40.95340191170984" lon="9.321603656027701"><ele>354.75</ele><time>2026-03-27T15:12:15.999Z</time></trkpt><trkpt lat="40.953505794936895" lon="9.321774347440785"><ele>357.5</ele><time>2026-03-27T15:12:16.999Z</time></trkpt><trkpt lat="40.953608204110466" lon="9.321907595365696"><ele>360.25</ele><time>2026-03-27T15:12:17.999Z</time></trkpt><trkpt lat="40.953708184135934" lon="9.322009433414522"><ele>363.0</ele><time>2026-03-27T15:12:18.999Z</time></trkpt><trkpt lat="40.95382839231785" lon="9.322058457707602"><ele>363.0</ele><time>2026-03-27T15:12:19.999Z</time></trkpt><trkpt lat="40.95396143897112" lon="9.322088762549496"><ele>363.0</ele><time>2026-03-27T15:12:20.999Z</time></trkpt><trkpt lat="40.95410605639372" lon="9.322096246865046"><ele>363.0</ele><time>2026-03-27T15:12:21.999Z</time></trkpt><trkpt lat="40.9542525682837" lon="9.322108099294674"><ele>363.0</ele><time>2026-03-27T15:12:22.998Z</time></trkpt><trkpt lat="40.9543878934553" lon="9.32214578394334"><ele>364.0</ele><time>2026-03-27T15:12:23.998Z</time></trkpt><trkpt lat="40.95449355934817" lon="9.322191796160544"><ele>365.0</ele><time>2026-03-27T15:12:24.998Z</time></trkpt><trkpt lat="40.95460399394061" lon="9.322272643236294"><ele>366.0</ele><time>2026-03-27T15:12:25.998Z</time></trkpt><trkpt lat="40.95472455201867" lon="9.32243226770472"><ele>367.0</ele><time>2026-03-27T15:12:26.998Z</time></trkpt><trkpt lat="40.95483085996316" lon="9.322572118394408"><ele>367.0</ele><time>2026-03-27T15:12:27.998Z</time></trkpt><trkpt lat="40.95491248046589" lon="9.322669892944658"><ele>367.0</ele><time>2026-03-27T15:12:28.998Z</time></trkpt><trkpt lat="40.95502139587339" lon="9.322744908612185"><ele>367.0</ele><time>2026-03-27T15:12:29.998Z</time></trkpt><trkpt lat="40.955157259227946" lon="9.322977066823956"><ele>369.3333333333333</ele><time>2026-03-27T15:12:30.998Z</time></trkpt><trkpt lat="40.95526533263977" lon="9.323106390358024"><ele>371.6666666666667</ele><time>2026-03-27T15:12:31.998Z</time></trkpt><trkpt lat="40.95536642055197" lon="9.323255020874116"><ele>374.0</ele><time>2026-03-27T15:12:32.998Z</time></trkpt><trkpt lat="40.95544508244573" lon="9.323456508646572"><ele>374.0</ele><time>2026-03-27T15:12:33.998Z</time></trkpt><trkpt lat="40.955530942934026" lon="9.323641070215542"><ele>374.0</ele><time>2026-03-27T15:12:34.998Z</time></trkpt><trkpt lat="40.95561303177053" lon="9.323803675791016"><ele>374.0</ele><time>2026-03-27T15:12:36Z</time></trkpt><trkpt lat="40.95570294752115" lon="9.323952555112918"><ele>372.0</ele><time>2026-03-27T15:12:37Z</time></trkpt><trkpt lat="40.955832167815814" lon="9.324075128935561"><ele>370.0</ele><time>2026-03-27T15:12:38Z</time></trkpt><trkpt lat="40.95601220500605" lon="9.324222092342414"><ele>368.0</ele><time>2026-03-27T15:12:39Z</time></trkpt><trkpt lat="40.95616368831546" lon="9.32437706258411"><ele>370.25</ele><time>2026-03-27T15:12:40Z</time></trkpt><trkpt lat="40.956284089404726" lon="9.324541182224253"><ele>372.5</ele><time>2026-03-27T15:12:41Z</time></trkpt><trkpt lat="40.95636313892083" lon="9.324702752152366"><ele>374.75</ele><time>2026-03-27T15:12:42Z</time></trkpt><trkpt lat="40.956358157800636" lon="9.324822549029566"><ele>377.0</ele><time>2026-03-27T15:12:43Z</time></trkpt><trkpt lat="40.95639100241086" lon="9.324993474766321"><ele>377.0</ele><time>2026-03-27T15:12:44Z</time></trkpt><trkpt lat="40.95644798966715" lon="9.325180695686482"><ele>377.0</ele><time>2026-03-27T15:12:45Z</time></trkpt><trkpt lat="40.956557064541684" lon="9.325372650613545"><ele>377.0</ele><time>2026-03-27T15:12:46Z</time></trkpt><trkpt lat="40.9566889253429" lon="9.325582344567804"><ele>377.33333333333337</ele><time>2026-03-27T15:12:47Z</time></trkpt><trkpt lat="40.95683703666404" lon="9.32578155409471"><ele>377.6666666666667</ele><time>2026-03-27T15:12:48Z</time></trkpt><trkpt lat="40.956950211819795" lon="9.325945478446489"><ele>378.0</ele><time>2026-03-27T15:12:49Z</time></trkpt><trkpt lat="40.957052740877984" lon="9.32612478364581"><ele>378.0</ele><time>2026-03-27T15:12:50Z</time></trkpt><trkpt lat="40.95711508409018" lon="9.326308396236628"><ele>378.0</ele><time>2026-03-27T15:12:51Z</time></trkpt><trkpt lat="40.957177967010765" lon="9.326517885537942"><ele>378.0</ele><time>2026-03-27T15:12:52Z</time></trkpt><trkpt lat="40.95722522635285" lon="9.326736275756137"><ele>378.6666666666667</ele><time>2026-03-27T15:12:53Z</time></trkpt><trkpt lat="40.95726517131683" lon="9.326961468218002"><ele>379.33333333333337</ele><time>2026-03-27T15:12:54Z</time></trkpt><trkpt lat="40.9573214799441" lon="9.327154016524966"><ele>380.0</ele><time>2026-03-27T15:12:55Z</time></trkpt><trkpt lat="40.957424111595785" lon="9.32731848241485"><ele>385.0</ele><time>2026-03-27T15:12:56Z</time></trkpt><trkpt lat="40.95755783096641" lon="9.327470209764614"><ele>390.0</ele><time>2026-03-27T15:12:57Z</time></trkpt><trkpt lat="40.95767522944995" lon="9.327628384678658"><ele>395.0</ele><time>2026-03-27T15:12:58Z</time></trkpt><trkpt lat="40.95774712217086" lon="9.327718471456185"><ele>400.0</ele><time>2026-03-27T15:12:59Z</time></trkpt><trkpt lat="40.95776226612114" lon="9.32783222363077"><ele>400.0</ele><time>2026-03-27T15:13:00Z</time></trkpt><trkpt lat="40.95774173619164" lon="9.327946377661616"><ele>400.0</ele><time>2026-03-27T15:13:01Z</time></trkpt><trkpt lat="40.95774034845911" lon="9.328101544725952"><ele>400.0</ele><time>2026-03-27T15:13:02Z</time></trkpt><trkpt lat="40.95777255317388" lon="9.328271423734236"><ele>400.0</ele><time>2026-03-27T15:13:03Z</time></trkpt><trkpt lat="40.957820525770906" lon="9.328446357803063"><ele>399.6666666666667</ele><time>2026-03-27T15:13:04Z</time></trkpt><trkpt lat="40.9578729691205" lon="9.328610613907149"><ele>399.33333333333337</ele><time>2026-03-27T15:13:05Z</time></trkpt><trkpt lat="40.957947492336054" lon="9.328780251969496"><ele>399.0</ele><time>2026-03-27T15:13:06Z</time></trkpt><trkpt lat="40.95805009932202" lon="9.328968887471785"><ele>397.66666666666663</ele><time>2026-03-27T15:13:07Z</time></trkpt><trkpt lat="40.95816564553453" lon="9.329163395665406"><ele>396.3333333333333</ele><time>2026-03-27T15:13:08Z</time></trkpt><trkpt lat="40.95827863582894" lon="9.329376603311946"><ele>395.0</ele><time>2026-03-27T15:13:09Z</time></trkpt><trkpt lat="40.95836175753922" lon="9.329587862687978"><ele>397.3333333333333</ele><time>2026-03-27T15:13:10Z</time></trkpt><trkpt lat="40.95844779910064" lon="9.329788424360569"><ele>399.66666666666663</ele><time>2026-03-27T15:13:11Z</time></trkpt><trkpt lat="40.95855317550317" lon="9.329978604339075"><ele>402.0</ele><time>2026-03-27T15:13:12Z</time></trkpt><trkpt lat="40.958683442611445" lon="9.330184435872722"><ele>402.0</ele><time>2026-03-27T15:13:13Z</time></trkpt><trkpt lat="40.958800766326796" lon="9.330363260678949"><ele>402.0</ele><time>2026-03-27T15:13:14Z</time></trkpt><trkpt lat="40.958888770312875" lon="9.330490674582897"><ele>402.0</ele><time>2026-03-27T15:13:15Z</time></trkpt><trkpt lat="40.95899327403011" lon="9.330574682823404"><ele>402.0</ele><time>2026-03-27T15:13:16Z</time></trkpt><trkpt lat="40.95911550061978" lon="9.330632413055511"><ele>402.20000000000005</ele><time>2026-03-27T15:13:17Z</time></trkpt><trkpt lat="40.95921873629731" lon="9.330656662393453"><ele>402.4</ele><time>2026-03-27T15:13:18Z</time></trkpt><trkpt lat="40.95929401683632" lon="9.33066028983201"><ele>402.6</ele><time>2026-03-27T15:13:19Z</time></trkpt><trkpt lat="40.95936589842687" lon="9.33059293858665"><ele>402.79999999999995</ele><time>2026-03-27T15:13:20Z</time></trkpt><trkpt lat="40.95945361105511" lon="9.330539326209546"><ele>403.0</ele><time>2026-03-27T15:13:21Z</time></trkpt><trkpt lat="40.95957451748246" lon="9.330474900966477"><ele>404.0</ele><time>2026-03-27T15:13:22Z</time></trkpt><trkpt lat="40.95970620817024" lon="9.330418906926132"><ele>405.0</ele><time>2026-03-27T15:13:23Z</time></trkpt><trkpt lat="40.959840197047185" lon="9.330373192516259"><ele>406.0</ele><time>2026-03-27T15:13:24Z</time></trkpt><trkpt lat="40.95998186297288" lon="9.330378911629936"><ele>407.0</ele><time>2026-03-27T15:13:25Z</time></trkpt><trkpt lat="40.96012999578072" lon="9.330399585725862"><ele>405.25</ele><time>2026-03-27T15:13:26Z</time></trkpt><trkpt lat="40.96026901683665" lon="9.33042392837946"><ele>403.5</ele><time>2026-03-27T15:13:27Z</time></trkpt><trkpt lat="40.960391054624104" lon="9.330501600007535"><ele>401.75</ele><time>2026-03-27T15:13:28Z</time></trkpt><trkpt lat="40.960455625758584" lon="9.330565300110814"><ele>400.0</ele><time>2026-03-27T15:13:28.999Z</time></trkpt><trkpt lat="40.96051720268707" lon="9.330678509048036"><ele>400.0</ele><time>2026-03-27T15:13:29.999Z</time></trkpt><trkpt lat="40.96053125741376" lon="9.330802056108544"><ele>400.0</ele><time>2026-03-27T15:13:30.999Z</time></trkpt><trkpt lat="40.96056370429313" lon="9.330931398341658"><ele>400.0</ele><time>2026-03-27T15:13:31.999Z</time></trkpt><trkpt lat="40.96063344619419" lon="9.331072641090957"><ele>400.0</ele><time>2026-03-27T15:13:32.999Z</time></trkpt><trkpt lat="40.96075746178356" lon="9.331199052424633"><ele>405.0</ele><time>2026-03-27T15:13:33.999Z</time></trkpt><trkpt lat="40.96087963456606" lon="9.331323003967235"><ele>410.0</ele><time>2026-03-27T15:13:34.999Z</time></trkpt><trkpt lat="40.96096918925333" lon="9.331489093891411"><ele>415.0</ele><time>2026-03-27T15:13:35.999Z</time></trkpt><trkpt lat="40.96104290744117" lon="9.33167899070354"><ele>415.5</ele><time>2026-03-27T15:13:36.999Z</time></trkpt><trkpt lat="40.96112985991352" lon="9.331837426891392"><ele>416.0</ele><time>2026-03-27T15:13:37.999Z</time></trkpt><trkpt lat="40.96122768559954" lon="9.331968842128381"><ele>416.5</ele><time>2026-03-27T15:13:38.999Z</time></trkpt><trkpt lat="40.96135156721674" lon="9.33210547419147"><ele>417.0</ele><time>2026-03-27T15:13:39.999Z</time></trkpt><trkpt lat="40.9614651034283" lon="9.332251827108891"><ele>417.0</ele><time>2026-03-27T15:13:40.999Z</time></trkpt><trkpt lat="40.961570457071964" lon="9.332403980143171"><ele>417.0</ele><time>2026-03-27T15:13:41.999Z</time></trkpt><trkpt lat="40.96167072444423" lon="9.332552293637656"><ele>417.0</ele><time>2026-03-27T15:13:42.999Z</time></trkpt><trkpt lat="40.961781148922505" lon="9.332739264141932"><ele>422.0</ele><time>2026-03-27T15:13:43.999Z</time></trkpt><trkpt lat="40.96189078535215" lon="9.332914806513518"><ele>427.0</ele><time>2026-03-27T15:13:44.999Z</time></trkpt><trkpt lat="40.96201062337369" lon="9.333057558626841"><ele>432.0</ele><time>2026-03-27T15:13:45.999Z</time></trkpt><trkpt lat="40.96212174183247" lon="9.333145843324417"><ele>432.0</ele><time>2026-03-27T15:13:46.999Z</time></trkpt><trkpt lat="40.96221194091249" lon="9.33324512818453"><ele>432.0</ele><time>2026-03-27T15:13:47.999Z</time></trkpt><trkpt lat="40.962275072091764" lon="9.333348385477008"><ele>432.0</ele><time>2026-03-27T15:13:48.999Z</time></trkpt><trkpt lat="40.96228684154571" lon="9.333506724009608"><ele>432.0</ele><time>2026-03-27T15:13:49.999Z</time></trkpt><trkpt lat="40.96233171533651" lon="9.333654199848405"><ele>432.0</ele><time>2026-03-27T15:13:50.999Z</time></trkpt><trkpt lat="40.962406219446244" lon="9.333795477632492"><ele>432.0</ele><time>2026-03-27T15:13:51.999Z</time></trkpt><trkpt lat="40.96252633023803" lon="9.333916478383554"><ele>432.0</ele><time>2026-03-27T15:13:52.999Z</time></trkpt><trkpt lat="40.96267573554336" lon="9.334095105498452"><ele>431.5</ele><time>2026-03-27T15:13:53.999Z</time></trkpt><trkpt lat="40.962793618049574" lon="9.334252219882043"><ele>431.0</ele><time>2026-03-27T15:13:54.999Z</time></trkpt><trkpt lat="40.962890499855426" lon="9.334405453133824"><ele>430.5</ele><time>2026-03-27T15:13:55.999Z</time></trkpt><trkpt lat="40.96296218209163" lon="9.33449890752187"><ele>430.0</ele><time>2026-03-27T15:13:56.999Z</time></trkpt><trkpt lat="40.96302408144794" lon="9.334548530053905"><ele>430.0</ele><time>2026-03-27T15:13:57.999Z</time></trkpt><trkpt lat="40.963186895845155" lon="9.334627310377222"><ele>430.0</ele><time>2026-03-27T15:13:58.999Z</time></trkpt><trkpt lat="40.96334855144997" lon="9.33471653636014"><ele>430.0</ele><time>2026-03-27T15:13:59.999Z</time></trkpt><trkpt lat="40.96350394304613" lon="9.334765137422407"><ele>430.0</ele><time>2026-03-27T15:14:00.999Z</time></trkpt><trkpt lat="40.96360787631224" lon="9.334765812173874"><ele>430.0</ele><time>2026-03-27T15:14:01.999Z</time></trkpt><trkpt lat="40.96371703833968" lon="9.334740636537553"><ele>430.0</ele><time>2026-03-27T15:14:02.999Z</time></trkpt><trkpt lat="40.96378204674292" lon="9.334708729517255"><ele>430.0</ele><time>2026-03-27T15:14:03.999Z</time></trkpt><trkpt lat="40.96385233687205" lon="9.334649657655241"><ele>430.0</ele><time>2026-03-27T15:14:04.999Z</time></trkpt><trkpt lat="40.96395753106908" lon="9.33462100066138"><ele>430.0</ele><time>2026-03-27T15:14:05.999Z</time></trkpt><trkpt lat="40.964023725160004" lon="9.334663095990056"><ele>430.0</ele><time>2026-03-27T15:14:06.999Z</time></trkpt><trkpt lat="40.964076015082895" lon="9.334742653629231"><ele>430.0</ele><time>2026-03-27T15:14:07.999Z</time></trkpt><trkpt lat="40.964172366337" lon="9.334838921127455"><ele>430.0</ele><time>2026-03-27T15:14:08.999Z</time></trkpt><trkpt lat="40.96425764318422" lon="9.334942765600884"><ele>430.0</ele><time>2026-03-27T15:14:09.999Z</time></trkpt><trkpt lat="40.96434427299088" lon="9.335033733790445"><ele>431.5</ele><time>2026-03-27T15:14:10.999Z</time></trkpt><trkpt lat="40.96444999989321" lon="9.33511436566056"><ele>433.0</ele><time>2026-03-27T15:14:11.999Z</time></trkpt><trkpt lat="40.96458505647565" lon="9.335207506254632"><ele>434.5</ele><time>2026-03-27T15:14:12.999Z</time></trkpt><trkpt lat="40.96473175553263" lon="9.335290819375004"><ele>436.0</ele><time>2026-03-27T15:14:13.999Z</time></trkpt><trkpt lat="40.96487017198647" lon="9.335373451796318"><ele>436.0</ele><time>2026-03-27T15:14:14.999Z</time></trkpt><trkpt lat="40.9649841539789" lon="9.335455884242576"><ele>436.0</ele><time>2026-03-27T15:14:15.999Z</time></trkpt><trkpt lat="40.965017089155715" lon="9.33553512460101"><ele>436.0</ele><time>2026-03-27T15:14:16.999Z</time></trkpt><trkpt lat="40.96501307875217" lon="9.335681263475204"><ele>436.0</ele><time>2026-03-27T15:14:18.999Z</time></trkpt><trkpt lat="40.96501875860477" lon="9.335822592437808"><ele>436.0</ele><time>2026-03-27T15:14:19.999Z</time></trkpt><trkpt lat="40.965005794261394" lon="9.335958112786198"><ele>436.0</ele><time>2026-03-27T15:14:20.999Z</time></trkpt><trkpt lat="40.964990953947606" lon="9.336146678868497"><ele>436.0</ele><time>2026-03-27T15:14:21.998Z</time></trkpt><trkpt lat="40.964968833168086" lon="9.336294764948965"><ele>436.0</ele><time>2026-03-27T15:14:22.998Z</time></trkpt><trkpt lat="40.964982811839015" lon="9.336423812698447"><ele>436.0</ele><time>2026-03-27T15:14:23.998Z</time></trkpt><trkpt lat="40.96503383431085" lon="9.336530056055851"><ele>436.75</ele><time>2026-03-27T15:14:24.998Z</time></trkpt><trkpt lat="40.96510566031387" lon="9.336614120474904"><ele>437.5</ele><time>2026-03-27T15:14:25.998Z</time></trkpt><trkpt lat="40.96521743959894" lon="9.336724541928412"><ele>438.25</ele><time>2026-03-27T15:14:26.998Z</time></trkpt><trkpt lat="40.96537398369439" lon="9.33686110516946"><ele>439.0</ele><time>2026-03-27T15:14:27.998Z</time></trkpt><trkpt lat="40.965530641772716" lon="9.33701604792148"><ele>439.0</ele><time>2026-03-27T15:14:28.998Z</time></trkpt><trkpt lat="40.96565451820844" lon="9.337183565589358"><ele>439.0</ele><time>2026-03-27T15:14:29.998Z</time></trkpt><trkpt lat="40.96577505819139" lon="9.33735291937744"><ele>439.0</ele><time>2026-03-27T15:14:30.998Z</time></trkpt><trkpt lat="40.96589611781673" lon="9.337529793759659"><ele>440.25</ele><time>2026-03-27T15:14:31.998Z</time></trkpt><trkpt lat="40.96601437868491" lon="9.337677010741999"><ele>441.5</ele><time>2026-03-27T15:14:32.998Z</time></trkpt><trkpt lat="40.966111840251365" lon="9.337795824906966"><ele>442.75</ele><time>2026-03-27T15:14:33.998Z</time></trkpt><trkpt lat="40.96618914950479" lon="9.337884315546972"><ele>444.0</ele><time>2026-03-27T15:14:34.998Z</time></trkpt><trkpt lat="40.96627100068054" lon="9.337954966166757"><ele>444.0</ele><time>2026-03-27T15:14:35.998Z</time></trkpt><trkpt lat="40.966394824186736" lon="9.338019874194623"><ele>444.0</ele><time>2026-03-27T15:14:36.998Z</time></trkpt><trkpt lat="40.966552074193054" lon="9.338112371144954"><ele>444.0</ele><time>2026-03-27T15:14:37.998Z</time></trkpt><trkpt lat="40.96670736237143" lon="9.338222183962051"><ele>442.66666666666663</ele><time>2026-03-27T15:14:38.998Z</time></trkpt><trkpt lat="40.96685551205832" lon="9.338337419667438"><ele>441.3333333333333</ele><time>2026-03-27T15:14:39.998Z</time></trkpt><trkpt lat="40.96699909725011" lon="9.338441236078813"><ele>440.0</ele><time>2026-03-27T15:14:41Z</time></trkpt><trkpt lat="40.96711711870973" lon="9.33852607853874"><ele>440.0</ele><time>2026-03-27T15:14:42Z</time></trkpt><trkpt lat="40.96722952348475" lon="9.338572555929456"><ele>440.0</ele><time>2026-03-27T15:14:43Z</time></trkpt><trkpt lat="40.967360473488895" lon="9.33858274392587"><ele>440.0</ele><time>2026-03-27T15:14:44Z</time></trkpt><trkpt lat="40.9674919291051" lon="9.338561005323806"><ele>440.0</ele><time>2026-03-27T15:14:45Z</time></trkpt><trkpt lat="40.96760348868107" lon="9.338558278536876"><ele>438.25</ele><time>2026-03-27T15:14:46Z</time></trkpt><trkpt lat="40.96771362128816" lon="9.338585605621471"><ele>436.5</ele><time>2026-03-27T15:14:47Z</time></trkpt><trkpt lat="40.967837013729046" lon="9.338659675254755"><ele>434.75</ele><time>2026-03-27T15:14:48Z</time></trkpt><trkpt lat="40.967952262764925" lon="9.338762745766715"><ele>433.0</ele><time>2026-03-27T15:14:49Z</time></trkpt><trkpt lat="40.96806969470208" lon="9.338886081911292"><ele>433.0</ele><time>2026-03-27T15:14:50Z</time></trkpt><trkpt lat="40.96817587459065" lon="9.339025327752605"><ele>433.0</ele><time>2026-03-27T15:14:51Z</time></trkpt><trkpt lat="40.96828469258681" lon="9.339167210034029"><ele>433.0</ele><time>2026-03-27T15:14:52Z</time></trkpt><trkpt lat="40.9683961711838" lon="9.339302560197623"><ele>433.0</ele><time>2026-03-27T15:14:53Z</time></trkpt><trkpt lat="40.968508463399374" lon="9.339454029913961"><ele>433.0</ele><time>2026-03-27T15:14:54Z</time></trkpt><trkpt lat="40.968574462877704" lon="9.339646809623913"><ele>433.0</ele><time>2026-03-27T15:14:55Z</time></trkpt><trkpt lat="40.96862695965423" lon="9.33978107450116"><ele>433.0</ele><time>2026-03-27T15:14:56Z</time></trkpt><trkpt lat="40.96866934091652" lon="9.339925184411408"><ele>433.33333333333337</ele><time>2026-03-27T15:14:57Z</time></trkpt><trkpt lat="40.968724032713006" lon="9.340044807804695"><ele>433.6666666666667</ele><time>2026-03-27T15:14:58Z</time></trkpt><trkpt lat="40.9687854156385" lon="9.34012507812002"><ele>434.0</ele><time>2026-03-27T15:14:59Z</time></trkpt><trkpt lat="40.96887725059305" lon="9.340158570165617"><ele>434.33333333333337</ele><time>2026-03-27T15:15:00Z</time></trkpt><trkpt lat="40.96894381152923" lon="9.340154499314744"><ele>434.6666666666667</ele><time>2026-03-27T15:15:01Z</time></trkpt><trkpt lat="40.96901778248519" lon="9.340118391044463"><ele>435.0</ele><time>2026-03-27T15:15:02Z</time></trkpt><trkpt lat="40.9691189586182" lon="9.340069417707772"><ele>434.33333333333337</ele><time>2026-03-27T15:15:03Z</time></trkpt><trkpt lat="40.96922315801968" lon="9.340010610892188"><ele>433.6666666666667</ele><time>2026-03-27T15:15:04Z</time></trkpt><trkpt lat="40.96941064091398" lon="9.339979366766444"><ele>433.0</ele><time>2026-03-27T15:15:05Z</time></trkpt><trkpt lat="40.96959668791611" lon="9.33993956961052"><ele>433.0</ele><time>2026-03-27T15:15:06Z</time></trkpt><trkpt lat="40.96976958449886" lon="9.339943447534347"><ele>433.0</ele><time>2026-03-27T15:15:07Z</time></trkpt><trkpt lat="40.969915731237165" lon="9.339927854665445"><ele>433.0</ele><time>2026-03-27T15:15:08Z</time></trkpt><trkpt lat="40.97002940469915" lon="9.339915959747803"><ele>433.0</ele><time>2026-03-27T15:15:09Z</time></trkpt><trkpt lat="40.97014784105823" lon="9.339870844587939"><ele>431.75</ele><time>2026-03-27T15:15:10Z</time></trkpt><trkpt lat="40.97025921491888" lon="9.339844942989982"><ele>430.5</ele><time>2026-03-27T15:15:11Z</time></trkpt><trkpt lat="40.97036647737585" lon="9.33974005153005"><ele>429.25</ele><time>2026-03-27T15:15:12Z</time></trkpt><trkpt lat="40.97049286013677" lon="9.339709560390514"><ele>428.0</ele><time>2026-03-27T15:15:13Z</time></trkpt><trkpt lat="40.970623614712416" lon="9.339704983604141"><ele>427.66666666666663</ele><time>2026-03-27T15:15:14Z</time></trkpt><trkpt lat="40.97077820459698" lon="9.339705505735438"><ele>427.33333333333337</ele><time>2026-03-27T15:15:15Z</time></trkpt><trkpt lat="40.97094575909344" lon="9.339708844021139"><ele>427.0</ele><time>2026-03-27T15:15:16Z</time></trkpt><trkpt lat="40.971152477818464" lon="9.339718472569992"><ele>427.0</ele><time>2026-03-27T15:15:17Z</time></trkpt><trkpt lat="40.97131423219833" lon="9.339764021786806"><ele>427.0</ele><time>2026-03-27T15:15:18Z</time></trkpt><trkpt lat="40.97149572061889" lon="9.339793581824388"><ele>427.0</ele><time>2026-03-27T15:15:19Z</time></trkpt><trkpt lat="40.9716589344587" lon="9.339756861239714"><ele>427.75</ele><time>2026-03-27T15:15:20Z</time></trkpt><trkpt lat="40.971771110081406" lon="9.339789430905101"><ele>428.5</ele><time>2026-03-27T15:15:21Z</time></trkpt><trkpt lat="40.9718454638388" lon="9.339850751592563"><ele>429.25</ele><time>2026-03-27T15:15:22Z</time></trkpt><trkpt lat="40.9719760440188" lon="9.339939166117993"><ele>430.0</ele><time>2026-03-27T15:15:23Z</time></trkpt><trkpt lat="40.97211402507155" lon="9.34000963227324"><ele>430.0</ele><time>2026-03-27T15:15:24Z</time></trkpt><trkpt lat="40.972267989555434" lon="9.340078172427706"><ele>430.0</ele><time>2026-03-27T15:15:25Z</time></trkpt><trkpt lat="40.97243485445948" lon="9.340169080718264"><ele>430.0</ele><time>2026-03-27T15:15:26Z</time></trkpt><trkpt lat="40.97259649189954" lon="9.34023592313777"><ele>430.0</ele><time>2026-03-27T15:15:27Z</time></trkpt><trkpt lat="40.972755750136756" lon="9.340259541081492"><ele>430.0</ele><time>2026-03-27T15:15:28Z</time></trkpt><trkpt lat="40.972924269249596" lon="9.340258254403832"><ele>430.0</ele><time>2026-03-27T15:15:29Z</time></trkpt><trkpt lat="40.97307972106321" lon="9.340249261278293"><ele>430.0</ele><time>2026-03-27T15:15:30Z</time></trkpt><trkpt lat="40.97321910799144" lon="9.340264172812546"><ele>430.0</ele><time>2026-03-27T15:15:30.999Z</time></trkpt><trkpt lat="40.97332383490568" lon="9.340301276590788"><ele>430.0</ele><time>2026-03-27T15:15:31.999Z</time></trkpt><trkpt lat="40.97343697180057" lon="9.340395877936013"><ele>430.0</ele><time>2026-03-27T15:15:32.999Z</time></trkpt><trkpt lat="40.97356171869782" lon="9.34048622668362"><ele>429.0</ele><time>2026-03-27T15:15:33.999Z</time></trkpt><trkpt lat="40.973702063689736" lon="9.34054171599898"><ele>428.0</ele><time>2026-03-27T15:15:34.999Z</time></trkpt><trkpt lat="40.973827178460056" lon="9.340594820280325"><ele>427.0</ele><time>2026-03-27T15:15:35.999Z</time></trkpt><trkpt lat="40.97389729143679" lon="9.340570270564735"><ele>426.0</ele><time>2026-03-27T15:15:36.999Z</time></trkpt><trkpt lat="40.97396628203246" lon="9.340625584312118"><ele>425.0</ele><time>2026-03-27T15:15:37.999Z</time></trkpt><trkpt lat="40.97405587554566" lon="9.340790132421507"><ele>425.0</ele><time>2026-03-27T15:15:39.999Z</time></trkpt><trkpt lat="40.97413783110958" lon="9.34090971601466"><ele>425.0</ele><time>2026-03-27T15:15:40.999Z</time></trkpt><trkpt lat="40.974234034785695" lon="9.341075153942759"><ele>425.0</ele><time>2026-03-27T15:15:41.999Z</time></trkpt><trkpt lat="40.974328677891215" lon="9.341237700220738"><ele>425.0</ele><time>2026-03-27T15:15:42.999Z</time></trkpt><trkpt lat="40.97443082020696" lon="9.341389620482866"><ele>423.25</ele><time>2026-03-27T15:15:43.999Z</time></trkpt><trkpt lat="40.97454069542455" lon="9.341536878432999"><ele>421.5</ele><time>2026-03-27T15:15:44.999Z</time></trkpt><trkpt lat="40.97459377987653" lon="9.341682939695767"><ele>419.75</ele><time>2026-03-27T15:15:45.999Z</time></trkpt><trkpt lat="40.97461920418914" lon="9.341793404953147"><ele>418.0</ele><time>2026-03-27T15:15:46.999Z</time></trkpt><trkpt lat="40.97466833707563" lon="9.341955814932943"><ele>418.0</ele><time>2026-03-27T15:15:47.999Z</time></trkpt><trkpt lat="40.974736262187236" lon="9.342072785396166"><ele>418.0</ele><time>2026-03-27T15:15:48.999Z</time></trkpt><trkpt lat="40.97485450303771" lon="9.342167000322322"><ele>418.0</ele><time>2026-03-27T15:15:49.999Z</time></trkpt><trkpt lat="40.974984979192286" lon="9.342277854606404"><ele>418.0</ele><time>2026-03-27T15:15:50.999Z</time></trkpt><trkpt lat="40.97510690254345" lon="9.342426089991939"><ele>417.59999999999997</ele><time>2026-03-27T15:15:51.999Z</time></trkpt><trkpt lat="40.97521936714244" lon="9.342531183500606"><ele>417.2</ele><time>2026-03-27T15:15:52.999Z</time></trkpt><trkpt lat="40.97529412448671" lon="9.342642981378637"><ele>416.8</ele><time>2026-03-27T15:15:53.999Z</time></trkpt><trkpt lat="40.97534077341198" lon="9.342731484816412"><ele>416.4</ele><time>2026-03-27T15:15:54.999Z</time></trkpt><trkpt lat="40.97530647907699" lon="9.342819142949878"><ele>416.0</ele><time>2026-03-27T15:15:55.999Z</time></trkpt><trkpt lat="40.975317123898854" lon="9.342941790187782"><ele>416.0</ele><time>2026-03-27T15:15:56.999Z</time></trkpt><trkpt lat="40.975330744991474" lon="9.34304380561003"><ele>416.0</ele><time>2026-03-27T15:15:57.999Z</time></trkpt><trkpt lat="40.97538848996503" lon="9.34314375773419"><ele>416.0</ele><time>2026-03-27T15:15:58.999Z</time></trkpt><trkpt lat="40.97547141597187" lon="9.343203425459373"><ele>416.0</ele><time>2026-03-27T15:15:59.999Z</time></trkpt><trkpt lat="40.97554785989235" lon="9.34327536182901"><ele>416.0</ele><time>2026-03-27T15:16:00.999Z</time></trkpt><trkpt lat="40.97560017639248" lon="9.343387194026963"><ele>415.25</ele><time>2026-03-27T15:16:01.999Z</time></trkpt><trkpt lat="40.97565536795987" lon="9.343531845022252"><ele>414.5</ele><time>2026-03-27T15:16:02.999Z</time></trkpt><trkpt lat="40.97571718349787" lon="9.343710068569495"><ele>413.75</ele><time>2026-03-27T15:16:03.999Z</time></trkpt><trkpt lat="40.97577931451573" lon="9.34390036677368"><ele>413.0</ele><time>2026-03-27T15:16:04.999Z</time></trkpt><trkpt lat="40.97582285014527" lon="9.344085041953104"><ele>412.0</ele><time>2026-03-27T15:16:05.999Z</time></trkpt><trkpt lat="40.975841790819935" lon="9.344260906228394"><ele>411.0</ele><time>2026-03-27T15:16:06.999Z</time></trkpt><trkpt lat="40.9758437690773" lon="9.344444790175183"><ele>410.0</ele><time>2026-03-27T15:16:07.999Z</time></trkpt><trkpt lat="40.97585660476143" lon="9.34466095893792"><ele>409.0</ele><time>2026-03-27T15:16:08.999Z</time></trkpt><trkpt lat="40.975875601875295" lon="9.344884331816214"><ele>407.75</ele><time>2026-03-27T15:16:09.999Z</time></trkpt><trkpt lat="40.975894266176944" lon="9.345078325233525"><ele>406.5</ele><time>2026-03-27T15:16:10.999Z</time></trkpt><trkpt lat="40.975909169794335" lon="9.345257706003874"><ele>405.25</ele><time>2026-03-27T15:16:11.999Z</time></trkpt><trkpt lat="40.975922224635845" lon="9.345439181842488"><ele>404.0</ele><time>2026-03-27T15:16:12.999Z</time></trkpt><trkpt lat="40.975935122083676" lon="9.345637892836454"><ele>402.25</ele><time>2026-03-27T15:16:13.999Z</time></trkpt><trkpt lat="40.97594836330768" lon="9.345832638164868"><ele>400.5</ele><time>2026-03-27T15:16:14.999Z</time></trkpt><trkpt lat="40.97597291067195" lon="9.34603610014779"><ele>398.75</ele><time>2026-03-27T15:16:15.999Z</time></trkpt><trkpt lat="40.975995544258005" lon="9.346227443705743"><ele>397.0</ele><time>2026-03-27T15:16:16.999Z</time></trkpt><trkpt lat="40.97601551586326" lon="9.346431341649136"><ele>394.6666666666667</ele><time>2026-03-27T15:16:17.999Z</time></trkpt><trkpt lat="40.976028418777716" lon="9.346653760847586"><ele>392.33333333333337</ele><time>2026-03-27T15:16:18.999Z</time></trkpt><trkpt lat="40.976035801892145" lon="9.346860567115911"><ele>390.0</ele><time>2026-03-27T15:16:19.999Z</time></trkpt><trkpt lat="40.976040463783235" lon="9.34706365952502"><ele>389.25</ele><time>2026-03-27T15:16:20.999Z</time></trkpt><trkpt lat="40.97604634247457" lon="9.34728435994179"><ele>388.5</ele><time>2026-03-27T15:16:21.999Z</time></trkpt><trkpt lat="40.97606515257826" lon="9.347472681448659"><ele>387.75</ele><time>2026-03-27T15:16:22.999Z</time></trkpt><trkpt lat="40.97610061216194" lon="9.347632741425286"><ele>387.0</ele><time>2026-03-27T15:16:23.998Z</time></trkpt><trkpt lat="40.976138404586905" lon="9.34777521950693"><ele>387.0</ele><time>2026-03-27T15:16:24.998Z</time></trkpt><trkpt lat="40.9761700871615" lon="9.347918053009508"><ele>387.0</ele><time>2026-03-27T15:16:25.998Z</time></trkpt><trkpt lat="40.9762005568622" lon="9.348083083765355"><ele>387.0</ele><time>2026-03-27T15:16:26.998Z</time></trkpt><trkpt lat="40.97622992536762" lon="9.34824253522267"><ele>387.0</ele><time>2026-03-27T15:16:27.998Z</time></trkpt><trkpt lat="40.97626754236104" lon="9.348419239181327"><ele>386.0</ele><time>2026-03-27T15:16:28.998Z</time></trkpt><trkpt lat="40.97631187956686" lon="9.348569741631342"><ele>385.0</ele><time>2026-03-27T15:16:29.998Z</time></trkpt><trkpt lat="40.97640073372399" lon="9.348700490194817"><ele>384.0</ele><time>2026-03-27T15:16:30.998Z</time></trkpt><trkpt lat="40.97650349906426" lon="9.348802761663338"><ele>383.0</ele><time>2026-03-27T15:16:31.998Z</time></trkpt><trkpt lat="40.97661275960929" lon="9.34890640048533"><ele>381.2</ele><time>2026-03-27T15:16:32.998Z</time></trkpt><trkpt lat="40.976715552344025" lon="9.348979012029599"><ele>379.4</ele><time>2026-03-27T15:16:33.998Z</time></trkpt><trkpt lat="40.97682230021437" lon="9.349031375968819"><ele>377.59999999999997</ele><time>2026-03-27T15:16:34.998Z</time></trkpt><trkpt lat="40.976932059444664" lon="9.349038807642549"><ele>375.79999999999995</ele><time>2026-03-27T15:16:35.998Z</time></trkpt><trkpt lat="40.977030640595466" lon="9.3490183829918"><ele>374.0</ele><time>2026-03-27T15:16:36.998Z</time></trkpt><trkpt lat="40.977128315940206" lon="9.348961089550466"><ele>374.0</ele><time>2026-03-27T15:16:37.998Z</time></trkpt><trkpt lat="40.97724368442339" lon="9.34887198068151"><ele>374.0</ele><time>2026-03-27T15:16:38.998Z</time></trkpt><trkpt lat="40.97736846213313" lon="9.34876678751705"><ele>374.0</ele><time>2026-03-27T15:16:39.998Z</time></trkpt><trkpt lat="40.977493076462196" lon="9.348695364995459"><ele>374.0</ele><time>2026-03-27T15:16:40.998Z</time></trkpt><trkpt lat="40.97761870361693" lon="9.348642999545982"><ele>372.75</ele><time>2026-03-27T15:16:41.998Z</time></trkpt><trkpt lat="40.97774234701606" lon="9.348602578900353"><ele>371.5</ele><time>2026-03-27T15:16:42.998Z</time></trkpt><trkpt lat="40.97786923153946" lon="9.348578026338343"><ele>370.25</ele><time>2026-03-27T15:16:43.998Z</time></trkpt><trkpt lat="40.977994912692004" lon="9.348617058726601"><ele>369.0</ele><time>2026-03-27T15:16:44.998Z</time></trkpt><trkpt lat="40.97811329007888" lon="9.348665360708853"><ele>369.0</ele><time>2026-03-27T15:16:45.998Z</time></trkpt><trkpt lat="40.978226574791485" lon="9.348661684789532"><ele>369.0</ele><time>2026-03-27T15:16:47Z</time></trkpt><trkpt lat="40.97832420741174" lon="9.348583093884393"><ele>369.0</ele><time>2026-03-27T15:16:48Z</time></trkpt><trkpt lat="40.97842701122576" lon="9.348483315652537"><ele>369.0</ele><time>2026-03-27T15:16:49Z</time></trkpt><trkpt lat="40.978537814327176" lon="9.348358458977394"><ele>368.6666666666667</ele><time>2026-03-27T15:16:50Z</time></trkpt><trkpt lat="40.97867614224797" lon="9.348244685339004"><ele>368.33333333333337</ele><time>2026-03-27T15:16:51Z</time></trkpt><trkpt lat="40.97880242153328" lon="9.348143430297947"><ele>368.0</ele><time>2026-03-27T15:16:52Z</time></trkpt><trkpt lat="40.97892141162357" lon="9.348014052772873"><ele>368.0</ele><time>2026-03-27T15:16:53Z</time></trkpt><trkpt lat="40.979020792454904" lon="9.347866524779029"><ele>368.0</ele><time>2026-03-27T15:16:54Z</time></trkpt><trkpt lat="40.97914385893017" lon="9.347762690336072"><ele>368.0</ele><time>2026-03-27T15:16:55Z</time></trkpt><trkpt lat="40.979253195831674" lon="9.347672148273809"><ele>368.0</ele><time>2026-03-27T15:16:56Z</time></trkpt><trkpt lat="40.979354573313636" lon="9.347645739668998"><ele>368.5</ele><time>2026-03-27T15:16:57Z</time></trkpt><trkpt lat="40.97944709155416" lon="9.347628901983347"><ele>369.0</ele><time>2026-03-27T15:16:58Z</time></trkpt><trkpt lat="40.979512221228255" lon="9.34761763175243"><ele>369.5</ele><time>2026-03-27T15:16:59Z</time></trkpt><trkpt lat="40.9795877614211" lon="9.347604560092792"><ele>370.0</ele><time>2026-03-27T15:17:01Z</time></trkpt><trkpt lat="40.97956789499929" lon="9.347703871810824"><ele>370.5</ele><time>2026-03-27T15:20:17.999Z</time></trkpt><trkpt lat="40.979530405077966" lon="9.347865502186702"><ele>371.0</ele><time>2026-03-27T15:20:19.999Z</time></trkpt><trkpt lat="40.97950862763204" lon="9.347985687150414"><ele>371.6</ele><time>2026-03-27T15:20:20.999Z</time></trkpt><trkpt lat="40.97951458936644" lon="9.348107973875102"><ele>372.20000000000005</ele><time>2026-03-27T15:20:21.999Z</time></trkpt><trkpt lat="40.97951306926893" lon="9.348267761963877"><ele>372.79999999999995</ele><time>2026-03-27T15:20:22.999Z</time></trkpt><trkpt lat="40.97954276108739" lon="9.34841301003552"><ele>373.4</ele><time>2026-03-27T15:20:23.999Z</time></trkpt><trkpt lat="40.97960516131677" lon="9.348536242305368"><ele>374.0</ele><time>2026-03-27T15:20:24.999Z</time></trkpt><trkpt lat="40.97968068822325" lon="9.348652409454237"><ele>374.0</ele><time>2026-03-27T15:20:25.999Z</time></trkpt><trkpt lat="40.979761759522006" lon="9.348768731031404"><ele>374.0</ele><time>2026-03-27T15:20:26.999Z</time></trkpt><trkpt lat="40.979854330444994" lon="9.348890414980358"><ele>374.0</ele><time>2026-03-27T15:20:27.998Z</time></trkpt><trkpt lat="40.979942224693126" lon="9.349000741305598"><ele>374.0</ele><time>2026-03-27T15:20:28.998Z</time></trkpt><trkpt lat="40.980024811611045" lon="9.349117742313148"><ele>378.5</ele><time>2026-03-27T15:20:29.998Z</time></trkpt><trkpt lat="40.980117869735395" lon="9.34924135820714"><ele>383.0</ele><time>2026-03-27T15:20:30.998Z</time></trkpt><trkpt lat="40.98021543875091" lon="9.349372082323306"><ele>387.5</ele><time>2026-03-27T15:20:31.998Z</time></trkpt><trkpt lat="40.98030601679111" lon="9.349499730291187"><ele>392.0</ele><time>2026-03-27T15:20:32.998Z</time></trkpt><trkpt lat="40.98039472970256" lon="9.349632684318667"><ele>389.75</ele><time>2026-03-27T15:20:33.998Z</time></trkpt><trkpt lat="40.980479962971444" lon="9.349755155846395"><ele>387.5</ele><time>2026-03-27T15:20:34.998Z</time></trkpt><trkpt lat="40.980565395586616" lon="9.349852459848655"><ele>385.25</ele><time>2026-03-27T15:20:35.998Z</time></trkpt><trkpt lat="40.98067887605201" lon="9.34988770812833"><ele>383.0</ele><time>2026-03-27T15:20:36.998Z</time></trkpt><trkpt lat="40.980798418403765" lon="9.34986854706649"><ele>384.33333333333337</ele><time>2026-03-27T15:20:37.998Z</time></trkpt><trkpt lat="40.98093449501001" lon="9.349829600240966"><ele>385.6666666666667</ele><time>2026-03-27T15:20:38.998Z</time></trkpt><trkpt lat="40.98109247654177" lon="9.349758026971369"><ele>387.0</ele><time>2026-03-27T15:20:39.998Z</time></trkpt><trkpt lat="40.98126352793803" lon="9.349678135100616"><ele>391.66666666666663</ele><time>2026-03-27T15:20:40.998Z</time></trkpt><trkpt lat="40.981436757094635" lon="9.349607875837993"><ele>396.3333333333333</ele><time>2026-03-27T15:20:41.998Z</time></trkpt><trkpt lat="40.98158923296095" lon="9.34952731751421"><ele>401.0</ele><time>2026-03-27T15:20:42.998Z</time></trkpt><trkpt lat="40.98173110076571" lon="9.349441979771958"><ele>403.3333333333333</ele><time>2026-03-27T15:20:43.998Z</time></trkpt><trkpt lat="40.98187105939499" lon="9.349373112864102"><ele>405.66666666666663</ele><time>2026-03-27T15:20:44.998Z</time></trkpt><trkpt lat="40.982030332891775" lon="9.349366012069044"><ele>408.0</ele><time>2026-03-27T15:20:45.998Z</time></trkpt><trkpt lat="40.98218799014527" lon="9.349398761832306"><ele>408.0</ele><time>2026-03-27T15:20:46.998Z</time></trkpt><trkpt lat="40.98235751614235" lon="9.34943391666745"><ele>408.0</ele><time>2026-03-27T15:20:47.998Z</time></trkpt><trkpt lat="40.982535545766005" lon="9.349438848461778"><ele>408.0</ele><time>2026-03-27T15:20:48.998Z</time></trkpt><trkpt lat="40.98270728952832" lon="9.349447115089133"><ele>409.0</ele><time>2026-03-27T15:20:49.998Z</time></trkpt><trkpt lat="40.98285742741107" lon="9.349471587587525"><ele>410.0</ele><time>2026-03-27T15:20:50.998Z</time></trkpt><trkpt lat="40.98299914235724" lon="9.349487479657247"><ele>411.0</ele><time>2026-03-27T15:20:51.998Z</time></trkpt><trkpt lat="40.98314556556094" lon="9.349549179430992"><ele>412.0</ele><time>2026-03-27T15:20:52.998Z</time></trkpt><trkpt lat="40.98329197525236" lon="9.34965475320132"><ele>414.0</ele><time>2026-03-27T15:20:53.998Z</time></trkpt><trkpt lat="40.98344692841954" lon="9.34977251285294"><ele>416.0</ele><time>2026-03-27T15:20:54.998Z</time></trkpt><trkpt lat="40.983616029712366" lon="9.34989276109191"><ele>418.0</ele><time>2026-03-27T15:20:55.998Z</time></trkpt><trkpt lat="40.983789450737675" lon="9.349998437376428"><ele>418.0</ele><time>2026-03-27T15:20:56.998Z</time></trkpt><trkpt lat="40.98397768727314" lon="9.350086634230022"><ele>418.0</ele><time>2026-03-27T15:20:57.998Z</time></trkpt><trkpt lat="40.98415716320264" lon="9.350168403832097"><ele>418.0</ele><time>2026-03-27T15:20:59Z</time></trkpt><trkpt lat="40.984330484020035" lon="9.350234777145472"><ele>420.33333333333337</ele><time>2026-03-27T15:21:00Z</time></trkpt><trkpt lat="40.98449308958979" lon="9.350251941656726"><ele>422.66666666666663</ele><time>2026-03-27T15:21:01Z</time></trkpt><trkpt lat="40.98466339024484" lon="9.350229846431716"><ele>425.0</ele><time>2026-03-27T15:21:02Z</time></trkpt><trkpt lat="40.98481005700864" lon="9.35017298532764"><ele>425.0</ele><time>2026-03-27T15:21:03Z</time></trkpt><trkpt lat="40.984991567219765" lon="9.350080309640502"><ele>425.0</ele><time>2026-03-27T15:21:04Z</time></trkpt><trkpt lat="40.98516801857452" lon="9.350000178070283"><ele>425.0</ele><time>2026-03-27T15:21:05Z</time></trkpt><trkpt lat="40.98535551775095" lon="9.34992574329513"><ele>428.0</ele><time>2026-03-27T15:21:06Z</time></trkpt><trkpt lat="40.98553643075206" lon="9.349922263969503"><ele>431.0</ele><time>2026-03-27T15:21:07Z</time></trkpt><trkpt lat="40.9857246697096" lon="9.34993689241687"><ele>434.0</ele><time>2026-03-27T15:21:08Z</time></trkpt><trkpt lat="40.985921978046186" lon="9.349941063555635"><ele>435.66666666666663</ele><time>2026-03-27T15:21:09Z</time></trkpt><trkpt lat="40.9861169514932" lon="9.349960461032348"><ele>437.33333333333337</ele><time>2026-03-27T15:21:10Z</time></trkpt><trkpt lat="40.98630683679632" lon="9.349968798402687"><ele>439.0</ele><time>2026-03-27T15:21:11Z</time></trkpt><trkpt lat="40.98649732739406" lon="9.349976786776404"><ele>442.0</ele><time>2026-03-27T15:21:12Z</time></trkpt><trkpt lat="40.98669259597346" lon="9.34997771160595"><ele>445.0</ele><time>2026-03-27T15:21:13Z</time></trkpt><trkpt lat="40.98689019359955" lon="9.349983298149306"><ele>448.0</ele><time>2026-03-27T15:21:14Z</time></trkpt><trkpt lat="40.9870877425364" lon="9.34998909264113"><ele>448.0</ele><time>2026-03-27T15:21:15Z</time></trkpt><trkpt lat="40.9872778486419" lon="9.350005251541337"><ele>448.0</ele><time>2026-03-27T15:21:16Z</time></trkpt><trkpt lat="40.98746442909878" lon="9.350037915331347"><ele>448.0</ele><time>2026-03-27T15:21:17Z</time></trkpt><trkpt lat="40.987648524235524" lon="9.35007249210144"><ele>450.33333333333337</ele><time>2026-03-27T15:21:18Z</time></trkpt><trkpt lat="40.9878158477951" lon="9.350101232872635"><ele>452.66666666666663</ele><time>2026-03-27T15:21:19Z</time></trkpt><trkpt lat="40.98797918753539" lon="9.350099054167007"><ele>455.0</ele><time>2026-03-27T15:21:20Z</time></trkpt><trkpt lat="40.98814434265311" lon="9.350056894494053"><ele>455.0</ele><time>2026-03-27T15:21:21Z</time></trkpt><trkpt lat="40.98831762285892" lon="9.350060550880327"><ele>455.0</ele><time>2026-03-27T15:21:22Z</time></trkpt><trkpt lat="40.98849766885545" lon="9.350043512047726"><ele>455.0</ele><time>2026-03-27T15:21:23Z</time></trkpt><trkpt lat="40.98866238714359" lon="9.349944681979553"><ele>456.25</ele><time>2026-03-27T15:21:24Z</time></trkpt><trkpt lat="40.9888179420476" lon="9.349921502874482"><ele>457.5</ele><time>2026-03-27T15:21:25Z</time></trkpt><trkpt lat="40.9889505900721" lon="9.349865205041294"><ele>458.75</ele><time>2026-03-27T15:21:26Z</time></trkpt><trkpt lat="40.989068954022954" lon="9.349769724376632"><ele>460.0</ele><time>2026-03-27T15:21:27Z</time></trkpt><trkpt lat="40.98919123279132" lon="9.349624002690755"><ele>463.0</ele><time>2026-03-27T15:21:28Z</time></trkpt><trkpt lat="40.9893217955052" lon="9.34945200189176"><ele>466.0</ele><time>2026-03-27T15:21:29Z</time></trkpt><trkpt lat="40.989458322983005" lon="9.349292149258071"><ele>469.0</ele><time>2026-03-27T15:21:30Z</time></trkpt><trkpt lat="40.989599367753094" lon="9.349125713095038"><ele>469.0</ele><time>2026-03-27T15:21:31Z</time></trkpt><trkpt lat="40.98973068135082" lon="9.348943748708669"><ele>469.0</ele><time>2026-03-27T15:21:32Z</time></trkpt><trkpt lat="40.989867514388195" lon="9.348754864446853"><ele>469.0</ele><time>2026-03-27T15:21:33Z</time></trkpt><trkpt lat="40.99000296862988" lon="9.348585367963878"><ele>469.6666666666667</ele><time>2026-03-27T15:21:34Z</time></trkpt><trkpt lat="40.99015698673896" lon="9.348442409724315"><ele>470.33333333333337</ele><time>2026-03-27T15:21:35Z</time></trkpt><trkpt lat="40.99031929758419" lon="9.348321564249934"><ele>471.0</ele><time>2026-03-27T15:21:35.999Z</time></trkpt><trkpt lat="40.99047470660965" lon="9.34823299236251"><ele>471.0</ele><time>2026-03-27T15:21:36.999Z</time></trkpt><trkpt lat="40.99061714104471" lon="9.348140335420018"><ele>471.0</ele><time>2026-03-27T15:21:37.999Z</time></trkpt><trkpt lat="40.990745373333596" lon="9.347992925383382"><ele>471.0</ele><time>2026-03-27T15:21:38.999Z</time></trkpt><trkpt lat="40.990850556293005" lon="9.347792089969657"><ele>468.0</ele><time>2026-03-27T15:21:39.999Z</time></trkpt><trkpt lat="40.99093916853562" lon="9.347566008279822"><ele>465.0</ele><time>2026-03-27T15:21:40.999Z</time></trkpt><trkpt lat="40.991020823269274" lon="9.347335366291698"><ele>462.0</ele><time>2026-03-27T15:21:41.999Z</time></trkpt><trkpt lat="40.99111322090404" lon="9.347109616287007"><ele>460.33333333333337</ele><time>2026-03-27T15:21:42.999Z</time></trkpt><trkpt lat="40.99123793514269" lon="9.346903249365305"><ele>458.6666666666667</ele><time>2026-03-27T15:21:43.999Z</time></trkpt><trkpt lat="40.99140934226072" lon="9.346755403509288"><ele>457.0</ele><time>2026-03-27T15:21:44.999Z</time></trkpt><trkpt lat="40.99159142005203" lon="9.346659681069205"><ele>457.6666666666667</ele><time>2026-03-27T15:21:45.999Z</time></trkpt><trkpt lat="40.991790861207946" lon="9.346595740290438"><ele>458.33333333333337</ele><time>2026-03-27T15:21:46.999Z</time></trkpt><trkpt lat="40.9919858432947" lon="9.346534805378193"><ele>459.0</ele><time>2026-03-27T15:21:47.999Z</time></trkpt><trkpt lat="40.99218900876106" lon="9.346462558123132"><ele>459.0</ele><time>2026-03-27T15:21:48.999Z</time></trkpt><trkpt lat="40.992383504039516" lon="9.3463707306464"><ele>459.0</ele><time>2026-03-27T15:21:49.999Z</time></trkpt><trkpt lat="40.99256829751644" lon="9.346250011251076"><ele>459.0</ele><time>2026-03-27T15:21:50.999Z</time></trkpt><trkpt lat="40.992728157187976" lon="9.346095109557917"><ele>459.75</ele><time>2026-03-27T15:21:51.999Z</time></trkpt><trkpt lat="40.992862701736605" lon="9.345964131230847"><ele>460.5</ele><time>2026-03-27T15:21:52.999Z</time></trkpt><trkpt lat="40.99295637336165" lon="9.345849692919304"><ele>461.25</ele><time>2026-03-27T15:21:53.999Z</time></trkpt><trkpt lat="40.99300758396633" lon="9.34571483289914"><ele>462.0</ele><time>2026-03-27T15:21:54.999Z</time></trkpt><trkpt lat="40.993027826515686" lon="9.345543036627875"><ele>463.66666666666663</ele><time>2026-03-27T15:21:55.999Z</time></trkpt><trkpt lat="40.99301782724624" lon="9.345332804169583"><ele>465.3333333333333</ele><time>2026-03-27T15:21:56.999Z</time></trkpt><trkpt lat="40.99298079933455" lon="9.345096510439774"><ele>467.0</ele><time>2026-03-27T15:21:57.999Z</time></trkpt><trkpt lat="40.992948627504994" lon="9.34483422604687"><ele>469.3333333333333</ele><time>2026-03-27T15:21:58.999Z</time></trkpt><trkpt lat="40.99292579350724" lon="9.344555157339173"><ele>471.66666666666663</ele><time>2026-03-27T15:21:59.999Z</time></trkpt><trkpt lat="40.992906041238356" lon="9.344270368376721"><ele>474.0</ele><time>2026-03-27T15:22:00.999Z</time></trkpt><trkpt lat="40.99288526902476" lon="9.343986718738131"><ele>474.66666666666663</ele><time>2026-03-27T15:22:01.999Z</time></trkpt><trkpt lat="40.992866202948015" lon="9.343720362446884"><ele>475.3333333333333</ele><time>2026-03-27T15:22:02.999Z</time></trkpt><trkpt lat="40.99285327460501" lon="9.343489228420617"><ele>476.0</ele><time>2026-03-27T15:22:03.999Z</time></trkpt><trkpt lat="40.992846907821736" lon="9.343296467190353"><ele>476.0</ele><time>2026-03-27T15:22:04.999Z</time></trkpt><trkpt lat="40.99284983370939" lon="9.34311856959897"><ele>476.0</ele><time>2026-03-27T15:22:05.999Z</time></trkpt><trkpt lat="40.99288090116788" lon="9.34294918361554"><ele>476.0</ele><time>2026-03-27T15:22:06.999Z</time></trkpt><trkpt lat="40.99295573092995" lon="9.342802525803718"><ele>476.0</ele><time>2026-03-27T15:22:07.999Z</time></trkpt><trkpt lat="40.99307110996335" lon="9.342699180384974"><ele>475.0</ele><time>2026-03-27T15:22:08.999Z</time></trkpt><trkpt lat="40.99321146518528" lon="9.342624918529127"><ele>474.0</ele><time>2026-03-27T15:22:09.999Z</time></trkpt><trkpt lat="40.99336922139187" lon="9.34254831161615"><ele>473.0</ele><time>2026-03-27T15:22:10.999Z</time></trkpt><trkpt lat="40.99352491810983" lon="9.342455791794347"><ele>472.0</ele><time>2026-03-27T15:22:11.999Z</time></trkpt><trkpt lat="40.9936684248682" lon="9.342358910876994"><ele>471.0</ele><time>2026-03-27T15:22:12.999Z</time></trkpt><trkpt lat="40.99380713205937" lon="9.342268550900236"><ele>470.0</ele><time>2026-03-27T15:22:13.999Z</time></trkpt><trkpt lat="40.99393637104326" lon="9.342200378663577"><ele>466.75</ele><time>2026-03-27T15:22:14.999Z</time></trkpt><trkpt lat="40.99405525300938" lon="9.342161946801612"><ele>463.5</ele><time>2026-03-27T15:22:15.999Z</time></trkpt><trkpt lat="40.99417771502326" lon="9.342170966135011"><ele>460.25</ele><time>2026-03-27T15:22:16.999Z</time></trkpt><trkpt lat="40.99430987135443" lon="9.342221863273311"><ele>457.0</ele><time>2026-03-27T15:22:17.999Z</time></trkpt><trkpt lat="40.99445822573297" lon="9.342315530667838"><ele>456.33333333333337</ele><time>2026-03-27T15:22:18.999Z</time></trkpt><trkpt lat="40.99463941974075" lon="9.342440777296307"><ele>455.66666666666663</ele><time>2026-03-27T15:22:19.999Z</time></trkpt><trkpt lat="40.99482647449013" lon="9.342553977454935"><ele>455.0</ele><time>2026-03-27T15:22:20.999Z</time></trkpt><trkpt lat="40.99499978359645" lon="9.342655402692268"><ele>450.66666666666663</ele><time>2026-03-27T15:22:21.999Z</time></trkpt><trkpt lat="40.995161452226824" lon="9.342725978782171"><ele>446.33333333333337</ele><time>2026-03-27T15:22:22.999Z</time></trkpt><trkpt lat="40.99532725477021" lon="9.342775111657707"><ele>442.0</ele><time>2026-03-27T15:22:23.999Z</time></trkpt><trkpt lat="40.99551232853136" lon="9.342792850152426"><ele>442.0</ele><time>2026-03-27T15:22:24.999Z</time></trkpt><trkpt lat="40.99570449193148" lon="9.342763582224181"><ele>442.0</ele><time>2026-03-27T15:22:25.999Z</time></trkpt><trkpt lat="40.995872412019416" lon="9.342728354767551"><ele>442.0</ele><time>2026-03-27T15:22:26.999Z</time></trkpt><trkpt lat="40.99604055907607" lon="9.342704886835982"><ele>438.0</ele><time>2026-03-27T15:22:27.998Z</time></trkpt><trkpt lat="40.99620333427421" lon="9.34272750791122"><ele>434.0</ele><time>2026-03-27T15:22:28.998Z</time></trkpt><trkpt lat="40.996368099416706" lon="9.342809067448014"><ele>430.0</ele><time>2026-03-27T15:22:29.998Z</time></trkpt><trkpt lat="40.99653640558591" lon="9.34290762173121"><ele>429.33333333333337</ele><time>2026-03-27T15:22:30.998Z</time></trkpt><trkpt lat="40.99669728267533" lon="9.342986745919102"><ele>428.66666666666663</ele><time>2026-03-27T15:22:31.998Z</time></trkpt><trkpt lat="40.996847253726045" lon="9.34304672706771"><ele>428.0</ele><time>2026-03-27T15:22:32.998Z</time></trkpt><trkpt lat="40.99700348139971" lon="9.343071094707756"><ele>426.5</ele><time>2026-03-27T15:22:33.998Z</time></trkpt><trkpt lat="40.99716536402312" lon="9.343036981177383"><ele>425.0</ele><time>2026-03-27T15:22:34.998Z</time></trkpt><trkpt lat="40.9973005319641" lon="9.342959643517217"><ele>423.5</ele><time>2026-03-27T15:22:35.998Z</time></trkpt><trkpt lat="40.99742105908769" lon="9.342911634972026"><ele>422.0</ele><time>2026-03-27T15:22:36.998Z</time></trkpt><trkpt lat="40.997527727927306" lon="9.342926372924767"><ele>420.25</ele><time>2026-03-27T15:22:37.998Z</time></trkpt><trkpt lat="40.99762258750139" lon="9.34301177318822"><ele>418.5</ele><time>2026-03-27T15:22:38.998Z</time></trkpt><trkpt lat="40.99769116424753" lon="9.343154281273447"><ele>416.75</ele><time>2026-03-27T15:22:39.998Z</time></trkpt><trkpt lat="40.997757325452504" lon="9.343279674413264"><ele>415.0</ele><time>2026-03-27T15:22:40.998Z</time></trkpt><trkpt lat="40.997866887069016" lon="9.343316753614578"><ele>415.0</ele><time>2026-03-27T15:22:41.998Z</time></trkpt><trkpt lat="40.99799779586286" lon="9.34325900428789"><ele>415.0</ele><time>2026-03-27T15:22:42.998Z</time></trkpt><trkpt lat="40.998102489367916" lon="9.343129461451216"><ele>415.0</ele><time>2026-03-27T15:22:43.998Z</time></trkpt><trkpt lat="40.99817402013073" lon="9.342949813176626"><ele>415.0</ele><time>2026-03-27T15:22:44.998Z</time></trkpt><trkpt lat="40.99823831434498" lon="9.34273214357332"><ele>414.33333333333337</ele><time>2026-03-27T15:22:45.998Z</time></trkpt><trkpt lat="40.99831433352127" lon="9.342500388104815"><ele>413.66666666666663</ele><time>2026-03-27T15:22:46.998Z</time></trkpt><trkpt lat="40.99839623660885" lon="9.342306353754394"><ele>413.0</ele><time>2026-03-27T15:22:47.998Z</time></trkpt><trkpt lat="40.99846196934756" lon="9.342096072185054"><ele>410.2</ele><time>2026-03-27T15:22:48.998Z</time></trkpt><trkpt lat="40.99852285196756" lon="9.3419358419046"><ele>407.4</ele><time>2026-03-27T15:22:49.998Z</time></trkpt><trkpt lat="40.99858674819381" lon="9.34181616928558"><ele>404.59999999999997</ele><time>2026-03-27T15:22:50.998Z</time></trkpt><trkpt lat="40.99866336854657" lon="9.341729556591932"><ele>401.79999999999995</ele><time>2026-03-27T15:22:51.998Z</time></trkpt><trkpt lat="40.99872251631817" lon="9.341682348197018"><ele>399.0</ele><time>2026-03-27T15:22:52.998Z</time></trkpt><trkpt lat="40.99877346928182" lon="9.341631565020961"><ele>399.0</ele><time>2026-03-27T15:22:53.998Z</time></trkpt><trkpt lat="40.99882624058258" lon="9.341716606885074"><ele>399.0</ele><time>2026-03-27T15:22:54.998Z</time></trkpt><trkpt lat="40.998946863638174" lon="9.341890693678593"><ele>399.0</ele><time>2026-03-27T15:22:55.998Z</time></trkpt><trkpt lat="40.9990688403367" lon="9.342029954751503"><ele>399.0</ele><time>2026-03-27T15:22:56.998Z</time></trkpt><trkpt lat="40.99921731390964" lon="9.3420912160885"><ele>394.66666666666663</ele><time>2026-03-27T15:22:57.998Z</time></trkpt><trkpt lat="40.99937800589915" lon="9.342074598952749"><ele>390.3333333333333</ele><time>2026-03-27T15:22:58.998Z</time></trkpt><trkpt lat="40.999567497446996" lon="9.342088869544952"><ele>386.0</ele><time>2026-03-27T15:22:59.998Z</time></trkpt><trkpt lat="40.99981106609955" lon="9.342069959524258"><ele>386.0</ele><time>2026-03-27T15:23:00.998Z</time></trkpt><trkpt lat="41.0000347588937" lon="9.342058994474147"><ele>386.0</ele><time>2026-03-27T15:23:01.998Z</time></trkpt><trkpt lat="41.00025688694344" lon="9.34205364800747"><ele>386.0</ele><time>2026-03-27T15:23:02.998Z</time></trkpt><trkpt lat="41.00045564019282" lon="9.342054651984304"><ele>386.0</ele><time>2026-03-27T15:23:03.998Z</time></trkpt><trkpt lat="41.000668518658635" lon="9.342006514646746"><ele>386.0</ele><time>2026-03-27T15:23:05Z</time></trkpt><trkpt lat="41.00085613443082" lon="9.341950155864444"><ele>386.0</ele><time>2026-03-27T15:23:06Z</time></trkpt><trkpt lat="41.00100927473993" lon="9.341890748285191"><ele>384.0</ele><time>2026-03-27T15:23:07Z</time></trkpt><trkpt lat="41.00115251157724" lon="9.341854463633723"><ele>382.0</ele><time>2026-03-27T15:23:08Z</time></trkpt><trkpt lat="41.00121380535542" lon="9.341678434465218"><ele>380.0</ele><time>2026-03-27T15:23:09Z</time></trkpt><trkpt lat="41.00131371568412" lon="9.34149035858968"><ele>378.0</ele><time>2026-03-27T15:23:10Z</time></trkpt><trkpt lat="41.001404015616444" lon="9.34132281383983"><ele>376.0</ele><time>2026-03-27T15:23:11Z</time></trkpt><trkpt lat="41.00151571220349" lon="9.341147742623004"><ele>374.0</ele><time>2026-03-27T15:23:12Z</time></trkpt><trkpt lat="41.001605731390875" lon="9.340978449028437"><ele>374.0</ele><time>2026-03-27T15:23:13Z</time></trkpt><trkpt lat="41.00167047370009" lon="9.340867884895916"><ele>374.0</ele><time>2026-03-27T15:23:14Z</time></trkpt><trkpt lat="41.001786801221556" lon="9.340785007239026"><ele>374.0</ele><time>2026-03-27T15:23:15Z</time></trkpt><trkpt lat="41.001949240033994" lon="9.340743151963443"><ele>374.0</ele><time>2026-03-27T15:23:16Z</time></trkpt><trkpt lat="41.002130877659816" lon="9.340757092471547"><ele>374.0</ele><time>2026-03-27T15:23:17Z</time></trkpt><trkpt lat="41.00232445086544" lon="9.340731322759764"><ele>374.0</ele><time>2026-03-27T15:23:18Z</time></trkpt><trkpt lat="41.0024966567011" lon="9.34073527674495"><ele>374.0</ele><time>2026-03-27T15:23:19Z</time></trkpt><trkpt lat="41.00266064898699" lon="9.3407372810722"><ele>372.0</ele><time>2026-03-27T15:23:20Z</time></trkpt><trkpt lat="41.002806280617484" lon="9.340697786284796"><ele>370.0</ele><time>2026-03-27T15:23:21Z</time></trkpt><trkpt lat="41.0029549402148" lon="9.340574372634856"><ele>368.0</ele><time>2026-03-27T15:23:22Z</time></trkpt><trkpt lat="41.003087893774975" lon="9.34043965653165"><ele>364.33333333333337</ele><time>2026-03-27T15:23:23Z</time></trkpt><trkpt lat="41.003223916004494" lon="9.340288933509896"><ele>360.6666666666667</ele><time>2026-03-27T15:23:24Z</time></trkpt><trkpt lat="41.003345883087654" lon="9.340128555239799"><ele>357.0</ele><time>2026-03-27T15:23:25Z</time></trkpt><trkpt lat="41.00346643477386" lon="9.33991313542125"><ele>353.0</ele><time>2026-03-27T15:23:26Z</time></trkpt><trkpt lat="41.003570038310684" lon="9.33969473708717"><ele>349.0</ele><time>2026-03-27T15:23:27Z</time></trkpt><trkpt lat="41.00367213595641" lon="9.339468162547702"><ele>345.0</ele><time>2026-03-27T15:23:28Z</time></trkpt><trkpt lat="41.00375790881732" lon="9.339183571618968"><ele>345.0</ele><time>2026-03-27T15:23:29Z</time></trkpt><trkpt lat="41.00379504436773" lon="9.338957779958173"><ele>345.0</ele><time>2026-03-27T15:23:30Z</time></trkpt><trkpt lat="41.0038383093949" lon="9.338716506592643"><ele>345.0</ele><time>2026-03-27T15:23:31Z</time></trkpt><trkpt lat="41.00387035235941" lon="9.33848633886534"><ele>342.3333333333333</ele><time>2026-03-27T15:23:32Z</time></trkpt><trkpt lat="41.00392078493941" lon="9.338255901950939"><ele>339.66666666666663</ele><time>2026-03-27T15:23:33Z</time></trkpt><trkpt lat="41.00396421423691" lon="9.338056034427781"><ele>337.0</ele><time>2026-03-27T15:23:34Z</time></trkpt><trkpt lat="41.00401586672136" lon="9.337884792985534"><ele>335.75</ele><time>2026-03-27T15:23:35Z</time></trkpt><trkpt lat="41.00410865390686" lon="9.337741824522176"><ele>334.5</ele><time>2026-03-27T15:23:36Z</time></trkpt><trkpt lat="41.0042288030842" lon="9.33766471130977"><ele>333.25</ele><time>2026-03-27T15:23:37Z</time></trkpt><trkpt lat="41.00437451315589" lon="9.337674865742127"><ele>332.0</ele><time>2026-03-27T15:23:38Z</time></trkpt><trkpt lat="41.00452568446851" lon="9.33768918475834"><ele>332.0</ele><time>2026-03-27T15:23:39Z</time></trkpt><trkpt lat="41.00468117826115" lon="9.3377220448378"><ele>332.0</ele><time>2026-03-27T15:23:40Z</time></trkpt><trkpt lat="41.00480923505439" lon="9.337726171658039"><ele>332.0</ele><time>2026-03-27T15:23:40.999Z</time></trkpt><trkpt lat="41.00491731044041" lon="9.337611186045953"><ele>332.0</ele><time>2026-03-27T15:23:41.999Z</time></trkpt><trkpt lat="41.00504804996706" lon="9.337482060097257"><ele>328.6666666666667</ele><time>2026-03-27T15:23:42.999Z</time></trkpt><trkpt lat="41.00519891590279" lon="9.337334940178103"><ele>325.3333333333333</ele><time>2026-03-27T15:23:43.999Z</time></trkpt><trkpt lat="41.00534115837222" lon="9.337200830237277"><ele>322.0</ele><time>2026-03-27T15:23:44.999Z</time></trkpt><trkpt lat="41.00549878101093" lon="9.337122244278953"><ele>320.3333333333333</ele><time>2026-03-27T15:23:45.999Z</time></trkpt><trkpt lat="41.00565591643852" lon="9.33707540769707"><ele>318.6666666666667</ele><time>2026-03-27T15:23:46.999Z</time></trkpt><trkpt lat="41.00583915776754" lon="9.337020995832626"><ele>317.0</ele><time>2026-03-27T15:23:47.999Z</time></trkpt><trkpt lat="41.00603228306646" lon="9.336938708747223"><ele>316.6666666666667</ele><time>2026-03-27T15:23:48.999Z</time></trkpt><trkpt lat="41.006212858456266" lon="9.336885458774073"><ele>316.3333333333333</ele><time>2026-03-27T15:23:49.999Z</time></trkpt><trkpt lat="41.00638087959795" lon="9.336862667640945"><ele>316.0</ele><time>2026-03-27T15:23:50.999Z</time></trkpt><trkpt lat="41.00654520830997" lon="9.336834797249422"><ele>314.66666666666663</ele><time>2026-03-27T15:23:51.999Z</time></trkpt><trkpt lat="41.006719998214045" lon="9.336842091815177"><ele>313.3333333333333</ele><time>2026-03-27T15:23:52.999Z</time></trkpt><trkpt lat="41.00691607690808" lon="9.336853410550212"><ele>312.0</ele><time>2026-03-27T15:23:53.999Z</time></trkpt><trkpt lat="41.00713386156341" lon="9.336862319575632"><ele>312.0</ele><time>2026-03-27T15:23:54.999Z</time></trkpt><trkpt lat="41.007362014224235" lon="9.336871445688216"><ele>312.0</ele><time>2026-03-27T15:23:55.999Z</time></trkpt><trkpt lat="41.00758469263519" lon="9.336883036958406"><ele>310.0</ele><time>2026-03-27T15:23:56.999Z</time></trkpt><trkpt lat="41.007792696323975" lon="9.3368885152581"><ele>308.0</ele><time>2026-03-27T15:23:57.999Z</time></trkpt><trkpt lat="41.007992704107686" lon="9.336891655564584"><ele>306.0</ele><time>2026-03-27T15:23:58.999Z</time></trkpt><trkpt lat="41.00817087278549" lon="9.336879971036282"><ele>304.6666666666667</ele><time>2026-03-27T15:23:59.999Z</time></trkpt><trkpt lat="41.00833697815705" lon="9.336856070632475"><ele>303.33333333333337</ele><time>2026-03-27T15:24:00.999Z</time></trkpt><trkpt lat="41.008497949229906" lon="9.336837031244364"><ele>302.0</ele><time>2026-03-27T15:24:01.999Z</time></trkpt><trkpt lat="41.008652738424374" lon="9.336825299161875"><ele>302.0</ele><time>2026-03-27T15:24:02.999Z</time></trkpt><trkpt lat="41.00880333963605" lon="9.33681640116828"><ele>302.0</ele><time>2026-03-27T15:24:03.999Z</time></trkpt><trkpt lat="41.00895081340198" lon="9.336805816254312"><ele>302.0</ele><time>2026-03-27T15:24:04.999Z</time></trkpt><trkpt lat="41.009091105296115" lon="9.33679122838846"><ele>302.0</ele><time>2026-03-27T15:24:05.999Z</time></trkpt><trkpt lat="41.00921542098864" lon="9.336778301782845"><ele>300.83333333333337</ele><time>2026-03-27T15:24:06.999Z</time></trkpt><trkpt lat="41.00932115244895" lon="9.336785028939566"><ele>299.6666666666667</ele><time>2026-03-27T15:24:07.999Z</time></trkpt><trkpt lat="41.00939692856698" lon="9.336813475130251"><ele>298.5</ele><time>2026-03-27T15:24:08.999Z</time></trkpt><trkpt lat="41.009463018082826" lon="9.336861118932818"><ele>297.3333333333333</ele><time>2026-03-27T15:24:09.999Z</time></trkpt><trkpt lat="41.00953256668995" lon="9.336886505956029"><ele>296.16666666666663</ele><time>2026-03-27T15:24:12.999Z</time></trkpt><trkpt lat="41.00960736006798" lon="9.336930584361488"><ele>295.0</ele><time>2026-03-27T15:24:15.999Z</time></trkpt><trkpt lat="41.00956018186749" lon="9.337045858115436"><ele>295.0</ele><time>2026-03-27T15:24:16.999Z</time></trkpt><trkpt lat="41.00956537678384" lon="9.337195374221285"><ele>295.0</ele><time>2026-03-27T15:24:17.999Z</time></trkpt><trkpt lat="41.00958721514661" lon="9.337358321419964"><ele>295.0</ele><time>2026-03-27T15:24:18.999Z</time></trkpt><trkpt lat="41.00957651710017" lon="9.33755233461583"><ele>295.0</ele><time>2026-03-27T15:24:19.999Z</time></trkpt><trkpt lat="41.00959330035453" lon="9.33774749487377"><ele>293.66666666666663</ele><time>2026-03-27T15:24:20.999Z</time></trkpt><trkpt lat="41.009668067678035" lon="9.337926442647289"><ele>292.3333333333333</ele><time>2026-03-27T15:24:21.999Z</time></trkpt><trkpt lat="41.00978920642392" lon="9.33809257068541"><ele>291.0</ele><time>2026-03-27T15:24:22.999Z</time></trkpt><trkpt lat="41.009954185811715" lon="9.338235535204436"><ele>287.6666666666667</ele><time>2026-03-27T15:24:23.999Z</time></trkpt><trkpt lat="41.01015052388922" lon="9.338362770002995"><ele>284.33333333333337</ele><time>2026-03-27T15:24:24.999Z</time></trkpt><trkpt lat="41.01033165157773" lon="9.338504555016208"><ele>281.0</ele><time>2026-03-27T15:24:25.999Z</time></trkpt><trkpt lat="41.01052083194681" lon="9.338643601709535"><ele>281.0</ele><time>2026-03-27T15:24:26.999Z</time></trkpt><trkpt lat="41.01069458456212" lon="9.338772262493892"><ele>281.0</ele><time>2026-03-27T15:24:27.999Z</time></trkpt><trkpt lat="41.010866700137264" lon="9.338909568946264"><ele>281.0</ele><time>2026-03-27T15:24:28.999Z</time></trkpt><trkpt lat="41.01101824014057" lon="9.33906807724374"><ele>278.0</ele><time>2026-03-27T15:24:29.999Z</time></trkpt><trkpt lat="41.01112726474312" lon="9.339251610189939"><ele>275.0</ele><time>2026-03-27T15:24:30.999Z</time></trkpt><trkpt lat="41.011237728951755" lon="9.339540144709543"><ele>272.0</ele><time>2026-03-27T15:24:31.999Z</time></trkpt><trkpt lat="41.011336964712946" lon="9.339788181449734"><ele>270.0</ele><time>2026-03-27T15:24:32.999Z</time></trkpt><trkpt lat="41.01142645203021" lon="9.340014264417757"><ele>268.0</ele><time>2026-03-27T15:24:33.998Z</time></trkpt><trkpt lat="41.01150406652918" lon="9.340198970335189"><ele>266.0</ele><time>2026-03-27T15:24:34.998Z</time></trkpt><trkpt lat="41.011589210613884" lon="9.340335128362772"><ele>266.5</ele><time>2026-03-27T15:24:35.998Z</time></trkpt><trkpt lat="41.01167171970614" lon="9.340451940501"><ele>267.0</ele><time>2026-03-27T15:24:36.998Z</time></trkpt><trkpt lat="41.011799673643935" lon="9.340506405144973"><ele>267.5</ele><time>2026-03-27T15:24:37.998Z</time></trkpt><trkpt lat="41.01195564789835" lon="9.340488895967265"><ele>268.0</ele><time>2026-03-27T15:24:38.998Z</time></trkpt><trkpt lat="41.01213134639293" lon="9.340478023716235"><ele>268.0</ele><time>2026-03-27T15:24:39.998Z</time></trkpt><trkpt lat="41.01234682179166" lon="9.340465662449809"><ele>268.0</ele><time>2026-03-27T15:24:40.998Z</time></trkpt><trkpt lat="41.01254673376609" lon="9.340461035052867"><ele>268.0</ele><time>2026-03-27T15:24:41.998Z</time></trkpt><trkpt lat="41.012711886043036" lon="9.340420300796733"><ele>267.25</ele><time>2026-03-27T15:24:42.998Z</time></trkpt><trkpt lat="41.01287606578893" lon="9.340393409326003"><ele>266.5</ele><time>2026-03-27T15:24:43.998Z</time></trkpt><trkpt lat="41.01300171890691" lon="9.34041527275637"><ele>265.75</ele><time>2026-03-27T15:24:44.998Z</time></trkpt><trkpt lat="41.01310979838716" lon="9.340478963838843"><ele>265.0</ele><time>2026-03-27T15:24:45.998Z</time></trkpt><trkpt lat="41.01315623465595" lon="9.340612004431298"><ele>262.25</ele><time>2026-03-27T15:24:46.998Z</time></trkpt><trkpt lat="41.013188616871226" lon="9.34078196967562"><ele>259.5</ele><time>2026-03-27T15:24:47.998Z</time></trkpt><trkpt lat="41.013151728849884" lon="9.340910735775793"><ele>256.75</ele><time>2026-03-27T15:24:48.998Z</time></trkpt><trkpt lat="41.01307967848553" lon="9.341052738850333"><ele>254.0</ele><time>2026-03-27T15:24:49.998Z</time></trkpt><trkpt lat="41.01299224810237" lon="9.341130800353895"><ele>254.0</ele><time>2026-03-27T15:24:50.998Z</time></trkpt><trkpt lat="41.012874568225286" lon="9.34116177111759"><ele>254.0</ele><time>2026-03-27T15:24:51.998Z</time></trkpt><trkpt lat="41.012689300901556" lon="9.341203258568406"><ele>254.0</ele><time>2026-03-27T15:24:52.998Z</time></trkpt><trkpt lat="41.01248543456951" lon="9.341246317613033"><ele>255.33333333333334</ele><time>2026-03-27T15:24:53.998Z</time></trkpt><trkpt lat="41.012288755312696" lon="9.341289570722324"><ele>256.6666666666667</ele><time>2026-03-27T15:24:54.998Z</time></trkpt><trkpt lat="41.012065759489026" lon="9.34133970272543"><ele>258.0</ele><time>2026-03-27T15:24:55.998Z</time></trkpt><trkpt lat="41.01184477070901" lon="9.341390409328746"><ele>253.0</ele><time>2026-03-27T15:24:56.998Z</time></trkpt><trkpt lat="41.01167055336685" lon="9.341430384105964"><ele>248.0</ele><time>2026-03-27T15:24:57.998Z</time></trkpt><trkpt lat="41.01148643948282" lon="9.341483897028045"><ele>243.0</ele><time>2026-03-27T15:24:58.998Z</time></trkpt><trkpt lat="41.01131553400961" lon="9.341527317526577"><ele>243.0</ele><time>2026-03-27T15:24:59.998Z</time></trkpt><trkpt lat="41.01115766145542" lon="9.341548068885437"><ele>243.0</ele><time>2026-03-27T15:25:00.998Z</time></trkpt><trkpt lat="41.01101057941345" lon="9.34160675246914"><ele>243.0</ele><time>2026-03-27T15:25:01.998Z</time></trkpt><trkpt lat="41.01088171675962" lon="9.34170688952561"><ele>243.5</ele><time>2026-03-27T15:25:02.998Z</time></trkpt><trkpt lat="41.010803022690155" lon="9.341853547393592"><ele>244.0</ele><time>2026-03-27T15:25:03.998Z</time></trkpt><trkpt lat="41.01078037295492" lon="9.342048028422965"><ele>244.5</ele><time>2026-03-27T15:25:04.998Z</time></trkpt><trkpt lat="41.010755495319685" lon="9.342244191822813"><ele>245.0</ele><time>2026-03-27T15:25:05.998Z</time></trkpt><trkpt lat="41.0107385344167" lon="9.342502924472662"><ele>241.0</ele><time>2026-03-27T15:25:06.998Z</time></trkpt><trkpt lat="41.010675415639064" lon="9.34283146638106"><ele>237.0</ele><time>2026-03-27T15:25:07.998Z</time></trkpt><trkpt lat="41.010635148287115" lon="9.343127450620104"><ele>233.66666666666669</ele><time>2026-03-27T15:25:08.998Z</time></trkpt><trkpt lat="41.010596219821714" lon="9.343413593191093"><ele>230.33333333333334</ele><time>2026-03-27T15:25:09.998Z</time></trkpt><trkpt lat="41.01056113193755" lon="9.343671505533326"><ele>227.0</ele><time>2026-03-27T15:25:11Z</time></trkpt><trkpt lat="41.01052514793978" lon="9.343935771061489"><ele>225.33333333333334</ele><time>2026-03-27T15:25:12Z</time></trkpt><trkpt lat="41.0104988037498" lon="9.344208985973253"><ele>223.66666666666669</ele><time>2026-03-27T15:25:13Z</time></trkpt><trkpt lat="41.010471504654106" lon="9.344489993603641"><ele>222.0</ele><time>2026-03-27T15:25:14Z</time></trkpt><trkpt lat="41.01045535617799" lon="9.344790266586733"><ele>219.0</ele><time>2026-03-27T15:25:15Z</time></trkpt><trkpt lat="41.01046113313708" lon="9.345108398380013"><ele>216.0</ele><time>2026-03-27T15:25:16Z</time></trkpt><trkpt lat="41.0104829960254" lon="9.34542987241619"><ele>214.0</ele><time>2026-03-27T15:25:17Z</time></trkpt><trkpt lat="41.01050508055207" lon="9.345724901669495"><ele>212.0</ele><time>2026-03-27T15:25:18Z</time></trkpt><trkpt lat="41.0105201617816" lon="9.346009155351203"><ele>210.0</ele><time>2026-03-27T15:25:19Z</time></trkpt><trkpt lat="41.0105370294551" lon="9.3462839834021"><ele>208.33333333333331</ele><time>2026-03-27T15:25:20Z</time></trkpt><trkpt lat="41.01056171927708" lon="9.346557743255484"><ele>206.66666666666666</ele><time>2026-03-27T15:25:21Z</time></trkpt><trkpt lat="41.0106139802678" lon="9.346830451637569"><ele>205.0</ele><time>2026-03-27T15:25:22Z</time></trkpt><trkpt lat="41.01069896301786" lon="9.347095497605794"><ele>203.0</ele><time>2026-03-27T15:25:23Z</time></trkpt><trkpt lat="41.010826290899544" lon="9.347333606567668"><ele>201.0</ele><time>2026-03-27T15:25:24Z</time></trkpt><trkpt lat="41.01100310255104" lon="9.347515473569462"><ele>199.0</ele><time>2026-03-27T15:25:25Z</time></trkpt><trkpt lat="41.01116901435083" lon="9.347691866928553"><ele>199.0</ele><time>2026-03-27T15:25:26Z</time></trkpt><trkpt lat="41.01135115648433" lon="9.347844794269237"><ele>199.0</ele><time>2026-03-27T15:25:27Z</time></trkpt><trkpt lat="41.01153619526274" lon="9.348009077479754"><ele>199.0</ele><time>2026-03-27T15:25:28Z</time></trkpt><trkpt lat="41.01170302856469" lon="9.348195644684786"><ele>197.33333333333331</ele><time>2026-03-27T15:25:29Z</time></trkpt><trkpt lat="41.01183002748515" lon="9.348422565589761"><ele>195.66666666666669</ele><time>2026-03-27T15:25:30Z</time></trkpt><trkpt lat="41.01195170469051" lon="9.348689371549371"><ele>194.0</ele><time>2026-03-27T15:25:31Z</time></trkpt><trkpt lat="41.0120565460028" lon="9.348955390578515"><ele>193.0</ele><time>2026-03-27T15:25:32Z</time></trkpt><trkpt lat="41.01211519986962" lon="9.349246601012108"><ele>192.0</ele><time>2026-03-27T15:25:33Z</time></trkpt><trkpt lat="41.01215316656071" lon="9.349552496821241"><ele>189.0</ele><time>2026-03-27T15:25:34Z</time></trkpt><trkpt lat="41.012191306280826" lon="9.349859784636683"><ele>186.0</ele><time>2026-03-27T15:25:35Z</time></trkpt><trkpt lat="41.01222838609342" lon="9.350158532896714"><ele>186.0</ele><time>2026-03-27T15:25:36Z</time></trkpt><trkpt lat="41.01228095315685" lon="9.350452714451688"><ele>186.0</ele><time>2026-03-27T15:25:37Z</time></trkpt><trkpt lat="41.01233149032641" lon="9.35074117803239"><ele>185.33333333333334</ele><time>2026-03-27T15:25:38Z</time></trkpt><trkpt lat="41.0124034486052" lon="9.351019616858622"><ele>184.66666666666669</ele><time>2026-03-27T15:25:39Z</time></trkpt><trkpt lat="41.012505737099566" lon="9.351288133128921"><ele>184.0</ele><time>2026-03-27T15:25:40Z</time></trkpt><trkpt lat="41.01263952128787" lon="9.351546407276128"><ele>180.5</ele><time>2026-03-27T15:25:41Z</time></trkpt><trkpt lat="41.01281139986104" lon="9.351769908343794"><ele>177.0</ele><time>2026-03-27T15:25:41.999Z</time></trkpt><trkpt lat="41.01300536392984" lon="9.351983766337659"><ele>177.0</ele><time>2026-03-27T15:25:42.999Z</time></trkpt><trkpt lat="41.01319533988786" lon="9.352193410984475"><ele>177.0</ele><time>2026-03-27T15:25:43.999Z</time></trkpt><trkpt lat="41.013365101958584" lon="9.352390871327898"><ele>172.66666666666666</ele><time>2026-03-27T15:25:44.999Z</time></trkpt><trkpt lat="41.0135151691095" lon="9.352583642910146"><ele>168.33333333333331</ele><time>2026-03-27T15:25:45.999Z</time></trkpt><trkpt lat="41.013650076502906" lon="9.352752991181319"><ele>164.0</ele><time>2026-03-27T15:25:46.999Z</time></trkpt><trkpt lat="41.013775304878564" lon="9.352899588274555"><ele>164.0</ele><time>2026-03-27T15:25:47.999Z</time></trkpt><trkpt lat="41.013896734975525" lon="9.353011971951018"><ele>164.0</ele><time>2026-03-27T15:25:48.999Z</time></trkpt><trkpt lat="41.01403195199463" lon="9.35307256995048"><ele>164.0</ele><time>2026-03-27T15:25:49.999Z</time></trkpt><trkpt lat="41.0142029425999" lon="9.353035702396195"><ele>163.0</ele><time>2026-03-27T15:25:50.999Z</time></trkpt><trkpt lat="41.014385961575414" lon="9.352936154807033"><ele>162.0</ele><time>2026-03-27T15:25:51.999Z</time></trkpt><trkpt lat="41.01458982145155" lon="9.352803507538239"><ele>161.0</ele><time>2026-03-27T15:25:52.999Z</time></trkpt><trkpt lat="41.01480638211813" lon="9.352673855115164"><ele>164.0</ele><time>2026-03-27T15:25:53.999Z</time></trkpt><trkpt lat="41.01503224635989" lon="9.35255088171214"><ele>167.0</ele><time>2026-03-27T15:25:54.999Z</time></trkpt><trkpt lat="41.01528735884387" lon="9.35243712564683"><ele>167.0</ele><time>2026-03-27T15:25:55.999Z</time></trkpt><trkpt lat="41.015534618736694" lon="9.352330156107648"><ele>167.0</ele><time>2026-03-27T15:25:56.999Z</time></trkpt><trkpt lat="41.015782042540955" lon="9.35221575288371"><ele>165.0</ele><time>2026-03-27T15:25:57.999Z</time></trkpt><trkpt lat="41.01604119675442" lon="9.352092701991937"><ele>163.0</ele><time>2026-03-27T15:25:58.999Z</time></trkpt><trkpt lat="41.016289741669894" lon="9.35196865707303"><ele>163.0</ele><time>2026-03-27T15:25:59.999Z</time></trkpt><trkpt lat="41.016508979862024" lon="9.351855821227181"><ele>163.0</ele><time>2026-03-27T15:26:00.999Z</time></trkpt><trkpt lat="41.016712059281154" lon="9.351757778702426"><ele>163.33333333333334</ele><time>2026-03-27T15:26:01.999Z</time></trkpt><trkpt lat="41.01689619332698" lon="9.351673707734378"><ele>163.66666666666666</ele><time>2026-03-27T15:26:02.999Z</time></trkpt><trkpt lat="41.01707976964333" lon="9.351613101883297"><ele>164.0</ele><time>2026-03-27T15:26:03.999Z</time></trkpt><trkpt lat="41.01726832971354" lon="9.351606009935042"><ele>164.0</ele><time>2026-03-27T15:26:04.999Z</time></trkpt><trkpt lat="41.017464811140755" lon="9.35167673185787"><ele>164.0</ele><time>2026-03-27T15:26:05.999Z</time></trkpt><trkpt lat="41.01765523601644" lon="9.351812184127324"><ele>164.0</ele><time>2026-03-27T15:26:06.999Z</time></trkpt><trkpt lat="41.017831253085525" lon="9.351988441049286"><ele>165.0</ele><time>2026-03-27T15:26:07.999Z</time></trkpt><trkpt lat="41.018012688840884" lon="9.352178508872205"><ele>166.0</ele><time>2026-03-27T15:26:08.999Z</time></trkpt><trkpt lat="41.01815257451686" lon="9.352399879170635"><ele>167.0</ele><time>2026-03-27T15:26:09.999Z</time></trkpt><trkpt lat="41.018286142514675" lon="9.352641106757577"><ele>170.0</ele><time>2026-03-27T15:26:10.999Z</time></trkpt><trkpt lat="41.01844633917451" lon="9.35286829614409"><ele>173.0</ele><time>2026-03-27T15:26:11.999Z</time></trkpt><trkpt lat="41.01860489538116" lon="9.35309112926048"><ele>173.0</ele><time>2026-03-27T15:26:12.999Z</time></trkpt><trkpt lat="41.01878988989276" lon="9.353312407292002"><ele>173.0</ele><time>2026-03-27T15:26:13.999Z</time></trkpt><trkpt lat="41.01897236221836" lon="9.353542251973238"><ele>172.5</ele><time>2026-03-27T15:26:14.999Z</time></trkpt><trkpt lat="41.01917056177966" lon="9.353764279183773"><ele>172.0</ele><time>2026-03-27T15:26:15.999Z</time></trkpt><trkpt lat="41.01937549794166" lon="9.353976694446068"><ele>172.0</ele><time>2026-03-27T15:26:16.999Z</time></trkpt><trkpt lat="41.01958084648429" lon="9.354179496700228"><ele>172.0</ele><time>2026-03-27T15:26:17.999Z</time></trkpt><trkpt lat="41.0197841771406" lon="9.354396734908466"><ele>172.0</ele><time>2026-03-27T15:26:18.999Z</time></trkpt><trkpt lat="41.019978174273014" lon="9.354615176039086"><ele>172.0</ele><time>2026-03-27T15:26:19.999Z</time></trkpt><trkpt lat="41.02016469481872" lon="9.354846716435198"><ele>173.5</ele><time>2026-03-27T15:26:20.999Z</time></trkpt><trkpt lat="41.02034916225649" lon="9.355094332404834"><ele>175.0</ele><time>2026-03-27T15:26:21.999Z</time></trkpt><trkpt lat="41.02050440813262" lon="9.355354830749391"><ele>177.0</ele><time>2026-03-27T15:26:22.999Z</time></trkpt><trkpt lat="41.0206423193816" lon="9.355636043239654"><ele>179.0</ele><time>2026-03-27T15:26:23.999Z</time></trkpt><trkpt lat="41.020776853949116" lon="9.355918881827279"><ele>182.5</ele><time>2026-03-27T15:26:24.999Z</time></trkpt><trkpt lat="41.020920449438925" lon="9.356186226343791"><ele>186.0</ele><time>2026-03-27T15:26:25.999Z</time></trkpt><trkpt lat="41.021050628044534" lon="9.356471082793714"><ele>187.0</ele><time>2026-03-27T15:26:26.999Z</time></trkpt><trkpt lat="41.02118146981187" lon="9.356741049574843"><ele>188.0</ele><time>2026-03-27T15:26:27.999Z</time></trkpt><trkpt lat="41.02130059931392" lon="9.356965187101363"><ele>189.0</ele><time>2026-03-27T15:26:28.999Z</time></trkpt><trkpt lat="41.02141004324255" lon="9.357182926473415"><ele>191.0</ele><time>2026-03-27T15:26:29.999Z</time></trkpt><trkpt lat="41.021513515204155" lon="9.357414267849032"><ele>193.0</ele><time>2026-03-27T15:26:30.999Z</time></trkpt><trkpt lat="41.02162658487608" lon="9.357656084881233"><ele>195.0</ele><time>2026-03-27T15:26:31.999Z</time></trkpt><trkpt lat="41.02174912854836" lon="9.357896355935003"><ele>196.0</ele><time>2026-03-27T15:26:32.998Z</time></trkpt><trkpt lat="41.021881938620666" lon="9.358142532480556"><ele>197.0</ele><time>2026-03-27T15:26:33.998Z</time></trkpt><trkpt lat="41.02202555919951" lon="9.358381778949088"><ele>197.0</ele><time>2026-03-27T15:26:34.998Z</time></trkpt><trkpt lat="41.022171855861444" lon="9.358595150565261"><ele>197.0</ele><time>2026-03-27T15:26:35.998Z</time></trkpt><trkpt lat="41.02229821072233" lon="9.358798707690267"><ele>197.0</ele><time>2026-03-27T15:26:36.998Z</time></trkpt><trkpt lat="41.022413325261354" lon="9.359000137465909"><ele>199.66666666666669</ele><time>2026-03-27T15:26:37.998Z</time></trkpt><trkpt lat="41.02252706538002" lon="9.359207351144457"><ele>202.33333333333331</ele><time>2026-03-27T15:26:38.998Z</time></trkpt><trkpt lat="41.02265938275128" lon="9.359419032971758"><ele>205.0</ele><time>2026-03-27T15:26:39.998Z</time></trkpt><trkpt lat="41.0228154406814" lon="9.359624613728347"><ele>204.0</ele><time>2026-03-27T15:26:40.998Z</time></trkpt><trkpt lat="41.02300373001079" lon="9.359805641148728"><ele>203.0</ele><time>2026-03-27T15:26:41.998Z</time></trkpt><trkpt lat="41.02321624505848" lon="9.35996824207505"><ele>202.0</ele><time>2026-03-27T15:26:42.998Z</time></trkpt><trkpt lat="41.02343841855078" lon="9.360128394366873"><ele>201.0</ele><time>2026-03-27T15:26:43.998Z</time></trkpt><trkpt lat="41.023661317018004" lon="9.360293369922585"><ele>201.0</ele><time>2026-03-27T15:26:44.998Z</time></trkpt><trkpt lat="41.023876300355994" lon="9.360462049450328"><ele>201.0</ele><time>2026-03-27T15:26:45.998Z</time></trkpt><trkpt lat="41.024081425265905" lon="9.36064459556865"><ele>199.0</ele><time>2026-03-27T15:26:46.998Z</time></trkpt><trkpt lat="41.02426913187445" lon="9.360859976086235"><ele>197.0</ele><time>2026-03-27T15:26:47.998Z</time></trkpt><trkpt lat="41.0244345139786" lon="9.36111117184281"><ele>195.5</ele><time>2026-03-27T15:26:48.998Z</time></trkpt><trkpt lat="41.024601021561445" lon="9.36136791795793"><ele>194.0</ele><time>2026-03-27T15:26:49.998Z</time></trkpt><trkpt lat="41.024754037803255" lon="9.361632710757812"><ele>194.0</ele><time>2026-03-27T15:26:50.998Z</time></trkpt><trkpt lat="41.024929824826394" lon="9.361884341087526"><ele>194.0</ele><time>2026-03-27T15:26:51.998Z</time></trkpt><trkpt lat="41.02510234603007" lon="9.362132065848684"><ele>192.0</ele><time>2026-03-27T15:26:52.998Z</time></trkpt><trkpt lat="41.025275563362364" lon="9.362382162688347"><ele>190.0</ele><time>2026-03-27T15:26:53.998Z</time></trkpt><trkpt lat="41.02545401159245" lon="9.362639393765582"><ele>190.0</ele><time>2026-03-27T15:26:54.998Z</time></trkpt><trkpt lat="41.0256449730102" lon="9.362884477879922"><ele>190.0</ele><time>2026-03-27T15:26:55.998Z</time></trkpt><trkpt lat="41.025814837474584" lon="9.363158497814812"><ele>186.5</ele><time>2026-03-27T15:26:56.998Z</time></trkpt><trkpt lat="41.02600768014052" lon="9.363409433082566"><ele>183.0</ele><time>2026-03-27T15:26:57.998Z</time></trkpt><trkpt lat="41.02618886877445" lon="9.363670271973387"><ele>182.0</ele><time>2026-03-27T15:26:58.998Z</time></trkpt><trkpt lat="41.026349439130954" lon="9.363932282132767"><ele>181.0</ele><time>2026-03-27T15:26:59.998Z</time></trkpt><trkpt lat="41.026512212938016" lon="9.3641690470243"><ele>180.5</ele><time>2026-03-27T15:27:00.998Z</time></trkpt><trkpt lat="41.026669653855755" lon="9.364396654314913"><ele>180.0</ele><time>2026-03-27T15:27:01.998Z</time></trkpt><trkpt lat="41.02682260908132" lon="9.364617776783069"><ele>180.0</ele><time>2026-03-27T15:27:02.998Z</time></trkpt><trkpt lat="41.026972681803095" lon="9.364832721370359"><ele>180.0</ele><time>2026-03-27T15:27:03.998Z</time></trkpt><trkpt lat="41.027123689319275" lon="9.365054328149462"><ele>180.0</ele><time>2026-03-27T15:27:04.998Z</time></trkpt><trkpt lat="41.027264514300356" lon="9.365301705352657"><ele>177.5</ele><time>2026-03-27T15:27:05.998Z</time></trkpt><trkpt lat="41.027386143399866" lon="9.36557381226542"><ele>175.0</ele><time>2026-03-27T15:27:06.998Z</time></trkpt><trkpt lat="41.027490025944736" lon="9.365865679198283"><ele>175.0</ele><time>2026-03-27T15:27:07.998Z</time></trkpt><trkpt lat="41.027588280422506" lon="9.366177163419692"><ele>175.0</ele><time>2026-03-27T15:27:08.998Z</time></trkpt><trkpt lat="41.027686975534756" lon="9.366492756020529"><ele>173.0</ele><time>2026-03-27T15:27:09.998Z</time></trkpt><trkpt lat="41.027786773356326" lon="9.366811874701693"><ele>171.0</ele><time>2026-03-27T15:27:10.998Z</time></trkpt><trkpt lat="41.02788687827179" lon="9.367135207118165"><ele>173.0</ele><time>2026-03-27T15:27:11.998Z</time></trkpt><trkpt lat="41.02798716407133" lon="9.367460771985824"><ele>175.0</ele><time>2026-03-27T15:27:12.998Z</time></trkpt><trkpt lat="41.02808769714391" lon="9.367784184414534"><ele>176.5</ele><time>2026-03-27T15:27:13.998Z</time></trkpt><trkpt lat="41.02818798813332" lon="9.368102985718489"><ele>178.0</ele><time>2026-03-27T15:27:14.998Z</time></trkpt><trkpt lat="41.02828290246419" lon="9.368405579740855"><ele>175.66666666666669</ele><time>2026-03-27T15:27:15.998Z</time></trkpt><trkpt lat="41.02836697405485" lon="9.368673606288223"><ele>173.33333333333334</ele><time>2026-03-27T15:27:17Z</time></trkpt><trkpt lat="41.02846218892569" lon="9.368910326246441"><ele>171.0</ele><time>2026-03-27T15:27:18Z</time></trkpt><trkpt lat="41.02858927944177" lon="9.369094898326624"><ele>171.0</ele><time>2026-03-27T15:27:19Z</time></trkpt><trkpt lat="41.02875126567167" lon="9.369249020259977"><ele>171.0</ele><time>2026-03-27T15:27:20Z</time></trkpt><trkpt lat="41.02894976123616" lon="9.36936566415265"><ele>171.0</ele><time>2026-03-27T15:27:21Z</time></trkpt><trkpt lat="41.029158983396414" lon="9.36947174309533"><ele>172.33333333333334</ele><time>2026-03-27T15:27:22Z</time></trkpt><trkpt lat="41.02935581446109" lon="9.369602267220875"><ele>173.66666666666669</ele><time>2026-03-27T15:27:23Z</time></trkpt><trkpt lat="41.02953536555483" lon="9.369750097839576"><ele>175.0</ele><time>2026-03-27T15:27:24Z</time></trkpt><trkpt lat="41.029670803181595" lon="9.369937878977987"><ele>177.0</ele><time>2026-03-27T15:27:25Z</time></trkpt><trkpt lat="41.02975708719577" lon="9.370169988902603"><ele>179.0</ele><time>2026-03-27T15:27:26Z</time></trkpt><trkpt lat="41.02981544951027" lon="9.370446158815575"><ele>181.0</ele><time>2026-03-27T15:27:27Z</time></trkpt><trkpt lat="41.029858419580755" lon="9.370745690215307"><ele>182.0</ele><time>2026-03-27T15:27:28Z</time></trkpt><trkpt lat="41.02990714873124" lon="9.371061217708244"><ele>183.0</ele><time>2026-03-27T15:27:29Z</time></trkpt><trkpt lat="41.02996489357753" lon="9.371378658046542"><ele>181.5</ele><time>2026-03-27T15:27:30Z</time></trkpt><trkpt lat="41.02999980995928" lon="9.371696964210114"><ele>180.0</ele><time>2026-03-27T15:27:31Z</time></trkpt><trkpt lat="41.030054547388126" lon="9.371986079292459"><ele>179.0</ele><time>2026-03-27T15:27:32Z</time></trkpt><trkpt lat="41.030129897988004" lon="9.372231889281263"><ele>178.0</ele><time>2026-03-27T15:27:33Z</time></trkpt><trkpt lat="41.03021144633942" lon="9.372487241753513"><ele>177.0</ele><time>2026-03-27T15:27:34Z</time></trkpt><trkpt lat="41.030324328547216" lon="9.37266522889849"><ele>177.0</ele><time>2026-03-27T15:27:35Z</time></trkpt><trkpt lat="41.030470241542815" lon="9.37280674166618"><ele>177.0</ele><time>2026-03-27T15:27:36Z</time></trkpt><trkpt lat="41.030692370117144" lon="9.37300194623612"><ele>177.0</ele><time>2026-03-27T15:27:37Z</time></trkpt><trkpt lat="41.03089845888332" lon="9.37318560114576"><ele>174.0</ele><time>2026-03-27T15:27:38Z</time></trkpt><trkpt lat="41.03111413281909" lon="9.373382978638832"><ele>171.0</ele><time>2026-03-27T15:27:39Z</time></trkpt><trkpt lat="41.031310428632615" lon="9.373566027033576"><ele>171.0</ele><time>2026-03-27T15:27:40Z</time></trkpt><trkpt lat="41.031493608937595" lon="9.373733963675692"><ele>171.0</ele><time>2026-03-27T15:27:41Z</time></trkpt><trkpt lat="41.03168436612086" lon="9.37386692477551"><ele>171.0</ele><time>2026-03-27T15:27:41.999Z</time></trkpt><trkpt lat="41.03190839684621" lon="9.373951572476145"><ele>170.66666666666666</ele><time>2026-03-27T15:27:42.999Z</time></trkpt><trkpt lat="41.03213868171258" lon="9.37398573281776"><ele>170.33333333333331</ele><time>2026-03-27T15:27:43.999Z</time></trkpt><trkpt lat="41.0323427842246" lon="9.374036102659625"><ele>170.0</ele><time>2026-03-27T15:27:44.999Z</time></trkpt><trkpt lat="41.03256608782151" lon="9.374096087835925"><ele>171.66666666666666</ele><time>2026-03-27T15:27:45.999Z</time></trkpt><trkpt lat="41.032784930483686" lon="9.374107958709807"><ele>173.33333333333334</ele><time>2026-03-27T15:27:46.999Z</time></trkpt><trkpt lat="41.03301110427512" lon="9.37407395366683"><ele>175.0</ele><time>2026-03-27T15:27:47.999Z</time></trkpt><trkpt lat="41.03324583222634" lon="9.373986078123636"><ele>173.5</ele><time>2026-03-27T15:27:48.999Z</time></trkpt><trkpt lat="41.03349143331961" lon="9.373886315016907"><ele>172.0</ele><time>2026-03-27T15:27:49.999Z</time></trkpt><trkpt lat="41.033724192349375" lon="9.373795922517774"><ele>171.0</ele><time>2026-03-27T15:27:50.999Z</time></trkpt><trkpt lat="41.03395621700108" lon="9.373750334202946"><ele>170.0</ele><time>2026-03-27T15:27:51.999Z</time></trkpt><trkpt lat="41.03416592450162" lon="9.373701265358925"><ele>169.0</ele><time>2026-03-27T15:27:52.999Z</time></trkpt><trkpt lat="41.03435348228976" lon="9.373698561987009"><ele>165.0</ele><time>2026-03-27T15:27:53.999Z</time></trkpt><trkpt lat="41.034568800194435" lon="9.373763799050616"><ele>161.0</ele><time>2026-03-27T15:27:54.999Z</time></trkpt><trkpt lat="41.034812140141845" lon="9.37384082171041"><ele>159.66666666666666</ele><time>2026-03-27T15:27:55.999Z</time></trkpt><trkpt lat="41.03502480228652" lon="9.373908546309705"><ele>158.33333333333334</ele><time>2026-03-27T15:27:56.999Z</time></trkpt><trkpt lat="41.03521692754706" lon="9.373975379806389"><ele>157.0</ele><time>2026-03-27T15:27:57.999Z</time></trkpt><trkpt lat="41.0353524749987" lon="9.374073649316413"><ele>157.0</ele><time>2026-03-27T15:27:58.999Z</time></trkpt><trkpt lat="41.035473451804236" lon="9.374235826945682"><ele>157.0</ele><time>2026-03-27T15:27:59.999Z</time></trkpt><trkpt lat="41.03558173072646" lon="9.374437924757904"><ele>157.0</ele><time>2026-03-27T15:28:00.999Z</time></trkpt><trkpt lat="41.035717456476675" lon="9.374677207009656"><ele>152.5</ele><time>2026-03-27T15:28:01.999Z</time></trkpt><trkpt lat="41.03587738129639" lon="9.374929497892541"><ele>148.0</ele><time>2026-03-27T15:28:02.999Z</time></trkpt><trkpt lat="41.036063402933245" lon="9.375162380549625"><ele>148.0</ele><time>2026-03-27T15:28:03.999Z</time></trkpt><trkpt lat="41.03622036383045" lon="9.375374663250764"><ele>148.0</ele><time>2026-03-27T15:28:04.999Z</time></trkpt><trkpt lat="41.03639390576195" lon="9.375609708304722"><ele>145.0</ele><time>2026-03-27T15:28:05.999Z</time></trkpt><trkpt lat="41.036571020809106" lon="9.375835248607034"><ele>142.0</ele><time>2026-03-27T15:28:06.999Z</time></trkpt><trkpt lat="41.0367483221996" lon="9.37603218317095"><ele>141.0</ele><time>2026-03-27T15:28:07.999Z</time></trkpt><trkpt lat="41.036937977491164" lon="9.376186860709836"><ele>140.0</ele><time>2026-03-27T15:28:08.999Z</time></trkpt><trkpt lat="41.03712887472044" lon="9.376311394091305"><ele>139.0</ele><time>2026-03-27T15:28:09.999Z</time></trkpt><trkpt lat="41.03730598511703" lon="9.376428515123887"><ele>136.66666666666669</ele><time>2026-03-27T15:28:10.999Z</time></trkpt><trkpt lat="41.03748136842799" lon="9.376517276958133"><ele>134.33333333333334</ele><time>2026-03-27T15:28:11.999Z</time></trkpt><trkpt lat="41.03765780077346" lon="9.376529917325671"><ele>132.0</ele><time>2026-03-27T15:28:12.999Z</time></trkpt><trkpt lat="41.0379485220146" lon="9.376503596149446"><ele>132.0</ele><time>2026-03-27T15:28:13.999Z</time></trkpt><trkpt lat="41.03818805801172" lon="9.37647641270283"><ele>132.0</ele><time>2026-03-27T15:28:14.999Z</time></trkpt><trkpt lat="41.03843026209881" lon="9.376449288934806"><ele>131.0</ele><time>2026-03-27T15:28:15.999Z</time></trkpt><trkpt lat="41.03869201948381" lon="9.376391539943102"><ele>130.0</ele><time>2026-03-27T15:28:16.999Z</time></trkpt><trkpt lat="41.03896200655649" lon="9.376323846285189"><ele>128.5</ele><time>2026-03-27T15:28:17.999Z</time></trkpt><trkpt lat="41.03922104017199" lon="9.376234540099198"><ele>127.0</ele><time>2026-03-27T15:28:18.999Z</time></trkpt><trkpt lat="41.03947811819411" lon="9.376139983769665"><ele>127.0</ele><time>2026-03-27T15:28:19.999Z</time></trkpt><trkpt lat="41.03972900561422" lon="9.376051125102476"><ele>127.0</ele><time>2026-03-27T15:28:20.999Z</time></trkpt><trkpt lat="41.03999132307166" lon="9.375959194756259"><ele>125.5</ele><time>2026-03-27T15:28:21.999Z</time></trkpt><trkpt lat="41.0402550622028" lon="9.375870740856174"><ele>124.0</ele><time>2026-03-27T15:28:22.999Z</time></trkpt><trkpt lat="41.0405169792573" lon="9.37579458464057"><ele>124.0</ele><time>2026-03-27T15:28:23.999Z</time></trkpt><trkpt lat="41.04078227366018" lon="9.375775573709813"><ele>124.0</ele><time>2026-03-27T15:28:24.999Z</time></trkpt><trkpt lat="41.041010540928895" lon="9.375751118920213"><ele>122.0</ele><time>2026-03-27T15:28:25.999Z</time></trkpt><trkpt lat="41.041241566797154" lon="9.37570415958801"><ele>120.0</ele><time>2026-03-27T15:28:26.999Z</time></trkpt><trkpt lat="41.04149030801809" lon="9.375635209698244"><ele>119.0</ele><time>2026-03-27T15:28:27.999Z</time></trkpt><trkpt lat="41.04173860673749" lon="9.37554458110824"><ele>118.0</ele><time>2026-03-27T15:28:28.999Z</time></trkpt><trkpt lat="41.04197804136363" lon="9.375422400936317"><ele>118.0</ele><time>2026-03-27T15:28:29.999Z</time></trkpt><trkpt lat="41.04221083904441" lon="9.375298444654806"><ele>118.0</ele><time>2026-03-27T15:28:30.999Z</time></trkpt><trkpt lat="41.04244149968703" lon="9.37522479817105"><ele>117.66666666666667</ele><time>2026-03-27T15:28:31.998Z</time></trkpt><trkpt lat="41.042639213439735" lon="9.375142417709114"><ele>117.33333333333334</ele><time>2026-03-27T15:28:32.998Z</time></trkpt><trkpt lat="41.04284287350261" lon="9.375070110523732"><ele>117.0</ele><time>2026-03-27T15:28:33.998Z</time></trkpt><trkpt lat="41.04302625023984" lon="9.375063591953692"><ele>117.0</ele><time>2026-03-27T15:28:34.998Z</time></trkpt><trkpt lat="41.04318679153809" lon="9.375136857799784"><ele>117.0</ele><time>2026-03-27T15:28:35.998Z</time></trkpt><trkpt lat="41.04337434501903" lon="9.375250143669096"><ele>117.0</ele><time>2026-03-27T15:28:36.998Z</time></trkpt><trkpt lat="41.043583871266826" lon="9.375359173151075"><ele>115.5</ele><time>2026-03-27T15:28:37.998Z</time></trkpt><trkpt lat="41.04380708616671" lon="9.37546379033942"><ele>114.0</ele><time>2026-03-27T15:28:38.998Z</time></trkpt><trkpt lat="41.0440518559113" lon="9.3755196403995"><ele>111.5</ele><time>2026-03-27T15:28:39.998Z</time></trkpt><trkpt lat="41.04430178393399" lon="9.3756083557962"><ele>109.0</ele><time>2026-03-27T15:28:40.998Z</time></trkpt><trkpt lat="41.04456504682672" lon="9.375670232390714"><ele>109.0</ele><time>2026-03-27T15:28:41.998Z</time></trkpt><trkpt lat="41.04483478668856" lon="9.375726849283847"><ele>109.0</ele><time>2026-03-27T15:28:42.998Z</time></trkpt><trkpt lat="41.04511142562075" lon="9.375789264626734"><ele>108.5</ele><time>2026-03-27T15:28:43.998Z</time></trkpt><trkpt lat="41.04539392125093" lon="9.37586028313132"><ele>108.0</ele><time>2026-03-27T15:28:44.998Z</time></trkpt><trkpt lat="41.0456741410091" lon="9.37592852848406"><ele>105.5</ele><time>2026-03-27T15:28:45.998Z</time></trkpt><trkpt lat="41.04594464670012" lon="9.376002672261903"><ele>103.0</ele><time>2026-03-27T15:28:46.998Z</time></trkpt><trkpt lat="41.04619946880003" lon="9.376067230608855"><ele>103.0</ele><time>2026-03-27T15:28:47.998Z</time></trkpt><trkpt lat="41.046442227913126" lon="9.376123673022727"><ele>103.0</ele><time>2026-03-27T15:28:48.998Z</time></trkpt><trkpt lat="41.046660993079676" lon="9.376186942489717"><ele>100.33333333333334</ele><time>2026-03-27T15:28:49.998Z</time></trkpt><trkpt lat="41.046877050558656" lon="9.376243741634054"><ele>97.66666666666667</ele><time>2026-03-27T15:28:50.998Z</time></trkpt><trkpt lat="41.04708086576901" lon="9.376296686221426"><ele>95.0</ele><time>2026-03-27T15:28:51.998Z</time></trkpt><trkpt lat="41.047268394511995" lon="9.376329941728569"><ele>95.0</ele><time>2026-03-27T15:28:52.998Z</time></trkpt><trkpt lat="41.04745130874409" lon="9.376321025028314"><ele>95.0</ele><time>2026-03-27T15:28:53.998Z</time></trkpt><trkpt lat="41.04762629829404" lon="9.376224388234526"><ele>95.0</ele><time>2026-03-27T15:28:54.998Z</time></trkpt><trkpt lat="41.047796287075684" lon="9.376075647359073"><ele>94.0</ele><time>2026-03-27T15:28:55.998Z</time></trkpt><trkpt lat="41.04797395063443" lon="9.375896220989608"><ele>93.0</ele><time>2026-03-27T15:28:56.998Z</time></trkpt><trkpt lat="41.048159302943766" lon="9.375708112151443"><ele>91.5</ele><time>2026-03-27T15:28:57.998Z</time></trkpt><trkpt lat="41.04835667371382" lon="9.37552398071316"><ele>90.0</ele><time>2026-03-27T15:28:58.998Z</time></trkpt><trkpt lat="41.04855752537988" lon="9.375341066888918"><ele>89.0</ele><time>2026-03-27T15:28:59.998Z</time></trkpt><trkpt lat="41.04875126819561" lon="9.37516080809705"><ele>88.0</ele><time>2026-03-27T15:29:00.998Z</time></trkpt><trkpt lat="41.04893204211113" lon="9.374984295135507"><ele>88.0</ele><time>2026-03-27T15:29:01.998Z</time></trkpt><trkpt lat="41.049103820098686" lon="9.374822820092554"><ele>88.0</ele><time>2026-03-27T15:29:02.998Z</time></trkpt><trkpt lat="41.049276537087245" lon="9.374703334180447"><ele>88.0</ele><time>2026-03-27T15:29:03.998Z</time></trkpt><trkpt lat="41.04947932375856" lon="9.374638689565286"><ele>85.0</ele><time>2026-03-27T15:29:04.998Z</time></trkpt><trkpt lat="41.04970882847505" lon="9.37460421565331"><ele>82.0</ele><time>2026-03-27T15:29:05.998Z</time></trkpt><trkpt lat="41.04994748877051" lon="9.374570887711428"><ele>80.0</ele><time>2026-03-27T15:29:06.998Z</time></trkpt><trkpt lat="41.05018193099454" lon="9.374536394773196"><ele>78.0</ele><time>2026-03-27T15:29:07.998Z</time></trkpt><trkpt lat="41.05040055649197" lon="9.374499186758372"><ele>78.0</ele><time>2026-03-27T15:29:08.998Z</time></trkpt><trkpt lat="41.05059520073955" lon="9.37446728500442"><ele>78.0</ele><time>2026-03-27T15:29:09.998Z</time></trkpt><trkpt lat="41.05077930706771" lon="9.374448811282331"><ele>78.0</ele><time>2026-03-27T15:29:10.998Z</time></trkpt><trkpt lat="41.05095676152185" lon="9.374469747931556"><ele>77.66666666666667</ele><time>2026-03-27T15:29:11.998Z</time></trkpt><trkpt lat="41.05111657581963" lon="9.374546214465228"><ele>77.33333333333334</ele><time>2026-03-27T15:29:12.998Z</time></trkpt><trkpt lat="41.05125618866554" lon="9.374682049210676"><ele>77.0</ele><time>2026-03-27T15:29:13.998Z</time></trkpt><trkpt lat="41.051379146351124" lon="9.374866831915256"><ele>77.0</ele><time>2026-03-27T15:29:14.998Z</time></trkpt><trkpt lat="41.051479395957415" lon="9.375095880357872"><ele>77.0</ele><time>2026-03-27T15:29:15.998Z</time></trkpt><trkpt lat="41.05157545145687" lon="9.375369618677112"><ele>77.0</ele><time>2026-03-27T15:29:16.998Z</time></trkpt><trkpt lat="41.05167047525032" lon="9.375644646607446"><ele>71.5</ele><time>2026-03-27T15:29:17.998Z</time></trkpt><trkpt lat="41.051791510099" lon="9.375913956613466"><ele>66.0</ele><time>2026-03-27T15:29:18.998Z</time></trkpt><trkpt lat="41.05195512211022" lon="9.376144590031007"><ele>66.0</ele><time>2026-03-27T15:29:19.998Z</time></trkpt><trkpt lat="41.05215752317338" lon="9.376330674933198"><ele>66.0</ele><time>2026-03-27T15:29:20.998Z</time></trkpt><trkpt lat="41.05238157294228" lon="9.37648943976105"><ele>61.0</ele><time>2026-03-27T15:29:21.998Z</time></trkpt><trkpt lat="41.05262172655109" lon="9.376650382499813"><ele>56.0</ele><time>2026-03-27T15:29:23Z</time></trkpt><trkpt lat="41.052851304783225" lon="9.376823101174299"><ele>56.0</ele><time>2026-03-27T15:29:24Z</time></trkpt><trkpt lat="41.053076950319316" lon="9.377020867977071"><ele>56.0</ele><time>2026-03-27T15:29:25Z</time></trkpt><trkpt lat="41.05328888391752" lon="9.37724235527003"><ele>55.0</ele><time>2026-03-27T15:29:26Z</time></trkpt><trkpt lat="41.05348845331386" lon="9.377476169953894"><ele>54.0</ele><time>2026-03-27T15:29:27Z</time></trkpt><trkpt lat="41.05368253183475" lon="9.377707246443215"><ele>54.0</ele><time>2026-03-27T15:29:28Z</time></trkpt><trkpt lat="41.053883242034544" lon="9.377927850733169"><ele>54.0</ele><time>2026-03-27T15:29:29Z</time></trkpt><trkpt lat="41.05407991885736" lon="9.37814299593228"><ele>54.5</ele><time>2026-03-27T15:29:30Z</time></trkpt><trkpt lat="41.05427823931588" lon="9.37835175207399"><ele>55.0</ele><time>2026-03-27T15:29:31Z</time></trkpt><trkpt lat="41.05447263590254" lon="9.378546821072378"><ele>55.0</ele><time>2026-03-27T15:29:32Z</time></trkpt><trkpt lat="41.05467150258788" lon="9.378734162344653"><ele>55.0</ele><time>2026-03-27T15:29:33Z</time></trkpt><trkpt lat="41.05487180261986" lon="9.378911615387162"><ele>53.5</ele><time>2026-03-27T15:29:34Z</time></trkpt><trkpt lat="41.05507344441471" lon="9.379089231732499"><ele>52.0</ele><time>2026-03-27T15:29:35Z</time></trkpt><trkpt lat="41.05527698249511" lon="9.37926677066042"><ele>52.0</ele><time>2026-03-27T15:29:36Z</time></trkpt><trkpt lat="41.05548152678656" lon="9.379447533367715"><ele>52.0</ele><time>2026-03-27T15:29:37Z</time></trkpt><trkpt lat="41.055674155166415" lon="9.379619291160683"><ele>51.666666666666664</ele><time>2026-03-27T15:29:38Z</time></trkpt><trkpt lat="41.05584948385562" lon="9.379777121298687"><ele>51.33333333333333</ele><time>2026-03-27T15:29:39Z</time></trkpt><trkpt lat="41.056010839341766" lon="9.379924611452118"><ele>51.0</ele><time>2026-03-27T15:29:40Z</time></trkpt><trkpt lat="41.0561620853859" lon="9.380063548392064"><ele>51.0</ele><time>2026-03-27T15:29:41Z</time></trkpt><trkpt lat="41.05631751638297" lon="9.380206350681439"><ele>51.0</ele><time>2026-03-27T15:29:42Z</time></trkpt><trkpt lat="41.056477327101256" lon="9.380351494175086"><ele>51.0</ele><time>2026-03-27T15:29:43Z</time></trkpt><trkpt lat="41.05662641311759" lon="9.380487255193719"><ele>50.66666666666667</ele><time>2026-03-27T15:29:43.999Z</time></trkpt><trkpt lat="41.056766421212785" lon="9.380619883565632"><ele>50.333333333333336</ele><time>2026-03-27T15:29:44.999Z</time></trkpt><trkpt lat="41.05691135223337" lon="9.380752446982713"><ele>50.0</ele><time>2026-03-27T15:29:45.999Z</time></trkpt><trkpt lat="41.05705987994506" lon="9.380879397482643"><ele>50.0</ele><time>2026-03-27T15:29:46.999Z</time></trkpt><trkpt lat="41.057215519773365" lon="9.380992055783526"><ele>50.0</ele><time>2026-03-27T15:29:47.999Z</time></trkpt><trkpt lat="41.05738460117459" lon="9.381077738280444"><ele>50.0</ele><time>2026-03-27T15:29:48.999Z</time></trkpt><trkpt lat="41.05755476128527" lon="9.381121665201134"><ele>49.333333333333336</ele><time>2026-03-27T15:29:49.999Z</time></trkpt><trkpt lat="41.057716745720356" lon="9.381137143412527"><ele>48.66666666666667</ele><time>2026-03-27T15:29:50.999Z</time></trkpt><trkpt lat="41.05788083445483" lon="9.381136936488025"><ele>48.0</ele><time>2026-03-27T15:29:51.999Z</time></trkpt><trkpt lat="41.05805522005204" lon="9.381105210611192"><ele>48.0</ele><time>2026-03-27T15:29:52.999Z</time></trkpt><trkpt lat="41.05822481799838" lon="9.38103329187315"><ele>48.0</ele><time>2026-03-27T15:29:53.999Z</time></trkpt><trkpt lat="41.058398447074886" lon="9.380955962609738"><ele>48.0</ele><time>2026-03-27T15:29:54.999Z</time></trkpt><trkpt lat="41.05856642687794" lon="9.380890895379626"><ele>46.666666666666664</ele><time>2026-03-27T15:29:55.999Z</time></trkpt><trkpt lat="41.0587341018992" lon="9.380832206210746"><ele>45.33333333333333</ele><time>2026-03-27T15:29:56.999Z</time></trkpt><trkpt lat="41.058895871245355" lon="9.38077176889814"><ele>44.0</ele><time>2026-03-27T15:29:57.999Z</time></trkpt><trkpt lat="41.05906832053158" lon="9.380720332840514"><ele>43.0</ele><time>2026-03-27T15:29:58.999Z</time></trkpt><trkpt lat="41.059240404335995" lon="9.380686837901797"><ele>42.0</ele><time>2026-03-27T15:29:59.999Z</time></trkpt><trkpt lat="41.05941669679191" lon="9.380685692550454"><ele>41.0</ele><time>2026-03-27T15:30:00.999Z</time></trkpt><trkpt lat="41.05959623707594" lon="9.380703530093756"><ele>41.0</ele><time>2026-03-27T15:30:01.999Z</time></trkpt><trkpt lat="41.05976782494401" lon="9.380806817969862"><ele>41.0</ele><time>2026-03-27T15:30:02.999Z</time></trkpt><trkpt lat="41.05994336053421" lon="9.380912121472683"><ele>41.0</ele><time>2026-03-27T15:30:03.999Z</time></trkpt><trkpt lat="41.06011247567258" lon="9.381023142255911"><ele>40.0</ele><time>2026-03-27T15:30:04.999Z</time></trkpt><trkpt lat="41.06028575709797" lon="9.381136032499306"><ele>39.0</ele><time>2026-03-27T15:30:05.999Z</time></trkpt><trkpt lat="41.06045948441145" lon="9.381246436567693"><ele>38.0</ele><time>2026-03-27T15:30:06.999Z</time></trkpt><trkpt lat="41.060640999386266" lon="9.38136178970718"><ele>34.666666666666664</ele><time>2026-03-27T15:30:07.999Z</time></trkpt><trkpt lat="41.060828281557235" lon="9.381472019889012"><ele>31.333333333333336</ele><time>2026-03-27T15:30:08.999Z</time></trkpt><trkpt lat="41.061026673040175" lon="9.381566000533859"><ele>28.0</ele><time>2026-03-27T15:30:09.999Z</time></trkpt><trkpt lat="41.061221631499286" lon="9.381624393331208"><ele>28.0</ele><time>2026-03-27T15:30:10.999Z</time></trkpt><trkpt lat="41.061423508025506" lon="9.381697141828534"><ele>28.0</ele><time>2026-03-27T15:30:11.999Z</time></trkpt><trkpt lat="41.06163766333586" lon="9.381771834807477"><ele>28.0</ele><time>2026-03-27T15:30:12.999Z</time></trkpt><trkpt lat="41.06184444749889" lon="9.381841939365852"><ele>26.666666666666668</ele><time>2026-03-27T15:30:13.999Z</time></trkpt><trkpt lat="41.062037080638355" lon="9.381898309797933"><ele>25.333333333333336</ele><time>2026-03-27T15:30:14.999Z</time></trkpt><trkpt lat="41.06223316928018" lon="9.381935280655293"><ele>24.0</ele><time>2026-03-27T15:30:15.999Z</time></trkpt><trkpt lat="41.06243446131975" lon="9.381939930008661"><ele>23.666666666666668</ele><time>2026-03-27T15:30:16.999Z</time></trkpt><trkpt lat="41.062640738158386" lon="9.381916913613791"><ele>23.333333333333336</ele><time>2026-03-27T15:30:17.999Z</time></trkpt><trkpt lat="41.06284501914046" lon="9.381880489407683"><ele>23.0</ele><time>2026-03-27T15:30:18.999Z</time></trkpt><trkpt lat="41.06305013849558" lon="9.381843444098175"><ele>23.0</ele><time>2026-03-27T15:30:19.999Z</time></trkpt><trkpt lat="41.06325881952643" lon="9.38181119054447"><ele>23.0</ele><time>2026-03-27T15:30:20.999Z</time></trkpt><trkpt lat="41.063469560184195" lon="9.381780908805183"><ele>23.0</ele><time>2026-03-27T15:30:21.999Z</time></trkpt><trkpt lat="41.06368184810638" lon="9.381750653393253"><ele>23.0</ele><time>2026-03-27T15:30:22.999Z</time></trkpt><trkpt lat="41.063896472375724" lon="9.381721563768169"><ele>23.0</ele><time>2026-03-27T15:30:23.999Z</time></trkpt><trkpt lat="41.06411574169815" lon="9.381734697585802"><ele>23.0</ele><time>2026-03-27T15:30:24.999Z</time></trkpt><trkpt lat="41.06433154133346" lon="9.381766311904002"><ele>22.666666666666668</ele><time>2026-03-27T15:30:25.999Z</time></trkpt><trkpt lat="41.06454979196764" lon="9.381809671260937"><ele>22.333333333333332</ele><time>2026-03-27T15:30:26.999Z</time></trkpt><trkpt lat="41.06476552955373" lon="9.381853688456387"><ele>22.0</ele><time>2026-03-27T15:30:27.999Z</time></trkpt><trkpt lat="41.06498165786822" lon="9.3818843834527"><ele>22.666666666666664</ele><time>2026-03-27T15:30:28.999Z</time></trkpt><trkpt lat="41.06519634690027" lon="9.381927914642345"><ele>23.333333333333332</ele><time>2026-03-27T15:30:29.999Z</time></trkpt><trkpt lat="41.06541252633735" lon="9.381970543323787"><ele>24.0</ele><time>2026-03-27T15:30:30.999Z</time></trkpt><trkpt lat="41.06562664622753" lon="9.38200593338939"><ele>24.0</ele><time>2026-03-27T15:30:31.999Z</time></trkpt><trkpt lat="41.06584979296354" lon="9.382035271550448"><ele>24.0</ele><time>2026-03-27T15:30:32.999Z</time></trkpt><trkpt lat="41.06607088165548" lon="9.382062324526405"><ele>24.0</ele><time>2026-03-27T15:30:33.999Z</time></trkpt><trkpt lat="41.06628593020531" lon="9.382095232783996"><ele>24.0</ele><time>2026-03-27T15:30:34.999Z</time></trkpt><trkpt lat="41.066509616124655" lon="9.382109964093745"><ele>24.0</ele><time>2026-03-27T15:30:35.998Z</time></trkpt><trkpt lat="41.06673059590961" lon="9.382134282968455"><ele>24.0</ele><time>2026-03-27T15:30:36.998Z</time></trkpt><trkpt lat="41.066949457167425" lon="9.38215455440826"><ele>24.0</ele><time>2026-03-27T15:30:37.998Z</time></trkpt><trkpt lat="41.06716661840245" lon="9.382172546969555"><ele>24.0</ele><time>2026-03-27T15:30:38.998Z</time></trkpt><trkpt lat="41.067380498604614" lon="9.382212793957505"><ele>24.0</ele><time>2026-03-27T15:30:39.998Z</time></trkpt><trkpt lat="41.06758962587264" lon="9.382235157608893"><ele>25.0</ele><time>2026-03-27T15:30:40.998Z</time></trkpt><trkpt lat="41.06779441027456" lon="9.382236278713691"><ele>26.0</ele><time>2026-03-27T15:30:41.998Z</time></trkpt><trkpt lat="41.06797840609937" lon="9.382258709903128"><ele>27.0</ele><time>2026-03-27T15:30:42.998Z</time></trkpt><trkpt lat="41.068150995681776" lon="9.38227529623184"><ele>27.25</ele><time>2026-03-27T15:30:43.998Z</time></trkpt><trkpt lat="41.068306653912785" lon="9.382311437433733"><ele>27.5</ele><time>2026-03-27T15:30:44.998Z</time></trkpt><trkpt lat="41.06844983035946" lon="9.382306932877281"><ele>27.75</ele><time>2026-03-27T15:30:45.998Z</time></trkpt><trkpt lat="41.06858034006178" lon="9.38232095702813"><ele>28.0</ele><time>2026-03-27T15:30:46.998Z</time></trkpt><trkpt lat="41.06870668172404" lon="9.382335545544306"><ele>28.0</ele><time>2026-03-27T15:30:47.998Z</time></trkpt><trkpt lat="41.06881611619365" lon="9.382360684325736"><ele>27.999999999999996</ele><time>2026-03-27T15:30:48.998Z</time></trkpt><trkpt lat="41.06890053983219" lon="9.382423970042451"><ele>27.999999999999996</ele><time>2026-03-27T15:30:49.998Z</time></trkpt><trkpt lat="41.06896375450178" lon="9.382475476521199"><ele>28.0</ele><time>2026-03-27T15:30:50.998Z</time></trkpt><trkpt lat="41.069046016690145" lon="9.382549359981622"><ele>28.0</ele><time>2026-03-27T15:30:52.998Z</time></trkpt><trkpt lat="41.069097667358804" lon="9.382657796654073"><ele>28.599999999999998</ele><time>2026-03-27T15:30:54.998Z</time></trkpt><trkpt lat="41.06914925783393" lon="9.382715300574908"><ele>29.199999999999996</ele><time>2026-03-27T15:30:55.998Z</time></trkpt><trkpt lat="41.06921187634995" lon="9.38278509654956"><ele>29.8</ele><time>2026-03-27T15:30:56.998Z</time></trkpt><trkpt lat="41.0693267091945" lon="9.382781781542935"><ele>30.4</ele><time>2026-03-27T15:30:57.998Z</time></trkpt><trkpt lat="41.06941213412557" lon="9.382793049499938"><ele>31.0</ele><time>2026-03-27T15:30:58.998Z</time></trkpt><trkpt lat="41.069525143537916" lon="9.382757357277894"><ele>31.0</ele><time>2026-03-27T15:30:59.998Z</time></trkpt><trkpt lat="41.06959950772646" lon="9.382660981264749"><ele>31.0</ele><time>2026-03-27T15:31:00.998Z</time></trkpt><trkpt lat="41.06972502378309" lon="9.382607322623779"><ele>31.0</ele><time>2026-03-27T15:31:01.998Z</time></trkpt><trkpt lat="41.06984886175695" lon="9.382550823510172"><ele>31.0</ele><time>2026-03-27T15:31:02.998Z</time></trkpt><trkpt lat="41.0699550939145" lon="9.382474261615153"><ele>33.0</ele><time>2026-03-27T15:31:03.998Z</time></trkpt><trkpt lat="41.07011563302919" lon="9.382585248886738"><ele>35.0</ele><time>2026-03-27T15:31:04.998Z</time></trkpt><trkpt lat="41.07026697978202" lon="9.382619143966"><ele>37.0</ele><time>2026-03-27T15:31:05.998Z</time></trkpt><trkpt lat="41.07043291130641" lon="9.382655170147425"><ele>37.0</ele><time>2026-03-27T15:31:06.998Z</time></trkpt><trkpt lat="41.070628369003586" lon="9.38267931641991"><ele>37.0</ele><time>2026-03-27T15:31:07.998Z</time></trkpt><trkpt lat="41.07081431948924" lon="9.382717087757399"><ele>37.0</ele><time>2026-03-27T15:31:08.998Z</time></trkpt><trkpt lat="41.07098938339291" lon="9.382755588332127"><ele>37.66666666666667</ele><time>2026-03-27T15:31:09.998Z</time></trkpt><trkpt lat="41.07117098501418" lon="9.382789911381574"><ele>38.333333333333336</ele><time>2026-03-27T15:31:10.998Z</time></trkpt><trkpt lat="41.071354257027984" lon="9.38280807027018"><ele>39.0</ele><time>2026-03-27T15:31:11.998Z</time></trkpt><trkpt lat="41.07153041959493" lon="9.382806437056955"><ele>39.666666666666664</ele><time>2026-03-27T15:31:12.998Z</time></trkpt><trkpt lat="41.071706532386244" lon="9.382780998009435"><ele>40.33333333333333</ele><time>2026-03-27T15:31:13.998Z</time></trkpt><trkpt lat="41.071883645036294" lon="9.382743246065619"><ele>41.0</ele><time>2026-03-27T15:31:14.998Z</time></trkpt><trkpt lat="41.07205774094568" lon="9.382703912277181"><ele>41.0</ele><time>2026-03-27T15:31:15.998Z</time></trkpt><trkpt lat="41.07223793146175" lon="9.382668100947136"><ele>41.0</ele><time>2026-03-27T15:31:16.998Z</time></trkpt><trkpt lat="41.0724201009495" lon="9.382631225974755"><ele>41.0</ele><time>2026-03-27T15:31:17.998Z</time></trkpt><trkpt lat="41.07260005575656" lon="9.382592434729762"><ele>41.33333333333333</ele><time>2026-03-27T15:31:18.998Z</time></trkpt><trkpt lat="41.07277442158921" lon="9.382556911655378"><ele>41.666666666666664</ele><time>2026-03-27T15:31:19.998Z</time></trkpt><trkpt lat="41.07293844193458" lon="9.382520292729879"><ele>42.0</ele><time>2026-03-27T15:31:20.998Z</time></trkpt><trkpt lat="41.07309798622316" lon="9.382500034203924"><ele>42.0</ele><time>2026-03-27T15:31:21.998Z</time></trkpt><trkpt lat="41.07325923689486" lon="9.382494006720925"><ele>42.0</ele><time>2026-03-27T15:31:22.998Z</time></trkpt><trkpt lat="41.073427277531415" lon="9.382511649088437"><ele>42.0</ele><time>2026-03-27T15:31:23.998Z</time></trkpt><trkpt lat="41.07358676178999" lon="9.3825811687424"><ele>42.666666666666664</ele><time>2026-03-27T15:31:24.998Z</time></trkpt><trkpt lat="41.073745149756434" lon="9.382649626384033"><ele>43.33333333333333</ele><time>2026-03-27T15:31:25.998Z</time></trkpt><trkpt lat="41.073894910595065" lon="9.382735785099111"><ele>44.0</ele><time>2026-03-27T15:31:26.997Z</time></trkpt><trkpt lat="41.07403729385611" lon="9.382845332629753"><ele>43.33333333333333</ele><time>2026-03-27T15:31:27.997Z</time></trkpt><trkpt lat="41.074169276086266" lon="9.38297882224326"><ele>42.666666666666664</ele><time>2026-03-27T15:31:29Z</time></trkpt><trkpt lat="41.07430096431801" lon="9.383127526168202"><ele>42.0</ele><time>2026-03-27T15:31:30Z</time></trkpt><trkpt lat="41.074430151376276" lon="9.383281298618634"><ele>41.333333333333336</ele><time>2026-03-27T15:31:31Z</time></trkpt><trkpt lat="41.074560214916175" lon="9.383440827323497"><ele>40.66666666666667</ele><time>2026-03-27T15:31:32Z</time></trkpt><trkpt lat="41.074684962595576" lon="9.383608193731233"><ele>40.0</ele><time>2026-03-27T15:31:33Z</time></trkpt><trkpt lat="41.07479636482513" lon="9.383790165373126"><ele>41.0</ele><time>2026-03-27T15:31:34Z</time></trkpt><trkpt lat="41.074901028525495" lon="9.38398738075257"><ele>42.0</ele><time>2026-03-27T15:31:35Z</time></trkpt><trkpt lat="41.075008138628476" lon="9.384186068717788"><ele>43.0</ele><time>2026-03-27T15:31:36Z</time></trkpt><trkpt lat="41.075111772694044" lon="9.38437564443017"><ele>44.333333333333336</ele><time>2026-03-27T15:31:37Z</time></trkpt><trkpt lat="41.075211184191545" lon="9.384557136132825"><ele>45.666666666666664</ele><time>2026-03-27T15:31:38Z</time></trkpt><trkpt lat="41.075308795188334" lon="9.38473515824488"><ele>47.0</ele><time>2026-03-27T15:31:39Z</time></trkpt><trkpt lat="41.075403862798254" lon="9.38490846825542"><ele>47.25</ele><time>2026-03-27T15:31:40Z</time></trkpt><trkpt lat="41.07549135614283" lon="9.385067970264565"><ele>47.5</ele><time>2026-03-27T15:31:41Z</time></trkpt><trkpt lat="41.075574711292184" lon="9.385219928294568"><ele>47.75</ele><time>2026-03-27T15:31:42Z</time></trkpt><trkpt lat="41.07565746808221" lon="9.38537355194869"><ele>48.0</ele><time>2026-03-27T15:31:43Z</time></trkpt><trkpt lat="41.075738522875824" lon="9.385523437129267"><ele>50.25</ele><time>2026-03-27T15:31:44Z</time></trkpt><trkpt lat="41.07581062021546" lon="9.385656758353417"><ele>52.5</ele><time>2026-03-27T15:31:44.999Z</time></trkpt><trkpt lat="41.07587753772159" lon="9.385780500715104"><ele>54.75</ele><time>2026-03-27T15:31:45.999Z</time></trkpt><trkpt lat="41.07594493962972" lon="9.385904524394396"><ele>57.0</ele><time>2026-03-27T15:31:46.999Z</time></trkpt><trkpt lat="41.076008113069356" lon="9.38602089425227"><ele>57.0</ele><time>2026-03-27T15:31:47.999Z</time></trkpt><trkpt lat="41.076068140580325" lon="9.386130468044742"><ele>57.0</ele><time>2026-03-27T15:31:48.999Z</time></trkpt><trkpt lat="41.07611745168111" lon="9.386220465144577"><ele>57.0</ele><time>2026-03-27T15:31:49.999Z</time></trkpt><trkpt lat="41.07616175123274" lon="9.386301315180086"><ele>57.0</ele><time>2026-03-27T15:31:50.999Z</time></trkpt><trkpt lat="41.07620288626108" lon="9.386377990616818"><ele>57.0</ele><time>2026-03-27T15:31:51.999Z</time></trkpt><trkpt lat="41.076257073024856" lon="9.386481704857454"><ele>57.0</ele><time>2026-03-27T15:31:53.999Z</time></trkpt><trkpt lat="41.076266562589225" lon="9.386311097246503"><ele>57.0</ele><time>2026-03-27T15:31:59.999Z</time></trkpt><trkpt lat="41.076223861622694" lon="9.386198929590016"><ele>57.0</ele><time>2026-03-27T15:32:01.999Z</time></trkpt><trkpt lat="41.076285036131544" lon="9.386151820436819"><ele>57.0</ele><time>2026-03-27T15:32:04.999Z</time></trkpt><trkpt lat="41.076354364064244" lon="9.386054333126832"><ele>57.0</ele><time>2026-03-27T15:32:25.999Z</time></trkpt><trkpt lat="41.07643117416713" lon="9.385992743899601"><ele>57.0</ele><time>2026-03-27T15:32:26.999Z</time></trkpt><trkpt lat="41.07651366758166" lon="9.385929411891494"><ele>57.25</ele><time>2026-03-27T15:32:27.999Z</time></trkpt><trkpt lat="41.07660499602029" lon="9.38585216370992"><ele>57.5</ele><time>2026-03-27T15:32:28.999Z</time></trkpt><trkpt lat="41.076707547850326" lon="9.385777334829642"><ele>57.75</ele><time>2026-03-27T15:32:29.999Z</time></trkpt><trkpt lat="41.076811657463885" lon="9.385715281532784"><ele>58.0</ele><time>2026-03-27T15:32:30.999Z</time></trkpt><trkpt lat="41.07690507570608" lon="9.38562845519631"><ele>58.0</ele><time>2026-03-27T15:32:31.999Z</time></trkpt><trkpt lat="41.076995897993044" lon="9.38555686576017"><ele>58.0</ele><time>2026-03-27T15:32:32.999Z</time></trkpt><trkpt lat="41.0770929403055" lon="9.385490247820618"><ele>58.0</ele><time>2026-03-27T15:32:33.999Z</time></trkpt><trkpt lat="41.07719316577902" lon="9.385435521891809"><ele>58.0</ele><time>2026-03-27T15:32:34.999Z</time></trkpt><trkpt lat="41.077283122892545" lon="9.385377031394013"><ele>58.0</ele><time>2026-03-27T15:32:35.998Z</time></trkpt><trkpt lat="41.07736837746891" lon="9.385315338823252"><ele>57.8</ele><time>2026-03-27T15:32:36.998Z</time></trkpt><trkpt lat="41.077458477701676" lon="9.385255552049536"><ele>57.599999999999994</ele><time>2026-03-27T15:32:37.998Z</time></trkpt><trkpt lat="41.07754950684718" lon="9.385199995539125"><ele>57.400000000000006</ele><time>2026-03-27T15:32:38.998Z</time></trkpt><trkpt lat="41.077638148691626" lon="9.385151315277229"><ele>57.2</ele><time>2026-03-27T15:32:39.998Z</time></trkpt><trkpt lat="41.077721954202225" lon="9.385101164027786"><ele>57.0</ele><time>2026-03-27T15:32:40.999Z</time></trkpt><trkpt lat="41.077798273299834" lon="9.38504530981853"><ele>57.0</ele><time>2026-03-27T15:32:41.999Z</time></trkpt><trkpt lat="41.077890169926995" lon="9.385003267850244"><ele>57.0</ele><time>2026-03-27T15:32:42.999Z</time></trkpt><trkpt lat="41.07797752476427" lon="9.384946367254297"><ele>57.0</ele><time>2026-03-27T15:32:43.999Z</time></trkpt><trkpt lat="41.078061763979484" lon="9.38489200689685"><ele>57.0</ele><time>2026-03-27T15:32:44.999Z</time></trkpt><trkpt lat="41.07812849773073" lon="9.38484894296544"><ele>57.0</ele><time>2026-03-27T15:32:45.999Z</time></trkpt><trkpt lat="41.0782003797837" lon="9.384778992443565"><ele>57.333333333333336</ele><time>2026-03-27T15:32:47.999Z</time></trkpt><trkpt lat="41.07828205768908" lon="9.384889400033678"><ele>57.66666666666667</ele><time>2026-03-27T15:32:51.999Z</time></trkpt><trkpt lat="41.0782908581682" lon="9.384980030903218"><ele>58.0</ele><time>2026-03-27T15:32:52.999Z</time></trkpt><trkpt lat="41.078319990030856" lon="9.385085957964302"><ele>58.333333333333336</ele><time>2026-03-27T15:32:53.999Z</time></trkpt><trkpt lat="41.07835356371801" lon="9.385203094945336"><ele>58.66666666666667</ele><time>2026-03-27T15:32:54.999Z</time></trkpt><trkpt lat="41.078391639407904" lon="9.385290691725562"><ele>59.0</ele><time>2026-03-27T15:32:55.999Z</time></trkpt><trkpt lat="41.07841909243603" lon="9.385373652394312"><ele>59.0</ele><time>2026-03-27T15:32:56.999Z</time></trkpt><trkpt lat="41.07843109794805" lon="9.385464406503853"><ele>59.00000000000001</ele><time>2026-03-27T15:32:57.999Z</time></trkpt><trkpt lat="41.07846117474282" lon="9.38555066912951"><ele>59.00000000000001</ele><time>2026-03-27T15:32:58.999Z</time></trkpt><trkpt lat="41.07852676317798" lon="9.385705088821906"><ele>59.0</ele><time>2026-03-27T15:33:00.999Z</time></trkpt><trkpt lat="41.07858575119108" lon="9.385820750205031"><ele>59.0</ele><time>2026-03-27T15:33:01.999Z</time></trkpt><trkpt lat="41.07865289593139" lon="9.38594331244319"><ele>59.2</ele><time>2026-03-27T15:33:02.999Z</time></trkpt><trkpt lat="41.07871880709032" lon="9.386059409890786"><ele>59.400000000000006</ele><time>2026-03-27T15:33:03.999Z</time></trkpt><trkpt lat="41.07877276793903" lon="9.386162290606016"><ele>59.6</ele><time>2026-03-27T15:33:04.999Z</time></trkpt><trkpt lat="41.078820851511345" lon="9.386257359114431"><ele>59.8</ele><time>2026-03-27T15:33:05.999Z</time></trkpt><trkpt lat="41.07888041688711" lon="9.386380833072677"><ele>60.0</ele><time>2026-03-27T15:33:07.999Z</time></trkpt><trkpt lat="41.079037160082805" lon="9.386269340616675"><ele>59.666666666666664</ele><time>2026-03-27T15:33:09.999Z</time></trkpt><trkpt lat="41.079117897535184" lon="9.38618599417189"><ele>59.33333333333333</ele><time>2026-03-27T15:33:10.999Z</time></trkpt><trkpt lat="41.079184029195545" lon="9.3861256204988"><ele>59.0</ele><time>2026-03-27T15:33:11.999Z</time></trkpt><trkpt lat="41.07925135109324" lon="9.386066779011802"><ele>58.666666666666664</ele><time>2026-03-27T15:33:12.999Z</time></trkpt><trkpt lat="41.07930969925195" lon="9.386015507329805"><ele>58.33333333333333</ele><time>2026-03-27T15:33:13.999Z</time></trkpt><trkpt lat="41.07937175445277" lon="9.38596200852248"><ele>58.0</ele><time>2026-03-27T15:33:14.999Z</time></trkpt><trkpt lat="41.079427218215265" lon="9.38591166480682"><ele>58.00000000000001</ele><time>2026-03-27T15:33:15.999Z</time></trkpt><trkpt lat="41.079491410298445" lon="9.385859927713406"><ele>58.0</ele><time>2026-03-27T15:33:16.999Z</time></trkpt><trkpt lat="41.07956889011419" lon="9.385826063134719"><ele>58.00000000000001</ele><time>2026-03-27T15:33:17.999Z</time></trkpt><trkpt lat="41.07963677453851" lon="9.385790975993338"><ele>58.00000000000001</ele><time>2026-03-27T15:33:18.999Z</time></trkpt><trkpt lat="41.079702511851" lon="9.385749627063039"><ele>58.0</ele><time>2026-03-27T15:33:19.999Z</time></trkpt><trkpt lat="41.07976740209153" lon="9.385695283184695"><ele>58.00000000000001</ele><time>2026-03-27T15:33:20.999Z</time></trkpt><trkpt lat="41.07982747002431" lon="9.385660566304404"><ele>58.00000000000001</ele><time>2026-03-27T15:33:21.999Z</time></trkpt><trkpt lat="41.07989745613733" lon="9.385735143360078"><ele>58.0</ele><time>2026-03-27T15:33:24.999Z</time></trkpt><trkpt lat="41.07993128798165" lon="9.385826442399583"><ele>58.0</ele><time>2026-03-27T15:33:25.999Z</time></trkpt><trkpt lat="41.07997944531544" lon="9.385911186110832"><ele>58.0</ele><time>2026-03-27T15:33:27.998Z</time></trkpt><trkpt lat="41.08013631701816" lon="9.385783211482016"><ele>58.0</ele><time>2026-03-27T15:33:28.998Z</time></trkpt><trkpt lat="41.08021438466113" lon="9.38576901956398"><ele>58.0</ele><time>2026-03-27T15:33:29.998Z</time></trkpt><trkpt lat="41.08028423493093" lon="9.385806355584478"><ele>57.599999999999994</ele><time>2026-03-27T15:33:30.998Z</time></trkpt><trkpt lat="41.08035429015663" lon="9.385876006738258"><ele>57.199999999999996</ele><time>2026-03-27T15:33:31.998Z</time></trkpt><trkpt lat="41.08041428952704" lon="9.386006885001576"><ele>56.8</ele><time>2026-03-27T15:33:32.998Z</time></trkpt><trkpt lat="41.080456543748085" lon="9.386096910862992"><ele>56.4</ele><time>2026-03-27T15:33:33.998Z</time></trkpt><trkpt lat="41.080537506412135" lon="9.386172268184586"><ele>56.0</ele><time>2026-03-27T15:33:35Z</time></trkpt><trkpt lat="41.08064537092623" lon="9.386119280812263"><ele>56.00000000000001</ele><time>2026-03-27T15:33:36Z</time></trkpt><trkpt lat="41.08071410985418" lon="9.386109396136899"><ele>56.0</ele><time>2026-03-27T15:33:37Z</time></trkpt><trkpt lat="41.08081180835462" lon="9.386102216963945"><ele>56.0</ele><time>2026-03-27T15:33:39Z</time></trkpt><trkpt lat="41.080829578642636" lon="9.38624254619846"><ele>56.0</ele><time>2026-03-27T15:33:40Z</time></trkpt><trkpt lat="41.08087026716565" lon="9.38634576928465"><ele>56.00000000000001</ele><time>2026-03-27T15:33:41Z</time></trkpt><trkpt lat="41.08091300488262" lon="9.386432744428411"><ele>56.0</ele><time>2026-03-27T15:33:42Z</time></trkpt><trkpt lat="41.08094187483969" lon="9.386512581318312"><ele>57.8</ele><time>2026-03-27T15:33:43Z</time></trkpt><trkpt lat="41.08098850853114" lon="9.386629257877303"><ele>59.599999999999994</ele><time>2026-03-27T15:33:45Z</time></trkpt><trkpt lat="41.08098672805771" lon="9.386718723482366"><ele>61.4</ele><time>2026-03-27T15:33:52Z</time></trkpt><trkpt lat="41.080875698061654" lon="9.386848164857595"><ele>63.2</ele><time>2026-03-27T15:33:55Z</time></trkpt><trkpt lat="41.080877511892524" lon="9.386935949732104"><ele>65.0</ele><time>2026-03-27T15:33:56Z</time></trkpt><trkpt lat="41.080874504319446" lon="9.387063830624834"><ele>67.2</ele><time>2026-03-27T15:33:58Z</time></trkpt><trkpt lat="41.08086809276361" lon="9.38719946667218"><ele>69.4</ele><time>2026-03-27T15:34:08Z</time></trkpt><trkpt lat="41.08086067766009" lon="9.387349807128109"><ele>71.6</ele><time>2026-03-27T15:34:10Z</time></trkpt><trkpt lat="41.0808557540291" lon="9.387449737407026"><ele>73.8</ele><time>2026-03-27T15:34:12Z</time></trkpt><trkpt lat="41.08085046883322" lon="9.387576895616085"><ele>76.0</ele><time>2026-03-27T15:34:14Z</time></trkpt><trkpt lat="41.080860700499194" lon="9.387708534156717"><ele>76.0</ele><time>2026-03-27T15:34:17Z</time></trkpt><trkpt lat="41.08084222460137" lon="9.38787517828381"><ele>76.0</ele><time>2026-03-27T15:34:19Z</time></trkpt><trkpt lat="41.08084042026091" lon="9.388007646180377"><ele>76.0</ele><time>2026-03-27T15:34:21Z</time></trkpt><trkpt lat="41.080839856178216" lon="9.388092371794178"><ele>76.0</ele><time>2026-03-27T15:34:23Z</time></trkpt><trkpt lat="41.080865682692895" lon="9.388183697801503"><ele>76.0</ele><time>2026-03-27T15:34:24Z</time></trkpt><trkpt lat="41.08086537111142" lon="9.388273975073751"><ele>76.0</ele><time>2026-03-27T15:34:25Z</time></trkpt><trkpt lat="41.08086409084415" lon="9.388402705939063"><ele>77.19999999999999</ele><time>2026-03-27T15:34:26Z</time></trkpt><trkpt lat="41.080858384121925" lon="9.388527905434566"><ele>78.39999999999999</ele><time>2026-03-27T15:34:27Z</time></trkpt><trkpt lat="41.08084804990691" lon="9.388702765623696"><ele>79.6</ele><time>2026-03-27T15:34:29Z</time></trkpt><trkpt lat="41.08084686966874" lon="9.388802292708354"><ele>80.8</ele><time>2026-03-27T15:34:31Z</time></trkpt><trkpt lat="41.08075243514457" lon="9.388912418637535"><ele>82.0</ele><time>2026-03-27T15:34:33Z</time></trkpt><trkpt lat="41.08070139335811" lon="9.388970565199925"><ele>83.8</ele><time>2026-03-27T15:34:35Z</time></trkpt><trkpt lat="41.08073567215111" lon="9.389131304676635"><ele>85.6</ele><time>2026-03-27T15:34:37Z</time></trkpt><trkpt lat="41.08075219214185" lon="9.389229142284147"><ele>87.39999999999999</ele><time>2026-03-27T15:34:38Z</time></trkpt><trkpt lat="41.080765104514846" lon="9.389331068270824"><ele>89.19999999999999</ele><time>2026-03-27T15:34:39.999Z</time></trkpt><trkpt lat="41.080688537048644" lon="9.389340331800087"><ele>91.0</ele><time>2026-03-27T15:34:41.999Z</time></trkpt><trkpt lat="41.080617829810585" lon="9.389238063239151"><ele>91.0</ele><time>2026-03-27T15:34:43.999Z</time></trkpt><trkpt lat="41.08056637714778" lon="9.389181644359386"><ele>91.0</ele><time>2026-03-27T15:34:44.999Z</time></trkpt><trkpt lat="41.0805425011067" lon="9.389102525409196"><ele>91.0</ele><time>2026-03-27T15:34:45.999Z</time></trkpt><trkpt lat="41.08048612591707" lon="9.389008956176465"><ele>91.0</ele><time>2026-03-27T15:34:47.999Z</time></trkpt><trkpt lat="41.08043380340459" lon="9.388943287987834"><ele>91.0</ele><time>2026-03-27T15:34:50.999Z</time></trkpt><trkpt lat="41.08034234109173" lon="9.388928962664208"><ele>91.0</ele><time>2026-03-27T15:34:54.999Z</time></trkpt><trkpt lat="41.08028925418514" lon="9.388977456209282"><ele>91.0</ele><time>2026-03-27T15:35:18.999Z</time></trkpt><trkpt lat="41.08029124925118" lon="9.38911165121888"><ele>91.0</ele><time>2026-03-27T15:45:51.998Z</time></trkpt><trkpt lat="41.08027996211617" lon="9.389018264782194"><ele>91.0</ele><time>2026-03-27T15:46:27Z</time></trkpt><trkpt lat="41.08028517249556" lon="9.388911006205786"><ele>91.0</ele><time>2026-03-27T15:46:30.072Z</time></trkpt><trkpt lat="41.08030925096572" lon="9.388814233314854"><ele>91.0</ele><time>2026-03-27T15:46:36Z</time></trkpt><trkpt lat="41.08038215152971" lon="9.38887242445681"><ele>91.0</ele><time>2026-03-27T15:46:40Z</time></trkpt><trkpt lat="41.08037519328925" lon="9.389033085722138"><ele>91.0</ele><time>2026-03-27T15:46:43Z</time></trkpt><trkpt lat="41.080365339760064" lon="9.389127511199389"><ele>91.0</ele><time>2026-03-27T15:46:47Z</time></trkpt><trkpt lat="41.080357109286936" lon="9.389210670886293"><ele>91.0</ele><time>2026-03-27T15:46:56.999Z</time></trkpt><trkpt lat="41.08036328849129" lon="9.389316581715748"><ele>91.0</ele><time>2026-03-27T15:47:03.999Z</time></trkpt><trkpt lat="41.08034945582467" lon="9.389188386705166"><ele>91.0</ele><time>2026-03-27T15:51:01.999Z</time></trkpt><trkpt lat="41.0803717400801" lon="9.389267730428067"><ele>91.0</ele><time>2026-03-27T16:02:25.999Z</time></trkpt><trkpt lat="41.08046727095982" lon="9.389283714060209"><ele>91.0</ele><time>2026-03-27T16:02:27.999Z</time></trkpt><trkpt lat="41.08036101696534" lon="9.389216730674738"><ele>91.0</ele><time>2026-03-27T16:02:35.999Z</time></trkpt><trkpt lat="41.08029180631518" lon="9.389185240915406"><ele>91.0</ele><time>2026-03-27T16:07:54.999Z</time></trkpt><trkpt lat="41.08020678238477" lon="9.389181509566239"><ele>91.0</ele><time>2026-03-27T16:07:59.999Z</time></trkpt><trkpt lat="41.080245856386355" lon="9.389268279582133"><ele>91.0</ele><time>2026-03-27T16:08:05.999Z</time></trkpt><trkpt lat="41.0802888360581" lon="9.389364095576482"><ele>91.0</ele><time>2026-03-27T16:08:10.036Z</time></trkpt><trkpt lat="41.0803914670017" lon="9.389491417300993"><ele>91.0</ele><time>2026-03-27T16:08:17.454Z</time></trkpt><trkpt lat="41.08037327505045" lon="9.389386802641368"><ele>91.0</ele><time>2026-03-27T16:08:18.579Z</time></trkpt><trkpt lat="41.08032651943885" lon="9.389133327141272"><ele>91.0</ele><time>2026-03-27T16:08:24.822Z</time></trkpt><trkpt lat="41.080341270789816" lon="9.388957676093908"><ele>91.0</ele><time>2026-03-27T16:08:55.294Z</time></trkpt></trkseg></trk></gpx>